<?xml version='1.0' encoding='UTF-8'?><gpx version="1.1" creator="JPX - https://github.com/jenetics/jpx" xmlns="http://www.topografix.com/GPX/1/1"><trk><trkseg><trkpt lat="40.748335" lon="14.7865817"><ele>227.0</ele><time>2026-04-19T06:28:08.148Z</time></trkpt><trkpt lat="40.7484367" lon="14.78656"><ele>227.0</ele><time>2026-04-19T06:30:06.149Z</time></trkpt><trkpt lat="40.7485117" lon="14.7865217"><ele>227.0</ele><time>2026-04-19T06:30:08.149Z</time></trkpt><trkpt lat="40.7486083" lon="14.786485"><ele>227.0</ele><time>2026-04-19T06:30:10.148Z</time></trkpt><trkpt lat="40.7487117" lon="14.78645"><ele>227.0</ele><time>2026-04-19T06:30:12.148Z</time></trkpt><trkpt lat="40.7488233" lon="14.7864317"><ele>226.39999999999998</ele><time>2026-04-19T06:30:14.149Z</time></trkpt><trkpt lat="40.74894" lon="14.78644"><ele>225.79999999999998</ele><time>2026-04-19T06:30:16.149Z</time></trkpt><trkpt lat="40.7490617" lon="14.7864517"><ele>225.2</ele><time>2026-04-19T06:30:18.149Z</time></trkpt><trkpt lat="40.74918" lon="14.7864417"><ele>224.6</ele><time>2026-04-19T06:30:20.148Z</time></trkpt><trkpt lat="40.7492483" lon="14.7864217"><ele>224.0</ele><time>2026-04-19T06:30:21.148Z</time></trkpt><trkpt lat="40.7493167" lon="14.7864"><ele>223.79999999999998</ele><time>2026-04-19T06:30:22.149Z</time></trkpt><trkpt lat="40.7493883" lon="14.78637"><ele>223.59999999999997</ele><time>2026-04-19T06:30:23.149Z</time></trkpt><trkpt lat="40.7494667" lon="14.78635"><ele>223.4</ele><time>2026-04-19T06:30:24.148Z</time></trkpt><trkpt lat="40.7495617" lon="14.7863483"><ele>223.2</ele><time>2026-04-19T06:30:25.149Z</time></trkpt><trkpt lat="40.7496633" lon="14.786355"><ele>223.0</ele><time>2026-04-19T06:30:26.149Z</time></trkpt><trkpt lat="40.7497683" lon="14.7863767"><ele>223.0</ele><time>2026-04-19T06:30:27.149Z</time></trkpt><trkpt lat="40.7498667" lon="14.7864"><ele>223.0</ele><time>2026-04-19T06:30:28.149Z</time></trkpt><trkpt lat="40.749965" lon="14.7864283"><ele>223.0</ele><time>2026-04-19T06:30:29.149Z</time></trkpt><trkpt lat="40.750075" lon="14.7864433"><ele>223.0</ele><time>2026-04-19T06:30:30.149Z</time></trkpt><trkpt lat="40.7501967" lon="14.786465"><ele>223.0</ele><time>2026-04-19T06:30:31.148Z</time></trkpt><trkpt lat="40.7503233" lon="14.786495"><ele>223.25</ele><time>2026-04-19T06:30:32.149Z</time></trkpt><trkpt lat="40.75046" lon="14.7865167"><ele>223.5</ele><time>2026-04-19T06:30:33.149Z</time></trkpt><trkpt lat="40.7506033" lon="14.7865367"><ele>223.75</ele><time>2026-04-19T06:30:34.149Z</time></trkpt><trkpt lat="40.7507567" lon="14.78656"><ele>224.0</ele><time>2026-04-19T06:30:35.149Z</time></trkpt><trkpt lat="40.75091" lon="14.786595"><ele>223.66666666666669</ele><time>2026-04-19T06:30:36.148Z</time></trkpt><trkpt lat="40.7510567" lon="14.7866233"><ele>223.33333333333331</ele><time>2026-04-19T06:30:37.149Z</time></trkpt><trkpt lat="40.7512067" lon="14.786645"><ele>223.0</ele><time>2026-04-19T06:30:38.149Z</time></trkpt><trkpt lat="40.75136" lon="14.7866733"><ele>223.0</ele><time>2026-04-19T06:30:39.148Z</time></trkpt><trkpt lat="40.75151" lon="14.7867133"><ele>223.0</ele><time>2026-04-19T06:30:40.149Z</time></trkpt><trkpt lat="40.7516683" lon="14.7867417"><ele>223.0</ele><time>2026-04-19T06:30:41.149Z</time></trkpt><trkpt lat="40.75184" lon="14.7867717"><ele>222.66666666666666</ele><time>2026-04-19T06:30:42.149Z</time></trkpt><trkpt lat="40.7520167" lon="14.7867983"><ele>222.33333333333331</ele><time>2026-04-19T06:30:43.149Z</time></trkpt><trkpt lat="40.752195" lon="14.78684"><ele>222.0</ele><time>2026-04-19T06:30:44.149Z</time></trkpt><trkpt lat="40.752375" lon="14.78687"><ele>223.0</ele><time>2026-04-19T06:30:45.148Z</time></trkpt><trkpt lat="40.7525567" lon="14.786905"><ele>224.0</ele><time>2026-04-19T06:30:46.149Z</time></trkpt><trkpt lat="40.7527417" lon="14.7869333"><ele>225.0</ele><time>2026-04-19T06:30:47.149Z</time></trkpt><trkpt lat="40.7529317" lon="14.7869767"><ele>225.0</ele><time>2026-04-19T06:30:48.149Z</time></trkpt><trkpt lat="40.75312" lon="14.7870133"><ele>225.0</ele><time>2026-04-19T06:30:49.148Z</time></trkpt><trkpt lat="40.7533067" lon="14.787055"><ele>225.0</ele><time>2026-04-19T06:30:50.149Z</time></trkpt><trkpt lat="40.753505" lon="14.7871"><ele>225.66666666666669</ele><time>2026-04-19T06:30:51.149Z</time></trkpt><trkpt lat="40.7537" lon="14.7871367"><ele>226.33333333333334</ele><time>2026-04-19T06:30:52.149Z</time></trkpt><trkpt lat="40.7538983" lon="14.7871733"><ele>227.0</ele><time>2026-04-19T06:30:53.148Z</time></trkpt><trkpt lat="40.7540867" lon="14.7872167"><ele>227.0</ele><time>2026-04-19T06:30:54.149Z</time></trkpt><trkpt lat="40.7542817" lon="14.7872567"><ele>227.0</ele><time>2026-04-19T06:30:55.149Z</time></trkpt><trkpt lat="40.7544767" lon="14.7872967"><ele>227.0</ele><time>2026-04-19T06:30:56.149Z</time></trkpt><trkpt lat="40.7546717" lon="14.7873267"><ele>228.33333333333334</ele><time>2026-04-19T06:30:57.149Z</time></trkpt><trkpt lat="40.7548667" lon="14.7873683"><ele>229.66666666666669</ele><time>2026-04-19T06:30:58.148Z</time></trkpt><trkpt lat="40.75506" lon="14.7874083"><ele>231.0</ele><time>2026-04-19T06:30:59.149Z</time></trkpt><trkpt lat="40.75525" lon="14.7874433"><ele>232.33333333333331</ele><time>2026-04-19T06:31:00.148Z</time></trkpt><trkpt lat="40.7554433" lon="14.7874783"><ele>233.66666666666666</ele><time>2026-04-19T06:31:01.148Z</time></trkpt><trkpt lat="40.75564" lon="14.7875167"><ele>235.0</ele><time>2026-04-19T06:31:02.148Z</time></trkpt><trkpt lat="40.7558333" lon="14.7875517"><ele>235.0</ele><time>2026-04-19T06:31:03.149Z</time></trkpt><trkpt lat="40.7560283" lon="14.7875883"><ele>235.0</ele><time>2026-04-19T06:31:04.149Z</time></trkpt><trkpt lat="40.7562217" lon="14.787635"><ele>235.0</ele><time>2026-04-19T06:31:05.149Z</time></trkpt><trkpt lat="40.7564133" lon="14.7876767"><ele>236.0</ele><time>2026-04-19T06:31:06.149Z</time></trkpt><trkpt lat="40.7566017" lon="14.7877117"><ele>237.0</ele><time>2026-04-19T06:31:07.149Z</time></trkpt><trkpt lat="40.7567983" lon="14.7877533"><ele>238.0</ele><time>2026-04-19T06:31:08.149Z</time></trkpt><trkpt lat="40.75699" lon="14.7877833"><ele>238.66666666666666</ele><time>2026-04-19T06:31:09.149Z</time></trkpt><trkpt lat="40.7571833" lon="14.7878233"><ele>239.33333333333331</ele><time>2026-04-19T06:31:10.149Z</time></trkpt><trkpt lat="40.7573733" lon="14.7878633"><ele>240.0</ele><time>2026-04-19T06:31:11.148Z</time></trkpt><trkpt lat="40.75757" lon="14.787905"><ele>241.0</ele><time>2026-04-19T06:31:12.149Z</time></trkpt><trkpt lat="40.7577633" lon="14.78794"><ele>242.0</ele><time>2026-04-19T06:31:13.149Z</time></trkpt><trkpt lat="40.7579617" lon="14.78798"><ele>243.0</ele><time>2026-04-19T06:31:14.149Z</time></trkpt><trkpt lat="40.7581583" lon="14.7880183"><ele>243.0</ele><time>2026-04-19T06:31:15.149Z</time></trkpt><trkpt lat="40.7583567" lon="14.78806"><ele>243.0</ele><time>2026-04-19T06:31:16.149Z</time></trkpt><trkpt lat="40.75855" lon="14.7880933"><ele>243.0</ele><time>2026-04-19T06:31:17.149Z</time></trkpt><trkpt lat="40.7587533" lon="14.7881367"><ele>242.66666666666669</ele><time>2026-04-19T06:31:18.149Z</time></trkpt><trkpt lat="40.7589583" lon="14.7881733"><ele>242.33333333333334</ele><time>2026-04-19T06:31:19.149Z</time></trkpt><trkpt lat="40.7591583" lon="14.78821"><ele>242.0</ele><time>2026-04-19T06:31:20.149Z</time></trkpt><trkpt lat="40.75936" lon="14.7882583"><ele>241.0</ele><time>2026-04-19T06:31:21.148Z</time></trkpt><trkpt lat="40.75956" lon="14.7882967"><ele>240.0</ele><time>2026-04-19T06:31:22.148Z</time></trkpt><trkpt lat="40.7597583" lon="14.7883317"><ele>239.0</ele><time>2026-04-19T06:31:23.148Z</time></trkpt><trkpt lat="40.759965" lon="14.78837"><ele>239.0</ele><time>2026-04-19T06:31:24.149Z</time></trkpt><trkpt lat="40.7601683" lon="14.7884117"><ele>239.0</ele><time>2026-04-19T06:31:25.149Z</time></trkpt><trkpt lat="40.7603733" lon="14.7884517"><ele>239.0</ele><time>2026-04-19T06:31:26.148Z</time></trkpt><trkpt lat="40.76058" lon="14.788495"><ele>239.33333333333334</ele><time>2026-04-19T06:31:27.148Z</time></trkpt><trkpt lat="40.76078" lon="14.7885217"><ele>239.66666666666669</ele><time>2026-04-19T06:31:28.149Z</time></trkpt><trkpt lat="40.7609783" lon="14.78856"><ele>240.0</ele><time>2026-04-19T06:31:29.149Z</time></trkpt><trkpt lat="40.7611867" lon="14.7886117"><ele>240.0</ele><time>2026-04-19T06:31:30.148Z</time></trkpt><trkpt lat="40.7613917" lon="14.7886467"><ele>240.0</ele><time>2026-04-19T06:31:31.148Z</time></trkpt><trkpt lat="40.7615983" lon="14.788695"><ele>240.0</ele><time>2026-04-19T06:31:32.149Z</time></trkpt><trkpt lat="40.7618017" lon="14.7887367"><ele>239.33333333333331</ele><time>2026-04-19T06:31:33.149Z</time></trkpt><trkpt lat="40.7620017" lon="14.7887617"><ele>238.66666666666666</ele><time>2026-04-19T06:31:34.149Z</time></trkpt><trkpt lat="40.7622067" lon="14.7887967"><ele>238.0</ele><time>2026-04-19T06:31:35.149Z</time></trkpt><trkpt lat="40.762415" lon="14.788825"><ele>238.0</ele><time>2026-04-19T06:31:36.149Z</time></trkpt><trkpt lat="40.762615" lon="14.7888483"><ele>238.0</ele><time>2026-04-19T06:31:37.149Z</time></trkpt><trkpt lat="40.7628183" lon="14.7888717"><ele>238.0</ele><time>2026-04-19T06:31:38.149Z</time></trkpt><trkpt lat="40.7630283" lon="14.788895"><ele>237.66666666666666</ele><time>2026-04-19T06:31:39.149Z</time></trkpt><trkpt lat="40.763235" lon="14.7889133"><ele>237.33333333333331</ele><time>2026-04-19T06:31:40.149Z</time></trkpt><trkpt lat="40.7634367" lon="14.7889317"><ele>237.0</ele><time>2026-04-19T06:31:41.149Z</time></trkpt><trkpt lat="40.7636333" lon="14.78894"><ele>235.66666666666669</ele><time>2026-04-19T06:31:42.149Z</time></trkpt><trkpt lat="40.7638233" lon="14.7889433"><ele>234.33333333333334</ele><time>2026-04-19T06:31:43.148Z</time></trkpt><trkpt lat="40.76401" lon="14.788945"><ele>233.0</ele><time>2026-04-19T06:31:44.149Z</time></trkpt><trkpt lat="40.7641983" lon="14.788945"><ele>232.66666666666669</ele><time>2026-04-19T06:31:45.149Z</time></trkpt><trkpt lat="40.7643867" lon="14.788935"><ele>232.33333333333331</ele><time>2026-04-19T06:31:46.149Z</time></trkpt><trkpt lat="40.76457" lon="14.7889233"><ele>232.0</ele><time>2026-04-19T06:31:47.149Z</time></trkpt><trkpt lat="40.7647533" lon="14.78891"><ele>232.0</ele><time>2026-04-19T06:31:48.149Z</time></trkpt><trkpt lat="40.76494" lon="14.7888983"><ele>232.0</ele><time>2026-04-19T06:31:49.149Z</time></trkpt><trkpt lat="40.7651317" lon="14.7888767"><ele>232.0</ele><time>2026-04-19T06:31:50.149Z</time></trkpt><trkpt lat="40.76533" lon="14.7888483"><ele>233.0</ele><time>2026-04-19T06:31:51.148Z</time></trkpt><trkpt lat="40.7655217" lon="14.7888083"><ele>234.0</ele><time>2026-04-19T06:31:52.148Z</time></trkpt><trkpt lat="40.7657183" lon="14.7887917"><ele>235.0</ele><time>2026-04-19T06:31:53.148Z</time></trkpt><trkpt lat="40.765915" lon="14.7887633"><ele>235.0</ele><time>2026-04-19T06:31:54.149Z</time></trkpt><trkpt lat="40.7661117" lon="14.7887217"><ele>235.0</ele><time>2026-04-19T06:31:55.149Z</time></trkpt><trkpt lat="40.7663183" lon="14.7886767"><ele>235.0</ele><time>2026-04-19T06:31:56.149Z</time></trkpt><trkpt lat="40.7665217" lon="14.7886317"><ele>235.0</ele><time>2026-04-19T06:31:57.149Z</time></trkpt><trkpt lat="40.76672" lon="14.78859"><ele>235.0</ele><time>2026-04-19T06:31:58.149Z</time></trkpt><trkpt lat="40.7669133" lon="14.788535"><ele>235.0</ele><time>2026-04-19T06:31:59.149Z</time></trkpt><trkpt lat="40.7671067" lon="14.7884767"><ele>235.0</ele><time>2026-04-19T06:32:00.148Z</time></trkpt><trkpt lat="40.7673017" lon="14.7884167"><ele>235.0</ele><time>2026-04-19T06:32:01.149Z</time></trkpt><trkpt lat="40.7674917" lon="14.7883483"><ele>235.0</ele><time>2026-04-19T06:32:02.148Z</time></trkpt><trkpt lat="40.767685" lon="14.788275"><ele>235.33333333333331</ele><time>2026-04-19T06:32:03.149Z</time></trkpt><trkpt lat="40.7678767" lon="14.7881933"><ele>235.66666666666669</ele><time>2026-04-19T06:32:04.149Z</time></trkpt><trkpt lat="40.7680667" lon="14.7881183"><ele>236.0</ele><time>2026-04-19T06:32:05.149Z</time></trkpt><trkpt lat="40.7682583" lon="14.7880383"><ele>236.0</ele><time>2026-04-19T06:32:06.149Z</time></trkpt><trkpt lat="40.7684517" lon="14.7879533"><ele>236.0</ele><time>2026-04-19T06:32:07.148Z</time></trkpt><trkpt lat="40.7686433" lon="14.7878717"><ele>236.0</ele><time>2026-04-19T06:32:08.149Z</time></trkpt><trkpt lat="40.7688317" lon="14.7877883"><ele>236.0</ele><time>2026-04-19T06:32:09.149Z</time></trkpt><trkpt lat="40.7690183" lon="14.7877"><ele>236.0</ele><time>2026-04-19T06:32:10.148Z</time></trkpt><trkpt lat="40.7692" lon="14.7876133"><ele>236.0</ele><time>2026-04-19T06:32:11.149Z</time></trkpt><trkpt lat="40.7693833" lon="14.7875217"><ele>236.66666666666669</ele><time>2026-04-19T06:32:12.148Z</time></trkpt><trkpt lat="40.7695667" lon="14.78743"><ele>237.33333333333331</ele><time>2026-04-19T06:32:13.149Z</time></trkpt><trkpt lat="40.7697517" lon="14.7873433"><ele>238.0</ele><time>2026-04-19T06:32:14.149Z</time></trkpt><trkpt lat="40.7699267" lon="14.7872617"><ele>238.0</ele><time>2026-04-19T06:32:15.148Z</time></trkpt><trkpt lat="40.7701083" lon="14.7871767"><ele>238.0</ele><time>2026-04-19T06:32:16.149Z</time></trkpt><trkpt lat="40.7702833" lon="14.7870933"><ele>238.0</ele><time>2026-04-19T06:32:17.148Z</time></trkpt><trkpt lat="40.770465" lon="14.7870117"><ele>238.33333333333331</ele><time>2026-04-19T06:32:18.149Z</time></trkpt><trkpt lat="40.77064" lon="14.7869333"><ele>238.66666666666669</ele><time>2026-04-19T06:32:19.149Z</time></trkpt><trkpt lat="40.770815" lon="14.7868433"><ele>239.0</ele><time>2026-04-19T06:32:20.149Z</time></trkpt><trkpt lat="40.770995" lon="14.786755"><ele>240.0</ele><time>2026-04-19T06:32:21.149Z</time></trkpt><trkpt lat="40.7711683" lon="14.7866667"><ele>241.0</ele><time>2026-04-19T06:32:22.149Z</time></trkpt><trkpt lat="40.7713433" lon="14.7865833"><ele>242.0</ele><time>2026-04-19T06:32:23.149Z</time></trkpt><trkpt lat="40.7715117" lon="14.786495"><ele>242.0</ele><time>2026-04-19T06:32:24.149Z</time></trkpt><trkpt lat="40.77168" lon="14.78641"><ele>242.0</ele><time>2026-04-19T06:32:25.149Z</time></trkpt><trkpt lat="40.77185" lon="14.7863233"><ele>242.0</ele><time>2026-04-19T06:32:26.148Z</time></trkpt><trkpt lat="40.7720167" lon="14.7862367"><ele>242.33333333333334</ele><time>2026-04-19T06:32:27.148Z</time></trkpt><trkpt lat="40.7721883" lon="14.7861583"><ele>242.66666666666669</ele><time>2026-04-19T06:32:28.148Z</time></trkpt><trkpt lat="40.7723517" lon="14.7860717"><ele>243.0</ele><time>2026-04-19T06:32:29.149Z</time></trkpt><trkpt lat="40.7725167" lon="14.785995"><ele>243.0</ele><time>2026-04-19T06:32:30.148Z</time></trkpt><trkpt lat="40.772685" lon="14.7859133"><ele>243.0</ele><time>2026-04-19T06:32:31.149Z</time></trkpt><trkpt lat="40.77285" lon="14.7858317"><ele>243.0</ele><time>2026-04-19T06:32:32.149Z</time></trkpt><trkpt lat="40.7730167" lon="14.785745"><ele>243.33333333333331</ele><time>2026-04-19T06:32:33.149Z</time></trkpt><trkpt lat="40.7731783" lon="14.7856583"><ele>243.66666666666666</ele><time>2026-04-19T06:32:34.148Z</time></trkpt><trkpt lat="40.7733467" lon="14.7855733"><ele>244.0</ele><time>2026-04-19T06:32:35.149Z</time></trkpt><trkpt lat="40.773515" lon="14.785495"><ele>243.66666666666666</ele><time>2026-04-19T06:32:36.148Z</time></trkpt><trkpt lat="40.773685" lon="14.7854083"><ele>243.33333333333331</ele><time>2026-04-19T06:32:37.148Z</time></trkpt><trkpt lat="40.773865" lon="14.7853283"><ele>243.0</ele><time>2026-04-19T06:32:38.149Z</time></trkpt><trkpt lat="40.7740533" lon="14.7852433"><ele>241.66666666666669</ele><time>2026-04-19T06:32:39.149Z</time></trkpt><trkpt lat="40.7742383" lon="14.7851617"><ele>240.33333333333334</ele><time>2026-04-19T06:32:40.149Z</time></trkpt><trkpt lat="40.7744217" lon="14.7850817"><ele>239.0</ele><time>2026-04-19T06:32:41.149Z</time></trkpt><trkpt lat="40.77461" lon="14.7849967"><ele>239.0</ele><time>2026-04-19T06:32:42.149Z</time></trkpt><trkpt lat="40.774795" lon="14.784905"><ele>239.0</ele><time>2026-04-19T06:32:43.149Z</time></trkpt><trkpt lat="40.7749733" lon="14.78482"><ele>239.0</ele><time>2026-04-19T06:32:44.148Z</time></trkpt><trkpt lat="40.77516" lon="14.784735"><ele>239.0</ele><time>2026-04-19T06:32:45.148Z</time></trkpt><trkpt lat="40.7753433" lon="14.78465"><ele>239.0</ele><time>2026-04-19T06:32:46.148Z</time></trkpt><trkpt lat="40.77553" lon="14.784565"><ele>239.0</ele><time>2026-04-19T06:32:47.149Z</time></trkpt><trkpt lat="40.7757133" lon="14.784475"><ele>239.0</ele><time>2026-04-19T06:32:48.149Z</time></trkpt><trkpt lat="40.7758983" lon="14.7843867"><ele>239.0</ele><time>2026-04-19T06:32:49.149Z</time></trkpt><trkpt lat="40.7760883" lon="14.784295"><ele>239.0</ele><time>2026-04-19T06:32:50.149Z</time></trkpt><trkpt lat="40.77628" lon="14.784205"><ele>238.33333333333334</ele><time>2026-04-19T06:32:51.149Z</time></trkpt><trkpt lat="40.77647" lon="14.784115"><ele>237.66666666666669</ele><time>2026-04-19T06:32:52.149Z</time></trkpt><trkpt lat="40.77666" lon="14.784025"><ele>237.0</ele><time>2026-04-19T06:32:53.149Z</time></trkpt><trkpt lat="40.7768483" lon="14.7839383"><ele>237.33333333333331</ele><time>2026-04-19T06:32:54.148Z</time></trkpt><trkpt lat="40.7770317" lon="14.7838517"><ele>237.66666666666666</ele><time>2026-04-19T06:32:55.149Z</time></trkpt><trkpt lat="40.777225" lon="14.783765"><ele>238.0</ele><time>2026-04-19T06:32:56.149Z</time></trkpt><trkpt lat="40.777415" lon="14.7836783"><ele>238.0</ele><time>2026-04-19T06:32:57.149Z</time></trkpt><trkpt lat="40.7776" lon="14.7835967"><ele>238.0</ele><time>2026-04-19T06:32:58.149Z</time></trkpt><trkpt lat="40.7777967" lon="14.7835067"><ele>238.0</ele><time>2026-04-19T06:32:59.149Z</time></trkpt><trkpt lat="40.777985" lon="14.7834167"><ele>236.66666666666666</ele><time>2026-04-19T06:33:00.148Z</time></trkpt><trkpt lat="40.7781733" lon="14.7833267"><ele>235.33333333333331</ele><time>2026-04-19T06:33:01.149Z</time></trkpt><trkpt lat="40.77836" lon="14.7832383"><ele>234.0</ele><time>2026-04-19T06:33:02.149Z</time></trkpt><trkpt lat="40.778545" lon="14.78315"><ele>234.0</ele><time>2026-04-19T06:33:03.149Z</time></trkpt><trkpt lat="40.7787317" lon="14.783055"><ele>234.0</ele><time>2026-04-19T06:33:04.149Z</time></trkpt><trkpt lat="40.77892" lon="14.7829633"><ele>234.0</ele><time>2026-04-19T06:33:05.148Z</time></trkpt><trkpt lat="40.7791067" lon="14.782875"><ele>234.0</ele><time>2026-04-19T06:33:06.149Z</time></trkpt><trkpt lat="40.77929" lon="14.78279"><ele>234.0</ele><time>2026-04-19T06:33:07.149Z</time></trkpt><trkpt lat="40.7794767" lon="14.7827017"><ele>234.0</ele><time>2026-04-19T06:33:08.149Z</time></trkpt><trkpt lat="40.7796567" lon="14.7826167"><ele>231.66666666666669</ele><time>2026-04-19T06:33:09.149Z</time></trkpt><trkpt lat="40.77984" lon="14.78254"><ele>229.33333333333334</ele><time>2026-04-19T06:33:10.149Z</time></trkpt><trkpt lat="40.7800233" lon="14.7824517"><ele>227.0</ele><time>2026-04-19T06:33:11.149Z</time></trkpt><trkpt lat="40.7802117" lon="14.7823617"><ele>226.33333333333334</ele><time>2026-04-19T06:33:12.148Z</time></trkpt><trkpt lat="40.7803967" lon="14.7822767"><ele>225.66666666666669</ele><time>2026-04-19T06:33:13.149Z</time></trkpt><trkpt lat="40.7805783" lon="14.7821883"><ele>225.0</ele><time>2026-04-19T06:33:14.149Z</time></trkpt><trkpt lat="40.780765" lon="14.782095"><ele>225.0</ele><time>2026-04-19T06:33:15.149Z</time></trkpt><trkpt lat="40.78095" lon="14.7820083"><ele>225.0</ele><time>2026-04-19T06:33:16.148Z</time></trkpt><trkpt lat="40.7811367" lon="14.78192"><ele>225.0</ele><time>2026-04-19T06:33:17.148Z</time></trkpt><trkpt lat="40.7813233" lon="14.7818333"><ele>224.0</ele><time>2026-04-19T06:33:18.149Z</time></trkpt><trkpt lat="40.7815117" lon="14.7817467"><ele>223.0</ele><time>2026-04-19T06:33:19.149Z</time></trkpt><trkpt lat="40.781705" lon="14.78166"><ele>222.0</ele><time>2026-04-19T06:33:20.149Z</time></trkpt><trkpt lat="40.7818883" lon="14.78158"><ele>221.0</ele><time>2026-04-19T06:33:21.148Z</time></trkpt><trkpt lat="40.782075" lon="14.7814917"><ele>220.0</ele><time>2026-04-19T06:33:22.149Z</time></trkpt><trkpt lat="40.7822633" lon="14.7813917"><ele>219.0</ele><time>2026-04-19T06:33:23.149Z</time></trkpt><trkpt lat="40.78245" lon="14.781295"><ele>219.0</ele><time>2026-04-19T06:33:24.149Z</time></trkpt><trkpt lat="40.782635" lon="14.7811917"><ele>219.0</ele><time>2026-04-19T06:33:25.149Z</time></trkpt><trkpt lat="40.7828217" lon="14.7810817"><ele>219.0</ele><time>2026-04-19T06:33:26.149Z</time></trkpt><trkpt lat="40.783005" lon="14.78097"><ele>218.66666666666669</ele><time>2026-04-19T06:33:27.149Z</time></trkpt><trkpt lat="40.7831833" lon="14.780855"><ele>218.33333333333334</ele><time>2026-04-19T06:33:28.148Z</time></trkpt><trkpt lat="40.7833633" lon="14.7807317"><ele>218.0</ele><time>2026-04-19T06:33:29.148Z</time></trkpt><trkpt lat="40.7835467" lon="14.7806033"><ele>218.0</ele><time>2026-04-19T06:33:30.149Z</time></trkpt><trkpt lat="40.7837217" lon="14.7804683"><ele>218.0</ele><time>2026-04-19T06:33:31.149Z</time></trkpt><trkpt lat="40.7838967" lon="14.7803217"><ele>218.0</ele><time>2026-04-19T06:33:32.149Z</time></trkpt><trkpt lat="40.7840683" lon="14.7801683"><ele>216.33333333333334</ele><time>2026-04-19T06:33:33.149Z</time></trkpt><trkpt lat="40.7842333" lon="14.7800083"><ele>214.66666666666669</ele><time>2026-04-19T06:33:34.149Z</time></trkpt><trkpt lat="40.7844067" lon="14.7798467"><ele>213.0</ele><time>2026-04-19T06:33:35.149Z</time></trkpt><trkpt lat="40.7845733" lon="14.77968"><ele>212.33333333333331</ele><time>2026-04-19T06:33:36.149Z</time></trkpt><trkpt lat="40.7847433" lon="14.7795033"><ele>211.66666666666666</ele><time>2026-04-19T06:33:37.149Z</time></trkpt><trkpt lat="40.7849133" lon="14.779325"><ele>211.0</ele><time>2026-04-19T06:33:38.148Z</time></trkpt><trkpt lat="40.7850833" lon="14.779155"><ele>209.0</ele><time>2026-04-19T06:33:39.148Z</time></trkpt><trkpt lat="40.7852517" lon="14.77898"><ele>207.0</ele><time>2026-04-19T06:33:40.148Z</time></trkpt><trkpt lat="40.7854233" lon="14.778805"><ele>205.0</ele><time>2026-04-19T06:33:41.148Z</time></trkpt><trkpt lat="40.7855967" lon="14.7786267"><ele>204.33333333333331</ele><time>2026-04-19T06:33:42.149Z</time></trkpt><trkpt lat="40.7857733" lon="14.7784533"><ele>203.66666666666669</ele><time>2026-04-19T06:33:43.149Z</time></trkpt><trkpt lat="40.7859433" lon="14.7782833"><ele>203.0</ele><time>2026-04-19T06:33:44.148Z</time></trkpt><trkpt lat="40.7861067" lon="14.7781183"><ele>202.33333333333334</ele><time>2026-04-19T06:33:45.148Z</time></trkpt><trkpt lat="40.7862633" lon="14.7779533"><ele>201.66666666666669</ele><time>2026-04-19T06:33:46.149Z</time></trkpt><trkpt lat="40.7864233" lon="14.77779"><ele>201.0</ele><time>2026-04-19T06:33:47.149Z</time></trkpt><trkpt lat="40.7865817" lon="14.7776267"><ele>200.33333333333331</ele><time>2026-04-19T06:33:48.148Z</time></trkpt><trkpt lat="40.7867383" lon="14.77746"><ele>199.66666666666666</ele><time>2026-04-19T06:33:49.148Z</time></trkpt><trkpt lat="40.7868967" lon="14.77729"><ele>199.0</ele><time>2026-04-19T06:33:50.149Z</time></trkpt><trkpt lat="40.7870533" lon="14.7771267"><ele>198.33333333333331</ele><time>2026-04-19T06:33:51.149Z</time></trkpt><trkpt lat="40.7872083" lon="14.7769633"><ele>197.66666666666669</ele><time>2026-04-19T06:33:52.149Z</time></trkpt><trkpt lat="40.7873667" lon="14.776805"><ele>197.0</ele><time>2026-04-19T06:33:53.148Z</time></trkpt><trkpt lat="40.7875217" lon="14.7766417"><ele>196.33333333333334</ele><time>2026-04-19T06:33:54.149Z</time></trkpt><trkpt lat="40.7876783" lon="14.7764783"><ele>195.66666666666669</ele><time>2026-04-19T06:33:55.149Z</time></trkpt><trkpt lat="40.78784" lon="14.77632"><ele>195.0</ele><time>2026-04-19T06:33:56.149Z</time></trkpt><trkpt lat="40.788" lon="14.7761583"><ele>192.66666666666666</ele><time>2026-04-19T06:33:57.149Z</time></trkpt><trkpt lat="40.7881617" lon="14.7759983"><ele>190.33333333333331</ele><time>2026-04-19T06:33:58.149Z</time></trkpt><trkpt lat="40.7883217" lon="14.7758317"><ele>188.0</ele><time>2026-04-19T06:33:59.149Z</time></trkpt><trkpt lat="40.7884817" lon="14.775665"><ele>187.66666666666666</ele><time>2026-04-19T06:34:00.148Z</time></trkpt><trkpt lat="40.788645" lon="14.7754983"><ele>187.33333333333334</ele><time>2026-04-19T06:34:01.148Z</time></trkpt><trkpt lat="40.7888117" lon="14.7753417"><ele>187.0</ele><time>2026-04-19T06:34:02.148Z</time></trkpt><trkpt lat="40.7889783" lon="14.77516"><ele>185.33333333333334</ele><time>2026-04-19T06:34:03.149Z</time></trkpt><trkpt lat="40.789145" lon="14.774995"><ele>183.66666666666666</ele><time>2026-04-19T06:34:04.149Z</time></trkpt><trkpt lat="40.7893117" lon="14.77483"><ele>182.0</ele><time>2026-04-19T06:34:05.148Z</time></trkpt><trkpt lat="40.7894817" lon="14.7746667"><ele>181.33333333333331</ele><time>2026-04-19T06:34:06.149Z</time></trkpt><trkpt lat="40.7896583" lon="14.7745133"><ele>180.66666666666666</ele><time>2026-04-19T06:34:07.149Z</time></trkpt><trkpt lat="40.789835" lon="14.77436"><ele>180.0</ele><time>2026-04-19T06:34:08.149Z</time></trkpt><trkpt lat="40.7900133" lon="14.77422"><ele>179.0</ele><time>2026-04-19T06:34:09.149Z</time></trkpt><trkpt lat="40.79019" lon="14.774075"><ele>178.0</ele><time>2026-04-19T06:34:10.149Z</time></trkpt><trkpt lat="40.7903717" lon="14.77394"><ele>177.0</ele><time>2026-04-19T06:34:11.149Z</time></trkpt><trkpt lat="40.79056" lon="14.77381"><ele>177.0</ele><time>2026-04-19T06:34:12.149Z</time></trkpt><trkpt lat="40.7907483" lon="14.7736933"><ele>177.0</ele><time>2026-04-19T06:34:13.149Z</time></trkpt><trkpt lat="40.7909383" lon="14.77358"><ele>177.0</ele><time>2026-04-19T06:34:14.149Z</time></trkpt><trkpt lat="40.7911333" lon="14.77347"><ele>175.33333333333334</ele><time>2026-04-19T06:34:15.148Z</time></trkpt><trkpt lat="40.7913283" lon="14.7733683"><ele>173.66666666666669</ele><time>2026-04-19T06:34:16.148Z</time></trkpt><trkpt lat="40.7915233" lon="14.773265"><ele>172.0</ele><time>2026-04-19T06:34:17.149Z</time></trkpt><trkpt lat="40.79172" lon="14.7731733"><ele>172.0</ele><time>2026-04-19T06:34:18.149Z</time></trkpt><trkpt lat="40.7919167" lon="14.77309"><ele>172.0</ele><time>2026-04-19T06:34:19.149Z</time></trkpt><trkpt lat="40.7921117" lon="14.7730133"><ele>172.0</ele><time>2026-04-19T06:34:20.149Z</time></trkpt><trkpt lat="40.79231" lon="14.7729433"><ele>172.0</ele><time>2026-04-19T06:34:21.148Z</time></trkpt><trkpt lat="40.7925117" lon="14.7728783"><ele>172.0</ele><time>2026-04-19T06:34:22.148Z</time></trkpt><trkpt lat="40.7927133" lon="14.77282"><ele>172.0</ele><time>2026-04-19T06:34:23.148Z</time></trkpt><trkpt lat="40.7929167" lon="14.7727717"><ele>172.0</ele><time>2026-04-19T06:34:24.149Z</time></trkpt><trkpt lat="40.793115" lon="14.7727167"><ele>172.0</ele><time>2026-04-19T06:34:25.149Z</time></trkpt><trkpt lat="40.7933167" lon="14.7726683"><ele>172.0</ele><time>2026-04-19T06:34:26.148Z</time></trkpt><trkpt lat="40.7935217" lon="14.77263"><ele>171.33333333333334</ele><time>2026-04-19T06:34:27.148Z</time></trkpt><trkpt lat="40.79372" lon="14.7725917"><ele>170.66666666666666</ele><time>2026-04-19T06:34:28.149Z</time></trkpt><trkpt lat="40.7939167" lon="14.77255"><ele>170.0</ele><time>2026-04-19T06:34:29.149Z</time></trkpt><trkpt lat="40.794115" lon="14.7725067"><ele>170.0</ele><time>2026-04-19T06:34:30.148Z</time></trkpt><trkpt lat="40.794315" lon="14.7724617"><ele>170.0</ele><time>2026-04-19T06:34:31.149Z</time></trkpt><trkpt lat="40.79451" lon="14.77242"><ele>170.0</ele><time>2026-04-19T06:34:32.148Z</time></trkpt><trkpt lat="40.7947067" lon="14.7723733"><ele>170.66666666666666</ele><time>2026-04-19T06:34:33.148Z</time></trkpt><trkpt lat="40.7949017" lon="14.77233"><ele>171.33333333333334</ele><time>2026-04-19T06:34:34.149Z</time></trkpt><trkpt lat="40.7951" lon="14.772295"><ele>172.0</ele><time>2026-04-19T06:34:35.149Z</time></trkpt><trkpt lat="40.7952967" lon="14.7722583"><ele>172.0</ele><time>2026-04-19T06:34:36.149Z</time></trkpt><trkpt lat="40.7954967" lon="14.772215"><ele>172.0</ele><time>2026-04-19T06:34:37.149Z</time></trkpt><trkpt lat="40.7957017" lon="14.7721717"><ele>172.0</ele><time>2026-04-19T06:34:38.149Z</time></trkpt><trkpt lat="40.7959" lon="14.7721267"><ele>172.0</ele><time>2026-04-19T06:34:39.149Z</time></trkpt><trkpt lat="40.7961" lon="14.7720867"><ele>172.0</ele><time>2026-04-19T06:34:40.149Z</time></trkpt><trkpt lat="40.7963067" lon="14.772045"><ele>172.0</ele><time>2026-04-19T06:34:41.148Z</time></trkpt><trkpt lat="40.7965183" lon="14.7720083"><ele>172.0</ele><time>2026-04-19T06:34:42.149Z</time></trkpt><trkpt lat="40.7967233" lon="14.771965"><ele>172.0</ele><time>2026-04-19T06:34:43.149Z</time></trkpt><trkpt lat="40.7969367" lon="14.77192"><ele>172.0</ele><time>2026-04-19T06:34:44.149Z</time></trkpt><trkpt lat="40.7971433" lon="14.7718733"><ele>169.33333333333334</ele><time>2026-04-19T06:34:45.149Z</time></trkpt><trkpt lat="40.7973533" lon="14.77183"><ele>166.66666666666666</ele><time>2026-04-19T06:34:46.149Z</time></trkpt><trkpt lat="40.7975617" lon="14.7717883"><ele>164.0</ele><time>2026-04-19T06:34:47.149Z</time></trkpt><trkpt lat="40.7977717" lon="14.771745"><ele>164.0</ele><time>2026-04-19T06:34:48.148Z</time></trkpt><trkpt lat="40.79798" lon="14.7717033"><ele>164.0</ele><time>2026-04-19T06:34:49.149Z</time></trkpt><trkpt lat="40.7981917" lon="14.7716667"><ele>164.0</ele><time>2026-04-19T06:34:50.149Z</time></trkpt><trkpt lat="40.7983983" lon="14.7716133"><ele>164.0</ele><time>2026-04-19T06:34:51.149Z</time></trkpt><trkpt lat="40.798605" lon="14.771575"><ele>164.0</ele><time>2026-04-19T06:34:52.148Z</time></trkpt><trkpt lat="40.79882" lon="14.7715317"><ele>164.0</ele><time>2026-04-19T06:34:53.149Z</time></trkpt><trkpt lat="40.79903" lon="14.771485"><ele>164.0</ele><time>2026-04-19T06:34:54.149Z</time></trkpt><trkpt lat="40.7992383" lon="14.77144"><ele>164.0</ele><time>2026-04-19T06:34:55.149Z</time></trkpt><trkpt lat="40.79944" lon="14.7713983"><ele>164.0</ele><time>2026-04-19T06:34:56.149Z</time></trkpt><trkpt lat="40.7996417" lon="14.7713517"><ele>164.33333333333331</ele><time>2026-04-19T06:34:57.149Z</time></trkpt><trkpt lat="40.7998383" lon="14.7713083"><ele>164.66666666666666</ele><time>2026-04-19T06:34:58.148Z</time></trkpt><trkpt lat="40.8000333" lon="14.7712683"><ele>165.0</ele><time>2026-04-19T06:34:59.149Z</time></trkpt><trkpt lat="40.80023" lon="14.7712283"><ele>165.33333333333334</ele><time>2026-04-19T06:35:00.149Z</time></trkpt><trkpt lat="40.80043" lon="14.7711867"><ele>165.66666666666669</ele><time>2026-04-19T06:35:01.148Z</time></trkpt><trkpt lat="40.8006283" lon="14.7711383"><ele>166.0</ele><time>2026-04-19T06:35:02.148Z</time></trkpt><trkpt lat="40.800825" lon="14.7710967"><ele>166.0</ele><time>2026-04-19T06:35:03.149Z</time></trkpt><trkpt lat="40.8010167" lon="14.7710533"><ele>166.0</ele><time>2026-04-19T06:35:04.149Z</time></trkpt><trkpt lat="40.8012133" lon="14.771015"><ele>166.0</ele><time>2026-04-19T06:35:05.149Z</time></trkpt><trkpt lat="40.8014083" lon="14.7709767"><ele>165.66666666666669</ele><time>2026-04-19T06:35:06.148Z</time></trkpt><trkpt lat="40.8016033" lon="14.7709367"><ele>165.33333333333334</ele><time>2026-04-19T06:35:07.149Z</time></trkpt><trkpt lat="40.8017983" lon="14.770895"><ele>165.0</ele><time>2026-04-19T06:35:08.149Z</time></trkpt><trkpt lat="40.802" lon="14.770855"><ele>165.66666666666666</ele><time>2026-04-19T06:35:09.149Z</time></trkpt><trkpt lat="40.8022033" lon="14.7708217"><ele>166.33333333333331</ele><time>2026-04-19T06:35:10.149Z</time></trkpt><trkpt lat="40.80241" lon="14.7707783"><ele>167.0</ele><time>2026-04-19T06:35:11.148Z</time></trkpt><trkpt lat="40.80261" lon="14.77075"><ele>167.0</ele><time>2026-04-19T06:35:12.149Z</time></trkpt><trkpt lat="40.802815" lon="14.770725"><ele>167.0</ele><time>2026-04-19T06:35:13.149Z</time></trkpt><trkpt lat="40.80302" lon="14.7707217"><ele>167.0</ele><time>2026-04-19T06:35:14.149Z</time></trkpt><trkpt lat="40.803225" lon="14.7707167"><ele>167.0</ele><time>2026-04-19T06:35:15.149Z</time></trkpt><trkpt lat="40.8034317" lon="14.77072"><ele>167.0</ele><time>2026-04-19T06:35:16.148Z</time></trkpt><trkpt lat="40.8036383" lon="14.770725"><ele>167.0</ele><time>2026-04-19T06:35:17.149Z</time></trkpt><trkpt lat="40.8038433" lon="14.7707417"><ele>167.0</ele><time>2026-04-19T06:35:18.149Z</time></trkpt><trkpt lat="40.80405" lon="14.7707633"><ele>167.0</ele><time>2026-04-19T06:35:19.148Z</time></trkpt><trkpt lat="40.80426" lon="14.7707933"><ele>167.0</ele><time>2026-04-19T06:35:20.149Z</time></trkpt><trkpt lat="40.8044617" lon="14.7708217"><ele>168.0</ele><time>2026-04-19T06:35:21.149Z</time></trkpt><trkpt lat="40.804665" lon="14.770865"><ele>169.0</ele><time>2026-04-19T06:35:22.149Z</time></trkpt><trkpt lat="40.8048717" lon="14.7709067"><ele>170.0</ele><time>2026-04-19T06:35:23.149Z</time></trkpt><trkpt lat="40.805075" lon="14.77095"><ele>170.0</ele><time>2026-04-19T06:35:24.148Z</time></trkpt><trkpt lat="40.8052667" lon="14.7709883"><ele>170.0</ele><time>2026-04-19T06:35:25.149Z</time></trkpt><trkpt lat="40.8054567" lon="14.77103"><ele>170.0</ele><time>2026-04-19T06:35:26.149Z</time></trkpt><trkpt lat="40.8056433" lon="14.771065"><ele>171.33333333333331</ele><time>2026-04-19T06:35:27.149Z</time></trkpt><trkpt lat="40.8058317" lon="14.7711117"><ele>172.66666666666666</ele><time>2026-04-19T06:35:28.149Z</time></trkpt><trkpt lat="40.80602" lon="14.7711483"><ele>174.0</ele><time>2026-04-19T06:35:29.148Z</time></trkpt><trkpt lat="40.8062117" lon="14.77119"><ele>174.33333333333334</ele><time>2026-04-19T06:35:30.148Z</time></trkpt><trkpt lat="40.8064" lon="14.771235"><ele>174.66666666666669</ele><time>2026-04-19T06:35:31.149Z</time></trkpt><trkpt lat="40.8065983" lon="14.7712883"><ele>175.0</ele><time>2026-04-19T06:35:32.148Z</time></trkpt><trkpt lat="40.8067883" lon="14.7713283"><ele>175.0</ele><time>2026-04-19T06:35:33.149Z</time></trkpt><trkpt lat="40.8069767" lon="14.7713667"><ele>175.0</ele><time>2026-04-19T06:35:34.149Z</time></trkpt><trkpt lat="40.8071717" lon="14.7714117"><ele>175.0</ele><time>2026-04-19T06:35:35.149Z</time></trkpt><trkpt lat="40.8073667" lon="14.7714517"><ele>175.0</ele><time>2026-04-19T06:35:36.149Z</time></trkpt><trkpt lat="40.80756" lon="14.7714917"><ele>175.0</ele><time>2026-04-19T06:35:37.149Z</time></trkpt><trkpt lat="40.8077517" lon="14.7715317"><ele>175.0</ele><time>2026-04-19T06:35:38.149Z</time></trkpt><trkpt lat="40.80795" lon="14.7715733"><ele>175.0</ele><time>2026-04-19T06:35:39.148Z</time></trkpt><trkpt lat="40.8081483" lon="14.7716167"><ele>175.0</ele><time>2026-04-19T06:35:40.149Z</time></trkpt><trkpt lat="40.808345" lon="14.7716567"><ele>175.0</ele><time>2026-04-19T06:35:41.149Z</time></trkpt><trkpt lat="40.80854" lon="14.771695"><ele>175.33333333333334</ele><time>2026-04-19T06:35:42.149Z</time></trkpt><trkpt lat="40.8087333" lon="14.7717333"><ele>175.66666666666666</ele><time>2026-04-19T06:35:43.148Z</time></trkpt><trkpt lat="40.8089267" lon="14.771775"><ele>176.0</ele><time>2026-04-19T06:35:44.149Z</time></trkpt><trkpt lat="40.80912" lon="14.771825"><ele>176.33333333333331</ele><time>2026-04-19T06:35:45.148Z</time></trkpt><trkpt lat="40.8093117" lon="14.7718683"><ele>176.66666666666666</ele><time>2026-04-19T06:35:46.149Z</time></trkpt><trkpt lat="40.8095083" lon="14.7719233"><ele>177.0</ele><time>2026-04-19T06:35:47.149Z</time></trkpt><trkpt lat="40.8097067" lon="14.7719867"><ele>178.0</ele><time>2026-04-19T06:35:48.149Z</time></trkpt><trkpt lat="40.8099017" lon="14.7720567"><ele>179.0</ele><time>2026-04-19T06:35:49.149Z</time></trkpt><trkpt lat="40.8101017" lon="14.7721333"><ele>180.0</ele><time>2026-04-19T06:35:50.148Z</time></trkpt><trkpt lat="40.810295" lon="14.7722017"><ele>180.66666666666666</ele><time>2026-04-19T06:35:51.148Z</time></trkpt><trkpt lat="40.8104783" lon="14.7723267"><ele>181.33333333333331</ele><time>2026-04-19T06:35:52.149Z</time></trkpt><trkpt lat="40.8106733" lon="14.772395"><ele>182.0</ele><time>2026-04-19T06:35:53.149Z</time></trkpt><trkpt lat="40.810865" lon="14.77248"><ele>182.33333333333331</ele><time>2026-04-19T06:35:54.148Z</time></trkpt><trkpt lat="40.8110567" lon="14.77258"><ele>182.66666666666666</ele><time>2026-04-19T06:35:55.149Z</time></trkpt><trkpt lat="40.811245" lon="14.772685"><ele>183.0</ele><time>2026-04-19T06:35:56.149Z</time></trkpt><trkpt lat="40.8114283" lon="14.7727983"><ele>184.0</ele><time>2026-04-19T06:35:57.149Z</time></trkpt><trkpt lat="40.8116083" lon="14.77292"><ele>185.0</ele><time>2026-04-19T06:35:58.149Z</time></trkpt><trkpt lat="40.811795" lon="14.7730417"><ele>186.0</ele><time>2026-04-19T06:35:59.148Z</time></trkpt><trkpt lat="40.811975" lon="14.7731717"><ele>186.0</ele><time>2026-04-19T06:36:00.149Z</time></trkpt><trkpt lat="40.8121533" lon="14.773305"><ele>186.0</ele><time>2026-04-19T06:36:01.148Z</time></trkpt><trkpt lat="40.8123283" lon="14.77345"><ele>186.0</ele><time>2026-04-19T06:36:02.149Z</time></trkpt><trkpt lat="40.8125017" lon="14.7735983"><ele>187.0</ele><time>2026-04-19T06:36:03.149Z</time></trkpt><trkpt lat="40.8126717" lon="14.7737483"><ele>188.0</ele><time>2026-04-19T06:36:04.149Z</time></trkpt><trkpt lat="40.8128433" lon="14.7739033"><ele>189.0</ele><time>2026-04-19T06:36:05.149Z</time></trkpt><trkpt lat="40.8130133" lon="14.7740633"><ele>189.0</ele><time>2026-04-19T06:36:06.149Z</time></trkpt><trkpt lat="40.813185" lon="14.7742283"><ele>189.0</ele><time>2026-04-19T06:36:07.149Z</time></trkpt><trkpt lat="40.81335" lon="14.7743867"><ele>189.0</ele><time>2026-04-19T06:36:08.149Z</time></trkpt><trkpt lat="40.8135083" lon="14.774555"><ele>189.33333333333334</ele><time>2026-04-19T06:36:09.149Z</time></trkpt><trkpt lat="40.8136683" lon="14.77473"><ele>189.66666666666669</ele><time>2026-04-19T06:36:10.149Z</time></trkpt><trkpt lat="40.8138233" lon="14.7749133"><ele>190.0</ele><time>2026-04-19T06:36:11.149Z</time></trkpt><trkpt lat="40.813975" lon="14.775105"><ele>190.0</ele><time>2026-04-19T06:36:12.149Z</time></trkpt><trkpt lat="40.8141283" lon="14.7752983"><ele>190.0</ele><time>2026-04-19T06:36:13.149Z</time></trkpt><trkpt lat="40.8142783" lon="14.775495"><ele>190.0</ele><time>2026-04-19T06:36:14.149Z</time></trkpt><trkpt lat="40.8144233" lon="14.775695"><ele>190.0</ele><time>2026-04-19T06:36:15.149Z</time></trkpt><trkpt lat="40.8145633" lon="14.7759"><ele>190.0</ele><time>2026-04-19T06:36:16.148Z</time></trkpt><trkpt lat="40.8147" lon="14.776105"><ele>190.0</ele><time>2026-04-19T06:36:17.149Z</time></trkpt><trkpt lat="40.8148367" lon="14.776315"><ele>191.0</ele><time>2026-04-19T06:36:18.149Z</time></trkpt><trkpt lat="40.8149667" lon="14.77654"><ele>192.0</ele><time>2026-04-19T06:36:19.148Z</time></trkpt><trkpt lat="40.8150883" lon="14.7767633"><ele>193.0</ele><time>2026-04-19T06:36:20.149Z</time></trkpt><trkpt lat="40.8152117" lon="14.7769883"><ele>193.33333333333331</ele><time>2026-04-19T06:36:21.149Z</time></trkpt><trkpt lat="40.8153333" lon="14.77722"><ele>193.66666666666669</ele><time>2026-04-19T06:36:22.149Z</time></trkpt><trkpt lat="40.8154467" lon="14.7774517"><ele>194.0</ele><time>2026-04-19T06:36:23.149Z</time></trkpt><trkpt lat="40.8155533" lon="14.7776817"><ele>195.33333333333334</ele><time>2026-04-19T06:36:24.149Z</time></trkpt><trkpt lat="40.8156533" lon="14.77791"><ele>196.66666666666669</ele><time>2026-04-19T06:36:25.148Z</time></trkpt><trkpt lat="40.8157517" lon="14.778145"><ele>198.0</ele><time>2026-04-19T06:36:26.148Z</time></trkpt><trkpt lat="40.8158417" lon="14.778385"><ele>198.0</ele><time>2026-04-19T06:36:27.149Z</time></trkpt><trkpt lat="40.8159267" lon="14.7786317"><ele>198.0</ele><time>2026-04-19T06:36:28.149Z</time></trkpt><trkpt lat="40.816" lon="14.7788817"><ele>198.0</ele><time>2026-04-19T06:36:29.148Z</time></trkpt><trkpt lat="40.8160633" lon="14.7791333"><ele>198.66666666666669</ele><time>2026-04-19T06:36:30.149Z</time></trkpt><trkpt lat="40.81613" lon="14.7793867"><ele>199.33333333333334</ele><time>2026-04-19T06:36:31.149Z</time></trkpt><trkpt lat="40.816195" lon="14.7796383"><ele>200.0</ele><time>2026-04-19T06:36:32.148Z</time></trkpt><trkpt lat="40.816255" lon="14.7798983"><ele>200.0</ele><time>2026-04-19T06:36:33.149Z</time></trkpt><trkpt lat="40.8163083" lon="14.78016"><ele>200.0</ele><time>2026-04-19T06:36:34.149Z</time></trkpt><trkpt lat="40.8163617" lon="14.780425"><ele>200.0</ele><time>2026-04-19T06:36:35.149Z</time></trkpt><trkpt lat="40.816405" lon="14.78069"><ele>201.66666666666669</ele><time>2026-04-19T06:36:36.149Z</time></trkpt><trkpt lat="40.8164533" lon="14.780965"><ele>203.33333333333331</ele><time>2026-04-19T06:36:37.148Z</time></trkpt><trkpt lat="40.8164967" lon="14.78123"><ele>205.0</ele><time>2026-04-19T06:36:38.149Z</time></trkpt><trkpt lat="40.8165333" lon="14.781505"><ele>206.33333333333331</ele><time>2026-04-19T06:36:39.149Z</time></trkpt><trkpt lat="40.8165683" lon="14.781775"><ele>207.66666666666669</ele><time>2026-04-19T06:36:40.149Z</time></trkpt><trkpt lat="40.8165983" lon="14.7820517"><ele>209.0</ele><time>2026-04-19T06:36:41.149Z</time></trkpt><trkpt lat="40.8166233" lon="14.782335"><ele>210.0</ele><time>2026-04-19T06:36:42.149Z</time></trkpt><trkpt lat="40.81665" lon="14.7826133"><ele>211.0</ele><time>2026-04-19T06:36:43.149Z</time></trkpt><trkpt lat="40.8166767" lon="14.7828867"><ele>212.0</ele><time>2026-04-19T06:36:44.148Z</time></trkpt><trkpt lat="40.8167033" lon="14.78316"><ele>212.66666666666669</ele><time>2026-04-19T06:36:45.149Z</time></trkpt><trkpt lat="40.8167317" lon="14.7834367"><ele>213.33333333333331</ele><time>2026-04-19T06:36:46.148Z</time></trkpt><trkpt lat="40.8167567" lon="14.7837183"><ele>214.0</ele><time>2026-04-19T06:36:47.149Z</time></trkpt><trkpt lat="40.8167817" lon="14.7839917"><ele>214.33333333333331</ele><time>2026-04-19T06:36:48.149Z</time></trkpt><trkpt lat="40.81681" lon="14.78427"><ele>214.66666666666669</ele><time>2026-04-19T06:36:49.149Z</time></trkpt><trkpt lat="40.81684" lon="14.7845417"><ele>215.0</ele><time>2026-04-19T06:36:50.149Z</time></trkpt><trkpt lat="40.8168667" lon="14.78482"><ele>215.0</ele><time>2026-04-19T06:36:51.149Z</time></trkpt><trkpt lat="40.8168933" lon="14.7850983"><ele>215.0</ele><time>2026-04-19T06:36:52.149Z</time></trkpt><trkpt lat="40.8169233" lon="14.78537"><ele>215.0</ele><time>2026-04-19T06:36:53.149Z</time></trkpt><trkpt lat="40.8169467" lon="14.785645"><ele>215.0</ele><time>2026-04-19T06:36:54.149Z</time></trkpt><trkpt lat="40.8169717" lon="14.7859217"><ele>215.0</ele><time>2026-04-19T06:36:55.149Z</time></trkpt><trkpt lat="40.817" lon="14.7861967"><ele>215.0</ele><time>2026-04-19T06:36:56.149Z</time></trkpt><trkpt lat="40.8170267" lon="14.786475"><ele>215.66666666666669</ele><time>2026-04-19T06:36:57.149Z</time></trkpt><trkpt lat="40.8170517" lon="14.78675"><ele>216.33333333333331</ele><time>2026-04-19T06:36:58.149Z</time></trkpt><trkpt lat="40.8170767" lon="14.7870217"><ele>217.0</ele><time>2026-04-19T06:36:59.149Z</time></trkpt><trkpt lat="40.8171133" lon="14.7872917"><ele>218.0</ele><time>2026-04-19T06:37:00.149Z</time></trkpt><trkpt lat="40.8171417" lon="14.7875683"><ele>219.0</ele><time>2026-04-19T06:37:01.148Z</time></trkpt><trkpt lat="40.8171667" lon="14.78785"><ele>220.0</ele><time>2026-04-19T06:37:02.148Z</time></trkpt><trkpt lat="40.8171917" lon="14.7881267"><ele>220.0</ele><time>2026-04-19T06:37:03.149Z</time></trkpt><trkpt lat="40.8172117" lon="14.78841"><ele>220.0</ele><time>2026-04-19T06:37:04.149Z</time></trkpt><trkpt lat="40.817235" lon="14.7886917"><ele>220.0</ele><time>2026-04-19T06:37:05.149Z</time></trkpt><trkpt lat="40.8172633" lon="14.7889683"><ele>219.66666666666666</ele><time>2026-04-19T06:37:06.149Z</time></trkpt><trkpt lat="40.8172867" lon="14.789255"><ele>219.33333333333331</ele><time>2026-04-19T06:37:07.149Z</time></trkpt><trkpt lat="40.8173183" lon="14.78954"><ele>219.0</ele><time>2026-04-19T06:37:08.149Z</time></trkpt><trkpt lat="40.81735" lon="14.7898167"><ele>220.66666666666669</ele><time>2026-04-19T06:37:09.149Z</time></trkpt><trkpt lat="40.817375" lon="14.7901033"><ele>222.33333333333334</ele><time>2026-04-19T06:37:10.149Z</time></trkpt><trkpt lat="40.8174" lon="14.7903883"><ele>224.0</ele><time>2026-04-19T06:37:11.149Z</time></trkpt><trkpt lat="40.81743" lon="14.7906683"><ele>224.66666666666669</ele><time>2026-04-19T06:37:12.149Z</time></trkpt><trkpt lat="40.817455" lon="14.7909567"><ele>225.33333333333331</ele><time>2026-04-19T06:37:13.149Z</time></trkpt><trkpt lat="40.8174817" lon="14.79124"><ele>226.0</ele><time>2026-04-19T06:37:14.148Z</time></trkpt><trkpt lat="40.81751" lon="14.7915217"><ele>226.33333333333331</ele><time>2026-04-19T06:37:15.148Z</time></trkpt><trkpt lat="40.8175317" lon="14.7918"><ele>226.66666666666669</ele><time>2026-04-19T06:37:16.148Z</time></trkpt><trkpt lat="40.817565" lon="14.792075"><ele>227.0</ele><time>2026-04-19T06:37:17.148Z</time></trkpt><trkpt lat="40.817595" lon="14.7923533"><ele>227.33333333333334</ele><time>2026-04-19T06:37:18.148Z</time></trkpt><trkpt lat="40.8176333" lon="14.79262"><ele>227.66666666666669</ele><time>2026-04-19T06:37:19.149Z</time></trkpt><trkpt lat="40.817675" lon="14.7928883"><ele>228.0</ele><time>2026-04-19T06:37:20.149Z</time></trkpt><trkpt lat="40.817715" lon="14.79316"><ele>228.0</ele><time>2026-04-19T06:37:21.149Z</time></trkpt><trkpt lat="40.8177633" lon="14.7934267"><ele>228.0</ele><time>2026-04-19T06:37:22.149Z</time></trkpt><trkpt lat="40.8178167" lon="14.7936933"><ele>228.0</ele><time>2026-04-19T06:37:23.149Z</time></trkpt><trkpt lat="40.8178767" lon="14.7939583"><ele>228.0</ele><time>2026-04-19T06:37:24.148Z</time></trkpt><trkpt lat="40.8179433" lon="14.794225"><ele>228.0</ele><time>2026-04-19T06:37:25.149Z</time></trkpt><trkpt lat="40.81801" lon="14.7944933"><ele>228.0</ele><time>2026-04-19T06:37:26.149Z</time></trkpt><trkpt lat="40.8180817" lon="14.7947617"><ele>229.33333333333331</ele><time>2026-04-19T06:37:27.149Z</time></trkpt><trkpt lat="40.8181633" lon="14.795025"><ele>230.66666666666666</ele><time>2026-04-19T06:37:28.149Z</time></trkpt><trkpt lat="40.81824" lon="14.79529"><ele>232.0</ele><time>2026-04-19T06:37:29.149Z</time></trkpt><trkpt lat="40.8183117" lon="14.7955633"><ele>233.66666666666666</ele><time>2026-04-19T06:37:30.149Z</time></trkpt><trkpt lat="40.8183983" lon="14.79582"><ele>235.33333333333331</ele><time>2026-04-19T06:37:31.149Z</time></trkpt><trkpt lat="40.8184833" lon="14.7960867"><ele>237.0</ele><time>2026-04-19T06:37:32.149Z</time></trkpt><trkpt lat="40.818575" lon="14.7963533"><ele>237.0</ele><time>2026-04-19T06:37:33.149Z</time></trkpt><trkpt lat="40.8186583" lon="14.79662"><ele>237.0</ele><time>2026-04-19T06:37:34.149Z</time></trkpt><trkpt lat="40.8187433" lon="14.7968917"><ele>237.0</ele><time>2026-04-19T06:37:35.149Z</time></trkpt><trkpt lat="40.8188367" lon="14.797155"><ele>239.33333333333331</ele><time>2026-04-19T06:37:36.149Z</time></trkpt><trkpt lat="40.8189267" lon="14.7974217"><ele>241.66666666666666</ele><time>2026-04-19T06:37:37.149Z</time></trkpt><trkpt lat="40.8190167" lon="14.79769"><ele>244.0</ele><time>2026-04-19T06:37:38.149Z</time></trkpt><trkpt lat="40.81911" lon="14.7979567"><ele>244.33333333333331</ele><time>2026-04-19T06:37:39.148Z</time></trkpt><trkpt lat="40.8191983" lon="14.79822"><ele>244.66666666666669</ele><time>2026-04-19T06:37:40.149Z</time></trkpt><trkpt lat="40.819285" lon="14.7984733"><ele>245.0</ele><time>2026-04-19T06:37:41.149Z</time></trkpt><trkpt lat="40.81937" lon="14.7987283"><ele>245.0</ele><time>2026-04-19T06:37:42.148Z</time></trkpt><trkpt lat="40.8194517" lon="14.7989867"><ele>245.0</ele><time>2026-04-19T06:37:43.148Z</time></trkpt><trkpt lat="40.8195317" lon="14.7992433"><ele>245.0</ele><time>2026-04-19T06:37:44.149Z</time></trkpt><trkpt lat="40.819615" lon="14.7994917"><ele>245.66666666666669</ele><time>2026-04-19T06:37:45.148Z</time></trkpt><trkpt lat="40.819695" lon="14.7997417"><ele>246.33333333333331</ele><time>2026-04-19T06:37:46.148Z</time></trkpt><trkpt lat="40.8197833" lon="14.7999933"><ele>247.0</ele><time>2026-04-19T06:37:47.149Z</time></trkpt><trkpt lat="40.8198667" lon="14.8002533"><ele>247.33333333333331</ele><time>2026-04-19T06:37:48.149Z</time></trkpt><trkpt lat="40.8199517" lon="14.8005133"><ele>247.66666666666669</ele><time>2026-04-19T06:37:49.149Z</time></trkpt><trkpt lat="40.8200367" lon="14.8007767"><ele>248.0</ele><time>2026-04-19T06:37:50.149Z</time></trkpt><trkpt lat="40.8201217" lon="14.8010383"><ele>248.66666666666669</ele><time>2026-04-19T06:37:51.148Z</time></trkpt><trkpt lat="40.82021" lon="14.8012933"><ele>249.33333333333331</ele><time>2026-04-19T06:37:52.148Z</time></trkpt><trkpt lat="40.8202933" lon="14.8015533"><ele>250.0</ele><time>2026-04-19T06:37:53.149Z</time></trkpt><trkpt lat="40.8203767" lon="14.80181"><ele>250.66666666666666</ele><time>2026-04-19T06:37:54.149Z</time></trkpt><trkpt lat="40.8204633" lon="14.8020633"><ele>251.33333333333331</ele><time>2026-04-19T06:37:55.149Z</time></trkpt><trkpt lat="40.8205517" lon="14.8023233"><ele>252.0</ele><time>2026-04-19T06:37:56.149Z</time></trkpt><trkpt lat="40.820645" lon="14.802585"><ele>253.66666666666669</ele><time>2026-04-19T06:37:57.148Z</time></trkpt><trkpt lat="40.8207333" lon="14.8028483"><ele>255.33333333333334</ele><time>2026-04-19T06:37:58.149Z</time></trkpt><trkpt lat="40.8208233" lon="14.8031167"><ele>257.0</ele><time>2026-04-19T06:37:59.148Z</time></trkpt><trkpt lat="40.8209133" lon="14.8033883"><ele>257.33333333333337</ele><time>2026-04-19T06:38:00.149Z</time></trkpt><trkpt lat="40.821005" lon="14.803665"><ele>257.6666666666667</ele><time>2026-04-19T06:38:01.149Z</time></trkpt><trkpt lat="40.8211017" lon="14.803925"><ele>258.0</ele><time>2026-04-19T06:38:02.149Z</time></trkpt><trkpt lat="40.8211883" lon="14.80419"><ele>260.0</ele><time>2026-04-19T06:38:03.149Z</time></trkpt><trkpt lat="40.8212883" lon="14.80446"><ele>262.0</ele><time>2026-04-19T06:38:04.148Z</time></trkpt><trkpt lat="40.8213867" lon="14.8047217"><ele>264.0</ele><time>2026-04-19T06:38:05.149Z</time></trkpt><trkpt lat="40.8214783" lon="14.804985"><ele>265.0</ele><time>2026-04-19T06:38:06.149Z</time></trkpt><trkpt lat="40.821585" lon="14.8052517"><ele>266.0</ele><time>2026-04-19T06:38:07.149Z</time></trkpt><trkpt lat="40.82169" lon="14.8055"><ele>267.0</ele><time>2026-04-19T06:38:08.149Z</time></trkpt><trkpt lat="40.8217983" lon="14.80574"><ele>266.3333333333333</ele><time>2026-04-19T06:38:09.149Z</time></trkpt><trkpt lat="40.821905" lon="14.8059833"><ele>265.66666666666663</ele><time>2026-04-19T06:38:10.149Z</time></trkpt><trkpt lat="40.8220183" lon="14.8062167"><ele>265.0</ele><time>2026-04-19T06:38:11.148Z</time></trkpt><trkpt lat="40.8221267" lon="14.8064517"><ele>265.0</ele><time>2026-04-19T06:38:12.149Z</time></trkpt><trkpt lat="40.8222433" lon="14.8066783"><ele>265.0</ele><time>2026-04-19T06:38:13.149Z</time></trkpt><trkpt lat="40.8223583" lon="14.8068967"><ele>265.0</ele><time>2026-04-19T06:38:14.149Z</time></trkpt><trkpt lat="40.8224783" lon="14.8071067"><ele>266.0</ele><time>2026-04-19T06:38:15.149Z</time></trkpt><trkpt lat="40.8226017" lon="14.8073183"><ele>267.0</ele><time>2026-04-19T06:38:16.149Z</time></trkpt><trkpt lat="40.8227267" lon="14.8075317"><ele>268.0</ele><time>2026-04-19T06:38:17.149Z</time></trkpt><trkpt lat="40.82285" lon="14.8077417"><ele>269.0</ele><time>2026-04-19T06:38:18.148Z</time></trkpt><trkpt lat="40.8229783" lon="14.807945"><ele>270.0</ele><time>2026-04-19T06:38:19.149Z</time></trkpt><trkpt lat="40.8231067" lon="14.8081417"><ele>271.0</ele><time>2026-04-19T06:38:20.149Z</time></trkpt><trkpt lat="40.8232383" lon="14.80833"><ele>272.66666666666663</ele><time>2026-04-19T06:38:21.149Z</time></trkpt><trkpt lat="40.8233717" lon="14.808515"><ele>274.3333333333333</ele><time>2026-04-19T06:38:22.149Z</time></trkpt><trkpt lat="40.823505" lon="14.8086967"><ele>276.0</ele><time>2026-04-19T06:38:23.149Z</time></trkpt><trkpt lat="40.82364" lon="14.8088733"><ele>276.0</ele><time>2026-04-19T06:38:24.149Z</time></trkpt><trkpt lat="40.82378" lon="14.8090617"><ele>276.0</ele><time>2026-04-19T06:38:25.149Z</time></trkpt><trkpt lat="40.8239167" lon="14.809255"><ele>276.0</ele><time>2026-04-19T06:38:26.149Z</time></trkpt><trkpt lat="40.82405" lon="14.8094433"><ele>275.6666666666667</ele><time>2026-04-19T06:38:27.148Z</time></trkpt><trkpt lat="40.8241883" lon="14.809635"><ele>275.33333333333337</ele><time>2026-04-19T06:38:28.148Z</time></trkpt><trkpt lat="40.8243283" lon="14.8098283"><ele>275.0</ele><time>2026-04-19T06:38:29.149Z</time></trkpt><trkpt lat="40.8244667" lon="14.8100183"><ele>275.6666666666667</ele><time>2026-04-19T06:38:30.148Z</time></trkpt><trkpt lat="40.824605" lon="14.81021"><ele>276.3333333333333</ele><time>2026-04-19T06:38:31.149Z</time></trkpt><trkpt lat="40.8247467" lon="14.81041"><ele>277.0</ele><time>2026-04-19T06:38:32.149Z</time></trkpt><trkpt lat="40.8248917" lon="14.8106083"><ele>277.0</ele><time>2026-04-19T06:38:33.148Z</time></trkpt><trkpt lat="40.8250383" lon="14.810805"><ele>277.0</ele><time>2026-04-19T06:38:34.149Z</time></trkpt><trkpt lat="40.8251817" lon="14.8110033"><ele>277.0</ele><time>2026-04-19T06:38:35.149Z</time></trkpt><trkpt lat="40.8253267" lon="14.8111983"><ele>276.0</ele><time>2026-04-19T06:38:36.149Z</time></trkpt><trkpt lat="40.8254733" lon="14.8113917"><ele>275.0</ele><time>2026-04-19T06:38:37.148Z</time></trkpt><trkpt lat="40.8256167" lon="14.8115867"><ele>274.0</ele><time>2026-04-19T06:38:38.149Z</time></trkpt><trkpt lat="40.8257617" lon="14.8117867"><ele>274.0</ele><time>2026-04-19T06:38:39.149Z</time></trkpt><trkpt lat="40.8259033" lon="14.81198"><ele>274.0</ele><time>2026-04-19T06:38:40.149Z</time></trkpt><trkpt lat="40.826045" lon="14.8121783"><ele>274.0</ele><time>2026-04-19T06:38:41.148Z</time></trkpt><trkpt lat="40.826185" lon="14.81238"><ele>274.0</ele><time>2026-04-19T06:38:42.149Z</time></trkpt><trkpt lat="40.8263233" lon="14.81258"><ele>274.0</ele><time>2026-04-19T06:38:43.149Z</time></trkpt><trkpt lat="40.8264683" lon="14.812775"><ele>274.0</ele><time>2026-04-19T06:38:44.148Z</time></trkpt><trkpt lat="40.826615" lon="14.8129717"><ele>274.3333333333333</ele><time>2026-04-19T06:38:45.149Z</time></trkpt><trkpt lat="40.8267617" lon="14.81317"><ele>274.6666666666667</ele><time>2026-04-19T06:38:46.149Z</time></trkpt><trkpt lat="40.82691" lon="14.8133733"><ele>275.0</ele><time>2026-04-19T06:38:47.148Z</time></trkpt><trkpt lat="40.827055" lon="14.813575"><ele>275.6666666666667</ele><time>2026-04-19T06:38:48.149Z</time></trkpt><trkpt lat="40.8271983" lon="14.8137767"><ele>276.3333333333333</ele><time>2026-04-19T06:38:49.148Z</time></trkpt><trkpt lat="40.8273417" lon="14.81398"><ele>277.0</ele><time>2026-04-19T06:38:50.149Z</time></trkpt><trkpt lat="40.8274883" lon="14.8141783"><ele>278.0</ele><time>2026-04-19T06:38:51.149Z</time></trkpt><trkpt lat="40.8276383" lon="14.8143817"><ele>279.0</ele><time>2026-04-19T06:38:52.149Z</time></trkpt><trkpt lat="40.82779" lon="14.8145833"><ele>280.0</ele><time>2026-04-19T06:38:53.149Z</time></trkpt><trkpt lat="40.827935" lon="14.814785"><ele>280.3333333333333</ele><time>2026-04-19T06:38:54.149Z</time></trkpt><trkpt lat="40.8280767" lon="14.8149717"><ele>280.6666666666667</ele><time>2026-04-19T06:38:55.149Z</time></trkpt><trkpt lat="40.8282067" lon="14.8151483"><ele>281.0</ele><time>2026-04-19T06:38:56.148Z</time></trkpt><trkpt lat="40.8283317" lon="14.8153167"><ele>282.0</ele><time>2026-04-19T06:38:57.149Z</time></trkpt><trkpt lat="40.828445" lon="14.8154783"><ele>283.0</ele><time>2026-04-19T06:38:58.149Z</time></trkpt><trkpt lat="40.82856" lon="14.8156333"><ele>284.0</ele><time>2026-04-19T06:38:59.149Z</time></trkpt><trkpt lat="40.828665" lon="14.8157817"><ele>284.0</ele><time>2026-04-19T06:39:00.149Z</time></trkpt><trkpt lat="40.8287717" lon="14.81593"><ele>284.0</ele><time>2026-04-19T06:39:01.149Z</time></trkpt><trkpt lat="40.82888" lon="14.8160733"><ele>284.0</ele><time>2026-04-19T06:39:02.149Z</time></trkpt><trkpt lat="40.828985" lon="14.8162167"><ele>284.33333333333337</ele><time>2026-04-19T06:39:03.149Z</time></trkpt><trkpt lat="40.8290933" lon="14.8163683"><ele>284.6666666666667</ele><time>2026-04-19T06:39:04.149Z</time></trkpt><trkpt lat="40.8291983" lon="14.81652"><ele>285.0</ele><time>2026-04-19T06:39:05.149Z</time></trkpt><trkpt lat="40.8293067" lon="14.8166683"><ele>285.3333333333333</ele><time>2026-04-19T06:39:06.148Z</time></trkpt><trkpt lat="40.82941" lon="14.8168183"><ele>285.66666666666663</ele><time>2026-04-19T06:39:07.148Z</time></trkpt><trkpt lat="40.8295183" lon="14.8169667"><ele>286.0</ele><time>2026-04-19T06:39:08.149Z</time></trkpt><trkpt lat="40.8296283" lon="14.8171117"><ele>286.0</ele><time>2026-04-19T06:39:09.148Z</time></trkpt><trkpt lat="40.8297467" lon="14.8172633"><ele>286.0</ele><time>2026-04-19T06:39:10.149Z</time></trkpt><trkpt lat="40.8298633" lon="14.8174183"><ele>286.0</ele><time>2026-04-19T06:39:11.149Z</time></trkpt><trkpt lat="40.82998" lon="14.8175833"><ele>286.3333333333333</ele><time>2026-04-19T06:39:12.149Z</time></trkpt><trkpt lat="40.8301067" lon="14.8177483"><ele>286.6666666666667</ele><time>2026-04-19T06:39:13.149Z</time></trkpt><trkpt lat="40.8302267" lon="14.8179117"><ele>287.0</ele><time>2026-04-19T06:39:14.148Z</time></trkpt><trkpt lat="40.83035" lon="14.818085"><ele>287.0</ele><time>2026-04-19T06:39:15.149Z</time></trkpt><trkpt lat="40.83048" lon="14.8182567"><ele>287.0</ele><time>2026-04-19T06:39:16.149Z</time></trkpt><trkpt lat="40.830615" lon="14.8184333"><ele>287.0</ele><time>2026-04-19T06:39:17.149Z</time></trkpt><trkpt lat="40.830745" lon="14.818615"><ele>288.0</ele><time>2026-04-19T06:39:18.149Z</time></trkpt><trkpt lat="40.83088" lon="14.8187983"><ele>289.0</ele><time>2026-04-19T06:39:19.148Z</time></trkpt><trkpt lat="40.8310083" lon="14.8189767"><ele>290.0</ele><time>2026-04-19T06:39:20.148Z</time></trkpt><trkpt lat="40.83114" lon="14.81916"><ele>291.33333333333337</ele><time>2026-04-19T06:39:21.149Z</time></trkpt><trkpt lat="40.8312767" lon="14.8193467"><ele>292.6666666666667</ele><time>2026-04-19T06:39:22.149Z</time></trkpt><trkpt lat="40.8314133" lon="14.8195333"><ele>294.0</ele><time>2026-04-19T06:39:23.149Z</time></trkpt><trkpt lat="40.8315517" lon="14.819725"><ele>294.0</ele><time>2026-04-19T06:39:24.149Z</time></trkpt><trkpt lat="40.8316883" lon="14.81992"><ele>294.0</ele><time>2026-04-19T06:39:25.148Z</time></trkpt><trkpt lat="40.831825" lon="14.820125"><ele>294.0</ele><time>2026-04-19T06:39:26.149Z</time></trkpt><trkpt lat="40.8319533" lon="14.8203333"><ele>294.6666666666667</ele><time>2026-04-19T06:39:27.149Z</time></trkpt><trkpt lat="40.83208" lon="14.82054"><ele>295.33333333333337</ele><time>2026-04-19T06:39:28.149Z</time></trkpt><trkpt lat="40.832195" lon="14.8207583"><ele>296.0</ele><time>2026-04-19T06:39:29.149Z</time></trkpt><trkpt lat="40.8323083" lon="14.820975"><ele>296.33333333333337</ele><time>2026-04-19T06:39:30.148Z</time></trkpt><trkpt lat="40.832425" lon="14.82119"><ele>296.6666666666667</ele><time>2026-04-19T06:39:31.149Z</time></trkpt><trkpt lat="40.8325317" lon="14.8214133"><ele>297.0</ele><time>2026-04-19T06:39:32.149Z</time></trkpt><trkpt lat="40.83264" lon="14.8216367"><ele>298.6666666666667</ele><time>2026-04-19T06:39:33.149Z</time></trkpt><trkpt lat="40.83274" lon="14.8218767"><ele>300.33333333333337</ele><time>2026-04-19T06:39:34.148Z</time></trkpt><trkpt lat="40.8328417" lon="14.82211"><ele>302.0</ele><time>2026-04-19T06:39:35.149Z</time></trkpt><trkpt lat="40.8329367" lon="14.822355"><ele>302.0</ele><time>2026-04-19T06:39:36.149Z</time></trkpt><trkpt lat="40.8330383" lon="14.8226017"><ele>302.0</ele><time>2026-04-19T06:39:37.148Z</time></trkpt><trkpt lat="40.8331283" lon="14.822845"><ele>302.0</ele><time>2026-04-19T06:39:38.149Z</time></trkpt><trkpt lat="40.833215" lon="14.8230967"><ele>303.0</ele><time>2026-04-19T06:39:39.148Z</time></trkpt><trkpt lat="40.8332933" lon="14.8233517"><ele>304.0</ele><time>2026-04-19T06:39:40.149Z</time></trkpt><trkpt lat="40.8333667" lon="14.8236217"><ele>305.0</ele><time>2026-04-19T06:39:41.149Z</time></trkpt><trkpt lat="40.83344" lon="14.82389"><ele>306.6666666666667</ele><time>2026-04-19T06:39:42.149Z</time></trkpt><trkpt lat="40.83351" lon="14.824155"><ele>308.3333333333333</ele><time>2026-04-19T06:39:43.149Z</time></trkpt><trkpt lat="40.8335717" lon="14.8244267"><ele>310.0</ele><time>2026-04-19T06:39:44.149Z</time></trkpt><trkpt lat="40.8336333" lon="14.824695"><ele>310.3333333333333</ele><time>2026-04-19T06:39:45.148Z</time></trkpt><trkpt lat="40.833685" lon="14.8249633"><ele>310.6666666666667</ele><time>2026-04-19T06:39:46.148Z</time></trkpt><trkpt lat="40.8337383" lon="14.8252417"><ele>311.0</ele><time>2026-04-19T06:39:47.148Z</time></trkpt><trkpt lat="40.8337833" lon="14.8255167"><ele>311.0</ele><time>2026-04-19T06:39:48.149Z</time></trkpt><trkpt lat="40.8338217" lon="14.8257883"><ele>311.0</ele><time>2026-04-19T06:39:49.149Z</time></trkpt><trkpt lat="40.8338517" lon="14.8260633"><ele>311.0</ele><time>2026-04-19T06:39:50.148Z</time></trkpt><trkpt lat="40.8338767" lon="14.82634"><ele>312.33333333333337</ele><time>2026-04-19T06:39:51.148Z</time></trkpt><trkpt lat="40.8338933" lon="14.82661"><ele>313.6666666666667</ele><time>2026-04-19T06:39:52.148Z</time></trkpt><trkpt lat="40.8339083" lon="14.8268767"><ele>315.0</ele><time>2026-04-19T06:39:53.149Z</time></trkpt><trkpt lat="40.8339217" lon="14.8271433"><ele>315.3333333333333</ele><time>2026-04-19T06:39:54.149Z</time></trkpt><trkpt lat="40.8339317" lon="14.8274067"><ele>315.66666666666663</ele><time>2026-04-19T06:39:55.149Z</time></trkpt><trkpt lat="40.8339383" lon="14.8276733"><ele>316.0</ele><time>2026-04-19T06:39:56.149Z</time></trkpt><trkpt lat="40.8339367" lon="14.8279367"><ele>317.0</ele><time>2026-04-19T06:39:57.149Z</time></trkpt><trkpt lat="40.8339267" lon="14.8282"><ele>318.0</ele><time>2026-04-19T06:39:58.148Z</time></trkpt><trkpt lat="40.8339217" lon="14.8284617"><ele>319.0</ele><time>2026-04-19T06:39:59.148Z</time></trkpt><trkpt lat="40.8339017" lon="14.8287283"><ele>319.66666666666663</ele><time>2026-04-19T06:40:00.149Z</time></trkpt><trkpt lat="40.8338767" lon="14.828995"><ele>320.3333333333333</ele><time>2026-04-19T06:40:01.149Z</time></trkpt><trkpt lat="40.833855" lon="14.8292583"><ele>321.0</ele><time>2026-04-19T06:40:02.148Z</time></trkpt><trkpt lat="40.8338367" lon="14.8295167"><ele>321.3333333333333</ele><time>2026-04-19T06:40:03.148Z</time></trkpt><trkpt lat="40.8338167" lon="14.82977"><ele>321.66666666666663</ele><time>2026-04-19T06:40:04.149Z</time></trkpt><trkpt lat="40.8338" lon="14.8300317"><ele>322.0</ele><time>2026-04-19T06:40:05.148Z</time></trkpt><trkpt lat="40.83378" lon="14.8302917"><ele>322.66666666666663</ele><time>2026-04-19T06:40:06.149Z</time></trkpt><trkpt lat="40.8337583" lon="14.83055"><ele>323.3333333333333</ele><time>2026-04-19T06:40:07.149Z</time></trkpt><trkpt lat="40.8337383" lon="14.83081"><ele>324.0</ele><time>2026-04-19T06:40:08.148Z</time></trkpt><trkpt lat="40.8337083" lon="14.8310683"><ele>325.3333333333333</ele><time>2026-04-19T06:40:09.149Z</time></trkpt><trkpt lat="40.8336933" lon="14.8313233"><ele>326.66666666666663</ele><time>2026-04-19T06:40:10.149Z</time></trkpt><trkpt lat="40.8336733" lon="14.8315833"><ele>328.0</ele><time>2026-04-19T06:40:11.149Z</time></trkpt><trkpt lat="40.8336517" lon="14.8318467"><ele>328.66666666666663</ele><time>2026-04-19T06:40:12.149Z</time></trkpt><trkpt lat="40.8336383" lon="14.8321067"><ele>329.3333333333333</ele><time>2026-04-19T06:40:13.149Z</time></trkpt><trkpt lat="40.8336217" lon="14.83237"><ele>330.0</ele><time>2026-04-19T06:40:14.149Z</time></trkpt><trkpt lat="40.8336083" lon="14.8326333"><ele>331.0</ele><time>2026-04-19T06:40:15.149Z</time></trkpt><trkpt lat="40.83359" lon="14.832895"><ele>332.0</ele><time>2026-04-19T06:40:16.149Z</time></trkpt><trkpt lat="40.8335717" lon="14.8331633"><ele>333.0</ele><time>2026-04-19T06:40:17.148Z</time></trkpt><trkpt lat="40.8335667" lon="14.83343"><ele>335.3333333333333</ele><time>2026-04-19T06:40:18.148Z</time></trkpt><trkpt lat="40.8335667" lon="14.833695"><ele>337.66666666666663</ele><time>2026-04-19T06:40:19.149Z</time></trkpt><trkpt lat="40.833565" lon="14.8339633"><ele>340.0</ele><time>2026-04-19T06:40:20.149Z</time></trkpt><trkpt lat="40.8335717" lon="14.8342317"><ele>343.0</ele><time>2026-04-19T06:40:21.149Z</time></trkpt><trkpt lat="40.8335867" lon="14.8345"><ele>346.0</ele><time>2026-04-19T06:40:22.149Z</time></trkpt><trkpt lat="40.8336083" lon="14.8347717"><ele>349.0</ele><time>2026-04-19T06:40:23.149Z</time></trkpt><trkpt lat="40.833635" lon="14.835045"><ele>349.0</ele><time>2026-04-19T06:40:24.149Z</time></trkpt><trkpt lat="40.833675" lon="14.8353183"><ele>349.0</ele><time>2026-04-19T06:40:25.149Z</time></trkpt><trkpt lat="40.8337133" lon="14.8355883"><ele>349.0</ele><time>2026-04-19T06:40:26.149Z</time></trkpt><trkpt lat="40.8337617" lon="14.8358567"><ele>348.3333333333333</ele><time>2026-04-19T06:40:27.149Z</time></trkpt><trkpt lat="40.8338233" lon="14.83612"><ele>347.6666666666667</ele><time>2026-04-19T06:40:28.149Z</time></trkpt><trkpt lat="40.8338883" lon="14.8363833"><ele>347.0</ele><time>2026-04-19T06:40:29.149Z</time></trkpt><trkpt lat="40.8339583" lon="14.8366417"><ele>348.33333333333337</ele><time>2026-04-19T06:40:30.148Z</time></trkpt><trkpt lat="40.83404" lon="14.836895"><ele>349.6666666666667</ele><time>2026-04-19T06:40:31.148Z</time></trkpt><trkpt lat="40.8341317" lon="14.8371433"><ele>351.0</ele><time>2026-04-19T06:40:32.149Z</time></trkpt><trkpt lat="40.8342317" lon="14.8373967"><ele>351.6666666666667</ele><time>2026-04-19T06:40:33.148Z</time></trkpt><trkpt lat="40.8343367" lon="14.837645"><ele>352.33333333333337</ele><time>2026-04-19T06:40:34.149Z</time></trkpt><trkpt lat="40.834445" lon="14.8378817"><ele>353.0</ele><time>2026-04-19T06:40:35.149Z</time></trkpt><trkpt lat="40.834555" lon="14.838115"><ele>353.0</ele><time>2026-04-19T06:40:36.149Z</time></trkpt><trkpt lat="40.834675" lon="14.8383417"><ele>353.0</ele><time>2026-04-19T06:40:37.149Z</time></trkpt><trkpt lat="40.8348017" lon="14.8385633"><ele>353.0</ele><time>2026-04-19T06:40:38.148Z</time></trkpt><trkpt lat="40.8349333" lon="14.8387867"><ele>354.33333333333337</ele><time>2026-04-19T06:40:39.148Z</time></trkpt><trkpt lat="40.8350667" lon="14.8390017"><ele>355.6666666666667</ele><time>2026-04-19T06:40:40.149Z</time></trkpt><trkpt lat="40.8352033" lon="14.83921"><ele>357.0</ele><time>2026-04-19T06:40:41.149Z</time></trkpt><trkpt lat="40.83535" lon="14.8394117"><ele>358.0</ele><time>2026-04-19T06:40:42.149Z</time></trkpt><trkpt lat="40.8354983" lon="14.839615"><ele>359.0</ele><time>2026-04-19T06:40:43.148Z</time></trkpt><trkpt lat="40.8356483" lon="14.83982"><ele>360.0</ele><time>2026-04-19T06:40:44.149Z</time></trkpt><trkpt lat="40.8357967" lon="14.8400133"><ele>360.0</ele><time>2026-04-19T06:40:45.148Z</time></trkpt><trkpt lat="40.83595" lon="14.840195"><ele>360.0</ele><time>2026-04-19T06:40:46.149Z</time></trkpt><trkpt lat="40.8360933" lon="14.8403633"><ele>360.0</ele><time>2026-04-19T06:40:47.149Z</time></trkpt><trkpt lat="40.8362383" lon="14.8405333"><ele>361.0</ele><time>2026-04-19T06:40:48.149Z</time></trkpt><trkpt lat="40.8363783" lon="14.8406983"><ele>362.0</ele><time>2026-04-19T06:40:49.148Z</time></trkpt><trkpt lat="40.83652" lon="14.8408583"><ele>363.0</ele><time>2026-04-19T06:40:50.148Z</time></trkpt><trkpt lat="40.83666" lon="14.8410117"><ele>370.0</ele><time>2026-04-19T06:40:51.149Z</time></trkpt><trkpt lat="40.83681" lon="14.84115"><ele>377.0</ele><time>2026-04-19T06:40:52.149Z</time></trkpt><trkpt lat="40.8369633" lon="14.8412833"><ele>384.0</ele><time>2026-04-19T06:40:53.149Z</time></trkpt><trkpt lat="40.8371167" lon="14.8414183"><ele>384.0</ele><time>2026-04-19T06:40:54.149Z</time></trkpt><trkpt lat="40.8372733" lon="14.84156"><ele>384.0</ele><time>2026-04-19T06:40:55.148Z</time></trkpt><trkpt lat="40.8374283" lon="14.8417017"><ele>384.0</ele><time>2026-04-19T06:40:56.149Z</time></trkpt><trkpt lat="40.837585" lon="14.8418317"><ele>395.33333333333337</ele><time>2026-04-19T06:40:57.149Z</time></trkpt><trkpt lat="40.8377467" lon="14.84197"><ele>406.6666666666667</ele><time>2026-04-19T06:40:58.149Z</time></trkpt><trkpt lat="40.8379033" lon="14.8421183"><ele>418.0</ele><time>2026-04-19T06:40:59.148Z</time></trkpt><trkpt lat="40.8380633" lon="14.8422783"><ele>418.0</ele><time>2026-04-19T06:41:00.149Z</time></trkpt><trkpt lat="40.8382183" lon="14.8424567"><ele>418.0</ele><time>2026-04-19T06:41:01.149Z</time></trkpt><trkpt lat="40.838375" lon="14.8426083"><ele>418.0</ele><time>2026-04-19T06:41:02.148Z</time></trkpt><trkpt lat="40.8385317" lon="14.8427617"><ele>425.6666666666667</ele><time>2026-04-19T06:41:03.149Z</time></trkpt><trkpt lat="40.8386867" lon="14.8429133"><ele>433.33333333333337</ele><time>2026-04-19T06:41:04.149Z</time></trkpt><trkpt lat="40.83884" lon="14.843065"><ele>441.0</ele><time>2026-04-19T06:41:05.149Z</time></trkpt><trkpt lat="40.8389933" lon="14.8432167"><ele>441.0</ele><time>2026-04-19T06:41:06.148Z</time></trkpt><trkpt lat="40.8391433" lon="14.8433683"><ele>441.0</ele><time>2026-04-19T06:41:07.149Z</time></trkpt><trkpt lat="40.8392983" lon="14.8435217"><ele>441.0</ele><time>2026-04-19T06:41:08.148Z</time></trkpt><trkpt lat="40.854615" lon="14.8569233"><ele>426.66666666666663</ele><time>2026-04-19T06:42:40.152Z</time></trkpt><trkpt lat="40.85478" lon="14.8570467"><ele>412.3333333333333</ele><time>2026-04-19T06:42:41.153Z</time></trkpt><trkpt lat="40.8549483" lon="14.85715"><ele>398.0</ele><time>2026-04-19T06:42:42.152Z</time></trkpt><trkpt lat="40.8551217" lon="14.857245"><ele>397.0</ele><time>2026-04-19T06:42:43.152Z</time></trkpt><trkpt lat="40.8552917" lon="14.85734"><ele>396.0</ele><time>2026-04-19T06:42:44.152Z</time></trkpt><trkpt lat="40.8554617" lon="14.8574333"><ele>395.0</ele><time>2026-04-19T06:42:45.153Z</time></trkpt><trkpt lat="40.8556383" lon="14.8575183"><ele>395.0</ele><time>2026-04-19T06:42:46.153Z</time></trkpt><trkpt lat="40.8558117" lon="14.857595"><ele>395.0</ele><time>2026-04-19T06:42:47.153Z</time></trkpt><trkpt lat="40.855985" lon="14.8576583"><ele>395.0</ele><time>2026-04-19T06:42:48.153Z</time></trkpt><trkpt lat="40.85616" lon="14.857725"><ele>392.66666666666663</ele><time>2026-04-19T06:42:49.152Z</time></trkpt><trkpt lat="40.8563283" lon="14.8577917"><ele>390.33333333333337</ele><time>2026-04-19T06:42:50.153Z</time></trkpt><trkpt lat="40.8564967" lon="14.857855"><ele>388.0</ele><time>2026-04-19T06:42:51.152Z</time></trkpt><trkpt lat="40.8566667" lon="14.8579217"><ele>387.0</ele><time>2026-04-19T06:42:52.153Z</time></trkpt><trkpt lat="40.856835" lon="14.8579917"><ele>386.0</ele><time>2026-04-19T06:42:53.152Z</time></trkpt><trkpt lat="40.857005" lon="14.8580683"><ele>385.0</ele><time>2026-04-19T06:42:54.153Z</time></trkpt><trkpt lat="40.8571817" lon="14.8581417"><ele>385.0</ele><time>2026-04-19T06:42:55.153Z</time></trkpt><trkpt lat="40.8573567" lon="14.8582233"><ele>385.0</ele><time>2026-04-19T06:42:56.153Z</time></trkpt><trkpt lat="40.8575383" lon="14.8583017"><ele>385.0</ele><time>2026-04-19T06:42:57.153Z</time></trkpt><trkpt lat="40.85772" lon="14.85837"><ele>384.33333333333337</ele><time>2026-04-19T06:42:58.153Z</time></trkpt><trkpt lat="40.8579033" lon="14.8584383"><ele>383.6666666666667</ele><time>2026-04-19T06:42:59.153Z</time></trkpt><trkpt lat="40.8580833" lon="14.8585133"><ele>383.0</ele><time>2026-04-19T06:43:00.153Z</time></trkpt><trkpt lat="40.8582633" lon="14.85859"><ele>382.33333333333337</ele><time>2026-04-19T06:43:01.153Z</time></trkpt><trkpt lat="40.8584483" lon="14.858665"><ele>381.6666666666667</ele><time>2026-04-19T06:43:02.153Z</time></trkpt><trkpt lat="40.8586383" lon="14.8587367"><ele>381.0</ele><time>2026-04-19T06:43:03.153Z</time></trkpt><trkpt lat="40.8588167" lon="14.85881"><ele>381.0</ele><time>2026-04-19T06:43:04.153Z</time></trkpt><trkpt lat="40.8590083" lon="14.8588917"><ele>381.0</ele><time>2026-04-19T06:43:05.153Z</time></trkpt><trkpt lat="40.859195" lon="14.8589717"><ele>381.0</ele><time>2026-04-19T06:43:06.153Z</time></trkpt><trkpt lat="40.8593783" lon="14.8590467"><ele>379.6666666666667</ele><time>2026-04-19T06:43:07.152Z</time></trkpt><trkpt lat="40.85956" lon="14.859125"><ele>378.33333333333337</ele><time>2026-04-19T06:43:08.153Z</time></trkpt><trkpt lat="40.8597417" lon="14.8592"><ele>377.0</ele><time>2026-04-19T06:43:09.152Z</time></trkpt><trkpt lat="40.8599283" lon="14.8592717"><ele>376.6666666666667</ele><time>2026-04-19T06:43:10.152Z</time></trkpt><trkpt lat="40.8601117" lon="14.8593367"><ele>376.3333333333333</ele><time>2026-04-19T06:43:11.153Z</time></trkpt><trkpt lat="40.860295" lon="14.8593983"><ele>376.0</ele><time>2026-04-19T06:43:12.153Z</time></trkpt><trkpt lat="40.86047" lon="14.8594467"><ele>376.0</ele><time>2026-04-19T06:43:13.153Z</time></trkpt><trkpt lat="40.860655" lon="14.85949"><ele>376.0</ele><time>2026-04-19T06:43:14.153Z</time></trkpt><trkpt lat="40.8608383" lon="14.85953"><ele>376.0</ele><time>2026-04-19T06:43:15.153Z</time></trkpt><trkpt lat="40.86102" lon="14.8595583"><ele>375.0</ele><time>2026-04-19T06:43:16.153Z</time></trkpt><trkpt lat="40.861205" lon="14.859585"><ele>374.0</ele><time>2026-04-19T06:43:17.152Z</time></trkpt><trkpt lat="40.861385" lon="14.8596017"><ele>373.0</ele><time>2026-04-19T06:43:18.152Z</time></trkpt><trkpt lat="40.86157" lon="14.85961"><ele>373.0</ele><time>2026-04-19T06:43:19.153Z</time></trkpt><trkpt lat="40.8617617" lon="14.8596083"><ele>373.0</ele><time>2026-04-19T06:43:20.153Z</time></trkpt><trkpt lat="40.861955" lon="14.8596083"><ele>373.0</ele><time>2026-04-19T06:43:21.153Z</time></trkpt><trkpt lat="40.86215" lon="14.8596017"><ele>373.0</ele><time>2026-04-19T06:43:22.153Z</time></trkpt><trkpt lat="40.86235" lon="14.8595817"><ele>373.0</ele><time>2026-04-19T06:43:23.153Z</time></trkpt><trkpt lat="40.8625517" lon="14.85955"><ele>373.0</ele><time>2026-04-19T06:43:24.153Z</time></trkpt><trkpt lat="40.8627483" lon="14.8595083"><ele>373.66666666666663</ele><time>2026-04-19T06:43:25.152Z</time></trkpt><trkpt lat="40.8629417" lon="14.8594533"><ele>374.3333333333333</ele><time>2026-04-19T06:43:26.152Z</time></trkpt><trkpt lat="40.8631317" lon="14.8593967"><ele>375.0</ele><time>2026-04-19T06:43:27.152Z</time></trkpt><trkpt lat="40.8633083" lon="14.85933"><ele>375.0</ele><time>2026-04-19T06:43:28.152Z</time></trkpt><trkpt lat="40.8634817" lon="14.8592533"><ele>375.0</ele><time>2026-04-19T06:43:29.153Z</time></trkpt><trkpt lat="40.8636583" lon="14.8591783"><ele>375.0</ele><time>2026-04-19T06:43:30.152Z</time></trkpt><trkpt lat="40.863825" lon="14.8591"><ele>375.0</ele><time>2026-04-19T06:43:31.153Z</time></trkpt><trkpt lat="40.86399" lon="14.85901"><ele>375.0</ele><time>2026-04-19T06:43:32.153Z</time></trkpt><trkpt lat="40.8641567" lon="14.8589117"><ele>375.0</ele><time>2026-04-19T06:43:33.152Z</time></trkpt><trkpt lat="40.8643167" lon="14.8588"><ele>375.0</ele><time>2026-04-19T06:43:34.153Z</time></trkpt><trkpt lat="40.8644817" lon="14.8586983"><ele>375.0</ele><time>2026-04-19T06:43:35.153Z</time></trkpt><trkpt lat="40.864645" lon="14.8585917"><ele>375.0</ele><time>2026-04-19T06:43:36.152Z</time></trkpt><trkpt lat="40.8648033" lon="14.85848"><ele>373.0</ele><time>2026-04-19T06:43:37.153Z</time></trkpt><trkpt lat="40.8649617" lon="14.85837"><ele>371.0</ele><time>2026-04-19T06:43:38.153Z</time></trkpt><trkpt lat="40.8651267" lon="14.85826"><ele>369.0</ele><time>2026-04-19T06:43:39.152Z</time></trkpt><trkpt lat="40.8652933" lon="14.8581517"><ele>369.0</ele><time>2026-04-19T06:43:40.153Z</time></trkpt><trkpt lat="40.8654517" lon="14.85804"><ele>369.0</ele><time>2026-04-19T06:43:41.153Z</time></trkpt><trkpt lat="40.8656117" lon="14.857925"><ele>369.0</ele><time>2026-04-19T06:43:42.152Z</time></trkpt><trkpt lat="40.8657767" lon="14.8578133"><ele>369.0</ele><time>2026-04-19T06:43:43.153Z</time></trkpt><trkpt lat="40.8659383" lon="14.8577067"><ele>369.0</ele><time>2026-04-19T06:43:44.152Z</time></trkpt><trkpt lat="40.8661033" lon="14.8575933"><ele>369.0</ele><time>2026-04-19T06:43:45.153Z</time></trkpt><trkpt lat="40.8662683" lon="14.857475"><ele>367.0</ele><time>2026-04-19T06:43:46.153Z</time></trkpt><trkpt lat="40.8664283" lon="14.8573517"><ele>365.0</ele><time>2026-04-19T06:43:47.153Z</time></trkpt><trkpt lat="40.866595" lon="14.85723"><ele>363.0</ele><time>2026-04-19T06:43:48.152Z</time></trkpt><trkpt lat="40.8667683" lon="14.8571133"><ele>363.0</ele><time>2026-04-19T06:43:49.152Z</time></trkpt><trkpt lat="40.8669367" lon="14.8569967"><ele>363.0</ele><time>2026-04-19T06:43:50.153Z</time></trkpt><trkpt lat="40.8671067" lon="14.85688"><ele>363.0</ele><time>2026-04-19T06:43:51.153Z</time></trkpt><trkpt lat="40.8672767" lon="14.8567667"><ele>363.0</ele><time>2026-04-19T06:43:52.153Z</time></trkpt><trkpt lat="40.86744" lon="14.8566467"><ele>363.0</ele><time>2026-04-19T06:43:53.153Z</time></trkpt><trkpt lat="40.8676117" lon="14.8565317"><ele>363.0</ele><time>2026-04-19T06:43:54.153Z</time></trkpt><trkpt lat="40.8677817" lon="14.8564167"><ele>362.0</ele><time>2026-04-19T06:43:55.153Z</time></trkpt><trkpt lat="40.8679567" lon="14.8563033"><ele>361.0</ele><time>2026-04-19T06:43:56.153Z</time></trkpt><trkpt lat="40.8681283" lon="14.85619"><ele>360.0</ele><time>2026-04-19T06:43:57.153Z</time></trkpt><trkpt lat="40.8682967" lon="14.8560733"><ele>359.6666666666667</ele><time>2026-04-19T06:43:58.153Z</time></trkpt><trkpt lat="40.8684683" lon="14.85596"><ele>359.33333333333337</ele><time>2026-04-19T06:43:59.153Z</time></trkpt><trkpt lat="40.8686383" lon="14.855835"><ele>359.0</ele><time>2026-04-19T06:44:00.153Z</time></trkpt><trkpt lat="40.8688117" lon="14.8557133"><ele>358.6666666666667</ele><time>2026-04-19T06:44:01.153Z</time></trkpt><trkpt lat="40.86898" lon="14.855595"><ele>358.3333333333333</ele><time>2026-04-19T06:44:02.152Z</time></trkpt><trkpt lat="40.8691467" lon="14.8554717"><ele>358.0</ele><time>2026-04-19T06:44:03.153Z</time></trkpt><trkpt lat="40.8693133" lon="14.8553483"><ele>358.3333333333333</ele><time>2026-04-19T06:44:04.152Z</time></trkpt><trkpt lat="40.8694867" lon="14.8552283"><ele>358.6666666666667</ele><time>2026-04-19T06:44:05.152Z</time></trkpt><trkpt lat="40.8696533" lon="14.8551083"><ele>359.0</ele><time>2026-04-19T06:44:06.152Z</time></trkpt><trkpt lat="40.86982" lon="14.8549883"><ele>359.0</ele><time>2026-04-19T06:44:07.153Z</time></trkpt><trkpt lat="40.8699917" lon="14.854875"><ele>359.0</ele><time>2026-04-19T06:44:08.152Z</time></trkpt><trkpt lat="40.8701683" lon="14.8547617"><ele>359.0</ele><time>2026-04-19T06:44:09.152Z</time></trkpt><trkpt lat="40.8703417" lon="14.854655"><ele>359.0</ele><time>2026-04-19T06:44:10.153Z</time></trkpt><trkpt lat="40.8705183" lon="14.8545367"><ele>359.0</ele><time>2026-04-19T06:44:11.153Z</time></trkpt><trkpt lat="40.8706717" lon="14.8544333"><ele>359.0</ele><time>2026-04-19T06:44:12.153Z</time></trkpt><trkpt lat="40.870825" lon="14.8543283"><ele>358.6666666666667</ele><time>2026-04-19T06:44:13.152Z</time></trkpt><trkpt lat="40.8709733" lon="14.85423"><ele>358.3333333333333</ele><time>2026-04-19T06:44:14.153Z</time></trkpt><trkpt lat="40.8711217" lon="14.8541217"><ele>358.0</ele><time>2026-04-19T06:44:15.152Z</time></trkpt><trkpt lat="40.8712717" lon="14.85402"><ele>358.0</ele><time>2026-04-19T06:44:16.153Z</time></trkpt><trkpt lat="40.8714217" lon="14.85391"><ele>358.0</ele><time>2026-04-19T06:44:17.153Z</time></trkpt><trkpt lat="40.87157" lon="14.8538067"><ele>358.0</ele><time>2026-04-19T06:44:18.153Z</time></trkpt><trkpt lat="40.87172" lon="14.8537017"><ele>358.0</ele><time>2026-04-19T06:44:19.153Z</time></trkpt><trkpt lat="40.8718683" lon="14.8536"><ele>358.0</ele><time>2026-04-19T06:44:20.153Z</time></trkpt><trkpt lat="40.8720183" lon="14.8535017"><ele>358.0</ele><time>2026-04-19T06:44:21.153Z</time></trkpt><trkpt lat="40.8721633" lon="14.8534017"><ele>357.3333333333333</ele><time>2026-04-19T06:44:22.153Z</time></trkpt><trkpt lat="40.8723033" lon="14.853305"><ele>356.6666666666667</ele><time>2026-04-19T06:44:23.152Z</time></trkpt><trkpt lat="40.8724383" lon="14.853205"><ele>356.0</ele><time>2026-04-19T06:44:24.153Z</time></trkpt><trkpt lat="40.8725733" lon="14.8531133"><ele>356.6666666666667</ele><time>2026-04-19T06:44:25.153Z</time></trkpt><trkpt lat="40.8727067" lon="14.8530217"><ele>357.3333333333333</ele><time>2026-04-19T06:44:26.152Z</time></trkpt><trkpt lat="40.8728383" lon="14.8529283"><ele>358.0</ele><time>2026-04-19T06:44:27.152Z</time></trkpt><trkpt lat="40.87297" lon="14.8528283"><ele>358.0</ele><time>2026-04-19T06:44:28.152Z</time></trkpt><trkpt lat="40.87311" lon="14.85273"><ele>358.0</ele><time>2026-04-19T06:44:29.152Z</time></trkpt><trkpt lat="40.873255" lon="14.8526333"><ele>358.0</ele><time>2026-04-19T06:44:30.153Z</time></trkpt><trkpt lat="40.8733983" lon="14.8525383"><ele>356.66666666666663</ele><time>2026-04-19T06:44:31.153Z</time></trkpt><trkpt lat="40.8735467" lon="14.85244"><ele>355.3333333333333</ele><time>2026-04-19T06:44:32.152Z</time></trkpt><trkpt lat="40.873695" lon="14.8523333"><ele>354.0</ele><time>2026-04-19T06:44:33.153Z</time></trkpt><trkpt lat="40.8738483" lon="14.8522283"><ele>354.0</ele><time>2026-04-19T06:44:34.153Z</time></trkpt><trkpt lat="40.8740033" lon="14.852125"><ele>354.0</ele><time>2026-04-19T06:44:35.153Z</time></trkpt><trkpt lat="40.8741617" lon="14.852005"><ele>354.0</ele><time>2026-04-19T06:44:36.152Z</time></trkpt><trkpt lat="40.8743217" lon="14.851895"><ele>353.3333333333333</ele><time>2026-04-19T06:44:37.153Z</time></trkpt><trkpt lat="40.8744867" lon="14.8517867"><ele>352.66666666666663</ele><time>2026-04-19T06:44:38.153Z</time></trkpt><trkpt lat="40.874645" lon="14.8516783"><ele>352.0</ele><time>2026-04-19T06:44:39.152Z</time></trkpt><trkpt lat="40.8748017" lon="14.8515767"><ele>352.0</ele><time>2026-04-19T06:44:40.152Z</time></trkpt><trkpt lat="40.8749633" lon="14.8514867"><ele>352.0</ele><time>2026-04-19T06:44:41.153Z</time></trkpt><trkpt lat="40.8751317" lon="14.8514033"><ele>352.0</ele><time>2026-04-19T06:44:42.152Z</time></trkpt><trkpt lat="40.8752983" lon="14.85132"><ele>352.3333333333333</ele><time>2026-04-19T06:44:43.152Z</time></trkpt><trkpt lat="40.8754667" lon="14.85124"><ele>352.6666666666667</ele><time>2026-04-19T06:44:44.153Z</time></trkpt><trkpt lat="40.875635" lon="14.85117"><ele>353.0</ele><time>2026-04-19T06:44:45.152Z</time></trkpt><trkpt lat="40.8758017" lon="14.8511"><ele>352.6666666666667</ele><time>2026-04-19T06:44:46.152Z</time></trkpt><trkpt lat="40.8759783" lon="14.8510417"><ele>352.3333333333333</ele><time>2026-04-19T06:44:47.153Z</time></trkpt><trkpt lat="40.8761483" lon="14.85099"><ele>352.0</ele><time>2026-04-19T06:44:48.152Z</time></trkpt><trkpt lat="40.8763217" lon="14.850945"><ele>351.3333333333333</ele><time>2026-04-19T06:44:49.153Z</time></trkpt><trkpt lat="40.8764967" lon="14.8509033"><ele>350.6666666666667</ele><time>2026-04-19T06:44:50.153Z</time></trkpt><trkpt lat="40.8766717" lon="14.8508683"><ele>350.0</ele><time>2026-04-19T06:44:51.153Z</time></trkpt><trkpt lat="40.8768483" lon="14.850835"><ele>350.0</ele><time>2026-04-19T06:44:52.153Z</time></trkpt><trkpt lat="40.8770217" lon="14.8508067"><ele>350.0</ele><time>2026-04-19T06:44:53.153Z</time></trkpt><trkpt lat="40.877195" lon="14.8507683"><ele>350.0</ele><time>2026-04-19T06:44:54.152Z</time></trkpt><trkpt lat="40.87737" lon="14.8507367"><ele>350.0</ele><time>2026-04-19T06:44:55.153Z</time></trkpt><trkpt lat="40.8775433" lon="14.850705"><ele>350.0</ele><time>2026-04-19T06:44:56.153Z</time></trkpt><trkpt lat="40.8777167" lon="14.8506633"><ele>350.0</ele><time>2026-04-19T06:44:57.153Z</time></trkpt><trkpt lat="40.8778917" lon="14.8506217"><ele>349.0</ele><time>2026-04-19T06:44:58.153Z</time></trkpt><trkpt lat="40.8780683" lon="14.8505767"><ele>348.0</ele><time>2026-04-19T06:44:59.153Z</time></trkpt><trkpt lat="40.8782433" lon="14.85052"><ele>347.0</ele><time>2026-04-19T06:45:00.152Z</time></trkpt><trkpt lat="40.8784183" lon="14.8504633"><ele>346.6666666666667</ele><time>2026-04-19T06:45:01.153Z</time></trkpt><trkpt lat="40.8785967" lon="14.850395"><ele>346.3333333333333</ele><time>2026-04-19T06:45:02.153Z</time></trkpt><trkpt lat="40.8787733" lon="14.8503217"><ele>346.0</ele><time>2026-04-19T06:45:03.153Z</time></trkpt><trkpt lat="40.8789467" lon="14.850235"><ele>346.0</ele><time>2026-04-19T06:45:04.153Z</time></trkpt><trkpt lat="40.879125" lon="14.85015"><ele>346.0</ele><time>2026-04-19T06:45:05.153Z</time></trkpt><trkpt lat="40.8793" lon="14.85006"><ele>346.0</ele><time>2026-04-19T06:45:06.153Z</time></trkpt><trkpt lat="40.879475" lon="14.8499467"><ele>345.3333333333333</ele><time>2026-04-19T06:45:07.152Z</time></trkpt><trkpt lat="40.87965" lon="14.8498333"><ele>344.6666666666667</ele><time>2026-04-19T06:45:08.153Z</time></trkpt><trkpt lat="40.8798217" lon="14.84971"><ele>344.0</ele><time>2026-04-19T06:45:09.153Z</time></trkpt><trkpt lat="40.87999" lon="14.849575"><ele>344.0</ele><time>2026-04-19T06:45:10.152Z</time></trkpt><trkpt lat="40.8801533" lon="14.849435"><ele>344.0</ele><time>2026-04-19T06:45:11.153Z</time></trkpt><trkpt lat="40.8803133" lon="14.8492967"><ele>344.0</ele><time>2026-04-19T06:45:12.153Z</time></trkpt><trkpt lat="40.8804667" lon="14.8491533"><ele>344.0</ele><time>2026-04-19T06:45:13.153Z</time></trkpt><trkpt lat="40.88062" lon="14.8490083"><ele>344.0</ele><time>2026-04-19T06:45:14.153Z</time></trkpt><trkpt lat="40.8807783" lon="14.8488567"><ele>344.0</ele><time>2026-04-19T06:45:15.153Z</time></trkpt><trkpt lat="40.8809383" lon="14.8487033"><ele>344.33333333333337</ele><time>2026-04-19T06:45:16.153Z</time></trkpt><trkpt lat="40.8811033" lon="14.848555"><ele>344.6666666666667</ele><time>2026-04-19T06:45:17.152Z</time></trkpt><trkpt lat="40.8812633" lon="14.848405"><ele>345.0</ele><time>2026-04-19T06:45:18.153Z</time></trkpt><trkpt lat="40.8814233" lon="14.848255"><ele>344.3333333333333</ele><time>2026-04-19T06:45:19.153Z</time></trkpt><trkpt lat="40.8815867" lon="14.8481033"><ele>343.66666666666663</ele><time>2026-04-19T06:45:20.152Z</time></trkpt><trkpt lat="40.8817517" lon="14.847955"><ele>343.0</ele><time>2026-04-19T06:45:21.153Z</time></trkpt><trkpt lat="40.8819117" lon="14.8478033"><ele>342.3333333333333</ele><time>2026-04-19T06:45:22.152Z</time></trkpt><trkpt lat="40.88207" lon="14.8476517"><ele>341.6666666666667</ele><time>2026-04-19T06:45:23.152Z</time></trkpt><trkpt lat="40.8822333" lon="14.8475"><ele>341.0</ele><time>2026-04-19T06:45:24.152Z</time></trkpt><trkpt lat="40.8824" lon="14.8473433"><ele>341.0</ele><time>2026-04-19T06:45:25.153Z</time></trkpt><trkpt lat="40.8825583" lon="14.8471983"><ele>341.0</ele><time>2026-04-19T06:45:26.153Z</time></trkpt><trkpt lat="40.8827217" lon="14.8470533"><ele>341.0</ele><time>2026-04-19T06:45:27.153Z</time></trkpt><trkpt lat="40.8828783" lon="14.8469117"><ele>339.6666666666667</ele><time>2026-04-19T06:45:28.153Z</time></trkpt><trkpt lat="40.8830317" lon="14.846775"><ele>338.3333333333333</ele><time>2026-04-19T06:45:29.153Z</time></trkpt><trkpt lat="40.88318" lon="14.8466367"><ele>337.0</ele><time>2026-04-19T06:45:30.153Z</time></trkpt><trkpt lat="40.883335" lon="14.8465017"><ele>336.0</ele><time>2026-04-19T06:45:31.153Z</time></trkpt><trkpt lat="40.883485" lon="14.8463617"><ele>335.0</ele><time>2026-04-19T06:45:32.153Z</time></trkpt><trkpt lat="40.88364" lon="14.8462283"><ele>334.0</ele><time>2026-04-19T06:45:33.153Z</time></trkpt><trkpt lat="40.8837933" lon="14.8460933"><ele>334.0</ele><time>2026-04-19T06:45:34.153Z</time></trkpt><trkpt lat="40.8839483" lon="14.8459617"><ele>334.0</ele><time>2026-04-19T06:45:35.152Z</time></trkpt><trkpt lat="40.8841067" lon="14.8458267"><ele>334.0</ele><time>2026-04-19T06:45:36.153Z</time></trkpt><trkpt lat="40.8842683" lon="14.8457067"><ele>334.3333333333333</ele><time>2026-04-19T06:45:37.152Z</time></trkpt><trkpt lat="40.8844333" lon="14.845585"><ele>334.6666666666667</ele><time>2026-04-19T06:45:38.153Z</time></trkpt><trkpt lat="40.884595" lon="14.8454617"><ele>335.0</ele><time>2026-04-19T06:45:39.152Z</time></trkpt><trkpt lat="40.8847583" lon="14.845345"><ele>335.0</ele><time>2026-04-19T06:45:40.153Z</time></trkpt><trkpt lat="40.8849267" lon="14.8452367"><ele>335.0</ele><time>2026-04-19T06:45:41.153Z</time></trkpt><trkpt lat="40.8850983" lon="14.84513"><ele>335.0</ele><time>2026-04-19T06:45:42.153Z</time></trkpt><trkpt lat="40.8852633" lon="14.84503"><ele>335.33333333333337</ele><time>2026-04-19T06:45:43.153Z</time></trkpt><trkpt lat="40.8854233" lon="14.84494"><ele>335.6666666666667</ele><time>2026-04-19T06:45:44.152Z</time></trkpt><trkpt lat="40.88559" lon="14.844855"><ele>336.0</ele><time>2026-04-19T06:45:45.153Z</time></trkpt><trkpt lat="40.8857583" lon="14.844775"><ele>336.0</ele><time>2026-04-19T06:45:46.153Z</time></trkpt><trkpt lat="40.8859267" lon="14.8446917"><ele>336.0</ele><time>2026-04-19T06:45:47.153Z</time></trkpt><trkpt lat="40.8860967" lon="14.844605"><ele>336.0</ele><time>2026-04-19T06:45:48.153Z</time></trkpt><trkpt lat="40.886275" lon="14.8445267"><ele>335.6666666666667</ele><time>2026-04-19T06:45:49.152Z</time></trkpt><trkpt lat="40.886455" lon="14.844455"><ele>335.33333333333337</ele><time>2026-04-19T06:45:50.153Z</time></trkpt><trkpt lat="40.8866317" lon="14.84439"><ele>335.0</ele><time>2026-04-19T06:45:51.153Z</time></trkpt><trkpt lat="40.8868117" lon="14.844335"><ele>334.0</ele><time>2026-04-19T06:45:52.153Z</time></trkpt><trkpt lat="40.886995" lon="14.8442817"><ele>333.0</ele><time>2026-04-19T06:45:53.153Z</time></trkpt><trkpt lat="40.8871783" lon="14.844235"><ele>332.0</ele><time>2026-04-19T06:45:54.153Z</time></trkpt><trkpt lat="40.8873667" lon="14.8441983"><ele>332.0</ele><time>2026-04-19T06:45:55.153Z</time></trkpt><trkpt lat="40.8875517" lon="14.84416"><ele>332.0</ele><time>2026-04-19T06:45:56.153Z</time></trkpt><trkpt lat="40.887745" lon="14.8441217"><ele>332.0</ele><time>2026-04-19T06:45:57.153Z</time></trkpt><trkpt lat="40.8879333" lon="14.84408"><ele>331.33333333333337</ele><time>2026-04-19T06:45:58.153Z</time></trkpt><trkpt lat="40.888125" lon="14.8440417"><ele>330.6666666666667</ele><time>2026-04-19T06:45:59.153Z</time></trkpt><trkpt lat="40.888315" lon="14.8440033"><ele>330.0</ele><time>2026-04-19T06:46:00.153Z</time></trkpt><trkpt lat="40.8885083" lon="14.84396"><ele>329.3333333333333</ele><time>2026-04-19T06:46:01.153Z</time></trkpt><trkpt lat="40.8886917" lon="14.843925"><ele>328.66666666666663</ele><time>2026-04-19T06:46:02.152Z</time></trkpt><trkpt lat="40.88888" lon="14.8438867"><ele>328.0</ele><time>2026-04-19T06:46:03.153Z</time></trkpt><trkpt lat="40.8890683" lon="14.843845"><ele>328.0</ele><time>2026-04-19T06:46:04.152Z</time></trkpt><trkpt lat="40.8892567" lon="14.8438117"><ele>328.0</ele><time>2026-04-19T06:46:05.153Z</time></trkpt><trkpt lat="40.8894417" lon="14.843775"><ele>328.0</ele><time>2026-04-19T06:46:06.153Z</time></trkpt><trkpt lat="40.8896233" lon="14.84374"><ele>329.0</ele><time>2026-04-19T06:46:07.152Z</time></trkpt><trkpt lat="40.8897967" lon="14.8436983"><ele>330.0</ele><time>2026-04-19T06:46:08.153Z</time></trkpt><trkpt lat="40.8899717" lon="14.8436567"><ele>331.0</ele><time>2026-04-19T06:46:09.152Z</time></trkpt><trkpt lat="40.8901533" lon="14.84362"><ele>331.0</ele><time>2026-04-19T06:46:10.153Z</time></trkpt><trkpt lat="40.89033" lon="14.84358"><ele>331.0</ele><time>2026-04-19T06:46:11.152Z</time></trkpt><trkpt lat="40.8905033" lon="14.843545"><ele>331.0</ele><time>2026-04-19T06:46:12.153Z</time></trkpt><trkpt lat="40.890675" lon="14.8435033"><ele>331.0</ele><time>2026-04-19T06:46:13.153Z</time></trkpt><trkpt lat="40.89085" lon="14.843465"><ele>331.0</ele><time>2026-04-19T06:46:14.153Z</time></trkpt><trkpt lat="40.8910217" lon="14.843425"><ele>331.0</ele><time>2026-04-19T06:46:15.153Z</time></trkpt><trkpt lat="40.8911967" lon="14.8433933"><ele>330.3333333333333</ele><time>2026-04-19T06:46:16.153Z</time></trkpt><trkpt lat="40.89137" lon="14.84336"><ele>329.6666666666667</ele><time>2026-04-19T06:46:17.153Z</time></trkpt><trkpt lat="40.89154" lon="14.8433217"><ele>329.0</ele><time>2026-04-19T06:46:18.153Z</time></trkpt><trkpt lat="40.891705" lon="14.843285"><ele>328.33333333333337</ele><time>2026-04-19T06:46:19.153Z</time></trkpt><trkpt lat="40.8918667" lon="14.84325"><ele>327.6666666666667</ele><time>2026-04-19T06:46:20.153Z</time></trkpt><trkpt lat="40.8920267" lon="14.8432133"><ele>327.0</ele><time>2026-04-19T06:46:21.153Z</time></trkpt><trkpt lat="40.8921767" lon="14.843185"><ele>327.0</ele><time>2026-04-19T06:46:22.153Z</time></trkpt><trkpt lat="40.8923267" lon="14.8431483"><ele>327.0</ele><time>2026-04-19T06:46:23.153Z</time></trkpt><trkpt lat="40.89247" lon="14.84312"><ele>327.0</ele><time>2026-04-19T06:46:24.152Z</time></trkpt><trkpt lat="40.8926133" lon="14.8430883"><ele>327.0</ele><time>2026-04-19T06:46:25.153Z</time></trkpt><trkpt lat="40.8927567" lon="14.8430583"><ele>326.6666666666667</ele><time>2026-04-19T06:46:26.152Z</time></trkpt><trkpt lat="40.892905" lon="14.84303"><ele>326.33333333333337</ele><time>2026-04-19T06:46:27.153Z</time></trkpt><trkpt lat="40.8930517" lon="14.8430067"><ele>326.0</ele><time>2026-04-19T06:46:28.153Z</time></trkpt><trkpt lat="40.893205" lon="14.8429783"><ele>326.0</ele><time>2026-04-19T06:46:29.153Z</time></trkpt><trkpt lat="40.8933667" lon="14.84296"><ele>326.0</ele><time>2026-04-19T06:46:30.152Z</time></trkpt><trkpt lat="40.8935283" lon="14.842945"><ele>326.0</ele><time>2026-04-19T06:46:31.152Z</time></trkpt><trkpt lat="40.89369" lon="14.842925"><ele>325.6666666666667</ele><time>2026-04-19T06:46:32.153Z</time></trkpt><trkpt lat="40.8938583" lon="14.842915"><ele>325.3333333333333</ele><time>2026-04-19T06:46:33.153Z</time></trkpt><trkpt lat="40.8940217" lon="14.8429067"><ele>325.0</ele><time>2026-04-19T06:46:34.153Z</time></trkpt><trkpt lat="40.8941917" lon="14.8429083"><ele>324.66666666666663</ele><time>2026-04-19T06:46:35.152Z</time></trkpt><trkpt lat="40.8943567" lon="14.8429233"><ele>324.3333333333333</ele><time>2026-04-19T06:46:36.152Z</time></trkpt><trkpt lat="40.8945217" lon="14.8429317"><ele>324.0</ele><time>2026-04-19T06:46:37.153Z</time></trkpt><trkpt lat="40.89469" lon="14.84295"><ele>324.0</ele><time>2026-04-19T06:46:38.153Z</time></trkpt><trkpt lat="40.8948617" lon="14.8429667"><ele>324.0</ele><time>2026-04-19T06:46:39.152Z</time></trkpt><trkpt lat="40.8950333" lon="14.8429867"><ele>324.0</ele><time>2026-04-19T06:46:40.153Z</time></trkpt><trkpt lat="40.8952" lon="14.8429967"><ele>323.6666666666667</ele><time>2026-04-19T06:46:41.153Z</time></trkpt><trkpt lat="40.8953667" lon="14.84301"><ele>323.33333333333337</ele><time>2026-04-19T06:46:42.152Z</time></trkpt><trkpt lat="40.89554" lon="14.8430267"><ele>323.0</ele><time>2026-04-19T06:46:43.152Z</time></trkpt><trkpt lat="40.8957083" lon="14.8430483"><ele>323.0</ele><time>2026-04-19T06:46:44.153Z</time></trkpt><trkpt lat="40.8958783" lon="14.8430717"><ele>323.0</ele><time>2026-04-19T06:46:45.152Z</time></trkpt><trkpt lat="40.8960483" lon="14.84309"><ele>323.0</ele><time>2026-04-19T06:46:46.153Z</time></trkpt><trkpt lat="40.8962067" lon="14.8430967"><ele>323.0</ele><time>2026-04-19T06:46:47.153Z</time></trkpt><trkpt lat="40.8963633" lon="14.8431017"><ele>323.0</ele><time>2026-04-19T06:46:48.153Z</time></trkpt><trkpt lat="40.896525" lon="14.8430883"><ele>323.0</ele><time>2026-04-19T06:46:49.153Z</time></trkpt><trkpt lat="40.89669" lon="14.8430817"><ele>324.0</ele><time>2026-04-19T06:46:50.152Z</time></trkpt><trkpt lat="40.8968533" lon="14.8430583"><ele>325.0</ele><time>2026-04-19T06:46:51.153Z</time></trkpt><trkpt lat="40.897015" lon="14.8430283"><ele>326.0</ele><time>2026-04-19T06:46:52.152Z</time></trkpt><trkpt lat="40.8971817" lon="14.8430017"><ele>326.0</ele><time>2026-04-19T06:46:53.153Z</time></trkpt><trkpt lat="40.8973433" lon="14.842965"><ele>326.0</ele><time>2026-04-19T06:46:54.153Z</time></trkpt><trkpt lat="40.8975067" lon="14.84292"><ele>326.0</ele><time>2026-04-19T06:46:55.153Z</time></trkpt><trkpt lat="40.897665" lon="14.8428717"><ele>327.0</ele><time>2026-04-19T06:46:56.153Z</time></trkpt><trkpt lat="40.8978283" lon="14.84281"><ele>328.0</ele><time>2026-04-19T06:46:57.153Z</time></trkpt><trkpt lat="40.89799" lon="14.8427467"><ele>329.0</ele><time>2026-04-19T06:46:58.152Z</time></trkpt><trkpt lat="40.8981467" lon="14.8426683"><ele>330.0</ele><time>2026-04-19T06:46:59.153Z</time></trkpt><trkpt lat="40.8983033" lon="14.842585"><ele>331.0</ele><time>2026-04-19T06:47:00.153Z</time></trkpt><trkpt lat="40.8984517" lon="14.8424833"><ele>332.0</ele><time>2026-04-19T06:47:01.152Z</time></trkpt><trkpt lat="40.8985983" lon="14.8423867"><ele>332.0</ele><time>2026-04-19T06:47:02.153Z</time></trkpt><trkpt lat="40.89874" lon="14.8422817"><ele>332.0</ele><time>2026-04-19T06:47:03.152Z</time></trkpt><trkpt lat="40.89888" lon="14.842175"><ele>332.0</ele><time>2026-04-19T06:47:04.153Z</time></trkpt><trkpt lat="40.8990183" lon="14.8420633"><ele>332.0</ele><time>2026-04-19T06:47:05.153Z</time></trkpt><trkpt lat="40.8991567" lon="14.8419433"><ele>332.0</ele><time>2026-04-19T06:47:06.153Z</time></trkpt><trkpt lat="40.8992833" lon="14.8418017"><ele>332.0</ele><time>2026-04-19T06:47:07.152Z</time></trkpt><trkpt lat="40.8994133" lon="14.8416533"><ele>331.33333333333337</ele><time>2026-04-19T06:47:08.153Z</time></trkpt><trkpt lat="40.8995417" lon="14.8415083"><ele>330.6666666666667</ele><time>2026-04-19T06:47:09.153Z</time></trkpt><trkpt lat="40.8996717" lon="14.841365"><ele>330.0</ele><time>2026-04-19T06:47:10.153Z</time></trkpt><trkpt lat="40.8998033" lon="14.841215"><ele>330.0</ele><time>2026-04-19T06:47:11.153Z</time></trkpt><trkpt lat="40.899935" lon="14.8410567"><ele>330.0</ele><time>2026-04-19T06:47:12.153Z</time></trkpt><trkpt lat="40.9000667" lon="14.8408967"><ele>330.0</ele><time>2026-04-19T06:47:13.153Z</time></trkpt><trkpt lat="40.9002033" lon="14.8407383"><ele>328.0</ele><time>2026-04-19T06:47:14.153Z</time></trkpt><trkpt lat="40.9003433" lon="14.8405833"><ele>326.0</ele><time>2026-04-19T06:47:15.153Z</time></trkpt><trkpt lat="40.9004833" lon="14.8404267"><ele>324.0</ele><time>2026-04-19T06:47:16.153Z</time></trkpt><trkpt lat="40.900625" lon="14.8402667"><ele>322.6666666666667</ele><time>2026-04-19T06:47:17.153Z</time></trkpt><trkpt lat="40.9007683" lon="14.8401133"><ele>321.33333333333337</ele><time>2026-04-19T06:47:18.152Z</time></trkpt><trkpt lat="40.9009083" lon="14.8399583"><ele>320.0</ele><time>2026-04-19T06:47:19.152Z</time></trkpt><trkpt lat="40.90105" lon="14.839805"><ele>320.0</ele><time>2026-04-19T06:47:20.153Z</time></trkpt><trkpt lat="40.901195" lon="14.8396517"><ele>320.0</ele><time>2026-04-19T06:47:21.153Z</time></trkpt><trkpt lat="40.9013367" lon="14.8395017"><ele>320.0</ele><time>2026-04-19T06:47:22.152Z</time></trkpt><trkpt lat="40.9014833" lon="14.8393567"><ele>319.33333333333337</ele><time>2026-04-19T06:47:23.152Z</time></trkpt><trkpt lat="40.90163" lon="14.8392133"><ele>318.6666666666667</ele><time>2026-04-19T06:47:24.153Z</time></trkpt><trkpt lat="40.9017833" lon="14.8390733"><ele>318.0</ele><time>2026-04-19T06:47:25.153Z</time></trkpt><trkpt lat="40.901935" lon="14.8389317"><ele>320.6666666666667</ele><time>2026-04-19T06:47:26.153Z</time></trkpt><trkpt lat="40.9020883" lon="14.8387967"><ele>323.33333333333337</ele><time>2026-04-19T06:47:27.153Z</time></trkpt><trkpt lat="40.9022417" lon="14.8386667"><ele>326.0</ele><time>2026-04-19T06:47:28.152Z</time></trkpt><trkpt lat="40.902395" lon="14.8385367"><ele>328.0</ele><time>2026-04-19T06:47:29.153Z</time></trkpt><trkpt lat="40.9025517" lon="14.838415"><ele>330.0</ele><time>2026-04-19T06:47:30.153Z</time></trkpt><trkpt lat="40.9027067" lon="14.8382883"><ele>332.0</ele><time>2026-04-19T06:47:31.152Z</time></trkpt><trkpt lat="40.9028683" lon="14.8381733"><ele>332.0</ele><time>2026-04-19T06:47:32.152Z</time></trkpt><trkpt lat="40.90303" lon="14.8380533"><ele>332.0</ele><time>2026-04-19T06:47:33.153Z</time></trkpt><trkpt lat="40.90319" lon="14.8379433"><ele>332.0</ele><time>2026-04-19T06:47:34.153Z</time></trkpt><trkpt lat="40.903355" lon="14.837835"><ele>332.6666666666667</ele><time>2026-04-19T06:47:35.152Z</time></trkpt><trkpt lat="40.9035183" lon="14.837725"><ele>333.3333333333333</ele><time>2026-04-19T06:47:36.152Z</time></trkpt><trkpt lat="40.9036867" lon="14.8376233"><ele>334.0</ele><time>2026-04-19T06:47:37.153Z</time></trkpt><trkpt lat="40.9038583" lon="14.837525"><ele>329.66666666666663</ele><time>2026-04-19T06:47:38.152Z</time></trkpt><trkpt lat="40.9040167" lon="14.8374017"><ele>325.3333333333333</ele><time>2026-04-19T06:47:39.152Z</time></trkpt><trkpt lat="40.9041817" lon="14.8372783"><ele>321.0</ele><time>2026-04-19T06:47:40.153Z</time></trkpt><trkpt lat="40.9043483" lon="14.8371667"><ele>321.0</ele><time>2026-04-19T06:47:41.153Z</time></trkpt><trkpt lat="40.90452" lon="14.83705"><ele>321.0</ele><time>2026-04-19T06:47:42.153Z</time></trkpt><trkpt lat="40.9046933" lon="14.836935"><ele>321.0</ele><time>2026-04-19T06:47:43.152Z</time></trkpt><trkpt lat="40.904865" lon="14.8368117"><ele>319.0</ele><time>2026-04-19T06:47:44.153Z</time></trkpt><trkpt lat="40.9050417" lon="14.8366883"><ele>317.0</ele><time>2026-04-19T06:47:45.152Z</time></trkpt><trkpt lat="40.9052117" lon="14.8365567"><ele>315.0</ele><time>2026-04-19T06:47:46.153Z</time></trkpt><trkpt lat="40.9053817" lon="14.8364167"><ele>315.0</ele><time>2026-04-19T06:47:47.153Z</time></trkpt><trkpt lat="40.9055483" lon="14.83627"><ele>315.0</ele><time>2026-04-19T06:47:48.153Z</time></trkpt><trkpt lat="40.9057183" lon="14.8361217"><ele>315.0</ele><time>2026-04-19T06:47:49.153Z</time></trkpt><trkpt lat="40.9058867" lon="14.835975"><ele>315.0</ele><time>2026-04-19T06:47:50.152Z</time></trkpt><trkpt lat="40.9060533" lon="14.8358183"><ele>315.0</ele><time>2026-04-19T06:47:51.152Z</time></trkpt><trkpt lat="40.90622" lon="14.8356533"><ele>315.0</ele><time>2026-04-19T06:47:52.153Z</time></trkpt><trkpt lat="40.9063817" lon="14.8354917"><ele>315.0</ele><time>2026-04-19T06:47:53.152Z</time></trkpt><trkpt lat="40.9065367" lon="14.83532"><ele>315.0</ele><time>2026-04-19T06:47:54.152Z</time></trkpt><trkpt lat="40.9066917" lon="14.8351467"><ele>315.0</ele><time>2026-04-19T06:47:55.153Z</time></trkpt><trkpt lat="40.9068483" lon="14.83497"><ele>317.0</ele><time>2026-04-19T06:47:56.152Z</time></trkpt><trkpt lat="40.907" lon="14.8347917"><ele>319.0</ele><time>2026-04-19T06:47:57.153Z</time></trkpt><trkpt lat="40.907155" lon="14.83462"><ele>321.0</ele><time>2026-04-19T06:47:58.152Z</time></trkpt><trkpt lat="40.9073017" lon="14.8344417"><ele>319.3333333333333</ele><time>2026-04-19T06:47:59.153Z</time></trkpt><trkpt lat="40.9074567" lon="14.8342767"><ele>317.66666666666663</ele><time>2026-04-19T06:48:00.152Z</time></trkpt><trkpt lat="40.9076067" lon="14.834105"><ele>316.0</ele><time>2026-04-19T06:48:01.153Z</time></trkpt><trkpt lat="40.9077533" lon="14.8339317"><ele>316.0</ele><time>2026-04-19T06:48:02.152Z</time></trkpt><trkpt lat="40.907905" lon="14.8337583"><ele>316.0</ele><time>2026-04-19T06:48:03.153Z</time></trkpt><trkpt lat="40.9080583" lon="14.83359"><ele>316.0</ele><time>2026-04-19T06:48:04.153Z</time></trkpt><trkpt lat="40.9082067" lon="14.83342"><ele>316.3333333333333</ele><time>2026-04-19T06:48:05.153Z</time></trkpt><trkpt lat="40.9083517" lon="14.8332383"><ele>316.6666666666667</ele><time>2026-04-19T06:48:06.153Z</time></trkpt><trkpt lat="40.9084983" lon="14.8330617"><ele>317.0</ele><time>2026-04-19T06:48:07.152Z</time></trkpt><trkpt lat="40.9086383" lon="14.8328833"><ele>317.0</ele><time>2026-04-19T06:48:08.153Z</time></trkpt><trkpt lat="40.9087717" lon="14.8326883"><ele>317.0</ele><time>2026-04-19T06:48:09.152Z</time></trkpt><trkpt lat="40.9089083" lon="14.8324917"><ele>317.0</ele><time>2026-04-19T06:48:10.152Z</time></trkpt><trkpt lat="40.9090317" lon="14.8322917"><ele>316.6666666666667</ele><time>2026-04-19T06:48:11.153Z</time></trkpt><trkpt lat="40.909155" lon="14.8320817"><ele>316.3333333333333</ele><time>2026-04-19T06:48:12.153Z</time></trkpt><trkpt lat="40.9092633" lon="14.8318683"><ele>316.0</ele><time>2026-04-19T06:48:13.152Z</time></trkpt><trkpt lat="40.9093683" lon="14.8316483"><ele>313.3333333333333</ele><time>2026-04-19T06:48:14.152Z</time></trkpt><trkpt lat="40.9094717" lon="14.83142"><ele>310.6666666666667</ele><time>2026-04-19T06:48:15.152Z</time></trkpt><trkpt lat="40.9095683" lon="14.83119"><ele>308.0</ele><time>2026-04-19T06:48:16.152Z</time></trkpt><trkpt lat="40.9096567" lon="14.8309517"><ele>306.6666666666667</ele><time>2026-04-19T06:48:17.153Z</time></trkpt><trkpt lat="40.909735" lon="14.8307167"><ele>305.3333333333333</ele><time>2026-04-19T06:48:18.152Z</time></trkpt><trkpt lat="40.9098083" lon="14.8304783"><ele>304.0</ele><time>2026-04-19T06:48:19.153Z</time></trkpt><trkpt lat="40.9098767" lon="14.8302417"><ele>304.3333333333333</ele><time>2026-04-19T06:48:20.153Z</time></trkpt><trkpt lat="40.9099433" lon="14.8300017"><ele>304.6666666666667</ele><time>2026-04-19T06:48:21.153Z</time></trkpt><trkpt lat="40.9100067" lon="14.8297667"><ele>305.0</ele><time>2026-04-19T06:48:22.153Z</time></trkpt><trkpt lat="40.91007" lon="14.82953"><ele>304.0</ele><time>2026-04-19T06:48:23.153Z</time></trkpt><trkpt lat="40.910135" lon="14.8293"><ele>303.0</ele><time>2026-04-19T06:48:24.153Z</time></trkpt><trkpt lat="40.9102" lon="14.8290667"><ele>302.0</ele><time>2026-04-19T06:48:25.152Z</time></trkpt><trkpt lat="40.9102617" lon="14.82883"><ele>302.0</ele><time>2026-04-19T06:48:26.152Z</time></trkpt><trkpt lat="40.910325" lon="14.8285933"><ele>302.0</ele><time>2026-04-19T06:48:27.153Z</time></trkpt><trkpt lat="40.9103917" lon="14.8283583"><ele>302.0</ele><time>2026-04-19T06:48:28.153Z</time></trkpt><trkpt lat="40.9104683" lon="14.8281317"><ele>303.0</ele><time>2026-04-19T06:48:29.153Z</time></trkpt><trkpt lat="40.910555" lon="14.8279133"><ele>304.0</ele><time>2026-04-19T06:48:30.153Z</time></trkpt><trkpt lat="40.910655" lon="14.8277"><ele>305.0</ele><time>2026-04-19T06:48:31.153Z</time></trkpt><trkpt lat="40.9107633" lon="14.8275"><ele>305.33333333333337</ele><time>2026-04-19T06:48:32.153Z</time></trkpt><trkpt lat="40.910875" lon="14.8273"><ele>305.6666666666667</ele><time>2026-04-19T06:48:33.152Z</time></trkpt><trkpt lat="40.910995" lon="14.827095"><ele>306.0</ele><time>2026-04-19T06:48:34.153Z</time></trkpt><trkpt lat="40.9111183" lon="14.8268967"><ele>309.3333333333333</ele><time>2026-04-19T06:48:35.153Z</time></trkpt><trkpt lat="40.9112433" lon="14.8267017"><ele>312.66666666666663</ele><time>2026-04-19T06:48:36.153Z</time></trkpt><trkpt lat="40.91137" lon="14.8265067"><ele>316.0</ele><time>2026-04-19T06:48:37.153Z</time></trkpt><trkpt lat="40.9114867" lon="14.826315"><ele>316.0</ele><time>2026-04-19T06:48:38.153Z</time></trkpt><trkpt lat="40.9116033" lon="14.8261183"><ele>316.0</ele><time>2026-04-19T06:48:39.153Z</time></trkpt><trkpt lat="40.91172" lon="14.8259267"><ele>316.0</ele><time>2026-04-19T06:48:40.153Z</time></trkpt><trkpt lat="40.9118383" lon="14.8257417"><ele>316.3333333333333</ele><time>2026-04-19T06:48:41.153Z</time></trkpt><trkpt lat="40.9119467" lon="14.8255583"><ele>316.6666666666667</ele><time>2026-04-19T06:48:42.153Z</time></trkpt><trkpt lat="40.9120567" lon="14.8253767"><ele>317.0</ele><time>2026-04-19T06:48:43.153Z</time></trkpt><trkpt lat="40.91216" lon="14.8251917"><ele>318.0</ele><time>2026-04-19T06:48:44.153Z</time></trkpt><trkpt lat="40.912265" lon="14.8250183"><ele>319.0</ele><time>2026-04-19T06:48:45.152Z</time></trkpt><trkpt lat="40.9123617" lon="14.8248467"><ele>320.0</ele><time>2026-04-19T06:48:46.153Z</time></trkpt><trkpt lat="40.91245" lon="14.82468"><ele>320.0</ele><time>2026-04-19T06:48:47.153Z</time></trkpt><trkpt lat="40.9125467" lon="14.8245283"><ele>320.0</ele><time>2026-04-19T06:48:48.153Z</time></trkpt><trkpt lat="40.9126367" lon="14.824385"><ele>320.0</ele><time>2026-04-19T06:48:49.153Z</time></trkpt><trkpt lat="40.9127233" lon="14.8242483"><ele>320.0</ele><time>2026-04-19T06:48:50.153Z</time></trkpt><trkpt lat="40.9128067" lon="14.8241083"><ele>320.25</ele><time>2026-04-19T06:48:51.153Z</time></trkpt><trkpt lat="40.9128867" lon="14.8239767"><ele>320.5</ele><time>2026-04-19T06:48:52.152Z</time></trkpt><trkpt lat="40.912965" lon="14.8238417"><ele>320.75</ele><time>2026-04-19T06:48:53.153Z</time></trkpt><trkpt lat="40.9130567" lon="14.823705"><ele>321.0</ele><time>2026-04-19T06:48:54.153Z</time></trkpt><trkpt lat="40.9131433" lon="14.823585"><ele>321.0</ele><time>2026-04-19T06:48:55.153Z</time></trkpt><trkpt lat="40.913215" lon="14.8234667"><ele>321.0</ele><time>2026-04-19T06:48:56.153Z</time></trkpt><trkpt lat="40.9132867" lon="14.8233583"><ele>321.0</ele><time>2026-04-19T06:48:57.152Z</time></trkpt><trkpt lat="40.913355" lon="14.8232567"><ele>321.0</ele><time>2026-04-19T06:48:58.153Z</time></trkpt><trkpt lat="40.91342" lon="14.82316"><ele>321.0</ele><time>2026-04-19T06:48:59.152Z</time></trkpt><trkpt lat="40.9134883" lon="14.823085"><ele>320.8333333333333</ele><time>2026-04-19T06:49:00.153Z</time></trkpt><trkpt lat="40.913555" lon="14.82304"><ele>320.6666666666667</ele><time>2026-04-19T06:49:01.153Z</time></trkpt><trkpt lat="40.9136183" lon="14.8230117"><ele>320.5</ele><time>2026-04-19T06:49:02.153Z</time></trkpt><trkpt lat="40.9137483" lon="14.8230333"><ele>320.33333333333337</ele><time>2026-04-19T06:49:04.153Z</time></trkpt><trkpt lat="40.9138233" lon="14.823075"><ele>320.1666666666667</ele><time>2026-04-19T06:49:05.153Z</time></trkpt><trkpt lat="40.9138967" lon="14.82314"><ele>320.0</ele><time>2026-04-19T06:49:06.153Z</time></trkpt><trkpt lat="40.9139817" lon="14.8232267"><ele>320.0</ele><time>2026-04-19T06:49:07.152Z</time></trkpt><trkpt lat="40.9140767" lon="14.8233417"><ele>320.0</ele><time>2026-04-19T06:49:08.153Z</time></trkpt><trkpt lat="40.914175" lon="14.8234683"><ele>320.0</ele><time>2026-04-19T06:49:09.153Z</time></trkpt><trkpt lat="40.9142717" lon="14.8235867"><ele>320.0</ele><time>2026-04-19T06:49:10.153Z</time></trkpt><trkpt lat="40.9143783" lon="14.8237117"><ele>319.0</ele><time>2026-04-19T06:49:11.153Z</time></trkpt><trkpt lat="40.9144933" lon="14.8238417"><ele>318.0</ele><time>2026-04-19T06:49:12.153Z</time></trkpt><trkpt lat="40.91461" lon="14.8239733"><ele>317.0</ele><time>2026-04-19T06:49:13.153Z</time></trkpt><trkpt lat="40.91473" lon="14.8241017"><ele>317.0</ele><time>2026-04-19T06:49:14.153Z</time></trkpt><trkpt lat="40.9148567" lon="14.8242333"><ele>317.0</ele><time>2026-04-19T06:49:15.152Z</time></trkpt><trkpt lat="40.9149783" lon="14.8243717"><ele>317.0</ele><time>2026-04-19T06:49:16.153Z</time></trkpt><trkpt lat="40.915105" lon="14.8245"><ele>315.6666666666667</ele><time>2026-04-19T06:49:17.153Z</time></trkpt><trkpt lat="40.9152317" lon="14.8246183"><ele>314.3333333333333</ele><time>2026-04-19T06:49:18.153Z</time></trkpt><trkpt lat="40.91536" lon="14.824735"><ele>313.0</ele><time>2026-04-19T06:49:19.153Z</time></trkpt><trkpt lat="40.9154833" lon="14.8248467"><ele>313.0</ele><time>2026-04-19T06:49:20.153Z</time></trkpt><trkpt lat="40.9156167" lon="14.824955"><ele>313.0</ele><time>2026-04-19T06:49:21.153Z</time></trkpt><trkpt lat="40.9157583" lon="14.825065"><ele>313.0</ele><time>2026-04-19T06:49:22.153Z</time></trkpt><trkpt lat="40.9159017" lon="14.8251567"><ele>310.66666666666663</ele><time>2026-04-19T06:49:23.152Z</time></trkpt><trkpt lat="40.9160467" lon="14.8252517"><ele>308.3333333333333</ele><time>2026-04-19T06:49:24.153Z</time></trkpt><trkpt lat="40.916195" lon="14.8253417"><ele>306.0</ele><time>2026-04-19T06:49:25.152Z</time></trkpt><trkpt lat="40.91635" lon="14.8254333"><ele>306.0</ele><time>2026-04-19T06:49:26.153Z</time></trkpt><trkpt lat="40.9165067" lon="14.825515"><ele>306.0</ele><time>2026-04-19T06:49:27.153Z</time></trkpt><trkpt lat="40.9166717" lon="14.825585"><ele>306.0</ele><time>2026-04-19T06:49:28.153Z</time></trkpt><trkpt lat="40.9168317" lon="14.8256583"><ele>305.3333333333333</ele><time>2026-04-19T06:49:29.153Z</time></trkpt><trkpt lat="40.91699" lon="14.825725"><ele>304.66666666666663</ele><time>2026-04-19T06:49:30.153Z</time></trkpt><trkpt lat="40.91715" lon="14.8257767"><ele>304.0</ele><time>2026-04-19T06:49:31.153Z</time></trkpt><trkpt lat="40.91731" lon="14.8258367"><ele>304.0</ele><time>2026-04-19T06:49:32.153Z</time></trkpt><trkpt lat="40.9174767" lon="14.8258917"><ele>304.0</ele><time>2026-04-19T06:49:33.152Z</time></trkpt><trkpt lat="40.91764" lon="14.8259533"><ele>304.0</ele><time>2026-04-19T06:49:34.153Z</time></trkpt><trkpt lat="40.9178117" lon="14.8260183"><ele>304.0</ele><time>2026-04-19T06:49:35.152Z</time></trkpt><trkpt lat="40.9179817" lon="14.8260867"><ele>304.0</ele><time>2026-04-19T06:49:36.153Z</time></trkpt><trkpt lat="40.9181517" lon="14.8261483"><ele>304.0</ele><time>2026-04-19T06:49:37.153Z</time></trkpt><trkpt lat="40.9183183" lon="14.8262117"><ele>303.66666666666663</ele><time>2026-04-19T06:49:38.152Z</time></trkpt><trkpt lat="40.9184933" lon="14.8262683"><ele>303.3333333333333</ele><time>2026-04-19T06:49:39.153Z</time></trkpt><trkpt lat="40.9186667" lon="14.826315"><ele>303.0</ele><time>2026-04-19T06:49:40.153Z</time></trkpt><trkpt lat="40.9188417" lon="14.8263567"><ele>303.0</ele><time>2026-04-19T06:49:41.152Z</time></trkpt><trkpt lat="40.9190083" lon="14.8264017"><ele>303.0</ele><time>2026-04-19T06:49:42.153Z</time></trkpt><trkpt lat="40.91918" lon="14.8264317"><ele>303.0</ele><time>2026-04-19T06:49:43.153Z</time></trkpt><trkpt lat="40.919355" lon="14.8264483"><ele>303.6666666666667</ele><time>2026-04-19T06:49:44.153Z</time></trkpt><trkpt lat="40.919525" lon="14.8264617"><ele>304.33333333333337</ele><time>2026-04-19T06:49:45.153Z</time></trkpt><trkpt lat="40.9197017" lon="14.8264683"><ele>305.0</ele><time>2026-04-19T06:49:46.153Z</time></trkpt><trkpt lat="40.9198783" lon="14.8264617"><ele>305.0</ele><time>2026-04-19T06:49:47.152Z</time></trkpt><trkpt lat="40.92006" lon="14.8264567"><ele>305.0</ele><time>2026-04-19T06:49:48.153Z</time></trkpt><trkpt lat="40.92024" lon="14.82644"><ele>305.0</ele><time>2026-04-19T06:49:49.153Z</time></trkpt><trkpt lat="40.92041" lon="14.8264167"><ele>306.33333333333337</ele><time>2026-04-19T06:49:50.153Z</time></trkpt><trkpt lat="40.9205867" lon="14.82639"><ele>307.6666666666667</ele><time>2026-04-19T06:49:51.153Z</time></trkpt><trkpt lat="40.9207533" lon="14.82636"><ele>309.0</ele><time>2026-04-19T06:49:52.153Z</time></trkpt><trkpt lat="40.9209217" lon="14.8263083"><ele>309.6666666666667</ele><time>2026-04-19T06:49:53.153Z</time></trkpt><trkpt lat="40.9210933" lon="14.8262517"><ele>310.33333333333337</ele><time>2026-04-19T06:49:54.153Z</time></trkpt><trkpt lat="40.9212617" lon="14.8262117"><ele>311.0</ele><time>2026-04-19T06:49:55.153Z</time></trkpt><trkpt lat="40.9214333" lon="14.8261667"><ele>311.0</ele><time>2026-04-19T06:49:56.153Z</time></trkpt><trkpt lat="40.9216083" lon="14.8261233"><ele>311.0</ele><time>2026-04-19T06:49:57.152Z</time></trkpt><trkpt lat="40.9217817" lon="14.8260917"><ele>311.0</ele><time>2026-04-19T06:49:58.153Z</time></trkpt><trkpt lat="40.9219517" lon="14.8260633"><ele>311.0</ele><time>2026-04-19T06:49:59.153Z</time></trkpt><trkpt lat="40.9221317" lon="14.8260467"><ele>311.0</ele><time>2026-04-19T06:50:00.152Z</time></trkpt><trkpt lat="40.9223133" lon="14.8260383"><ele>311.0</ele><time>2026-04-19T06:50:01.153Z</time></trkpt><trkpt lat="40.9224917" lon="14.8260417"><ele>311.0</ele><time>2026-04-19T06:50:02.153Z</time></trkpt><trkpt lat="40.92267" lon="14.8260617"><ele>311.0</ele><time>2026-04-19T06:50:03.153Z</time></trkpt><trkpt lat="40.9228417" lon="14.8260917"><ele>311.0</ele><time>2026-04-19T06:50:04.153Z</time></trkpt><trkpt lat="40.9230083" lon="14.8261283"><ele>311.0</ele><time>2026-04-19T06:50:05.153Z</time></trkpt><trkpt lat="40.9231717" lon="14.8261667"><ele>311.0</ele><time>2026-04-19T06:50:06.153Z</time></trkpt><trkpt lat="40.923335" lon="14.8262283"><ele>311.0</ele><time>2026-04-19T06:50:07.153Z</time></trkpt><trkpt lat="40.9234933" lon="14.82629"><ele>309.6666666666667</ele><time>2026-04-19T06:50:08.153Z</time></trkpt><trkpt lat="40.923655" lon="14.826365"><ele>308.3333333333333</ele><time>2026-04-19T06:50:09.153Z</time></trkpt><trkpt lat="40.9238117" lon="14.8264567"><ele>307.0</ele><time>2026-04-19T06:50:10.153Z</time></trkpt><trkpt lat="40.923965" lon="14.8265733"><ele>307.0</ele><time>2026-04-19T06:50:11.153Z</time></trkpt><trkpt lat="40.924115" lon="14.8266933"><ele>307.0</ele><time>2026-04-19T06:50:12.153Z</time></trkpt><trkpt lat="40.9242683" lon="14.8268267"><ele>307.0</ele><time>2026-04-19T06:50:13.153Z</time></trkpt><trkpt lat="40.9244183" lon="14.8269683"><ele>307.0</ele><time>2026-04-19T06:50:14.152Z</time></trkpt><trkpt lat="40.9245583" lon="14.8271117"><ele>307.0</ele><time>2026-04-19T06:50:15.153Z</time></trkpt><trkpt lat="40.9246883" lon="14.82726"><ele>307.0</ele><time>2026-04-19T06:50:16.153Z</time></trkpt><trkpt lat="40.92482" lon="14.8274083"><ele>307.0</ele><time>2026-04-19T06:50:17.153Z</time></trkpt><trkpt lat="40.92495" lon="14.82756"><ele>307.0</ele><time>2026-04-19T06:50:18.153Z</time></trkpt><trkpt lat="40.9250833" lon="14.827715"><ele>307.0</ele><time>2026-04-19T06:50:19.153Z</time></trkpt><trkpt lat="40.9252217" lon="14.8278533"><ele>303.66666666666663</ele><time>2026-04-19T06:50:20.152Z</time></trkpt><trkpt lat="40.92535" lon="14.828"><ele>300.3333333333333</ele><time>2026-04-19T06:50:21.152Z</time></trkpt><trkpt lat="40.9254867" lon="14.828145"><ele>297.0</ele><time>2026-04-19T06:50:22.152Z</time></trkpt><trkpt lat="40.9256267" lon="14.828285"><ele>297.0</ele><time>2026-04-19T06:50:23.153Z</time></trkpt><trkpt lat="40.925775" lon="14.82842"><ele>297.0</ele><time>2026-04-19T06:50:24.153Z</time></trkpt><trkpt lat="40.9259317" lon="14.82855"><ele>297.0</ele><time>2026-04-19T06:50:25.153Z</time></trkpt><trkpt lat="40.9260783" lon="14.8286883"><ele>295.6666666666667</ele><time>2026-04-19T06:50:26.153Z</time></trkpt><trkpt lat="40.9262233" lon="14.82881"><ele>294.33333333333337</ele><time>2026-04-19T06:50:27.153Z</time></trkpt><trkpt lat="40.9263617" lon="14.8289233"><ele>293.0</ele><time>2026-04-19T06:50:28.153Z</time></trkpt><trkpt lat="40.92649" lon="14.829025"><ele>293.0</ele><time>2026-04-19T06:50:29.153Z</time></trkpt><trkpt lat="40.9266183" lon="14.8291183"><ele>293.0</ele><time>2026-04-19T06:50:30.152Z</time></trkpt><trkpt lat="40.9267483" lon="14.8292217"><ele>293.0</ele><time>2026-04-19T06:50:31.153Z</time></trkpt><trkpt lat="40.9268817" lon="14.8293183"><ele>291.33333333333337</ele><time>2026-04-19T06:50:32.153Z</time></trkpt><trkpt lat="40.927025" lon="14.829415"><ele>289.6666666666667</ele><time>2026-04-19T06:50:33.153Z</time></trkpt><trkpt lat="40.927175" lon="14.8295133"><ele>288.0</ele><time>2026-04-19T06:50:34.152Z</time></trkpt><trkpt lat="40.9273333" lon="14.8296067"><ele>288.0</ele><time>2026-04-19T06:50:35.152Z</time></trkpt><trkpt lat="40.92749" lon="14.8297"><ele>288.0</ele><time>2026-04-19T06:50:36.153Z</time></trkpt><trkpt lat="40.9276517" lon="14.8297933"><ele>288.0</ele><time>2026-04-19T06:50:37.152Z</time></trkpt><trkpt lat="40.9278117" lon="14.8298717"><ele>287.6666666666667</ele><time>2026-04-19T06:50:38.152Z</time></trkpt><trkpt lat="40.9279717" lon="14.8299483"><ele>287.33333333333337</ele><time>2026-04-19T06:50:39.153Z</time></trkpt><trkpt lat="40.928125" lon="14.8300183"><ele>287.0</ele><time>2026-04-19T06:50:40.153Z</time></trkpt><trkpt lat="40.9282717" lon="14.830085"><ele>287.0</ele><time>2026-04-19T06:50:41.152Z</time></trkpt><trkpt lat="40.928425" lon="14.8301483"><ele>287.0</ele><time>2026-04-19T06:50:42.153Z</time></trkpt><trkpt lat="40.92858" lon="14.8302067"><ele>287.0</ele><time>2026-04-19T06:50:43.153Z</time></trkpt><trkpt lat="40.9287367" lon="14.8302583"><ele>287.0</ele><time>2026-04-19T06:50:44.153Z</time></trkpt><trkpt lat="40.9288817" lon="14.830305"><ele>287.0</ele><time>2026-04-19T06:50:45.153Z</time></trkpt><trkpt lat="40.929025" lon="14.8303433"><ele>287.0</ele><time>2026-04-19T06:50:46.153Z</time></trkpt><trkpt lat="40.9291633" lon="14.83038"><ele>287.0</ele><time>2026-04-19T06:50:47.153Z</time></trkpt><trkpt lat="40.9293067" lon="14.8304283"><ele>287.0</ele><time>2026-04-19T06:50:48.152Z</time></trkpt><trkpt lat="40.9294467" lon="14.8304717"><ele>287.0</ele><time>2026-04-19T06:50:49.152Z</time></trkpt><trkpt lat="40.9295883" lon="14.8305117"><ele>287.0</ele><time>2026-04-19T06:50:50.153Z</time></trkpt><trkpt lat="40.9297333" lon="14.8305433"><ele>287.0</ele><time>2026-04-19T06:50:51.153Z</time></trkpt><trkpt lat="40.9298833" lon="14.830575"><ele>287.0</ele><time>2026-04-19T06:50:52.152Z</time></trkpt><trkpt lat="40.930035" lon="14.8306067"><ele>287.0</ele><time>2026-04-19T06:50:53.153Z</time></trkpt><trkpt lat="40.9301933" lon="14.830625"><ele>287.0</ele><time>2026-04-19T06:50:54.153Z</time></trkpt><trkpt lat="40.9303517" lon="14.8306483"><ele>287.33333333333337</ele><time>2026-04-19T06:50:55.153Z</time></trkpt><trkpt lat="40.9305067" lon="14.8306783"><ele>287.6666666666667</ele><time>2026-04-19T06:50:56.152Z</time></trkpt><trkpt lat="40.9306617" lon="14.83071"><ele>288.0</ele><time>2026-04-19T06:50:57.152Z</time></trkpt><trkpt lat="40.9308117" lon="14.83074"><ele>288.6666666666667</ele><time>2026-04-19T06:50:58.153Z</time></trkpt><trkpt lat="40.930965" lon="14.8307683"><ele>289.33333333333337</ele><time>2026-04-19T06:50:59.152Z</time></trkpt><trkpt lat="40.9311183" lon="14.8307933"><ele>290.0</ele><time>2026-04-19T06:51:00.153Z</time></trkpt><trkpt lat="40.9312783" lon="14.8308167"><ele>290.0</ele><time>2026-04-19T06:51:01.153Z</time></trkpt><trkpt lat="40.9314333" lon="14.83084"><ele>290.0</ele><time>2026-04-19T06:51:02.152Z</time></trkpt><trkpt lat="40.9315917" lon="14.830865"><ele>290.0</ele><time>2026-04-19T06:51:03.153Z</time></trkpt><trkpt lat="40.93175" lon="14.83089"><ele>290.6666666666667</ele><time>2026-04-19T06:51:04.153Z</time></trkpt><trkpt lat="40.931905" lon="14.830925"><ele>291.3333333333333</ele><time>2026-04-19T06:51:05.153Z</time></trkpt><trkpt lat="40.9320617" lon="14.8309567"><ele>292.0</ele><time>2026-04-19T06:51:06.153Z</time></trkpt><trkpt lat="40.932225" lon="14.8309817"><ele>294.0</ele><time>2026-04-19T06:51:07.153Z</time></trkpt><trkpt lat="40.9323883" lon="14.8310083"><ele>296.0</ele><time>2026-04-19T06:51:08.153Z</time></trkpt><trkpt lat="40.93255" lon="14.8310317"><ele>298.0</ele><time>2026-04-19T06:51:09.153Z</time></trkpt><trkpt lat="40.932705" lon="14.831055"><ele>298.0</ele><time>2026-04-19T06:51:10.152Z</time></trkpt><trkpt lat="40.9328583" lon="14.8310867"><ele>298.0</ele><time>2026-04-19T06:51:11.153Z</time></trkpt><trkpt lat="40.9330117" lon="14.8311167"><ele>298.0</ele><time>2026-04-19T06:51:12.152Z</time></trkpt><trkpt lat="40.9331617" lon="14.83114"><ele>298.0</ele><time>2026-04-19T06:51:13.153Z</time></trkpt><trkpt lat="40.9333167" lon="14.83117"><ele>298.0</ele><time>2026-04-19T06:51:14.153Z</time></trkpt><trkpt lat="40.9334767" lon="14.8311917"><ele>298.0</ele><time>2026-04-19T06:51:15.153Z</time></trkpt><trkpt lat="40.933635" lon="14.83122"><ele>297.0</ele><time>2026-04-19T06:51:16.153Z</time></trkpt><trkpt lat="40.9338017" lon="14.8312467"><ele>296.0</ele><time>2026-04-19T06:51:17.153Z</time></trkpt><trkpt lat="40.9339683" lon="14.8312817"><ele>295.0</ele><time>2026-04-19T06:51:18.152Z</time></trkpt><trkpt lat="40.9341333" lon="14.83131"><ele>295.66666666666663</ele><time>2026-04-19T06:51:19.153Z</time></trkpt><trkpt lat="40.9343" lon="14.83134"><ele>296.3333333333333</ele><time>2026-04-19T06:51:20.152Z</time></trkpt><trkpt lat="40.9344583" lon="14.8313683"><ele>297.0</ele><time>2026-04-19T06:51:21.152Z</time></trkpt><trkpt lat="40.93462" lon="14.8314033"><ele>297.0</ele><time>2026-04-19T06:51:22.153Z</time></trkpt><trkpt lat="40.9347783" lon="14.8314283"><ele>297.0</ele><time>2026-04-19T06:51:23.153Z</time></trkpt><trkpt lat="40.9349383" lon="14.8314567"><ele>297.0</ele><time>2026-04-19T06:51:24.152Z</time></trkpt><trkpt lat="40.9350967" lon="14.8314833"><ele>296.3333333333333</ele><time>2026-04-19T06:51:25.153Z</time></trkpt><trkpt lat="40.93525" lon="14.8315117"><ele>295.66666666666663</ele><time>2026-04-19T06:51:26.152Z</time></trkpt><trkpt lat="40.9354017" lon="14.83154"><ele>295.0</ele><time>2026-04-19T06:51:27.152Z</time></trkpt><trkpt lat="40.9355533" lon="14.8315667"><ele>295.0</ele><time>2026-04-19T06:51:28.153Z</time></trkpt><trkpt lat="40.9357117" lon="14.8315917"><ele>295.0</ele><time>2026-04-19T06:51:29.153Z</time></trkpt><trkpt lat="40.9358667" lon="14.8316133"><ele>295.0</ele><time>2026-04-19T06:51:30.153Z</time></trkpt><trkpt lat="40.9360333" lon="14.831635"><ele>294.3333333333333</ele><time>2026-04-19T06:51:31.152Z</time></trkpt><trkpt lat="40.9362" lon="14.8316667"><ele>293.6666666666667</ele><time>2026-04-19T06:51:32.153Z</time></trkpt><trkpt lat="40.9363667" lon="14.831695"><ele>293.0</ele><time>2026-04-19T06:51:33.152Z</time></trkpt><trkpt lat="40.9365333" lon="14.831725"><ele>293.0</ele><time>2026-04-19T06:51:34.152Z</time></trkpt><trkpt lat="40.9366967" lon="14.8317517"><ele>293.0</ele><time>2026-04-19T06:51:35.153Z</time></trkpt><trkpt lat="40.93687" lon="14.831785"><ele>293.0</ele><time>2026-04-19T06:51:36.153Z</time></trkpt><trkpt lat="40.937035" lon="14.831815"><ele>294.33333333333337</ele><time>2026-04-19T06:51:37.153Z</time></trkpt><trkpt lat="40.9372017" lon="14.831835"><ele>295.6666666666667</ele><time>2026-04-19T06:51:38.153Z</time></trkpt><trkpt lat="40.9373683" lon="14.8318633"><ele>297.0</ele><time>2026-04-19T06:51:39.153Z</time></trkpt><trkpt lat="40.937535" lon="14.8318933"><ele>296.6666666666667</ele><time>2026-04-19T06:51:40.153Z</time></trkpt><trkpt lat="40.9377" lon="14.8319183"><ele>296.33333333333337</ele><time>2026-04-19T06:51:41.153Z</time></trkpt><trkpt lat="40.93786" lon="14.8319433"><ele>296.0</ele><time>2026-04-19T06:51:42.153Z</time></trkpt><trkpt lat="40.9380233" lon="14.83197"><ele>296.0</ele><time>2026-04-19T06:51:43.152Z</time></trkpt><trkpt lat="40.9381883" lon="14.8319917"><ele>296.0</ele><time>2026-04-19T06:51:44.153Z</time></trkpt><trkpt lat="40.93835" lon="14.8320133"><ele>296.0</ele><time>2026-04-19T06:51:45.152Z</time></trkpt><trkpt lat="40.9385117" lon="14.8320467"><ele>297.0</ele><time>2026-04-19T06:51:46.152Z</time></trkpt><trkpt lat="40.9386783" lon="14.832075"><ele>298.0</ele><time>2026-04-19T06:51:47.153Z</time></trkpt><trkpt lat="40.9388433" lon="14.83211"><ele>299.0</ele><time>2026-04-19T06:51:48.152Z</time></trkpt><trkpt lat="40.939005" lon="14.8321383"><ele>299.0</ele><time>2026-04-19T06:51:49.153Z</time></trkpt><trkpt lat="40.93917" lon="14.8321567"><ele>299.0</ele><time>2026-04-19T06:51:50.153Z</time></trkpt><trkpt lat="40.9393333" lon="14.8321883"><ele>299.0</ele><time>2026-04-19T06:51:51.153Z</time></trkpt><trkpt lat="40.939505" lon="14.8322233"><ele>299.0</ele><time>2026-04-19T06:51:52.152Z</time></trkpt><trkpt lat="40.939675" lon="14.8322517"><ele>299.0</ele><time>2026-04-19T06:51:53.153Z</time></trkpt><trkpt lat="40.9398467" lon="14.8322833"><ele>299.0</ele><time>2026-04-19T06:51:54.153Z</time></trkpt><trkpt lat="40.9400117" lon="14.8323083"><ele>297.6666666666667</ele><time>2026-04-19T06:51:55.153Z</time></trkpt><trkpt lat="40.9401833" lon="14.832335"><ele>296.3333333333333</ele><time>2026-04-19T06:51:56.152Z</time></trkpt><trkpt lat="40.9403467" lon="14.8323667"><ele>295.0</ele><time>2026-04-19T06:51:57.152Z</time></trkpt><trkpt lat="40.9405133" lon="14.8323933"><ele>295.0</ele><time>2026-04-19T06:51:58.153Z</time></trkpt><trkpt lat="40.9406783" lon="14.83243"><ele>295.0</ele><time>2026-04-19T06:51:59.153Z</time></trkpt><trkpt lat="40.9408383" lon="14.832455"><ele>295.0</ele><time>2026-04-19T06:52:00.153Z</time></trkpt><trkpt lat="40.9409967" lon="14.8324817"><ele>294.66666666666663</ele><time>2026-04-19T06:52:01.152Z</time></trkpt><trkpt lat="40.9411583" lon="14.8325083"><ele>294.3333333333333</ele><time>2026-04-19T06:52:02.153Z</time></trkpt><trkpt lat="40.94132" lon="14.8325367"><ele>294.0</ele><time>2026-04-19T06:52:03.153Z</time></trkpt><trkpt lat="40.9414783" lon="14.8325567"><ele>294.0</ele><time>2026-04-19T06:52:04.153Z</time></trkpt><trkpt lat="40.9416367" lon="14.8325783"><ele>294.0</ele><time>2026-04-19T06:52:05.153Z</time></trkpt><trkpt lat="40.9417967" lon="14.8326067"><ele>294.0</ele><time>2026-04-19T06:52:06.153Z</time></trkpt><trkpt lat="40.9419533" lon="14.83263"><ele>296.3333333333333</ele><time>2026-04-19T06:52:07.153Z</time></trkpt><trkpt lat="40.9421117" lon="14.8326517"><ele>298.66666666666663</ele><time>2026-04-19T06:52:08.152Z</time></trkpt><trkpt lat="40.94227" lon="14.8326817"><ele>301.0</ele><time>2026-04-19T06:52:09.152Z</time></trkpt><trkpt lat="40.9424333" lon="14.8327133"><ele>298.0</ele><time>2026-04-19T06:52:10.153Z</time></trkpt><trkpt lat="40.9425933" lon="14.832745"><ele>295.0</ele><time>2026-04-19T06:52:11.152Z</time></trkpt><trkpt lat="40.9427583" lon="14.8327767"><ele>292.0</ele><time>2026-04-19T06:52:12.152Z</time></trkpt><trkpt lat="40.9429233" lon="14.8328067"><ele>292.0</ele><time>2026-04-19T06:52:13.153Z</time></trkpt><trkpt lat="40.9430867" lon="14.8328417"><ele>292.0</ele><time>2026-04-19T06:52:14.152Z</time></trkpt><trkpt lat="40.9432517" lon="14.8328733"><ele>292.0</ele><time>2026-04-19T06:52:15.153Z</time></trkpt><trkpt lat="40.9434183" lon="14.8328983"><ele>290.66666666666663</ele><time>2026-04-19T06:52:16.152Z</time></trkpt><trkpt lat="40.94358" lon="14.832925"><ele>289.3333333333333</ele><time>2026-04-19T06:52:17.153Z</time></trkpt><trkpt lat="40.9437383" lon="14.832955"><ele>288.0</ele><time>2026-04-19T06:52:18.153Z</time></trkpt><trkpt lat="40.9439017" lon="14.832975"><ele>288.0</ele><time>2026-04-19T06:52:19.152Z</time></trkpt><trkpt lat="40.9440633" lon="14.833"><ele>288.0</ele><time>2026-04-19T06:52:20.153Z</time></trkpt><trkpt lat="40.94423" lon="14.83303"><ele>288.0</ele><time>2026-04-19T06:52:21.153Z</time></trkpt><trkpt lat="40.944385" lon="14.833055"><ele>287.0</ele><time>2026-04-19T06:52:22.153Z</time></trkpt><trkpt lat="40.944535" lon="14.833085"><ele>286.0</ele><time>2026-04-19T06:52:23.153Z</time></trkpt><trkpt lat="40.944685" lon="14.8331183"><ele>285.0</ele><time>2026-04-19T06:52:24.152Z</time></trkpt><trkpt lat="40.9448367" lon="14.833155"><ele>285.0</ele><time>2026-04-19T06:52:25.153Z</time></trkpt><trkpt lat="40.94499" lon="14.8331933"><ele>285.0</ele><time>2026-04-19T06:52:26.153Z</time></trkpt><trkpt lat="40.9451417" lon="14.8332333"><ele>285.0</ele><time>2026-04-19T06:52:27.153Z</time></trkpt><trkpt lat="40.9452933" lon="14.83328"><ele>284.0</ele><time>2026-04-19T06:52:28.153Z</time></trkpt><trkpt lat="40.9454367" lon="14.8333317"><ele>283.0</ele><time>2026-04-19T06:52:29.153Z</time></trkpt><trkpt lat="40.9455817" lon="14.8333883"><ele>282.0</ele><time>2026-04-19T06:52:30.153Z</time></trkpt><trkpt lat="40.9457267" lon="14.8334417"><ele>282.25</ele><time>2026-04-19T06:52:31.153Z</time></trkpt><trkpt lat="40.9458567" lon="14.833495"><ele>282.5</ele><time>2026-04-19T06:52:32.153Z</time></trkpt><trkpt lat="40.945985" lon="14.833545"><ele>282.75</ele><time>2026-04-19T06:52:33.152Z</time></trkpt><trkpt lat="40.946115" lon="14.833585"><ele>283.0</ele><time>2026-04-19T06:52:34.153Z</time></trkpt><trkpt lat="40.9462433" lon="14.8336367"><ele>283.0</ele><time>2026-04-19T06:52:35.153Z</time></trkpt><trkpt lat="40.9463683" lon="14.8336833"><ele>283.0</ele><time>2026-04-19T06:52:36.153Z</time></trkpt><trkpt lat="40.9464867" lon="14.83374"><ele>283.0</ele><time>2026-04-19T06:52:37.153Z</time></trkpt><trkpt lat="40.9465933" lon="14.8338017"><ele>283.0</ele><time>2026-04-19T06:52:38.153Z</time></trkpt><trkpt lat="40.9466917" lon="14.833865"><ele>282.4</ele><time>2026-04-19T06:52:39.152Z</time></trkpt><trkpt lat="40.9467867" lon="14.8339267"><ele>281.8</ele><time>2026-04-19T06:52:40.153Z</time></trkpt><trkpt lat="40.9468767" lon="14.8340083"><ele>281.2</ele><time>2026-04-19T06:52:41.153Z</time></trkpt><trkpt lat="40.9469583" lon="14.8341"><ele>280.6</ele><time>2026-04-19T06:52:42.152Z</time></trkpt><trkpt lat="40.9470367" lon="14.8342033"><ele>280.0</ele><time>2026-04-19T06:52:43.153Z</time></trkpt><trkpt lat="40.9471083" lon="14.8343233"><ele>281.75</ele><time>2026-04-19T06:52:44.152Z</time></trkpt><trkpt lat="40.94718" lon="14.8344367"><ele>283.5</ele><time>2026-04-19T06:52:45.152Z</time></trkpt><trkpt lat="40.9472533" lon="14.8345667"><ele>285.25</ele><time>2026-04-19T06:52:46.152Z</time></trkpt><trkpt lat="40.94733" lon="14.8346933"><ele>287.0</ele><time>2026-04-19T06:52:47.153Z</time></trkpt><trkpt lat="40.9474067" lon="14.8348267"><ele>287.0</ele><time>2026-04-19T06:52:48.153Z</time></trkpt><trkpt lat="40.9474883" lon="14.8349583"><ele>287.0</ele><time>2026-04-19T06:52:49.152Z</time></trkpt><trkpt lat="40.94757" lon="14.83508"><ele>287.0</ele><time>2026-04-19T06:52:50.152Z</time></trkpt><trkpt lat="40.9476433" lon="14.8351917"><ele>287.0</ele><time>2026-04-19T06:52:51.153Z</time></trkpt><trkpt lat="40.9477083" lon="14.8353"><ele>286.83333333333337</ele><time>2026-04-19T06:52:52.153Z</time></trkpt><trkpt lat="40.9477683" lon="14.8353933"><ele>286.6666666666667</ele><time>2026-04-19T06:52:53.153Z</time></trkpt><trkpt lat="40.94782" lon="14.8354833"><ele>286.5</ele><time>2026-04-19T06:52:54.152Z</time></trkpt><trkpt lat="40.94787" lon="14.8355633"><ele>286.3333333333333</ele><time>2026-04-19T06:52:55.153Z</time></trkpt><trkpt lat="40.9479067" lon="14.8356333"><ele>286.16666666666663</ele><time>2026-04-19T06:52:56.153Z</time></trkpt><trkpt lat="40.9479417" lon="14.8357433"><ele>286.0</ele><time>2026-04-19T06:52:58.153Z</time></trkpt><trkpt lat="40.948025" lon="14.8358167"><ele>286.0</ele><time>2026-04-19T07:05:30.155Z</time></trkpt><trkpt lat="40.9480867" lon="14.83585"><ele>286.0</ele><time>2026-04-19T07:05:35.155Z</time></trkpt><trkpt lat="40.9481667" lon="14.8359033"><ele>286.0</ele><time>2026-04-19T07:05:42.155Z</time></trkpt><trkpt lat="40.9482217" lon="14.83598"><ele>286.0</ele><time>2026-04-19T07:05:45.155Z</time></trkpt><trkpt lat="40.94828" lon="14.8360733"><ele>286.0</ele><time>2026-04-19T07:05:54.155Z</time></trkpt><trkpt lat="40.9483233" lon="14.8361567"><ele>286.0</ele><time>2026-04-19T07:05:56.155Z</time></trkpt><trkpt lat="40.9484083" lon="14.8362667"><ele>286.3333333333333</ele><time>2026-04-19T07:05:58.155Z</time></trkpt><trkpt lat="40.94845" lon="14.8363417"><ele>286.66666666666663</ele><time>2026-04-19T07:05:59.155Z</time></trkpt><trkpt lat="40.9484917" lon="14.83642"><ele>287.0</ele><time>2026-04-19T07:06:00.155Z</time></trkpt><trkpt lat="40.9485283" lon="14.8365117"><ele>287.3333333333333</ele><time>2026-04-19T07:06:01.154Z</time></trkpt><trkpt lat="40.9485683" lon="14.8366083"><ele>287.6666666666667</ele><time>2026-04-19T07:06:02.155Z</time></trkpt><trkpt lat="40.9486133" lon="14.8366967"><ele>288.0</ele><time>2026-04-19T07:06:03.155Z</time></trkpt><trkpt lat="40.9486617" lon="14.836775"><ele>288.0</ele><time>2026-04-19T07:06:04.155Z</time></trkpt><trkpt lat="40.94871" lon="14.83685"><ele>288.0</ele><time>2026-04-19T07:06:05.155Z</time></trkpt><trkpt lat="40.94876" lon="14.83693"><ele>288.0</ele><time>2026-04-19T07:06:06.154Z</time></trkpt><trkpt lat="40.9488117" lon="14.8369983"><ele>288.0</ele><time>2026-04-19T07:06:07.154Z</time></trkpt><trkpt lat="40.9488817" lon="14.8370867"><ele>288.0</ele><time>2026-04-19T07:06:09.155Z</time></trkpt><trkpt lat="40.9489283" lon="14.8371433"><ele>288.0</ele><time>2026-04-19T07:06:12.154Z</time></trkpt><trkpt lat="40.9489983" lon="14.8372317"><ele>288.0</ele><time>2026-04-19T07:06:32.155Z</time></trkpt><trkpt lat="40.9490817" lon="14.8373017"><ele>288.0</ele><time>2026-04-19T07:06:34.155Z</time></trkpt><trkpt lat="40.9491683" lon="14.8373733"><ele>288.0</ele><time>2026-04-19T07:06:36.155Z</time></trkpt><trkpt lat="40.9492583" lon="14.8374433"><ele>288.0</ele><time>2026-04-19T07:06:38.154Z</time></trkpt><trkpt lat="40.949325" lon="14.8375"><ele>288.0</ele><time>2026-04-19T07:06:40.154Z</time></trkpt><trkpt lat="40.9494033" lon="14.83755"><ele>288.2</ele><time>2026-04-19T07:06:42.155Z</time></trkpt><trkpt lat="40.9494917" lon="14.8376033"><ele>288.4</ele><time>2026-04-19T07:06:44.155Z</time></trkpt><trkpt lat="40.9495883" lon="14.8376433"><ele>288.59999999999997</ele><time>2026-04-19T07:06:46.155Z</time></trkpt><trkpt lat="40.9496917" lon="14.8376733"><ele>288.8</ele><time>2026-04-19T07:06:48.154Z</time></trkpt><trkpt lat="40.9497833" lon="14.8377067"><ele>289.0</ele><time>2026-04-19T07:06:50.155Z</time></trkpt><trkpt lat="40.9498817" lon="14.83773"><ele>290.2</ele><time>2026-04-19T07:06:52.155Z</time></trkpt><trkpt lat="40.9499767" lon="14.83775"><ele>291.4</ele><time>2026-04-19T07:06:54.155Z</time></trkpt><trkpt lat="40.950085" lon="14.8377583"><ele>292.6</ele><time>2026-04-19T07:06:56.155Z</time></trkpt><trkpt lat="40.9502017" lon="14.8377583"><ele>293.8</ele><time>2026-04-19T07:06:58.155Z</time></trkpt><trkpt lat="40.950265" lon="14.8377567"><ele>295.0</ele><time>2026-04-19T07:06:59.155Z</time></trkpt><trkpt lat="40.950335" lon="14.8377567"><ele>295.00000000000006</ele><time>2026-04-19T07:07:00.154Z</time></trkpt><trkpt lat="40.9504033" lon="14.8377533"><ele>295.0</ele><time>2026-04-19T07:07:01.155Z</time></trkpt><trkpt lat="40.9504667" lon="14.8377483"><ele>295.0</ele><time>2026-04-19T07:07:02.155Z</time></trkpt><trkpt lat="40.950535" lon="14.8377483"><ele>295.0</ele><time>2026-04-19T07:07:03.154Z</time></trkpt><trkpt lat="40.9506083" lon="14.8377467"><ele>295.0</ele><time>2026-04-19T07:07:04.155Z</time></trkpt><trkpt lat="40.9506817" lon="14.8377433"><ele>295.00000000000006</ele><time>2026-04-19T07:07:05.155Z</time></trkpt><trkpt lat="40.950755" lon="14.8377417"><ele>295.0</ele><time>2026-04-19T07:07:06.155Z</time></trkpt><trkpt lat="40.9508267" lon="14.83774"><ele>294.0</ele><time>2026-04-19T07:07:07.155Z</time></trkpt><trkpt lat="40.9509017" lon="14.8377417"><ele>293.0</ele><time>2026-04-19T07:07:08.154Z</time></trkpt><trkpt lat="40.9509717" lon="14.837735"><ele>292.0</ele><time>2026-04-19T07:07:09.155Z</time></trkpt><trkpt lat="40.9510433" lon="14.8377367"><ele>291.0</ele><time>2026-04-19T07:07:10.155Z</time></trkpt><trkpt lat="40.9511217" lon="14.8377433"><ele>290.0</ele><time>2026-04-19T07:07:11.154Z</time></trkpt><trkpt lat="40.9511983" lon="14.8377517"><ele>289.0</ele><time>2026-04-19T07:07:12.155Z</time></trkpt><trkpt lat="40.9512833" lon="14.8377683"><ele>289.0</ele><time>2026-04-19T07:07:13.155Z</time></trkpt><trkpt lat="40.95137" lon="14.8377833"><ele>289.0</ele><time>2026-04-19T07:07:14.155Z</time></trkpt><trkpt lat="40.9514533" lon="14.8378017"><ele>289.0</ele><time>2026-04-19T07:07:15.154Z</time></trkpt><trkpt lat="40.9515417" lon="14.8378317"><ele>289.0</ele><time>2026-04-19T07:07:16.154Z</time></trkpt><trkpt lat="40.9516233" lon="14.837855"><ele>289.0</ele><time>2026-04-19T07:07:17.155Z</time></trkpt><trkpt lat="40.9517033" lon="14.8378733"><ele>289.0</ele><time>2026-04-19T07:07:18.155Z</time></trkpt><trkpt lat="40.9517767" lon="14.8378917"><ele>288.5</ele><time>2026-04-19T07:07:19.155Z</time></trkpt><trkpt lat="40.951845" lon="14.837915"><ele>288.0</ele><time>2026-04-19T07:07:20.154Z</time></trkpt><trkpt lat="40.9519167" lon="14.8379417"><ele>287.5</ele><time>2026-04-19T07:07:21.155Z</time></trkpt><trkpt lat="40.95199" lon="14.83796"><ele>287.0</ele><time>2026-04-19T07:07:22.155Z</time></trkpt><trkpt lat="40.9520683" lon="14.837985"><ele>286.5</ele><time>2026-04-19T07:07:23.155Z</time></trkpt><trkpt lat="40.9521583" lon="14.8380083"><ele>286.0</ele><time>2026-04-19T07:07:24.155Z</time></trkpt><trkpt lat="40.952245" lon="14.83804"><ele>286.0</ele><time>2026-04-19T07:07:25.155Z</time></trkpt><trkpt lat="40.9523433" lon="14.8380683"><ele>286.0</ele><time>2026-04-19T07:07:26.155Z</time></trkpt><trkpt lat="40.9524433" lon="14.8380967"><ele>286.0</ele><time>2026-04-19T07:07:27.155Z</time></trkpt><trkpt lat="40.952545" lon="14.83812"><ele>286.0</ele><time>2026-04-19T07:07:28.155Z</time></trkpt><trkpt lat="40.9526517" lon="14.83814"><ele>286.0</ele><time>2026-04-19T07:07:29.155Z</time></trkpt><trkpt lat="40.952755" lon="14.838155"><ele>287.0</ele><time>2026-04-19T07:07:30.155Z</time></trkpt><trkpt lat="40.9528583" lon="14.8381633"><ele>288.0</ele><time>2026-04-19T07:07:31.155Z</time></trkpt><trkpt lat="40.9529567" lon="14.8381667"><ele>289.0</ele><time>2026-04-19T07:07:32.155Z</time></trkpt><trkpt lat="40.9530617" lon="14.8381683"><ele>290.0</ele><time>2026-04-19T07:07:33.154Z</time></trkpt><trkpt lat="40.95316" lon="14.8381667"><ele>291.0</ele><time>2026-04-19T07:07:34.155Z</time></trkpt><trkpt lat="40.9532633" lon="14.8381667"><ele>291.0</ele><time>2026-04-19T07:07:35.154Z</time></trkpt><trkpt lat="40.9533683" lon="14.8381683"><ele>291.0</ele><time>2026-04-19T07:07:36.155Z</time></trkpt><trkpt lat="40.9534817" lon="14.838165"><ele>291.0</ele><time>2026-04-19T07:07:37.154Z</time></trkpt><trkpt lat="40.9535883" lon="14.8381533"><ele>291.0</ele><time>2026-04-19T07:07:38.154Z</time></trkpt><trkpt lat="40.9536967" lon="14.838145"><ele>291.0</ele><time>2026-04-19T07:07:39.154Z</time></trkpt><trkpt lat="40.95381" lon="14.83813"><ele>291.25</ele><time>2026-04-19T07:07:40.155Z</time></trkpt><trkpt lat="40.9539233" lon="14.838105"><ele>291.5</ele><time>2026-04-19T07:07:41.155Z</time></trkpt><trkpt lat="40.9540483" lon="14.8380833"><ele>291.75</ele><time>2026-04-19T07:07:42.155Z</time></trkpt><trkpt lat="40.9541733" lon="14.83807"><ele>292.0</ele><time>2026-04-19T07:07:43.154Z</time></trkpt><trkpt lat="40.9543" lon="14.838055"><ele>293.5</ele><time>2026-04-19T07:07:44.155Z</time></trkpt><trkpt lat="40.9544217" lon="14.8380417"><ele>295.0</ele><time>2026-04-19T07:07:45.154Z</time></trkpt><trkpt lat="40.9545433" lon="14.8380217"><ele>296.5</ele><time>2026-04-19T07:07:46.155Z</time></trkpt><trkpt lat="40.954665" lon="14.8380083"><ele>298.0</ele><time>2026-04-19T07:07:47.155Z</time></trkpt><trkpt lat="40.9547833" lon="14.8379983"><ele>298.0</ele><time>2026-04-19T07:07:48.155Z</time></trkpt><trkpt lat="40.954895" lon="14.837985"><ele>298.0</ele><time>2026-04-19T07:07:49.155Z</time></trkpt><trkpt lat="40.9550083" lon="14.83797"><ele>298.0</ele><time>2026-04-19T07:07:50.155Z</time></trkpt><trkpt lat="40.95512" lon="14.83795"><ele>298.0</ele><time>2026-04-19T07:07:51.155Z</time></trkpt><trkpt lat="40.9552333" lon="14.8379333"><ele>299.0</ele><time>2026-04-19T07:07:52.155Z</time></trkpt><trkpt lat="40.95535" lon="14.8379217"><ele>300.0</ele><time>2026-04-19T07:07:53.154Z</time></trkpt><trkpt lat="40.9554683" lon="14.837905"><ele>301.0</ele><time>2026-04-19T07:07:54.154Z</time></trkpt><trkpt lat="40.9555883" lon="14.837895"><ele>302.0</ele><time>2026-04-19T07:07:55.155Z</time></trkpt><trkpt lat="40.9557067" lon="14.8378767"><ele>302.0</ele><time>2026-04-19T07:07:56.155Z</time></trkpt><trkpt lat="40.9558333" lon="14.8378617"><ele>302.0</ele><time>2026-04-19T07:07:57.154Z</time></trkpt><trkpt lat="40.955955" lon="14.8378483"><ele>302.0</ele><time>2026-04-19T07:07:58.155Z</time></trkpt><trkpt lat="40.9560783" lon="14.8378367"><ele>302.0</ele><time>2026-04-19T07:07:59.154Z</time></trkpt><trkpt lat="40.956205" lon="14.8378233"><ele>301.25</ele><time>2026-04-19T07:08:00.155Z</time></trkpt><trkpt lat="40.9563267" lon="14.8378067"><ele>300.5</ele><time>2026-04-19T07:08:01.155Z</time></trkpt><trkpt lat="40.9564533" lon="14.8377883"><ele>299.75</ele><time>2026-04-19T07:08:02.155Z</time></trkpt><trkpt lat="40.9565833" lon="14.8377717"><ele>299.0</ele><time>2026-04-19T07:08:03.155Z</time></trkpt><trkpt lat="40.9567183" lon="14.8377583"><ele>297.75</ele><time>2026-04-19T07:08:04.154Z</time></trkpt><trkpt lat="40.956855" lon="14.8377483"><ele>296.5</ele><time>2026-04-19T07:08:05.154Z</time></trkpt><trkpt lat="40.956985" lon="14.8377267"><ele>295.25</ele><time>2026-04-19T07:08:06.155Z</time></trkpt><trkpt lat="40.9571167" lon="14.83771"><ele>294.0</ele><time>2026-04-19T07:08:07.155Z</time></trkpt><trkpt lat="40.9572517" lon="14.8376917"><ele>294.0</ele><time>2026-04-19T07:08:08.155Z</time></trkpt><trkpt lat="40.957385" lon="14.8376717"><ele>294.0</ele><time>2026-04-19T07:08:09.155Z</time></trkpt><trkpt lat="40.957525" lon="14.8376583"><ele>294.0</ele><time>2026-04-19T07:08:10.155Z</time></trkpt><trkpt lat="40.957665" lon="14.837645"><ele>294.0</ele><time>2026-04-19T07:08:11.155Z</time></trkpt><trkpt lat="40.9578067" lon="14.837625"><ele>294.25</ele><time>2026-04-19T07:08:12.155Z</time></trkpt><trkpt lat="40.9579533" lon="14.8376083"><ele>294.5</ele><time>2026-04-19T07:08:13.155Z</time></trkpt><trkpt lat="40.9581" lon="14.8376"><ele>294.75</ele><time>2026-04-19T07:08:14.155Z</time></trkpt><trkpt lat="40.9582467" lon="14.8375883"><ele>295.0</ele><time>2026-04-19T07:08:15.155Z</time></trkpt><trkpt lat="40.9583933" lon="14.8375833"><ele>295.0</ele><time>2026-04-19T07:08:16.155Z</time></trkpt><trkpt lat="40.9585367" lon="14.8375783"><ele>295.0</ele><time>2026-04-19T07:08:17.155Z</time></trkpt><trkpt lat="40.958685" lon="14.8375833"><ele>295.0</ele><time>2026-04-19T07:08:18.154Z</time></trkpt><trkpt lat="40.9588283" lon="14.8375867"><ele>295.0</ele><time>2026-04-19T07:08:19.155Z</time></trkpt><trkpt lat="40.9589783" lon="14.83759"><ele>295.0</ele><time>2026-04-19T07:08:20.154Z</time></trkpt><trkpt lat="40.9591217" lon="14.8375933"><ele>295.0</ele><time>2026-04-19T07:08:21.154Z</time></trkpt><trkpt lat="40.959265" lon="14.8376083"><ele>295.0</ele><time>2026-04-19T07:08:22.155Z</time></trkpt><trkpt lat="40.9594117" lon="14.8376167"><ele>295.0</ele><time>2026-04-19T07:08:23.155Z</time></trkpt><trkpt lat="40.9595617" lon="14.8376333"><ele>300.3333333333333</ele><time>2026-04-19T07:08:24.155Z</time></trkpt><trkpt lat="40.9597167" lon="14.837655"><ele>305.6666666666667</ele><time>2026-04-19T07:08:25.155Z</time></trkpt><trkpt lat="40.9598683" lon="14.8376833"><ele>311.0</ele><time>2026-04-19T07:08:26.155Z</time></trkpt><trkpt lat="40.9600233" lon="14.837705"><ele>310.0</ele><time>2026-04-19T07:08:27.154Z</time></trkpt><trkpt lat="40.96018" lon="14.8377233"><ele>309.0</ele><time>2026-04-19T07:08:28.155Z</time></trkpt><trkpt lat="40.9603383" lon="14.8377517"><ele>308.0</ele><time>2026-04-19T07:08:29.155Z</time></trkpt><trkpt lat="40.9605" lon="14.8377917"><ele>308.0</ele><time>2026-04-19T07:08:30.154Z</time></trkpt><trkpt lat="40.9606667" lon="14.8378333"><ele>308.0</ele><time>2026-04-19T07:08:31.155Z</time></trkpt><trkpt lat="40.9608367" lon="14.8378717"><ele>308.0</ele><time>2026-04-19T07:08:32.155Z</time></trkpt><trkpt lat="40.9610017" lon="14.83791"><ele>306.0</ele><time>2026-04-19T07:08:33.155Z</time></trkpt><trkpt lat="40.961165" lon="14.8379567"><ele>304.0</ele><time>2026-04-19T07:08:34.154Z</time></trkpt><trkpt lat="40.9613383" lon="14.8380033"><ele>302.0</ele><time>2026-04-19T07:08:35.155Z</time></trkpt><trkpt lat="40.96152" lon="14.8380633"><ele>300.33333333333337</ele><time>2026-04-19T07:08:36.155Z</time></trkpt><trkpt lat="40.9617033" lon="14.83813"><ele>298.6666666666667</ele><time>2026-04-19T07:08:37.155Z</time></trkpt><trkpt lat="40.96189" lon="14.8381967"><ele>297.0</ele><time>2026-04-19T07:08:38.154Z</time></trkpt><trkpt lat="40.9620783" lon="14.8382717"><ele>297.0</ele><time>2026-04-19T07:08:39.155Z</time></trkpt><trkpt lat="40.9622633" lon="14.8383517"><ele>297.0</ele><time>2026-04-19T07:08:40.154Z</time></trkpt><trkpt lat="40.9624467" lon="14.8384383"><ele>297.0</ele><time>2026-04-19T07:08:41.155Z</time></trkpt><trkpt lat="40.9626283" lon="14.83852"><ele>297.6666666666667</ele><time>2026-04-19T07:08:42.155Z</time></trkpt><trkpt lat="40.9628083" lon="14.8386183"><ele>298.33333333333337</ele><time>2026-04-19T07:08:43.155Z</time></trkpt><trkpt lat="40.9629917" lon="14.83871"><ele>299.0</ele><time>2026-04-19T07:08:44.155Z</time></trkpt><trkpt lat="40.9631733" lon="14.8388117"><ele>299.0</ele><time>2026-04-19T07:08:45.155Z</time></trkpt><trkpt lat="40.9633583" lon="14.83891"><ele>299.0</ele><time>2026-04-19T07:08:46.154Z</time></trkpt><trkpt lat="40.9635383" lon="14.8390117"><ele>299.0</ele><time>2026-04-19T07:08:47.154Z</time></trkpt><trkpt lat="40.9637167" lon="14.8391217"><ele>299.33333333333337</ele><time>2026-04-19T07:08:48.155Z</time></trkpt><trkpt lat="40.963895" lon="14.839235"><ele>299.6666666666667</ele><time>2026-04-19T07:08:49.155Z</time></trkpt><trkpt lat="40.96407" lon="14.839355"><ele>300.0</ele><time>2026-04-19T07:08:50.154Z</time></trkpt><trkpt lat="40.9642467" lon="14.83948"><ele>298.6666666666667</ele><time>2026-04-19T07:08:51.154Z</time></trkpt><trkpt lat="40.96442" lon="14.8396117"><ele>297.33333333333337</ele><time>2026-04-19T07:08:52.155Z</time></trkpt><trkpt lat="40.9645917" lon="14.8397517"><ele>296.0</ele><time>2026-04-19T07:08:53.155Z</time></trkpt><trkpt lat="40.96476" lon="14.8398933"><ele>296.0</ele><time>2026-04-19T07:08:54.154Z</time></trkpt><trkpt lat="40.9649283" lon="14.8400367"><ele>296.0</ele><time>2026-04-19T07:08:55.155Z</time></trkpt><trkpt lat="40.9650867" lon="14.8401767"><ele>296.0</ele><time>2026-04-19T07:08:56.155Z</time></trkpt><trkpt lat="40.9652567" lon="14.8403233"><ele>294.6666666666667</ele><time>2026-04-19T07:08:57.155Z</time></trkpt><trkpt lat="40.9654217" lon="14.840475"><ele>293.3333333333333</ele><time>2026-04-19T07:08:58.155Z</time></trkpt><trkpt lat="40.965585" lon="14.840635"><ele>292.0</ele><time>2026-04-19T07:08:59.155Z</time></trkpt><trkpt lat="40.9657583" lon="14.8408033"><ele>293.0</ele><time>2026-04-19T07:09:00.155Z</time></trkpt><trkpt lat="40.96593" lon="14.8409783"><ele>294.0</ele><time>2026-04-19T07:09:01.155Z</time></trkpt><trkpt lat="40.96611" lon="14.841165"><ele>295.0</ele><time>2026-04-19T07:09:02.155Z</time></trkpt><trkpt lat="40.9662867" lon="14.8413517"><ele>295.0</ele><time>2026-04-19T07:09:03.155Z</time></trkpt><trkpt lat="40.9664567" lon="14.8415267"><ele>295.0</ele><time>2026-04-19T07:09:04.154Z</time></trkpt><trkpt lat="40.9666367" lon="14.8417067"><ele>295.0</ele><time>2026-04-19T07:09:05.155Z</time></trkpt><trkpt lat="40.9668117" lon="14.8418833"><ele>293.0</ele><time>2026-04-19T07:09:06.154Z</time></trkpt><trkpt lat="40.96699" lon="14.8420667"><ele>291.0</ele><time>2026-04-19T07:09:07.155Z</time></trkpt><trkpt lat="40.96717" lon="14.842255"><ele>291.0</ele><time>2026-04-19T07:09:08.155Z</time></trkpt><trkpt lat="40.96735" lon="14.8424283"><ele>291.0</ele><time>2026-04-19T07:09:09.155Z</time></trkpt><trkpt lat="40.96753" lon="14.8426067"><ele>291.0</ele><time>2026-04-19T07:09:10.154Z</time></trkpt><trkpt lat="40.9677117" lon="14.842765"><ele>290.0</ele><time>2026-04-19T07:09:11.154Z</time></trkpt><trkpt lat="40.9679067" lon="14.8429167"><ele>289.0</ele><time>2026-04-19T07:09:12.155Z</time></trkpt><trkpt lat="40.9681067" lon="14.8430567"><ele>289.0</ele><time>2026-04-19T07:09:13.155Z</time></trkpt><trkpt lat="40.9683133" lon="14.8431833"><ele>289.0</ele><time>2026-04-19T07:09:14.155Z</time></trkpt><trkpt lat="40.9685217" lon="14.843295"><ele>289.5</ele><time>2026-04-19T07:09:15.155Z</time></trkpt><trkpt lat="40.9687367" lon="14.8434033"><ele>290.0</ele><time>2026-04-19T07:09:16.155Z</time></trkpt><trkpt lat="40.9689567" lon="14.843495"><ele>292.5</ele><time>2026-04-19T07:09:17.155Z</time></trkpt><trkpt lat="40.9691833" lon="14.84358"><ele>295.0</ele><time>2026-04-19T07:09:18.154Z</time></trkpt><trkpt lat="40.96941" lon="14.8436617"><ele>298.5</ele><time>2026-04-19T07:09:19.154Z</time></trkpt><trkpt lat="40.969645" lon="14.843735"><ele>302.0</ele><time>2026-04-19T07:09:20.155Z</time></trkpt><trkpt lat="40.969875" lon="14.8438183"><ele>300.5</ele><time>2026-04-19T07:09:21.155Z</time></trkpt><trkpt lat="40.9701167" lon="14.843905"><ele>299.0</ele><time>2026-04-19T07:09:22.155Z</time></trkpt><trkpt lat="40.9703533" lon="14.8439783"><ele>299.0</ele><time>2026-04-19T07:09:23.155Z</time></trkpt><trkpt lat="40.970585" lon="14.84405"><ele>299.0</ele><time>2026-04-19T07:09:24.155Z</time></trkpt><trkpt lat="40.9708183" lon="14.844135"><ele>295.5</ele><time>2026-04-19T07:09:25.155Z</time></trkpt><trkpt lat="40.9710467" lon="14.8442267"><ele>292.0</ele><time>2026-04-19T07:09:26.154Z</time></trkpt><trkpt lat="40.971275" lon="14.8443283"><ele>295.0</ele><time>2026-04-19T07:09:27.155Z</time></trkpt><trkpt lat="40.9714967" lon="14.8444417"><ele>298.0</ele><time>2026-04-19T07:09:28.154Z</time></trkpt><trkpt lat="40.9717233" lon="14.844575"><ele>298.0</ele><time>2026-04-19T07:09:29.155Z</time></trkpt><trkpt lat="40.97194" lon="14.8447233"><ele>298.0</ele><time>2026-04-19T07:09:30.154Z</time></trkpt><trkpt lat="40.9721467" lon="14.8448767"><ele>298.0</ele><time>2026-04-19T07:09:31.154Z</time></trkpt><trkpt lat="40.97234" lon="14.8450483"><ele>298.0</ele><time>2026-04-19T07:09:32.154Z</time></trkpt><trkpt lat="40.9725233" lon="14.845235"><ele>300.5</ele><time>2026-04-19T07:09:33.155Z</time></trkpt><trkpt lat="40.9727067" lon="14.8454333"><ele>303.0</ele><time>2026-04-19T07:09:34.155Z</time></trkpt><trkpt lat="40.9728817" lon="14.8456367"><ele>303.0</ele><time>2026-04-19T07:09:35.155Z</time></trkpt><trkpt lat="40.9730483" lon="14.8458483"><ele>303.0</ele><time>2026-04-19T07:09:36.155Z</time></trkpt><trkpt lat="40.973215" lon="14.8460733"><ele>297.5</ele><time>2026-04-19T07:09:37.155Z</time></trkpt><trkpt lat="40.9733867" lon="14.8462933"><ele>292.0</ele><time>2026-04-19T07:09:38.155Z</time></trkpt><trkpt lat="40.97355" lon="14.8465183"><ele>292.0</ele><time>2026-04-19T07:09:39.154Z</time></trkpt><trkpt lat="40.9737083" lon="14.84674"><ele>292.0</ele><time>2026-04-19T07:09:40.155Z</time></trkpt><trkpt lat="40.9738567" lon="14.8469633"><ele>293.3333333333333</ele><time>2026-04-19T07:09:41.154Z</time></trkpt><trkpt lat="40.9740033" lon="14.8471817"><ele>294.6666666666667</ele><time>2026-04-19T07:09:42.154Z</time></trkpt><trkpt lat="40.9741517" lon="14.84739"><ele>296.0</ele><time>2026-04-19T07:09:43.154Z</time></trkpt><trkpt lat="40.97431" lon="14.8475967"><ele>290.6666666666667</ele><time>2026-04-19T07:09:44.155Z</time></trkpt><trkpt lat="40.974475" lon="14.8477933"><ele>285.3333333333333</ele><time>2026-04-19T07:09:45.154Z</time></trkpt><trkpt lat="40.9746433" lon="14.8479767"><ele>280.0</ele><time>2026-04-19T07:09:46.155Z</time></trkpt><trkpt lat="40.9748183" lon="14.8481567"><ele>280.0</ele><time>2026-04-19T07:09:47.154Z</time></trkpt><trkpt lat="40.9749917" lon="14.8483267"><ele>280.0</ele><time>2026-04-19T07:09:48.155Z</time></trkpt><trkpt lat="40.9751767" lon="14.8484867"><ele>280.0</ele><time>2026-04-19T07:09:49.155Z</time></trkpt><trkpt lat="40.9753667" lon="14.8486383"><ele>275.5</ele><time>2026-04-19T07:09:50.154Z</time></trkpt><trkpt lat="40.9755633" lon="14.84878"><ele>271.0</ele><time>2026-04-19T07:09:51.155Z</time></trkpt><trkpt lat="40.9757683" lon="14.84892"><ele>280.0</ele><time>2026-04-19T07:09:52.155Z</time></trkpt><trkpt lat="40.97598" lon="14.849045"><ele>289.0</ele><time>2026-04-19T07:09:53.155Z</time></trkpt><trkpt lat="40.9761917" lon="14.8491567"><ele>289.0</ele><time>2026-04-19T07:09:54.154Z</time></trkpt><trkpt lat="40.9764117" lon="14.8492567"><ele>289.0</ele><time>2026-04-19T07:09:55.155Z</time></trkpt><trkpt lat="40.97663" lon="14.84934"><ele>300.0</ele><time>2026-04-19T07:09:56.155Z</time></trkpt><trkpt lat="40.9768583" lon="14.8494117"><ele>311.0</ele><time>2026-04-19T07:09:57.155Z</time></trkpt><trkpt lat="40.9770767" lon="14.8494833"><ele>311.0</ele><time>2026-04-19T07:09:58.155Z</time></trkpt><trkpt lat="40.9773033" lon="14.8495417"><ele>311.0</ele><time>2026-04-19T07:09:59.155Z</time></trkpt><trkpt lat="40.97753" lon="14.84959"><ele>313.0</ele><time>2026-04-19T07:10:00.155Z</time></trkpt><trkpt lat="40.977755" lon="14.8496333"><ele>315.0</ele><time>2026-04-19T07:10:01.154Z</time></trkpt><trkpt lat="40.9779867" lon="14.84968"><ele>315.0</ele><time>2026-04-19T07:10:02.154Z</time></trkpt><trkpt lat="40.9782183" lon="14.8497283"><ele>315.0</ele><time>2026-04-19T07:10:03.155Z</time></trkpt><trkpt lat="40.97845" lon="14.849775"><ele>318.0</ele><time>2026-04-19T07:10:04.155Z</time></trkpt><trkpt lat="40.978685" lon="14.8498267"><ele>321.0</ele><time>2026-04-19T07:10:05.155Z</time></trkpt><trkpt lat="40.97892" lon="14.849875"><ele>321.0</ele><time>2026-04-19T07:10:06.154Z</time></trkpt><trkpt lat="40.979155" lon="14.8499317"><ele>321.0</ele><time>2026-04-19T07:10:07.155Z</time></trkpt><trkpt lat="40.9793883" lon="14.8499967"><ele>323.5</ele><time>2026-04-19T07:10:08.155Z</time></trkpt><trkpt lat="40.979625" lon="14.8500717"><ele>326.0</ele><time>2026-04-19T07:10:09.154Z</time></trkpt><trkpt lat="40.97987" lon="14.8501517"><ele>324.0</ele><time>2026-04-19T07:10:10.155Z</time></trkpt><trkpt lat="40.9801017" lon="14.850225"><ele>322.0</ele><time>2026-04-19T07:10:11.155Z</time></trkpt><trkpt lat="40.9803383" lon="14.8503167"><ele>322.0</ele><time>2026-04-19T07:10:12.155Z</time></trkpt><trkpt lat="40.980575" lon="14.8504083"><ele>322.0</ele><time>2026-04-19T07:10:13.155Z</time></trkpt><trkpt lat="40.9807783" lon="14.85057"><ele>321.66666666666663</ele><time>2026-04-19T07:10:14.155Z</time></trkpt><trkpt lat="40.98094" lon="14.8507"><ele>321.3333333333333</ele><time>2026-04-19T07:10:15.154Z</time></trkpt><trkpt lat="40.98115" lon="14.850835"><ele>321.0</ele><time>2026-04-19T07:10:16.155Z</time></trkpt><trkpt lat="40.9813483" lon="14.8509833"><ele>321.0</ele><time>2026-04-19T07:10:17.155Z</time></trkpt><trkpt lat="40.9815417" lon="14.8511333"><ele>321.0</ele><time>2026-04-19T07:10:18.154Z</time></trkpt><trkpt lat="40.981745" lon="14.85129"><ele>320.5</ele><time>2026-04-19T07:10:19.155Z</time></trkpt><trkpt lat="40.98194" lon="14.8514467"><ele>320.0</ele><time>2026-04-19T07:10:20.155Z</time></trkpt><trkpt lat="40.98214" lon="14.8516033"><ele>320.0</ele><time>2026-04-19T07:10:21.155Z</time></trkpt><trkpt lat="40.982335" lon="14.8517633"><ele>320.0</ele><time>2026-04-19T07:10:22.154Z</time></trkpt><trkpt lat="40.982535" lon="14.8519217"><ele>325.5</ele><time>2026-04-19T07:10:23.155Z</time></trkpt><trkpt lat="40.9827317" lon="14.85208"><ele>331.0</ele><time>2026-04-19T07:10:24.155Z</time></trkpt><trkpt lat="40.9829267" lon="14.8522433"><ele>331.0</ele><time>2026-04-19T07:10:25.155Z</time></trkpt><trkpt lat="40.9831117" lon="14.85241"><ele>331.0</ele><time>2026-04-19T07:10:26.155Z</time></trkpt><trkpt lat="40.9832917" lon="14.8525933"><ele>331.5</ele><time>2026-04-19T07:10:27.154Z</time></trkpt><trkpt lat="40.9834617" lon="14.85279"><ele>332.0</ele><time>2026-04-19T07:10:28.154Z</time></trkpt><trkpt lat="40.98362" lon="14.8530017"><ele>332.0</ele><time>2026-04-19T07:10:29.155Z</time></trkpt><trkpt lat="40.983765" lon="14.85323"><ele>332.0</ele><time>2026-04-19T07:10:30.155Z</time></trkpt><trkpt lat="40.9839083" lon="14.8534617"><ele>331.0</ele><time>2026-04-19T07:10:31.154Z</time></trkpt><trkpt lat="40.9840267" lon="14.8537033"><ele>330.0</ele><time>2026-04-19T07:10:32.155Z</time></trkpt><trkpt lat="40.984135" lon="14.8539483"><ele>329.0</ele><time>2026-04-19T07:10:33.154Z</time></trkpt><trkpt lat="40.984235" lon="14.8541983"><ele>329.6666666666667</ele><time>2026-04-19T07:10:34.155Z</time></trkpt><trkpt lat="40.984335" lon="14.854455"><ele>330.3333333333333</ele><time>2026-04-19T07:10:35.154Z</time></trkpt><trkpt lat="40.9844233" lon="14.85472"><ele>331.0</ele><time>2026-04-19T07:10:36.154Z</time></trkpt><trkpt lat="40.98452" lon="14.854995"><ele>333.0</ele><time>2026-04-19T07:10:37.155Z</time></trkpt><trkpt lat="40.98461" lon="14.8552633"><ele>335.0</ele><time>2026-04-19T07:10:38.155Z</time></trkpt><trkpt lat="40.9847167" lon="14.85553"><ele>337.0</ele><time>2026-04-19T07:10:39.155Z</time></trkpt><trkpt lat="40.9848317" lon="14.855795"><ele>337.0</ele><time>2026-04-19T07:10:40.154Z</time></trkpt><trkpt lat="40.984955" lon="14.856055"><ele>337.0</ele><time>2026-04-19T07:10:41.155Z</time></trkpt><trkpt lat="40.9850933" lon="14.8563083"><ele>337.0</ele><time>2026-04-19T07:10:42.155Z</time></trkpt><trkpt lat="40.98525" lon="14.8565467"><ele>337.0</ele><time>2026-04-19T07:10:43.155Z</time></trkpt><trkpt lat="40.98541" lon="14.8567733"><ele>345.0</ele><time>2026-04-19T07:10:44.155Z</time></trkpt><trkpt lat="40.9855833" lon="14.8569867"><ele>353.0</ele><time>2026-04-19T07:10:45.155Z</time></trkpt><trkpt lat="40.9857617" lon="14.8571867"><ele>350.0</ele><time>2026-04-19T07:10:46.155Z</time></trkpt><trkpt lat="40.98595" lon="14.8573783"><ele>347.0</ele><time>2026-04-19T07:10:47.154Z</time></trkpt><trkpt lat="40.9861467" lon="14.857565"><ele>352.5</ele><time>2026-04-19T07:10:48.154Z</time></trkpt><trkpt lat="40.9863433" lon="14.8577517"><ele>358.0</ele><time>2026-04-19T07:10:49.155Z</time></trkpt><trkpt lat="40.9865383" lon="14.8579417"><ele>355.5</ele><time>2026-04-19T07:10:50.154Z</time></trkpt><trkpt lat="40.98672" lon="14.85814"><ele>353.0</ele><time>2026-04-19T07:10:51.155Z</time></trkpt><trkpt lat="40.9868967" lon="14.85835"><ele>357.5</ele><time>2026-04-19T07:10:52.155Z</time></trkpt><trkpt lat="40.9870583" lon="14.8585767"><ele>362.0</ele><time>2026-04-19T07:10:53.155Z</time></trkpt><trkpt lat="40.9872083" lon="14.8588233"><ele>362.0</ele><time>2026-04-19T07:10:54.154Z</time></trkpt><trkpt lat="40.9873517" lon="14.859075"><ele>362.0</ele><time>2026-04-19T07:10:55.155Z</time></trkpt><trkpt lat="40.9874833" lon="14.859325"><ele>358.5</ele><time>2026-04-19T07:10:56.154Z</time></trkpt><trkpt lat="40.9875983" lon="14.8595867"><ele>355.0</ele><time>2026-04-19T07:10:57.155Z</time></trkpt><trkpt lat="40.9876983" lon="14.8598567"><ele>354.0</ele><time>2026-04-19T07:10:58.155Z</time></trkpt><trkpt lat="40.9877933" lon="14.8601233"><ele>353.0</ele><time>2026-04-19T07:10:59.155Z</time></trkpt><trkpt lat="40.9878917" lon="14.860385"><ele>352.0</ele><time>2026-04-19T07:11:00.155Z</time></trkpt><trkpt lat="40.98799" lon="14.8606367"><ele>352.0</ele><time>2026-04-19T07:11:01.155Z</time></trkpt><trkpt lat="40.9880833" lon="14.8608933"><ele>352.0</ele><time>2026-04-19T07:11:02.155Z</time></trkpt><trkpt lat="40.9881617" lon="14.8611433"><ele>352.0</ele><time>2026-04-19T07:11:03.155Z</time></trkpt><trkpt lat="40.9882483" lon="14.86139"><ele>352.66666666666663</ele><time>2026-04-19T07:11:04.155Z</time></trkpt><trkpt lat="40.98833" lon="14.8616167"><ele>353.3333333333333</ele><time>2026-04-19T07:11:05.155Z</time></trkpt><trkpt lat="40.98841" lon="14.861835"><ele>354.0</ele><time>2026-04-19T07:11:06.154Z</time></trkpt><trkpt lat="40.9884833" lon="14.86206"><ele>354.0</ele><time>2026-04-19T07:11:07.155Z</time></trkpt><trkpt lat="40.988565" lon="14.86227"><ele>354.0</ele><time>2026-04-19T07:11:08.155Z</time></trkpt><trkpt lat="40.98866" lon="14.862475"><ele>354.0</ele><time>2026-04-19T07:11:09.155Z</time></trkpt><trkpt lat="40.9887667" lon="14.8626717"><ele>356.6666666666667</ele><time>2026-04-19T07:11:10.155Z</time></trkpt><trkpt lat="40.98888" lon="14.862865"><ele>359.33333333333337</ele><time>2026-04-19T07:11:11.155Z</time></trkpt><trkpt lat="40.9890133" lon="14.8630417"><ele>362.0</ele><time>2026-04-19T07:11:12.154Z</time></trkpt><trkpt lat="40.989155" lon="14.8632017"><ele>361.6666666666667</ele><time>2026-04-19T07:11:13.154Z</time></trkpt><trkpt lat="40.9892983" lon="14.8633517"><ele>361.3333333333333</ele><time>2026-04-19T07:11:14.154Z</time></trkpt><trkpt lat="40.989465" lon="14.863485"><ele>361.0</ele><time>2026-04-19T07:11:15.155Z</time></trkpt><trkpt lat="40.9896317" lon="14.8635983"><ele>364.0</ele><time>2026-04-19T07:11:16.154Z</time></trkpt><trkpt lat="40.989805" lon="14.8636933"><ele>367.0</ele><time>2026-04-19T07:11:17.155Z</time></trkpt><trkpt lat="40.9899783" lon="14.8637683"><ele>370.0</ele><time>2026-04-19T07:11:18.155Z</time></trkpt><trkpt lat="40.9901467" lon="14.8638317"><ele>370.0</ele><time>2026-04-19T07:11:19.155Z</time></trkpt><trkpt lat="40.990315" lon="14.86388"><ele>370.0</ele><time>2026-04-19T07:11:20.155Z</time></trkpt><trkpt lat="40.9904833" lon="14.8639217"><ele>370.0</ele><time>2026-04-19T07:11:21.155Z</time></trkpt><trkpt lat="40.9906483" lon="14.8639533"><ele>370.0</ele><time>2026-04-19T07:11:22.155Z</time></trkpt><trkpt lat="40.9908167" lon="14.864"><ele>370.0</ele><time>2026-04-19T07:11:23.155Z</time></trkpt><trkpt lat="40.99098" lon="14.8640567"><ele>370.0</ele><time>2026-04-19T07:11:24.155Z</time></trkpt><trkpt lat="40.9911433" lon="14.86413"><ele>370.0</ele><time>2026-04-19T07:11:25.155Z</time></trkpt><trkpt lat="40.9913" lon="14.86421"><ele>370.0</ele><time>2026-04-19T07:11:26.155Z</time></trkpt><trkpt lat="40.9914483" lon="14.8643017"><ele>370.0</ele><time>2026-04-19T07:11:27.154Z</time></trkpt><trkpt lat="40.9915933" lon="14.8644133"><ele>366.66666666666663</ele><time>2026-04-19T07:11:28.154Z</time></trkpt><trkpt lat="40.991735" lon="14.8645533"><ele>363.3333333333333</ele><time>2026-04-19T07:11:29.155Z</time></trkpt><trkpt lat="40.9918683" lon="14.86471"><ele>360.0</ele><time>2026-04-19T07:11:30.155Z</time></trkpt><trkpt lat="40.99199" lon="14.8648767"><ele>360.0</ele><time>2026-04-19T07:11:31.155Z</time></trkpt><trkpt lat="40.9921067" lon="14.8650583"><ele>360.0</ele><time>2026-04-19T07:11:32.154Z</time></trkpt><trkpt lat="40.992215" lon="14.8652483"><ele>360.0</ele><time>2026-04-19T07:11:33.155Z</time></trkpt><trkpt lat="40.9923167" lon="14.86545"><ele>361.0</ele><time>2026-04-19T07:11:34.155Z</time></trkpt><trkpt lat="40.9924" lon="14.8656717"><ele>362.0</ele><time>2026-04-19T07:11:35.154Z</time></trkpt><trkpt lat="40.9924667" lon="14.865905"><ele>363.0</ele><time>2026-04-19T07:11:36.155Z</time></trkpt><trkpt lat="40.9925183" lon="14.86615"><ele>362.3333333333333</ele><time>2026-04-19T07:11:37.155Z</time></trkpt><trkpt lat="40.9925667" lon="14.8663983"><ele>361.66666666666663</ele><time>2026-04-19T07:11:38.155Z</time></trkpt><trkpt lat="40.9926" lon="14.86665"><ele>361.0</ele><time>2026-04-19T07:11:39.154Z</time></trkpt><trkpt lat="40.9926267" lon="14.8668983"><ele>361.0</ele><time>2026-04-19T07:11:40.154Z</time></trkpt><trkpt lat="40.9926483" lon="14.8671517"><ele>361.0</ele><time>2026-04-19T07:11:41.155Z</time></trkpt><trkpt lat="40.9926667" lon="14.8674033"><ele>361.0</ele><time>2026-04-19T07:11:42.154Z</time></trkpt><trkpt lat="40.9926883" lon="14.8676517"><ele>362.3333333333333</ele><time>2026-04-19T07:11:43.154Z</time></trkpt><trkpt lat="40.9927083" lon="14.8679017"><ele>363.6666666666667</ele><time>2026-04-19T07:11:44.155Z</time></trkpt><trkpt lat="40.9927267" lon="14.868145"><ele>365.0</ele><time>2026-04-19T07:11:45.155Z</time></trkpt><trkpt lat="40.99275" lon="14.868385"><ele>366.33333333333337</ele><time>2026-04-19T07:11:46.154Z</time></trkpt><trkpt lat="40.992775" lon="14.868615"><ele>367.6666666666667</ele><time>2026-04-19T07:11:47.154Z</time></trkpt><trkpt lat="40.9927933" lon="14.8688433"><ele>369.0</ele><time>2026-04-19T07:11:48.155Z</time></trkpt><trkpt lat="40.99281" lon="14.86907"><ele>369.3333333333333</ele><time>2026-04-19T07:11:49.155Z</time></trkpt><trkpt lat="40.99284" lon="14.8693067"><ele>369.66666666666663</ele><time>2026-04-19T07:11:50.155Z</time></trkpt><trkpt lat="40.9928617" lon="14.8695383"><ele>370.0</ele><time>2026-04-19T07:11:51.155Z</time></trkpt><trkpt lat="40.9928833" lon="14.869765"><ele>370.0</ele><time>2026-04-19T07:11:52.155Z</time></trkpt><trkpt lat="40.99291" lon="14.869995"><ele>370.0</ele><time>2026-04-19T07:11:53.154Z</time></trkpt><trkpt lat="40.9929333" lon="14.87023"><ele>370.0</ele><time>2026-04-19T07:11:54.155Z</time></trkpt><trkpt lat="40.992955" lon="14.8704717"><ele>371.0</ele><time>2026-04-19T07:11:55.154Z</time></trkpt><trkpt lat="40.9929733" lon="14.8707117"><ele>372.0</ele><time>2026-04-19T07:11:56.154Z</time></trkpt><trkpt lat="40.9929917" lon="14.870955"><ele>373.0</ele><time>2026-04-19T07:11:57.155Z</time></trkpt><trkpt lat="40.9930183" lon="14.8711983"><ele>374.66666666666663</ele><time>2026-04-19T07:11:58.155Z</time></trkpt><trkpt lat="40.9930467" lon="14.8714417"><ele>376.3333333333333</ele><time>2026-04-19T07:11:59.155Z</time></trkpt><trkpt lat="40.9930717" lon="14.871695"><ele>378.0</ele><time>2026-04-19T07:12:00.155Z</time></trkpt><trkpt lat="40.993095" lon="14.8719467"><ele>379.3333333333333</ele><time>2026-04-19T07:12:01.155Z</time></trkpt><trkpt lat="40.993115" lon="14.872205"><ele>380.66666666666663</ele><time>2026-04-19T07:12:02.154Z</time></trkpt><trkpt lat="40.9931417" lon="14.87246"><ele>382.0</ele><time>2026-04-19T07:12:03.154Z</time></trkpt><trkpt lat="40.9931583" lon="14.8727333"><ele>383.3333333333333</ele><time>2026-04-19T07:12:04.155Z</time></trkpt><trkpt lat="40.99318" lon="14.8729983"><ele>384.66666666666663</ele><time>2026-04-19T07:12:05.155Z</time></trkpt><trkpt lat="40.99321" lon="14.8732667"><ele>386.0</ele><time>2026-04-19T07:12:06.155Z</time></trkpt><trkpt lat="40.993235" lon="14.8735317"><ele>387.66666666666663</ele><time>2026-04-19T07:12:07.154Z</time></trkpt><trkpt lat="40.9932533" lon="14.873795"><ele>389.33333333333337</ele><time>2026-04-19T07:12:08.154Z</time></trkpt><trkpt lat="40.993285" lon="14.8740533"><ele>391.0</ele><time>2026-04-19T07:12:09.154Z</time></trkpt><trkpt lat="40.9933133" lon="14.874315"><ele>386.0</ele><time>2026-04-19T07:12:10.155Z</time></trkpt><trkpt lat="40.993345" lon="14.8745767"><ele>381.0</ele><time>2026-04-19T07:12:11.154Z</time></trkpt><trkpt lat="40.9933717" lon="14.87484"><ele>376.0</ele><time>2026-04-19T07:12:12.155Z</time></trkpt><trkpt lat="40.9933983" lon="14.87511"><ele>376.0</ele><time>2026-04-19T07:12:13.155Z</time></trkpt><trkpt lat="40.993425" lon="14.87537"><ele>376.0</ele><time>2026-04-19T07:12:14.155Z</time></trkpt><trkpt lat="40.993435" lon="14.8756433"><ele>376.0</ele><time>2026-04-19T07:12:15.154Z</time></trkpt><trkpt lat="40.993435" lon="14.8759167"><ele>375.3333333333333</ele><time>2026-04-19T07:12:16.155Z</time></trkpt><trkpt lat="40.9934167" lon="14.8761967"><ele>374.6666666666667</ele><time>2026-04-19T07:12:17.155Z</time></trkpt><trkpt lat="40.9933867" lon="14.8764717"><ele>374.0</ele><time>2026-04-19T07:12:18.155Z</time></trkpt><trkpt lat="40.993355" lon="14.87674"><ele>378.33333333333337</ele><time>2026-04-19T07:12:19.155Z</time></trkpt><trkpt lat="40.9933183" lon="14.8770067"><ele>382.6666666666667</ele><time>2026-04-19T07:12:20.155Z</time></trkpt><trkpt lat="40.9932667" lon="14.8772633"><ele>387.0</ele><time>2026-04-19T07:12:21.154Z</time></trkpt><trkpt lat="40.9932033" lon="14.8775167"><ele>386.0</ele><time>2026-04-19T07:12:22.154Z</time></trkpt><trkpt lat="40.993135" lon="14.877765"><ele>385.0</ele><time>2026-04-19T07:12:23.155Z</time></trkpt><trkpt lat="40.9930517" lon="14.8780067"><ele>384.0</ele><time>2026-04-19T07:12:24.154Z</time></trkpt><trkpt lat="40.9929683" lon="14.878245"><ele>384.0</ele><time>2026-04-19T07:12:25.155Z</time></trkpt><trkpt lat="40.992875" lon="14.8784733"><ele>384.0</ele><time>2026-04-19T07:12:26.154Z</time></trkpt><trkpt lat="40.9927683" lon="14.8786917"><ele>384.0</ele><time>2026-04-19T07:12:27.155Z</time></trkpt><trkpt lat="40.99266" lon="14.8789"><ele>384.0</ele><time>2026-04-19T07:12:28.155Z</time></trkpt><trkpt lat="40.9925333" lon="14.8791067"><ele>384.0</ele><time>2026-04-19T07:12:29.155Z</time></trkpt><trkpt lat="40.992405" lon="14.879305"><ele>384.0</ele><time>2026-04-19T07:12:30.155Z</time></trkpt><trkpt lat="40.9922667" lon="14.8794967"><ele>388.0</ele><time>2026-04-19T07:12:31.155Z</time></trkpt><trkpt lat="40.992125" lon="14.8796817"><ele>392.0</ele><time>2026-04-19T07:12:32.155Z</time></trkpt><trkpt lat="40.9919817" lon="14.879855"><ele>396.0</ele><time>2026-04-19T07:12:33.155Z</time></trkpt><trkpt lat="40.9918367" lon="14.880025"><ele>397.66666666666663</ele><time>2026-04-19T07:12:34.155Z</time></trkpt><trkpt lat="40.9916933" lon="14.8801833"><ele>399.3333333333333</ele><time>2026-04-19T07:12:35.155Z</time></trkpt><trkpt lat="40.9915517" lon="14.8803483"><ele>401.0</ele><time>2026-04-19T07:12:36.155Z</time></trkpt><trkpt lat="40.9914183" lon="14.8805233"><ele>401.0</ele><time>2026-04-19T07:12:37.154Z</time></trkpt><trkpt lat="40.9912867" lon="14.880705"><ele>401.0</ele><time>2026-04-19T07:12:38.154Z</time></trkpt><trkpt lat="40.9911617" lon="14.88089"><ele>401.0</ele><time>2026-04-19T07:12:39.155Z</time></trkpt><trkpt lat="40.9910433" lon="14.881085"><ele>403.3333333333333</ele><time>2026-04-19T07:12:40.155Z</time></trkpt><trkpt lat="40.990935" lon="14.881285"><ele>405.66666666666663</ele><time>2026-04-19T07:12:41.155Z</time></trkpt><trkpt lat="40.990835" lon="14.8814883"><ele>408.0</ele><time>2026-04-19T07:12:42.155Z</time></trkpt><trkpt lat="40.99074" lon="14.8816967"><ele>410.0</ele><time>2026-04-19T07:12:43.155Z</time></trkpt><trkpt lat="40.9906583" lon="14.881915"><ele>412.0</ele><time>2026-04-19T07:12:44.154Z</time></trkpt><trkpt lat="40.990585" lon="14.882135"><ele>414.0</ele><time>2026-04-19T07:12:45.155Z</time></trkpt><trkpt lat="40.9905167" lon="14.88236"><ele>414.0</ele><time>2026-04-19T07:12:46.155Z</time></trkpt><trkpt lat="40.99046" lon="14.8825917"><ele>414.0</ele><time>2026-04-19T07:12:47.155Z</time></trkpt><trkpt lat="40.99041" lon="14.882825"><ele>414.0</ele><time>2026-04-19T07:12:48.155Z</time></trkpt><trkpt lat="40.9903683" lon="14.883065"><ele>415.66666666666663</ele><time>2026-04-19T07:12:49.155Z</time></trkpt><trkpt lat="40.9903283" lon="14.8833083"><ele>417.3333333333333</ele><time>2026-04-19T07:12:50.155Z</time></trkpt><trkpt lat="40.9903017" lon="14.8835517"><ele>419.0</ele><time>2026-04-19T07:12:51.155Z</time></trkpt><trkpt lat="40.990285" lon="14.8838017"><ele>422.0</ele><time>2026-04-19T07:12:52.155Z</time></trkpt><trkpt lat="40.9902817" lon="14.8840633"><ele>425.0</ele><time>2026-04-19T07:12:53.155Z</time></trkpt><trkpt lat="40.99029" lon="14.8843167"><ele>428.0</ele><time>2026-04-19T07:12:54.155Z</time></trkpt><trkpt lat="40.9902983" lon="14.8845633"><ele>431.3333333333333</ele><time>2026-04-19T07:12:55.155Z</time></trkpt><trkpt lat="40.9903067" lon="14.8848217"><ele>434.66666666666663</ele><time>2026-04-19T07:12:56.155Z</time></trkpt><trkpt lat="40.990305" lon="14.8850783"><ele>438.0</ele><time>2026-04-19T07:12:57.155Z</time></trkpt><trkpt lat="40.99031" lon="14.8853367"><ele>440.33333333333337</ele><time>2026-04-19T07:12:58.154Z</time></trkpt><trkpt lat="40.9903183" lon="14.8855833"><ele>442.6666666666667</ele><time>2026-04-19T07:12:59.155Z</time></trkpt><trkpt lat="40.9903233" lon="14.8858333"><ele>445.0</ele><time>2026-04-19T07:13:00.155Z</time></trkpt><trkpt lat="40.9903333" lon="14.8861017"><ele>445.0</ele><time>2026-04-19T07:13:01.155Z</time></trkpt><trkpt lat="40.9903517" lon="14.8863983"><ele>445.0</ele><time>2026-04-19T07:13:02.155Z</time></trkpt><trkpt lat="40.99038" lon="14.88672"><ele>442.5</ele><time>2026-04-19T07:13:03.155Z</time></trkpt><trkpt lat="40.9904017" lon="14.88702"><ele>440.0</ele><time>2026-04-19T07:13:04.155Z</time></trkpt><trkpt lat="40.9904083" lon="14.887325"><ele>435.5</ele><time>2026-04-19T07:13:05.155Z</time></trkpt><trkpt lat="40.990395" lon="14.8876317"><ele>431.0</ele><time>2026-04-19T07:13:06.154Z</time></trkpt><trkpt lat="40.99039" lon="14.8879417"><ele>431.0</ele><time>2026-04-19T07:13:07.155Z</time></trkpt><trkpt lat="40.9904183" lon="14.8882333"><ele>431.0</ele><time>2026-04-19T07:13:08.155Z</time></trkpt><trkpt lat="40.99074" lon="14.888425"><ele>425.5</ele><time>2026-04-19T07:13:09.155Z</time></trkpt><trkpt lat="40.991115" lon="14.88856"><ele>420.0</ele><time>2026-04-19T07:13:10.155Z</time></trkpt><trkpt lat="40.991315" lon="14.8887583"><ele>420.0</ele><time>2026-04-19T07:13:11.155Z</time></trkpt><trkpt lat="40.9914333" lon="14.8890083"><ele>420.0</ele><time>2026-04-19T07:13:12.154Z</time></trkpt><trkpt lat="40.991525" lon="14.8892833"><ele>418.5</ele><time>2026-04-19T07:13:13.155Z</time></trkpt><trkpt lat="40.9916083" lon="14.8895667"><ele>417.0</ele><time>2026-04-19T07:13:14.155Z</time></trkpt><trkpt lat="40.9916967" lon="14.8898433"><ele>416.33333333333337</ele><time>2026-04-19T07:13:15.155Z</time></trkpt><trkpt lat="40.99177" lon="14.890115"><ele>415.6666666666667</ele><time>2026-04-19T07:13:16.155Z</time></trkpt><trkpt lat="40.9918483" lon="14.8903917"><ele>415.0</ele><time>2026-04-19T07:13:17.154Z</time></trkpt><trkpt lat="40.9919283" lon="14.890675"><ele>419.5</ele><time>2026-04-19T07:13:18.155Z</time></trkpt><trkpt lat="40.992005" lon="14.890955"><ele>424.0</ele><time>2026-04-19T07:13:19.155Z</time></trkpt><trkpt lat="40.9920867" lon="14.891235"><ele>424.0</ele><time>2026-04-19T07:13:20.155Z</time></trkpt><trkpt lat="40.9921667" lon="14.8915167"><ele>424.0</ele><time>2026-04-19T07:13:21.155Z</time></trkpt><trkpt lat="40.992245" lon="14.8917883"><ele>424.0</ele><time>2026-04-19T07:13:22.154Z</time></trkpt><trkpt lat="40.99232" lon="14.8920633"><ele>427.33333333333337</ele><time>2026-04-19T07:13:23.155Z</time></trkpt><trkpt lat="40.9924" lon="14.8923433"><ele>430.66666666666663</ele><time>2026-04-19T07:13:24.155Z</time></trkpt><trkpt lat="40.992485" lon="14.8926167"><ele>434.0</ele><time>2026-04-19T07:13:25.155Z</time></trkpt><trkpt lat="40.9925783" lon="14.8928883"><ele>436.0</ele><time>2026-04-19T07:13:26.155Z</time></trkpt><trkpt lat="40.99267" lon="14.8931517"><ele>438.0</ele><time>2026-04-19T07:13:27.154Z</time></trkpt><trkpt lat="40.9927633" lon="14.893415"><ele>440.0</ele><time>2026-04-19T07:13:28.154Z</time></trkpt><trkpt lat="40.9928617" lon="14.8936767"><ele>441.66666666666663</ele><time>2026-04-19T07:13:29.155Z</time></trkpt><trkpt lat="40.9929683" lon="14.8939317"><ele>443.33333333333337</ele><time>2026-04-19T07:13:30.155Z</time></trkpt><trkpt lat="40.9930833" lon="14.8941867"><ele>445.0</ele><time>2026-04-19T07:13:31.155Z</time></trkpt><trkpt lat="40.9932067" lon="14.8944317"><ele>444.0</ele><time>2026-04-19T07:13:32.155Z</time></trkpt><trkpt lat="40.9933283" lon="14.894675"><ele>443.0</ele><time>2026-04-19T07:13:33.155Z</time></trkpt><trkpt lat="40.9934617" lon="14.8949083"><ele>442.0</ele><time>2026-04-19T07:13:34.155Z</time></trkpt><trkpt lat="40.9935917" lon="14.8951283"><ele>444.33333333333337</ele><time>2026-04-19T07:13:35.154Z</time></trkpt><trkpt lat="40.993725" lon="14.895345"><ele>446.66666666666663</ele><time>2026-04-19T07:13:36.154Z</time></trkpt><trkpt lat="40.9938583" lon="14.89556"><ele>449.0</ele><time>2026-04-19T07:13:37.155Z</time></trkpt><trkpt lat="40.993995" lon="14.8957767"><ele>451.66666666666663</ele><time>2026-04-19T07:13:38.155Z</time></trkpt><trkpt lat="40.994135" lon="14.8959933"><ele>454.33333333333337</ele><time>2026-04-19T07:13:39.155Z</time></trkpt><trkpt lat="40.9942783" lon="14.8962067"><ele>457.0</ele><time>2026-04-19T07:13:40.155Z</time></trkpt><trkpt lat="40.9944133" lon="14.8964267"><ele>457.0</ele><time>2026-04-19T07:13:41.155Z</time></trkpt><trkpt lat="40.99456" lon="14.8966333"><ele>457.0</ele><time>2026-04-19T07:13:42.155Z</time></trkpt><trkpt lat="40.9946967" lon="14.89685"><ele>457.0</ele><time>2026-04-19T07:13:43.155Z</time></trkpt><trkpt lat="40.99483" lon="14.89707"><ele>456.6666666666667</ele><time>2026-04-19T07:13:44.155Z</time></trkpt><trkpt lat="40.9949683" lon="14.8972933"><ele>456.33333333333337</ele><time>2026-04-19T07:13:45.155Z</time></trkpt><trkpt lat="40.9951083" lon="14.8975083"><ele>456.0</ele><time>2026-04-19T07:13:46.155Z</time></trkpt><trkpt lat="40.995245" lon="14.89772"><ele>457.66666666666663</ele><time>2026-04-19T07:13:47.154Z</time></trkpt><trkpt lat="40.995385" lon="14.8979333"><ele>459.3333333333333</ele><time>2026-04-19T07:13:48.155Z</time></trkpt><trkpt lat="40.9955267" lon="14.8981433"><ele>461.0</ele><time>2026-04-19T07:13:49.154Z</time></trkpt><trkpt lat="40.995675" lon="14.8983383"><ele>461.3333333333333</ele><time>2026-04-19T07:13:50.154Z</time></trkpt><trkpt lat="40.9958267" lon="14.8985233"><ele>461.66666666666663</ele><time>2026-04-19T07:13:51.155Z</time></trkpt><trkpt lat="40.9959867" lon="14.8987033"><ele>462.0</ele><time>2026-04-19T07:13:52.155Z</time></trkpt><trkpt lat="40.9961533" lon="14.8988633"><ele>462.0</ele><time>2026-04-19T07:13:53.155Z</time></trkpt><trkpt lat="40.9963267" lon="14.8990233"><ele>462.0</ele><time>2026-04-19T07:13:54.155Z</time></trkpt><trkpt lat="40.9965033" lon="14.8991633"><ele>462.0</ele><time>2026-04-19T07:13:55.155Z</time></trkpt><trkpt lat="40.99668" lon="14.8992967"><ele>462.66666666666663</ele><time>2026-04-19T07:13:56.154Z</time></trkpt><trkpt lat="40.996865" lon="14.89941"><ele>463.3333333333333</ele><time>2026-04-19T07:13:57.155Z</time></trkpt><trkpt lat="40.997055" lon="14.8995067"><ele>464.0</ele><time>2026-04-19T07:13:58.154Z</time></trkpt><trkpt lat="40.9972433" lon="14.8995867"><ele>464.0</ele><time>2026-04-19T07:13:59.154Z</time></trkpt><trkpt lat="40.997435" lon="14.89966"><ele>464.0</ele><time>2026-04-19T07:14:00.155Z</time></trkpt><trkpt lat="40.9976367" lon="14.8997167"><ele>464.0</ele><time>2026-04-19T07:14:01.155Z</time></trkpt><trkpt lat="40.9978433" lon="14.8997633"><ele>464.0</ele><time>2026-04-19T07:14:02.155Z</time></trkpt><trkpt lat="40.99805" lon="14.899795"><ele>464.0</ele><time>2026-04-19T07:14:03.154Z</time></trkpt><trkpt lat="40.9982583" lon="14.8998217"><ele>464.0</ele><time>2026-04-19T07:14:04.154Z</time></trkpt><trkpt lat="40.99847" lon="14.8998483"><ele>463.66666666666663</ele><time>2026-04-19T07:14:05.155Z</time></trkpt><trkpt lat="40.9986817" lon="14.899875"><ele>463.33333333333337</ele><time>2026-04-19T07:14:06.155Z</time></trkpt><trkpt lat="40.9988933" lon="14.8998967"><ele>463.0</ele><time>2026-04-19T07:14:07.155Z</time></trkpt><trkpt lat="40.9991133" lon="14.89993"><ele>462.5</ele><time>2026-04-19T07:14:08.154Z</time></trkpt><trkpt lat="40.9993317" lon="14.89997"><ele>462.0</ele><time>2026-04-19T07:14:09.155Z</time></trkpt><trkpt lat="40.99956" lon="14.90002"><ele>463.5</ele><time>2026-04-19T07:14:10.155Z</time></trkpt><trkpt lat="40.99978" lon="14.900085"><ele>465.0</ele><time>2026-04-19T07:14:11.154Z</time></trkpt><trkpt lat="41.0000017" lon="14.9001517"><ele>465.0</ele><time>2026-04-19T07:14:12.155Z</time></trkpt><trkpt lat="41.0002233" lon="14.9002317"><ele>465.0</ele><time>2026-04-19T07:14:13.155Z</time></trkpt><trkpt lat="41.0004433" lon="14.9003183"><ele>465.0</ele><time>2026-04-19T07:14:14.154Z</time></trkpt><trkpt lat="41.000655" lon="14.9004317"><ele>465.0</ele><time>2026-04-19T07:14:15.154Z</time></trkpt><trkpt lat="41.0008617" lon="14.9005567"><ele>465.5</ele><time>2026-04-19T07:14:16.154Z</time></trkpt><trkpt lat="41.0010733" lon="14.900685"><ele>466.0</ele><time>2026-04-19T07:14:17.155Z</time></trkpt><trkpt lat="41.0012617" lon="14.90083"><ele>466.0</ele><time>2026-04-19T07:14:18.155Z</time></trkpt><trkpt lat="41.0014567" lon="14.9009817"><ele>466.0</ele><time>2026-04-19T07:14:19.155Z</time></trkpt><trkpt lat="41.0016367" lon="14.9011267"><ele>466.0</ele><time>2026-04-19T07:14:20.155Z</time></trkpt><trkpt lat="41.0018017" lon="14.9012833"><ele>465.0</ele><time>2026-04-19T07:14:21.155Z</time></trkpt><trkpt lat="41.0019683" lon="14.9014533"><ele>464.0</ele><time>2026-04-19T07:14:22.155Z</time></trkpt><trkpt lat="41.002125" lon="14.9016383"><ele>463.0</ele><time>2026-04-19T07:14:23.155Z</time></trkpt><trkpt lat="41.0022767" lon="14.9018283"><ele>463.6666666666667</ele><time>2026-04-19T07:14:24.155Z</time></trkpt><trkpt lat="41.002425" lon="14.9020233"><ele>464.33333333333337</ele><time>2026-04-19T07:14:25.155Z</time></trkpt><trkpt lat="41.0025633" lon="14.9022367"><ele>465.0</ele><time>2026-04-19T07:14:26.155Z</time></trkpt><trkpt lat="41.0027" lon="14.9024433"><ele>466.0</ele><time>2026-04-19T07:14:27.155Z</time></trkpt><trkpt lat="41.002835" lon="14.9026533"><ele>467.0</ele><time>2026-04-19T07:14:28.155Z</time></trkpt><trkpt lat="41.0029583" lon="14.9028733"><ele>468.0</ele><time>2026-04-19T07:14:29.155Z</time></trkpt><trkpt lat="41.003075" lon="14.9031033"><ele>468.0</ele><time>2026-04-19T07:14:30.154Z</time></trkpt><trkpt lat="41.0031917" lon="14.903335"><ele>468.0</ele><time>2026-04-19T07:14:31.154Z</time></trkpt><trkpt lat="41.0033033" lon="14.9035717"><ele>468.0</ele><time>2026-04-19T07:14:32.155Z</time></trkpt><trkpt lat="41.0034083" lon="14.903815"><ele>471.0</ele><time>2026-04-19T07:14:33.155Z</time></trkpt><trkpt lat="41.0035133" lon="14.9040417"><ele>474.0</ele><time>2026-04-19T07:14:34.154Z</time></trkpt><trkpt lat="41.00361" lon="14.9042567"><ele>477.0</ele><time>2026-04-19T07:14:35.154Z</time></trkpt><trkpt lat="41.0037133" lon="14.9044667"><ele>477.0</ele><time>2026-04-19T07:14:36.155Z</time></trkpt><trkpt lat="41.0038133" lon="14.9046783"><ele>477.0</ele><time>2026-04-19T07:14:37.155Z</time></trkpt><trkpt lat="41.0039067" lon="14.904885"><ele>477.0</ele><time>2026-04-19T07:14:38.154Z</time></trkpt><trkpt lat="41.0039883" lon="14.905085"><ele>476.66666666666663</ele><time>2026-04-19T07:14:39.154Z</time></trkpt><trkpt lat="41.00407" lon="14.9052733"><ele>476.3333333333333</ele><time>2026-04-19T07:14:40.155Z</time></trkpt><trkpt lat="41.0041467" lon="14.9054617"><ele>476.0</ele><time>2026-04-19T07:14:41.155Z</time></trkpt><trkpt lat="41.0042367" lon="14.90565"><ele>478.66666666666663</ele><time>2026-04-19T07:14:42.155Z</time></trkpt><trkpt lat="41.004335" lon="14.9058383"><ele>481.33333333333337</ele><time>2026-04-19T07:14:43.155Z</time></trkpt><trkpt lat="41.0044433" lon="14.9060217"><ele>484.0</ele><time>2026-04-19T07:14:44.155Z</time></trkpt><trkpt lat="41.0045583" lon="14.9062017"><ele>484.0</ele><time>2026-04-19T07:14:45.155Z</time></trkpt><trkpt lat="41.004685" lon="14.906375"><ele>484.0</ele><time>2026-04-19T07:14:46.154Z</time></trkpt><trkpt lat="41.004815" lon="14.9065417"><ele>484.0</ele><time>2026-04-19T07:14:47.155Z</time></trkpt><trkpt lat="41.0049483" lon="14.9066983"><ele>488.33333333333337</ele><time>2026-04-19T07:14:48.154Z</time></trkpt><trkpt lat="41.0050917" lon="14.9068517"><ele>492.66666666666663</ele><time>2026-04-19T07:14:49.155Z</time></trkpt><trkpt lat="41.005235" lon="14.9069883"><ele>497.0</ele><time>2026-04-19T07:14:50.155Z</time></trkpt><trkpt lat="41.005385" lon="14.9071167"><ele>497.0</ele><time>2026-04-19T07:14:51.155Z</time></trkpt><trkpt lat="41.0055483" lon="14.9072517"><ele>497.0</ele><time>2026-04-19T07:14:52.154Z</time></trkpt><trkpt lat="41.00572" lon="14.9073667"><ele>497.0</ele><time>2026-04-19T07:14:53.154Z</time></trkpt><trkpt lat="41.005895" lon="14.9074667"><ele>498.66666666666663</ele><time>2026-04-19T07:14:54.155Z</time></trkpt><trkpt lat="41.0060683" lon="14.9075467"><ele>500.33333333333337</ele><time>2026-04-19T07:14:55.155Z</time></trkpt><trkpt lat="41.006245" lon="14.9076183"><ele>502.0</ele><time>2026-04-19T07:14:56.155Z</time></trkpt><trkpt lat="41.0064283" lon="14.9076817"><ele>506.0</ele><time>2026-04-19T07:14:57.154Z</time></trkpt><trkpt lat="41.0066133" lon="14.9077333"><ele>510.0</ele><time>2026-04-19T07:14:58.155Z</time></trkpt><trkpt lat="41.006805" lon="14.9077867"><ele>514.0</ele><time>2026-04-19T07:14:59.155Z</time></trkpt><trkpt lat="41.006995" lon="14.9078433"><ele>517.3333333333334</ele><time>2026-04-19T07:15:00.154Z</time></trkpt><trkpt lat="41.007185" lon="14.9079117"><ele>520.6666666666666</ele><time>2026-04-19T07:15:01.155Z</time></trkpt><trkpt lat="41.0073667" lon="14.9079833"><ele>524.0</ele><time>2026-04-19T07:15:02.154Z</time></trkpt><trkpt lat="41.0075567" lon="14.908065"><ele>530.5</ele><time>2026-04-19T07:15:03.155Z</time></trkpt><trkpt lat="41.00776" lon="14.908195"><ele>537.0</ele><time>2026-04-19T07:15:04.154Z</time></trkpt><trkpt lat="41.00797" lon="14.9083283"><ele>540.6666666666666</ele><time>2026-04-19T07:15:05.155Z</time></trkpt><trkpt lat="41.0081667" lon="14.9084317"><ele>544.3333333333333</ele><time>2026-04-19T07:15:06.154Z</time></trkpt><trkpt lat="41.0083633" lon="14.908535"><ele>548.0</ele><time>2026-04-19T07:15:07.154Z</time></trkpt><trkpt lat="41.0154983" lon="14.9070017"><ele>537.0</ele><time>2026-04-19T07:15:43.15Z</time></trkpt><trkpt lat="41.015665" lon="14.906895"><ele>526.0</ele><time>2026-04-19T07:15:44.15Z</time></trkpt><trkpt lat="41.015845" lon="14.9067733"><ele>515.0</ele><time>2026-04-19T07:15:45.15Z</time></trkpt><trkpt lat="41.016015" lon="14.906635"><ele>510.66666666666663</ele><time>2026-04-19T07:15:46.15Z</time></trkpt><trkpt lat="41.016185" lon="14.9064933"><ele>506.33333333333337</ele><time>2026-04-19T07:15:47.149Z</time></trkpt><trkpt lat="41.016345" lon="14.9063383"><ele>502.0</ele><time>2026-04-19T07:15:48.15Z</time></trkpt><trkpt lat="41.0164983" lon="14.9061717"><ele>502.0</ele><time>2026-04-19T07:15:49.149Z</time></trkpt><trkpt lat="41.016645" lon="14.9059917"><ele>502.0</ele><time>2026-04-19T07:15:50.149Z</time></trkpt><trkpt lat="41.0167867" lon="14.905805"><ele>502.0</ele><time>2026-04-19T07:15:51.149Z</time></trkpt><trkpt lat="41.016925" lon="14.9056083"><ele>502.33333333333337</ele><time>2026-04-19T07:15:52.15Z</time></trkpt><trkpt lat="41.01706" lon="14.9054033"><ele>502.66666666666663</ele><time>2026-04-19T07:15:53.15Z</time></trkpt><trkpt lat="41.0171867" lon="14.9051933"><ele>503.0</ele><time>2026-04-19T07:15:54.15Z</time></trkpt><trkpt lat="41.0173133" lon="14.90498"><ele>503.0</ele><time>2026-04-19T07:15:55.15Z</time></trkpt><trkpt lat="41.017435" lon="14.9047567"><ele>503.0</ele><time>2026-04-19T07:15:56.149Z</time></trkpt><trkpt lat="41.0175617" lon="14.9045317"><ele>503.0</ele><time>2026-04-19T07:15:57.15Z</time></trkpt><trkpt lat="41.01769" lon="14.90431"><ele>500.3333333333333</ele><time>2026-04-19T07:15:58.15Z</time></trkpt><trkpt lat="41.0178183" lon="14.9040867"><ele>497.66666666666663</ele><time>2026-04-19T07:15:59.149Z</time></trkpt><trkpt lat="41.017945" lon="14.9038667"><ele>495.0</ele><time>2026-04-19T07:16:00.149Z</time></trkpt><trkpt lat="41.01807" lon="14.9036417"><ele>495.0</ele><time>2026-04-19T07:16:01.15Z</time></trkpt><trkpt lat="41.0182" lon="14.9034167"><ele>495.0</ele><time>2026-04-19T07:16:02.149Z</time></trkpt><trkpt lat="41.0183317" lon="14.903185"><ele>495.0</ele><time>2026-04-19T07:16:03.15Z</time></trkpt><trkpt lat="41.0184633" lon="14.9029583"><ele>497.0</ele><time>2026-04-19T07:16:04.15Z</time></trkpt><trkpt lat="41.018595" lon="14.9027383"><ele>499.0</ele><time>2026-04-19T07:16:05.15Z</time></trkpt><trkpt lat="41.0187283" lon="14.902515"><ele>501.0</ele><time>2026-04-19T07:16:06.15Z</time></trkpt><trkpt lat="41.0188717" lon="14.9023017"><ele>501.0</ele><time>2026-04-19T07:16:07.15Z</time></trkpt><trkpt lat="41.01902" lon="14.902095"><ele>501.0</ele><time>2026-04-19T07:16:08.15Z</time></trkpt><trkpt lat="41.0191783" lon="14.9019033"><ele>501.0</ele><time>2026-04-19T07:16:09.15Z</time></trkpt><trkpt lat="41.0193433" lon="14.9017183"><ele>497.0</ele><time>2026-04-19T07:16:10.15Z</time></trkpt><trkpt lat="41.0195067" lon="14.901535"><ele>493.0</ele><time>2026-04-19T07:16:11.149Z</time></trkpt><trkpt lat="41.0196733" lon="14.9013633"><ele>489.0</ele><time>2026-04-19T07:16:12.15Z</time></trkpt><trkpt lat="41.0198467" lon="14.9012"><ele>484.33333333333337</ele><time>2026-04-19T07:16:13.149Z</time></trkpt><trkpt lat="41.0200167" lon="14.9010533"><ele>479.6666666666667</ele><time>2026-04-19T07:16:14.15Z</time></trkpt><trkpt lat="41.0201967" lon="14.9009133"><ele>475.0</ele><time>2026-04-19T07:16:15.15Z</time></trkpt><trkpt lat="41.0203767" lon="14.9007833"><ele>475.0</ele><time>2026-04-19T07:16:16.15Z</time></trkpt><trkpt lat="41.0205633" lon="14.9006717"><ele>475.0</ele><time>2026-04-19T07:16:17.149Z</time></trkpt><trkpt lat="41.02076" lon="14.900555"><ele>475.0</ele><time>2026-04-19T07:16:18.15Z</time></trkpt><trkpt lat="41.0209583" lon="14.90045"><ele>473.6666666666667</ele><time>2026-04-19T07:16:19.15Z</time></trkpt><trkpt lat="41.021155" lon="14.9003433"><ele>472.33333333333337</ele><time>2026-04-19T07:16:20.15Z</time></trkpt><trkpt lat="41.021355" lon="14.9002467"><ele>471.0</ele><time>2026-04-19T07:16:21.149Z</time></trkpt><trkpt lat="41.021555" lon="14.9001583"><ele>473.0</ele><time>2026-04-19T07:16:22.149Z</time></trkpt><trkpt lat="41.0217417" lon="14.90006"><ele>475.0</ele><time>2026-04-19T07:16:23.15Z</time></trkpt><trkpt lat="41.0219317" lon="14.8999617"><ele>477.0</ele><time>2026-04-19T07:16:24.15Z</time></trkpt><trkpt lat="41.0221217" lon="14.899865"><ele>477.0</ele><time>2026-04-19T07:16:25.15Z</time></trkpt><trkpt lat="41.0223167" lon="14.8997667"><ele>477.0</ele><time>2026-04-19T07:16:26.149Z</time></trkpt><trkpt lat="41.0225083" lon="14.8996467"><ele>477.0</ele><time>2026-04-19T07:16:27.149Z</time></trkpt><trkpt lat="41.022695" lon="14.8995267"><ele>476.0</ele><time>2026-04-19T07:16:28.149Z</time></trkpt><trkpt lat="41.022875" lon="14.89939"><ele>475.0</ele><time>2026-04-19T07:16:29.15Z</time></trkpt><trkpt lat="41.0230583" lon="14.8992433"><ele>474.0</ele><time>2026-04-19T07:16:30.15Z</time></trkpt><trkpt lat="41.0232383" lon="14.8990917"><ele>469.66666666666663</ele><time>2026-04-19T07:16:31.15Z</time></trkpt><trkpt lat="41.0234117" lon="14.8989317"><ele>465.3333333333333</ele><time>2026-04-19T07:16:32.15Z</time></trkpt><trkpt lat="41.02358" lon="14.8987583"><ele>461.0</ele><time>2026-04-19T07:16:33.15Z</time></trkpt><trkpt lat="41.0237483" lon="14.8985783"><ele>460.66666666666663</ele><time>2026-04-19T07:16:34.149Z</time></trkpt><trkpt lat="41.0239067" lon="14.8983883"><ele>460.33333333333337</ele><time>2026-04-19T07:16:35.15Z</time></trkpt><trkpt lat="41.0240617" lon="14.8981867"><ele>460.0</ele><time>2026-04-19T07:16:36.15Z</time></trkpt><trkpt lat="41.0242133" lon="14.897975"><ele>460.0</ele><time>2026-04-19T07:16:37.15Z</time></trkpt><trkpt lat="41.0243633" lon="14.8977617"><ele>460.0</ele><time>2026-04-19T07:16:38.149Z</time></trkpt><trkpt lat="41.0245117" lon="14.897545"><ele>460.0</ele><time>2026-04-19T07:16:39.15Z</time></trkpt><trkpt lat="41.02466" lon="14.89734"><ele>459.6666666666667</ele><time>2026-04-19T07:16:40.15Z</time></trkpt><trkpt lat="41.0248083" lon="14.8971267"><ele>459.33333333333337</ele><time>2026-04-19T07:16:41.149Z</time></trkpt><trkpt lat="41.0249617" lon="14.8969233"><ele>459.0</ele><time>2026-04-19T07:16:42.149Z</time></trkpt><trkpt lat="41.0251233" lon="14.8967317"><ele>459.0</ele><time>2026-04-19T07:16:43.149Z</time></trkpt><trkpt lat="41.0252967" lon="14.8965467"><ele>459.0</ele><time>2026-04-19T07:16:44.149Z</time></trkpt><trkpt lat="41.02547" lon="14.89637"><ele>459.0</ele><time>2026-04-19T07:16:45.149Z</time></trkpt><trkpt lat="41.02565" lon="14.896205"><ele>458.33333333333337</ele><time>2026-04-19T07:16:46.15Z</time></trkpt><trkpt lat="41.0258283" lon="14.8960517"><ele>457.6666666666667</ele><time>2026-04-19T07:16:47.149Z</time></trkpt><trkpt lat="41.02602" lon="14.8959083"><ele>457.0</ele><time>2026-04-19T07:16:48.15Z</time></trkpt><trkpt lat="41.0262083" lon="14.8957667"><ele>457.0</ele><time>2026-04-19T07:16:49.15Z</time></trkpt><trkpt lat="41.0264" lon="14.8956333"><ele>457.0</ele><time>2026-04-19T07:16:50.149Z</time></trkpt><trkpt lat="41.0266017" lon="14.895515"><ele>457.0</ele><time>2026-04-19T07:16:51.15Z</time></trkpt><trkpt lat="41.026795" lon="14.89541"><ele>455.33333333333337</ele><time>2026-04-19T07:16:52.15Z</time></trkpt><trkpt lat="41.026985" lon="14.89532"><ele>453.66666666666663</ele><time>2026-04-19T07:16:53.15Z</time></trkpt><trkpt lat="41.0271717" lon="14.8952267"><ele>452.0</ele><time>2026-04-19T07:16:54.149Z</time></trkpt><trkpt lat="41.0273567" lon="14.8951333"><ele>453.3333333333333</ele><time>2026-04-19T07:16:55.15Z</time></trkpt><trkpt lat="41.0275383" lon="14.895035"><ele>454.66666666666663</ele><time>2026-04-19T07:16:56.15Z</time></trkpt><trkpt lat="41.0277233" lon="14.89494"><ele>456.0</ele><time>2026-04-19T07:16:57.15Z</time></trkpt><trkpt lat="41.02791" lon="14.8948417"><ele>456.0</ele><time>2026-04-19T07:16:58.15Z</time></trkpt><trkpt lat="41.02809" lon="14.8947467"><ele>456.0</ele><time>2026-04-19T07:16:59.15Z</time></trkpt><trkpt lat="41.02827" lon="14.8946633"><ele>456.0</ele><time>2026-04-19T07:17:00.15Z</time></trkpt><trkpt lat="41.0284483" lon="14.8945683"><ele>451.33333333333337</ele><time>2026-04-19T07:17:01.15Z</time></trkpt><trkpt lat="41.028625" lon="14.8944667"><ele>446.6666666666667</ele><time>2026-04-19T07:17:02.15Z</time></trkpt><trkpt lat="41.0287983" lon="14.8943767"><ele>442.0</ele><time>2026-04-19T07:17:03.15Z</time></trkpt><trkpt lat="41.028975" lon="14.8942883"><ele>440.0</ele><time>2026-04-19T07:17:04.15Z</time></trkpt><trkpt lat="41.0291567" lon="14.894195"><ele>438.0</ele><time>2026-04-19T07:17:05.15Z</time></trkpt><trkpt lat="41.0293367" lon="14.8941"><ele>436.0</ele><time>2026-04-19T07:17:06.149Z</time></trkpt><trkpt lat="41.0295217" lon="14.8940117"><ele>436.0</ele><time>2026-04-19T07:17:07.15Z</time></trkpt><trkpt lat="41.0297017" lon="14.8939233"><ele>436.0</ele><time>2026-04-19T07:17:08.15Z</time></trkpt><trkpt lat="41.02988" lon="14.893835"><ele>436.0</ele><time>2026-04-19T07:17:09.15Z</time></trkpt><trkpt lat="41.0300583" lon="14.89374"><ele>434.33333333333337</ele><time>2026-04-19T07:17:10.15Z</time></trkpt><trkpt lat="41.030235" lon="14.8936433"><ele>432.66666666666663</ele><time>2026-04-19T07:17:11.15Z</time></trkpt><trkpt lat="41.0304133" lon="14.8935517"><ele>431.0</ele><time>2026-04-19T07:17:12.149Z</time></trkpt><trkpt lat="41.030595" lon="14.8934467"><ele>434.3333333333333</ele><time>2026-04-19T07:17:13.15Z</time></trkpt><trkpt lat="41.0307867" lon="14.8933533"><ele>437.66666666666663</ele><time>2026-04-19T07:17:14.15Z</time></trkpt><trkpt lat="41.0309767" lon="14.89325"><ele>441.0</ele><time>2026-04-19T07:17:15.15Z</time></trkpt><trkpt lat="41.031165" lon="14.893135"><ele>441.0</ele><time>2026-04-19T07:17:16.15Z</time></trkpt><trkpt lat="41.0313533" lon="14.8930067"><ele>441.0</ele><time>2026-04-19T07:17:17.15Z</time></trkpt><trkpt lat="41.0315467" lon="14.8928783"><ele>441.0</ele><time>2026-04-19T07:17:18.15Z</time></trkpt><trkpt lat="41.0317333" lon="14.8927383"><ele>440.66666666666663</ele><time>2026-04-19T07:17:19.149Z</time></trkpt><trkpt lat="41.0319183" lon="14.8926017"><ele>440.3333333333333</ele><time>2026-04-19T07:17:20.149Z</time></trkpt><trkpt lat="41.0321033" lon="14.89246"><ele>440.0</ele><time>2026-04-19T07:17:21.15Z</time></trkpt><trkpt lat="41.032285" lon="14.8923083"><ele>440.0</ele><time>2026-04-19T07:17:22.149Z</time></trkpt><trkpt lat="41.0324633" lon="14.8921533"><ele>440.0</ele><time>2026-04-19T07:17:23.15Z</time></trkpt><trkpt lat="41.0326333" lon="14.891995"><ele>440.0</ele><time>2026-04-19T07:17:24.149Z</time></trkpt><trkpt lat="41.0328067" lon="14.8918317"><ele>437.66666666666663</ele><time>2026-04-19T07:17:25.15Z</time></trkpt><trkpt lat="41.032975" lon="14.8916567"><ele>435.33333333333337</ele><time>2026-04-19T07:17:26.149Z</time></trkpt><trkpt lat="41.033145" lon="14.8914833"><ele>433.0</ele><time>2026-04-19T07:17:27.15Z</time></trkpt><trkpt lat="41.0333083" lon="14.8913033"><ele>431.33333333333337</ele><time>2026-04-19T07:17:28.15Z</time></trkpt><trkpt lat="41.0334667" lon="14.89111"><ele>429.66666666666663</ele><time>2026-04-19T07:17:29.15Z</time></trkpt><trkpt lat="41.0336217" lon="14.8909217"><ele>428.0</ele><time>2026-04-19T07:17:30.15Z</time></trkpt><trkpt lat="41.03377" lon="14.890725"><ele>428.0</ele><time>2026-04-19T07:17:31.15Z</time></trkpt><trkpt lat="41.033915" lon="14.8905267"><ele>428.0</ele><time>2026-04-19T07:17:32.15Z</time></trkpt><trkpt lat="41.0340617" lon="14.8903333"><ele>428.0</ele><time>2026-04-19T07:17:33.15Z</time></trkpt><trkpt lat="41.0342133" lon="14.89013"><ele>426.3333333333333</ele><time>2026-04-19T07:17:34.15Z</time></trkpt><trkpt lat="41.0343633" lon="14.8899267"><ele>424.66666666666663</ele><time>2026-04-19T07:17:35.15Z</time></trkpt><trkpt lat="41.034525" lon="14.8897417"><ele>423.0</ele><time>2026-04-19T07:17:36.15Z</time></trkpt><trkpt lat="41.03468" lon="14.88956"><ele>423.0</ele><time>2026-04-19T07:17:37.15Z</time></trkpt><trkpt lat="41.0348283" lon="14.8893933"><ele>423.0</ele><time>2026-04-19T07:17:38.149Z</time></trkpt><trkpt lat="41.0349833" lon="14.88923"><ele>423.0</ele><time>2026-04-19T07:17:39.149Z</time></trkpt><trkpt lat="41.03514" lon="14.8890817"><ele>420.66666666666663</ele><time>2026-04-19T07:17:40.15Z</time></trkpt><trkpt lat="41.0353083" lon="14.8889317"><ele>418.3333333333333</ele><time>2026-04-19T07:17:41.15Z</time></trkpt><trkpt lat="41.0354783" lon="14.8888017"><ele>416.0</ele><time>2026-04-19T07:17:42.15Z</time></trkpt><trkpt lat="41.0356417" lon="14.8886867"><ele>416.0</ele><time>2026-04-19T07:17:43.15Z</time></trkpt><trkpt lat="41.0357983" lon="14.8885817"><ele>416.0</ele><time>2026-04-19T07:17:44.149Z</time></trkpt><trkpt lat="41.0359733" lon="14.8884633"><ele>416.0</ele><time>2026-04-19T07:17:45.15Z</time></trkpt><trkpt lat="41.03615" lon="14.8883467"><ele>416.66666666666663</ele><time>2026-04-19T07:17:46.15Z</time></trkpt><trkpt lat="41.03633" lon="14.888225"><ele>417.33333333333337</ele><time>2026-04-19T07:17:47.15Z</time></trkpt><trkpt lat="41.03652" lon="14.8881017"><ele>418.0</ele><time>2026-04-19T07:17:48.149Z</time></trkpt><trkpt lat="41.036695" lon="14.88797"><ele>418.0</ele><time>2026-04-19T07:17:49.151Z</time></trkpt><trkpt lat="41.0368567" lon="14.8878483"><ele>418.0</ele><time>2026-04-19T07:17:50.151Z</time></trkpt><trkpt lat="41.0370333" lon="14.8877267"><ele>418.0</ele><time>2026-04-19T07:17:51.15Z</time></trkpt><trkpt lat="41.03721" lon="14.8876083"><ele>418.6666666666667</ele><time>2026-04-19T07:17:52.151Z</time></trkpt><trkpt lat="41.03739" lon="14.88749"><ele>419.33333333333337</ele><time>2026-04-19T07:17:53.15Z</time></trkpt><trkpt lat="41.037575" lon="14.8873833"><ele>420.0</ele><time>2026-04-19T07:17:54.151Z</time></trkpt><trkpt lat="41.037765" lon="14.8872867"><ele>416.5</ele><time>2026-04-19T07:17:55.151Z</time></trkpt><trkpt lat="41.037945" lon="14.8871733"><ele>413.0</ele><time>2026-04-19T07:17:56.15Z</time></trkpt><trkpt lat="41.0395683" lon="14.8878233"><ele>390.0</ele><time>2026-04-19T07:18:04.149Z</time></trkpt><trkpt lat="41.039975" lon="14.8881433"><ele>390.0</ele><time>2026-04-19T07:18:05.15Z</time></trkpt><trkpt lat="41.0402533" lon="14.8882733"><ele>390.0</ele><time>2026-04-19T07:18:06.149Z</time></trkpt><trkpt lat="41.0404767" lon="14.8883483"><ele>390.0</ele><time>2026-04-19T07:18:07.15Z</time></trkpt><trkpt lat="41.040685" lon="14.8884067"><ele>390.0</ele><time>2026-04-19T07:18:08.149Z</time></trkpt><trkpt lat="41.0408967" lon="14.888465"><ele>390.0</ele><time>2026-04-19T07:18:09.15Z</time></trkpt><trkpt lat="41.0411117" lon="14.8885317"><ele>384.6666666666667</ele><time>2026-04-19T07:18:10.149Z</time></trkpt><trkpt lat="41.0413183" lon="14.8885967"><ele>379.33333333333337</ele><time>2026-04-19T07:18:11.15Z</time></trkpt><trkpt lat="41.04153" lon="14.8886733"><ele>374.0</ele><time>2026-04-19T07:18:12.15Z</time></trkpt><trkpt lat="41.0417417" lon="14.8887517"><ele>372.6666666666667</ele><time>2026-04-19T07:18:13.15Z</time></trkpt><trkpt lat="41.04195" lon="14.8888417"><ele>371.3333333333333</ele><time>2026-04-19T07:18:14.15Z</time></trkpt><trkpt lat="41.0421533" lon="14.8889483"><ele>370.0</ele><time>2026-04-19T07:18:15.15Z</time></trkpt><trkpt lat="41.04235" lon="14.8890617"><ele>370.0</ele><time>2026-04-19T07:18:16.15Z</time></trkpt><trkpt lat="41.0425467" lon="14.8891917"><ele>370.0</ele><time>2026-04-19T07:18:17.149Z</time></trkpt><trkpt lat="41.042745" lon="14.8893183"><ele>370.0</ele><time>2026-04-19T07:18:18.15Z</time></trkpt><trkpt lat="41.042935" lon="14.8894567"><ele>368.66666666666663</ele><time>2026-04-19T07:18:19.15Z</time></trkpt><trkpt lat="41.0431233" lon="14.889605"><ele>367.3333333333333</ele><time>2026-04-19T07:18:20.149Z</time></trkpt><trkpt lat="41.0433033" lon="14.8897717"><ele>366.0</ele><time>2026-04-19T07:18:21.15Z</time></trkpt><trkpt lat="41.04348" lon="14.889935"><ele>364.3333333333333</ele><time>2026-04-19T07:18:22.15Z</time></trkpt><trkpt lat="41.043655" lon="14.890115"><ele>362.66666666666663</ele><time>2026-04-19T07:18:23.149Z</time></trkpt><trkpt lat="41.043825" lon="14.8903083"><ele>361.0</ele><time>2026-04-19T07:18:24.149Z</time></trkpt><trkpt lat="41.0439917" lon="14.8904983"><ele>360.3333333333333</ele><time>2026-04-19T07:18:25.15Z</time></trkpt><trkpt lat="41.0441517" lon="14.8907067"><ele>359.6666666666667</ele><time>2026-04-19T07:18:26.149Z</time></trkpt><trkpt lat="41.0443083" lon="14.8909083"><ele>359.0</ele><time>2026-04-19T07:18:27.15Z</time></trkpt><trkpt lat="41.044465" lon="14.8911133"><ele>358.33333333333337</ele><time>2026-04-19T07:18:28.149Z</time></trkpt><trkpt lat="41.0446183" lon="14.8913233"><ele>357.6666666666667</ele><time>2026-04-19T07:18:29.15Z</time></trkpt><trkpt lat="41.04477" lon="14.8915167"><ele>357.0</ele><time>2026-04-19T07:18:30.149Z</time></trkpt><trkpt lat="41.044915" lon="14.8917167"><ele>354.6666666666667</ele><time>2026-04-19T07:18:31.149Z</time></trkpt><trkpt lat="41.0450717" lon="14.891915"><ele>352.33333333333337</ele><time>2026-04-19T07:18:32.149Z</time></trkpt><trkpt lat="41.0452317" lon="14.8921133"><ele>350.0</ele><time>2026-04-19T07:18:33.15Z</time></trkpt><trkpt lat="41.045395" lon="14.8923067"><ele>350.0</ele><time>2026-04-19T07:18:34.15Z</time></trkpt><trkpt lat="41.0455617" lon="14.892495"><ele>350.0</ele><time>2026-04-19T07:18:35.15Z</time></trkpt><trkpt lat="41.0457383" lon="14.8926733"><ele>350.0</ele><time>2026-04-19T07:18:36.15Z</time></trkpt><trkpt lat="41.0459167" lon="14.8928433"><ele>347.33333333333337</ele><time>2026-04-19T07:18:37.15Z</time></trkpt><trkpt lat="41.0460983" lon="14.89301"><ele>344.6666666666667</ele><time>2026-04-19T07:18:38.15Z</time></trkpt><trkpt lat="41.0462833" lon="14.8931633"><ele>342.0</ele><time>2026-04-19T07:18:39.149Z</time></trkpt><trkpt lat="41.0464767" lon="14.8933067"><ele>339.3333333333333</ele><time>2026-04-19T07:18:40.15Z</time></trkpt><trkpt lat="41.0466717" lon="14.8934483"><ele>336.66666666666663</ele><time>2026-04-19T07:18:41.15Z</time></trkpt><trkpt lat="41.0468717" lon="14.8935833"><ele>334.0</ele><time>2026-04-19T07:18:42.149Z</time></trkpt><trkpt lat="41.0470683" lon="14.8937"><ele>334.0</ele><time>2026-04-19T07:18:43.15Z</time></trkpt><trkpt lat="41.04726" lon="14.8938083"><ele>334.0</ele><time>2026-04-19T07:18:44.15Z</time></trkpt><trkpt lat="41.04746" lon="14.8939117"><ele>334.0</ele><time>2026-04-19T07:18:45.15Z</time></trkpt><trkpt lat="41.04766" lon="14.894005"><ele>332.3333333333333</ele><time>2026-04-19T07:18:46.15Z</time></trkpt><trkpt lat="41.047855" lon="14.8940833"><ele>330.6666666666667</ele><time>2026-04-19T07:18:47.15Z</time></trkpt><trkpt lat="41.048045" lon="14.8941567"><ele>329.0</ele><time>2026-04-19T07:18:48.149Z</time></trkpt><trkpt lat="41.0482317" lon="14.8942283"><ele>327.0</ele><time>2026-04-19T07:18:49.15Z</time></trkpt><trkpt lat="41.0484183" lon="14.8943"><ele>325.0</ele><time>2026-04-19T07:18:50.15Z</time></trkpt><trkpt lat="41.0486033" lon="14.894365"><ele>323.0</ele><time>2026-04-19T07:18:51.15Z</time></trkpt><trkpt lat="41.0487883" lon="14.8944333"><ele>323.0</ele><time>2026-04-19T07:18:52.15Z</time></trkpt><trkpt lat="41.0489767" lon="14.8944967"><ele>323.0</ele><time>2026-04-19T07:18:53.15Z</time></trkpt><trkpt lat="41.0491683" lon="14.8945567"><ele>323.0</ele><time>2026-04-19T07:18:54.15Z</time></trkpt><trkpt lat="41.0493617" lon="14.8946267"><ele>322.33333333333337</ele><time>2026-04-19T07:18:55.149Z</time></trkpt><trkpt lat="41.0495517" lon="14.8946967"><ele>321.6666666666667</ele><time>2026-04-19T07:18:56.15Z</time></trkpt><trkpt lat="41.0497367" lon="14.8947633"><ele>321.0</ele><time>2026-04-19T07:18:57.15Z</time></trkpt><trkpt lat="41.0499217" lon="14.8948283"><ele>320.0</ele><time>2026-04-19T07:18:58.149Z</time></trkpt><trkpt lat="41.0501067" lon="14.8948933"><ele>319.0</ele><time>2026-04-19T07:18:59.149Z</time></trkpt><trkpt lat="41.0502917" lon="14.894965"><ele>318.0</ele><time>2026-04-19T07:19:00.15Z</time></trkpt><trkpt lat="41.0504833" lon="14.8950333"><ele>318.0</ele><time>2026-04-19T07:19:01.149Z</time></trkpt><trkpt lat="41.0506733" lon="14.895105"><ele>318.0</ele><time>2026-04-19T07:19:02.149Z</time></trkpt><trkpt lat="41.050865" lon="14.8951833"><ele>318.0</ele><time>2026-04-19T07:19:03.15Z</time></trkpt><trkpt lat="41.0510583" lon="14.895255"><ele>317.6666666666667</ele><time>2026-04-19T07:19:04.149Z</time></trkpt><trkpt lat="41.0512417" lon="14.8953233"><ele>317.33333333333337</ele><time>2026-04-19T07:19:05.15Z</time></trkpt><trkpt lat="41.05142" lon="14.8954033"><ele>317.0</ele><time>2026-04-19T07:19:06.15Z</time></trkpt><trkpt lat="41.0516033" lon="14.8954883"><ele>315.6666666666667</ele><time>2026-04-19T07:19:07.15Z</time></trkpt><trkpt lat="41.0517833" lon="14.8955783"><ele>314.3333333333333</ele><time>2026-04-19T07:19:08.15Z</time></trkpt><trkpt lat="41.05196" lon="14.8956817"><ele>313.0</ele><time>2026-04-19T07:19:09.149Z</time></trkpt><trkpt lat="41.0521367" lon="14.8957883"><ele>313.0</ele><time>2026-04-19T07:19:10.149Z</time></trkpt><trkpt lat="41.0523033" lon="14.8959083"><ele>313.0</ele><time>2026-04-19T07:19:11.15Z</time></trkpt><trkpt lat="41.052465" lon="14.8960383"><ele>313.0</ele><time>2026-04-19T07:19:12.15Z</time></trkpt><trkpt lat="41.0526217" lon="14.896175"><ele>312.3333333333333</ele><time>2026-04-19T07:19:13.15Z</time></trkpt><trkpt lat="41.0527767" lon="14.8963183"><ele>311.6666666666667</ele><time>2026-04-19T07:19:14.149Z</time></trkpt><trkpt lat="41.0529367" lon="14.8964733"><ele>311.0</ele><time>2026-04-19T07:19:15.15Z</time></trkpt><trkpt lat="41.0530867" lon="14.8966383"><ele>310.33333333333337</ele><time>2026-04-19T07:19:16.15Z</time></trkpt><trkpt lat="41.0532317" lon="14.8968133"><ele>309.6666666666667</ele><time>2026-04-19T07:19:17.15Z</time></trkpt><trkpt lat="41.0533683" lon="14.8970117"><ele>309.0</ele><time>2026-04-19T07:19:18.15Z</time></trkpt><trkpt lat="41.0535017" lon="14.8972083"><ele>307.3333333333333</ele><time>2026-04-19T07:19:19.149Z</time></trkpt><trkpt lat="41.05363" lon="14.897415"><ele>305.66666666666663</ele><time>2026-04-19T07:19:20.149Z</time></trkpt><trkpt lat="41.05375" lon="14.897625"><ele>304.0</ele><time>2026-04-19T07:19:21.15Z</time></trkpt><trkpt lat="41.0538667" lon="14.8978367"><ele>303.3333333333333</ele><time>2026-04-19T07:19:22.15Z</time></trkpt><trkpt lat="41.053975" lon="14.8980617"><ele>302.6666666666667</ele><time>2026-04-19T07:19:23.149Z</time></trkpt><trkpt lat="41.0540767" lon="14.8982933"><ele>302.0</ele><time>2026-04-19T07:19:24.149Z</time></trkpt><trkpt lat="41.0541733" lon="14.8985233"><ele>297.6666666666667</ele><time>2026-04-19T07:19:25.149Z</time></trkpt><trkpt lat="41.05427" lon="14.89876"><ele>293.3333333333333</ele><time>2026-04-19T07:19:26.15Z</time></trkpt><trkpt lat="41.0543667" lon="14.8990033"><ele>289.0</ele><time>2026-04-19T07:19:27.15Z</time></trkpt><trkpt lat="41.0544683" lon="14.8992383"><ele>285.0</ele><time>2026-04-19T07:19:28.15Z</time></trkpt><trkpt lat="41.0545617" lon="14.8994783"><ele>281.0</ele><time>2026-04-19T07:19:29.15Z</time></trkpt><trkpt lat="41.0546517" lon="14.8997133"><ele>277.0</ele><time>2026-04-19T07:19:30.149Z</time></trkpt><trkpt lat="41.0547467" lon="14.89995"><ele>275.0</ele><time>2026-04-19T07:19:31.15Z</time></trkpt><trkpt lat="41.05484" lon="14.9001867"><ele>273.0</ele><time>2026-04-19T07:19:32.149Z</time></trkpt><trkpt lat="41.054935" lon="14.9004183"><ele>271.0</ele><time>2026-04-19T07:19:33.15Z</time></trkpt><trkpt lat="41.0550333" lon="14.90065"><ele>271.0</ele><time>2026-04-19T07:19:34.15Z</time></trkpt><trkpt lat="41.0551267" lon="14.90088"><ele>271.0</ele><time>2026-04-19T07:19:35.15Z</time></trkpt><trkpt lat="41.0552233" lon="14.9011133"><ele>271.0</ele><time>2026-04-19T07:19:36.149Z</time></trkpt><trkpt lat="41.0553167" lon="14.9013467"><ele>273.3333333333333</ele><time>2026-04-19T07:19:37.149Z</time></trkpt><trkpt lat="41.05541" lon="14.9015817"><ele>275.6666666666667</ele><time>2026-04-19T07:19:38.149Z</time></trkpt><trkpt lat="41.055505" lon="14.9018133"><ele>278.0</ele><time>2026-04-19T07:19:39.15Z</time></trkpt><trkpt lat="41.0556033" lon="14.9020467"><ele>281.0</ele><time>2026-04-19T07:19:40.149Z</time></trkpt><trkpt lat="41.0556967" lon="14.9022767"><ele>284.0</ele><time>2026-04-19T07:19:41.15Z</time></trkpt><trkpt lat="41.0557917" lon="14.9025067"><ele>287.0</ele><time>2026-04-19T07:19:42.15Z</time></trkpt><trkpt lat="41.0558833" lon="14.9027383"><ele>290.33333333333337</ele><time>2026-04-19T07:19:43.15Z</time></trkpt><trkpt lat="41.0559767" lon="14.9029717"><ele>293.6666666666667</ele><time>2026-04-19T07:19:44.149Z</time></trkpt><trkpt lat="41.05607" lon="14.9032"><ele>297.0</ele><time>2026-04-19T07:19:45.149Z</time></trkpt><trkpt lat="41.0561617" lon="14.9034333"><ele>300.3333333333333</ele><time>2026-04-19T07:19:46.149Z</time></trkpt><trkpt lat="41.0562517" lon="14.9036617"><ele>303.66666666666663</ele><time>2026-04-19T07:19:47.15Z</time></trkpt><trkpt lat="41.0563467" lon="14.9038967"><ele>307.0</ele><time>2026-04-19T07:19:48.15Z</time></trkpt><trkpt lat="41.0564333" lon="14.9041233"><ele>306.66666666666663</ele><time>2026-04-19T07:19:49.149Z</time></trkpt><trkpt lat="41.05652" lon="14.9043433"><ele>306.3333333333333</ele><time>2026-04-19T07:19:50.149Z</time></trkpt><trkpt lat="41.056615" lon="14.9045733"><ele>306.0</ele><time>2026-04-19T07:19:51.149Z</time></trkpt><trkpt lat="41.05672" lon="14.9047983"><ele>306.0</ele><time>2026-04-19T07:19:52.15Z</time></trkpt><trkpt lat="41.0568217" lon="14.9050367"><ele>306.0</ele><time>2026-04-19T07:19:53.15Z</time></trkpt><trkpt lat="41.0569283" lon="14.9052617"><ele>306.0</ele><time>2026-04-19T07:19:54.15Z</time></trkpt><trkpt lat="41.0570467" lon="14.9054833"><ele>306.3333333333333</ele><time>2026-04-19T07:19:55.15Z</time></trkpt><trkpt lat="41.0571717" lon="14.9056883"><ele>306.66666666666663</ele><time>2026-04-19T07:19:56.15Z</time></trkpt><trkpt lat="41.057305" lon="14.9058783"><ele>307.0</ele><time>2026-04-19T07:19:57.15Z</time></trkpt><trkpt lat="41.0574667" lon="14.906"><ele>307.0</ele><time>2026-04-19T07:19:58.15Z</time></trkpt><trkpt lat="41.0576133" lon="14.9061733"><ele>307.0</ele><time>2026-04-19T07:19:59.149Z</time></trkpt><trkpt lat="41.057765" lon="14.9063533"><ele>307.0</ele><time>2026-04-19T07:20:00.15Z</time></trkpt><trkpt lat="41.05793" lon="14.9065167"><ele>307.0</ele><time>2026-04-19T07:20:01.15Z</time></trkpt><trkpt lat="41.058095" lon="14.9066683"><ele>307.0</ele><time>2026-04-19T07:20:02.15Z</time></trkpt><trkpt lat="41.0582867" lon="14.9068417"><ele>307.0</ele><time>2026-04-19T07:20:03.149Z</time></trkpt><trkpt lat="41.0584717" lon="14.9070083"><ele>305.3333333333333</ele><time>2026-04-19T07:20:04.15Z</time></trkpt><trkpt lat="41.0586617" lon="14.9071617"><ele>303.6666666666667</ele><time>2026-04-19T07:20:05.15Z</time></trkpt><trkpt lat="41.0588533" lon="14.9073067"><ele>302.0</ele><time>2026-04-19T07:20:06.15Z</time></trkpt><trkpt lat="41.059045" lon="14.90745"><ele>301.0</ele><time>2026-04-19T07:20:07.149Z</time></trkpt><trkpt lat="41.0592383" lon="14.9075867"><ele>300.0</ele><time>2026-04-19T07:20:08.149Z</time></trkpt><trkpt lat="41.0594383" lon="14.9077183"><ele>299.0</ele><time>2026-04-19T07:20:09.15Z</time></trkpt><trkpt lat="41.0596467" lon="14.9078517"><ele>299.0</ele><time>2026-04-19T07:20:10.15Z</time></trkpt><trkpt lat="41.0598617" lon="14.9079767"><ele>299.0</ele><time>2026-04-19T07:20:11.149Z</time></trkpt><trkpt lat="41.0600733" lon="14.9081"><ele>298.0</ele><time>2026-04-19T07:20:12.15Z</time></trkpt><trkpt lat="41.0602817" lon="14.9082283"><ele>297.0</ele><time>2026-04-19T07:20:13.15Z</time></trkpt><trkpt lat="41.0604833" lon="14.9083567"><ele>299.3333333333333</ele><time>2026-04-19T07:20:14.149Z</time></trkpt><trkpt lat="41.0606783" lon="14.90848"><ele>301.66666666666663</ele><time>2026-04-19T07:20:15.15Z</time></trkpt><trkpt lat="41.0608733" lon="14.9086017"><ele>304.0</ele><time>2026-04-19T07:20:16.15Z</time></trkpt><trkpt lat="41.06108" lon="14.9087233"><ele>304.0</ele><time>2026-04-19T07:20:17.15Z</time></trkpt><trkpt lat="41.0612733" lon="14.9088467"><ele>304.0</ele><time>2026-04-19T07:20:18.149Z</time></trkpt><trkpt lat="41.0614667" lon="14.9089683"><ele>304.0</ele><time>2026-04-19T07:20:19.149Z</time></trkpt><trkpt lat="41.0616633" lon="14.909085"><ele>302.66666666666663</ele><time>2026-04-19T07:20:20.15Z</time></trkpt><trkpt lat="41.061865" lon="14.90921"><ele>301.3333333333333</ele><time>2026-04-19T07:20:21.15Z</time></trkpt><trkpt lat="41.0620667" lon="14.90933"><ele>300.0</ele><time>2026-04-19T07:20:22.15Z</time></trkpt><trkpt lat="41.0622683" lon="14.909455"><ele>297.6666666666667</ele><time>2026-04-19T07:20:23.15Z</time></trkpt><trkpt lat="41.0624733" lon="14.9095767"><ele>295.33333333333337</ele><time>2026-04-19T07:20:24.149Z</time></trkpt><trkpt lat="41.0626667" lon="14.9097017"><ele>293.0</ele><time>2026-04-19T07:20:25.15Z</time></trkpt><trkpt lat="41.062865" lon="14.9098333"><ele>293.0</ele><time>2026-04-19T07:20:26.15Z</time></trkpt><trkpt lat="41.0630533" lon="14.909965"><ele>293.0</ele><time>2026-04-19T07:20:27.15Z</time></trkpt><trkpt lat="41.0632433" lon="14.91011"><ele>293.0</ele><time>2026-04-19T07:20:28.15Z</time></trkpt><trkpt lat="41.0634333" lon="14.91026"><ele>290.6666666666667</ele><time>2026-04-19T07:20:29.149Z</time></trkpt><trkpt lat="41.0636183" lon="14.91041"><ele>288.3333333333333</ele><time>2026-04-19T07:20:30.15Z</time></trkpt><trkpt lat="41.0638033" lon="14.9105683"><ele>286.0</ele><time>2026-04-19T07:20:31.149Z</time></trkpt><trkpt lat="41.063985" lon="14.9107367"><ele>282.5</ele><time>2026-04-19T07:20:32.15Z</time></trkpt><trkpt lat="41.0641717" lon="14.9109167"><ele>279.0</ele><time>2026-04-19T07:20:33.15Z</time></trkpt><trkpt lat="41.0643533" lon="14.9110933"><ele>279.0</ele><time>2026-04-19T07:20:34.15Z</time></trkpt><trkpt lat="41.0645317" lon="14.9112867"><ele>279.0</ele><time>2026-04-19T07:20:35.15Z</time></trkpt><trkpt lat="41.0647083" lon="14.9114933"><ele>279.0</ele><time>2026-04-19T07:20:36.149Z</time></trkpt><trkpt lat="41.0648833" lon="14.91169"><ele>279.0</ele><time>2026-04-19T07:20:37.15Z</time></trkpt><trkpt lat="41.0650533" lon="14.9118917"><ele>278.0</ele><time>2026-04-19T07:20:38.15Z</time></trkpt><trkpt lat="41.0652317" lon="14.9120967"><ele>277.0</ele><time>2026-04-19T07:20:39.15Z</time></trkpt><trkpt lat="41.065405" lon="14.9123"><ele>277.0</ele><time>2026-04-19T07:20:40.149Z</time></trkpt><trkpt lat="41.065585" lon="14.912505"><ele>277.0</ele><time>2026-04-19T07:20:41.15Z</time></trkpt><trkpt lat="41.0657617" lon="14.9127017"><ele>276.0</ele><time>2026-04-19T07:20:42.15Z</time></trkpt><trkpt lat="41.0659333" lon="14.9128967"><ele>275.0</ele><time>2026-04-19T07:20:43.149Z</time></trkpt><trkpt lat="41.06611" lon="14.9131"><ele>275.0</ele><time>2026-04-19T07:20:44.15Z</time></trkpt><trkpt lat="41.06628" lon="14.913305"><ele>275.0</ele><time>2026-04-19T07:20:45.15Z</time></trkpt><trkpt lat="41.066455" lon="14.9135033"><ele>272.0</ele><time>2026-04-19T07:20:46.15Z</time></trkpt><trkpt lat="41.0666267" lon="14.9137033"><ele>269.0</ele><time>2026-04-19T07:20:47.15Z</time></trkpt><trkpt lat="41.0668033" lon="14.9138967"><ele>269.0</ele><time>2026-04-19T07:20:48.149Z</time></trkpt><trkpt lat="41.0669767" lon="14.9140917"><ele>269.0</ele><time>2026-04-19T07:20:49.15Z</time></trkpt><trkpt lat="41.0671433" lon="14.91428"><ele>269.0</ele><time>2026-04-19T07:20:50.15Z</time></trkpt><trkpt lat="41.0673083" lon="14.9144633"><ele>266.6666666666667</ele><time>2026-04-19T07:20:51.15Z</time></trkpt><trkpt lat="41.06747" lon="14.91465"><ele>264.3333333333333</ele><time>2026-04-19T07:20:52.149Z</time></trkpt><trkpt lat="41.0676267" lon="14.9148317"><ele>262.0</ele><time>2026-04-19T07:20:53.15Z</time></trkpt><trkpt lat="41.067775" lon="14.9150133"><ele>262.0</ele><time>2026-04-19T07:20:54.149Z</time></trkpt><trkpt lat="41.067935" lon="14.9151967"><ele>262.0</ele><time>2026-04-19T07:20:55.15Z</time></trkpt><trkpt lat="41.0680917" lon="14.91537"><ele>262.0</ele><time>2026-04-19T07:20:56.15Z</time></trkpt><trkpt lat="41.068245" lon="14.9155483"><ele>260.3333333333333</ele><time>2026-04-19T07:20:57.15Z</time></trkpt><trkpt lat="41.0684" lon="14.9157233"><ele>258.6666666666667</ele><time>2026-04-19T07:20:58.149Z</time></trkpt><trkpt lat="41.0685567" lon="14.9159017"><ele>257.0</ele><time>2026-04-19T07:20:59.149Z</time></trkpt><trkpt lat="41.0687133" lon="14.9160883"><ele>257.0</ele><time>2026-04-19T07:21:00.149Z</time></trkpt><trkpt lat="41.068875" lon="14.916265"><ele>257.0</ele><time>2026-04-19T07:21:01.15Z</time></trkpt><trkpt lat="41.06903" lon="14.9164517"><ele>257.0</ele><time>2026-04-19T07:21:02.15Z</time></trkpt><trkpt lat="41.0691817" lon="14.91663"><ele>254.33333333333334</ele><time>2026-04-19T07:21:03.15Z</time></trkpt><trkpt lat="41.0693333" lon="14.916805"><ele>251.66666666666669</ele><time>2026-04-19T07:21:04.15Z</time></trkpt><trkpt lat="41.069485" lon="14.91698"><ele>249.0</ele><time>2026-04-19T07:21:05.149Z</time></trkpt><trkpt lat="41.0696317" lon="14.9171633"><ele>249.0</ele><time>2026-04-19T07:21:06.15Z</time></trkpt><trkpt lat="41.06978" lon="14.9173383"><ele>249.0</ele><time>2026-04-19T07:21:07.15Z</time></trkpt><trkpt lat="41.0699217" lon="14.9175233"><ele>249.0</ele><time>2026-04-19T07:21:08.15Z</time></trkpt><trkpt lat="41.07006" lon="14.91771"><ele>248.0</ele><time>2026-04-19T07:21:09.149Z</time></trkpt><trkpt lat="41.0701867" lon="14.9178967"><ele>247.0</ele><time>2026-04-19T07:21:10.15Z</time></trkpt><trkpt lat="41.070305" lon="14.9180817"><ele>246.0</ele><time>2026-04-19T07:21:11.15Z</time></trkpt><trkpt lat="41.0704183" lon="14.9182683"><ele>246.0</ele><time>2026-04-19T07:21:12.15Z</time></trkpt><trkpt lat="41.0705217" lon="14.918445"><ele>246.0</ele><time>2026-04-19T07:21:13.15Z</time></trkpt><trkpt lat="41.0706233" lon="14.91862"><ele>246.0</ele><time>2026-04-19T07:21:14.15Z</time></trkpt><trkpt lat="41.0707183" lon="14.9188017"><ele>245.66666666666669</ele><time>2026-04-19T07:21:15.149Z</time></trkpt><trkpt lat="41.0708083" lon="14.91899"><ele>245.33333333333334</ele><time>2026-04-19T07:21:16.15Z</time></trkpt><trkpt lat="41.0708967" lon="14.91917"><ele>245.0</ele><time>2026-04-19T07:21:17.15Z</time></trkpt><trkpt lat="41.0709783" lon="14.919345"><ele>245.0</ele><time>2026-04-19T07:21:18.149Z</time></trkpt><trkpt lat="41.0710517" lon="14.91952"><ele>245.0</ele><time>2026-04-19T07:21:19.15Z</time></trkpt><trkpt lat="41.07113" lon="14.9196683"><ele>245.0</ele><time>2026-04-19T07:21:20.15Z</time></trkpt><trkpt lat="41.0711817" lon="14.9198433"><ele>245.0</ele><time>2026-04-19T07:21:21.15Z</time></trkpt><trkpt lat="41.07121" lon="14.92"><ele>243.8</ele><time>2026-04-19T07:21:22.15Z</time></trkpt><trkpt lat="41.07122" lon="14.9201533"><ele>242.6</ele><time>2026-04-19T07:21:23.15Z</time></trkpt><trkpt lat="41.0712167" lon="14.9202933"><ele>241.39999999999998</ele><time>2026-04-19T07:21:24.15Z</time></trkpt><trkpt lat="41.0711933" lon="14.9204383"><ele>240.2</ele><time>2026-04-19T07:21:25.15Z</time></trkpt><trkpt lat="41.0711467" lon="14.920565"><ele>239.0</ele><time>2026-04-19T07:21:26.15Z</time></trkpt><trkpt lat="41.0710817" lon="14.92068"><ele>239.0</ele><time>2026-04-19T07:21:27.15Z</time></trkpt><trkpt lat="41.0709967" lon="14.9207667"><ele>238.99999999999997</ele><time>2026-04-19T07:21:28.149Z</time></trkpt><trkpt lat="41.0708983" lon="14.9208167"><ele>238.99999999999997</ele><time>2026-04-19T07:21:29.15Z</time></trkpt><trkpt lat="41.0708033" lon="14.920845"><ele>239.0</ele><time>2026-04-19T07:21:30.15Z</time></trkpt><trkpt lat="41.0707083" lon="14.9208317"><ele>239.0</ele><time>2026-04-19T07:21:31.15Z</time></trkpt><trkpt lat="41.0706283" lon="14.9207933"><ele>238.00000000000003</ele><time>2026-04-19T07:21:32.15Z</time></trkpt><trkpt lat="41.0705617" lon="14.9207367"><ele>237.0</ele><time>2026-04-19T07:21:33.15Z</time></trkpt><trkpt lat="41.0704933" lon="14.9206783"><ele>236.0</ele><time>2026-04-19T07:21:34.15Z</time></trkpt><trkpt lat="41.0704283" lon="14.9206183"><ele>235.0</ele><time>2026-04-19T07:21:35.149Z</time></trkpt><trkpt lat="41.0703667" lon="14.92056"><ele>234.00000000000003</ele><time>2026-04-19T07:21:36.15Z</time></trkpt><trkpt lat="41.0703033" lon="14.9205033"><ele>233.0</ele><time>2026-04-19T07:21:37.15Z</time></trkpt><trkpt lat="41.07024" lon="14.920455"><ele>233.00000000000003</ele><time>2026-04-19T07:21:38.15Z</time></trkpt><trkpt lat="41.0701833" lon="14.92041"><ele>233.0</ele><time>2026-04-19T07:21:39.15Z</time></trkpt><trkpt lat="41.0700933" lon="14.92033"><ele>233.0</ele><time>2026-04-19T07:21:41.149Z</time></trkpt><trkpt lat="41.0700383" lon="14.92028"><ele>233.0</ele><time>2026-04-19T07:21:43.15Z</time></trkpt><trkpt lat="41.0699383" lon="14.920175"><ele>233.00000000000003</ele><time>2026-04-19T07:21:59.15Z</time></trkpt><trkpt lat="41.0698917" lon="14.9201067"><ele>233.0</ele><time>2026-04-19T07:22:02.15Z</time></trkpt><trkpt lat="41.0698283" lon="14.920025"><ele>233.8</ele><time>2026-04-19T07:22:05.15Z</time></trkpt><trkpt lat="41.0697667" lon="14.9199417"><ele>234.60000000000002</ele><time>2026-04-19T07:22:07.15Z</time></trkpt><trkpt lat="41.06968" lon="14.919825"><ele>235.39999999999998</ele><time>2026-04-19T07:22:09.15Z</time></trkpt><trkpt lat="41.0696283" lon="14.9197517"><ele>236.2</ele><time>2026-04-19T07:22:10.15Z</time></trkpt><trkpt lat="41.0695833" lon="14.919665"><ele>237.0</ele><time>2026-04-19T07:22:11.15Z</time></trkpt><trkpt lat="41.0695383" lon="14.9195667"><ele>237.0</ele><time>2026-04-19T07:22:12.15Z</time></trkpt><trkpt lat="41.0694967" lon="14.9194617"><ele>237.0</ele><time>2026-04-19T07:22:13.15Z</time></trkpt><trkpt lat="41.0694567" lon="14.9193617"><ele>237.0</ele><time>2026-04-19T07:22:14.15Z</time></trkpt><trkpt lat="41.0694167" lon="14.9192767"><ele>237.0</ele><time>2026-04-19T07:22:15.149Z</time></trkpt><trkpt lat="41.0693783" lon="14.9192067"><ele>237.0</ele><time>2026-04-19T07:22:16.15Z</time></trkpt><trkpt lat="41.069325" lon="14.9190967"><ele>237.0</ele><time>2026-04-19T07:22:18.149Z</time></trkpt><trkpt lat="41.06928" lon="14.918995"><ele>237.6</ele><time>2026-04-19T07:23:10.149Z</time></trkpt><trkpt lat="41.0692083" lon="14.918905"><ele>238.2</ele><time>2026-04-19T07:23:12.15Z</time></trkpt><trkpt lat="41.06912" lon="14.91878"><ele>238.8</ele><time>2026-04-19T07:23:14.15Z</time></trkpt><trkpt lat="41.0690667" lon="14.9187067"><ele>239.4</ele><time>2026-04-19T07:23:15.15Z</time></trkpt><trkpt lat="41.0690117" lon="14.9186283"><ele>240.0</ele><time>2026-04-19T07:23:16.15Z</time></trkpt><trkpt lat="41.0689533" lon="14.9185567"><ele>240.0</ele><time>2026-04-19T07:23:17.149Z</time></trkpt><trkpt lat="41.0688967" lon="14.918485"><ele>240.0</ele><time>2026-04-19T07:23:18.149Z</time></trkpt><trkpt lat="41.0688383" lon="14.9184117"><ele>240.0</ele><time>2026-04-19T07:23:19.15Z</time></trkpt><trkpt lat="41.068775" lon="14.9183383"><ele>240.0</ele><time>2026-04-19T07:23:20.15Z</time></trkpt><trkpt lat="41.06871" lon="14.9182567"><ele>240.0</ele><time>2026-04-19T07:23:21.15Z</time></trkpt><trkpt lat="41.0686433" lon="14.9181783"><ele>240.0</ele><time>2026-04-19T07:23:22.149Z</time></trkpt><trkpt lat="41.0685833" lon="14.9180967"><ele>241.5</ele><time>2026-04-19T07:23:23.15Z</time></trkpt><trkpt lat="41.06852" lon="14.9180167"><ele>243.0</ele><time>2026-04-19T07:23:24.15Z</time></trkpt><trkpt lat="41.06846" lon="14.9179317"><ele>244.5</ele><time>2026-04-19T07:23:25.15Z</time></trkpt><trkpt lat="41.0684" lon="14.91785"><ele>246.0</ele><time>2026-04-19T07:23:26.15Z</time></trkpt><trkpt lat="41.068335" lon="14.9177617"><ele>247.5</ele><time>2026-04-19T07:23:27.149Z</time></trkpt><trkpt lat="41.0682767" lon="14.9176667"><ele>249.0</ele><time>2026-04-19T07:23:28.15Z</time></trkpt><trkpt lat="41.06822" lon="14.9175633"><ele>249.39999999999998</ele><time>2026-04-19T07:23:29.15Z</time></trkpt><trkpt lat="41.068165" lon="14.91745"><ele>249.79999999999998</ele><time>2026-04-19T07:23:30.15Z</time></trkpt><trkpt lat="41.068115" lon="14.9173267"><ele>250.20000000000002</ele><time>2026-04-19T07:23:31.15Z</time></trkpt><trkpt lat="41.0680617" lon="14.91719"><ele>250.60000000000002</ele><time>2026-04-19T07:23:32.149Z</time></trkpt><trkpt lat="41.0680183" lon="14.9170533"><ele>251.0</ele><time>2026-04-19T07:23:33.15Z</time></trkpt><trkpt lat="41.067975" lon="14.9169183"><ele>251.0</ele><time>2026-04-19T07:23:34.15Z</time></trkpt><trkpt lat="41.0679333" lon="14.9167833"><ele>251.0</ele><time>2026-04-19T07:23:35.15Z</time></trkpt><trkpt lat="41.0678883" lon="14.9166417"><ele>251.0</ele><time>2026-04-19T07:23:36.15Z</time></trkpt><trkpt lat="41.067855" lon="14.9164917"><ele>251.0</ele><time>2026-04-19T07:23:37.149Z</time></trkpt><trkpt lat="41.0678267" lon="14.9163367"><ele>252.75</ele><time>2026-04-19T07:23:38.15Z</time></trkpt><trkpt lat="41.0678067" lon="14.9161733"><ele>254.5</ele><time>2026-04-19T07:23:39.15Z</time></trkpt><trkpt lat="41.0677933" lon="14.916005"><ele>256.25</ele><time>2026-04-19T07:23:40.149Z</time></trkpt><trkpt lat="41.0677883" lon="14.91583"><ele>258.0</ele><time>2026-04-19T07:23:41.15Z</time></trkpt><trkpt lat="41.06779" lon="14.9156483"><ele>259.0</ele><time>2026-04-19T07:23:42.149Z</time></trkpt><trkpt lat="41.067795" lon="14.915465"><ele>260.0</ele><time>2026-04-19T07:23:43.15Z</time></trkpt><trkpt lat="41.067815" lon="14.9152883"><ele>261.0</ele><time>2026-04-19T07:23:44.15Z</time></trkpt><trkpt lat="41.0678417" lon="14.91511"><ele>262.0</ele><time>2026-04-19T07:23:45.15Z</time></trkpt><trkpt lat="41.0678783" lon="14.9149333"><ele>262.0</ele><time>2026-04-19T07:23:46.15Z</time></trkpt><trkpt lat="41.06791" lon="14.9147467"><ele>262.0</ele><time>2026-04-19T07:23:47.149Z</time></trkpt><trkpt lat="41.06795" lon="14.9145633"><ele>262.0</ele><time>2026-04-19T07:23:48.15Z</time></trkpt><trkpt lat="41.0679833" lon="14.9143733"><ele>262.0</ele><time>2026-04-19T07:23:49.15Z</time></trkpt><trkpt lat="41.0680183" lon="14.91419"><ele>263.25</ele><time>2026-04-19T07:23:50.15Z</time></trkpt><trkpt lat="41.06806" lon="14.9139917"><ele>264.5</ele><time>2026-04-19T07:23:51.15Z</time></trkpt><trkpt lat="41.0681083" lon="14.9138033"><ele>265.75</ele><time>2026-04-19T07:23:52.15Z</time></trkpt><trkpt lat="41.0681483" lon="14.91362"><ele>267.0</ele><time>2026-04-19T07:23:53.149Z</time></trkpt><trkpt lat="41.0681883" lon="14.913425"><ele>267.6666666666667</ele><time>2026-04-19T07:23:54.15Z</time></trkpt><trkpt lat="41.06823" lon="14.9132317"><ele>268.33333333333337</ele><time>2026-04-19T07:23:55.15Z</time></trkpt><trkpt lat="41.0682717" lon="14.9130367"><ele>269.0</ele><time>2026-04-19T07:23:56.15Z</time></trkpt><trkpt lat="41.0683133" lon="14.91284"><ele>269.0</ele><time>2026-04-19T07:23:57.15Z</time></trkpt><trkpt lat="41.0683533" lon="14.912645"><ele>269.0</ele><time>2026-04-19T07:23:58.15Z</time></trkpt><trkpt lat="41.0683967" lon="14.912445"><ele>269.0</ele><time>2026-04-19T07:23:59.149Z</time></trkpt><trkpt lat="41.06844" lon="14.912245"><ele>269.0</ele><time>2026-04-19T07:24:00.15Z</time></trkpt><trkpt lat="41.0684767" lon="14.91204"><ele>269.0</ele><time>2026-04-19T07:24:01.149Z</time></trkpt><trkpt lat="41.068515" lon="14.9118317"><ele>269.0</ele><time>2026-04-19T07:24:02.149Z</time></trkpt><trkpt lat="41.0685433" lon="14.9116217"><ele>269.0</ele><time>2026-04-19T07:24:03.15Z</time></trkpt><trkpt lat="41.0685717" lon="14.911415"><ele>269.0</ele><time>2026-04-19T07:24:04.15Z</time></trkpt><trkpt lat="41.068595" lon="14.9112"><ele>269.0</ele><time>2026-04-19T07:24:05.15Z</time></trkpt><trkpt lat="41.0686167" lon="14.91098"><ele>269.6666666666667</ele><time>2026-04-19T07:24:06.15Z</time></trkpt><trkpt lat="41.0686267" lon="14.9107633"><ele>270.3333333333333</ele><time>2026-04-19T07:24:07.15Z</time></trkpt><trkpt lat="41.0686333" lon="14.9105517"><ele>271.0</ele><time>2026-04-19T07:24:08.15Z</time></trkpt><trkpt lat="41.0686267" lon="14.910345"><ele>271.0</ele><time>2026-04-19T07:24:09.149Z</time></trkpt><trkpt lat="41.0686183" lon="14.9101417"><ele>271.0</ele><time>2026-04-19T07:24:10.149Z</time></trkpt><trkpt lat="41.0686067" lon="14.9099367"><ele>271.0</ele><time>2026-04-19T07:24:11.149Z</time></trkpt><trkpt lat="41.068585" lon="14.90973"><ele>271.0</ele><time>2026-04-19T07:24:12.15Z</time></trkpt><trkpt lat="41.0685633" lon="14.90952"><ele>271.0</ele><time>2026-04-19T07:24:13.149Z</time></trkpt><trkpt lat="41.068535" lon="14.9093133"><ele>271.0</ele><time>2026-04-19T07:24:14.15Z</time></trkpt><trkpt lat="41.0684983" lon="14.9091033"><ele>271.0</ele><time>2026-04-19T07:24:15.15Z</time></trkpt><trkpt lat="41.0684567" lon="14.908895"><ele>271.0</ele><time>2026-04-19T07:24:16.15Z</time></trkpt><trkpt lat="41.06841" lon="14.9086833"><ele>271.0</ele><time>2026-04-19T07:24:17.15Z</time></trkpt><trkpt lat="41.0683583" lon="14.9084767"><ele>270.0</ele><time>2026-04-19T07:24:18.15Z</time></trkpt><trkpt lat="41.0683117" lon="14.9082667"><ele>269.0</ele><time>2026-04-19T07:24:19.15Z</time></trkpt><trkpt lat="41.06826" lon="14.908065"><ele>268.0</ele><time>2026-04-19T07:24:20.149Z</time></trkpt><trkpt lat="41.06821" lon="14.907865"><ele>270.0</ele><time>2026-04-19T07:24:21.15Z</time></trkpt><trkpt lat="41.068155" lon="14.90766"><ele>272.0</ele><time>2026-04-19T07:24:22.15Z</time></trkpt><trkpt lat="41.0681" lon="14.9074533"><ele>274.0</ele><time>2026-04-19T07:24:23.15Z</time></trkpt><trkpt lat="41.0680483" lon="14.907245"><ele>274.0</ele><time>2026-04-19T07:24:24.15Z</time></trkpt><trkpt lat="41.06799" lon="14.907045"><ele>274.0</ele><time>2026-04-19T07:24:25.149Z</time></trkpt><trkpt lat="41.06794" lon="14.90684"><ele>274.0</ele><time>2026-04-19T07:24:26.15Z</time></trkpt><trkpt lat="41.0678917" lon="14.906635"><ele>272.66666666666663</ele><time>2026-04-19T07:24:27.149Z</time></trkpt><trkpt lat="41.0678417" lon="14.9064233"><ele>271.3333333333333</ele><time>2026-04-19T07:24:28.15Z</time></trkpt><trkpt lat="41.0677917" lon="14.9062183"><ele>270.0</ele><time>2026-04-19T07:24:29.15Z</time></trkpt><trkpt lat="41.0677383" lon="14.906015"><ele>267.6666666666667</ele><time>2026-04-19T07:24:30.149Z</time></trkpt><trkpt lat="41.0676967" lon="14.9058017"><ele>265.33333333333337</ele><time>2026-04-19T07:24:31.149Z</time></trkpt><trkpt lat="41.0676617" lon="14.9055833"><ele>263.0</ele><time>2026-04-19T07:24:32.15Z</time></trkpt><trkpt lat="41.0676267" lon="14.9053683"><ele>263.0</ele><time>2026-04-19T07:24:33.149Z</time></trkpt><trkpt lat="41.0676083" lon="14.9051483"><ele>263.0</ele><time>2026-04-19T07:24:34.15Z</time></trkpt><trkpt lat="41.0675883" lon="14.9049333"><ele>263.0</ele><time>2026-04-19T07:24:35.15Z</time></trkpt><trkpt lat="41.0675717" lon="14.9047167"><ele>261.33333333333337</ele><time>2026-04-19T07:24:36.15Z</time></trkpt><trkpt lat="41.06756" lon="14.9044967"><ele>259.6666666666667</ele><time>2026-04-19T07:24:37.15Z</time></trkpt><trkpt lat="41.0675567" lon="14.904275"><ele>258.0</ele><time>2026-04-19T07:24:38.15Z</time></trkpt><trkpt lat="41.0675583" lon="14.9040533"><ele>256.6666666666667</ele><time>2026-04-19T07:24:39.15Z</time></trkpt><trkpt lat="41.0675683" lon="14.9038333"><ele>255.33333333333334</ele><time>2026-04-19T07:24:40.149Z</time></trkpt><trkpt lat="41.0675833" lon="14.9036033"><ele>254.0</ele><time>2026-04-19T07:24:41.149Z</time></trkpt><trkpt lat="41.0676083" lon="14.90338"><ele>252.66666666666669</ele><time>2026-04-19T07:24:42.15Z</time></trkpt><trkpt lat="41.06764" lon="14.9031483"><ele>251.33333333333331</ele><time>2026-04-19T07:24:43.149Z</time></trkpt><trkpt lat="41.0676733" lon="14.9029167"><ele>250.0</ele><time>2026-04-19T07:24:44.15Z</time></trkpt><trkpt lat="41.06771" lon="14.9026817"><ele>248.0</ele><time>2026-04-19T07:24:45.15Z</time></trkpt><trkpt lat="41.0677517" lon="14.9024517"><ele>246.0</ele><time>2026-04-19T07:24:46.15Z</time></trkpt><trkpt lat="41.0677883" lon="14.9022133"><ele>244.0</ele><time>2026-04-19T07:24:47.15Z</time></trkpt><trkpt lat="41.067825" lon="14.9019783"><ele>242.33333333333331</ele><time>2026-04-19T07:24:48.15Z</time></trkpt><trkpt lat="41.0678583" lon="14.9017467"><ele>240.66666666666669</ele><time>2026-04-19T07:24:49.15Z</time></trkpt><trkpt lat="41.06789" lon="14.9015283"><ele>239.0</ele><time>2026-04-19T07:24:50.149Z</time></trkpt><trkpt lat="41.06792" lon="14.90132"><ele>239.0</ele><time>2026-04-19T07:24:51.15Z</time></trkpt><trkpt lat="41.0679533" lon="14.9011133"><ele>239.0</ele><time>2026-04-19T07:24:52.15Z</time></trkpt><trkpt lat="41.06799" lon="14.9009117"><ele>239.0</ele><time>2026-04-19T07:24:53.15Z</time></trkpt><trkpt lat="41.0680233" lon="14.9007167"><ele>239.66666666666669</ele><time>2026-04-19T07:24:54.149Z</time></trkpt><trkpt lat="41.0680583" lon="14.90052"><ele>240.33333333333331</ele><time>2026-04-19T07:24:55.15Z</time></trkpt><trkpt lat="41.0680917" lon="14.9003167"><ele>241.0</ele><time>2026-04-19T07:24:56.15Z</time></trkpt><trkpt lat="41.0681283" lon="14.9001117"><ele>242.66666666666666</ele><time>2026-04-19T07:24:57.15Z</time></trkpt><trkpt lat="41.06816" lon="14.8998983"><ele>244.33333333333331</ele><time>2026-04-19T07:24:58.15Z</time></trkpt><trkpt lat="41.0681933" lon="14.89968"><ele>246.0</ele><time>2026-04-19T07:24:59.15Z</time></trkpt><trkpt lat="41.0682317" lon="14.8994633"><ele>246.0</ele><time>2026-04-19T07:25:00.15Z</time></trkpt><trkpt lat="41.0682667" lon="14.8992517"><ele>246.0</ele><time>2026-04-19T07:25:01.149Z</time></trkpt><trkpt lat="41.0682917" lon="14.89904"><ele>246.0</ele><time>2026-04-19T07:25:02.149Z</time></trkpt><trkpt lat="41.0683183" lon="14.8988233"><ele>251.33333333333331</ele><time>2026-04-19T07:25:03.15Z</time></trkpt><trkpt lat="41.0683433" lon="14.8986033"><ele>256.66666666666663</ele><time>2026-04-19T07:25:04.15Z</time></trkpt><trkpt lat="41.0683633" lon="14.8983883"><ele>262.0</ele><time>2026-04-19T07:25:05.149Z</time></trkpt><trkpt lat="41.0683867" lon="14.8981633"><ele>262.66666666666663</ele><time>2026-04-19T07:25:06.15Z</time></trkpt><trkpt lat="41.06841" lon="14.8979383"><ele>263.3333333333333</ele><time>2026-04-19T07:25:07.149Z</time></trkpt><trkpt lat="41.068425" lon="14.8977117"><ele>264.0</ele><time>2026-04-19T07:25:08.15Z</time></trkpt><trkpt lat="41.0684383" lon="14.8974783"><ele>264.3333333333333</ele><time>2026-04-19T07:25:09.15Z</time></trkpt><trkpt lat="41.0684517" lon="14.8972533"><ele>264.66666666666663</ele><time>2026-04-19T07:25:10.15Z</time></trkpt><trkpt lat="41.0684633" lon="14.8970283"><ele>265.0</ele><time>2026-04-19T07:25:11.149Z</time></trkpt><trkpt lat="41.0684783" lon="14.8967933"><ele>267.3333333333333</ele><time>2026-04-19T07:25:12.15Z</time></trkpt><trkpt lat="41.06849" lon="14.8965617"><ele>269.6666666666667</ele><time>2026-04-19T07:25:13.15Z</time></trkpt><trkpt lat="41.0685" lon="14.89632"><ele>272.0</ele><time>2026-04-19T07:25:14.149Z</time></trkpt><trkpt lat="41.06851" lon="14.8960817"><ele>272.6666666666667</ele><time>2026-04-19T07:25:15.15Z</time></trkpt><trkpt lat="41.0685117" lon="14.8958483"><ele>273.3333333333333</ele><time>2026-04-19T07:25:16.15Z</time></trkpt><trkpt lat="41.0685133" lon="14.8956017"><ele>274.0</ele><time>2026-04-19T07:25:17.15Z</time></trkpt><trkpt lat="41.068515" lon="14.8953483"><ele>274.0</ele><time>2026-04-19T07:25:18.15Z</time></trkpt><trkpt lat="41.0685117" lon="14.8951"><ele>274.0</ele><time>2026-04-19T07:25:19.15Z</time></trkpt><trkpt lat="41.0685067" lon="14.8948483"><ele>274.0</ele><time>2026-04-19T07:25:20.149Z</time></trkpt><trkpt lat="41.0685" lon="14.8946"><ele>274.66666666666663</ele><time>2026-04-19T07:25:21.149Z</time></trkpt><trkpt lat="41.06849" lon="14.89435"><ele>275.3333333333333</ele><time>2026-04-19T07:25:22.149Z</time></trkpt><trkpt lat="41.068475" lon="14.89409"><ele>276.0</ele><time>2026-04-19T07:25:23.15Z</time></trkpt><trkpt lat="41.0684617" lon="14.8938383"><ele>278.0</ele><time>2026-04-19T07:25:24.15Z</time></trkpt><trkpt lat="41.06844" lon="14.8935917"><ele>280.0</ele><time>2026-04-19T07:25:25.15Z</time></trkpt><trkpt lat="41.0684217" lon="14.8933383"><ele>282.0</ele><time>2026-04-19T07:25:26.149Z</time></trkpt><trkpt lat="41.0684033" lon="14.8930933"><ele>284.3333333333333</ele><time>2026-04-19T07:25:27.15Z</time></trkpt><trkpt lat="41.0683833" lon="14.89285"><ele>286.66666666666663</ele><time>2026-04-19T07:25:28.15Z</time></trkpt><trkpt lat="41.0683717" lon="14.8926083"><ele>289.0</ele><time>2026-04-19T07:25:29.15Z</time></trkpt><trkpt lat="41.0683533" lon="14.8923667"><ele>290.66666666666663</ele><time>2026-04-19T07:25:30.15Z</time></trkpt><trkpt lat="41.0683333" lon="14.8921233"><ele>292.3333333333333</ele><time>2026-04-19T07:25:31.15Z</time></trkpt><trkpt lat="41.0683133" lon="14.891875"><ele>294.0</ele><time>2026-04-19T07:25:32.15Z</time></trkpt><trkpt lat="41.06829" lon="14.89163"><ele>291.6666666666667</ele><time>2026-04-19T07:25:33.15Z</time></trkpt><trkpt lat="41.0682683" lon="14.89139"><ele>289.33333333333337</ele><time>2026-04-19T07:25:34.15Z</time></trkpt><trkpt lat="41.068245" lon="14.8911467"><ele>287.0</ele><time>2026-04-19T07:25:35.15Z</time></trkpt><trkpt lat="41.0682217" lon="14.890905"><ele>287.0</ele><time>2026-04-19T07:25:36.15Z</time></trkpt><trkpt lat="41.0681967" lon="14.8906683"><ele>287.0</ele><time>2026-04-19T07:25:37.15Z</time></trkpt><trkpt lat="41.0681767" lon="14.8904233"><ele>287.0</ele><time>2026-04-19T07:25:38.15Z</time></trkpt><trkpt lat="41.0681617" lon="14.8901817"><ele>290.0</ele><time>2026-04-19T07:25:39.15Z</time></trkpt><trkpt lat="41.068145" lon="14.8899383"><ele>293.0</ele><time>2026-04-19T07:25:40.149Z</time></trkpt><trkpt lat="41.0681367" lon="14.8896983"><ele>296.0</ele><time>2026-04-19T07:25:41.149Z</time></trkpt><trkpt lat="41.06813" lon="14.8894567"><ele>299.0</ele><time>2026-04-19T07:25:42.15Z</time></trkpt><trkpt lat="41.0681317" lon="14.8892117"><ele>302.0</ele><time>2026-04-19T07:25:43.149Z</time></trkpt><trkpt lat="41.06814" lon="14.88897"><ele>305.0</ele><time>2026-04-19T07:25:44.15Z</time></trkpt><trkpt lat="41.0681567" lon="14.888725"><ele>305.0</ele><time>2026-04-19T07:25:45.15Z</time></trkpt><trkpt lat="41.06818" lon="14.8884817"><ele>305.0</ele><time>2026-04-19T07:25:46.149Z</time></trkpt><trkpt lat="41.0682117" lon="14.8882317"><ele>305.0</ele><time>2026-04-19T07:25:47.149Z</time></trkpt><trkpt lat="41.068245" lon="14.8879933"><ele>307.6666666666667</ele><time>2026-04-19T07:25:48.15Z</time></trkpt><trkpt lat="41.068295" lon="14.8877467"><ele>310.3333333333333</ele><time>2026-04-19T07:25:49.15Z</time></trkpt><trkpt lat="41.0683383" lon="14.8875117"><ele>313.0</ele><time>2026-04-19T07:25:50.149Z</time></trkpt><trkpt lat="41.06839" lon="14.88727"><ele>313.0</ele><time>2026-04-19T07:25:51.149Z</time></trkpt><trkpt lat="41.0684467" lon="14.8870317"><ele>313.0</ele><time>2026-04-19T07:25:52.15Z</time></trkpt><trkpt lat="41.068505" lon="14.886795"><ele>313.0</ele><time>2026-04-19T07:25:53.15Z</time></trkpt><trkpt lat="41.06857" lon="14.8865533"><ele>312.66666666666663</ele><time>2026-04-19T07:25:54.15Z</time></trkpt><trkpt lat="41.0686233" lon="14.8863133"><ele>312.3333333333333</ele><time>2026-04-19T07:25:55.15Z</time></trkpt><trkpt lat="41.0686783" lon="14.8860783"><ele>312.0</ele><time>2026-04-19T07:25:56.149Z</time></trkpt><trkpt lat="41.068735" lon="14.8858383"><ele>312.0</ele><time>2026-04-19T07:25:57.15Z</time></trkpt><trkpt lat="41.0687983" lon="14.8856133"><ele>312.0</ele><time>2026-04-19T07:25:58.15Z</time></trkpt><trkpt lat="41.0688583" lon="14.8853967"><ele>312.0</ele><time>2026-04-19T07:25:59.149Z</time></trkpt><trkpt lat="41.06891" lon="14.885185"><ele>312.0</ele><time>2026-04-19T07:26:00.15Z</time></trkpt><trkpt lat="41.06896" lon="14.8849683"><ele>312.0</ele><time>2026-04-19T07:26:01.15Z</time></trkpt><trkpt lat="41.06901" lon="14.8847483"><ele>312.0</ele><time>2026-04-19T07:26:02.15Z</time></trkpt><trkpt lat="41.0690533" lon="14.8845233"><ele>312.0</ele><time>2026-04-19T07:26:03.149Z</time></trkpt><trkpt lat="41.0690867" lon="14.8843"><ele>312.0</ele><time>2026-04-19T07:26:04.149Z</time></trkpt><trkpt lat="41.069115" lon="14.884065"><ele>312.0</ele><time>2026-04-19T07:26:05.15Z</time></trkpt><trkpt lat="41.0691417" lon="14.8838283"><ele>311.3333333333333</ele><time>2026-04-19T07:26:06.149Z</time></trkpt><trkpt lat="41.0691617" lon="14.8835867"><ele>310.66666666666663</ele><time>2026-04-19T07:26:07.15Z</time></trkpt><trkpt lat="41.0691767" lon="14.88334"><ele>310.0</ele><time>2026-04-19T07:26:08.149Z</time></trkpt><trkpt lat="41.06918" lon="14.8830917"><ele>310.0</ele><time>2026-04-19T07:26:09.149Z</time></trkpt><trkpt lat="41.0691783" lon="14.8828433"><ele>310.0</ele><time>2026-04-19T07:26:10.149Z</time></trkpt><trkpt lat="41.06917" lon="14.8825917"><ele>310.0</ele><time>2026-04-19T07:26:11.149Z</time></trkpt><trkpt lat="41.0691467" lon="14.882345"><ele>309.0</ele><time>2026-04-19T07:26:12.149Z</time></trkpt><trkpt lat="41.0691183" lon="14.8820917"><ele>308.0</ele><time>2026-04-19T07:26:13.15Z</time></trkpt><trkpt lat="41.0690767" lon="14.8818433"><ele>307.0</ele><time>2026-04-19T07:26:14.15Z</time></trkpt><trkpt lat="41.0690283" lon="14.8815917"><ele>307.0</ele><time>2026-04-19T07:26:15.149Z</time></trkpt><trkpt lat="41.06897" lon="14.88135"><ele>307.0</ele><time>2026-04-19T07:26:16.15Z</time></trkpt><trkpt lat="41.06891" lon="14.8811117"><ele>307.0</ele><time>2026-04-19T07:26:17.15Z</time></trkpt><trkpt lat="41.06885" lon="14.8808733"><ele>307.0</ele><time>2026-04-19T07:26:18.15Z</time></trkpt><trkpt lat="41.0687867" lon="14.8806333"><ele>307.0</ele><time>2026-04-19T07:26:19.149Z</time></trkpt><trkpt lat="41.0687233" lon="14.8803883"><ele>307.0</ele><time>2026-04-19T07:26:20.15Z</time></trkpt><trkpt lat="41.0686583" lon="14.880145"><ele>308.0</ele><time>2026-04-19T07:26:21.149Z</time></trkpt><trkpt lat="41.0685917" lon="14.8799017"><ele>309.0</ele><time>2026-04-19T07:26:22.149Z</time></trkpt><trkpt lat="41.0685267" lon="14.879665"><ele>310.0</ele><time>2026-04-19T07:26:23.15Z</time></trkpt><trkpt lat="41.0684667" lon="14.87942"><ele>310.66666666666663</ele><time>2026-04-19T07:26:24.149Z</time></trkpt><trkpt lat="41.0684017" lon="14.8791833"><ele>311.3333333333333</ele><time>2026-04-19T07:26:25.15Z</time></trkpt><trkpt lat="41.0683367" lon="14.878945"><ele>312.0</ele><time>2026-04-19T07:26:26.15Z</time></trkpt><trkpt lat="41.0682717" lon="14.878715"><ele>312.0</ele><time>2026-04-19T07:26:27.15Z</time></trkpt><trkpt lat="41.0682083" lon="14.87848"><ele>312.0</ele><time>2026-04-19T07:26:28.149Z</time></trkpt><trkpt lat="41.0681433" lon="14.87825"><ele>312.0</ele><time>2026-04-19T07:26:29.15Z</time></trkpt><trkpt lat="41.06808" lon="14.8780133"><ele>313.0</ele><time>2026-04-19T07:26:30.15Z</time></trkpt><trkpt lat="41.068025" lon="14.8777767"><ele>314.0</ele><time>2026-04-19T07:26:31.15Z</time></trkpt><trkpt lat="41.0679817" lon="14.877535"><ele>315.0</ele><time>2026-04-19T07:26:32.149Z</time></trkpt><trkpt lat="41.06794" lon="14.8772967"><ele>317.0</ele><time>2026-04-19T07:26:33.15Z</time></trkpt><trkpt lat="41.0679067" lon="14.8770517"><ele>319.0</ele><time>2026-04-19T07:26:34.149Z</time></trkpt><trkpt lat="41.0678817" lon="14.87681"><ele>321.0</ele><time>2026-04-19T07:26:35.15Z</time></trkpt><trkpt lat="41.0678667" lon="14.8765717"><ele>324.0</ele><time>2026-04-19T07:26:36.149Z</time></trkpt><trkpt lat="41.0678533" lon="14.87633"><ele>327.0</ele><time>2026-04-19T07:26:37.15Z</time></trkpt><trkpt lat="41.06785" lon="14.8760983"><ele>330.0</ele><time>2026-04-19T07:26:38.15Z</time></trkpt><trkpt lat="41.0678483" lon="14.8758717"><ele>331.6666666666667</ele><time>2026-04-19T07:26:39.149Z</time></trkpt><trkpt lat="41.0678567" lon="14.8756367"><ele>333.33333333333337</ele><time>2026-04-19T07:26:40.149Z</time></trkpt><trkpt lat="41.0678733" lon="14.8754083"><ele>335.0</ele><time>2026-04-19T07:26:41.15Z</time></trkpt><trkpt lat="41.0678933" lon="14.875195"><ele>337.33333333333337</ele><time>2026-04-19T07:26:42.149Z</time></trkpt><trkpt lat="41.06792" lon="14.8749833"><ele>339.6666666666667</ele><time>2026-04-19T07:26:43.15Z</time></trkpt><trkpt lat="41.0679433" lon="14.8747583"><ele>342.0</ele><time>2026-04-19T07:26:44.149Z</time></trkpt><trkpt lat="41.0679633" lon="14.8745317"><ele>342.0</ele><time>2026-04-19T07:26:45.149Z</time></trkpt><trkpt lat="41.0679933" lon="14.8742967"><ele>342.0</ele><time>2026-04-19T07:26:46.15Z</time></trkpt><trkpt lat="41.0680167" lon="14.8740633"><ele>342.0</ele><time>2026-04-19T07:26:47.15Z</time></trkpt><trkpt lat="41.0680433" lon="14.8738267"><ele>342.6666666666667</ele><time>2026-04-19T07:26:48.15Z</time></trkpt><trkpt lat="41.0680683" lon="14.8735867"><ele>343.33333333333337</ele><time>2026-04-19T07:26:49.149Z</time></trkpt><trkpt lat="41.0680917" lon="14.87335"><ele>344.0</ele><time>2026-04-19T07:26:50.15Z</time></trkpt><trkpt lat="41.0681133" lon="14.8731133"><ele>345.0</ele><time>2026-04-19T07:26:51.15Z</time></trkpt><trkpt lat="41.0681383" lon="14.87288"><ele>346.0</ele><time>2026-04-19T07:26:52.15Z</time></trkpt><trkpt lat="41.0681617" lon="14.872645"><ele>347.0</ele><time>2026-04-19T07:26:53.149Z</time></trkpt><trkpt lat="41.068185" lon="14.8724067"><ele>347.0</ele><time>2026-04-19T07:26:54.15Z</time></trkpt><trkpt lat="41.068205" lon="14.8721617"><ele>347.0</ele><time>2026-04-19T07:26:55.15Z</time></trkpt><trkpt lat="41.0682233" lon="14.8719183"><ele>347.0</ele><time>2026-04-19T07:26:56.15Z</time></trkpt><trkpt lat="41.06824" lon="14.8716717"><ele>346.0</ele><time>2026-04-19T07:26:57.15Z</time></trkpt><trkpt lat="41.0682517" lon="14.87142"><ele>345.0</ele><time>2026-04-19T07:26:58.149Z</time></trkpt><trkpt lat="41.0682567" lon="14.8711617"><ele>344.0</ele><time>2026-04-19T07:26:59.15Z</time></trkpt><trkpt lat="41.0682633" lon="14.870905"><ele>343.6666666666667</ele><time>2026-04-19T07:27:00.15Z</time></trkpt><trkpt lat="41.0682667" lon="14.870645"><ele>343.3333333333333</ele><time>2026-04-19T07:27:01.149Z</time></trkpt><trkpt lat="41.0682633" lon="14.8703783"><ele>343.0</ele><time>2026-04-19T07:27:02.15Z</time></trkpt><trkpt lat="41.0682583" lon="14.8701133"><ele>343.66666666666663</ele><time>2026-04-19T07:27:03.15Z</time></trkpt><trkpt lat="41.0682483" lon="14.8698617"><ele>344.3333333333333</ele><time>2026-04-19T07:27:04.15Z</time></trkpt><trkpt lat="41.0682383" lon="14.8696067"><ele>345.0</ele><time>2026-04-19T07:27:05.149Z</time></trkpt><trkpt lat="41.0682267" lon="14.869345"><ele>345.3333333333333</ele><time>2026-04-19T07:27:06.15Z</time></trkpt><trkpt lat="41.06821" lon="14.86908"><ele>345.66666666666663</ele><time>2026-04-19T07:27:07.15Z</time></trkpt><trkpt lat="41.0681933" lon="14.8688167"><ele>346.0</ele><time>2026-04-19T07:27:08.149Z</time></trkpt><trkpt lat="41.068165" lon="14.8685567"><ele>348.3333333333333</ele><time>2026-04-19T07:27:09.15Z</time></trkpt><trkpt lat="41.0681417" lon="14.8682933"><ele>350.6666666666667</ele><time>2026-04-19T07:27:10.149Z</time></trkpt><trkpt lat="41.0681117" lon="14.8680283"><ele>353.0</ele><time>2026-04-19T07:27:11.15Z</time></trkpt><trkpt lat="41.068075" lon="14.8677733"><ele>355.0</ele><time>2026-04-19T07:27:12.15Z</time></trkpt><trkpt lat="41.0680367" lon="14.867515"><ele>357.0</ele><time>2026-04-19T07:27:13.15Z</time></trkpt><trkpt lat="41.0679983" lon="14.8672583"><ele>359.0</ele><time>2026-04-19T07:27:14.149Z</time></trkpt><trkpt lat="41.0679617" lon="14.8670067"><ele>360.0</ele><time>2026-04-19T07:27:15.149Z</time></trkpt><trkpt lat="41.06792" lon="14.866765"><ele>361.0</ele><time>2026-04-19T07:27:16.149Z</time></trkpt><trkpt lat="41.0678783" lon="14.866515"><ele>362.0</ele><time>2026-04-19T07:27:17.15Z</time></trkpt><trkpt lat="41.0678333" lon="14.8662733"><ele>362.0</ele><time>2026-04-19T07:27:18.15Z</time></trkpt><trkpt lat="41.067785" lon="14.8660317"><ele>362.0</ele><time>2026-04-19T07:27:19.149Z</time></trkpt><trkpt lat="41.0677433" lon="14.8657783"><ele>362.0</ele><time>2026-04-19T07:27:20.15Z</time></trkpt><trkpt lat="41.0676983" lon="14.8655267"><ele>363.33333333333337</ele><time>2026-04-19T07:27:21.149Z</time></trkpt><trkpt lat="41.06765" lon="14.8652733"><ele>364.6666666666667</ele><time>2026-04-19T07:27:22.15Z</time></trkpt><trkpt lat="41.0676017" lon="14.8650167"><ele>366.0</ele><time>2026-04-19T07:27:23.15Z</time></trkpt><trkpt lat="41.0675583" lon="14.8647517"><ele>367.0</ele><time>2026-04-19T07:27:24.149Z</time></trkpt><trkpt lat="41.0675083" lon="14.8644917"><ele>368.0</ele><time>2026-04-19T07:27:25.15Z</time></trkpt><trkpt lat="41.067465" lon="14.8642333"><ele>369.0</ele><time>2026-04-19T07:27:26.15Z</time></trkpt><trkpt lat="41.06743" lon="14.8639833"><ele>369.6666666666667</ele><time>2026-04-19T07:27:27.149Z</time></trkpt><trkpt lat="41.067395" lon="14.86374"><ele>370.33333333333337</ele><time>2026-04-19T07:27:28.15Z</time></trkpt><trkpt lat="41.0673633" lon="14.8635"><ele>371.0</ele><time>2026-04-19T07:27:29.15Z</time></trkpt><trkpt lat="41.0673417" lon="14.8632717"><ele>371.0</ele><time>2026-04-19T07:27:30.149Z</time></trkpt><trkpt lat="41.0673333" lon="14.8630367"><ele>371.0</ele><time>2026-04-19T07:27:31.149Z</time></trkpt><trkpt lat="41.0673333" lon="14.8627967"><ele>371.0</ele><time>2026-04-19T07:27:32.15Z</time></trkpt><trkpt lat="41.0673483" lon="14.86256"><ele>371.33333333333337</ele><time>2026-04-19T07:27:33.15Z</time></trkpt><trkpt lat="41.0673717" lon="14.862325"><ele>371.6666666666667</ele><time>2026-04-19T07:27:34.15Z</time></trkpt><trkpt lat="41.06741" lon="14.8620833"><ele>372.0</ele><time>2026-04-19T07:27:35.15Z</time></trkpt><trkpt lat="41.06746" lon="14.8618417"><ele>371.6666666666667</ele><time>2026-04-19T07:27:36.149Z</time></trkpt><trkpt lat="41.0675167" lon="14.8616033"><ele>371.33333333333337</ele><time>2026-04-19T07:27:37.149Z</time></trkpt><trkpt lat="41.0675867" lon="14.86137"><ele>371.0</ele><time>2026-04-19T07:27:38.15Z</time></trkpt><trkpt lat="41.0676683" lon="14.8611383"><ele>370.0</ele><time>2026-04-19T07:27:39.15Z</time></trkpt><trkpt lat="41.0677617" lon="14.8609033"><ele>369.0</ele><time>2026-04-19T07:27:40.15Z</time></trkpt><trkpt lat="41.0678583" lon="14.8606883"><ele>368.0</ele><time>2026-04-19T07:27:41.15Z</time></trkpt><trkpt lat="41.0679717" lon="14.86048"><ele>368.0</ele><time>2026-04-19T07:27:42.15Z</time></trkpt><trkpt lat="41.0681" lon="14.86027"><ele>368.0</ele><time>2026-04-19T07:27:43.15Z</time></trkpt><trkpt lat="41.0682317" lon="14.8600733"><ele>368.0</ele><time>2026-04-19T07:27:44.15Z</time></trkpt><trkpt lat="41.068375" lon="14.8598833"><ele>365.6666666666667</ele><time>2026-04-19T07:27:45.15Z</time></trkpt><trkpt lat="41.0685283" lon="14.8597067"><ele>363.3333333333333</ele><time>2026-04-19T07:27:46.15Z</time></trkpt><trkpt lat="41.0686833" lon="14.859535"><ele>361.0</ele><time>2026-04-19T07:27:47.15Z</time></trkpt><trkpt lat="41.06886" lon="14.8593817"><ele>362.3333333333333</ele><time>2026-04-19T07:27:48.149Z</time></trkpt><trkpt lat="41.0690367" lon="14.8592383"><ele>363.6666666666667</ele><time>2026-04-19T07:27:49.15Z</time></trkpt><trkpt lat="41.0692317" lon="14.8591167"><ele>365.0</ele><time>2026-04-19T07:27:50.149Z</time></trkpt><trkpt lat="41.069425" lon="14.8590067"><ele>365.0</ele><time>2026-04-19T07:27:51.149Z</time></trkpt><trkpt lat="41.0696317" lon="14.85891"><ele>365.0</ele><time>2026-04-19T07:27:52.149Z</time></trkpt><trkpt lat="41.0698467" lon="14.858845"><ele>365.0</ele><time>2026-04-19T07:27:53.15Z</time></trkpt><trkpt lat="41.0700517" lon="14.85877"><ele>364.0</ele><time>2026-04-19T07:27:54.15Z</time></trkpt><trkpt lat="41.07026" lon="14.8587"><ele>363.0</ele><time>2026-04-19T07:27:55.15Z</time></trkpt><trkpt lat="41.0704717" lon="14.858635"><ele>362.0</ele><time>2026-04-19T07:27:56.15Z</time></trkpt><trkpt lat="41.0706767" lon="14.8585683"><ele>363.33333333333337</ele><time>2026-04-19T07:27:57.15Z</time></trkpt><trkpt lat="41.0708867" lon="14.8585"><ele>364.6666666666667</ele><time>2026-04-19T07:27:58.15Z</time></trkpt><trkpt lat="41.0710917" lon="14.858425"><ele>366.0</ele><time>2026-04-19T07:27:59.15Z</time></trkpt><trkpt lat="41.0712967" lon="14.85836"><ele>367.0</ele><time>2026-04-19T07:28:00.15Z</time></trkpt><trkpt lat="41.0715083" lon="14.8582983"><ele>368.0</ele><time>2026-04-19T07:28:01.15Z</time></trkpt><trkpt lat="41.0717083" lon="14.8582367"><ele>369.0</ele><time>2026-04-19T07:28:02.15Z</time></trkpt><trkpt lat="41.071905" lon="14.85817"><ele>369.0</ele><time>2026-04-19T07:28:03.149Z</time></trkpt><trkpt lat="41.072095" lon="14.858105"><ele>369.0</ele><time>2026-04-19T07:28:04.15Z</time></trkpt><trkpt lat="41.0722833" lon="14.858045"><ele>369.0</ele><time>2026-04-19T07:28:05.15Z</time></trkpt><trkpt lat="41.0724833" lon="14.8579783"><ele>367.6666666666667</ele><time>2026-04-19T07:28:06.15Z</time></trkpt><trkpt lat="41.0726767" lon="14.8579183"><ele>366.33333333333337</ele><time>2026-04-19T07:28:07.15Z</time></trkpt><trkpt lat="41.0728683" lon="14.857855"><ele>365.0</ele><time>2026-04-19T07:28:08.15Z</time></trkpt><trkpt lat="41.0730567" lon="14.8577883"><ele>365.0</ele><time>2026-04-19T07:28:09.15Z</time></trkpt><trkpt lat="41.0732417" lon="14.8577283"><ele>365.0</ele><time>2026-04-19T07:28:10.15Z</time></trkpt><trkpt lat="41.0734233" lon="14.8576783"><ele>365.0</ele><time>2026-04-19T07:28:11.15Z</time></trkpt><trkpt lat="41.0736033" lon="14.8576233"><ele>366.6666666666667</ele><time>2026-04-19T07:28:12.149Z</time></trkpt><trkpt lat="41.0737967" lon="14.8575667"><ele>368.3333333333333</ele><time>2026-04-19T07:28:13.149Z</time></trkpt><trkpt lat="41.0739817" lon="14.8574967"><ele>370.0</ele><time>2026-04-19T07:28:14.15Z</time></trkpt><trkpt lat="41.0741717" lon="14.85744"><ele>370.0</ele><time>2026-04-19T07:28:15.149Z</time></trkpt><trkpt lat="41.074365" lon="14.85738"><ele>370.0</ele><time>2026-04-19T07:28:16.15Z</time></trkpt><trkpt lat="41.0745517" lon="14.8573217"><ele>370.0</ele><time>2026-04-19T07:28:17.15Z</time></trkpt><trkpt lat="41.0747417" lon="14.8572567"><ele>370.0</ele><time>2026-04-19T07:28:18.15Z</time></trkpt><trkpt lat="41.0749333" lon="14.8571917"><ele>370.0</ele><time>2026-04-19T07:28:19.15Z</time></trkpt><trkpt lat="41.07512" lon="14.85713"><ele>370.0</ele><time>2026-04-19T07:28:20.15Z</time></trkpt><trkpt lat="41.0753067" lon="14.8570667"><ele>370.0</ele><time>2026-04-19T07:28:21.15Z</time></trkpt><trkpt lat="41.0754917" lon="14.8570083"><ele>370.0</ele><time>2026-04-19T07:28:22.15Z</time></trkpt><trkpt lat="41.0756817" lon="14.85695"><ele>370.0</ele><time>2026-04-19T07:28:23.149Z</time></trkpt><trkpt lat="41.0758667" lon="14.85689"><ele>370.66666666666663</ele><time>2026-04-19T07:28:24.149Z</time></trkpt><trkpt lat="41.0760467" lon="14.8568333"><ele>371.3333333333333</ele><time>2026-04-19T07:28:25.15Z</time></trkpt><trkpt lat="41.0762283" lon="14.8567733"><ele>372.0</ele><time>2026-04-19T07:28:26.15Z</time></trkpt><trkpt lat="41.076405" lon="14.85671"><ele>372.6666666666667</ele><time>2026-04-19T07:28:27.149Z</time></trkpt><trkpt lat="41.0765883" lon="14.8566617"><ele>373.33333333333337</ele><time>2026-04-19T07:28:28.149Z</time></trkpt><trkpt lat="41.0767683" lon="14.8566"><ele>374.0</ele><time>2026-04-19T07:28:29.15Z</time></trkpt><trkpt lat="41.0769617" lon="14.8565683"><ele>374.0</ele><time>2026-04-19T07:28:30.15Z</time></trkpt><trkpt lat="41.0771367" lon="14.8564983"><ele>374.0</ele><time>2026-04-19T07:28:31.149Z</time></trkpt><trkpt lat="41.0773183" lon="14.8564233"><ele>374.0</ele><time>2026-04-19T07:28:32.149Z</time></trkpt><trkpt lat="41.077505" lon="14.8563417"><ele>374.0</ele><time>2026-04-19T07:28:33.15Z</time></trkpt><trkpt lat="41.0776967" lon="14.8562617"><ele>374.0</ele><time>2026-04-19T07:28:34.15Z</time></trkpt><trkpt lat="41.0778833" lon="14.856165"><ele>374.0</ele><time>2026-04-19T07:28:35.15Z</time></trkpt><trkpt lat="41.0780667" lon="14.85606"><ele>374.0</ele><time>2026-04-19T07:28:36.15Z</time></trkpt><trkpt lat="41.0782483" lon="14.8559533"><ele>374.0</ele><time>2026-04-19T07:28:37.15Z</time></trkpt><trkpt lat="41.07843" lon="14.855835"><ele>374.0</ele><time>2026-04-19T07:28:38.15Z</time></trkpt><trkpt lat="41.078605" lon="14.8557133"><ele>373.33333333333337</ele><time>2026-04-19T07:28:39.15Z</time></trkpt><trkpt lat="41.078775" lon="14.8555733"><ele>372.6666666666667</ele><time>2026-04-19T07:28:40.15Z</time></trkpt><trkpt lat="41.0789383" lon="14.8554233"><ele>372.0</ele><time>2026-04-19T07:28:41.15Z</time></trkpt><trkpt lat="41.0791017" lon="14.855275"><ele>370.0</ele><time>2026-04-19T07:28:42.15Z</time></trkpt><trkpt lat="41.0792533" lon="14.8551217"><ele>368.0</ele><time>2026-04-19T07:28:43.15Z</time></trkpt><trkpt lat="41.0794" lon="14.8549567"><ele>366.0</ele><time>2026-04-19T07:28:44.149Z</time></trkpt><trkpt lat="41.0795433" lon="14.8547817"><ele>365.6666666666667</ele><time>2026-04-19T07:28:45.15Z</time></trkpt><trkpt lat="41.0796817" lon="14.8546033"><ele>365.33333333333337</ele><time>2026-04-19T07:28:46.15Z</time></trkpt><trkpt lat="41.0798183" lon="14.8544083"><ele>365.0</ele><time>2026-04-19T07:28:47.15Z</time></trkpt><trkpt lat="41.0799567" lon="14.854205"><ele>364.0</ele><time>2026-04-19T07:28:48.149Z</time></trkpt><trkpt lat="41.0800933" lon="14.8539967"><ele>363.0</ele><time>2026-04-19T07:28:49.149Z</time></trkpt><trkpt lat="41.080225" lon="14.85378"><ele>362.0</ele><time>2026-04-19T07:28:50.15Z</time></trkpt><trkpt lat="41.080355" lon="14.8535583"><ele>363.0</ele><time>2026-04-19T07:28:51.149Z</time></trkpt><trkpt lat="41.0804867" lon="14.853345"><ele>364.0</ele><time>2026-04-19T07:28:52.149Z</time></trkpt><trkpt lat="41.08062" lon="14.8531217"><ele>365.0</ele><time>2026-04-19T07:28:53.149Z</time></trkpt><trkpt lat="41.0807517" lon="14.8528967"><ele>364.6666666666667</ele><time>2026-04-19T07:28:54.149Z</time></trkpt><trkpt lat="41.08088" lon="14.8526733"><ele>364.3333333333333</ele><time>2026-04-19T07:28:55.149Z</time></trkpt><trkpt lat="41.0810083" lon="14.8524483"><ele>364.0</ele><time>2026-04-19T07:28:56.15Z</time></trkpt><trkpt lat="41.081135" lon="14.852225"><ele>364.0</ele><time>2026-04-19T07:28:57.15Z</time></trkpt><trkpt lat="41.08127" lon="14.8520133"><ele>364.0</ele><time>2026-04-19T07:28:58.15Z</time></trkpt><trkpt lat="41.0813983" lon="14.8518033"><ele>364.0</ele><time>2026-04-19T07:28:59.149Z</time></trkpt><trkpt lat="41.0815283" lon="14.85159"><ele>364.3333333333333</ele><time>2026-04-19T07:29:00.15Z</time></trkpt><trkpt lat="41.0816533" lon="14.8513733"><ele>364.6666666666667</ele><time>2026-04-19T07:29:01.15Z</time></trkpt><trkpt lat="41.0817767" lon="14.85116"><ele>365.0</ele><time>2026-04-19T07:29:02.15Z</time></trkpt><trkpt lat="41.0819" lon="14.85095"><ele>365.0</ele><time>2026-04-19T07:29:03.15Z</time></trkpt><trkpt lat="41.0820233" lon="14.8507383"><ele>365.0</ele><time>2026-04-19T07:29:04.15Z</time></trkpt><trkpt lat="41.0821483" lon="14.850525"><ele>365.0</ele><time>2026-04-19T07:29:05.15Z</time></trkpt><trkpt lat="41.0822733" lon="14.850305"><ele>364.6666666666667</ele><time>2026-04-19T07:29:06.149Z</time></trkpt><trkpt lat="41.0824017" lon="14.8500883"><ele>364.3333333333333</ele><time>2026-04-19T07:29:07.149Z</time></trkpt><trkpt lat="41.0825367" lon="14.8498783"><ele>364.0</ele><time>2026-04-19T07:29:08.15Z</time></trkpt><trkpt lat="41.082665" lon="14.8496617"><ele>364.66666666666663</ele><time>2026-04-19T07:29:09.15Z</time></trkpt><trkpt lat="41.082795" lon="14.8494533"><ele>365.3333333333333</ele><time>2026-04-19T07:29:10.149Z</time></trkpt><trkpt lat="41.0829233" lon="14.8492417"><ele>366.0</ele><time>2026-04-19T07:29:11.149Z</time></trkpt><trkpt lat="41.0830583" lon="14.8490317"><ele>366.0</ele><time>2026-04-19T07:29:12.149Z</time></trkpt><trkpt lat="41.0831967" lon="14.8488233"><ele>366.0</ele><time>2026-04-19T07:29:13.15Z</time></trkpt><trkpt lat="41.0833383" lon="14.8486183"><ele>366.0</ele><time>2026-04-19T07:29:14.15Z</time></trkpt><trkpt lat="41.0834783" lon="14.8484083"><ele>362.6666666666667</ele><time>2026-04-19T07:29:15.15Z</time></trkpt><trkpt lat="41.0836233" lon="14.8482"><ele>359.33333333333337</ele><time>2026-04-19T07:29:16.15Z</time></trkpt><trkpt lat="41.0837783" lon="14.8480017"><ele>356.0</ele><time>2026-04-19T07:29:17.149Z</time></trkpt><trkpt lat="41.0839317" lon="14.8478033"><ele>354.6666666666667</ele><time>2026-04-19T07:29:18.15Z</time></trkpt><trkpt lat="41.08409" lon="14.8475983"><ele>353.3333333333333</ele><time>2026-04-19T07:29:19.15Z</time></trkpt><trkpt lat="41.0842483" lon="14.8473833"><ele>352.0</ele><time>2026-04-19T07:29:20.149Z</time></trkpt><trkpt lat="41.0844017" lon="14.8471717"><ele>352.0</ele><time>2026-04-19T07:29:21.15Z</time></trkpt><trkpt lat="41.0845567" lon="14.8469617"><ele>352.0</ele><time>2026-04-19T07:29:22.149Z</time></trkpt><trkpt lat="41.0847083" lon="14.8467517"><ele>352.0</ele><time>2026-04-19T07:29:23.15Z</time></trkpt><trkpt lat="41.0848667" lon="14.8465417"><ele>353.3333333333333</ele><time>2026-04-19T07:29:24.15Z</time></trkpt><trkpt lat="41.0850183" lon="14.8463483"><ele>354.6666666666667</ele><time>2026-04-19T07:29:25.149Z</time></trkpt><trkpt lat="41.0851733" lon="14.8461517"><ele>356.0</ele><time>2026-04-19T07:29:26.15Z</time></trkpt><trkpt lat="41.0853283" lon="14.8459483"><ele>356.0</ele><time>2026-04-19T07:29:27.15Z</time></trkpt><trkpt lat="41.0854817" lon="14.8457433"><ele>356.0</ele><time>2026-04-19T07:29:28.15Z</time></trkpt><trkpt lat="41.0856367" lon="14.8455367"><ele>356.0</ele><time>2026-04-19T07:29:29.15Z</time></trkpt><trkpt lat="41.0857867" lon="14.8453317"><ele>353.6666666666667</ele><time>2026-04-19T07:29:30.149Z</time></trkpt><trkpt lat="41.0859367" lon="14.84514"><ele>351.3333333333333</ele><time>2026-04-19T07:29:31.15Z</time></trkpt><trkpt lat="41.0860867" lon="14.8449383"><ele>349.0</ele><time>2026-04-19T07:29:32.149Z</time></trkpt><trkpt lat="41.0862333" lon="14.8447433"><ele>349.0</ele><time>2026-04-19T07:29:33.15Z</time></trkpt><trkpt lat="41.08638" lon="14.844535"><ele>349.0</ele><time>2026-04-19T07:29:34.15Z</time></trkpt><trkpt lat="41.0865183" lon="14.8443183"><ele>349.0</ele><time>2026-04-19T07:29:35.15Z</time></trkpt><trkpt lat="41.0866583" lon="14.8440983"><ele>347.3333333333333</ele><time>2026-04-19T07:29:36.149Z</time></trkpt><trkpt lat="41.0867867" lon="14.8438783"><ele>345.6666666666667</ele><time>2026-04-19T07:29:37.149Z</time></trkpt><trkpt lat="41.086915" lon="14.8436483"><ele>344.0</ele><time>2026-04-19T07:29:38.15Z</time></trkpt><trkpt lat="41.08703" lon="14.843415"><ele>343.6666666666667</ele><time>2026-04-19T07:29:39.149Z</time></trkpt><trkpt lat="41.0871533" lon="14.843175"><ele>343.3333333333333</ele><time>2026-04-19T07:29:40.15Z</time></trkpt><trkpt lat="41.0872633" lon="14.84293"><ele>343.0</ele><time>2026-04-19T07:29:41.149Z</time></trkpt><trkpt lat="41.0873783" lon="14.8426783"><ele>342.0</ele><time>2026-04-19T07:29:42.15Z</time></trkpt><trkpt lat="41.0874967" lon="14.8424417"><ele>341.0</ele><time>2026-04-19T07:29:43.15Z</time></trkpt><trkpt lat="41.0876067" lon="14.8421983"><ele>340.0</ele><time>2026-04-19T07:29:44.15Z</time></trkpt><trkpt lat="41.0877233" lon="14.84196"><ele>338.66666666666663</ele><time>2026-04-19T07:29:45.149Z</time></trkpt><trkpt lat="41.0878333" lon="14.841725"><ele>337.3333333333333</ele><time>2026-04-19T07:29:46.149Z</time></trkpt><trkpt lat="41.0879467" lon="14.84149"><ele>336.0</ele><time>2026-04-19T07:29:47.15Z</time></trkpt><trkpt lat="41.0880633" lon="14.8412583"><ele>336.0</ele><time>2026-04-19T07:29:48.149Z</time></trkpt><trkpt lat="41.088175" lon="14.84103"><ele>336.0</ele><time>2026-04-19T07:29:49.15Z</time></trkpt><trkpt lat="41.0882817" lon="14.8408017"><ele>336.0</ele><time>2026-04-19T07:29:50.149Z</time></trkpt><trkpt lat="41.0883917" lon="14.8405733"><ele>333.3333333333333</ele><time>2026-04-19T07:29:51.15Z</time></trkpt><trkpt lat="41.088505" lon="14.8403533"><ele>330.66666666666663</ele><time>2026-04-19T07:29:52.15Z</time></trkpt><trkpt lat="41.0886217" lon="14.8401417"><ele>328.0</ele><time>2026-04-19T07:29:53.15Z</time></trkpt><trkpt lat="41.0887417" lon="14.8399267"><ele>328.0</ele><time>2026-04-19T07:29:54.15Z</time></trkpt><trkpt lat="41.088865" lon="14.8397133"><ele>328.0</ele><time>2026-04-19T07:29:55.15Z</time></trkpt><trkpt lat="41.0889917" lon="14.8395067"><ele>328.0</ele><time>2026-04-19T07:29:56.15Z</time></trkpt><trkpt lat="41.089125" lon="14.83931"><ele>326.0</ele><time>2026-04-19T07:29:57.149Z</time></trkpt><trkpt lat="41.08926" lon="14.8391167"><ele>324.0</ele><time>2026-04-19T07:29:58.15Z</time></trkpt><trkpt lat="41.0894" lon="14.8389217"><ele>322.0</ele><time>2026-04-19T07:29:59.149Z</time></trkpt><trkpt lat="41.0895517" lon="14.838725"><ele>322.0</ele><time>2026-04-19T07:30:00.149Z</time></trkpt><trkpt lat="41.0897033" lon="14.8385367"><ele>322.0</ele><time>2026-04-19T07:30:01.149Z</time></trkpt><trkpt lat="41.08986" lon="14.8383417"><ele>322.0</ele><time>2026-04-19T07:30:02.15Z</time></trkpt><trkpt lat="41.0900183" lon="14.8381567"><ele>319.0</ele><time>2026-04-19T07:30:03.15Z</time></trkpt><trkpt lat="41.0901867" lon="14.83797"><ele>316.0</ele><time>2026-04-19T07:30:04.15Z</time></trkpt><trkpt lat="41.0903533" lon="14.8377917"><ele>313.0</ele><time>2026-04-19T07:30:05.149Z</time></trkpt><trkpt lat="41.0905283" lon="14.8376167"><ele>311.0</ele><time>2026-04-19T07:30:06.149Z</time></trkpt><trkpt lat="41.090705" lon="14.83744"><ele>309.0</ele><time>2026-04-19T07:30:07.15Z</time></trkpt><trkpt lat="41.0908833" lon="14.837275"><ele>307.0</ele><time>2026-04-19T07:30:08.15Z</time></trkpt><trkpt lat="41.0910667" lon="14.837125"><ele>305.3333333333333</ele><time>2026-04-19T07:30:09.15Z</time></trkpt><trkpt lat="41.0912533" lon="14.8369733"><ele>303.6666666666667</ele><time>2026-04-19T07:30:10.15Z</time></trkpt><trkpt lat="41.0914367" lon="14.8368333"><ele>302.0</ele><time>2026-04-19T07:30:11.15Z</time></trkpt><trkpt lat="41.0916183" lon="14.8366933"><ele>300.6666666666667</ele><time>2026-04-19T07:30:12.15Z</time></trkpt><trkpt lat="41.0917983" lon="14.83656"><ele>299.3333333333333</ele><time>2026-04-19T07:30:13.15Z</time></trkpt><trkpt lat="41.091985" lon="14.8364317"><ele>298.0</ele><time>2026-04-19T07:30:14.15Z</time></trkpt><trkpt lat="41.0921667" lon="14.836305"><ele>298.0</ele><time>2026-04-19T07:30:15.149Z</time></trkpt><trkpt lat="41.0923483" lon="14.83618"><ele>298.0</ele><time>2026-04-19T07:30:16.15Z</time></trkpt><trkpt lat="41.0925267" lon="14.83605"><ele>298.0</ele><time>2026-04-19T07:30:17.15Z</time></trkpt><trkpt lat="41.092705" lon="14.83592"><ele>296.3333333333333</ele><time>2026-04-19T07:30:18.15Z</time></trkpt><trkpt lat="41.09287" lon="14.83579"><ele>294.6666666666667</ele><time>2026-04-19T07:30:19.15Z</time></trkpt><trkpt lat="41.0930383" lon="14.8356683"><ele>293.0</ele><time>2026-04-19T07:30:20.15Z</time></trkpt><trkpt lat="41.093205" lon="14.835545"><ele>290.6666666666667</ele><time>2026-04-19T07:30:21.15Z</time></trkpt><trkpt lat="41.0933667" lon="14.83543"><ele>288.3333333333333</ele><time>2026-04-19T07:30:22.15Z</time></trkpt><trkpt lat="41.093525" lon="14.8353117"><ele>286.0</ele><time>2026-04-19T07:30:23.15Z</time></trkpt><trkpt lat="41.0936833" lon="14.8351983"><ele>287.0</ele><time>2026-04-19T07:30:24.149Z</time></trkpt><trkpt lat="41.0938467" lon="14.83508"><ele>288.0</ele><time>2026-04-19T07:30:25.149Z</time></trkpt><trkpt lat="41.0940083" lon="14.834955"><ele>289.0</ele><time>2026-04-19T07:30:26.15Z</time></trkpt><trkpt lat="41.094175" lon="14.8348333"><ele>287.0</ele><time>2026-04-19T07:30:27.149Z</time></trkpt><trkpt lat="41.0943417" lon="14.834715"><ele>285.0</ele><time>2026-04-19T07:30:28.15Z</time></trkpt><trkpt lat="41.0945083" lon="14.8345933"><ele>283.0</ele><time>2026-04-19T07:30:29.15Z</time></trkpt><trkpt lat="41.094675" lon="14.8344733"><ele>283.0</ele><time>2026-04-19T07:30:30.15Z</time></trkpt><trkpt lat="41.0948467" lon="14.8343483"><ele>283.0</ele><time>2026-04-19T07:30:31.15Z</time></trkpt><trkpt lat="41.09502" lon="14.8342267"><ele>283.0</ele><time>2026-04-19T07:30:32.149Z</time></trkpt><trkpt lat="41.095195" lon="14.8341017"><ele>281.66666666666663</ele><time>2026-04-19T07:30:33.15Z</time></trkpt><trkpt lat="41.0953683" lon="14.8339783"><ele>280.3333333333333</ele><time>2026-04-19T07:30:34.15Z</time></trkpt><trkpt lat="41.09554" lon="14.8338483"><ele>279.0</ele><time>2026-04-19T07:30:35.15Z</time></trkpt><trkpt lat="41.0957167" lon="14.8337183"><ele>278.0</ele><time>2026-04-19T07:30:36.15Z</time></trkpt><trkpt lat="41.095895" lon="14.8335883"><ele>277.0</ele><time>2026-04-19T07:30:37.15Z</time></trkpt><trkpt lat="41.0960767" lon="14.8334533"><ele>276.0</ele><time>2026-04-19T07:30:38.149Z</time></trkpt><trkpt lat="41.0962583" lon="14.8333183"><ele>276.0</ele><time>2026-04-19T07:30:39.15Z</time></trkpt><trkpt lat="41.0964417" lon="14.8331833"><ele>276.0</ele><time>2026-04-19T07:30:40.149Z</time></trkpt><trkpt lat="41.0966267" lon="14.8330467"><ele>276.0</ele><time>2026-04-19T07:30:41.15Z</time></trkpt><trkpt lat="41.096815" lon="14.8329083"><ele>275.6666666666667</ele><time>2026-04-19T07:30:42.15Z</time></trkpt><trkpt lat="41.0970033" lon="14.8327667"><ele>275.33333333333337</ele><time>2026-04-19T07:30:43.15Z</time></trkpt><trkpt lat="41.09719" lon="14.8326283"><ele>275.0</ele><time>2026-04-19T07:30:44.149Z</time></trkpt><trkpt lat="41.0973767" lon="14.8324933"><ele>274.0</ele><time>2026-04-19T07:30:45.15Z</time></trkpt><trkpt lat="41.097565" lon="14.83236"><ele>273.0</ele><time>2026-04-19T07:30:46.149Z</time></trkpt><trkpt lat="41.097755" lon="14.832225"><ele>272.0</ele><time>2026-04-19T07:30:47.15Z</time></trkpt><trkpt lat="41.0979383" lon="14.8320883"><ele>272.0</ele><time>2026-04-19T07:30:48.15Z</time></trkpt><trkpt lat="41.0981267" lon="14.8319517"><ele>272.0</ele><time>2026-04-19T07:30:49.149Z</time></trkpt><trkpt lat="41.0983117" lon="14.8318167"><ele>272.0</ele><time>2026-04-19T07:30:50.15Z</time></trkpt><trkpt lat="41.0984983" lon="14.8316817"><ele>271.6666666666667</ele><time>2026-04-19T07:30:51.15Z</time></trkpt><trkpt lat="41.0986817" lon="14.8315467"><ele>271.3333333333333</ele><time>2026-04-19T07:30:52.149Z</time></trkpt><trkpt lat="41.0988683" lon="14.8314133"><ele>271.0</ele><time>2026-04-19T07:30:53.15Z</time></trkpt><trkpt lat="41.099055" lon="14.831275"><ele>270.3333333333333</ele><time>2026-04-19T07:30:54.15Z</time></trkpt><trkpt lat="41.0992417" lon="14.8311383"><ele>269.6666666666667</ele><time>2026-04-19T07:30:55.15Z</time></trkpt><trkpt lat="41.0994267" lon="14.8310033"><ele>269.0</ele><time>2026-04-19T07:30:56.15Z</time></trkpt><trkpt lat="41.0996167" lon="14.8308667"><ele>269.0</ele><time>2026-04-19T07:30:57.15Z</time></trkpt><trkpt lat="41.0998017" lon="14.8307267"><ele>269.0</ele><time>2026-04-19T07:30:58.15Z</time></trkpt><trkpt lat="41.099985" lon="14.83059"><ele>269.0</ele><time>2026-04-19T07:30:59.15Z</time></trkpt><trkpt lat="41.1001667" lon="14.830455"><ele>269.0</ele><time>2026-04-19T07:31:00.149Z</time></trkpt><trkpt lat="41.10035" lon="14.8303217"><ele>269.0</ele><time>2026-04-19T07:31:01.15Z</time></trkpt><trkpt lat="41.1005383" lon="14.8301883"><ele>269.0</ele><time>2026-04-19T07:31:02.15Z</time></trkpt><trkpt lat="41.1007233" lon="14.83006"><ele>267.0</ele><time>2026-04-19T07:31:03.15Z</time></trkpt><trkpt lat="41.100905" lon="14.8299283"><ele>265.0</ele><time>2026-04-19T07:31:04.15Z</time></trkpt><trkpt lat="41.10109" lon="14.8297883"><ele>263.0</ele><time>2026-04-19T07:31:05.149Z</time></trkpt><trkpt lat="41.1012683" lon="14.8296533"><ele>263.0</ele><time>2026-04-19T07:31:06.15Z</time></trkpt><trkpt lat="41.1014483" lon="14.8295183"><ele>263.0</ele><time>2026-04-19T07:31:07.149Z</time></trkpt><trkpt lat="41.1016317" lon="14.8293917"><ele>263.0</ele><time>2026-04-19T07:31:08.15Z</time></trkpt><trkpt lat="41.10181" lon="14.8292583"><ele>263.6666666666667</ele><time>2026-04-19T07:31:09.15Z</time></trkpt><trkpt lat="41.1019883" lon="14.8291283"><ele>264.3333333333333</ele><time>2026-04-19T07:31:10.149Z</time></trkpt><trkpt lat="41.1021683" lon="14.8289933"><ele>265.0</ele><time>2026-04-19T07:31:11.15Z</time></trkpt><trkpt lat="41.1023483" lon="14.8288633"><ele>265.0</ele><time>2026-04-19T07:31:12.149Z</time></trkpt><trkpt lat="41.1025233" lon="14.828735"><ele>265.0</ele><time>2026-04-19T07:31:13.149Z</time></trkpt><trkpt lat="41.1026967" lon="14.82861"><ele>265.0</ele><time>2026-04-19T07:31:14.149Z</time></trkpt><trkpt lat="41.1028667" lon="14.8284883"><ele>264.66666666666663</ele><time>2026-04-19T07:31:15.15Z</time></trkpt><trkpt lat="41.1030333" lon="14.8283667"><ele>264.3333333333333</ele><time>2026-04-19T07:31:16.15Z</time></trkpt><trkpt lat="41.1032" lon="14.8282517"><ele>264.0</ele><time>2026-04-19T07:31:17.15Z</time></trkpt><trkpt lat="41.1033617" lon="14.8281383"><ele>264.0</ele><time>2026-04-19T07:31:18.15Z</time></trkpt><trkpt lat="41.10352" lon="14.8280117"><ele>264.0</ele><time>2026-04-19T07:31:19.149Z</time></trkpt><trkpt lat="41.1036817" lon="14.82789"><ele>264.0</ele><time>2026-04-19T07:31:20.15Z</time></trkpt><trkpt lat="41.1038483" lon="14.8277617"><ele>263.6666666666667</ele><time>2026-04-19T07:31:21.15Z</time></trkpt><trkpt lat="41.1040183" lon="14.8276433"><ele>263.33333333333337</ele><time>2026-04-19T07:31:22.15Z</time></trkpt><trkpt lat="41.1041883" lon="14.8275183"><ele>263.0</ele><time>2026-04-19T07:31:23.15Z</time></trkpt><trkpt lat="41.1043583" lon="14.8273867"><ele>262.33333333333337</ele><time>2026-04-19T07:31:24.15Z</time></trkpt><trkpt lat="41.1045283" lon="14.82726"><ele>261.6666666666667</ele><time>2026-04-19T07:31:25.15Z</time></trkpt><trkpt lat="41.1047033" lon="14.8271333"><ele>261.0</ele><time>2026-04-19T07:31:26.15Z</time></trkpt><trkpt lat="41.10488" lon="14.8270083"><ele>260.6666666666667</ele><time>2026-04-19T07:31:27.15Z</time></trkpt><trkpt lat="41.1050517" lon="14.8268817"><ele>260.33333333333337</ele><time>2026-04-19T07:31:28.15Z</time></trkpt><trkpt lat="41.105225" lon="14.8267467"><ele>260.0</ele><time>2026-04-19T07:31:29.149Z</time></trkpt><trkpt lat="41.1054017" lon="14.8266183"><ele>259.6666666666667</ele><time>2026-04-19T07:31:30.15Z</time></trkpt><trkpt lat="41.1055767" lon="14.8264967"><ele>259.3333333333333</ele><time>2026-04-19T07:31:31.15Z</time></trkpt><trkpt lat="41.10575" lon="14.8263633"><ele>259.0</ele><time>2026-04-19T07:31:32.15Z</time></trkpt><trkpt lat="41.1059283" lon="14.8262217"><ele>258.0</ele><time>2026-04-19T07:31:33.149Z</time></trkpt><trkpt lat="41.1061033" lon="14.8260783"><ele>257.0</ele><time>2026-04-19T07:31:34.15Z</time></trkpt><trkpt lat="41.1062783" lon="14.8259317"><ele>256.0</ele><time>2026-04-19T07:31:35.15Z</time></trkpt><trkpt lat="41.1064517" lon="14.82577"><ele>255.0</ele><time>2026-04-19T07:31:36.149Z</time></trkpt><trkpt lat="41.10662" lon="14.825605"><ele>254.0</ele><time>2026-04-19T07:31:37.15Z</time></trkpt><trkpt lat="41.1067883" lon="14.8254367"><ele>253.0</ele><time>2026-04-19T07:31:38.15Z</time></trkpt><trkpt lat="41.1069617" lon="14.8252717"><ele>252.66666666666666</ele><time>2026-04-19T07:31:39.15Z</time></trkpt><trkpt lat="41.107125" lon="14.8251"><ele>252.33333333333331</ele><time>2026-04-19T07:31:40.15Z</time></trkpt><trkpt lat="41.1072917" lon="14.824925"><ele>252.0</ele><time>2026-04-19T07:31:41.15Z</time></trkpt><trkpt lat="41.107455" lon="14.8247467"><ele>251.0</ele><time>2026-04-19T07:31:42.149Z</time></trkpt><trkpt lat="41.1076183" lon="14.8245733"><ele>250.0</ele><time>2026-04-19T07:31:43.15Z</time></trkpt><trkpt lat="41.1077817" lon="14.8244067"><ele>249.0</ele><time>2026-04-19T07:31:44.15Z</time></trkpt><trkpt lat="41.10794" lon="14.8242433"><ele>249.0</ele><time>2026-04-19T07:31:45.15Z</time></trkpt><trkpt lat="41.1080967" lon="14.8240833"><ele>249.0</ele><time>2026-04-19T07:31:46.15Z</time></trkpt><trkpt lat="41.1082533" lon="14.8239217"><ele>249.0</ele><time>2026-04-19T07:31:47.149Z</time></trkpt><trkpt lat="41.1084083" lon="14.823755"><ele>248.66666666666669</ele><time>2026-04-19T07:31:48.15Z</time></trkpt><trkpt lat="41.1085617" lon="14.8235917"><ele>248.33333333333334</ele><time>2026-04-19T07:31:49.15Z</time></trkpt><trkpt lat="41.1087167" lon="14.8234317"><ele>248.0</ele><time>2026-04-19T07:31:50.15Z</time></trkpt><trkpt lat="41.10887" lon="14.8232667"><ele>248.0</ele><time>2026-04-19T07:31:51.15Z</time></trkpt><trkpt lat="41.109025" lon="14.8231083"><ele>248.0</ele><time>2026-04-19T07:31:52.149Z</time></trkpt><trkpt lat="41.10918" lon="14.8229433"><ele>248.0</ele><time>2026-04-19T07:31:53.15Z</time></trkpt><trkpt lat="41.1093383" lon="14.8227733"><ele>247.66666666666669</ele><time>2026-04-19T07:31:54.15Z</time></trkpt><trkpt lat="41.1094967" lon="14.82261"><ele>247.33333333333331</ele><time>2026-04-19T07:31:55.149Z</time></trkpt><trkpt lat="41.1096533" lon="14.822445"><ele>247.0</ele><time>2026-04-19T07:31:56.15Z</time></trkpt><trkpt lat="41.10981" lon="14.8222817"><ele>246.33333333333331</ele><time>2026-04-19T07:31:57.15Z</time></trkpt><trkpt lat="41.109965" lon="14.8221167"><ele>245.66666666666669</ele><time>2026-04-19T07:31:58.15Z</time></trkpt><trkpt lat="41.1101133" lon="14.82196"><ele>245.0</ele><time>2026-04-19T07:31:59.15Z</time></trkpt><trkpt lat="41.110265" lon="14.8218067"><ele>245.0</ele><time>2026-04-19T07:32:00.15Z</time></trkpt><trkpt lat="41.1104133" lon="14.8216583"><ele>245.0</ele><time>2026-04-19T07:32:01.15Z</time></trkpt><trkpt lat="41.1105533" lon="14.821515"><ele>245.0</ele><time>2026-04-19T07:32:02.15Z</time></trkpt><trkpt lat="41.110685" lon="14.821375"><ele>244.0</ele><time>2026-04-19T07:32:03.149Z</time></trkpt><trkpt lat="41.1108183" lon="14.82124"><ele>243.0</ele><time>2026-04-19T07:32:04.15Z</time></trkpt><trkpt lat="41.110945" lon="14.8211067"><ele>242.0</ele><time>2026-04-19T07:32:05.15Z</time></trkpt><trkpt lat="41.1110683" lon="14.8209767"><ele>242.0</ele><time>2026-04-19T07:32:06.15Z</time></trkpt><trkpt lat="41.1111933" lon="14.8208467"><ele>242.0</ele><time>2026-04-19T07:32:07.15Z</time></trkpt><trkpt lat="41.1113183" lon="14.8207167"><ele>242.0</ele><time>2026-04-19T07:32:08.149Z</time></trkpt><trkpt lat="41.1114483" lon="14.8205767"><ele>240.66666666666669</ele><time>2026-04-19T07:32:09.15Z</time></trkpt><trkpt lat="41.11158" lon="14.8204433"><ele>239.33333333333331</ele><time>2026-04-19T07:32:10.15Z</time></trkpt><trkpt lat="41.1117133" lon="14.8203033"><ele>238.0</ele><time>2026-04-19T07:32:11.15Z</time></trkpt><trkpt lat="41.1118517" lon="14.820165"><ele>238.0</ele><time>2026-04-19T07:32:12.149Z</time></trkpt><trkpt lat="41.1119933" lon="14.820015"><ele>238.0</ele><time>2026-04-19T07:32:13.15Z</time></trkpt><trkpt lat="41.1121383" lon="14.819855"><ele>238.0</ele><time>2026-04-19T07:32:14.15Z</time></trkpt><trkpt lat="41.11229" lon="14.8196933"><ele>238.0</ele><time>2026-04-19T07:32:15.15Z</time></trkpt><trkpt lat="41.1124417" lon="14.8195333"><ele>238.0</ele><time>2026-04-19T07:32:16.149Z</time></trkpt><trkpt lat="41.1125867" lon="14.81938"><ele>238.0</ele><time>2026-04-19T07:32:17.149Z</time></trkpt><trkpt lat="41.1127233" lon="14.8192283"><ele>238.0</ele><time>2026-04-19T07:32:18.149Z</time></trkpt><trkpt lat="41.112865" lon="14.8190767"><ele>238.0</ele><time>2026-04-19T07:32:19.15Z</time></trkpt><trkpt lat="41.1130067" lon="14.818925"><ele>238.0</ele><time>2026-04-19T07:32:20.15Z</time></trkpt><trkpt lat="41.113155" lon="14.8187683"><ele>236.66666666666666</ele><time>2026-04-19T07:32:21.15Z</time></trkpt><trkpt lat="41.1133083" lon="14.818605"><ele>235.33333333333331</ele><time>2026-04-19T07:32:22.15Z</time></trkpt><trkpt lat="41.1134667" lon="14.818435"><ele>234.0</ele><time>2026-04-19T07:32:23.15Z</time></trkpt><trkpt lat="41.1136183" lon="14.81826"><ele>233.66666666666669</ele><time>2026-04-19T07:32:24.149Z</time></trkpt><trkpt lat="41.1137767" lon="14.8180733"><ele>233.33333333333334</ele><time>2026-04-19T07:32:25.15Z</time></trkpt><trkpt lat="41.1139233" lon="14.81789"><ele>233.0</ele><time>2026-04-19T07:32:26.15Z</time></trkpt><trkpt lat="41.114065" lon="14.8177033"><ele>231.33333333333334</ele><time>2026-04-19T07:32:27.149Z</time></trkpt><trkpt lat="41.1142" lon="14.817505"><ele>229.66666666666669</ele><time>2026-04-19T07:32:28.15Z</time></trkpt><trkpt lat="41.1143367" lon="14.81731"><ele>228.0</ele><time>2026-04-19T07:32:29.15Z</time></trkpt><trkpt lat="41.1144667" lon="14.8171083"><ele>228.0</ele><time>2026-04-19T07:32:30.15Z</time></trkpt><trkpt lat="41.114595" lon="14.8169017"><ele>228.0</ele><time>2026-04-19T07:32:31.15Z</time></trkpt><trkpt lat="41.1147183" lon="14.8166933"><ele>228.0</ele><time>2026-04-19T07:32:32.15Z</time></trkpt><trkpt lat="41.1148433" lon="14.8164733"><ele>227.33333333333331</ele><time>2026-04-19T07:32:33.15Z</time></trkpt><trkpt lat="41.11496" lon="14.8162567"><ele>226.66666666666666</ele><time>2026-04-19T07:32:34.15Z</time></trkpt><trkpt lat="41.115085" lon="14.816025"><ele>226.0</ele><time>2026-04-19T07:32:35.149Z</time></trkpt><trkpt lat="41.1152" lon="14.8157917"><ele>226.0</ele><time>2026-04-19T07:32:36.15Z</time></trkpt><trkpt lat="41.1153167" lon="14.8155617"><ele>226.0</ele><time>2026-04-19T07:32:37.15Z</time></trkpt><trkpt lat="41.1154383" lon="14.8153267"><ele>226.0</ele><time>2026-04-19T07:32:38.15Z</time></trkpt><trkpt lat="41.1155533" lon="14.8150867"><ele>226.0</ele><time>2026-04-19T07:32:39.15Z</time></trkpt><trkpt lat="41.115675" lon="14.8148467"><ele>226.0</ele><time>2026-04-19T07:32:40.15Z</time></trkpt><trkpt lat="41.1158" lon="14.8146133"><ele>226.0</ele><time>2026-04-19T07:32:41.15Z</time></trkpt><trkpt lat="41.1159267" lon="14.8143717"><ele>224.0</ele><time>2026-04-19T07:32:42.149Z</time></trkpt><trkpt lat="41.1160483" lon="14.814125"><ele>222.0</ele><time>2026-04-19T07:32:43.15Z</time></trkpt><trkpt lat="41.1161717" lon="14.8138867"><ele>220.0</ele><time>2026-04-19T07:32:44.15Z</time></trkpt><trkpt lat="41.1162933" lon="14.8136467"><ele>219.0</ele><time>2026-04-19T07:32:45.15Z</time></trkpt><trkpt lat="41.1164083" lon="14.81341"><ele>218.0</ele><time>2026-04-19T07:32:46.15Z</time></trkpt><trkpt lat="41.116525" lon="14.8131733"><ele>217.0</ele><time>2026-04-19T07:32:47.15Z</time></trkpt><trkpt lat="41.116645" lon="14.8129367"><ele>217.0</ele><time>2026-04-19T07:32:48.149Z</time></trkpt><trkpt lat="41.1167617" lon="14.81271"><ele>217.0</ele><time>2026-04-19T07:32:49.15Z</time></trkpt><trkpt lat="41.1168767" lon="14.812475"><ele>217.0</ele><time>2026-04-19T07:32:50.15Z</time></trkpt><trkpt lat="41.11699" lon="14.8122483"><ele>214.66666666666666</ele><time>2026-04-19T07:32:51.15Z</time></trkpt><trkpt lat="41.1171017" lon="14.8120217"><ele>212.33333333333331</ele><time>2026-04-19T07:32:52.149Z</time></trkpt><trkpt lat="41.1172233" lon="14.8117983"><ele>210.0</ele><time>2026-04-19T07:32:53.149Z</time></trkpt><trkpt lat="41.117335" lon="14.8115633"><ele>209.33333333333331</ele><time>2026-04-19T07:32:54.15Z</time></trkpt><trkpt lat="41.1174483" lon="14.811335"><ele>208.66666666666666</ele><time>2026-04-19T07:32:55.15Z</time></trkpt><trkpt lat="41.1175583" lon="14.8111133"><ele>208.0</ele><time>2026-04-19T07:32:56.15Z</time></trkpt><trkpt lat="41.1176717" lon="14.8108967"><ele>204.33333333333331</ele><time>2026-04-19T07:32:57.15Z</time></trkpt><trkpt lat="41.1177833" lon="14.8106833"><ele>200.66666666666669</ele><time>2026-04-19T07:32:58.15Z</time></trkpt><trkpt lat="41.117895" lon="14.8104633"><ele>197.0</ele><time>2026-04-19T07:32:59.15Z</time></trkpt><trkpt lat="41.1180033" lon="14.8102367"><ele>197.0</ele><time>2026-04-19T07:33:00.15Z</time></trkpt><trkpt lat="41.1181183" lon="14.8100133"><ele>197.0</ele><time>2026-04-19T07:33:01.15Z</time></trkpt><trkpt lat="41.1182267" lon="14.80979"><ele>197.0</ele><time>2026-04-19T07:33:02.15Z</time></trkpt><trkpt lat="41.118345" lon="14.809565"><ele>197.0</ele><time>2026-04-19T07:33:03.15Z</time></trkpt><trkpt lat="41.11846" lon="14.8093467"><ele>197.0</ele><time>2026-04-19T07:33:04.149Z</time></trkpt><trkpt lat="41.1185783" lon="14.80913"><ele>197.0</ele><time>2026-04-19T07:33:05.15Z</time></trkpt><trkpt lat="41.1186917" lon="14.80891"><ele>193.33333333333334</ele><time>2026-04-19T07:33:06.15Z</time></trkpt><trkpt lat="41.118805" lon="14.808685"><ele>189.66666666666669</ele><time>2026-04-19T07:33:07.15Z</time></trkpt><trkpt lat="41.1189217" lon="14.8084617"><ele>186.0</ele><time>2026-04-19T07:33:08.15Z</time></trkpt><trkpt lat="41.1190367" lon="14.8082383"><ele>186.0</ele><time>2026-04-19T07:33:09.149Z</time></trkpt><trkpt lat="41.1191633" lon="14.8080167"><ele>186.0</ele><time>2026-04-19T07:33:10.149Z</time></trkpt><trkpt lat="41.119285" lon="14.807795"><ele>186.0</ele><time>2026-04-19T07:33:11.15Z</time></trkpt><trkpt lat="41.1194117" lon="14.80758"><ele>183.33333333333334</ele><time>2026-04-19T07:33:12.149Z</time></trkpt><trkpt lat="41.1195517" lon="14.8073767"><ele>180.66666666666669</ele><time>2026-04-19T07:33:13.15Z</time></trkpt><trkpt lat="41.1196967" lon="14.80718"><ele>178.0</ele><time>2026-04-19T07:33:14.15Z</time></trkpt><trkpt lat="41.1198483" lon="14.806995"><ele>179.0</ele><time>2026-04-19T07:33:15.15Z</time></trkpt><trkpt lat="41.1200067" lon="14.8068283"><ele>180.0</ele><time>2026-04-19T07:33:16.149Z</time></trkpt><trkpt lat="41.1201667" lon="14.8066733"><ele>181.0</ele><time>2026-04-19T07:33:17.15Z</time></trkpt><trkpt lat="41.12034" lon="14.806535"><ele>181.0</ele><time>2026-04-19T07:33:18.15Z</time></trkpt><trkpt lat="41.120515" lon="14.80641"><ele>181.0</ele><time>2026-04-19T07:33:19.15Z</time></trkpt><trkpt lat="41.1207017" lon="14.806295"><ele>181.0</ele><time>2026-04-19T07:33:20.149Z</time></trkpt><trkpt lat="41.120895" lon="14.8061933"><ele>179.66666666666669</ele><time>2026-04-19T07:33:21.15Z</time></trkpt><trkpt lat="41.121085" lon="14.8061067"><ele>178.33333333333334</ele><time>2026-04-19T07:33:22.15Z</time></trkpt><trkpt lat="41.1212867" lon="14.8060383"><ele>177.0</ele><time>2026-04-19T07:33:23.15Z</time></trkpt><trkpt lat="41.121495" lon="14.805985"><ele>178.33333333333334</ele><time>2026-04-19T07:33:24.15Z</time></trkpt><trkpt lat="41.1216917" lon="14.80595"><ele>179.66666666666669</ele><time>2026-04-19T07:33:25.149Z</time></trkpt><trkpt lat="41.1218967" lon="14.8059333"><ele>181.0</ele><time>2026-04-19T07:33:26.15Z</time></trkpt><trkpt lat="41.122105" lon="14.8059267"><ele>181.0</ele><time>2026-04-19T07:33:27.149Z</time></trkpt><trkpt lat="41.1223183" lon="14.80593"><ele>181.0</ele><time>2026-04-19T07:33:28.15Z</time></trkpt><trkpt lat="41.1225333" lon="14.8059433"><ele>181.0</ele><time>2026-04-19T07:33:29.15Z</time></trkpt><trkpt lat="41.1227467" lon="14.8059517"><ele>180.66666666666669</ele><time>2026-04-19T07:33:30.15Z</time></trkpt><trkpt lat="41.12296" lon="14.805955"><ele>180.33333333333334</ele><time>2026-04-19T07:33:31.15Z</time></trkpt><trkpt lat="41.1231683" lon="14.8059567"><ele>180.0</ele><time>2026-04-19T07:33:32.15Z</time></trkpt><trkpt lat="41.1233783" lon="14.8059533"><ele>180.0</ele><time>2026-04-19T07:33:33.15Z</time></trkpt><trkpt lat="41.12359" lon="14.80596"><ele>180.0</ele><time>2026-04-19T07:33:34.149Z</time></trkpt><trkpt lat="41.1237967" lon="14.805965"><ele>180.0</ele><time>2026-04-19T07:33:35.15Z</time></trkpt><trkpt lat="41.1240017" lon="14.8059667"><ele>179.0</ele><time>2026-04-19T07:33:36.149Z</time></trkpt><trkpt lat="41.1242067" lon="14.8059717"><ele>178.0</ele><time>2026-04-19T07:33:37.15Z</time></trkpt><trkpt lat="41.1244117" lon="14.805985"><ele>177.0</ele><time>2026-04-19T07:33:38.149Z</time></trkpt><trkpt lat="41.1246117" lon="14.80599"><ele>177.0</ele><time>2026-04-19T07:33:39.15Z</time></trkpt><trkpt lat="41.1248167" lon="14.805995"><ele>177.0</ele><time>2026-04-19T07:33:40.15Z</time></trkpt><trkpt lat="41.1250233" lon="14.8060033"><ele>177.0</ele><time>2026-04-19T07:33:41.15Z</time></trkpt><trkpt lat="41.12523" lon="14.8060117"><ele>178.66666666666666</ele><time>2026-04-19T07:33:42.15Z</time></trkpt><trkpt lat="41.125435" lon="14.8060167"><ele>180.33333333333331</ele><time>2026-04-19T07:33:43.15Z</time></trkpt><trkpt lat="41.1256383" lon="14.80602"><ele>182.0</ele><time>2026-04-19T07:33:44.15Z</time></trkpt><trkpt lat="41.1258467" lon="14.8060283"><ele>177.33333333333331</ele><time>2026-04-19T07:33:45.15Z</time></trkpt><trkpt lat="41.1260483" lon="14.8060333"><ele>172.66666666666666</ele><time>2026-04-19T07:33:46.15Z</time></trkpt><trkpt lat="41.1262467" lon="14.8060383"><ele>168.0</ele><time>2026-04-19T07:33:47.149Z</time></trkpt><trkpt lat="41.1264417" lon="14.806045"><ele>170.0</ele><time>2026-04-19T07:33:48.149Z</time></trkpt><trkpt lat="41.1266283" lon="14.80605"><ele>172.0</ele><time>2026-04-19T07:33:49.149Z</time></trkpt><trkpt lat="41.12681" lon="14.806055"><ele>174.0</ele><time>2026-04-19T07:33:50.15Z</time></trkpt><trkpt lat="41.1269983" lon="14.8060617"><ele>174.0</ele><time>2026-04-19T07:33:51.15Z</time></trkpt><trkpt lat="41.127185" lon="14.8060617"><ele>174.0</ele><time>2026-04-19T07:33:52.149Z</time></trkpt><trkpt lat="41.1273733" lon="14.8060683"><ele>174.0</ele><time>2026-04-19T07:33:53.15Z</time></trkpt><trkpt lat="41.127565" lon="14.806075"><ele>175.0</ele><time>2026-04-19T07:33:54.149Z</time></trkpt><trkpt lat="41.1277583" lon="14.806075"><ele>176.0</ele><time>2026-04-19T07:33:55.15Z</time></trkpt><trkpt lat="41.1279483" lon="14.80607"><ele>177.0</ele><time>2026-04-19T07:33:56.15Z</time></trkpt><trkpt lat="41.128145" lon="14.8060483"><ele>175.66666666666666</ele><time>2026-04-19T07:33:57.149Z</time></trkpt><trkpt lat="41.12834" lon="14.80602"><ele>174.33333333333331</ele><time>2026-04-19T07:33:58.149Z</time></trkpt><trkpt lat="41.12854" lon="14.8059767"><ele>173.0</ele><time>2026-04-19T07:33:59.149Z</time></trkpt><trkpt lat="41.128745" lon="14.80592"><ele>170.33333333333331</ele><time>2026-04-19T07:34:00.15Z</time></trkpt><trkpt lat="41.1289467" lon="14.8058583"><ele>167.66666666666666</ele><time>2026-04-19T07:34:01.149Z</time></trkpt><trkpt lat="41.1291667" lon="14.80581"><ele>165.0</ele><time>2026-04-19T07:34:02.149Z</time></trkpt><trkpt lat="41.12938" lon="14.8057417"><ele>164.0</ele><time>2026-04-19T07:34:03.15Z</time></trkpt><trkpt lat="41.1295883" lon="14.80567"><ele>163.0</ele><time>2026-04-19T07:34:04.15Z</time></trkpt><trkpt lat="41.1298017" lon="14.8055867"><ele>162.0</ele><time>2026-04-19T07:34:05.149Z</time></trkpt><trkpt lat="41.130015" lon="14.8055033"><ele>159.0</ele><time>2026-04-19T07:34:06.15Z</time></trkpt><trkpt lat="41.1302283" lon="14.80542"><ele>156.0</ele><time>2026-04-19T07:34:07.15Z</time></trkpt><trkpt lat="41.13044" lon="14.80534"><ele>153.0</ele><time>2026-04-19T07:34:08.15Z</time></trkpt><trkpt lat="41.1306567" lon="14.8052617"><ele>153.33333333333334</ele><time>2026-04-19T07:34:09.15Z</time></trkpt><trkpt lat="41.130875" lon="14.8051883"><ele>153.66666666666669</ele><time>2026-04-19T07:34:10.15Z</time></trkpt><trkpt lat="41.13109" lon="14.8051067"><ele>154.0</ele><time>2026-04-19T07:34:11.15Z</time></trkpt><trkpt lat="41.1313033" lon="14.8050233"><ele>153.0</ele><time>2026-04-19T07:34:12.15Z</time></trkpt><trkpt lat="41.1315117" lon="14.80494"><ele>152.0</ele><time>2026-04-19T07:34:13.149Z</time></trkpt><trkpt lat="41.131725" lon="14.8048617"><ele>151.0</ele><time>2026-04-19T07:34:14.15Z</time></trkpt><trkpt lat="41.1319317" lon="14.8047867"><ele>154.33333333333334</ele><time>2026-04-19T07:34:15.149Z</time></trkpt><trkpt lat="41.1321433" lon="14.80471"><ele>157.66666666666666</ele><time>2026-04-19T07:34:16.15Z</time></trkpt><trkpt lat="41.132345" lon="14.804635"><ele>161.0</ele><time>2026-04-19T07:34:17.15Z</time></trkpt><trkpt lat="41.1325483" lon="14.8045617"><ele>163.66666666666666</ele><time>2026-04-19T07:34:18.149Z</time></trkpt><trkpt lat="41.132755" lon="14.8044917"><ele>166.33333333333334</ele><time>2026-04-19T07:34:19.149Z</time></trkpt><trkpt lat="41.1329583" lon="14.8044133"><ele>169.0</ele><time>2026-04-19T07:34:20.15Z</time></trkpt><trkpt lat="41.13316" lon="14.8043367"><ele>170.66666666666669</ele><time>2026-04-19T07:34:21.15Z</time></trkpt><trkpt lat="41.1333583" lon="14.8042533"><ele>172.33333333333334</ele><time>2026-04-19T07:34:22.149Z</time></trkpt><trkpt lat="41.1335433" lon="14.8041617"><ele>174.0</ele><time>2026-04-19T07:34:23.15Z</time></trkpt><trkpt lat="41.1337233" lon="14.8040617"><ele>174.0</ele><time>2026-04-19T07:34:24.15Z</time></trkpt><trkpt lat="41.1338983" lon="14.8039567"><ele>174.0</ele><time>2026-04-19T07:34:25.15Z</time></trkpt><trkpt lat="41.134065" lon="14.803845"><ele>174.0</ele><time>2026-04-19T07:34:26.15Z</time></trkpt><trkpt lat="41.13424" lon="14.8037283"><ele>173.66666666666666</ele><time>2026-04-19T07:34:27.149Z</time></trkpt><trkpt lat="41.1344067" lon="14.8036033"><ele>173.33333333333331</ele><time>2026-04-19T07:34:28.15Z</time></trkpt><trkpt lat="41.1345733" lon="14.803465"><ele>173.0</ele><time>2026-04-19T07:34:29.149Z</time></trkpt><trkpt lat="41.13474" lon="14.8033233"><ele>176.0</ele><time>2026-04-19T07:34:30.149Z</time></trkpt><trkpt lat="41.1349" lon="14.8031717"><ele>179.0</ele><time>2026-04-19T07:34:31.15Z</time></trkpt><trkpt lat="41.13506" lon="14.8030167"><ele>182.0</ele><time>2026-04-19T07:34:32.15Z</time></trkpt><trkpt lat="41.1352167" lon="14.8028583"><ele>182.0</ele><time>2026-04-19T07:34:33.15Z</time></trkpt><trkpt lat="41.13538" lon="14.8027017"><ele>182.0</ele><time>2026-04-19T07:34:34.15Z</time></trkpt><trkpt lat="41.1355433" lon="14.8025383"><ele>182.0</ele><time>2026-04-19T07:34:35.149Z</time></trkpt><trkpt lat="41.135705" lon="14.8023683"><ele>183.0</ele><time>2026-04-19T07:34:36.15Z</time></trkpt><trkpt lat="41.1358683" lon="14.8021917"><ele>184.0</ele><time>2026-04-19T07:34:37.15Z</time></trkpt><trkpt lat="41.1360333" lon="14.80201"><ele>185.0</ele><time>2026-04-19T07:34:38.15Z</time></trkpt><trkpt lat="41.1361983" lon="14.8018367"><ele>185.33333333333331</ele><time>2026-04-19T07:34:39.15Z</time></trkpt><trkpt lat="41.1363683" lon="14.80167"><ele>185.66666666666666</ele><time>2026-04-19T07:34:40.149Z</time></trkpt><trkpt lat="41.1365383" lon="14.8014933"><ele>186.0</ele><time>2026-04-19T07:34:41.15Z</time></trkpt><trkpt lat="41.1367083" lon="14.80132"><ele>186.0</ele><time>2026-04-19T07:34:42.15Z</time></trkpt><trkpt lat="41.136875" lon="14.8011483"><ele>186.0</ele><time>2026-04-19T07:34:43.15Z</time></trkpt><trkpt lat="41.1370433" lon="14.80098"><ele>186.0</ele><time>2026-04-19T07:34:44.149Z</time></trkpt><trkpt lat="41.1372067" lon="14.8008067"><ele>186.66666666666666</ele><time>2026-04-19T07:34:45.15Z</time></trkpt><trkpt lat="41.1373633" lon="14.80063"><ele>187.33333333333331</ele><time>2026-04-19T07:34:46.15Z</time></trkpt><trkpt lat="41.1375283" lon="14.800455"><ele>188.0</ele><time>2026-04-19T07:34:47.15Z</time></trkpt><trkpt lat="41.13769" lon="14.8002767"><ele>188.0</ele><time>2026-04-19T07:34:48.149Z</time></trkpt><trkpt lat="41.1378483" lon="14.800095"><ele>188.0</ele><time>2026-04-19T07:34:49.149Z</time></trkpt><trkpt lat="41.137995" lon="14.7999017"><ele>188.0</ele><time>2026-04-19T07:34:50.15Z</time></trkpt><trkpt lat="41.1381367" lon="14.7997083"><ele>188.0</ele><time>2026-04-19T07:34:51.15Z</time></trkpt><trkpt lat="41.13828" lon="14.79951"><ele>188.0</ele><time>2026-04-19T07:34:52.15Z</time></trkpt><trkpt lat="41.13842" lon="14.7993083"><ele>188.0</ele><time>2026-04-19T07:34:53.15Z</time></trkpt><trkpt lat="41.1385517" lon="14.799095"><ele>187.66666666666666</ele><time>2026-04-19T07:34:54.149Z</time></trkpt><trkpt lat="41.1386717" lon="14.7988833"><ele>187.33333333333334</ele><time>2026-04-19T07:34:55.15Z</time></trkpt><trkpt lat="41.1387867" lon="14.7986783"><ele>187.0</ele><time>2026-04-19T07:34:56.15Z</time></trkpt><trkpt lat="41.1389" lon="14.7984883"><ele>187.0</ele><time>2026-04-19T07:34:57.15Z</time></trkpt><trkpt lat="41.1390083" lon="14.798295"><ele>187.0</ele><time>2026-04-19T07:34:58.15Z</time></trkpt><trkpt lat="41.13912" lon="14.7980983"><ele>187.0</ele><time>2026-04-19T07:34:59.15Z</time></trkpt><trkpt lat="41.139225" lon="14.7979"><ele>186.33333333333334</ele><time>2026-04-19T07:35:00.15Z</time></trkpt><trkpt lat="41.1393283" lon="14.7976933"><ele>185.66666666666666</ele><time>2026-04-19T07:35:01.15Z</time></trkpt><trkpt lat="41.1394367" lon="14.7974833"><ele>185.0</ele><time>2026-04-19T07:35:02.15Z</time></trkpt><trkpt lat="41.1395433" lon="14.797275"><ele>184.66666666666666</ele><time>2026-04-19T07:35:03.15Z</time></trkpt><trkpt lat="41.1396533" lon="14.797055"><ele>184.33333333333334</ele><time>2026-04-19T07:35:04.15Z</time></trkpt><trkpt lat="41.139765" lon="14.7968333"><ele>184.0</ele><time>2026-04-19T07:35:05.149Z</time></trkpt><trkpt lat="41.13988" lon="14.7966117"><ele>182.0</ele><time>2026-04-19T07:35:06.149Z</time></trkpt><trkpt lat="41.1399933" lon="14.79639"><ele>180.0</ele><time>2026-04-19T07:35:07.15Z</time></trkpt><trkpt lat="41.14011" lon="14.7961683"><ele>178.0</ele><time>2026-04-19T07:35:08.15Z</time></trkpt><trkpt lat="41.140225" lon="14.795955"><ele>177.0</ele><time>2026-04-19T07:35:09.149Z</time></trkpt><trkpt lat="41.140335" lon="14.7957317"><ele>176.0</ele><time>2026-04-19T07:35:10.15Z</time></trkpt><trkpt lat="41.1404483" lon="14.7955067"><ele>175.0</ele><time>2026-04-19T07:35:11.149Z</time></trkpt><trkpt lat="41.1405567" lon="14.79529"><ele>173.33333333333334</ele><time>2026-04-19T07:35:12.149Z</time></trkpt><trkpt lat="41.1406733" lon="14.795065"><ele>171.66666666666666</ele><time>2026-04-19T07:35:13.15Z</time></trkpt><trkpt lat="41.140785" lon="14.7948517"><ele>170.0</ele><time>2026-04-19T07:35:14.15Z</time></trkpt><trkpt lat="41.1409" lon="14.7946317"><ele>169.0</ele><time>2026-04-19T07:35:15.15Z</time></trkpt><trkpt lat="41.141015" lon="14.794415"><ele>168.0</ele><time>2026-04-19T07:35:16.15Z</time></trkpt><trkpt lat="41.1411283" lon="14.7941883"><ele>167.0</ele><time>2026-04-19T07:35:17.149Z</time></trkpt><trkpt lat="41.1412467" lon="14.793965"><ele>164.0</ele><time>2026-04-19T07:35:18.149Z</time></trkpt><trkpt lat="41.1413633" lon="14.7937283"><ele>161.0</ele><time>2026-04-19T07:35:19.15Z</time></trkpt><trkpt lat="41.1414883" lon="14.7935033"><ele>158.0</ele><time>2026-04-19T07:35:20.149Z</time></trkpt><trkpt lat="41.141605" lon="14.79327"><ele>156.33333333333331</ele><time>2026-04-19T07:35:21.149Z</time></trkpt><trkpt lat="41.1417217" lon="14.79304"><ele>154.66666666666666</ele><time>2026-04-19T07:35:22.151Z</time></trkpt><trkpt lat="41.1418333" lon="14.79282"><ele>153.0</ele><time>2026-04-19T07:35:23.151Z</time></trkpt><trkpt lat="41.1419467" lon="14.7926017"><ele>150.0</ele><time>2026-04-19T07:35:24.151Z</time></trkpt><trkpt lat="41.14206" lon="14.7923833"><ele>147.0</ele><time>2026-04-19T07:35:25.151Z</time></trkpt><trkpt lat="41.14217" lon="14.792175"><ele>144.0</ele><time>2026-04-19T07:35:26.15Z</time></trkpt><trkpt lat="41.14228" lon="14.79197"><ele>141.0</ele><time>2026-04-19T07:35:27.151Z</time></trkpt><trkpt lat="41.1423833" lon="14.7917683"><ele>138.0</ele><time>2026-04-19T07:35:28.15Z</time></trkpt><trkpt lat="41.1424883" lon="14.7915733"><ele>135.0</ele><time>2026-04-19T07:35:29.151Z</time></trkpt><trkpt lat="41.142585" lon="14.79137"><ele>135.0</ele><time>2026-04-19T07:35:30.151Z</time></trkpt><trkpt lat="41.142685" lon="14.79117"><ele>135.0</ele><time>2026-04-19T07:35:31.15Z</time></trkpt><trkpt lat="41.1427917" lon="14.7909667"><ele>135.0</ele><time>2026-04-19T07:35:32.151Z</time></trkpt><trkpt lat="41.142895" lon="14.79076"><ele>134.0</ele><time>2026-04-19T07:35:33.15Z</time></trkpt><trkpt lat="41.1430033" lon="14.7905467"><ele>133.0</ele><time>2026-04-19T07:35:34.151Z</time></trkpt><trkpt lat="41.1431183" lon="14.7903283"><ele>132.0</ele><time>2026-04-19T07:35:35.15Z</time></trkpt><trkpt lat="41.14323" lon="14.7901117"><ele>131.33333333333334</ele><time>2026-04-19T07:35:36.15Z</time></trkpt><trkpt lat="41.14334" lon="14.789895"><ele>130.66666666666669</ele><time>2026-04-19T07:35:37.15Z</time></trkpt><trkpt lat="41.14345" lon="14.7896833"><ele>130.0</ele><time>2026-04-19T07:35:38.151Z</time></trkpt><trkpt lat="41.143565" lon="14.7894633"><ele>129.66666666666669</ele><time>2026-04-19T07:35:39.151Z</time></trkpt><trkpt lat="41.14367" lon="14.7892383"><ele>129.33333333333334</ele><time>2026-04-19T07:35:40.15Z</time></trkpt><trkpt lat="41.1437783" lon="14.78902"><ele>129.0</ele><time>2026-04-19T07:35:41.151Z</time></trkpt><trkpt lat="41.1438933" lon="14.788805"><ele>129.0</ele><time>2026-04-19T07:35:42.151Z</time></trkpt><trkpt lat="41.1440083" lon="14.78859"><ele>129.0</ele><time>2026-04-19T07:35:43.151Z</time></trkpt><trkpt lat="41.1441183" lon="14.788365"><ele>129.0</ele><time>2026-04-19T07:35:44.151Z</time></trkpt><trkpt lat="41.14423" lon="14.788135"><ele>128.33333333333334</ele><time>2026-04-19T07:35:45.151Z</time></trkpt><trkpt lat="41.1443467" lon="14.7879067"><ele>127.66666666666667</ele><time>2026-04-19T07:35:46.151Z</time></trkpt><trkpt lat="41.144465" lon="14.7876783"><ele>127.0</ele><time>2026-04-19T07:35:47.151Z</time></trkpt><trkpt lat="41.1445867" lon="14.7874567"><ele>127.0</ele><time>2026-04-19T07:35:48.151Z</time></trkpt><trkpt lat="41.1447133" lon="14.787235"><ele>127.0</ele><time>2026-04-19T07:35:49.151Z</time></trkpt><trkpt lat="41.1448367" lon="14.7870083"><ele>127.0</ele><time>2026-04-19T07:35:50.151Z</time></trkpt><trkpt lat="41.14495" lon="14.78677"><ele>126.66666666666667</ele><time>2026-04-19T07:35:51.151Z</time></trkpt><trkpt lat="41.14506" lon="14.7865333"><ele>126.33333333333334</ele><time>2026-04-19T07:35:52.151Z</time></trkpt><trkpt lat="41.1451767" lon="14.7863033"><ele>126.0</ele><time>2026-04-19T07:35:53.151Z</time></trkpt><trkpt lat="41.1453017" lon="14.786065"><ele>125.66666666666666</ele><time>2026-04-19T07:35:54.15Z</time></trkpt><trkpt lat="41.1454267" lon="14.7858233"><ele>125.33333333333333</ele><time>2026-04-19T07:35:55.151Z</time></trkpt><trkpt lat="41.14555" lon="14.7855817"><ele>125.0</ele><time>2026-04-19T07:35:56.151Z</time></trkpt><trkpt lat="41.1456717" lon="14.78534"><ele>124.66666666666666</ele><time>2026-04-19T07:35:57.151Z</time></trkpt><trkpt lat="41.1457983" lon="14.7850967"><ele>124.33333333333334</ele><time>2026-04-19T07:35:58.151Z</time></trkpt><trkpt lat="41.145925" lon="14.7848517"><ele>124.0</ele><time>2026-04-19T07:35:59.151Z</time></trkpt><trkpt lat="41.1460483" lon="14.7846133"><ele>124.0</ele><time>2026-04-19T07:36:00.15Z</time></trkpt><trkpt lat="41.1461683" lon="14.7843683"><ele>124.0</ele><time>2026-04-19T07:36:01.15Z</time></trkpt><trkpt lat="41.14629" lon="14.7841317"><ele>124.0</ele><time>2026-04-19T07:36:02.151Z</time></trkpt><trkpt lat="41.1464167" lon="14.7838933"><ele>123.33333333333334</ele><time>2026-04-19T07:36:03.15Z</time></trkpt><trkpt lat="41.1465367" lon="14.78366"><ele>122.66666666666666</ele><time>2026-04-19T07:36:04.151Z</time></trkpt><trkpt lat="41.14665" lon="14.7834217"><ele>122.0</ele><time>2026-04-19T07:36:05.151Z</time></trkpt><trkpt lat="41.146765" lon="14.78319"><ele>124.0</ele><time>2026-04-19T07:36:06.151Z</time></trkpt><trkpt lat="41.146865" lon="14.7829517"><ele>126.0</ele><time>2026-04-19T07:36:07.151Z</time></trkpt><trkpt lat="41.1469633" lon="14.7827117"><ele>128.0</ele><time>2026-04-19T07:36:08.151Z</time></trkpt><trkpt lat="41.147055" lon="14.7824633"><ele>129.66666666666666</ele><time>2026-04-19T07:36:09.151Z</time></trkpt><trkpt lat="41.147145" lon="14.7822133"><ele>131.33333333333334</ele><time>2026-04-19T07:36:10.151Z</time></trkpt><trkpt lat="41.147235" lon="14.781955"><ele>133.0</ele><time>2026-04-19T07:36:11.15Z</time></trkpt><trkpt lat="41.1473233" lon="14.7816933"><ele>135.66666666666669</ele><time>2026-04-19T07:36:12.151Z</time></trkpt><trkpt lat="41.1474083" lon="14.7814317"><ele>138.33333333333334</ele><time>2026-04-19T07:36:13.151Z</time></trkpt><trkpt lat="41.1474867" lon="14.7811717"><ele>141.0</ele><time>2026-04-19T07:36:14.151Z</time></trkpt><trkpt lat="41.1475583" lon="14.7809033"><ele>141.0</ele><time>2026-04-19T07:36:15.15Z</time></trkpt><trkpt lat="41.147625" lon="14.78064"><ele>141.0</ele><time>2026-04-19T07:36:16.151Z</time></trkpt><trkpt lat="41.1476867" lon="14.7803633"><ele>141.0</ele><time>2026-04-19T07:36:17.151Z</time></trkpt><trkpt lat="41.1477467" lon="14.7800833"><ele>141.0</ele><time>2026-04-19T07:36:18.151Z</time></trkpt><trkpt lat="41.1478017" lon="14.7797983"><ele>141.0</ele><time>2026-04-19T07:36:19.15Z</time></trkpt><trkpt lat="41.1478467" lon="14.7795"><ele>141.0</ele><time>2026-04-19T07:36:20.151Z</time></trkpt><trkpt lat="41.1478867" lon="14.7792"><ele>141.0</ele><time>2026-04-19T07:36:21.15Z</time></trkpt><trkpt lat="41.14792" lon="14.7789067"><ele>141.0</ele><time>2026-04-19T07:36:22.151Z</time></trkpt><trkpt lat="41.1479517" lon="14.7786117"><ele>141.0</ele><time>2026-04-19T07:36:23.151Z</time></trkpt><trkpt lat="41.1479767" lon="14.778315"><ele>141.0</ele><time>2026-04-19T07:36:24.15Z</time></trkpt><trkpt lat="41.1479983" lon="14.778015"><ele>141.0</ele><time>2026-04-19T07:36:25.151Z</time></trkpt><trkpt lat="41.1480183" lon="14.7777183"><ele>141.0</ele><time>2026-04-19T07:36:26.15Z</time></trkpt><trkpt lat="41.148035" lon="14.7774233"><ele>141.0</ele><time>2026-04-19T07:36:27.151Z</time></trkpt><trkpt lat="41.14804" lon="14.7771283"><ele>141.66666666666666</ele><time>2026-04-19T07:36:28.151Z</time></trkpt><trkpt lat="41.1480433" lon="14.7768483"><ele>142.33333333333331</ele><time>2026-04-19T07:36:29.15Z</time></trkpt><trkpt lat="41.1480483" lon="14.7765633"><ele>143.0</ele><time>2026-04-19T07:36:30.15Z</time></trkpt><trkpt lat="41.1480567" lon="14.7762783"><ele>142.66666666666666</ele><time>2026-04-19T07:36:31.151Z</time></trkpt><trkpt lat="41.148065" lon="14.7759917"><ele>142.33333333333334</ele><time>2026-04-19T07:36:32.151Z</time></trkpt><trkpt lat="41.1480733" lon="14.7757067"><ele>142.0</ele><time>2026-04-19T07:36:33.151Z</time></trkpt><trkpt lat="41.1480867" lon="14.7754233"><ele>141.66666666666669</ele><time>2026-04-19T07:36:34.15Z</time></trkpt><trkpt lat="41.148095" lon="14.7751467"><ele>141.33333333333334</ele><time>2026-04-19T07:36:35.151Z</time></trkpt><trkpt lat="41.1481033" lon="14.7748683"><ele>141.0</ele><time>2026-04-19T07:36:36.151Z</time></trkpt><trkpt lat="41.148115" lon="14.7745967"><ele>140.66666666666666</ele><time>2026-04-19T07:36:37.151Z</time></trkpt><trkpt lat="41.148125" lon="14.7743167"><ele>140.33333333333331</ele><time>2026-04-19T07:36:38.151Z</time></trkpt><trkpt lat="41.1481367" lon="14.7740317"><ele>140.0</ele><time>2026-04-19T07:36:39.151Z</time></trkpt><trkpt lat="41.1481467" lon="14.7737517"><ele>140.66666666666666</ele><time>2026-04-19T07:36:40.15Z</time></trkpt><trkpt lat="41.1481583" lon="14.7734767"><ele>141.33333333333334</ele><time>2026-04-19T07:36:41.151Z</time></trkpt><trkpt lat="41.148165" lon="14.773205"><ele>142.0</ele><time>2026-04-19T07:36:42.151Z</time></trkpt><trkpt lat="41.1481883" lon="14.7729317"><ele>142.0</ele><time>2026-04-19T07:36:43.151Z</time></trkpt><trkpt lat="41.1482033" lon="14.7726517"><ele>142.0</ele><time>2026-04-19T07:36:44.151Z</time></trkpt><trkpt lat="41.14822" lon="14.7723717"><ele>142.0</ele><time>2026-04-19T07:36:45.15Z</time></trkpt><trkpt lat="41.1482367" lon="14.772095"><ele>145.0</ele><time>2026-04-19T07:36:46.151Z</time></trkpt><trkpt lat="41.1482633" lon="14.7718167"><ele>148.0</ele><time>2026-04-19T07:36:47.151Z</time></trkpt><trkpt lat="41.1482933" lon="14.771535"><ele>151.0</ele><time>2026-04-19T07:36:48.151Z</time></trkpt><trkpt lat="41.148325" lon="14.7712483"><ele>150.0</ele><time>2026-04-19T07:36:49.151Z</time></trkpt><trkpt lat="41.14836" lon="14.77098"><ele>149.0</ele><time>2026-04-19T07:36:50.151Z</time></trkpt><trkpt lat="41.1484017" lon="14.7707"><ele>148.0</ele><time>2026-04-19T07:36:51.151Z</time></trkpt><trkpt lat="41.1484467" lon="14.7704333"><ele>147.66666666666669</ele><time>2026-04-19T07:36:52.151Z</time></trkpt><trkpt lat="41.1485067" lon="14.7701583"><ele>147.33333333333334</ele><time>2026-04-19T07:36:53.151Z</time></trkpt><trkpt lat="41.1485717" lon="14.7698967"><ele>147.0</ele><time>2026-04-19T07:36:54.15Z</time></trkpt><trkpt lat="41.148645" lon="14.7696333"><ele>147.0</ele><time>2026-04-19T07:36:55.151Z</time></trkpt><trkpt lat="41.148725" lon="14.76938"><ele>147.0</ele><time>2026-04-19T07:36:56.151Z</time></trkpt><trkpt lat="41.1488133" lon="14.7691333"><ele>147.0</ele><time>2026-04-19T07:36:57.151Z</time></trkpt><trkpt lat="41.1489067" lon="14.76888"><ele>146.33333333333334</ele><time>2026-04-19T07:36:58.15Z</time></trkpt><trkpt lat="41.14901" lon="14.76863"><ele>145.66666666666669</ele><time>2026-04-19T07:36:59.151Z</time></trkpt><trkpt lat="41.149125" lon="14.7683817"><ele>145.0</ele><time>2026-04-19T07:37:00.15Z</time></trkpt><trkpt lat="41.1492433" lon="14.7681467"><ele>145.0</ele><time>2026-04-19T07:37:01.15Z</time></trkpt><trkpt lat="41.1493667" lon="14.7679033"><ele>145.0</ele><time>2026-04-19T07:37:02.151Z</time></trkpt><trkpt lat="41.1495017" lon="14.7676683"><ele>145.0</ele><time>2026-04-19T07:37:03.151Z</time></trkpt><trkpt lat="41.14964" lon="14.767445"><ele>145.0</ele><time>2026-04-19T07:37:04.15Z</time></trkpt><trkpt lat="41.14978" lon="14.7672283"><ele>145.0</ele><time>2026-04-19T07:37:05.151Z</time></trkpt><trkpt lat="41.1499333" lon="14.76702"><ele>145.0</ele><time>2026-04-19T07:37:06.151Z</time></trkpt><trkpt lat="41.15009" lon="14.7668217"><ele>143.33333333333334</ele><time>2026-04-19T07:37:07.151Z</time></trkpt><trkpt lat="41.150255" lon="14.7666333"><ele>141.66666666666666</ele><time>2026-04-19T07:37:08.151Z</time></trkpt><trkpt lat="41.1504183" lon="14.7664533"><ele>140.0</ele><time>2026-04-19T07:37:09.151Z</time></trkpt><trkpt lat="41.150585" lon="14.7662833"><ele>139.0</ele><time>2026-04-19T07:37:10.151Z</time></trkpt><trkpt lat="41.150755" lon="14.766125"><ele>138.0</ele><time>2026-04-19T07:37:11.15Z</time></trkpt><trkpt lat="41.15093" lon="14.7659767"><ele>137.0</ele><time>2026-04-19T07:37:12.151Z</time></trkpt><trkpt lat="41.151105" lon="14.7658367"><ele>136.33333333333331</ele><time>2026-04-19T07:37:13.151Z</time></trkpt><trkpt lat="41.15129" lon="14.7657033"><ele>135.66666666666666</ele><time>2026-04-19T07:37:14.151Z</time></trkpt><trkpt lat="41.151475" lon="14.765575"><ele>135.0</ele><time>2026-04-19T07:37:15.151Z</time></trkpt><trkpt lat="41.151665" lon="14.765455"><ele>135.0</ele><time>2026-04-19T07:37:16.151Z</time></trkpt><trkpt lat="41.1518617" lon="14.765345"><ele>135.0</ele><time>2026-04-19T07:37:17.151Z</time></trkpt><trkpt lat="41.152065" lon="14.7652483"><ele>135.0</ele><time>2026-04-19T07:37:18.151Z</time></trkpt><trkpt lat="41.15227" lon="14.7651617"><ele>137.33333333333334</ele><time>2026-04-19T07:37:19.15Z</time></trkpt><trkpt lat="41.1524767" lon="14.76509"><ele>139.66666666666669</ele><time>2026-04-19T07:37:20.151Z</time></trkpt><trkpt lat="41.1526833" lon="14.7650117"><ele>142.0</ele><time>2026-04-19T07:37:21.151Z</time></trkpt><trkpt lat="41.1528983" lon="14.7649433"><ele>142.0</ele><time>2026-04-19T07:37:22.151Z</time></trkpt><trkpt lat="41.1531117" lon="14.7648833"><ele>142.0</ele><time>2026-04-19T07:37:23.151Z</time></trkpt><trkpt lat="41.1533233" lon="14.7648133"><ele>142.0</ele><time>2026-04-19T07:37:24.151Z</time></trkpt><trkpt lat="41.1535367" lon="14.764755"><ele>143.66666666666669</ele><time>2026-04-19T07:37:25.151Z</time></trkpt><trkpt lat="41.1537433" lon="14.764695"><ele>145.33333333333334</ele><time>2026-04-19T07:37:26.151Z</time></trkpt><trkpt lat="41.1539467" lon="14.76463"><ele>147.0</ele><time>2026-04-19T07:37:27.151Z</time></trkpt><trkpt lat="41.154155" lon="14.7645767"><ele>149.0</ele><time>2026-04-19T07:37:28.151Z</time></trkpt><trkpt lat="41.154365" lon="14.764515"><ele>151.0</ele><time>2026-04-19T07:37:29.151Z</time></trkpt><trkpt lat="41.1545683" lon="14.7644533"><ele>153.0</ele><time>2026-04-19T07:37:30.151Z</time></trkpt><trkpt lat="41.1547733" lon="14.7643867"><ele>154.0</ele><time>2026-04-19T07:37:31.151Z</time></trkpt><trkpt lat="41.1549783" lon="14.7643267"><ele>155.0</ele><time>2026-04-19T07:37:32.151Z</time></trkpt><trkpt lat="41.1551817" lon="14.7642717"><ele>156.0</ele><time>2026-04-19T07:37:33.151Z</time></trkpt><trkpt lat="41.1553817" lon="14.7642133"><ele>156.0</ele><time>2026-04-19T07:37:34.151Z</time></trkpt><trkpt lat="41.155585" lon="14.764165"><ele>156.0</ele><time>2026-04-19T07:37:35.15Z</time></trkpt><trkpt lat="41.155785" lon="14.7641183"><ele>156.0</ele><time>2026-04-19T07:37:36.151Z</time></trkpt><trkpt lat="41.15599" lon="14.7640767"><ele>157.0</ele><time>2026-04-19T07:37:37.151Z</time></trkpt><trkpt lat="41.156195" lon="14.7640367"><ele>158.0</ele><time>2026-04-19T07:37:38.151Z</time></trkpt><trkpt lat="41.1563983" lon="14.7639983"><ele>159.0</ele><time>2026-04-19T07:37:39.15Z</time></trkpt><trkpt lat="41.1566017" lon="14.7639567"><ele>160.66666666666666</ele><time>2026-04-19T07:37:40.151Z</time></trkpt><trkpt lat="41.1568067" lon="14.7639167"><ele>162.33333333333331</ele><time>2026-04-19T07:37:41.151Z</time></trkpt><trkpt lat="41.15701" lon="14.7638733"><ele>164.0</ele><time>2026-04-19T07:37:42.151Z</time></trkpt><trkpt lat="41.15721" lon="14.7638317"><ele>165.0</ele><time>2026-04-19T07:37:43.151Z</time></trkpt><trkpt lat="41.1574133" lon="14.7637917"><ele>166.0</ele><time>2026-04-19T07:37:44.15Z</time></trkpt><trkpt lat="41.157615" lon="14.7637483"><ele>167.0</ele><time>2026-04-19T07:37:45.151Z</time></trkpt><trkpt lat="41.1578217" lon="14.7637117"><ele>167.0</ele><time>2026-04-19T07:37:46.151Z</time></trkpt><trkpt lat="41.15803" lon="14.7636767"><ele>167.0</ele><time>2026-04-19T07:37:47.151Z</time></trkpt><trkpt lat="41.1582367" lon="14.76363"><ele>167.0</ele><time>2026-04-19T07:37:48.151Z</time></trkpt><trkpt lat="41.1584433" lon="14.7635883"><ele>167.0</ele><time>2026-04-19T07:37:49.15Z</time></trkpt><trkpt lat="41.15865" lon="14.7635433"><ele>167.0</ele><time>2026-04-19T07:37:50.151Z</time></trkpt><trkpt lat="41.1588633" lon="14.7635"><ele>167.0</ele><time>2026-04-19T07:37:51.151Z</time></trkpt><trkpt lat="41.1590733" lon="14.7634517"><ele>164.0</ele><time>2026-04-19T07:37:52.151Z</time></trkpt><trkpt lat="41.159285" lon="14.7634167"><ele>161.0</ele><time>2026-04-19T07:37:53.151Z</time></trkpt><trkpt lat="41.1595017" lon="14.76337"><ele>158.0</ele><time>2026-04-19T07:37:54.151Z</time></trkpt><trkpt lat="41.1597183" lon="14.7633233"><ele>158.66666666666666</ele><time>2026-04-19T07:37:55.151Z</time></trkpt><trkpt lat="41.159935" lon="14.76328"><ele>159.33333333333334</ele><time>2026-04-19T07:37:56.151Z</time></trkpt><trkpt lat="41.1601533" lon="14.763235"><ele>160.0</ele><time>2026-04-19T07:37:57.15Z</time></trkpt><trkpt lat="41.160375" lon="14.7631933"><ele>160.0</ele><time>2026-04-19T07:37:58.151Z</time></trkpt><trkpt lat="41.1606" lon="14.7631517"><ele>160.0</ele><time>2026-04-19T07:37:59.151Z</time></trkpt><trkpt lat="41.160825" lon="14.7631017"><ele>162.0</ele><time>2026-04-19T07:38:00.15Z</time></trkpt><trkpt lat="41.1610467" lon="14.7630433"><ele>164.0</ele><time>2026-04-19T07:38:01.151Z</time></trkpt><trkpt lat="41.1612683" lon="14.762995"><ele>164.0</ele><time>2026-04-19T07:38:02.151Z</time></trkpt><trkpt lat="41.1614867" lon="14.762945"><ele>164.0</ele><time>2026-04-19T07:38:03.15Z</time></trkpt><trkpt lat="41.16171" lon="14.7629"><ele>164.0</ele><time>2026-04-19T07:38:04.151Z</time></trkpt><trkpt lat="41.1619317" lon="14.76286"><ele>163.33333333333331</ele><time>2026-04-19T07:38:05.15Z</time></trkpt><trkpt lat="41.16215" lon="14.7628167"><ele>162.66666666666666</ele><time>2026-04-19T07:38:06.15Z</time></trkpt><trkpt lat="41.162375" lon="14.762775"><ele>162.0</ele><time>2026-04-19T07:38:07.15Z</time></trkpt><trkpt lat="41.162595" lon="14.7627333"><ele>160.0</ele><time>2026-04-19T07:38:08.151Z</time></trkpt><trkpt lat="41.1628067" lon="14.7626833"><ele>158.0</ele><time>2026-04-19T07:38:09.151Z</time></trkpt><trkpt lat="41.1630267" lon="14.7626433"><ele>156.0</ele><time>2026-04-19T07:38:10.151Z</time></trkpt><trkpt lat="41.16325" lon="14.7625967"><ele>156.0</ele><time>2026-04-19T07:38:11.151Z</time></trkpt><trkpt lat="41.1634733" lon="14.7625517"><ele>156.0</ele><time>2026-04-19T07:38:12.151Z</time></trkpt><trkpt lat="41.1636917" lon="14.762505"><ele>156.0</ele><time>2026-04-19T07:38:13.151Z</time></trkpt><trkpt lat="41.1639117" lon="14.7624583"><ele>156.5</ele><time>2026-04-19T07:38:14.151Z</time></trkpt><trkpt lat="41.1641333" lon="14.76241"><ele>157.0</ele><time>2026-04-19T07:38:15.15Z</time></trkpt><trkpt lat="41.1643567" lon="14.762365"><ele>157.0</ele><time>2026-04-19T07:38:16.15Z</time></trkpt><trkpt lat="41.1645733" lon="14.7623183"><ele>157.0</ele><time>2026-04-19T07:38:17.151Z</time></trkpt><trkpt lat="41.1647917" lon="14.76228"><ele>157.0</ele><time>2026-04-19T07:38:18.151Z</time></trkpt><trkpt lat="41.1649933" lon="14.7622383"><ele>158.0</ele><time>2026-04-19T07:38:19.15Z</time></trkpt><trkpt lat="41.1652033" lon="14.7622017"><ele>159.0</ele><time>2026-04-19T07:38:20.151Z</time></trkpt><trkpt lat="41.1654133" lon="14.7621567"><ele>160.0</ele><time>2026-04-19T07:38:21.151Z</time></trkpt><trkpt lat="41.1656283" lon="14.76212"><ele>161.33333333333334</ele><time>2026-04-19T07:38:22.151Z</time></trkpt><trkpt lat="41.16584" lon="14.76208"><ele>162.66666666666666</ele><time>2026-04-19T07:38:23.151Z</time></trkpt><trkpt lat="41.1660483" lon="14.7620383"><ele>164.0</ele><time>2026-04-19T07:38:24.151Z</time></trkpt><trkpt lat="41.16626" lon="14.7619967"><ele>164.0</ele><time>2026-04-19T07:38:25.15Z</time></trkpt><trkpt lat="41.1664767" lon="14.76195"><ele>164.0</ele><time>2026-04-19T07:38:26.151Z</time></trkpt><trkpt lat="41.1666883" lon="14.761915"><ele>164.0</ele><time>2026-04-19T07:38:27.151Z</time></trkpt><trkpt lat="41.1668967" lon="14.7618733"><ele>163.33333333333331</ele><time>2026-04-19T07:38:28.151Z</time></trkpt><trkpt lat="41.1671083" lon="14.761835"><ele>162.66666666666666</ele><time>2026-04-19T07:38:29.151Z</time></trkpt><trkpt lat="41.16732" lon="14.7617883"><ele>162.0</ele><time>2026-04-19T07:38:30.151Z</time></trkpt><trkpt lat="41.1675267" lon="14.7617417"><ele>162.0</ele><time>2026-04-19T07:38:31.15Z</time></trkpt><trkpt lat="41.16773" lon="14.7617017"><ele>162.0</ele><time>2026-04-19T07:38:32.151Z</time></trkpt><trkpt lat="41.16793" lon="14.7616567"><ele>162.0</ele><time>2026-04-19T07:38:33.151Z</time></trkpt><trkpt lat="41.1681367" lon="14.76161"><ele>161.33333333333334</ele><time>2026-04-19T07:38:34.151Z</time></trkpt><trkpt lat="41.168345" lon="14.7615633"><ele>160.66666666666669</ele><time>2026-04-19T07:38:35.151Z</time></trkpt><trkpt lat="41.16855" lon="14.7615167"><ele>160.0</ele><time>2026-04-19T07:38:36.15Z</time></trkpt><trkpt lat="41.168765" lon="14.76147"><ele>160.0</ele><time>2026-04-19T07:38:37.151Z</time></trkpt><trkpt lat="41.1689783" lon="14.76142"><ele>160.0</ele><time>2026-04-19T07:38:38.15Z</time></trkpt><trkpt lat="41.1691883" lon="14.7613733"><ele>160.0</ele><time>2026-04-19T07:38:39.151Z</time></trkpt><trkpt lat="41.169405" lon="14.761325"><ele>161.33333333333334</ele><time>2026-04-19T07:38:40.151Z</time></trkpt><trkpt lat="41.16961" lon="14.761275"><ele>162.66666666666666</ele><time>2026-04-19T07:38:41.151Z</time></trkpt><trkpt lat="41.16982" lon="14.7612133"><ele>164.0</ele><time>2026-04-19T07:38:42.15Z</time></trkpt><trkpt lat="41.1700267" lon="14.76115"><ele>163.66666666666666</ele><time>2026-04-19T07:38:43.15Z</time></trkpt><trkpt lat="41.1702283" lon="14.7610783"><ele>163.33333333333334</ele><time>2026-04-19T07:38:44.15Z</time></trkpt><trkpt lat="41.17043" lon="14.7610017"><ele>163.0</ele><time>2026-04-19T07:38:45.151Z</time></trkpt><trkpt lat="41.1706333" lon="14.7609233"><ele>164.0</ele><time>2026-04-19T07:38:46.151Z</time></trkpt><trkpt lat="41.1708367" lon="14.760845"><ele>165.0</ele><time>2026-04-19T07:38:47.15Z</time></trkpt><trkpt lat="41.1710267" lon="14.76076"><ele>166.0</ele><time>2026-04-19T07:38:48.151Z</time></trkpt><trkpt lat="41.1712167" lon="14.7606767"><ele>166.0</ele><time>2026-04-19T07:38:49.15Z</time></trkpt><trkpt lat="41.1714067" lon="14.760595"><ele>166.0</ele><time>2026-04-19T07:38:50.15Z</time></trkpt><trkpt lat="41.1715933" lon="14.7605033"><ele>166.0</ele><time>2026-04-19T07:38:51.151Z</time></trkpt><trkpt lat="41.1717817" lon="14.760405"><ele>167.0</ele><time>2026-04-19T07:38:52.151Z</time></trkpt><trkpt lat="41.17197" lon="14.760295"><ele>168.0</ele><time>2026-04-19T07:38:53.151Z</time></trkpt><trkpt lat="41.172155" lon="14.7601867"><ele>169.0</ele><time>2026-04-19T07:38:54.151Z</time></trkpt><trkpt lat="41.1723383" lon="14.760075"><ele>170.33333333333334</ele><time>2026-04-19T07:38:55.151Z</time></trkpt><trkpt lat="41.1725183" lon="14.7599617"><ele>171.66666666666666</ele><time>2026-04-19T07:38:56.151Z</time></trkpt><trkpt lat="41.1726933" lon="14.7598467"><ele>173.0</ele><time>2026-04-19T07:38:57.15Z</time></trkpt><trkpt lat="41.17287" lon="14.7597367"><ele>173.0</ele><time>2026-04-19T07:38:58.151Z</time></trkpt><trkpt lat="41.1730483" lon="14.75962"><ele>173.0</ele><time>2026-04-19T07:38:59.151Z</time></trkpt><trkpt lat="41.1732183" lon="14.7594933"><ele>173.0</ele><time>2026-04-19T07:39:00.151Z</time></trkpt><trkpt lat="41.1733867" lon="14.759365"><ele>175.0</ele><time>2026-04-19T07:39:01.151Z</time></trkpt><trkpt lat="41.1735567" lon="14.7592367"><ele>177.0</ele><time>2026-04-19T07:39:02.151Z</time></trkpt><trkpt lat="41.1737233" lon="14.759105"><ele>179.0</ele><time>2026-04-19T07:39:03.15Z</time></trkpt><trkpt lat="41.1738933" lon="14.75897"><ele>178.66666666666666</ele><time>2026-04-19T07:39:04.151Z</time></trkpt><trkpt lat="41.17406" lon="14.7588367"><ele>178.33333333333334</ele><time>2026-04-19T07:39:05.15Z</time></trkpt><trkpt lat="41.1742267" lon="14.7587"><ele>178.0</ele><time>2026-04-19T07:39:06.151Z</time></trkpt><trkpt lat="41.1744" lon="14.7585633"><ele>179.0</ele><time>2026-04-19T07:39:07.15Z</time></trkpt><trkpt lat="41.1745667" lon="14.75842"><ele>180.0</ele><time>2026-04-19T07:39:08.15Z</time></trkpt><trkpt lat="41.1747367" lon="14.7582733"><ele>181.0</ele><time>2026-04-19T07:39:09.151Z</time></trkpt><trkpt lat="41.1749067" lon="14.758125"><ele>181.0</ele><time>2026-04-19T07:39:10.151Z</time></trkpt><trkpt lat="41.17507" lon="14.75798"><ele>181.0</ele><time>2026-04-19T07:39:11.15Z</time></trkpt><trkpt lat="41.175235" lon="14.7578317"><ele>181.0</ele><time>2026-04-19T07:39:12.151Z</time></trkpt><trkpt lat="41.1753983" lon="14.7576883"><ele>182.0</ele><time>2026-04-19T07:39:13.15Z</time></trkpt><trkpt lat="41.1755617" lon="14.7575417"><ele>183.0</ele><time>2026-04-19T07:39:14.151Z</time></trkpt><trkpt lat="41.1757233" lon="14.7573917"><ele>184.0</ele><time>2026-04-19T07:39:15.15Z</time></trkpt><trkpt lat="41.1758883" lon="14.7572483"><ele>185.0</ele><time>2026-04-19T07:39:16.15Z</time></trkpt><trkpt lat="41.176055" lon="14.757095"><ele>186.0</ele><time>2026-04-19T07:39:17.15Z</time></trkpt><trkpt lat="41.1762183" lon="14.7569417"><ele>187.0</ele><time>2026-04-19T07:39:18.151Z</time></trkpt><trkpt lat="41.17638" lon="14.756795"><ele>188.33333333333334</ele><time>2026-04-19T07:39:19.151Z</time></trkpt><trkpt lat="41.1765433" lon="14.7566533"><ele>189.66666666666666</ele><time>2026-04-19T07:39:20.15Z</time></trkpt><trkpt lat="41.1766983" lon="14.75651"><ele>191.0</ele><time>2026-04-19T07:39:21.151Z</time></trkpt><trkpt lat="41.1768567" lon="14.756365"><ele>191.0</ele><time>2026-04-19T07:39:22.151Z</time></trkpt><trkpt lat="41.1770133" lon="14.756225"><ele>191.0</ele><time>2026-04-19T07:39:23.151Z</time></trkpt><trkpt lat="41.177175" lon="14.75608"><ele>191.0</ele><time>2026-04-19T07:39:24.151Z</time></trkpt><trkpt lat="41.177335" lon="14.75594"><ele>192.0</ele><time>2026-04-19T07:39:25.151Z</time></trkpt><trkpt lat="41.177495" lon="14.7557967"><ele>193.0</ele><time>2026-04-19T07:39:26.15Z</time></trkpt><trkpt lat="41.177655" lon="14.7556533"><ele>194.0</ele><time>2026-04-19T07:39:27.151Z</time></trkpt><trkpt lat="41.1778133" lon="14.7555067"><ele>194.0</ele><time>2026-04-19T07:39:28.15Z</time></trkpt><trkpt lat="41.1779717" lon="14.7553617"><ele>194.0</ele><time>2026-04-19T07:39:29.151Z</time></trkpt><trkpt lat="41.1781267" lon="14.7552133"><ele>194.0</ele><time>2026-04-19T07:39:30.151Z</time></trkpt><trkpt lat="41.1782817" lon="14.7550717"><ele>196.33333333333334</ele><time>2026-04-19T07:39:31.15Z</time></trkpt><trkpt lat="41.1784383" lon="14.7549383"><ele>198.66666666666669</ele><time>2026-04-19T07:39:32.151Z</time></trkpt><trkpt lat="41.1785867" lon="14.7548067"><ele>201.0</ele><time>2026-04-19T07:39:33.151Z</time></trkpt><trkpt lat="41.17873" lon="14.75468"><ele>201.0</ele><time>2026-04-19T07:39:34.151Z</time></trkpt><trkpt lat="41.17887" lon="14.7545583"><ele>201.0</ele><time>2026-04-19T07:39:35.151Z</time></trkpt><trkpt lat="41.1790133" lon="14.7544333"><ele>201.0</ele><time>2026-04-19T07:39:36.151Z</time></trkpt><trkpt lat="41.1791533" lon="14.7543017"><ele>202.0</ele><time>2026-04-19T07:39:37.151Z</time></trkpt><trkpt lat="41.1792967" lon="14.754165"><ele>203.0</ele><time>2026-04-19T07:39:38.15Z</time></trkpt><trkpt lat="41.1794433" lon="14.7540217"><ele>204.0</ele><time>2026-04-19T07:39:39.151Z</time></trkpt><trkpt lat="41.17958" lon="14.753875"><ele>204.0</ele><time>2026-04-19T07:39:40.15Z</time></trkpt><trkpt lat="41.1797167" lon="14.7537133"><ele>204.0</ele><time>2026-04-19T07:39:41.15Z</time></trkpt><trkpt lat="41.1798483" lon="14.75354"><ele>204.0</ele><time>2026-04-19T07:39:42.151Z</time></trkpt><trkpt lat="41.1799817" lon="14.7533617"><ele>204.66666666666669</ele><time>2026-04-19T07:39:43.151Z</time></trkpt><trkpt lat="41.1801117" lon="14.7531833"><ele>205.33333333333334</ele><time>2026-04-19T07:39:44.151Z</time></trkpt><trkpt lat="41.1802467" lon="14.7530067"><ele>206.0</ele><time>2026-04-19T07:39:45.151Z</time></trkpt><trkpt lat="41.1803783" lon="14.7528217"><ele>206.0</ele><time>2026-04-19T07:39:46.151Z</time></trkpt><trkpt lat="41.18051" lon="14.75264"><ele>206.0</ele><time>2026-04-19T07:39:47.151Z</time></trkpt><trkpt lat="41.1806467" lon="14.752455"><ele>206.0</ele><time>2026-04-19T07:39:48.151Z</time></trkpt><trkpt lat="41.1807867" lon="14.75228"><ele>206.0</ele><time>2026-04-19T07:39:49.15Z</time></trkpt><trkpt lat="41.1809317" lon="14.7521083"><ele>206.0</ele><time>2026-04-19T07:39:50.151Z</time></trkpt><trkpt lat="41.1810767" lon="14.7519467"><ele>206.0</ele><time>2026-04-19T07:39:51.15Z</time></trkpt><trkpt lat="41.181225" lon="14.7517983"><ele>206.33333333333334</ele><time>2026-04-19T07:39:52.151Z</time></trkpt><trkpt lat="41.1813833" lon="14.7516583"><ele>206.66666666666669</ele><time>2026-04-19T07:39:53.15Z</time></trkpt><trkpt lat="41.1815433" lon="14.7515283"><ele>207.0</ele><time>2026-04-19T07:39:54.15Z</time></trkpt><trkpt lat="41.1817083" lon="14.7513983"><ele>207.0</ele><time>2026-04-19T07:39:55.151Z</time></trkpt><trkpt lat="41.18188" lon="14.7512767"><ele>207.0</ele><time>2026-04-19T07:39:56.15Z</time></trkpt><trkpt lat="41.1820583" lon="14.7511467"><ele>207.0</ele><time>2026-04-19T07:39:57.151Z</time></trkpt><trkpt lat="41.1822383" lon="14.751015"><ele>207.0</ele><time>2026-04-19T07:39:58.151Z</time></trkpt><trkpt lat="41.1824183" lon="14.7508817"><ele>207.0</ele><time>2026-04-19T07:39:59.151Z</time></trkpt><trkpt lat="41.1826" lon="14.750745"><ele>207.0</ele><time>2026-04-19T07:40:00.15Z</time></trkpt><trkpt lat="41.1827867" lon="14.7506117"><ele>207.0</ele><time>2026-04-19T07:40:01.151Z</time></trkpt><trkpt lat="41.182975" lon="14.750485"><ele>207.0</ele><time>2026-04-19T07:40:02.151Z</time></trkpt><trkpt lat="41.183155" lon="14.7503583"><ele>207.0</ele><time>2026-04-19T07:40:03.151Z</time></trkpt><trkpt lat="41.183335" lon="14.75023"><ele>207.33333333333331</ele><time>2026-04-19T07:40:04.151Z</time></trkpt><trkpt lat="41.18351" lon="14.750095"><ele>207.66666666666666</ele><time>2026-04-19T07:40:05.15Z</time></trkpt><trkpt lat="41.1836917" lon="14.7499583"><ele>208.0</ele><time>2026-04-19T07:40:06.151Z</time></trkpt><trkpt lat="41.1838767" lon="14.7498217"><ele>209.0</ele><time>2026-04-19T07:40:07.151Z</time></trkpt><trkpt lat="41.1840617" lon="14.7496933"><ele>210.0</ele><time>2026-04-19T07:40:08.15Z</time></trkpt><trkpt lat="41.1842417" lon="14.7495683"><ele>211.0</ele><time>2026-04-19T07:40:09.151Z</time></trkpt><trkpt lat="41.1844133" lon="14.7494467"><ele>211.33333333333331</ele><time>2026-04-19T07:40:10.15Z</time></trkpt><trkpt lat="41.1845767" lon="14.74933"><ele>211.66666666666669</ele><time>2026-04-19T07:40:11.151Z</time></trkpt><trkpt lat="41.1847383" lon="14.7492183"><ele>212.0</ele><time>2026-04-19T07:40:12.151Z</time></trkpt><trkpt lat="41.1848967" lon="14.7491017"><ele>212.0</ele><time>2026-04-19T07:40:13.151Z</time></trkpt><trkpt lat="41.185055" lon="14.7489733"><ele>212.0</ele><time>2026-04-19T07:40:14.15Z</time></trkpt><trkpt lat="41.18521" lon="14.74884"><ele>212.0</ele><time>2026-04-19T07:40:15.151Z</time></trkpt><trkpt lat="41.1853633" lon="14.7486983"><ele>212.0</ele><time>2026-04-19T07:40:16.151Z</time></trkpt><trkpt lat="41.1855167" lon="14.74855"><ele>212.0</ele><time>2026-04-19T07:40:17.15Z</time></trkpt><trkpt lat="41.1856667" lon="14.7484"><ele>212.0</ele><time>2026-04-19T07:40:18.151Z</time></trkpt><trkpt lat="41.1858133" lon="14.7482367"><ele>212.33333333333334</ele><time>2026-04-19T07:40:19.151Z</time></trkpt><trkpt lat="41.185955" lon="14.7480633"><ele>212.66666666666669</ele><time>2026-04-19T07:40:20.151Z</time></trkpt><trkpt lat="41.18609" lon="14.7478867"><ele>213.0</ele><time>2026-04-19T07:40:21.15Z</time></trkpt><trkpt lat="41.18622" lon="14.747715"><ele>213.33333333333331</ele><time>2026-04-19T07:40:22.15Z</time></trkpt><trkpt lat="41.1863417" lon="14.74753"><ele>213.66666666666666</ele><time>2026-04-19T07:40:23.151Z</time></trkpt><trkpt lat="41.18646" lon="14.7473333"><ele>214.0</ele><time>2026-04-19T07:40:24.151Z</time></trkpt><trkpt lat="41.186575" lon="14.7471233"><ele>214.0</ele><time>2026-04-19T07:40:25.15Z</time></trkpt><trkpt lat="41.1866883" lon="14.7469117"><ele>214.0</ele><time>2026-04-19T07:40:26.151Z</time></trkpt><trkpt lat="41.1867883" lon="14.7466967"><ele>214.0</ele><time>2026-04-19T07:40:27.151Z</time></trkpt><trkpt lat="41.1868883" lon="14.7464767"><ele>213.0</ele><time>2026-04-19T07:40:28.15Z</time></trkpt><trkpt lat="41.1869817" lon="14.7462583"><ele>212.0</ele><time>2026-04-19T07:40:29.151Z</time></trkpt><trkpt lat="41.1870667" lon="14.7460433"><ele>211.0</ele><time>2026-04-19T07:40:30.151Z</time></trkpt><trkpt lat="41.1871567" lon="14.7458267"><ele>210.66666666666666</ele><time>2026-04-19T07:40:31.151Z</time></trkpt><trkpt lat="41.1872317" lon="14.7456233"><ele>210.33333333333331</ele><time>2026-04-19T07:40:32.151Z</time></trkpt><trkpt lat="41.1873067" lon="14.7454217"><ele>210.0</ele><time>2026-04-19T07:40:33.151Z</time></trkpt><trkpt lat="41.1873833" lon="14.7452267"><ele>208.66666666666669</ele><time>2026-04-19T07:40:34.151Z</time></trkpt><trkpt lat="41.1874467" lon="14.7450317"><ele>207.33333333333334</ele><time>2026-04-19T07:40:35.151Z</time></trkpt><trkpt lat="41.1875117" lon="14.74484"><ele>206.0</ele><time>2026-04-19T07:40:36.151Z</time></trkpt><trkpt lat="41.1875767" lon="14.7446567"><ele>206.0</ele><time>2026-04-19T07:40:37.15Z</time></trkpt><trkpt lat="41.1876383" lon="14.7444817"><ele>206.0</ele><time>2026-04-19T07:40:38.151Z</time></trkpt><trkpt lat="41.187695" lon="14.744315"><ele>206.0</ele><time>2026-04-19T07:40:39.151Z</time></trkpt><trkpt lat="41.1877533" lon="14.7441417"><ele>206.0</ele><time>2026-04-19T07:40:40.151Z</time></trkpt><trkpt lat="41.1878083" lon="14.74397"><ele>205.75</ele><time>2026-04-19T07:40:41.151Z</time></trkpt><trkpt lat="41.1878633" lon="14.743795"><ele>205.5</ele><time>2026-04-19T07:40:42.151Z</time></trkpt><trkpt lat="41.1879217" lon="14.743615"><ele>205.25</ele><time>2026-04-19T07:40:43.151Z</time></trkpt><trkpt lat="41.1879733" lon="14.7434283"><ele>205.0</ele><time>2026-04-19T07:40:44.15Z</time></trkpt><trkpt lat="41.1880317" lon="14.74324"><ele>204.66666666666666</ele><time>2026-04-19T07:40:45.15Z</time></trkpt><trkpt lat="41.1880883" lon="14.7430483"><ele>204.33333333333331</ele><time>2026-04-19T07:40:46.151Z</time></trkpt><trkpt lat="41.18815" lon="14.7428517"><ele>204.0</ele><time>2026-04-19T07:40:47.151Z</time></trkpt><trkpt lat="41.18821" lon="14.7426567"><ele>204.0</ele><time>2026-04-19T07:40:48.15Z</time></trkpt><trkpt lat="41.1882667" lon="14.7424633"><ele>204.0</ele><time>2026-04-19T07:40:49.151Z</time></trkpt><trkpt lat="41.1883283" lon="14.74227"><ele>204.0</ele><time>2026-04-19T07:40:50.151Z</time></trkpt><trkpt lat="41.1884" lon="14.74209"><ele>204.0</ele><time>2026-04-19T07:40:51.151Z</time></trkpt><trkpt lat="41.1884783" lon="14.7419267"><ele>204.0</ele><time>2026-04-19T07:40:52.151Z</time></trkpt><trkpt lat="41.1885667" lon="14.7417717"><ele>204.0</ele><time>2026-04-19T07:40:53.15Z</time></trkpt><trkpt lat="41.1886667" lon="14.7416367"><ele>204.0</ele><time>2026-04-19T07:40:54.15Z</time></trkpt><trkpt lat="41.188775" lon="14.7415083"><ele>203.25</ele><time>2026-04-19T07:40:55.151Z</time></trkpt><trkpt lat="41.18889" lon="14.74139"><ele>202.5</ele><time>2026-04-19T07:40:56.151Z</time></trkpt><trkpt lat="41.189" lon="14.74128"><ele>201.75</ele><time>2026-04-19T07:40:57.15Z</time></trkpt><trkpt lat="41.1891133" lon="14.7411817"><ele>201.0</ele><time>2026-04-19T07:40:58.15Z</time></trkpt><trkpt lat="41.189225" lon="14.7410833"><ele>200.75</ele><time>2026-04-19T07:40:59.15Z</time></trkpt><trkpt lat="41.1893367" lon="14.7409933"><ele>200.5</ele><time>2026-04-19T07:41:00.151Z</time></trkpt><trkpt lat="41.189445" lon="14.74091"><ele>200.25</ele><time>2026-04-19T07:41:01.151Z</time></trkpt><trkpt lat="41.1895617" lon="14.7408267"><ele>200.0</ele><time>2026-04-19T07:41:02.151Z</time></trkpt><trkpt lat="41.1896917" lon="14.7407517"><ele>200.0</ele><time>2026-04-19T07:41:03.151Z</time></trkpt><trkpt lat="41.1898267" lon="14.7406917"><ele>200.0</ele><time>2026-04-19T07:41:04.151Z</time></trkpt><trkpt lat="41.1899617" lon="14.7406383"><ele>200.0</ele><time>2026-04-19T07:41:05.151Z</time></trkpt><trkpt lat="41.1901" lon="14.7405817"><ele>200.0</ele><time>2026-04-19T07:41:06.15Z</time></trkpt><trkpt lat="41.1902333" lon="14.740535"><ele>201.0</ele><time>2026-04-19T07:41:07.151Z</time></trkpt><trkpt lat="41.1903667" lon="14.7405067"><ele>202.0</ele><time>2026-04-19T07:41:08.15Z</time></trkpt><trkpt lat="41.1904917" lon="14.7404667"><ele>203.0</ele><time>2026-04-19T07:41:09.151Z</time></trkpt><trkpt lat="41.1906117" lon="14.74043"><ele>204.0</ele><time>2026-04-19T07:41:10.151Z</time></trkpt><trkpt lat="41.1907267" lon="14.7404033"><ele>205.79999999999998</ele><time>2026-04-19T07:41:11.15Z</time></trkpt><trkpt lat="41.1908333" lon="14.74038"><ele>207.6</ele><time>2026-04-19T07:41:12.15Z</time></trkpt><trkpt lat="41.1909333" lon="14.7403617"><ele>209.4</ele><time>2026-04-19T07:41:13.15Z</time></trkpt><trkpt lat="41.1910267" lon="14.7403517"><ele>211.2</ele><time>2026-04-19T07:41:14.151Z</time></trkpt><trkpt lat="41.191115" lon="14.7403467"><ele>213.0</ele><time>2026-04-19T07:41:15.151Z</time></trkpt><trkpt lat="41.1912033" lon="14.7403467"><ele>213.0</ele><time>2026-04-19T07:41:16.15Z</time></trkpt><trkpt lat="41.19129" lon="14.740345"><ele>213.0</ele><time>2026-04-19T07:41:17.15Z</time></trkpt><trkpt lat="41.1913767" lon="14.740345"><ele>213.0</ele><time>2026-04-19T07:41:18.151Z</time></trkpt><trkpt lat="41.1914533" lon="14.740345"><ele>213.0</ele><time>2026-04-19T07:41:19.151Z</time></trkpt><trkpt lat="41.1915267" lon="14.7403433"><ele>213.0</ele><time>2026-04-19T07:41:20.151Z</time></trkpt><trkpt lat="41.191595" lon="14.74034"><ele>213.0</ele><time>2026-04-19T07:41:21.15Z</time></trkpt><trkpt lat="41.19166" lon="14.740335"><ele>213.0</ele><time>2026-04-19T07:41:22.151Z</time></trkpt><trkpt lat="41.1917867" lon="14.7403483"><ele>213.0</ele><time>2026-04-19T07:41:24.15Z</time></trkpt><trkpt lat="41.1918583" lon="14.7403567"><ele>213.0</ele><time>2026-04-19T07:41:25.151Z</time></trkpt><trkpt lat="41.1919417" lon="14.7403817"><ele>213.0</ele><time>2026-04-19T07:41:26.151Z</time></trkpt><trkpt lat="41.1920367" lon="14.7404167"><ele>213.0</ele><time>2026-04-19T07:41:27.151Z</time></trkpt><trkpt lat="41.1921317" lon="14.7404683"><ele>213.0</ele><time>2026-04-19T07:41:28.15Z</time></trkpt><trkpt lat="41.1922267" lon="14.7405317"><ele>213.0</ele><time>2026-04-19T07:41:29.151Z</time></trkpt><trkpt lat="41.19231" lon="14.7406017"><ele>213.0</ele><time>2026-04-19T07:41:30.151Z</time></trkpt><trkpt lat="41.192385" lon="14.7406767"><ele>213.0</ele><time>2026-04-19T07:41:31.151Z</time></trkpt><trkpt lat="41.1924467" lon="14.7407667"><ele>213.0</ele><time>2026-04-19T07:41:32.151Z</time></trkpt><trkpt lat="41.1924917" lon="14.740865"><ele>213.66666666666666</ele><time>2026-04-19T07:41:33.151Z</time></trkpt><trkpt lat="41.1925167" lon="14.7409733"><ele>214.33333333333331</ele><time>2026-04-19T07:41:34.151Z</time></trkpt><trkpt lat="41.19254" lon="14.7410883"><ele>215.0</ele><time>2026-04-19T07:41:35.151Z</time></trkpt><trkpt lat="41.1925467" lon="14.741195"><ele>215.66666666666666</ele><time>2026-04-19T07:41:36.151Z</time></trkpt><trkpt lat="41.1925283" lon="14.7413"><ele>216.33333333333331</ele><time>2026-04-19T07:41:37.151Z</time></trkpt><trkpt lat="41.1924917" lon="14.741395"><ele>217.0</ele><time>2026-04-19T07:41:38.151Z</time></trkpt><trkpt lat="41.1924267" lon="14.7414817"><ele>218.39999999999998</ele><time>2026-04-19T07:41:39.151Z</time></trkpt><trkpt lat="41.1923517" lon="14.7415717"><ele>219.79999999999998</ele><time>2026-04-19T07:41:40.151Z</time></trkpt><trkpt lat="41.1922717" lon="14.7416533"><ele>221.2</ele><time>2026-04-19T07:41:41.15Z</time></trkpt><trkpt lat="41.1921917" lon="14.7417333"><ele>222.6</ele><time>2026-04-19T07:41:42.151Z</time></trkpt><trkpt lat="41.1921067" lon="14.7418167"><ele>224.0</ele><time>2026-04-19T07:41:43.151Z</time></trkpt><trkpt lat="41.1920183" lon="14.7418983"><ele>226.25</ele><time>2026-04-19T07:41:44.15Z</time></trkpt><trkpt lat="41.1919267" lon="14.7419983"><ele>228.5</ele><time>2026-04-19T07:41:45.15Z</time></trkpt><trkpt lat="41.1918467" lon="14.7420967"><ele>230.75</ele><time>2026-04-19T07:41:46.15Z</time></trkpt><trkpt lat="41.1917683" lon="14.74221"><ele>233.0</ele><time>2026-04-19T07:41:47.151Z</time></trkpt><trkpt lat="41.1916933" lon="14.7423383"><ele>233.0</ele><time>2026-04-19T07:41:48.151Z</time></trkpt><trkpt lat="41.1916333" lon="14.7424617"><ele>233.0</ele><time>2026-04-19T07:41:49.151Z</time></trkpt><trkpt lat="41.1915767" lon="14.7425817"><ele>233.0</ele><time>2026-04-19T07:41:50.151Z</time></trkpt><trkpt lat="41.1915267" lon="14.7426983"><ele>233.0</ele><time>2026-04-19T07:41:51.15Z</time></trkpt><trkpt lat="41.19148" lon="14.74279"><ele>233.0</ele><time>2026-04-19T07:41:52.151Z</time></trkpt><trkpt lat="41.191435" lon="14.742875"><ele>232.33333333333334</ele><time>2026-04-19T07:41:53.151Z</time></trkpt><trkpt lat="41.1914" lon="14.742955"><ele>231.66666666666669</ele><time>2026-04-19T07:41:54.151Z</time></trkpt><trkpt lat="41.19135" lon="14.74308"><ele>231.0</ele><time>2026-04-19T07:41:56.15Z</time></trkpt><trkpt lat="41.1913533" lon="14.74317"><ele>230.33333333333331</ele><time>2026-04-19T07:41:58.151Z</time></trkpt><trkpt lat="41.1914067" lon="14.743235"><ele>229.66666666666666</ele><time>2026-04-19T07:42:00.151Z</time></trkpt><trkpt lat="41.1915117" lon="14.743215"><ele>229.0</ele><time>2026-04-19T07:42:02.151Z</time></trkpt><trkpt lat="41.19163" lon="14.7431533"><ele>231.39999999999998</ele><time>2026-04-19T07:42:04.151Z</time></trkpt><trkpt lat="41.1917017" lon="14.7431167"><ele>233.79999999999998</ele><time>2026-04-19T07:42:05.151Z</time></trkpt><trkpt lat="41.1917817" lon="14.7430733"><ele>236.20000000000002</ele><time>2026-04-19T07:42:06.151Z</time></trkpt><trkpt lat="41.1918817" lon="14.7430283"><ele>238.60000000000002</ele><time>2026-04-19T07:42:07.15Z</time></trkpt><trkpt lat="41.1919833" lon="14.74299"><ele>241.0</ele><time>2026-04-19T07:42:08.15Z</time></trkpt><trkpt lat="41.19208" lon="14.74296"><ele>241.0</ele><time>2026-04-19T07:42:09.15Z</time></trkpt><trkpt lat="41.192175" lon="14.7429333"><ele>241.00000000000003</ele><time>2026-04-19T07:42:10.151Z</time></trkpt><trkpt lat="41.1922717" lon="14.742915"><ele>241.00000000000003</ele><time>2026-04-19T07:42:11.151Z</time></trkpt><trkpt lat="41.1923717" lon="14.7429017"><ele>241.0</ele><time>2026-04-19T07:42:12.151Z</time></trkpt><trkpt lat="41.1924783" lon="14.7428983"><ele>241.0</ele><time>2026-04-19T07:42:13.151Z</time></trkpt><trkpt lat="41.1925917" lon="14.742905"><ele>242.20000000000002</ele><time>2026-04-19T07:42:14.15Z</time></trkpt><trkpt lat="41.1927033" lon="14.7429283"><ele>243.40000000000003</ele><time>2026-04-19T07:42:15.15Z</time></trkpt><trkpt lat="41.1928117" lon="14.742955"><ele>244.6</ele><time>2026-04-19T07:42:16.151Z</time></trkpt><trkpt lat="41.1929067" lon="14.7429967"><ele>245.8</ele><time>2026-04-19T07:42:17.15Z</time></trkpt><trkpt lat="41.1929933" lon="14.7430467"><ele>247.0</ele><time>2026-04-19T07:42:18.15Z</time></trkpt><trkpt lat="41.1930867" lon="14.7430917"><ele>247.6</ele><time>2026-04-19T07:42:19.151Z</time></trkpt><trkpt lat="41.1931783" lon="14.7431183"><ele>248.2</ele><time>2026-04-19T07:42:20.151Z</time></trkpt><trkpt lat="41.193275" lon="14.7431317"><ele>248.8</ele><time>2026-04-19T07:42:21.15Z</time></trkpt><trkpt lat="41.1933717" lon="14.743125"><ele>249.4</ele><time>2026-04-19T07:42:22.151Z</time></trkpt><trkpt lat="41.193465" lon="14.743095"><ele>250.0</ele><time>2026-04-19T07:42:23.151Z</time></trkpt><trkpt lat="41.1935533" lon="14.7430533"><ele>250.0</ele><time>2026-04-19T07:42:24.151Z</time></trkpt><trkpt lat="41.1936383" lon="14.7430017"><ele>250.0</ele><time>2026-04-19T07:42:25.151Z</time></trkpt><trkpt lat="41.1937317" lon="14.7429317"><ele>250.0</ele><time>2026-04-19T07:42:26.151Z</time></trkpt><trkpt lat="41.1938267" lon="14.74285"><ele>250.0</ele><time>2026-04-19T07:42:27.151Z</time></trkpt><trkpt lat="41.1939317" lon="14.742765"><ele>250.0</ele><time>2026-04-19T07:42:28.15Z</time></trkpt><trkpt lat="41.1940417" lon="14.742675"><ele>250.0</ele><time>2026-04-19T07:42:29.151Z</time></trkpt><trkpt lat="41.1941533" lon="14.7425883"><ele>250.0</ele><time>2026-04-19T07:42:30.151Z</time></trkpt><trkpt lat="41.1942667" lon="14.7424983"><ele>250.0</ele><time>2026-04-19T07:42:31.151Z</time></trkpt><trkpt lat="41.19438" lon="14.742415"><ele>250.0</ele><time>2026-04-19T07:42:32.151Z</time></trkpt><trkpt lat="41.1944917" lon="14.7423383"><ele>250.0</ele><time>2026-04-19T07:42:33.15Z</time></trkpt><trkpt lat="41.1945933" lon="14.7422483"><ele>250.0</ele><time>2026-04-19T07:42:34.15Z</time></trkpt><trkpt lat="41.1946933" lon="14.7421433"><ele>250.0</ele><time>2026-04-19T07:42:35.151Z</time></trkpt><trkpt lat="41.1947933" lon="14.7420317"><ele>250.0</ele><time>2026-04-19T07:42:36.15Z</time></trkpt><trkpt lat="41.1948833" lon="14.7419067"><ele>250.5</ele><time>2026-04-19T07:42:37.151Z</time></trkpt><trkpt lat="41.194965" lon="14.741775"><ele>251.0</ele><time>2026-04-19T07:42:38.151Z</time></trkpt><trkpt lat="41.19505" lon="14.7416617"><ele>251.5</ele><time>2026-04-19T07:42:39.151Z</time></trkpt><trkpt lat="41.1951317" lon="14.741575"><ele>252.0</ele><time>2026-04-19T07:42:40.15Z</time></trkpt><trkpt lat="41.1952183" lon="14.7415"><ele>252.0</ele><time>2026-04-19T07:42:41.151Z</time></trkpt><trkpt lat="41.195325" lon="14.7414483"><ele>252.0</ele><time>2026-04-19T07:42:42.151Z</time></trkpt><trkpt lat="41.19544" lon="14.7414067"><ele>252.0</ele><time>2026-04-19T07:42:43.15Z</time></trkpt><trkpt lat="41.1955667" lon="14.7413683"><ele>252.0</ele><time>2026-04-19T07:42:44.151Z</time></trkpt><trkpt lat="41.1956917" lon="14.7413267"><ele>252.5</ele><time>2026-04-19T07:42:45.151Z</time></trkpt><trkpt lat="41.1958083" lon="14.7412683"><ele>253.0</ele><time>2026-04-19T07:42:46.151Z</time></trkpt><trkpt lat="41.19591" lon="14.7411967"><ele>253.5</ele><time>2026-04-19T07:42:47.15Z</time></trkpt><trkpt lat="41.1960033" lon="14.7411017"><ele>254.0</ele><time>2026-04-19T07:42:48.151Z</time></trkpt><trkpt lat="41.1960917" lon="14.741"><ele>254.0</ele><time>2026-04-19T07:42:49.15Z</time></trkpt><trkpt lat="41.1961683" lon="14.7408967"><ele>253.99999999999997</ele><time>2026-04-19T07:42:50.151Z</time></trkpt><trkpt lat="41.1962467" lon="14.7408033"><ele>253.99999999999997</ele><time>2026-04-19T07:42:51.151Z</time></trkpt><trkpt lat="41.1963267" lon="14.7407267"><ele>254.0</ele><time>2026-04-19T07:42:52.151Z</time></trkpt><trkpt lat="41.1964133" lon="14.74068"><ele>254.0</ele><time>2026-04-19T07:42:53.151Z</time></trkpt><trkpt lat="41.196505" lon="14.7406433"><ele>255.75</ele><time>2026-04-19T07:42:54.15Z</time></trkpt><trkpt lat="41.1966117" lon="14.7406217"><ele>257.5</ele><time>2026-04-19T07:42:55.151Z</time></trkpt><trkpt lat="41.196725" lon="14.7406133"><ele>259.25</ele><time>2026-04-19T07:42:56.151Z</time></trkpt><trkpt lat="41.19684" lon="14.74063"><ele>261.0</ele><time>2026-04-19T07:42:57.15Z</time></trkpt><trkpt lat="41.1969533" lon="14.74065"><ele>261.0</ele><time>2026-04-19T07:42:58.151Z</time></trkpt><trkpt lat="41.1970617" lon="14.7406767"><ele>261.0</ele><time>2026-04-19T07:42:59.15Z</time></trkpt><trkpt lat="41.197165" lon="14.7406983"><ele>261.0</ele><time>2026-04-19T07:43:00.151Z</time></trkpt><trkpt lat="41.1972683" lon="14.7407133"><ele>261.0</ele><time>2026-04-19T07:43:01.151Z</time></trkpt><trkpt lat="41.197375" lon="14.7407333"><ele>261.0</ele><time>2026-04-19T07:43:02.15Z</time></trkpt><trkpt lat="41.1974867" lon="14.7407617"><ele>261.75</ele><time>2026-04-19T07:43:03.15Z</time></trkpt><trkpt lat="41.1976017" lon="14.740775"><ele>262.5</ele><time>2026-04-19T07:43:04.151Z</time></trkpt><trkpt lat="41.1977167" lon="14.740765"><ele>263.25</ele><time>2026-04-19T07:43:05.151Z</time></trkpt><trkpt lat="41.197835" lon="14.7407333"><ele>264.0</ele><time>2026-04-19T07:43:06.151Z</time></trkpt><trkpt lat="41.1979533" lon="14.7406917"><ele>264.0</ele><time>2026-04-19T07:43:07.151Z</time></trkpt><trkpt lat="41.19807" lon="14.7406367"><ele>264.0</ele><time>2026-04-19T07:43:08.151Z</time></trkpt><trkpt lat="41.198185" lon="14.74056"><ele>264.0</ele><time>2026-04-19T07:43:09.151Z</time></trkpt><trkpt lat="41.1983017" lon="14.7404767"><ele>264.0</ele><time>2026-04-19T07:43:10.151Z</time></trkpt><trkpt lat="41.1984217" lon="14.7403867"><ele>265.5</ele><time>2026-04-19T07:43:11.151Z</time></trkpt><trkpt lat="41.19854" lon="14.7403133"><ele>267.0</ele><time>2026-04-19T07:43:12.151Z</time></trkpt><trkpt lat="41.1986667" lon="14.74026"><ele>268.5</ele><time>2026-04-19T07:43:13.151Z</time></trkpt><trkpt lat="41.198785" lon="14.7402267"><ele>270.0</ele><time>2026-04-19T07:43:14.151Z</time></trkpt><trkpt lat="41.1989033" lon="14.7402233"><ele>270.75</ele><time>2026-04-19T07:43:15.151Z</time></trkpt><trkpt lat="41.1990217" lon="14.740245"><ele>271.5</ele><time>2026-04-19T07:43:16.15Z</time></trkpt><trkpt lat="41.199145" lon="14.7402817"><ele>272.25</ele><time>2026-04-19T07:43:17.15Z</time></trkpt><trkpt lat="41.1992667" lon="14.7403417"><ele>273.0</ele><time>2026-04-19T07:43:18.151Z</time></trkpt><trkpt lat="41.1993967" lon="14.740395"><ele>273.0</ele><time>2026-04-19T07:43:19.151Z</time></trkpt><trkpt lat="41.199525" lon="14.7404167"><ele>273.0</ele><time>2026-04-19T07:43:20.151Z</time></trkpt><trkpt lat="41.1996533" lon="14.7404"><ele>273.0</ele><time>2026-04-19T07:43:21.151Z</time></trkpt><trkpt lat="41.1997817" lon="14.7403583"><ele>273.0</ele><time>2026-04-19T07:43:22.15Z</time></trkpt><trkpt lat="41.1999083" lon="14.7402967"><ele>273.75</ele><time>2026-04-19T07:43:23.151Z</time></trkpt><trkpt lat="41.2000417" lon="14.7402217"><ele>274.5</ele><time>2026-04-19T07:43:24.151Z</time></trkpt><trkpt lat="41.2001767" lon="14.7401533"><ele>275.25</ele><time>2026-04-19T07:43:25.15Z</time></trkpt><trkpt lat="41.2003133" lon="14.740085"><ele>276.0</ele><time>2026-04-19T07:43:26.151Z</time></trkpt><trkpt lat="41.20044" lon="14.7400133"><ele>276.0</ele><time>2026-04-19T07:43:27.151Z</time></trkpt><trkpt lat="41.20056" lon="14.73993"><ele>276.0</ele><time>2026-04-19T07:43:28.151Z</time></trkpt><trkpt lat="41.2006683" lon="14.7398517"><ele>276.0</ele><time>2026-04-19T07:43:29.15Z</time></trkpt><trkpt lat="41.2007683" lon="14.739765"><ele>276.0</ele><time>2026-04-19T07:43:30.151Z</time></trkpt><trkpt lat="41.2008617" lon="14.73969"><ele>276.0</ele><time>2026-04-19T07:43:31.151Z</time></trkpt><trkpt lat="41.2009617" lon="14.7396267"><ele>276.0</ele><time>2026-04-19T07:43:32.151Z</time></trkpt><trkpt lat="41.2010567" lon="14.7395833"><ele>276.0</ele><time>2026-04-19T07:43:33.151Z</time></trkpt><trkpt lat="41.201145" lon="14.7395567"><ele>276.0</ele><time>2026-04-19T07:43:34.151Z</time></trkpt><trkpt lat="41.2012317" lon="14.7395567"><ele>276.0</ele><time>2026-04-19T07:43:35.151Z</time></trkpt><trkpt lat="41.2013133" lon="14.739575"><ele>276.0</ele><time>2026-04-19T07:43:36.151Z</time></trkpt><trkpt lat="41.2013967" lon="14.739615"><ele>276.0</ele><time>2026-04-19T07:43:37.151Z</time></trkpt><trkpt lat="41.2014817" lon="14.7396867"><ele>276.0</ele><time>2026-04-19T07:43:38.15Z</time></trkpt><trkpt lat="41.201565" lon="14.7397767"><ele>276.0</ele><time>2026-04-19T07:43:39.15Z</time></trkpt><trkpt lat="41.2016617" lon="14.739855"><ele>276.0</ele><time>2026-04-19T07:43:40.15Z</time></trkpt><trkpt lat="41.201775" lon="14.7399117"><ele>276.75</ele><time>2026-04-19T07:43:41.151Z</time></trkpt><trkpt lat="41.201895" lon="14.7399467"><ele>277.5</ele><time>2026-04-19T07:43:42.151Z</time></trkpt><trkpt lat="41.2020333" lon="14.7399583"><ele>278.25</ele><time>2026-04-19T07:43:43.151Z</time></trkpt><trkpt lat="41.20217" lon="14.73995"><ele>279.0</ele><time>2026-04-19T07:43:44.15Z</time></trkpt><trkpt lat="41.2022983" lon="14.7399283"><ele>279.75</ele><time>2026-04-19T07:43:45.151Z</time></trkpt><trkpt lat="41.202425" lon="14.7398983"><ele>280.5</ele><time>2026-04-19T07:43:46.151Z</time></trkpt><trkpt lat="41.2025617" lon="14.739855"><ele>281.25</ele><time>2026-04-19T07:43:47.15Z</time></trkpt><trkpt lat="41.2026983" lon="14.73981"><ele>282.0</ele><time>2026-04-19T07:43:48.15Z</time></trkpt><trkpt lat="41.2028233" lon="14.7397767"><ele>282.0</ele><time>2026-04-19T07:43:49.15Z</time></trkpt><trkpt lat="41.202945" lon="14.739755"><ele>282.0</ele><time>2026-04-19T07:43:50.151Z</time></trkpt><trkpt lat="41.2030633" lon="14.7397667"><ele>282.0</ele><time>2026-04-19T07:43:51.151Z</time></trkpt><trkpt lat="41.20318" lon="14.7398033"><ele>282.0</ele><time>2026-04-19T07:43:52.151Z</time></trkpt><trkpt lat="41.2032933" lon="14.7398617"><ele>282.75</ele><time>2026-04-19T07:43:53.151Z</time></trkpt><trkpt lat="41.2034" lon="14.7399317"><ele>283.5</ele><time>2026-04-19T07:43:54.151Z</time></trkpt><trkpt lat="41.2035083" lon="14.7400033"><ele>284.25</ele><time>2026-04-19T07:43:55.151Z</time></trkpt><trkpt lat="41.203625" lon="14.7400667"><ele>285.0</ele><time>2026-04-19T07:43:56.151Z</time></trkpt><trkpt lat="41.2037467" lon="14.7401067"><ele>285.0</ele><time>2026-04-19T07:43:57.151Z</time></trkpt><trkpt lat="41.2038683" lon="14.7401133"><ele>285.0</ele><time>2026-04-19T07:43:58.151Z</time></trkpt><trkpt lat="41.203985" lon="14.740105"><ele>285.0</ele><time>2026-04-19T07:43:59.151Z</time></trkpt><trkpt lat="41.204095" lon="14.7400867"><ele>285.0</ele><time>2026-04-19T07:44:00.151Z</time></trkpt><trkpt lat="41.204205" lon="14.7400717"><ele>285.6</ele><time>2026-04-19T07:44:01.15Z</time></trkpt><trkpt lat="41.2043133" lon="14.7400733"><ele>286.2</ele><time>2026-04-19T07:44:02.15Z</time></trkpt><trkpt lat="41.2044233" lon="14.740095"><ele>286.8</ele><time>2026-04-19T07:44:03.151Z</time></trkpt><trkpt lat="41.20453" lon="14.74013"><ele>287.4</ele><time>2026-04-19T07:44:04.151Z</time></trkpt><trkpt lat="41.2046333" lon="14.740195"><ele>288.0</ele><time>2026-04-19T07:44:05.151Z</time></trkpt><trkpt lat="41.20473" lon="14.7402733"><ele>289.25</ele><time>2026-04-19T07:44:06.151Z</time></trkpt><trkpt lat="41.2048217" lon="14.7403683"><ele>290.5</ele><time>2026-04-19T07:44:07.151Z</time></trkpt><trkpt lat="41.2049167" lon="14.740485"><ele>291.75</ele><time>2026-04-19T07:44:08.151Z</time></trkpt><trkpt lat="41.2050017" lon="14.7406033"><ele>293.0</ele><time>2026-04-19T07:44:09.151Z</time></trkpt><trkpt lat="41.2050867" lon="14.7407333"><ele>293.0</ele><time>2026-04-19T07:44:10.15Z</time></trkpt><trkpt lat="41.205175" lon="14.7408717"><ele>293.0</ele><time>2026-04-19T07:44:11.151Z</time></trkpt><trkpt lat="41.20527" lon="14.7410033"><ele>293.0</ele><time>2026-04-19T07:44:12.15Z</time></trkpt><trkpt lat="41.20536" lon="14.7411317"><ele>293.0</ele><time>2026-04-19T07:44:13.15Z</time></trkpt><trkpt lat="41.205455" lon="14.7412483"><ele>294.75</ele><time>2026-04-19T07:44:14.15Z</time></trkpt><trkpt lat="41.2055667" lon="14.7413517"><ele>296.5</ele><time>2026-04-19T07:44:15.151Z</time></trkpt><trkpt lat="41.2056867" lon="14.7414467"><ele>298.25</ele><time>2026-04-19T07:44:16.151Z</time></trkpt><trkpt lat="41.2058133" lon="14.74153"><ele>300.0</ele><time>2026-04-19T07:44:17.151Z</time></trkpt><trkpt lat="41.2059433" lon="14.7416083"><ele>300.0</ele><time>2026-04-19T07:44:18.15Z</time></trkpt><trkpt lat="41.2060717" lon="14.741685"><ele>300.0</ele><time>2026-04-19T07:44:19.15Z</time></trkpt><trkpt lat="41.2062" lon="14.74175"><ele>300.0</ele><time>2026-04-19T07:44:20.151Z</time></trkpt><trkpt lat="41.2063267" lon="14.7417917"><ele>300.0</ele><time>2026-04-19T07:44:21.151Z</time></trkpt><trkpt lat="41.2064567" lon="14.7418083"><ele>300.75</ele><time>2026-04-19T07:44:22.15Z</time></trkpt><trkpt lat="41.2065833" lon="14.7417933"><ele>301.5</ele><time>2026-04-19T07:44:23.151Z</time></trkpt><trkpt lat="41.2067" lon="14.74177"><ele>302.25</ele><time>2026-04-19T07:44:24.151Z</time></trkpt><trkpt lat="41.206815" lon="14.7417633"><ele>303.0</ele><time>2026-04-19T07:44:25.151Z</time></trkpt><trkpt lat="41.2069183" lon="14.7417683"><ele>303.0</ele><time>2026-04-19T07:44:26.151Z</time></trkpt><trkpt lat="41.2070183" lon="14.7417933"><ele>303.0</ele><time>2026-04-19T07:44:27.151Z</time></trkpt><trkpt lat="41.2071067" lon="14.741855"><ele>303.0</ele><time>2026-04-19T07:44:28.15Z</time></trkpt><trkpt lat="41.2071867" lon="14.7419367"><ele>303.0</ele><time>2026-04-19T07:44:29.151Z</time></trkpt><trkpt lat="41.2072567" lon="14.74205"><ele>303.0</ele><time>2026-04-19T07:44:30.151Z</time></trkpt><trkpt lat="41.207335" lon="14.7421733"><ele>303.5</ele><time>2026-04-19T07:44:31.15Z</time></trkpt><trkpt lat="41.2074217" lon="14.7422933"><ele>304.0</ele><time>2026-04-19T07:44:32.151Z</time></trkpt><trkpt lat="41.2075083" lon="14.7424167"><ele>304.5</ele><time>2026-04-19T07:44:33.151Z</time></trkpt><trkpt lat="41.2076" lon="14.742545"><ele>305.0</ele><time>2026-04-19T07:44:34.15Z</time></trkpt><trkpt lat="41.2076917" lon="14.7426667"><ele>306.25</ele><time>2026-04-19T07:44:35.15Z</time></trkpt><trkpt lat="41.2077917" lon="14.74279"><ele>307.5</ele><time>2026-04-19T07:44:36.151Z</time></trkpt><trkpt lat="41.2078933" lon="14.742905"><ele>308.75</ele><time>2026-04-19T07:44:37.151Z</time></trkpt><trkpt lat="41.2080033" lon="14.7430067"><ele>310.0</ele><time>2026-04-19T07:44:38.151Z</time></trkpt><trkpt lat="41.2081133" lon="14.743095"><ele>307.75</ele><time>2026-04-19T07:44:39.151Z</time></trkpt><trkpt lat="41.2082167" lon="14.74318"><ele>305.5</ele><time>2026-04-19T07:44:40.151Z</time></trkpt><trkpt lat="41.208315" lon="14.7432667"><ele>303.25</ele><time>2026-04-19T07:44:41.151Z</time></trkpt><trkpt lat="41.2084033" lon="14.74336"><ele>301.0</ele><time>2026-04-19T07:44:42.15Z</time></trkpt><trkpt lat="41.2084833" lon="14.7434517"><ele>302.2</ele><time>2026-04-19T07:44:43.15Z</time></trkpt><trkpt lat="41.2085533" lon="14.743555"><ele>303.40000000000003</ele><time>2026-04-19T07:44:44.15Z</time></trkpt><trkpt lat="41.2086183" lon="14.743675"><ele>304.6</ele><time>2026-04-19T07:44:45.15Z</time></trkpt><trkpt lat="41.2086733" lon="14.7437933"><ele>305.8</ele><time>2026-04-19T07:44:46.151Z</time></trkpt><trkpt lat="41.2087267" lon="14.7439017"><ele>307.0</ele><time>2026-04-19T07:44:47.15Z</time></trkpt><trkpt lat="41.2087917" lon="14.74399"><ele>307.0</ele><time>2026-04-19T07:44:48.151Z</time></trkpt><trkpt lat="41.20886" lon="14.7440567"><ele>307.0</ele><time>2026-04-19T07:44:49.151Z</time></trkpt><trkpt lat="41.2089367" lon="14.744095"><ele>307.0</ele><time>2026-04-19T07:44:50.151Z</time></trkpt><trkpt lat="41.2090267" lon="14.74407"><ele>307.0</ele><time>2026-04-19T07:44:51.15Z</time></trkpt><trkpt lat="41.2091083" lon="14.7440167"><ele>307.0</ele><time>2026-04-19T07:44:52.151Z</time></trkpt><trkpt lat="41.20918" lon="14.7439383"><ele>307.0</ele><time>2026-04-19T07:44:53.151Z</time></trkpt><trkpt lat="41.2092417" lon="14.74384"><ele>306.0</ele><time>2026-04-19T07:44:54.15Z</time></trkpt><trkpt lat="41.2093017" lon="14.7437433"><ele>305.0</ele><time>2026-04-19T07:44:55.15Z</time></trkpt><trkpt lat="41.2093717" lon="14.7436667"><ele>304.0</ele><time>2026-04-19T07:44:56.151Z</time></trkpt><trkpt lat="41.209455" lon="14.7436217"><ele>303.0</ele><time>2026-04-19T07:44:57.15Z</time></trkpt><trkpt lat="41.20955" lon="14.7436017"><ele>302.0</ele><time>2026-04-19T07:44:58.151Z</time></trkpt><trkpt lat="41.2096533" lon="14.74361"><ele>302.0</ele><time>2026-04-19T07:44:59.151Z</time></trkpt><trkpt lat="41.20975" lon="14.7436417"><ele>302.0</ele><time>2026-04-19T07:45:00.15Z</time></trkpt><trkpt lat="41.209855" lon="14.743695"><ele>302.0</ele><time>2026-04-19T07:45:01.151Z</time></trkpt><trkpt lat="41.209965" lon="14.7437633"><ele>302.0</ele><time>2026-04-19T07:45:02.151Z</time></trkpt><trkpt lat="41.210075" lon="14.7438367"><ele>301.5</ele><time>2026-04-19T07:45:03.151Z</time></trkpt><trkpt lat="41.2101967" lon="14.7439"><ele>301.0</ele><time>2026-04-19T07:45:04.151Z</time></trkpt><trkpt lat="41.2103283" lon="14.7439467"><ele>300.5</ele><time>2026-04-19T07:45:05.151Z</time></trkpt><trkpt lat="41.21046" lon="14.7439733"><ele>300.0</ele><time>2026-04-19T07:45:06.15Z</time></trkpt><trkpt lat="41.2105967" lon="14.7439883"><ele>299.5</ele><time>2026-04-19T07:45:07.15Z</time></trkpt><trkpt lat="41.2107267" lon="14.7439833"><ele>299.0</ele><time>2026-04-19T07:45:08.151Z</time></trkpt><trkpt lat="41.2108567" lon="14.74397"><ele>298.5</ele><time>2026-04-19T07:45:09.151Z</time></trkpt><trkpt lat="41.21098" lon="14.743945"><ele>298.0</ele><time>2026-04-19T07:45:10.15Z</time></trkpt><trkpt lat="41.2110967" lon="14.7439167"><ele>298.0</ele><time>2026-04-19T07:45:11.15Z</time></trkpt><trkpt lat="41.21121" lon="14.743895"><ele>298.0</ele><time>2026-04-19T07:45:12.15Z</time></trkpt><trkpt lat="41.2113233" lon="14.7438883"><ele>298.0</ele><time>2026-04-19T07:45:13.151Z</time></trkpt><trkpt lat="41.2114367" lon="14.7438967"><ele>298.0</ele><time>2026-04-19T07:45:14.151Z</time></trkpt><trkpt lat="41.2115517" lon="14.7439217"><ele>296.75</ele><time>2026-04-19T07:45:15.15Z</time></trkpt><trkpt lat="41.2116717" lon="14.74396"><ele>295.5</ele><time>2026-04-19T07:45:16.151Z</time></trkpt><trkpt lat="41.2117983" lon="14.74402"><ele>294.25</ele><time>2026-04-19T07:45:17.151Z</time></trkpt><trkpt lat="41.2119233" lon="14.7440883"><ele>293.0</ele><time>2026-04-19T07:45:18.15Z</time></trkpt><trkpt lat="41.212035" lon="14.7441783"><ele>293.0</ele><time>2026-04-19T07:45:19.151Z</time></trkpt><trkpt lat="41.21214" lon="14.7442783"><ele>293.0</ele><time>2026-04-19T07:45:20.151Z</time></trkpt><trkpt lat="41.21223" lon="14.7443867"><ele>293.0</ele><time>2026-04-19T07:45:21.151Z</time></trkpt><trkpt lat="41.2123033" lon="14.7445183"><ele>293.0</ele><time>2026-04-19T07:45:22.15Z</time></trkpt><trkpt lat="41.2123633" lon="14.7446583"><ele>292.0</ele><time>2026-04-19T07:45:23.151Z</time></trkpt><trkpt lat="41.212405" lon="14.7448117"><ele>291.0</ele><time>2026-04-19T07:45:24.151Z</time></trkpt><trkpt lat="41.2124483" lon="14.744975"><ele>290.0</ele><time>2026-04-19T07:45:25.151Z</time></trkpt><trkpt lat="41.212495" lon="14.7451417"><ele>289.0</ele><time>2026-04-19T07:45:26.151Z</time></trkpt><trkpt lat="41.212535" lon="14.7453"><ele>289.0</ele><time>2026-04-19T07:45:27.151Z</time></trkpt><trkpt lat="41.2125617" lon="14.7454583"><ele>289.0</ele><time>2026-04-19T07:45:28.151Z</time></trkpt><trkpt lat="41.2125717" lon="14.7456183"><ele>289.0</ele><time>2026-04-19T07:45:29.151Z</time></trkpt><trkpt lat="41.2125633" lon="14.745785"><ele>289.0</ele><time>2026-04-19T07:45:30.151Z</time></trkpt><trkpt lat="41.2125517" lon="14.7459483"><ele>290.0</ele><time>2026-04-19T07:45:31.151Z</time></trkpt><trkpt lat="41.2125367" lon="14.7460967"><ele>291.0</ele><time>2026-04-19T07:45:32.151Z</time></trkpt><trkpt lat="41.2125433" lon="14.7462333"><ele>292.0</ele><time>2026-04-19T07:45:33.15Z</time></trkpt><trkpt lat="41.2125667" lon="14.7463467"><ele>293.0</ele><time>2026-04-19T07:45:34.151Z</time></trkpt><trkpt lat="41.21261" lon="14.7464467"><ele>294.0</ele><time>2026-04-19T07:45:35.15Z</time></trkpt><trkpt lat="41.2126717" lon="14.746535"><ele>294.0</ele><time>2026-04-19T07:45:36.151Z</time></trkpt><trkpt lat="41.212755" lon="14.7466"><ele>294.0</ele><time>2026-04-19T07:45:37.151Z</time></trkpt><trkpt lat="41.2128583" lon="14.7466567"><ele>294.0</ele><time>2026-04-19T07:45:38.151Z</time></trkpt><trkpt lat="41.2129767" lon="14.746705"><ele>294.0</ele><time>2026-04-19T07:45:39.151Z</time></trkpt><trkpt lat="41.2130967" lon="14.74675"><ele>293.75</ele><time>2026-04-19T07:45:40.151Z</time></trkpt><trkpt lat="41.213225" lon="14.7468033"><ele>293.5</ele><time>2026-04-19T07:45:41.151Z</time></trkpt><trkpt lat="41.2133533" lon="14.74686"><ele>293.25</ele><time>2026-04-19T07:45:42.151Z</time></trkpt><trkpt lat="41.2134883" lon="14.7469133"><ele>293.0</ele><time>2026-04-19T07:45:43.151Z</time></trkpt><trkpt lat="41.2136217" lon="14.7469733"><ele>293.0</ele><time>2026-04-19T07:45:44.15Z</time></trkpt><trkpt lat="41.2137583" lon="14.7470333"><ele>293.0</ele><time>2026-04-19T07:45:45.151Z</time></trkpt><trkpt lat="41.21389" lon="14.7470967"><ele>293.0</ele><time>2026-04-19T07:45:46.151Z</time></trkpt><trkpt lat="41.214015" lon="14.7471517"><ele>293.0</ele><time>2026-04-19T07:45:47.15Z</time></trkpt><trkpt lat="41.214135" lon="14.7472033"><ele>292.0</ele><time>2026-04-19T07:45:48.151Z</time></trkpt><trkpt lat="41.2142467" lon="14.7472583"><ele>291.0</ele><time>2026-04-19T07:45:49.151Z</time></trkpt><trkpt lat="41.2143583" lon="14.7473067"><ele>290.0</ele><time>2026-04-19T07:45:50.151Z</time></trkpt><trkpt lat="41.21448" lon="14.7473317"><ele>289.0</ele><time>2026-04-19T07:45:51.151Z</time></trkpt><trkpt lat="41.2146" lon="14.7473333"><ele>289.0</ele><time>2026-04-19T07:45:52.151Z</time></trkpt><trkpt lat="41.2147233" lon="14.7473183"><ele>289.0</ele><time>2026-04-19T07:45:53.15Z</time></trkpt><trkpt lat="41.2148433" lon="14.74728"><ele>289.0</ele><time>2026-04-19T07:45:54.151Z</time></trkpt><trkpt lat="41.2149633" lon="14.7472133"><ele>289.0</ele><time>2026-04-19T07:45:55.151Z</time></trkpt><trkpt lat="41.2150767" lon="14.7471367"><ele>289.5</ele><time>2026-04-19T07:45:56.151Z</time></trkpt><trkpt lat="41.215185" lon="14.7470233"><ele>290.0</ele><time>2026-04-19T07:45:57.151Z</time></trkpt><trkpt lat="41.21528" lon="14.7469033"><ele>290.5</ele><time>2026-04-19T07:45:58.151Z</time></trkpt><trkpt lat="41.2153683" lon="14.7467717"><ele>291.0</ele><time>2026-04-19T07:45:59.15Z</time></trkpt><trkpt lat="41.2154433" lon="14.7466283"><ele>291.25</ele><time>2026-04-19T07:46:00.15Z</time></trkpt><trkpt lat="41.21551" lon="14.7464783"><ele>291.5</ele><time>2026-04-19T07:46:01.15Z</time></trkpt><trkpt lat="41.215585" lon="14.7463367"><ele>291.75</ele><time>2026-04-19T07:46:02.15Z</time></trkpt><trkpt lat="41.2156433" lon="14.7461933"><ele>292.0</ele><time>2026-04-19T07:46:03.151Z</time></trkpt><trkpt lat="41.2157017" lon="14.746055"><ele>291.25</ele><time>2026-04-19T07:46:04.151Z</time></trkpt><trkpt lat="41.2157567" lon="14.74593"><ele>290.5</ele><time>2026-04-19T07:46:05.151Z</time></trkpt><trkpt lat="41.2158267" lon="14.7457967"><ele>289.75</ele><time>2026-04-19T07:46:06.151Z</time></trkpt><trkpt lat="41.215885" lon="14.7456583"><ele>289.0</ele><time>2026-04-19T07:46:07.151Z</time></trkpt><trkpt lat="41.21594" lon="14.7455167"><ele>289.0</ele><time>2026-04-19T07:46:08.151Z</time></trkpt><trkpt lat="41.215995" lon="14.7453717"><ele>289.0</ele><time>2026-04-19T07:46:09.151Z</time></trkpt><trkpt lat="41.21605" lon="14.7452333"><ele>289.0</ele><time>2026-04-19T07:46:10.151Z</time></trkpt><trkpt lat="41.2161133" lon="14.7451"><ele>289.0</ele><time>2026-04-19T07:46:11.151Z</time></trkpt><trkpt lat="41.21618" lon="14.744975"><ele>288.75</ele><time>2026-04-19T07:46:12.15Z</time></trkpt><trkpt lat="41.2162533" lon="14.7448583"><ele>288.5</ele><time>2026-04-19T07:46:13.15Z</time></trkpt><trkpt lat="41.21634" lon="14.7447583"><ele>288.25</ele><time>2026-04-19T07:46:14.151Z</time></trkpt><trkpt lat="41.2164433" lon="14.74467"><ele>288.0</ele><time>2026-04-19T07:46:15.151Z</time></trkpt><trkpt lat="41.216545" lon="14.7445967"><ele>288.0</ele><time>2026-04-19T07:46:16.151Z</time></trkpt><trkpt lat="41.216645" lon="14.744535"><ele>288.0</ele><time>2026-04-19T07:46:17.151Z</time></trkpt><trkpt lat="41.2167417" lon="14.7445033"><ele>288.0</ele><time>2026-04-19T07:46:18.151Z</time></trkpt><trkpt lat="41.2168417" lon="14.7445033"><ele>288.0</ele><time>2026-04-19T07:46:19.151Z</time></trkpt><trkpt lat="41.2169333" lon="14.74452"><ele>288.0</ele><time>2026-04-19T07:46:20.151Z</time></trkpt><trkpt lat="41.2170267" lon="14.7445667"><ele>288.0</ele><time>2026-04-19T07:46:21.151Z</time></trkpt><trkpt lat="41.2171217" lon="14.7446483"><ele>288.0</ele><time>2026-04-19T07:46:22.151Z</time></trkpt><trkpt lat="41.2172167" lon="14.7447417"><ele>288.0</ele><time>2026-04-19T07:46:23.15Z</time></trkpt><trkpt lat="41.2173167" lon="14.744845"><ele>288.0</ele><time>2026-04-19T07:46:24.151Z</time></trkpt><trkpt lat="41.2174267" lon="14.7449483"><ele>288.75</ele><time>2026-04-19T07:46:25.151Z</time></trkpt><trkpt lat="41.2175383" lon="14.7450533"><ele>289.5</ele><time>2026-04-19T07:46:26.151Z</time></trkpt><trkpt lat="41.21764" lon="14.7451567"><ele>290.25</ele><time>2026-04-19T07:46:27.15Z</time></trkpt><trkpt lat="41.2177417" lon="14.745255"><ele>291.0</ele><time>2026-04-19T07:46:28.151Z</time></trkpt><trkpt lat="41.21785" lon="14.7453367"><ele>291.0</ele><time>2026-04-19T07:46:29.151Z</time></trkpt><trkpt lat="41.2179667" lon="14.74541"><ele>291.0</ele><time>2026-04-19T07:46:30.15Z</time></trkpt><trkpt lat="41.2180883" lon="14.7454717"><ele>291.0</ele><time>2026-04-19T07:46:31.151Z</time></trkpt><trkpt lat="41.2182217" lon="14.7455283"><ele>291.0</ele><time>2026-04-19T07:46:32.151Z</time></trkpt><trkpt lat="41.2183517" lon="14.7455817"><ele>289.5</ele><time>2026-04-19T07:46:33.151Z</time></trkpt><trkpt lat="41.2184767" lon="14.7456317"><ele>288.0</ele><time>2026-04-19T07:46:34.15Z</time></trkpt><trkpt lat="41.218605" lon="14.7456983"><ele>286.5</ele><time>2026-04-19T07:46:35.151Z</time></trkpt><trkpt lat="41.2187317" lon="14.745775"><ele>285.0</ele><time>2026-04-19T07:46:36.151Z</time></trkpt><trkpt lat="41.2188617" lon="14.7458533"><ele>286.5</ele><time>2026-04-19T07:46:37.151Z</time></trkpt><trkpt lat="41.2189917" lon="14.74594"><ele>288.0</ele><time>2026-04-19T07:46:38.151Z</time></trkpt><trkpt lat="41.219125" lon="14.7460267"><ele>289.5</ele><time>2026-04-19T07:46:39.15Z</time></trkpt><trkpt lat="41.21926" lon="14.7461083"><ele>291.0</ele><time>2026-04-19T07:46:40.151Z</time></trkpt><trkpt lat="41.2193983" lon="14.7462133"><ele>291.0</ele><time>2026-04-19T07:46:41.151Z</time></trkpt><trkpt lat="41.2195217" lon="14.7462833"><ele>291.0</ele><time>2026-04-19T07:46:42.151Z</time></trkpt><trkpt lat="41.2196417" lon="14.7463567"><ele>291.0</ele><time>2026-04-19T07:46:43.15Z</time></trkpt><trkpt lat="41.2197617" lon="14.7464217"><ele>291.0</ele><time>2026-04-19T07:46:44.151Z</time></trkpt><trkpt lat="41.2198783" lon="14.7464967"><ele>287.0</ele><time>2026-04-19T07:46:45.151Z</time></trkpt><trkpt lat="41.2200017" lon="14.746575"><ele>283.0</ele><time>2026-04-19T07:46:46.15Z</time></trkpt><trkpt lat="41.2201217" lon="14.746645"><ele>279.0</ele><time>2026-04-19T07:46:47.15Z</time></trkpt><trkpt lat="41.2202333" lon="14.74671"><ele>275.0</ele><time>2026-04-19T07:46:48.151Z</time></trkpt><trkpt lat="41.22034" lon="14.7467817"><ele>275.0</ele><time>2026-04-19T07:46:49.151Z</time></trkpt><trkpt lat="41.2204383" lon="14.7468633"><ele>275.0</ele><time>2026-04-19T07:46:50.151Z</time></trkpt><trkpt lat="41.2205383" lon="14.7469517"><ele>275.0</ele><time>2026-04-19T07:46:51.151Z</time></trkpt><trkpt lat="41.2206267" lon="14.74706"><ele>275.0</ele><time>2026-04-19T07:46:52.151Z</time></trkpt><trkpt lat="41.2207117" lon="14.74719"><ele>275.25</ele><time>2026-04-19T07:46:53.151Z</time></trkpt><trkpt lat="41.220805" lon="14.7473367"><ele>275.5</ele><time>2026-04-19T07:46:54.151Z</time></trkpt><trkpt lat="41.2208967" lon="14.7475"><ele>275.75</ele><time>2026-04-19T07:46:55.151Z</time></trkpt><trkpt lat="41.22099" lon="14.74765"><ele>276.0</ele><time>2026-04-19T07:46:56.151Z</time></trkpt><trkpt lat="41.2210717" lon="14.7477983"><ele>276.0</ele><time>2026-04-19T07:46:57.151Z</time></trkpt><trkpt lat="41.2211483" lon="14.74794"><ele>276.0</ele><time>2026-04-19T07:46:58.151Z</time></trkpt><trkpt lat="41.22122" lon="14.7480883"><ele>276.0</ele><time>2026-04-19T07:46:59.15Z</time></trkpt><trkpt lat="41.221295" lon="14.7482317"><ele>276.0</ele><time>2026-04-19T07:47:00.151Z</time></trkpt><trkpt lat="41.221365" lon="14.7483667"><ele>276.0</ele><time>2026-04-19T07:47:01.151Z</time></trkpt><trkpt lat="41.2214383" lon="14.748495"><ele>276.0</ele><time>2026-04-19T07:47:02.151Z</time></trkpt><trkpt lat="41.221505" lon="14.7486217"><ele>276.0</ele><time>2026-04-19T07:47:03.15Z</time></trkpt><trkpt lat="41.2215733" lon="14.7487483"><ele>276.0</ele><time>2026-04-19T07:47:04.151Z</time></trkpt><trkpt lat="41.22164" lon="14.748875"><ele>273.0</ele><time>2026-04-19T07:47:05.151Z</time></trkpt><trkpt lat="41.2216967" lon="14.7490067"><ele>270.0</ele><time>2026-04-19T07:47:06.151Z</time></trkpt><trkpt lat="41.2217383" lon="14.7491467"><ele>267.0</ele><time>2026-04-19T07:47:07.151Z</time></trkpt><trkpt lat="41.2217617" lon="14.7492983"><ele>264.0</ele><time>2026-04-19T07:47:08.151Z</time></trkpt><trkpt lat="41.2217683" lon="14.7494583"><ele>263.5</ele><time>2026-04-19T07:47:09.151Z</time></trkpt><trkpt lat="41.221755" lon="14.74962"><ele>263.0</ele><time>2026-04-19T07:47:10.151Z</time></trkpt><trkpt lat="41.221735" lon="14.7497767"><ele>262.5</ele><time>2026-04-19T07:47:11.15Z</time></trkpt><trkpt lat="41.2217117" lon="14.7499267"><ele>262.0</ele><time>2026-04-19T07:47:12.15Z</time></trkpt><trkpt lat="41.2217" lon="14.750065"><ele>262.0</ele><time>2026-04-19T07:47:13.15Z</time></trkpt><trkpt lat="41.2217117" lon="14.7501917"><ele>262.0</ele><time>2026-04-19T07:47:14.151Z</time></trkpt><trkpt lat="41.2217467" lon="14.7503233"><ele>262.0</ele><time>2026-04-19T07:47:15.151Z</time></trkpt><trkpt lat="41.22181" lon="14.750445"><ele>262.0</ele><time>2026-04-19T07:47:16.151Z</time></trkpt><trkpt lat="41.2218817" lon="14.750565"><ele>262.0</ele><time>2026-04-19T07:47:17.151Z</time></trkpt><trkpt lat="41.2219667" lon="14.7506967"><ele>262.5</ele><time>2026-04-19T07:47:18.151Z</time></trkpt><trkpt lat="41.222055" lon="14.750825"><ele>263.0</ele><time>2026-04-19T07:47:19.151Z</time></trkpt><trkpt lat="41.2221417" lon="14.7509483"><ele>263.5</ele><time>2026-04-19T07:47:20.151Z</time></trkpt><trkpt lat="41.2222217" lon="14.7510617"><ele>264.0</ele><time>2026-04-19T07:47:21.151Z</time></trkpt><trkpt lat="41.2223" lon="14.75117"><ele>261.8</ele><time>2026-04-19T07:47:22.151Z</time></trkpt><trkpt lat="41.2223683" lon="14.751285"><ele>259.59999999999997</ele><time>2026-04-19T07:47:23.151Z</time></trkpt><trkpt lat="41.2224233" lon="14.7514017"><ele>257.4</ele><time>2026-04-19T07:47:24.151Z</time></trkpt><trkpt lat="41.222465" lon="14.7515283"><ele>255.2</ele><time>2026-04-19T07:47:25.151Z</time></trkpt><trkpt lat="41.2224817" lon="14.7516667"><ele>253.0</ele><time>2026-04-19T07:47:26.15Z</time></trkpt><trkpt lat="41.2224833" lon="14.7518067"><ele>252.0</ele><time>2026-04-19T07:47:27.151Z</time></trkpt><trkpt lat="41.2224567" lon="14.7519433"><ele>251.0</ele><time>2026-04-19T07:47:28.151Z</time></trkpt><trkpt lat="41.2224133" lon="14.7520717"><ele>250.0</ele><time>2026-04-19T07:47:29.15Z</time></trkpt><trkpt lat="41.222355" lon="14.7521967"><ele>249.0</ele><time>2026-04-19T07:47:30.15Z</time></trkpt><trkpt lat="41.222295" lon="14.7523283"><ele>248.0</ele><time>2026-04-19T07:47:31.151Z</time></trkpt><trkpt lat="41.2222633" lon="14.7524583"><ele>248.8</ele><time>2026-04-19T07:47:32.151Z</time></trkpt><trkpt lat="41.2222617" lon="14.7525933"><ele>249.60000000000002</ele><time>2026-04-19T07:47:33.151Z</time></trkpt><trkpt lat="41.22229" lon="14.7527267"><ele>250.39999999999998</ele><time>2026-04-19T07:47:34.151Z</time></trkpt><trkpt lat="41.2223467" lon="14.752855"><ele>251.2</ele><time>2026-04-19T07:47:35.15Z</time></trkpt><trkpt lat="41.2224083" lon="14.7529767"><ele>252.0</ele><time>2026-04-19T07:47:36.15Z</time></trkpt><trkpt lat="41.2224817" lon="14.7531067"><ele>252.0</ele><time>2026-04-19T07:47:37.151Z</time></trkpt><trkpt lat="41.2225617" lon="14.7532267"><ele>252.0</ele><time>2026-04-19T07:47:38.151Z</time></trkpt><trkpt lat="41.2226567" lon="14.7533317"><ele>252.0</ele><time>2026-04-19T07:47:39.151Z</time></trkpt><trkpt lat="41.22277" lon="14.7534233"><ele>252.0</ele><time>2026-04-19T07:47:40.151Z</time></trkpt><trkpt lat="41.2228933" lon="14.7534983"><ele>251.5</ele><time>2026-04-19T07:47:41.151Z</time></trkpt><trkpt lat="41.22302" lon="14.75357"><ele>251.0</ele><time>2026-04-19T07:47:42.15Z</time></trkpt><trkpt lat="41.2231433" lon="14.753635"><ele>250.5</ele><time>2026-04-19T07:47:43.15Z</time></trkpt><trkpt lat="41.2232583" lon="14.7536933"><ele>250.0</ele><time>2026-04-19T07:47:44.15Z</time></trkpt><trkpt lat="41.2233667" lon="14.7537533"><ele>250.0</ele><time>2026-04-19T07:47:45.151Z</time></trkpt><trkpt lat="41.2234617" lon="14.7538267"><ele>250.0</ele><time>2026-04-19T07:47:46.151Z</time></trkpt><trkpt lat="41.2235383" lon="14.7539133"><ele>250.0</ele><time>2026-04-19T07:47:47.151Z</time></trkpt><trkpt lat="41.2236" lon="14.754025"><ele>250.0</ele><time>2026-04-19T07:47:48.15Z</time></trkpt><trkpt lat="41.2236467" lon="14.754145"><ele>250.0</ele><time>2026-04-19T07:47:49.15Z</time></trkpt><trkpt lat="41.2236683" lon="14.7542817"><ele>250.6</ele><time>2026-04-19T07:47:50.151Z</time></trkpt><trkpt lat="41.223675" lon="14.7544333"><ele>251.2</ele><time>2026-04-19T07:47:51.151Z</time></trkpt><trkpt lat="41.223695" lon="14.7545817"><ele>251.8</ele><time>2026-04-19T07:47:52.151Z</time></trkpt><trkpt lat="41.2237233" lon="14.7547167"><ele>252.4</ele><time>2026-04-19T07:47:53.151Z</time></trkpt><trkpt lat="41.223765" lon="14.7548333"><ele>253.0</ele><time>2026-04-19T07:47:54.15Z</time></trkpt><trkpt lat="41.22383" lon="14.7549367"><ele>253.0</ele><time>2026-04-19T07:47:55.151Z</time></trkpt><trkpt lat="41.223915" lon="14.7550133"><ele>253.0</ele><time>2026-04-19T07:47:56.151Z</time></trkpt><trkpt lat="41.2240117" lon="14.7550667"><ele>253.0</ele><time>2026-04-19T07:47:57.151Z</time></trkpt><trkpt lat="41.2241167" lon="14.7550967"><ele>253.0</ele><time>2026-04-19T07:47:58.15Z</time></trkpt><trkpt lat="41.2242117" lon="14.7551267"><ele>253.0</ele><time>2026-04-19T07:47:59.151Z</time></trkpt><trkpt lat="41.2242983" lon="14.7551733"><ele>251.4</ele><time>2026-04-19T07:48:00.151Z</time></trkpt><trkpt lat="41.2243783" lon="14.7552467"><ele>249.8</ele><time>2026-04-19T07:48:01.15Z</time></trkpt><trkpt lat="41.224445" lon="14.7553517"><ele>248.2</ele><time>2026-04-19T07:48:02.151Z</time></trkpt><trkpt lat="41.2245033" lon="14.7554717"><ele>246.6</ele><time>2026-04-19T07:48:03.15Z</time></trkpt><trkpt lat="41.22456" lon="14.7556"><ele>245.0</ele><time>2026-04-19T07:48:04.151Z</time></trkpt><trkpt lat="41.224615" lon="14.755725"><ele>245.0</ele><time>2026-04-19T07:48:05.15Z</time></trkpt><trkpt lat="41.2246667" lon="14.755845"><ele>245.0</ele><time>2026-04-19T07:48:06.151Z</time></trkpt><trkpt lat="41.224705" lon="14.7559633"><ele>245.0</ele><time>2026-04-19T07:48:07.151Z</time></trkpt><trkpt lat="41.2247217" lon="14.7560933"><ele>245.0</ele><time>2026-04-19T07:48:08.15Z</time></trkpt><trkpt lat="41.2247217" lon="14.756225"><ele>245.0</ele><time>2026-04-19T07:48:09.151Z</time></trkpt><trkpt lat="41.2247" lon="14.75636"><ele>243.25</ele><time>2026-04-19T07:48:10.15Z</time></trkpt><trkpt lat="41.2246567" lon="14.7564967"><ele>241.5</ele><time>2026-04-19T07:48:11.151Z</time></trkpt><trkpt lat="41.224595" lon="14.7566167"><ele>239.75</ele><time>2026-04-19T07:48:12.15Z</time></trkpt><trkpt lat="41.2245117" lon="14.7567267"><ele>238.0</ele><time>2026-04-19T07:48:13.151Z</time></trkpt><trkpt lat="41.224415" lon="14.75681"><ele>235.8</ele><time>2026-04-19T07:48:14.151Z</time></trkpt><trkpt lat="41.224315" lon="14.756885"><ele>233.60000000000002</ele><time>2026-04-19T07:48:15.151Z</time></trkpt><trkpt lat="41.2242217" lon="14.756965"><ele>231.39999999999998</ele><time>2026-04-19T07:48:16.15Z</time></trkpt><trkpt lat="41.2241383" lon="14.7570533"><ele>229.2</ele><time>2026-04-19T07:48:17.151Z</time></trkpt><trkpt lat="41.2240667" lon="14.75716"><ele>227.0</ele><time>2026-04-19T07:48:18.151Z</time></trkpt><trkpt lat="41.224005" lon="14.7572833"><ele>230.5</ele><time>2026-04-19T07:48:19.15Z</time></trkpt><trkpt lat="41.2239467" lon="14.7574167"><ele>234.0</ele><time>2026-04-19T07:48:20.151Z</time></trkpt><trkpt lat="41.2239067" lon="14.7575683"><ele>237.5</ele><time>2026-04-19T07:48:21.151Z</time></trkpt><trkpt lat="41.2238783" lon="14.7577283"><ele>241.0</ele><time>2026-04-19T07:48:22.151Z</time></trkpt><trkpt lat="41.22386" lon="14.7579067"><ele>241.0</ele><time>2026-04-19T07:48:23.15Z</time></trkpt><trkpt lat="41.2238433" lon="14.7580983"><ele>241.0</ele><time>2026-04-19T07:48:24.151Z</time></trkpt><trkpt lat="41.2238317" lon="14.7582867"><ele>241.0</ele><time>2026-04-19T07:48:25.151Z</time></trkpt><trkpt lat="41.2238183" lon="14.7584683"><ele>241.0</ele><time>2026-04-19T07:48:26.15Z</time></trkpt><trkpt lat="41.223805" lon="14.75865"><ele>238.75</ele><time>2026-04-19T07:48:27.151Z</time></trkpt><trkpt lat="41.2237833" lon="14.7588233"><ele>236.5</ele><time>2026-04-19T07:48:28.151Z</time></trkpt><trkpt lat="41.223765" lon="14.75898"><ele>234.25</ele><time>2026-04-19T07:48:29.151Z</time></trkpt><trkpt lat="41.2237583" lon="14.7591283"><ele>232.0</ele><time>2026-04-19T07:48:30.151Z</time></trkpt><trkpt lat="41.2237717" lon="14.7592683"><ele>230.5</ele><time>2026-04-19T07:48:31.15Z</time></trkpt><trkpt lat="41.2238033" lon="14.7593983"><ele>229.0</ele><time>2026-04-19T07:48:32.151Z</time></trkpt><trkpt lat="41.22386" lon="14.7595267"><ele>227.5</ele><time>2026-04-19T07:48:33.15Z</time></trkpt><trkpt lat="41.22393" lon="14.7596483"><ele>226.0</ele><time>2026-04-19T07:48:34.15Z</time></trkpt><trkpt lat="41.22401" lon="14.7597667"><ele>225.75</ele><time>2026-04-19T07:48:35.15Z</time></trkpt><trkpt lat="41.2241" lon="14.7598833"><ele>225.5</ele><time>2026-04-19T07:48:36.15Z</time></trkpt><trkpt lat="41.2241783" lon="14.7600017"><ele>225.25</ele><time>2026-04-19T07:48:37.151Z</time></trkpt><trkpt lat="41.2242533" lon="14.76012"><ele>225.0</ele><time>2026-04-19T07:48:38.151Z</time></trkpt><trkpt lat="41.2243267" lon="14.760215"><ele>225.0</ele><time>2026-04-19T07:48:39.151Z</time></trkpt><trkpt lat="41.2244083" lon="14.76028"><ele>225.0</ele><time>2026-04-19T07:48:40.151Z</time></trkpt><trkpt lat="41.2244917" lon="14.7603067"><ele>225.0</ele><time>2026-04-19T07:48:41.151Z</time></trkpt><trkpt lat="41.2245783" lon="14.7602917"><ele>225.0</ele><time>2026-04-19T07:48:42.151Z</time></trkpt><trkpt lat="41.22466" lon="14.7602433"><ele>225.0</ele><time>2026-04-19T07:48:43.15Z</time></trkpt><trkpt lat="41.22474" lon="14.76017"><ele>225.5</ele><time>2026-04-19T07:48:44.15Z</time></trkpt><trkpt lat="41.224815" lon="14.76007"><ele>226.0</ele><time>2026-04-19T07:48:45.151Z</time></trkpt><trkpt lat="41.224895" lon="14.75996"><ele>226.5</ele><time>2026-04-19T07:48:46.151Z</time></trkpt><trkpt lat="41.2249767" lon="14.75985"><ele>227.0</ele><time>2026-04-19T07:48:47.15Z</time></trkpt><trkpt lat="41.22506" lon="14.75974"><ele>227.0</ele><time>2026-04-19T07:48:48.151Z</time></trkpt><trkpt lat="41.2251467" lon="14.7596267"><ele>227.0</ele><time>2026-04-19T07:48:49.151Z</time></trkpt><trkpt lat="41.22523" lon="14.7595217"><ele>227.0</ele><time>2026-04-19T07:48:50.151Z</time></trkpt><trkpt lat="41.2253133" lon="14.759425"><ele>227.0</ele><time>2026-04-19T07:48:51.151Z</time></trkpt><trkpt lat="41.225405" lon="14.7593433"><ele>227.2</ele><time>2026-04-19T07:48:52.151Z</time></trkpt><trkpt lat="41.2255017" lon="14.75928"><ele>227.39999999999998</ele><time>2026-04-19T07:48:53.151Z</time></trkpt><trkpt lat="41.2256033" lon="14.7592383"><ele>227.60000000000002</ele><time>2026-04-19T07:48:54.151Z</time></trkpt><trkpt lat="41.2257117" lon="14.7592017"><ele>227.8</ele><time>2026-04-19T07:48:55.151Z</time></trkpt><trkpt lat="41.225825" lon="14.7591717"><ele>228.0</ele><time>2026-04-19T07:48:56.15Z</time></trkpt><trkpt lat="41.2259433" lon="14.7591383"><ele>228.0</ele><time>2026-04-19T07:48:57.151Z</time></trkpt><trkpt lat="41.226065" lon="14.7591083"><ele>228.0</ele><time>2026-04-19T07:48:58.15Z</time></trkpt><trkpt lat="41.22618" lon="14.7590667"><ele>228.0</ele><time>2026-04-19T07:48:59.151Z</time></trkpt><trkpt lat="41.226295" lon="14.7590167"><ele>228.0</ele><time>2026-04-19T07:49:00.151Z</time></trkpt><trkpt lat="41.22641" lon="14.7589517"><ele>230.75</ele><time>2026-04-19T07:49:01.15Z</time></trkpt><trkpt lat="41.2265233" lon="14.758885"><ele>233.5</ele><time>2026-04-19T07:49:02.15Z</time></trkpt><trkpt lat="41.22663" lon="14.7588133"><ele>236.25</ele><time>2026-04-19T07:49:03.151Z</time></trkpt><trkpt lat="41.226735" lon="14.7587483"><ele>239.0</ele><time>2026-04-19T07:49:04.15Z</time></trkpt><trkpt lat="41.2268367" lon="14.7586817"><ele>239.0</ele><time>2026-04-19T07:49:05.151Z</time></trkpt><trkpt lat="41.226945" lon="14.75863"><ele>239.0</ele><time>2026-04-19T07:49:06.151Z</time></trkpt><trkpt lat="41.22706" lon="14.7586017"><ele>239.0</ele><time>2026-04-19T07:49:07.15Z</time></trkpt><trkpt lat="41.2271867" lon="14.7585983"><ele>239.0</ele><time>2026-04-19T07:49:08.151Z</time></trkpt><trkpt lat="41.2273" lon="14.75862"><ele>240.5</ele><time>2026-04-19T07:49:09.151Z</time></trkpt><trkpt lat="41.2274117" lon="14.7586617"><ele>242.0</ele><time>2026-04-19T07:49:10.15Z</time></trkpt><trkpt lat="41.2275233" lon="14.758725"><ele>243.5</ele><time>2026-04-19T07:49:11.151Z</time></trkpt><trkpt lat="41.2276267" lon="14.75881"><ele>245.0</ele><time>2026-04-19T07:49:12.151Z</time></trkpt><trkpt lat="41.2277283" lon="14.758905"><ele>245.0</ele><time>2026-04-19T07:49:13.151Z</time></trkpt><trkpt lat="41.2278267" lon="14.7590283"><ele>245.0</ele><time>2026-04-19T07:49:14.151Z</time></trkpt><trkpt lat="41.227915" lon="14.759155"><ele>245.0</ele><time>2026-04-19T07:49:15.15Z</time></trkpt><trkpt lat="41.2280083" lon="14.7592817"><ele>245.0</ele><time>2026-04-19T07:49:16.151Z</time></trkpt><trkpt lat="41.228105" lon="14.7593983"><ele>247.0</ele><time>2026-04-19T07:49:17.15Z</time></trkpt><trkpt lat="41.228195" lon="14.759515"><ele>249.0</ele><time>2026-04-19T07:49:18.151Z</time></trkpt><trkpt lat="41.2282867" lon="14.7596417"><ele>251.0</ele><time>2026-04-19T07:49:19.151Z</time></trkpt><trkpt lat="41.2283733" lon="14.7597467"><ele>253.0</ele><time>2026-04-19T07:49:20.151Z</time></trkpt><trkpt lat="41.2284533" lon="14.7598317"><ele>253.0</ele><time>2026-04-19T07:49:21.151Z</time></trkpt><trkpt lat="41.2285483" lon="14.75989"><ele>253.0</ele><time>2026-04-19T07:49:22.151Z</time></trkpt><trkpt lat="41.228655" lon="14.7599117"><ele>253.0</ele><time>2026-04-19T07:49:23.151Z</time></trkpt><trkpt lat="41.228775" lon="14.7599017"><ele>253.0</ele><time>2026-04-19T07:49:24.15Z</time></trkpt><trkpt lat="41.2288983" lon="14.7598783"><ele>252.0</ele><time>2026-04-19T07:49:25.151Z</time></trkpt><trkpt lat="41.22902" lon="14.7598633"><ele>251.0</ele><time>2026-04-19T07:49:26.151Z</time></trkpt><trkpt lat="41.2291417" lon="14.7598617"><ele>250.0</ele><time>2026-04-19T07:49:27.151Z</time></trkpt><trkpt lat="41.229265" lon="14.7598833"><ele>249.0</ele><time>2026-04-19T07:49:28.15Z</time></trkpt><trkpt lat="41.2293867" lon="14.7599167"><ele>249.0</ele><time>2026-04-19T07:49:29.151Z</time></trkpt><trkpt lat="41.2295017" lon="14.759945"><ele>249.0</ele><time>2026-04-19T07:49:30.15Z</time></trkpt><trkpt lat="41.2296133" lon="14.759955"><ele>249.0</ele><time>2026-04-19T07:49:31.15Z</time></trkpt><trkpt lat="41.2297267" lon="14.7599583"><ele>249.0</ele><time>2026-04-19T07:49:32.151Z</time></trkpt><trkpt lat="41.2298417" lon="14.759945"><ele>249.25</ele><time>2026-04-19T07:49:33.151Z</time></trkpt><trkpt lat="41.229965" lon="14.7599183"><ele>249.5</ele><time>2026-04-19T07:49:34.151Z</time></trkpt><trkpt lat="41.2300783" lon="14.7598933"><ele>249.75</ele><time>2026-04-19T07:49:35.15Z</time></trkpt><trkpt lat="41.2301883" lon="14.7598767"><ele>250.0</ele><time>2026-04-19T07:49:36.151Z</time></trkpt><trkpt lat="41.2302883" lon="14.7598833"><ele>250.0</ele><time>2026-04-19T07:49:37.151Z</time></trkpt><trkpt lat="41.2303783" lon="14.7599267"><ele>250.0</ele><time>2026-04-19T07:49:38.15Z</time></trkpt><trkpt lat="41.2304517" lon="14.759995"><ele>250.0</ele><time>2026-04-19T07:49:39.15Z</time></trkpt><trkpt lat="41.2305017" lon="14.7601033"><ele>250.0</ele><time>2026-04-19T07:49:40.151Z</time></trkpt><trkpt lat="41.230545" lon="14.7602283"><ele>250.0</ele><time>2026-04-19T07:49:41.15Z</time></trkpt><trkpt lat="41.2305867" lon="14.760375"><ele>251.0</ele><time>2026-04-19T07:49:42.151Z</time></trkpt><trkpt lat="41.2306267" lon="14.7605333"><ele>252.0</ele><time>2026-04-19T07:49:43.15Z</time></trkpt><trkpt lat="41.230675" lon="14.7606983"><ele>253.0</ele><time>2026-04-19T07:49:44.151Z</time></trkpt><trkpt lat="41.2307217" lon="14.76087"><ele>254.0</ele><time>2026-04-19T07:49:45.151Z</time></trkpt><trkpt lat="41.23077" lon="14.7610483"><ele>256.0</ele><time>2026-04-19T07:49:46.151Z</time></trkpt><trkpt lat="41.2308133" lon="14.76122"><ele>258.0</ele><time>2026-04-19T07:49:47.151Z</time></trkpt><trkpt lat="41.2308617" lon="14.76139"><ele>260.0</ele><time>2026-04-19T07:49:48.151Z</time></trkpt><trkpt lat="41.2309033" lon="14.7615583"><ele>262.0</ele><time>2026-04-19T07:49:49.151Z</time></trkpt><trkpt lat="41.230945" lon="14.761735"><ele>264.25</ele><time>2026-04-19T07:49:50.15Z</time></trkpt><trkpt lat="41.2309817" lon="14.7619083"><ele>266.5</ele><time>2026-04-19T07:49:51.15Z</time></trkpt><trkpt lat="41.2310083" lon="14.7621167"><ele>268.75</ele><time>2026-04-19T07:49:52.15Z</time></trkpt><trkpt lat="41.23105" lon="14.7622783"><ele>271.0</ele><time>2026-04-19T07:49:53.15Z</time></trkpt><trkpt lat="41.23109" lon="14.76243"><ele>271.0</ele><time>2026-04-19T07:49:54.151Z</time></trkpt><trkpt lat="41.2311233" lon="14.762575"><ele>271.0</ele><time>2026-04-19T07:49:55.151Z</time></trkpt><trkpt lat="41.2311617" lon="14.7627133"><ele>271.0</ele><time>2026-04-19T07:49:56.151Z</time></trkpt><trkpt lat="41.231195" lon="14.7628567"><ele>271.0</ele><time>2026-04-19T07:49:57.151Z</time></trkpt><trkpt lat="41.2312267" lon="14.763005"><ele>272.25</ele><time>2026-04-19T07:49:58.151Z</time></trkpt><trkpt lat="41.2312533" lon="14.7631533"><ele>273.5</ele><time>2026-04-19T07:49:59.151Z</time></trkpt><trkpt lat="41.2312633" lon="14.7633167"><ele>274.75</ele><time>2026-04-19T07:50:00.151Z</time></trkpt><trkpt lat="41.2312633" lon="14.763475"><ele>276.0</ele><time>2026-04-19T07:50:01.151Z</time></trkpt><trkpt lat="41.2312583" lon="14.7636333"><ele>277.0</ele><time>2026-04-19T07:50:02.15Z</time></trkpt><trkpt lat="41.231245" lon="14.7637917"><ele>278.0</ele><time>2026-04-19T07:50:03.151Z</time></trkpt><trkpt lat="41.231215" lon="14.7639467"><ele>279.0</ele><time>2026-04-19T07:50:04.15Z</time></trkpt><trkpt lat="41.23119" lon="14.7640883"><ele>280.0</ele><time>2026-04-19T07:50:05.15Z</time></trkpt><trkpt lat="41.2311667" lon="14.7642217"><ele>280.0</ele><time>2026-04-19T07:50:06.151Z</time></trkpt><trkpt lat="41.2311517" lon="14.7643567"><ele>280.0</ele><time>2026-04-19T07:50:07.15Z</time></trkpt><trkpt lat="41.2311367" lon="14.7644867"><ele>280.0</ele><time>2026-04-19T07:50:08.151Z</time></trkpt><trkpt lat="41.231145" lon="14.764615"><ele>280.0</ele><time>2026-04-19T07:50:09.15Z</time></trkpt><trkpt lat="41.2311783" lon="14.76473"><ele>280.0</ele><time>2026-04-19T07:50:10.151Z</time></trkpt><trkpt lat="41.2312283" lon="14.7648267"><ele>279.2</ele><time>2026-04-19T07:50:11.151Z</time></trkpt><trkpt lat="41.2313" lon="14.7649167"><ele>278.4</ele><time>2026-04-19T07:50:12.15Z</time></trkpt><trkpt lat="41.2313767" lon="14.765005"><ele>277.6</ele><time>2026-04-19T07:50:13.151Z</time></trkpt><trkpt lat="41.23145" lon="14.7651017"><ele>276.8</ele><time>2026-04-19T07:50:14.15Z</time></trkpt><trkpt lat="41.2315133" lon="14.765215"><ele>276.0</ele><time>2026-04-19T07:50:15.15Z</time></trkpt><trkpt lat="41.231565" lon="14.7653467"><ele>276.0</ele><time>2026-04-19T07:50:16.15Z</time></trkpt><trkpt lat="41.2316067" lon="14.7654917"><ele>276.0</ele><time>2026-04-19T07:50:17.151Z</time></trkpt><trkpt lat="41.2316433" lon="14.7656483"><ele>276.0</ele><time>2026-04-19T07:50:18.151Z</time></trkpt><trkpt lat="41.2316717" lon="14.7658067"><ele>276.0</ele><time>2026-04-19T07:50:19.151Z</time></trkpt><trkpt lat="41.231705" lon="14.76596"><ele>278.5</ele><time>2026-04-19T07:50:20.151Z</time></trkpt><trkpt lat="41.2317467" lon="14.766115"><ele>281.0</ele><time>2026-04-19T07:50:21.15Z</time></trkpt><trkpt lat="41.231795" lon="14.7662667"><ele>283.5</ele><time>2026-04-19T07:50:22.151Z</time></trkpt><trkpt lat="41.23185" lon="14.7664183"><ele>286.0</ele><time>2026-04-19T07:50:23.151Z</time></trkpt><trkpt lat="41.2319067" lon="14.7665717"><ele>286.0</ele><time>2026-04-19T07:50:24.151Z</time></trkpt><trkpt lat="41.2319683" lon="14.7667333"><ele>286.0</ele><time>2026-04-19T07:50:25.151Z</time></trkpt><trkpt lat="41.23203" lon="14.7668867"><ele>286.0</ele><time>2026-04-19T07:50:26.151Z</time></trkpt><trkpt lat="41.232085" lon="14.767045"><ele>286.0</ele><time>2026-04-19T07:50:27.151Z</time></trkpt><trkpt lat="41.2321283" lon="14.7672083"><ele>288.0</ele><time>2026-04-19T07:50:28.151Z</time></trkpt><trkpt lat="41.2321717" lon="14.7673717"><ele>290.0</ele><time>2026-04-19T07:50:29.151Z</time></trkpt><trkpt lat="41.2322017" lon="14.7675333"><ele>292.0</ele><time>2026-04-19T07:50:30.15Z</time></trkpt><trkpt lat="41.2322417" lon="14.76768"><ele>294.0</ele><time>2026-04-19T07:50:31.151Z</time></trkpt><trkpt lat="41.2322817" lon="14.767815"><ele>293.2</ele><time>2026-04-19T07:50:32.15Z</time></trkpt><trkpt lat="41.2323217" lon="14.7679467"><ele>292.4</ele><time>2026-04-19T07:50:33.151Z</time></trkpt><trkpt lat="41.23237" lon="14.7680617"><ele>291.6</ele><time>2026-04-19T07:50:34.15Z</time></trkpt><trkpt lat="41.2324483" lon="14.7681583"><ele>290.8</ele><time>2026-04-19T07:50:35.151Z</time></trkpt><trkpt lat="41.23254" lon="14.768255"><ele>290.0</ele><time>2026-04-19T07:50:36.151Z</time></trkpt><trkpt lat="41.2326317" lon="14.7683533"><ele>290.0</ele><time>2026-04-19T07:50:37.151Z</time></trkpt><trkpt lat="41.2327267" lon="14.7684567"><ele>290.0</ele><time>2026-04-19T07:50:38.15Z</time></trkpt><trkpt lat="41.2328233" lon="14.7685567"><ele>290.0</ele><time>2026-04-19T07:50:39.151Z</time></trkpt><trkpt lat="41.2329117" lon="14.768665"><ele>290.0</ele><time>2026-04-19T07:50:40.15Z</time></trkpt><trkpt lat="41.23301" lon="14.7687717"><ele>290.4</ele><time>2026-04-19T07:50:41.151Z</time></trkpt><trkpt lat="41.2331017" lon="14.7688617"><ele>290.8</ele><time>2026-04-19T07:50:42.15Z</time></trkpt><trkpt lat="41.2331867" lon="14.7689733"><ele>291.2</ele><time>2026-04-19T07:50:43.15Z</time></trkpt><trkpt lat="41.2332783" lon="14.7690533"><ele>291.6</ele><time>2026-04-19T07:50:44.151Z</time></trkpt><trkpt lat="41.23336" lon="14.7691333"><ele>292.0</ele><time>2026-04-19T07:50:45.151Z</time></trkpt><trkpt lat="41.23344" lon="14.7692167"><ele>292.0</ele><time>2026-04-19T07:50:46.15Z</time></trkpt><trkpt lat="41.23351" lon="14.7693117"><ele>292.0</ele><time>2026-04-19T07:50:47.151Z</time></trkpt><trkpt lat="41.233585" lon="14.7694"><ele>292.0</ele><time>2026-04-19T07:50:48.15Z</time></trkpt><trkpt lat="41.2336567" lon="14.76948"><ele>292.0</ele><time>2026-04-19T07:50:49.151Z</time></trkpt><trkpt lat="41.233735" lon="14.769555"><ele>292.0</ele><time>2026-04-19T07:50:50.151Z</time></trkpt><trkpt lat="41.233825" lon="14.7696217"><ele>293.8</ele><time>2026-04-19T07:50:51.151Z</time></trkpt><trkpt lat="41.233925" lon="14.769675"><ele>295.6</ele><time>2026-04-19T07:50:52.151Z</time></trkpt><trkpt lat="41.2340283" lon="14.7697133"><ele>297.40000000000003</ele><time>2026-04-19T07:50:53.15Z</time></trkpt><trkpt lat="41.234135" lon="14.7697233"><ele>299.2</ele><time>2026-04-19T07:50:54.15Z</time></trkpt><trkpt lat="41.2342367" lon="14.769705"><ele>301.0</ele><time>2026-04-19T07:50:55.15Z</time></trkpt><trkpt lat="41.2343317" lon="14.7696683"><ele>301.0</ele><time>2026-04-19T07:50:56.151Z</time></trkpt><trkpt lat="41.2344167" lon="14.7696017"><ele>301.0</ele><time>2026-04-19T07:50:57.151Z</time></trkpt><trkpt lat="41.2344967" lon="14.7695133"><ele>301.0</ele><time>2026-04-19T07:50:58.151Z</time></trkpt><trkpt lat="41.234575" lon="14.7694133"><ele>301.0</ele><time>2026-04-19T07:50:59.151Z</time></trkpt><trkpt lat="41.2346433" lon="14.7693033"><ele>301.0</ele><time>2026-04-19T07:51:00.15Z</time></trkpt><trkpt lat="41.234705" lon="14.7691917"><ele>301.40000000000003</ele><time>2026-04-19T07:51:01.151Z</time></trkpt><trkpt lat="41.23475" lon="14.7690717"><ele>301.8</ele><time>2026-04-19T07:51:02.15Z</time></trkpt><trkpt lat="41.23478" lon="14.76894"><ele>302.20000000000005</ele><time>2026-04-19T07:51:03.15Z</time></trkpt><trkpt lat="41.2347983" lon="14.7687983"><ele>302.6</ele><time>2026-04-19T07:51:04.151Z</time></trkpt><trkpt lat="41.2348067" lon="14.76865"><ele>303.0</ele><time>2026-04-19T07:51:05.15Z</time></trkpt><trkpt lat="41.2348017" lon="14.768495"><ele>299.0</ele><time>2026-04-19T07:51:06.15Z</time></trkpt><trkpt lat="41.234795" lon="14.7683367"><ele>295.0</ele><time>2026-04-19T07:51:07.151Z</time></trkpt><trkpt lat="41.23478" lon="14.7681733"><ele>291.0</ele><time>2026-04-19T07:51:08.151Z</time></trkpt><trkpt lat="41.2347683" lon="14.768"><ele>287.0</ele><time>2026-04-19T07:51:09.151Z</time></trkpt><trkpt lat="41.2347517" lon="14.7678317"><ele>287.5</ele><time>2026-04-19T07:51:10.151Z</time></trkpt><trkpt lat="41.2347417" lon="14.7676717"><ele>288.0</ele><time>2026-04-19T07:51:11.151Z</time></trkpt><trkpt lat="41.2347433" lon="14.767515"><ele>288.5</ele><time>2026-04-19T07:51:12.15Z</time></trkpt><trkpt lat="41.234745" lon="14.7673567"><ele>289.0</ele><time>2026-04-19T07:51:13.151Z</time></trkpt><trkpt lat="41.2347483" lon="14.7672067"><ele>289.0</ele><time>2026-04-19T07:51:14.151Z</time></trkpt><trkpt lat="41.2347617" lon="14.76705"><ele>289.0</ele><time>2026-04-19T07:51:15.151Z</time></trkpt><trkpt lat="41.23479" lon="14.76689"><ele>289.0</ele><time>2026-04-19T07:51:16.151Z</time></trkpt><trkpt lat="41.2348217" lon="14.7667317"><ele>289.0</ele><time>2026-04-19T07:51:17.15Z</time></trkpt><trkpt lat="41.23485" lon="14.7665783"><ele>293.75</ele><time>2026-04-19T07:51:18.15Z</time></trkpt><trkpt lat="41.23489" lon="14.76643"><ele>298.5</ele><time>2026-04-19T07:51:19.151Z</time></trkpt><trkpt lat="41.2349333" lon="14.7662933"><ele>303.25</ele><time>2026-04-19T07:51:20.151Z</time></trkpt><trkpt lat="41.23499" lon="14.7661533"><ele>308.0</ele><time>2026-04-19T07:51:21.151Z</time></trkpt><trkpt lat="41.2350467" lon="14.7660183"><ele>308.0</ele><time>2026-04-19T07:51:22.151Z</time></trkpt><trkpt lat="41.2351083" lon="14.76589"><ele>308.0</ele><time>2026-04-19T07:51:23.151Z</time></trkpt><trkpt lat="41.23518" lon="14.7657833"><ele>308.0</ele><time>2026-04-19T07:51:24.151Z</time></trkpt><trkpt lat="41.23526" lon="14.7656867"><ele>308.0</ele><time>2026-04-19T07:51:25.151Z</time></trkpt><trkpt lat="41.2353483" lon="14.7656083"><ele>308.0</ele><time>2026-04-19T07:51:26.15Z</time></trkpt><trkpt lat="41.2354417" lon="14.7655467"><ele>308.0</ele><time>2026-04-19T07:51:27.151Z</time></trkpt><trkpt lat="41.2355533" lon="14.7655133"><ele>308.0</ele><time>2026-04-19T07:51:28.15Z</time></trkpt><trkpt lat="41.23566" lon="14.765495"><ele>308.0</ele><time>2026-04-19T07:51:29.15Z</time></trkpt><trkpt lat="41.2357783" lon="14.7654917"><ele>308.0</ele><time>2026-04-19T07:51:30.151Z</time></trkpt><trkpt lat="41.2359067" lon="14.7655083"><ele>310.5</ele><time>2026-04-19T07:51:31.15Z</time></trkpt><trkpt lat="41.2360383" lon="14.7655333"><ele>313.0</ele><time>2026-04-19T07:51:32.15Z</time></trkpt><trkpt lat="41.2361683" lon="14.765565"><ele>315.5</ele><time>2026-04-19T07:51:33.151Z</time></trkpt><trkpt lat="41.2362833" lon="14.765615"><ele>318.0</ele><time>2026-04-19T07:51:34.151Z</time></trkpt><trkpt lat="41.2363883" lon="14.7656717"><ele>317.25</ele><time>2026-04-19T07:51:35.15Z</time></trkpt><trkpt lat="41.2364933" lon="14.76575"><ele>316.5</ele><time>2026-04-19T07:51:36.15Z</time></trkpt><trkpt lat="41.2365983" lon="14.7658483"><ele>315.75</ele><time>2026-04-19T07:51:37.151Z</time></trkpt><trkpt lat="41.2366967" lon="14.7659517"><ele>315.0</ele><time>2026-04-19T07:51:38.15Z</time></trkpt><trkpt lat="41.23679" lon="14.7660483"><ele>317.6</ele><time>2026-04-19T07:51:39.15Z</time></trkpt><trkpt lat="41.23688" lon="14.76614"><ele>320.2</ele><time>2026-04-19T07:51:40.151Z</time></trkpt><trkpt lat="41.236975" lon="14.7662183"><ele>322.79999999999995</ele><time>2026-04-19T07:51:41.151Z</time></trkpt><trkpt lat="41.2370733" lon="14.7662783"><ele>325.4</ele><time>2026-04-19T07:51:42.151Z</time></trkpt><trkpt lat="41.2371783" lon="14.7663083"><ele>328.0</ele><time>2026-04-19T07:51:43.151Z</time></trkpt><trkpt lat="41.2372883" lon="14.7662967"><ele>328.5</ele><time>2026-04-19T07:51:44.151Z</time></trkpt><trkpt lat="41.2374017" lon="14.7662667"><ele>329.0</ele><time>2026-04-19T07:51:45.151Z</time></trkpt><trkpt lat="41.2375183" lon="14.766235"><ele>329.5</ele><time>2026-04-19T07:51:46.15Z</time></trkpt><trkpt lat="41.2376367" lon="14.7661967"><ele>330.0</ele><time>2026-04-19T07:51:47.15Z</time></trkpt><trkpt lat="41.237755" lon="14.7661767"><ele>330.0</ele><time>2026-04-19T07:51:48.151Z</time></trkpt><trkpt lat="41.237875" lon="14.766175"><ele>330.0</ele><time>2026-04-19T07:51:49.151Z</time></trkpt><trkpt lat="41.2379867" lon="14.7661933"><ele>330.0</ele><time>2026-04-19T07:51:50.152Z</time></trkpt><trkpt lat="41.2380967" lon="14.7662317"><ele>330.0</ele><time>2026-04-19T07:51:51.151Z</time></trkpt><trkpt lat="41.2382017" lon="14.7662983"><ele>330.4</ele><time>2026-04-19T07:51:52.152Z</time></trkpt><trkpt lat="41.2383083" lon="14.766365"><ele>330.8</ele><time>2026-04-19T07:51:53.151Z</time></trkpt><trkpt lat="41.238415" lon="14.7664183"><ele>331.20000000000005</ele><time>2026-04-19T07:51:54.152Z</time></trkpt><trkpt lat="41.2385183" lon="14.7664383"><ele>331.6</ele><time>2026-04-19T07:51:55.151Z</time></trkpt><trkpt lat="41.238625" lon="14.7664333"><ele>332.0</ele><time>2026-04-19T07:51:56.151Z</time></trkpt><trkpt lat="41.2387367" lon="14.7664033"><ele>332.0</ele><time>2026-04-19T07:51:57.151Z</time></trkpt><trkpt lat="41.2388567" lon="14.7663567"><ele>332.0</ele><time>2026-04-19T07:51:58.152Z</time></trkpt><trkpt lat="41.2389917" lon="14.7663117"><ele>332.0</ele><time>2026-04-19T07:51:59.152Z</time></trkpt><trkpt lat="41.239135" lon="14.76627"><ele>332.0</ele><time>2026-04-19T07:52:00.152Z</time></trkpt><trkpt lat="41.2392817" lon="14.7662317"><ele>333.0</ele><time>2026-04-19T07:52:01.152Z</time></trkpt><trkpt lat="41.2394283" lon="14.7662017"><ele>334.0</ele><time>2026-04-19T07:52:02.152Z</time></trkpt><trkpt lat="41.239565" lon="14.7661833"><ele>335.0</ele><time>2026-04-19T07:52:03.152Z</time></trkpt><trkpt lat="41.239695" lon="14.7661633"><ele>336.0</ele><time>2026-04-19T07:52:04.152Z</time></trkpt><trkpt lat="41.2398167" lon="14.76614"><ele>336.6</ele><time>2026-04-19T07:52:05.152Z</time></trkpt><trkpt lat="41.2399283" lon="14.76611"><ele>337.20000000000005</ele><time>2026-04-19T07:52:06.151Z</time></trkpt><trkpt lat="41.2400333" lon="14.7660833"><ele>337.79999999999995</ele><time>2026-04-19T07:52:07.152Z</time></trkpt><trkpt lat="41.24014" lon="14.76603"><ele>338.4</ele><time>2026-04-19T07:52:08.152Z</time></trkpt><trkpt lat="41.2402233" lon="14.7659583"><ele>339.0</ele><time>2026-04-19T07:52:09.151Z</time></trkpt><trkpt lat="41.2402883" lon="14.765885"><ele>337.2</ele><time>2026-04-19T07:52:10.152Z</time></trkpt><trkpt lat="41.2403383" lon="14.765805"><ele>335.4</ele><time>2026-04-19T07:52:11.151Z</time></trkpt><trkpt lat="41.2403633" lon="14.765705"><ele>333.6</ele><time>2026-04-19T07:52:12.152Z</time></trkpt><trkpt lat="41.2403683" lon="14.7655767"><ele>331.8</ele><time>2026-04-19T07:52:13.152Z</time></trkpt><trkpt lat="41.2403483" lon="14.7654333"><ele>330.0</ele><time>2026-04-19T07:52:14.151Z</time></trkpt><trkpt lat="41.2403117" lon="14.7652733"><ele>331.25</ele><time>2026-04-19T07:52:15.152Z</time></trkpt><trkpt lat="41.2402683" lon="14.7651117"><ele>332.5</ele><time>2026-04-19T07:52:16.152Z</time></trkpt><trkpt lat="41.240225" lon="14.7649483"><ele>333.75</ele><time>2026-04-19T07:52:17.152Z</time></trkpt><trkpt lat="41.2401767" lon="14.7648033"><ele>335.0</ele><time>2026-04-19T07:52:18.152Z</time></trkpt><trkpt lat="41.24012" lon="14.7646667"><ele>335.0</ele><time>2026-04-19T07:52:19.151Z</time></trkpt><trkpt lat="41.24006" lon="14.7645383"><ele>335.0</ele><time>2026-04-19T07:52:20.152Z</time></trkpt><trkpt lat="41.2399933" lon="14.7644167"><ele>335.0</ele><time>2026-04-19T07:52:21.152Z</time></trkpt><trkpt lat="41.2399267" lon="14.7643083"><ele>335.0</ele><time>2026-04-19T07:52:22.151Z</time></trkpt><trkpt lat="41.2398517" lon="14.764215"><ele>335.0</ele><time>2026-04-19T07:52:23.152Z</time></trkpt><trkpt lat="41.2397783" lon="14.7641233"><ele>335.2</ele><time>2026-04-19T07:52:24.151Z</time></trkpt><trkpt lat="41.239695" lon="14.7640417"><ele>335.4</ele><time>2026-04-19T07:52:25.151Z</time></trkpt><trkpt lat="41.2396067" lon="14.7639733"><ele>335.6</ele><time>2026-04-19T07:52:26.151Z</time></trkpt><trkpt lat="41.2395133" lon="14.7639067"><ele>335.8</ele><time>2026-04-19T07:52:27.152Z</time></trkpt><trkpt lat="41.239425" lon="14.7638367"><ele>336.0</ele><time>2026-04-19T07:52:28.151Z</time></trkpt><trkpt lat="41.2393267" lon="14.763775"><ele>336.0</ele><time>2026-04-19T07:52:29.151Z</time></trkpt><trkpt lat="41.23923" lon="14.7637033"><ele>336.0</ele><time>2026-04-19T07:52:30.152Z</time></trkpt><trkpt lat="41.2391417" lon="14.7636283"><ele>336.0</ele><time>2026-04-19T07:52:31.151Z</time></trkpt><trkpt lat="41.2390583" lon="14.7635483"><ele>336.0</ele><time>2026-04-19T07:52:32.152Z</time></trkpt><trkpt lat="41.2389717" lon="14.7634567"><ele>336.0</ele><time>2026-04-19T07:52:33.151Z</time></trkpt><trkpt lat="41.2388933" lon="14.7633533"><ele>335.5</ele><time>2026-04-19T07:52:34.152Z</time></trkpt><trkpt lat="41.2388267" lon="14.7632383"><ele>335.0</ele><time>2026-04-19T07:52:35.152Z</time></trkpt><trkpt lat="41.2387817" lon="14.763135"><ele>334.5</ele><time>2026-04-19T07:52:36.152Z</time></trkpt><trkpt lat="41.2387483" lon="14.7630367"><ele>334.0</ele><time>2026-04-19T07:52:37.152Z</time></trkpt><trkpt lat="41.2387433" lon="14.7629283"><ele>333.5</ele><time>2026-04-19T07:52:38.152Z</time></trkpt><trkpt lat="41.238755" lon="14.7628233"><ele>333.0</ele><time>2026-04-19T07:52:39.152Z</time></trkpt><trkpt lat="41.2387933" lon="14.7627217"><ele>333.75</ele><time>2026-04-19T07:52:40.152Z</time></trkpt><trkpt lat="41.23886" lon="14.7626433"><ele>334.5</ele><time>2026-04-19T07:52:41.152Z</time></trkpt><trkpt lat="41.2389517" lon="14.7625783"><ele>335.25</ele><time>2026-04-19T07:52:42.151Z</time></trkpt><trkpt lat="41.2390667" lon="14.76252"><ele>336.0</ele><time>2026-04-19T07:52:43.152Z</time></trkpt><trkpt lat="41.2391933" lon="14.7624633"><ele>339.25</ele><time>2026-04-19T07:52:44.151Z</time></trkpt><trkpt lat="41.2393267" lon="14.7624033"><ele>342.5</ele><time>2026-04-19T07:52:45.151Z</time></trkpt><trkpt lat="41.2394583" lon="14.7623483"><ele>345.75</ele><time>2026-04-19T07:52:46.152Z</time></trkpt><trkpt lat="41.23959" lon="14.7623167"><ele>349.0</ele><time>2026-04-19T07:52:47.152Z</time></trkpt><trkpt lat="41.2397233" lon="14.7623"><ele>350.5</ele><time>2026-04-19T07:52:48.152Z</time></trkpt><trkpt lat="41.2398583" lon="14.7622933"><ele>352.0</ele><time>2026-04-19T07:52:49.152Z</time></trkpt><trkpt lat="41.239985" lon="14.762305"><ele>353.5</ele><time>2026-04-19T07:52:50.151Z</time></trkpt><trkpt lat="41.2401067" lon="14.7623333"><ele>355.0</ele><time>2026-04-19T07:52:51.152Z</time></trkpt><trkpt lat="41.2402333" lon="14.762375"><ele>355.0</ele><time>2026-04-19T07:52:52.152Z</time></trkpt><trkpt lat="41.2403617" lon="14.7624283"><ele>355.0</ele><time>2026-04-19T07:52:53.152Z</time></trkpt><trkpt lat="41.2404883" lon="14.762495"><ele>355.0</ele><time>2026-04-19T07:52:54.152Z</time></trkpt><trkpt lat="41.2406183" lon="14.7625617"><ele>355.0</ele><time>2026-04-19T07:52:55.152Z</time></trkpt><trkpt lat="41.2407483" lon="14.7626333"><ele>354.75</ele><time>2026-04-19T07:52:56.152Z</time></trkpt><trkpt lat="41.2408867" lon="14.7626917"><ele>354.5</ele><time>2026-04-19T07:52:57.152Z</time></trkpt><trkpt lat="41.2410233" lon="14.762745"><ele>354.25</ele><time>2026-04-19T07:52:58.152Z</time></trkpt><trkpt lat="41.2411533" lon="14.7627883"><ele>354.0</ele><time>2026-04-19T07:52:59.151Z</time></trkpt><trkpt lat="41.2412833" lon="14.7628183"><ele>357.5</ele><time>2026-04-19T07:53:00.152Z</time></trkpt><trkpt lat="41.2414083" lon="14.7628433"><ele>361.0</ele><time>2026-04-19T07:53:01.151Z</time></trkpt><trkpt lat="41.2415317" lon="14.762855"><ele>364.5</ele><time>2026-04-19T07:53:02.152Z</time></trkpt><trkpt lat="41.2416467" lon="14.7628717"><ele>368.0</ele><time>2026-04-19T07:53:03.152Z</time></trkpt><trkpt lat="41.241755" lon="14.76287"><ele>368.2</ele><time>2026-04-19T07:53:04.152Z</time></trkpt><trkpt lat="41.2418633" lon="14.7628533"><ele>368.4</ele><time>2026-04-19T07:53:05.152Z</time></trkpt><trkpt lat="41.2419667" lon="14.7628133"><ele>368.59999999999997</ele><time>2026-04-19T07:53:06.152Z</time></trkpt><trkpt lat="41.2420617" lon="14.7627417"><ele>368.79999999999995</ele><time>2026-04-19T07:53:07.151Z</time></trkpt><trkpt lat="41.2421467" lon="14.7626533"><ele>369.0</ele><time>2026-04-19T07:53:08.151Z</time></trkpt><trkpt lat="41.2422217" lon="14.7625317"><ele>369.75</ele><time>2026-04-19T07:53:09.152Z</time></trkpt><trkpt lat="41.2422817" lon="14.7623967"><ele>370.5</ele><time>2026-04-19T07:53:10.152Z</time></trkpt><trkpt lat="41.2423267" lon="14.7622433"><ele>371.25</ele><time>2026-04-19T07:53:11.151Z</time></trkpt><trkpt lat="41.242365" lon="14.76209"><ele>372.0</ele><time>2026-04-19T07:53:12.152Z</time></trkpt><trkpt lat="41.24241" lon="14.761955"><ele>370.40000000000003</ele><time>2026-04-19T07:53:13.151Z</time></trkpt><trkpt lat="41.242475" lon="14.7618333"><ele>368.8</ele><time>2026-04-19T07:53:14.152Z</time></trkpt><trkpt lat="41.24256" lon="14.76173"><ele>367.2</ele><time>2026-04-19T07:53:15.152Z</time></trkpt><trkpt lat="41.2426483" lon="14.7616533"><ele>365.6</ele><time>2026-04-19T07:53:16.151Z</time></trkpt><trkpt lat="41.24275" lon="14.7615833"><ele>364.0</ele><time>2026-04-19T07:53:17.152Z</time></trkpt><trkpt lat="41.24286" lon="14.7615317"><ele>364.0</ele><time>2026-04-19T07:53:18.152Z</time></trkpt><trkpt lat="41.2429733" lon="14.7614983"><ele>364.0</ele><time>2026-04-19T07:53:19.152Z</time></trkpt><trkpt lat="41.2430917" lon="14.76147"><ele>364.0</ele><time>2026-04-19T07:53:20.152Z</time></trkpt><trkpt lat="41.2432117" lon="14.7614567"><ele>364.0</ele><time>2026-04-19T07:53:21.152Z</time></trkpt><trkpt lat="41.2433367" lon="14.7614617"><ele>366.75</ele><time>2026-04-19T07:53:22.151Z</time></trkpt><trkpt lat="41.2434683" lon="14.7614767"><ele>369.5</ele><time>2026-04-19T07:53:23.151Z</time></trkpt><trkpt lat="41.2435983" lon="14.7615083"><ele>372.25</ele><time>2026-04-19T07:53:24.151Z</time></trkpt><trkpt lat="41.2437267" lon="14.761535"><ele>375.0</ele><time>2026-04-19T07:53:25.152Z</time></trkpt><trkpt lat="41.243855" lon="14.761565"><ele>375.5</ele><time>2026-04-19T07:53:26.151Z</time></trkpt><trkpt lat="41.2439783" lon="14.7616017"><ele>376.0</ele><time>2026-04-19T07:53:27.152Z</time></trkpt><trkpt lat="41.2440983" lon="14.761625"><ele>376.5</ele><time>2026-04-19T07:53:28.152Z</time></trkpt><trkpt lat="41.2442167" lon="14.7616433"><ele>377.0</ele><time>2026-04-19T07:53:29.152Z</time></trkpt><trkpt lat="41.2443383" lon="14.7616533"><ele>377.0</ele><time>2026-04-19T07:53:30.151Z</time></trkpt><trkpt lat="41.2444533" lon="14.76166"><ele>377.0</ele><time>2026-04-19T07:53:31.152Z</time></trkpt><trkpt lat="41.2445667" lon="14.7616583"><ele>377.0</ele><time>2026-04-19T07:53:32.152Z</time></trkpt><trkpt lat="41.24468" lon="14.7616617"><ele>377.0</ele><time>2026-04-19T07:53:33.152Z</time></trkpt><trkpt lat="41.2447933" lon="14.761645"><ele>377.6</ele><time>2026-04-19T07:53:34.152Z</time></trkpt><trkpt lat="41.2449083" lon="14.7616183"><ele>378.20000000000005</ele><time>2026-04-19T07:53:35.152Z</time></trkpt><trkpt lat="41.245015" lon="14.761595"><ele>378.8</ele><time>2026-04-19T07:53:36.152Z</time></trkpt><trkpt lat="41.2451217" lon="14.7615767"><ele>379.4</ele><time>2026-04-19T07:53:37.152Z</time></trkpt><trkpt lat="41.2452183" lon="14.7615767"><ele>380.0</ele><time>2026-04-19T07:53:38.151Z</time></trkpt><trkpt lat="41.2453083" lon="14.7616"><ele>380.0</ele><time>2026-04-19T07:53:39.152Z</time></trkpt><trkpt lat="41.2454067" lon="14.76166"><ele>380.0</ele><time>2026-04-19T07:53:40.151Z</time></trkpt><trkpt lat="41.2454933" lon="14.7617367"><ele>380.0</ele><time>2026-04-19T07:53:41.152Z</time></trkpt><trkpt lat="41.2455717" lon="14.7618133"><ele>380.0</ele><time>2026-04-19T07:53:42.152Z</time></trkpt><trkpt lat="41.24564" lon="14.7618767"><ele>380.0</ele><time>2026-04-19T07:53:43.152Z</time></trkpt><trkpt lat="41.2457117" lon="14.761915"><ele>381.6666666666667</ele><time>2026-04-19T07:53:44.152Z</time></trkpt><trkpt lat="41.245785" lon="14.7619183"><ele>383.33333333333337</ele><time>2026-04-19T07:53:45.152Z</time></trkpt><trkpt lat="41.2458483" lon="14.7618883"><ele>385.0</ele><time>2026-04-19T07:53:46.151Z</time></trkpt><trkpt lat="41.2458967" lon="14.7618133"><ele>386.6666666666667</ele><time>2026-04-19T07:53:47.152Z</time></trkpt><trkpt lat="41.2459033" lon="14.76168"><ele>388.3333333333333</ele><time>2026-04-19T07:53:48.152Z</time></trkpt><trkpt lat="41.2458983" lon="14.761545"><ele>390.0</ele><time>2026-04-19T07:53:49.152Z</time></trkpt><trkpt lat="41.2458967" lon="14.7614083"><ele>390.0</ele><time>2026-04-19T07:53:50.152Z</time></trkpt><trkpt lat="41.245895" lon="14.76129"><ele>390.0</ele><time>2026-04-19T07:53:51.152Z</time></trkpt><trkpt lat="41.2458983" lon="14.7611783"><ele>390.0</ele><time>2026-04-19T07:53:52.152Z</time></trkpt><trkpt lat="41.2458983" lon="14.7610767"><ele>390.0</ele><time>2026-04-19T07:53:53.152Z</time></trkpt><trkpt lat="41.2459033" lon="14.7609817"><ele>390.0</ele><time>2026-04-19T07:53:54.152Z</time></trkpt><trkpt lat="41.2459133" lon="14.7608833"><ele>390.0</ele><time>2026-04-19T07:53:55.152Z</time></trkpt><trkpt lat="41.2459217" lon="14.7607883"><ele>389.3333333333333</ele><time>2026-04-19T07:53:56.152Z</time></trkpt><trkpt lat="41.2459283" lon="14.7606933"><ele>388.66666666666663</ele><time>2026-04-19T07:53:57.152Z</time></trkpt><trkpt lat="41.2459333" lon="14.760595"><ele>388.0</ele><time>2026-04-19T07:53:58.152Z</time></trkpt><trkpt lat="41.2459383" lon="14.760495"><ele>387.3333333333333</ele><time>2026-04-19T07:53:59.152Z</time></trkpt><trkpt lat="41.245955" lon="14.7604033"><ele>386.66666666666663</ele><time>2026-04-19T07:54:00.151Z</time></trkpt><trkpt lat="41.245955" lon="14.7603183"><ele>386.0</ele><time>2026-04-19T07:54:01.152Z</time></trkpt><trkpt lat="41.24598" lon="14.7601733"><ele>385.6</ele><time>2026-04-19T07:54:03.152Z</time></trkpt><trkpt lat="41.2460533" lon="14.7600583"><ele>385.20000000000005</ele><time>2026-04-19T07:54:05.152Z</time></trkpt><trkpt lat="41.246155" lon="14.7599983"><ele>384.79999999999995</ele><time>2026-04-19T07:54:07.151Z</time></trkpt><trkpt lat="41.2462217" lon="14.7599983"><ele>384.4</ele><time>2026-04-19T07:54:08.152Z</time></trkpt><trkpt lat="41.2463" lon="14.7600233"><ele>384.0</ele><time>2026-04-19T07:54:09.152Z</time></trkpt><trkpt lat="41.2463917" lon="14.7600617"><ele>384.2</ele><time>2026-04-19T07:54:10.151Z</time></trkpt><trkpt lat="41.2464867" lon="14.760095"><ele>384.4</ele><time>2026-04-19T07:54:11.151Z</time></trkpt><trkpt lat="41.24658" lon="14.760115"><ele>384.6</ele><time>2026-04-19T07:54:12.152Z</time></trkpt><trkpt lat="41.246675" lon="14.7601217"><ele>384.8</ele><time>2026-04-19T07:54:13.152Z</time></trkpt><trkpt lat="41.2467733" lon="14.7601167"><ele>385.0</ele><time>2026-04-19T07:54:14.151Z</time></trkpt><trkpt lat="41.2468683" lon="14.7601017"><ele>385.0</ele><time>2026-04-19T07:54:15.152Z</time></trkpt><trkpt lat="41.246965" lon="14.7600833"><ele>385.0</ele><time>2026-04-19T07:54:16.152Z</time></trkpt><trkpt lat="41.24706" lon="14.760055"><ele>385.0</ele><time>2026-04-19T07:54:17.152Z</time></trkpt><trkpt lat="41.2471533" lon="14.7600383"><ele>385.0</ele><time>2026-04-19T07:54:18.151Z</time></trkpt><trkpt lat="41.2472433" lon="14.759995"><ele>385.0</ele><time>2026-04-19T07:54:19.151Z</time></trkpt><trkpt lat="41.2473333" lon="14.75996"><ele>385.4</ele><time>2026-04-19T07:54:20.152Z</time></trkpt><trkpt lat="41.24743" lon="14.75993"><ele>385.8</ele><time>2026-04-19T07:54:21.152Z</time></trkpt><trkpt lat="41.2475283" lon="14.7599117"><ele>386.20000000000005</ele><time>2026-04-19T07:54:22.152Z</time></trkpt><trkpt lat="41.2476267" lon="14.7599017"><ele>386.6</ele><time>2026-04-19T07:54:23.152Z</time></trkpt><trkpt lat="41.2477283" lon="14.759895"><ele>387.0</ele><time>2026-04-19T07:54:24.151Z</time></trkpt><trkpt lat="41.2478333" lon="14.7598917"><ele>387.0</ele><time>2026-04-19T07:54:25.151Z</time></trkpt><trkpt lat="41.2479417" lon="14.7598833"><ele>387.0</ele><time>2026-04-19T07:54:26.152Z</time></trkpt><trkpt lat="41.24805" lon="14.759875"><ele>387.0</ele><time>2026-04-19T07:54:27.152Z</time></trkpt><trkpt lat="41.2481567" lon="14.7598683"><ele>387.0</ele><time>2026-04-19T07:54:28.152Z</time></trkpt><trkpt lat="41.24826" lon="14.759855"><ele>387.0</ele><time>2026-04-19T07:54:29.151Z</time></trkpt><trkpt lat="41.248355" lon="14.7598267"><ele>388.40000000000003</ele><time>2026-04-19T07:54:30.152Z</time></trkpt><trkpt lat="41.24846" lon="14.75979"><ele>389.8</ele><time>2026-04-19T07:54:31.151Z</time></trkpt><trkpt lat="41.2485517" lon="14.75974"><ele>391.2</ele><time>2026-04-19T07:54:32.152Z</time></trkpt><trkpt lat="41.2486383" lon="14.7596917"><ele>392.6</ele><time>2026-04-19T07:54:33.152Z</time></trkpt><trkpt lat="41.24872" lon="14.7596167"><ele>394.0</ele><time>2026-04-19T07:54:34.151Z</time></trkpt><trkpt lat="41.24879" lon="14.7595283"><ele>394.0</ele><time>2026-04-19T07:54:35.152Z</time></trkpt><trkpt lat="41.248845" lon="14.7594167"><ele>394.0</ele><time>2026-04-19T07:54:36.152Z</time></trkpt><trkpt lat="41.24889" lon="14.759305"><ele>394.0</ele><time>2026-04-19T07:54:37.152Z</time></trkpt><trkpt lat="41.248925" lon="14.7591983"><ele>394.0</ele><time>2026-04-19T07:54:38.152Z</time></trkpt><trkpt lat="41.248935" lon="14.7590883"><ele>394.0</ele><time>2026-04-19T07:54:39.152Z</time></trkpt><trkpt lat="41.2489267" lon="14.7589733"><ele>392.00000000000006</ele><time>2026-04-19T07:54:40.152Z</time></trkpt><trkpt lat="41.2488967" lon="14.7588717"><ele>390.0</ele><time>2026-04-19T07:54:41.152Z</time></trkpt><trkpt lat="41.248845" lon="14.7587767"><ele>388.0</ele><time>2026-04-19T07:54:42.152Z</time></trkpt><trkpt lat="41.24878" lon="14.7586933"><ele>386.0</ele><time>2026-04-19T07:54:43.151Z</time></trkpt><trkpt lat="41.248725" lon="14.7585933"><ele>384.0</ele><time>2026-04-19T07:54:44.151Z</time></trkpt><trkpt lat="41.2486967" lon="14.7584733"><ele>382.0</ele><time>2026-04-19T07:54:45.152Z</time></trkpt><trkpt lat="41.2486783" lon="14.75836"><ele>381.8333333333333</ele><time>2026-04-19T07:54:46.151Z</time></trkpt><trkpt lat="41.2486817" lon="14.75826"><ele>381.66666666666663</ele><time>2026-04-19T07:54:47.151Z</time></trkpt><trkpt lat="41.2487117" lon="14.7581733"><ele>381.5</ele><time>2026-04-19T07:54:48.151Z</time></trkpt><trkpt lat="41.24876" lon="14.7581083"><ele>381.3333333333333</ele><time>2026-04-19T07:54:49.152Z</time></trkpt><trkpt lat="41.2488367" lon="14.758075"><ele>381.1666666666667</ele><time>2026-04-19T07:54:50.152Z</time></trkpt><trkpt lat="41.248935" lon="14.7580617"><ele>381.0</ele><time>2026-04-19T07:54:51.152Z</time></trkpt><trkpt lat="41.24905" lon="14.758045"><ele>385.5</ele><time>2026-04-19T07:54:52.151Z</time></trkpt><trkpt lat="41.249175" lon="14.7580267"><ele>390.0</ele><time>2026-04-19T07:54:53.152Z</time></trkpt><trkpt lat="41.2493017" lon="14.7580133"><ele>394.5</ele><time>2026-04-19T07:54:54.152Z</time></trkpt><trkpt lat="41.2494283" lon="14.758015"><ele>399.0</ele><time>2026-04-19T07:54:55.152Z</time></trkpt><trkpt lat="41.2495417" lon="14.7580317"><ele>399.0</ele><time>2026-04-19T07:54:56.152Z</time></trkpt><trkpt lat="41.2496567" lon="14.758065"><ele>399.0</ele><time>2026-04-19T07:54:57.152Z</time></trkpt><trkpt lat="41.249775" lon="14.7581067"><ele>399.0</ele><time>2026-04-19T07:54:58.152Z</time></trkpt><trkpt lat="41.24989" lon="14.758165"><ele>399.0</ele><time>2026-04-19T07:54:59.152Z</time></trkpt><trkpt lat="41.2500067" lon="14.7582483"><ele>399.25</ele><time>2026-04-19T07:55:00.152Z</time></trkpt><trkpt lat="41.2501217" lon="14.758325"><ele>399.5</ele><time>2026-04-19T07:55:01.152Z</time></trkpt><trkpt lat="41.2502333" lon="14.7583833"><ele>399.75</ele><time>2026-04-19T07:55:02.152Z</time></trkpt><trkpt lat="41.2503433" lon="14.7584383"><ele>400.0</ele><time>2026-04-19T07:55:03.152Z</time></trkpt><trkpt lat="41.25046" lon="14.758475"><ele>400.0</ele><time>2026-04-19T07:55:04.151Z</time></trkpt><trkpt lat="41.2505783" lon="14.7584883"><ele>400.0</ele><time>2026-04-19T07:55:05.151Z</time></trkpt><trkpt lat="41.2507017" lon="14.7584917"><ele>400.0</ele><time>2026-04-19T07:55:06.152Z</time></trkpt><trkpt lat="41.2508283" lon="14.7584917"><ele>400.0</ele><time>2026-04-19T07:55:07.151Z</time></trkpt><trkpt lat="41.2509483" lon="14.7584717"><ele>399.75</ele><time>2026-04-19T07:55:08.152Z</time></trkpt><trkpt lat="41.25107" lon="14.758465"><ele>399.5</ele><time>2026-04-19T07:55:09.151Z</time></trkpt><trkpt lat="41.2511933" lon="14.758455"><ele>399.25</ele><time>2026-04-19T07:55:10.152Z</time></trkpt><trkpt lat="41.2513067" lon="14.7584217"><ele>399.0</ele><time>2026-04-19T07:55:11.152Z</time></trkpt><trkpt lat="41.2514017" lon="14.7583633"><ele>401.5</ele><time>2026-04-19T07:55:12.152Z</time></trkpt><trkpt lat="41.2514917" lon="14.7582617"><ele>404.0</ele><time>2026-04-19T07:55:13.152Z</time></trkpt><trkpt lat="41.251565" lon="14.7581433"><ele>406.5</ele><time>2026-04-19T07:55:14.151Z</time></trkpt><trkpt lat="41.2516233" lon="14.758"><ele>409.0</ele><time>2026-04-19T07:55:15.152Z</time></trkpt><trkpt lat="41.2516767" lon="14.7578483"><ele>407.5</ele><time>2026-04-19T07:55:16.152Z</time></trkpt><trkpt lat="41.251725" lon="14.7576983"><ele>406.0</ele><time>2026-04-19T07:55:17.151Z</time></trkpt><trkpt lat="41.25177" lon="14.7575467"><ele>404.5</ele><time>2026-04-19T07:55:18.151Z</time></trkpt><trkpt lat="41.25181" lon="14.7574017"><ele>403.0</ele><time>2026-04-19T07:55:19.151Z</time></trkpt><trkpt lat="41.2518383" lon="14.757255"><ele>403.0</ele><time>2026-04-19T07:55:20.152Z</time></trkpt><trkpt lat="41.2518333" lon="14.7570967"><ele>403.0</ele><time>2026-04-19T07:55:21.151Z</time></trkpt><trkpt lat="41.2518183" lon="14.7569417"><ele>403.0</ele><time>2026-04-19T07:55:22.152Z</time></trkpt><trkpt lat="41.2518017" lon="14.756795"><ele>403.0</ele><time>2026-04-19T07:55:23.152Z</time></trkpt><trkpt lat="41.2517917" lon="14.7566567"><ele>403.2</ele><time>2026-04-19T07:55:24.152Z</time></trkpt><trkpt lat="41.25181" lon="14.756525"><ele>403.4</ele><time>2026-04-19T07:55:25.152Z</time></trkpt><trkpt lat="41.2518467" lon="14.7564133"><ele>403.59999999999997</ele><time>2026-04-19T07:55:26.151Z</time></trkpt><trkpt lat="41.251905" lon="14.7563333"><ele>403.79999999999995</ele><time>2026-04-19T07:55:27.152Z</time></trkpt><trkpt lat="41.2519833" lon="14.756285"><ele>404.0</ele><time>2026-04-19T07:55:28.152Z</time></trkpt><trkpt lat="41.252075" lon="14.7562617"><ele>404.0</ele><time>2026-04-19T07:55:29.151Z</time></trkpt><trkpt lat="41.2521783" lon="14.7562683"><ele>404.0</ele><time>2026-04-19T07:55:30.152Z</time></trkpt><trkpt lat="41.2523017" lon="14.7563133"><ele>404.0</ele><time>2026-04-19T07:55:31.152Z</time></trkpt><trkpt lat="41.252425" lon="14.756375"><ele>404.0</ele><time>2026-04-19T07:55:32.152Z</time></trkpt><trkpt lat="41.25254" lon="14.756455"><ele>405.75</ele><time>2026-04-19T07:55:33.152Z</time></trkpt><trkpt lat="41.252645" lon="14.7565333"><ele>407.5</ele><time>2026-04-19T07:55:34.152Z</time></trkpt><trkpt lat="41.2527467" lon="14.7565967"><ele>409.25</ele><time>2026-04-19T07:55:35.152Z</time></trkpt><trkpt lat="41.25286" lon="14.7566383"><ele>411.0</ele><time>2026-04-19T07:55:36.152Z</time></trkpt><trkpt lat="41.2529817" lon="14.7566483"><ele>411.0</ele><time>2026-04-19T07:55:37.152Z</time></trkpt><trkpt lat="41.2531083" lon="14.756625"><ele>411.0</ele><time>2026-04-19T07:55:38.152Z</time></trkpt><trkpt lat="41.2532333" lon="14.756585"><ele>411.0</ele><time>2026-04-19T07:55:39.152Z</time></trkpt><trkpt lat="41.2533567" lon="14.7565217"><ele>411.0</ele><time>2026-04-19T07:55:40.152Z</time></trkpt><trkpt lat="41.25347" lon="14.75645"><ele>412.25</ele><time>2026-04-19T07:55:41.152Z</time></trkpt><trkpt lat="41.2535717" lon="14.7563567"><ele>413.5</ele><time>2026-04-19T07:55:42.152Z</time></trkpt><trkpt lat="41.25367" lon="14.756255"><ele>414.75</ele><time>2026-04-19T07:55:43.151Z</time></trkpt><trkpt lat="41.2537583" lon="14.7561383"><ele>416.0</ele><time>2026-04-19T07:55:44.152Z</time></trkpt><trkpt lat="41.2538233" lon="14.756"><ele>416.5</ele><time>2026-04-19T07:55:45.152Z</time></trkpt><trkpt lat="41.2538783" lon="14.7558483"><ele>417.0</ele><time>2026-04-19T07:55:46.151Z</time></trkpt><trkpt lat="41.2539267" lon="14.7557067"><ele>417.5</ele><time>2026-04-19T07:55:47.152Z</time></trkpt><trkpt lat="41.25398" lon="14.75558"><ele>418.0</ele><time>2026-04-19T07:55:48.152Z</time></trkpt><trkpt lat="41.254045" lon="14.7554717"><ele>418.0</ele><time>2026-04-19T07:55:49.152Z</time></trkpt><trkpt lat="41.25412" lon="14.7553917"><ele>418.0</ele><time>2026-04-19T07:55:50.152Z</time></trkpt><trkpt lat="41.2542117" lon="14.755335"><ele>418.0</ele><time>2026-04-19T07:55:51.152Z</time></trkpt><trkpt lat="41.2543067" lon="14.7553117"><ele>418.0</ele><time>2026-04-19T07:55:52.152Z</time></trkpt><trkpt lat="41.2544067" lon="14.7553067"><ele>418.0</ele><time>2026-04-19T07:55:53.152Z</time></trkpt><trkpt lat="41.254505" lon="14.755305"><ele>418.0</ele><time>2026-04-19T07:55:54.152Z</time></trkpt><trkpt lat="41.2545917" lon="14.7552783"><ele>418.0</ele><time>2026-04-19T07:55:55.152Z</time></trkpt><trkpt lat="41.2546667" lon="14.7552"><ele>418.0</ele><time>2026-04-19T07:55:56.152Z</time></trkpt><trkpt lat="41.254725" lon="14.755095"><ele>418.0</ele><time>2026-04-19T07:55:57.151Z</time></trkpt><trkpt lat="41.254775" lon="14.7549767"><ele>418.0</ele><time>2026-04-19T07:55:58.151Z</time></trkpt><trkpt lat="41.2548333" lon="14.75485"><ele>417.79999999999995</ele><time>2026-04-19T07:55:59.152Z</time></trkpt><trkpt lat="41.2548983" lon="14.7547317"><ele>417.6</ele><time>2026-04-19T07:56:00.151Z</time></trkpt><trkpt lat="41.2549633" lon="14.754625"><ele>417.4</ele><time>2026-04-19T07:56:01.151Z</time></trkpt><trkpt lat="41.2550117" lon="14.7545067"><ele>417.20000000000005</ele><time>2026-04-19T07:56:02.152Z</time></trkpt><trkpt lat="41.255035" lon="14.7543717"><ele>417.0</ele><time>2026-04-19T07:56:03.151Z</time></trkpt><trkpt lat="41.2550367" lon="14.7542217"><ele>417.0</ele><time>2026-04-19T07:56:04.152Z</time></trkpt><trkpt lat="41.255035" lon="14.754085"><ele>417.0</ele><time>2026-04-19T07:56:05.152Z</time></trkpt><trkpt lat="41.255025" lon="14.7539467"><ele>417.0</ele><time>2026-04-19T07:56:06.152Z</time></trkpt><trkpt lat="41.2549917" lon="14.7538067"><ele>417.0</ele><time>2026-04-19T07:56:07.152Z</time></trkpt><trkpt lat="41.2549467" lon="14.75368"><ele>417.0</ele><time>2026-04-19T07:56:08.152Z</time></trkpt><trkpt lat="41.2548817" lon="14.7535667"><ele>418.6</ele><time>2026-04-19T07:56:09.151Z</time></trkpt><trkpt lat="41.2548017" lon="14.7534833"><ele>420.20000000000005</ele><time>2026-04-19T07:56:10.152Z</time></trkpt><trkpt lat="41.25471" lon="14.7534183"><ele>421.8</ele><time>2026-04-19T07:56:11.152Z</time></trkpt><trkpt lat="41.2546083" lon="14.75336"><ele>423.4</ele><time>2026-04-19T07:56:12.152Z</time></trkpt><trkpt lat="41.2545033" lon="14.7533183"><ele>425.0</ele><time>2026-04-19T07:56:13.151Z</time></trkpt><trkpt lat="41.254405" lon="14.7532617"><ele>423.4</ele><time>2026-04-19T07:56:14.152Z</time></trkpt><trkpt lat="41.2543267" lon="14.7531767"><ele>421.8</ele><time>2026-04-19T07:56:15.152Z</time></trkpt><trkpt lat="41.2542717" lon="14.7530783"><ele>420.20000000000005</ele><time>2026-04-19T07:56:16.152Z</time></trkpt><trkpt lat="41.2542333" lon="14.752965"><ele>418.6</ele><time>2026-04-19T07:56:17.151Z</time></trkpt><trkpt lat="41.2542117" lon="14.7528367"><ele>417.0</ele><time>2026-04-19T07:56:18.152Z</time></trkpt><trkpt lat="41.2542133" lon="14.7526983"><ele>417.0</ele><time>2026-04-19T07:56:19.152Z</time></trkpt><trkpt lat="41.2542283" lon="14.752555"><ele>417.0</ele><time>2026-04-19T07:56:20.152Z</time></trkpt><trkpt lat="41.25426" lon="14.7524017"><ele>417.0</ele><time>2026-04-19T07:56:21.152Z</time></trkpt><trkpt lat="41.2543" lon="14.7522367"><ele>417.0</ele><time>2026-04-19T07:56:22.152Z</time></trkpt><trkpt lat="41.2543433" lon="14.7520617"><ele>417.0</ele><time>2026-04-19T07:56:23.151Z</time></trkpt><trkpt lat="41.2543783" lon="14.7518883"><ele>417.0</ele><time>2026-04-19T07:56:24.152Z</time></trkpt><trkpt lat="41.254415" lon="14.7517183"><ele>417.0</ele><time>2026-04-19T07:56:25.152Z</time></trkpt><trkpt lat="41.2544567" lon="14.75155"><ele>417.0</ele><time>2026-04-19T07:56:26.151Z</time></trkpt><trkpt lat="41.2545017" lon="14.75138"><ele>416.75</ele><time>2026-04-19T07:56:27.152Z</time></trkpt><trkpt lat="41.2545467" lon="14.7512183"><ele>416.5</ele><time>2026-04-19T07:56:28.152Z</time></trkpt><trkpt lat="41.2545967" lon="14.7510667"><ele>416.25</ele><time>2026-04-19T07:56:29.151Z</time></trkpt><trkpt lat="41.2546433" lon="14.7509083"><ele>416.0</ele><time>2026-04-19T07:56:30.152Z</time></trkpt><trkpt lat="41.254685" lon="14.750735"><ele>416.0</ele><time>2026-04-19T07:56:31.152Z</time></trkpt><trkpt lat="41.2546983" lon="14.7505617"><ele>416.0</ele><time>2026-04-19T07:56:32.151Z</time></trkpt><trkpt lat="41.2547017" lon="14.7504"><ele>416.0</ele><time>2026-04-19T07:56:33.152Z</time></trkpt><trkpt lat="41.2546917" lon="14.7502433"><ele>416.0</ele><time>2026-04-19T07:56:34.152Z</time></trkpt><trkpt lat="41.25466" lon="14.75009"><ele>417.75</ele><time>2026-04-19T07:56:35.152Z</time></trkpt><trkpt lat="41.2546167" lon="14.749945"><ele>419.5</ele><time>2026-04-19T07:56:36.152Z</time></trkpt><trkpt lat="41.2545567" lon="14.7498017"><ele>421.25</ele><time>2026-04-19T07:56:37.152Z</time></trkpt><trkpt lat="41.254485" lon="14.7496583"><ele>423.0</ele><time>2026-04-19T07:56:38.151Z</time></trkpt><trkpt lat="41.25441" lon="14.749515"><ele>424.25</ele><time>2026-04-19T07:56:39.151Z</time></trkpt><trkpt lat="41.2543333" lon="14.7493683"><ele>425.5</ele><time>2026-04-19T07:56:40.152Z</time></trkpt><trkpt lat="41.2542533" lon="14.7492183"><ele>426.75</ele><time>2026-04-19T07:56:41.152Z</time></trkpt><trkpt lat="41.2541767" lon="14.7490617"><ele>428.0</ele><time>2026-04-19T07:56:42.151Z</time></trkpt><trkpt lat="41.254095" lon="14.7489033"><ele>428.0</ele><time>2026-04-19T07:56:43.152Z</time></trkpt><trkpt lat="41.2540167" lon="14.7487617"><ele>428.0</ele><time>2026-04-19T07:56:44.151Z</time></trkpt><trkpt lat="41.2539417" lon="14.7486167"><ele>428.0</ele><time>2026-04-19T07:56:45.152Z</time></trkpt><trkpt lat="41.25387" lon="14.7484683"><ele>428.0</ele><time>2026-04-19T07:56:46.152Z</time></trkpt><trkpt lat="41.2537883" lon="14.7483133"><ele>428.25</ele><time>2026-04-19T07:56:47.151Z</time></trkpt><trkpt lat="41.2537017" lon="14.7481617"><ele>428.5</ele><time>2026-04-19T07:56:48.152Z</time></trkpt><trkpt lat="41.2536233" lon="14.748025"><ele>428.75</ele><time>2026-04-19T07:56:49.152Z</time></trkpt><trkpt lat="41.2535567" lon="14.747895"><ele>429.0</ele><time>2026-04-19T07:56:50.151Z</time></trkpt><trkpt lat="41.2535033" lon="14.7477667"><ele>430.75</ele><time>2026-04-19T07:56:51.152Z</time></trkpt><trkpt lat="41.2534617" lon="14.7476267"><ele>432.5</ele><time>2026-04-19T07:56:52.152Z</time></trkpt><trkpt lat="41.2534267" lon="14.7474783"><ele>434.25</ele><time>2026-04-19T07:56:53.151Z</time></trkpt><trkpt lat="41.253415" lon="14.747315"><ele>436.0</ele><time>2026-04-19T07:56:54.152Z</time></trkpt><trkpt lat="41.2534067" lon="14.7471517"><ele>436.0</ele><time>2026-04-19T07:56:55.152Z</time></trkpt><trkpt lat="41.2534133" lon="14.7469817"><ele>436.0</ele><time>2026-04-19T07:56:56.152Z</time></trkpt><trkpt lat="41.253415" lon="14.746815"><ele>436.0</ele><time>2026-04-19T07:56:57.152Z</time></trkpt><trkpt lat="41.253415" lon="14.7466383"><ele>436.0</ele><time>2026-04-19T07:56:58.152Z</time></trkpt><trkpt lat="41.2534167" lon="14.7464633"><ele>436.25</ele><time>2026-04-19T07:56:59.151Z</time></trkpt><trkpt lat="41.2534133" lon="14.7462817"><ele>436.5</ele><time>2026-04-19T07:57:00.152Z</time></trkpt><trkpt lat="41.2534083" lon="14.7460967"><ele>436.75</ele><time>2026-04-19T07:57:01.152Z</time></trkpt><trkpt lat="41.2534033" lon="14.7459067"><ele>437.0</ele><time>2026-04-19T07:57:02.151Z</time></trkpt><trkpt lat="41.2534017" lon="14.7457217"><ele>437.75</ele><time>2026-04-19T07:57:03.151Z</time></trkpt><trkpt lat="41.253395" lon="14.745545"><ele>438.5</ele><time>2026-04-19T07:57:04.152Z</time></trkpt><trkpt lat="41.2533933" lon="14.745385"><ele>439.25</ele><time>2026-04-19T07:57:05.151Z</time></trkpt><trkpt lat="41.2533917" lon="14.7452267"><ele>440.0</ele><time>2026-04-19T07:57:06.151Z</time></trkpt><trkpt lat="41.2533883" lon="14.7450717"><ele>440.5</ele><time>2026-04-19T07:57:07.151Z</time></trkpt><trkpt lat="41.2533867" lon="14.7449117"><ele>441.0</ele><time>2026-04-19T07:57:08.152Z</time></trkpt><trkpt lat="41.25339" lon="14.7447617"><ele>441.5</ele><time>2026-04-19T07:57:09.152Z</time></trkpt><trkpt lat="41.2534017" lon="14.7446183"><ele>442.0</ele><time>2026-04-19T07:57:10.152Z</time></trkpt><trkpt lat="41.25342" lon="14.744475"><ele>442.40000000000003</ele><time>2026-04-19T07:57:11.152Z</time></trkpt><trkpt lat="41.2534383" lon="14.744335"><ele>442.80000000000007</ele><time>2026-04-19T07:57:12.152Z</time></trkpt><trkpt lat="41.25347" lon="14.7442"><ele>443.2</ele><time>2026-04-19T07:57:13.151Z</time></trkpt><trkpt lat="41.2535017" lon="14.7440517"><ele>443.6</ele><time>2026-04-19T07:57:14.151Z</time></trkpt><trkpt lat="41.2535467" lon="14.7439067"><ele>444.0</ele><time>2026-04-19T07:57:15.152Z</time></trkpt><trkpt lat="41.2536183" lon="14.7437767"><ele>444.0</ele><time>2026-04-19T07:57:16.151Z</time></trkpt><trkpt lat="41.2537" lon="14.7436467"><ele>444.0</ele><time>2026-04-19T07:57:17.152Z</time></trkpt><trkpt lat="41.2537817" lon="14.7435083"><ele>444.0</ele><time>2026-04-19T07:57:18.152Z</time></trkpt><trkpt lat="41.2538633" lon="14.7433633"><ele>444.0</ele><time>2026-04-19T07:57:19.152Z</time></trkpt><trkpt lat="41.253945" lon="14.7432167"><ele>444.75</ele><time>2026-04-19T07:57:20.152Z</time></trkpt><trkpt lat="41.254025" lon="14.7430667"><ele>445.5</ele><time>2026-04-19T07:57:21.152Z</time></trkpt><trkpt lat="41.2541067" lon="14.7429217"><ele>446.25</ele><time>2026-04-19T07:57:22.152Z</time></trkpt><trkpt lat="41.2541833" lon="14.7427717"><ele>447.0</ele><time>2026-04-19T07:57:23.151Z</time></trkpt><trkpt lat="41.2542617" lon="14.7426233"><ele>447.0</ele><time>2026-04-19T07:57:24.152Z</time></trkpt><trkpt lat="41.2543367" lon="14.7424783"><ele>447.0</ele><time>2026-04-19T07:57:25.152Z</time></trkpt><trkpt lat="41.2544133" lon="14.7423367"><ele>447.0</ele><time>2026-04-19T07:57:26.151Z</time></trkpt><trkpt lat="41.2544967" lon="14.7421917"><ele>447.0</ele><time>2026-04-19T07:57:27.152Z</time></trkpt><trkpt lat="41.2545817" lon="14.7420467"><ele>447.0</ele><time>2026-04-19T07:57:28.151Z</time></trkpt><trkpt lat="41.2546683" lon="14.7419067"><ele>447.0</ele><time>2026-04-19T07:57:29.151Z</time></trkpt><trkpt lat="41.2547517" lon="14.7417667"><ele>447.0</ele><time>2026-04-19T07:57:30.152Z</time></trkpt><trkpt lat="41.25483" lon="14.7416433"><ele>447.0</ele><time>2026-04-19T07:57:31.152Z</time></trkpt><trkpt lat="41.2549083" lon="14.7415317"><ele>448.40000000000003</ele><time>2026-04-19T07:57:32.151Z</time></trkpt><trkpt lat="41.2549883" lon="14.7414333"><ele>449.80000000000007</ele><time>2026-04-19T07:57:33.152Z</time></trkpt><trkpt lat="41.2550767" lon="14.74134"><ele>451.2</ele><time>2026-04-19T07:57:34.151Z</time></trkpt><trkpt lat="41.2551717" lon="14.7412683"><ele>452.6</ele><time>2026-04-19T07:57:35.152Z</time></trkpt><trkpt lat="41.2552783" lon="14.7412"><ele>454.0</ele><time>2026-04-19T07:57:36.152Z</time></trkpt><trkpt lat="41.2553917" lon="14.74113"><ele>454.0</ele><time>2026-04-19T07:57:37.152Z</time></trkpt><trkpt lat="41.2555117" lon="14.74105"><ele>454.0</ele><time>2026-04-19T07:57:38.152Z</time></trkpt><trkpt lat="41.25564" lon="14.7409667"><ele>454.0</ele><time>2026-04-19T07:57:39.152Z</time></trkpt><trkpt lat="41.2557683" lon="14.7408833"><ele>454.0</ele><time>2026-04-19T07:57:40.152Z</time></trkpt><trkpt lat="41.2558917" lon="14.7408017"><ele>454.5</ele><time>2026-04-19T07:57:41.152Z</time></trkpt><trkpt lat="41.2560083" lon="14.7407267"><ele>455.0</ele><time>2026-04-19T07:57:42.151Z</time></trkpt><trkpt lat="41.2561183" lon="14.740645"><ele>455.5</ele><time>2026-04-19T07:57:43.152Z</time></trkpt><trkpt lat="41.25623" lon="14.740575"><ele>456.0</ele><time>2026-04-19T07:57:44.152Z</time></trkpt><trkpt lat="41.2563367" lon="14.7405033"><ele>456.0</ele><time>2026-04-19T07:57:45.152Z</time></trkpt><trkpt lat="41.256445" lon="14.7404267"><ele>456.0</ele><time>2026-04-19T07:57:46.152Z</time></trkpt><trkpt lat="41.256545" lon="14.7403317"><ele>456.0</ele><time>2026-04-19T07:57:47.152Z</time></trkpt><trkpt lat="41.2566333" lon="14.7402183"><ele>456.0</ele><time>2026-04-19T07:57:48.152Z</time></trkpt><trkpt lat="41.2567133" lon="14.7400867"><ele>457.0</ele><time>2026-04-19T07:57:49.152Z</time></trkpt><trkpt lat="41.2567867" lon="14.7399383"><ele>458.0</ele><time>2026-04-19T07:57:50.152Z</time></trkpt><trkpt lat="41.2568583" lon="14.7397817"><ele>459.0</ele><time>2026-04-19T07:57:51.152Z</time></trkpt><trkpt lat="41.2569317" lon="14.7396133"><ele>460.0</ele><time>2026-04-19T07:57:52.152Z</time></trkpt><trkpt lat="41.2569967" lon="14.7394483"><ele>463.0</ele><time>2026-04-19T07:57:53.152Z</time></trkpt><trkpt lat="41.2570667" lon="14.7392767"><ele>466.0</ele><time>2026-04-19T07:57:54.151Z</time></trkpt><trkpt lat="41.2571433" lon="14.7391033"><ele>469.0</ele><time>2026-04-19T07:57:55.152Z</time></trkpt><trkpt lat="41.2572183" lon="14.738925"><ele>468.33333333333337</ele><time>2026-04-19T07:57:56.151Z</time></trkpt><trkpt lat="41.2572933" lon="14.73874"><ele>467.66666666666663</ele><time>2026-04-19T07:57:57.152Z</time></trkpt><trkpt lat="41.257365" lon="14.73856"><ele>467.0</ele><time>2026-04-19T07:57:58.151Z</time></trkpt><trkpt lat="41.2574383" lon="14.7383883"><ele>467.0</ele><time>2026-04-19T07:57:59.152Z</time></trkpt><trkpt lat="41.2575167" lon="14.7382133"><ele>467.0</ele><time>2026-04-19T07:58:00.152Z</time></trkpt><trkpt lat="41.2575817" lon="14.7380467"><ele>467.0</ele><time>2026-04-19T07:58:01.151Z</time></trkpt><trkpt lat="41.2576483" lon="14.73788"><ele>467.0</ele><time>2026-04-19T07:58:02.151Z</time></trkpt><trkpt lat="41.25771" lon="14.7377283"><ele>468.75</ele><time>2026-04-19T07:58:03.152Z</time></trkpt><trkpt lat="41.257775" lon="14.73758"><ele>470.5</ele><time>2026-04-19T07:58:04.152Z</time></trkpt><trkpt lat="41.2578333" lon="14.7374517"><ele>472.25</ele><time>2026-04-19T07:58:05.152Z</time></trkpt><trkpt lat="41.25791" lon="14.7373467"><ele>474.0</ele><time>2026-04-19T07:58:06.151Z</time></trkpt><trkpt lat="41.25799" lon="14.737265"><ele>474.0</ele><time>2026-04-19T07:58:07.151Z</time></trkpt><trkpt lat="41.2580867" lon="14.7372083"><ele>474.0</ele><time>2026-04-19T07:58:08.152Z</time></trkpt><trkpt lat="41.258195" lon="14.7371883"><ele>474.0</ele><time>2026-04-19T07:58:09.152Z</time></trkpt><trkpt lat="41.2583167" lon="14.737185"><ele>474.0</ele><time>2026-04-19T07:58:10.152Z</time></trkpt><trkpt lat="41.258445" lon="14.7371917"><ele>473.5</ele><time>2026-04-19T07:58:11.152Z</time></trkpt><trkpt lat="41.25857" lon="14.7371967"><ele>473.0</ele><time>2026-04-19T07:58:12.152Z</time></trkpt><trkpt lat="41.2586917" lon="14.7372083"><ele>472.5</ele><time>2026-04-19T07:58:13.151Z</time></trkpt><trkpt lat="41.25881" lon="14.737215"><ele>472.0</ele><time>2026-04-19T07:58:14.152Z</time></trkpt><trkpt lat="41.2589317" lon="14.7372183"><ele>472.5</ele><time>2026-04-19T07:58:15.152Z</time></trkpt><trkpt lat="41.259055" lon="14.7372133"><ele>473.0</ele><time>2026-04-19T07:58:16.152Z</time></trkpt><trkpt lat="41.25918" lon="14.73718"><ele>473.5</ele><time>2026-04-19T07:58:17.151Z</time></trkpt><trkpt lat="41.2592967" lon="14.7371233"><ele>474.0</ele><time>2026-04-19T07:58:18.152Z</time></trkpt><trkpt lat="41.2594083" lon="14.7370533"><ele>474.0</ele><time>2026-04-19T07:58:19.152Z</time></trkpt><trkpt lat="41.25952" lon="14.73698"><ele>474.0</ele><time>2026-04-19T07:58:20.152Z</time></trkpt><trkpt lat="41.2596333" lon="14.7369067"><ele>474.0</ele><time>2026-04-19T07:58:21.152Z</time></trkpt><trkpt lat="41.259755" lon="14.7368533"><ele>474.0</ele><time>2026-04-19T07:58:22.152Z</time></trkpt><trkpt lat="41.2598783" lon="14.7368233"><ele>476.75</ele><time>2026-04-19T07:58:23.152Z</time></trkpt><trkpt lat="41.2599917" lon="14.7368133"><ele>479.5</ele><time>2026-04-19T07:58:24.152Z</time></trkpt><trkpt lat="41.2601083" lon="14.736815"><ele>482.25</ele><time>2026-04-19T07:58:25.152Z</time></trkpt><trkpt lat="41.2602217" lon="14.736815"><ele>485.0</ele><time>2026-04-19T07:58:26.151Z</time></trkpt><trkpt lat="41.2603383" lon="14.7368067"><ele>485.0</ele><time>2026-04-19T07:58:27.152Z</time></trkpt><trkpt lat="41.2604533" lon="14.7367767"><ele>485.0</ele><time>2026-04-19T07:58:28.151Z</time></trkpt><trkpt lat="41.2605617" lon="14.7367267"><ele>485.0</ele><time>2026-04-19T07:58:29.152Z</time></trkpt><trkpt lat="41.26066" lon="14.7366533"><ele>485.0</ele><time>2026-04-19T07:58:30.152Z</time></trkpt><trkpt lat="41.2607467" lon="14.73655"><ele>485.25</ele><time>2026-04-19T07:58:31.152Z</time></trkpt><trkpt lat="41.260825" lon="14.73644"><ele>485.5</ele><time>2026-04-19T07:58:32.152Z</time></trkpt><trkpt lat="41.2609083" lon="14.73631"><ele>485.75</ele><time>2026-04-19T07:58:33.152Z</time></trkpt><trkpt lat="41.260995" lon="14.736175"><ele>486.0</ele><time>2026-04-19T07:58:34.152Z</time></trkpt><trkpt lat="41.2610817" lon="14.7360417"><ele>488.0</ele><time>2026-04-19T07:58:35.152Z</time></trkpt><trkpt lat="41.26117" lon="14.735905"><ele>490.0</ele><time>2026-04-19T07:58:36.151Z</time></trkpt><trkpt lat="41.2612617" lon="14.7357683"><ele>492.0</ele><time>2026-04-19T07:58:37.152Z</time></trkpt><trkpt lat="41.2613517" lon="14.7356333"><ele>494.0</ele><time>2026-04-19T07:58:38.152Z</time></trkpt><trkpt lat="41.2614367" lon="14.73551"><ele>494.75</ele><time>2026-04-19T07:58:39.152Z</time></trkpt><trkpt lat="41.2615317" lon="14.7354017"><ele>495.5</ele><time>2026-04-19T07:58:40.152Z</time></trkpt><trkpt lat="41.2616333" lon="14.735305"><ele>496.25</ele><time>2026-04-19T07:58:41.152Z</time></trkpt><trkpt lat="41.2617333" lon="14.7352167"><ele>497.0</ele><time>2026-04-19T07:58:42.152Z</time></trkpt><trkpt lat="41.2618433" lon="14.7351267"><ele>497.0</ele><time>2026-04-19T07:58:43.152Z</time></trkpt><trkpt lat="41.2619517" lon="14.7350517"><ele>497.0</ele><time>2026-04-19T07:58:44.152Z</time></trkpt><trkpt lat="41.2620683" lon="14.7349867"><ele>497.0</ele><time>2026-04-19T07:58:45.151Z</time></trkpt><trkpt lat="41.2621883" lon="14.7349383"><ele>497.0</ele><time>2026-04-19T07:58:46.152Z</time></trkpt><trkpt lat="41.2623033" lon="14.7349017"><ele>497.0</ele><time>2026-04-19T07:58:47.151Z</time></trkpt><trkpt lat="41.262415" lon="14.734875"><ele>497.00000000000006</ele><time>2026-04-19T07:58:48.152Z</time></trkpt><trkpt lat="41.262525" lon="14.7348533"><ele>497.00000000000006</ele><time>2026-04-19T07:58:49.152Z</time></trkpt><trkpt lat="41.262635" lon="14.73484"><ele>497.0</ele><time>2026-04-19T07:58:50.152Z</time></trkpt><trkpt lat="41.262735" lon="14.7348433"><ele>497.0</ele><time>2026-04-19T07:58:51.151Z</time></trkpt><trkpt lat="41.2628433" lon="14.7348567"><ele>497.0</ele><time>2026-04-19T07:58:52.152Z</time></trkpt><trkpt lat="41.26295" lon="14.734885"><ele>497.0</ele><time>2026-04-19T07:58:53.152Z</time></trkpt><trkpt lat="41.26306" lon="14.7349267"><ele>497.0</ele><time>2026-04-19T07:58:54.151Z</time></trkpt><trkpt lat="41.2631683" lon="14.734975"><ele>497.0</ele><time>2026-04-19T07:58:55.152Z</time></trkpt><trkpt lat="41.2632767" lon="14.7350233"><ele>498.5</ele><time>2026-04-19T07:58:56.152Z</time></trkpt><trkpt lat="41.26339" lon="14.735065"><ele>500.0</ele><time>2026-04-19T07:58:57.152Z</time></trkpt><trkpt lat="41.2635083" lon="14.7351033"><ele>501.5</ele><time>2026-04-19T07:58:58.152Z</time></trkpt><trkpt lat="41.2636383" lon="14.735125"><ele>503.0</ele><time>2026-04-19T07:58:59.151Z</time></trkpt><trkpt lat="41.2637717" lon="14.7351433"><ele>503.0</ele><time>2026-04-19T07:59:00.152Z</time></trkpt><trkpt lat="41.26391" lon="14.7351533"><ele>503.0</ele><time>2026-04-19T07:59:01.151Z</time></trkpt><trkpt lat="41.26405" lon="14.7351583"><ele>503.0</ele><time>2026-04-19T07:59:02.152Z</time></trkpt><trkpt lat="41.2641867" lon="14.7351567"><ele>503.0</ele><time>2026-04-19T07:59:03.152Z</time></trkpt><trkpt lat="41.2643283" lon="14.735155"><ele>503.0</ele><time>2026-04-19T07:59:04.151Z</time></trkpt><trkpt lat="41.26447" lon="14.7351717"><ele>503.0</ele><time>2026-04-19T07:59:05.151Z</time></trkpt><trkpt lat="41.2646017" lon="14.7351917"><ele>503.0</ele><time>2026-04-19T07:59:06.152Z</time></trkpt><trkpt lat="41.2647367" lon="14.7352233"><ele>503.0</ele><time>2026-04-19T07:59:07.152Z</time></trkpt><trkpt lat="41.264875" lon="14.7352783"><ele>503.0</ele><time>2026-04-19T07:59:08.151Z</time></trkpt><trkpt lat="41.2650033" lon="14.7353467"><ele>503.0</ele><time>2026-04-19T07:59:09.152Z</time></trkpt><trkpt lat="41.2651317" lon="14.7354117"><ele>503.0</ele><time>2026-04-19T07:59:10.151Z</time></trkpt><trkpt lat="41.2652583" lon="14.7354767"><ele>503.0</ele><time>2026-04-19T07:59:11.152Z</time></trkpt><trkpt lat="41.2653783" lon="14.7355383"><ele>503.0</ele><time>2026-04-19T07:59:12.151Z</time></trkpt><trkpt lat="41.2654933" lon="14.7356017"><ele>502.99999999999994</ele><time>2026-04-19T07:59:13.152Z</time></trkpt><trkpt lat="41.2656017" lon="14.735665"><ele>502.99999999999994</ele><time>2026-04-19T07:59:14.152Z</time></trkpt><trkpt lat="41.2657017" lon="14.7357133"><ele>503.0</ele><time>2026-04-19T07:59:15.152Z</time></trkpt><trkpt lat="41.2658" lon="14.7357383"><ele>503.0</ele><time>2026-04-19T07:59:16.152Z</time></trkpt><trkpt lat="41.2659017" lon="14.735735"><ele>503.79999999999995</ele><time>2026-04-19T07:59:17.152Z</time></trkpt><trkpt lat="41.2659983" lon="14.7357017"><ele>504.59999999999997</ele><time>2026-04-19T07:59:18.152Z</time></trkpt><trkpt lat="41.2660833" lon="14.73564"><ele>505.40000000000003</ele><time>2026-04-19T07:59:19.152Z</time></trkpt><trkpt lat="41.26616" lon="14.7355467"><ele>506.20000000000005</ele><time>2026-04-19T07:59:20.152Z</time></trkpt><trkpt lat="41.2662183" lon="14.7354317"><ele>507.0</ele><time>2026-04-19T07:59:21.152Z</time></trkpt><trkpt lat="41.266265" lon="14.73529"><ele>507.75</ele><time>2026-04-19T07:59:22.152Z</time></trkpt><trkpt lat="41.266305" lon="14.7351283"><ele>508.5</ele><time>2026-04-19T07:59:23.152Z</time></trkpt><trkpt lat="41.2663317" lon="14.73495"><ele>509.25</ele><time>2026-04-19T07:59:24.151Z</time></trkpt><trkpt lat="41.2663517" lon="14.7347667"><ele>510.0</ele><time>2026-04-19T07:59:25.151Z</time></trkpt><trkpt lat="41.2663633" lon="14.7345767"><ele>510.0</ele><time>2026-04-19T07:59:26.152Z</time></trkpt><trkpt lat="41.26637" lon="14.7343917"><ele>510.0</ele><time>2026-04-19T07:59:27.152Z</time></trkpt><trkpt lat="41.2663717" lon="14.73421"><ele>510.0</ele><time>2026-04-19T07:59:28.151Z</time></trkpt><trkpt lat="41.2663733" lon="14.7340417"><ele>510.0</ele><time>2026-04-19T07:59:29.151Z</time></trkpt><trkpt lat="41.2663883" lon="14.73387"><ele>510.5</ele><time>2026-04-19T07:59:30.152Z</time></trkpt><trkpt lat="41.2664167" lon="14.733705"><ele>511.0</ele><time>2026-04-19T07:59:31.151Z</time></trkpt><trkpt lat="41.2664567" lon="14.7335567"><ele>511.5</ele><time>2026-04-19T07:59:32.152Z</time></trkpt><trkpt lat="41.2665083" lon="14.73341"><ele>512.0</ele><time>2026-04-19T07:59:33.152Z</time></trkpt><trkpt lat="41.266575" lon="14.7332733"><ele>510.75</ele><time>2026-04-19T07:59:34.152Z</time></trkpt><trkpt lat="41.2666583" lon="14.7331467"><ele>509.5</ele><time>2026-04-19T07:59:35.152Z</time></trkpt><trkpt lat="41.26674" lon="14.7330167"><ele>508.25</ele><time>2026-04-19T07:59:36.152Z</time></trkpt><trkpt lat="41.2668167" lon="14.73289"><ele>507.0</ele><time>2026-04-19T07:59:37.152Z</time></trkpt><trkpt lat="41.2668833" lon="14.73275"><ele>507.20000000000005</ele><time>2026-04-19T07:59:38.152Z</time></trkpt><trkpt lat="41.2669367" lon="14.7326167"><ele>507.40000000000003</ele><time>2026-04-19T07:59:39.152Z</time></trkpt><trkpt lat="41.2669767" lon="14.732475"><ele>507.59999999999997</ele><time>2026-04-19T07:59:40.152Z</time></trkpt><trkpt lat="41.266995" lon="14.73233"><ele>507.79999999999995</ele><time>2026-04-19T07:59:41.152Z</time></trkpt><trkpt lat="41.266995" lon="14.7321867"><ele>508.0</ele><time>2026-04-19T07:59:42.152Z</time></trkpt><trkpt lat="41.26697" lon="14.73204"><ele>508.0</ele><time>2026-04-19T07:59:43.152Z</time></trkpt><trkpt lat="41.2669233" lon="14.7319033"><ele>508.0</ele><time>2026-04-19T07:59:44.152Z</time></trkpt><trkpt lat="41.2668533" lon="14.73178"><ele>508.0</ele><time>2026-04-19T07:59:45.151Z</time></trkpt><trkpt lat="41.26677" lon="14.7316667"><ele>508.0</ele><time>2026-04-19T07:59:46.152Z</time></trkpt><trkpt lat="41.2666767" lon="14.7315533"><ele>507.5</ele><time>2026-04-19T07:59:47.152Z</time></trkpt><trkpt lat="41.2665767" lon="14.7314383"><ele>507.0</ele><time>2026-04-19T07:59:48.152Z</time></trkpt><trkpt lat="41.266475" lon="14.73132"><ele>506.5</ele><time>2026-04-19T07:59:49.152Z</time></trkpt><trkpt lat="41.2663783" lon="14.7311783"><ele>506.0</ele><time>2026-04-19T07:59:50.151Z</time></trkpt><trkpt lat="41.2662783" lon="14.73105"><ele>506.0</ele><time>2026-04-19T07:59:51.152Z</time></trkpt><trkpt lat="41.26617" lon="14.7309233"><ele>506.0</ele><time>2026-04-19T07:59:52.152Z</time></trkpt><trkpt lat="41.2660667" lon="14.7307917"><ele>506.0</ele><time>2026-04-19T07:59:53.152Z</time></trkpt><trkpt lat="41.2659683" lon="14.7306683"><ele>506.0</ele><time>2026-04-19T07:59:54.152Z</time></trkpt><trkpt lat="41.2658817" lon="14.7305517"><ele>506.0</ele><time>2026-04-19T07:59:55.152Z</time></trkpt><trkpt lat="41.2657983" lon="14.7304417"><ele>506.0</ele><time>2026-04-19T07:59:56.152Z</time></trkpt><trkpt lat="41.2657217" lon="14.7303433"><ele>506.0</ele><time>2026-04-19T07:59:57.151Z</time></trkpt><trkpt lat="41.2656583" lon="14.7302467"><ele>506.0</ele><time>2026-04-19T07:59:58.152Z</time></trkpt><trkpt lat="41.2656167" lon="14.7301533"><ele>506.0</ele><time>2026-04-19T07:59:59.152Z</time></trkpt><trkpt lat="41.26559" lon="14.7300583"><ele>506.16666666666663</ele><time>2026-04-19T08:00:00.152Z</time></trkpt><trkpt lat="41.2655883" lon="14.7299633"><ele>506.3333333333333</ele><time>2026-04-19T08:00:01.152Z</time></trkpt><trkpt lat="41.26561" lon="14.7298817"><ele>506.5</ele><time>2026-04-19T08:00:02.152Z</time></trkpt><trkpt lat="41.26565" lon="14.7298167"><ele>506.66666666666663</ele><time>2026-04-19T08:00:03.152Z</time></trkpt><trkpt lat="41.2657133" lon="14.7297567"><ele>506.8333333333333</ele><time>2026-04-19T08:00:04.151Z</time></trkpt><trkpt lat="41.265795" lon="14.7297183"><ele>507.0</ele><time>2026-04-19T08:00:05.151Z</time></trkpt><trkpt lat="41.2658933" lon="14.7296967"><ele>505.5</ele><time>2026-04-19T08:00:06.151Z</time></trkpt><trkpt lat="41.2660067" lon="14.7296967"><ele>504.0</ele><time>2026-04-19T08:00:07.152Z</time></trkpt><trkpt lat="41.2661317" lon="14.7297133"><ele>502.5</ele><time>2026-04-19T08:00:08.152Z</time></trkpt><trkpt lat="41.2662617" lon="14.7297333"><ele>501.0</ele><time>2026-04-19T08:00:09.151Z</time></trkpt><trkpt lat="41.2663817" lon="14.7297533"><ele>500.0</ele><time>2026-04-19T08:00:10.151Z</time></trkpt><trkpt lat="41.2665033" lon="14.729775"><ele>499.0</ele><time>2026-04-19T08:00:11.152Z</time></trkpt><trkpt lat="41.2666283" lon="14.7297983"><ele>498.0</ele><time>2026-04-19T08:00:12.152Z</time></trkpt><trkpt lat="41.26675" lon="14.7298267"><ele>497.0</ele><time>2026-04-19T08:00:13.151Z</time></trkpt><trkpt lat="41.2668733" lon="14.7298667"><ele>497.0</ele><time>2026-04-19T08:00:14.151Z</time></trkpt><trkpt lat="41.267" lon="14.7299167"><ele>497.0</ele><time>2026-04-19T08:00:15.151Z</time></trkpt><trkpt lat="41.26712" lon="14.7299717"><ele>497.0</ele><time>2026-04-19T08:00:16.151Z</time></trkpt><trkpt lat="41.2672367" lon="14.7300317"><ele>497.0</ele><time>2026-04-19T08:00:17.152Z</time></trkpt><trkpt lat="41.267355" lon="14.7300967"><ele>495.75</ele><time>2026-04-19T08:00:18.151Z</time></trkpt><trkpt lat="41.2674783" lon="14.730155"><ele>494.5</ele><time>2026-04-19T08:00:19.152Z</time></trkpt><trkpt lat="41.267595" lon="14.7302"><ele>493.25</ele><time>2026-04-19T08:00:20.152Z</time></trkpt><trkpt lat="41.267715" lon="14.73023"><ele>492.0</ele><time>2026-04-19T08:00:21.152Z</time></trkpt><trkpt lat="41.267845" lon="14.73024"><ele>491.75</ele><time>2026-04-19T08:00:22.152Z</time></trkpt><trkpt lat="41.26798" lon="14.7302283"><ele>491.5</ele><time>2026-04-19T08:00:23.152Z</time></trkpt><trkpt lat="41.2681117" lon="14.730205"><ele>491.25</ele><time>2026-04-19T08:00:24.151Z</time></trkpt><trkpt lat="41.268245" lon="14.730165"><ele>491.0</ele><time>2026-04-19T08:00:25.151Z</time></trkpt><trkpt lat="41.2683817" lon="14.7301133"><ele>490.75</ele><time>2026-04-19T08:00:26.152Z</time></trkpt><trkpt lat="41.26851" lon="14.730055"><ele>490.5</ele><time>2026-04-19T08:00:27.152Z</time></trkpt><trkpt lat="41.26864" lon="14.72999"><ele>490.25</ele><time>2026-04-19T08:00:28.151Z</time></trkpt><trkpt lat="41.2687667" lon="14.7299267"><ele>490.0</ele><time>2026-04-19T08:00:29.152Z</time></trkpt><trkpt lat="41.2688967" lon="14.7298683"><ele>489.5</ele><time>2026-04-19T08:00:30.151Z</time></trkpt><trkpt lat="41.26903" lon="14.7298133"><ele>489.0</ele><time>2026-04-19T08:00:31.152Z</time></trkpt><trkpt lat="41.2691733" lon="14.7297483"><ele>488.5</ele><time>2026-04-19T08:00:32.152Z</time></trkpt><trkpt lat="41.2693133" lon="14.7296867"><ele>488.0</ele><time>2026-04-19T08:00:33.152Z</time></trkpt><trkpt lat="41.2694467" lon="14.7296333"><ele>488.0</ele><time>2026-04-19T08:00:34.151Z</time></trkpt><trkpt lat="41.2695817" lon="14.7295733"><ele>488.0</ele><time>2026-04-19T08:00:35.152Z</time></trkpt><trkpt lat="41.26971" lon="14.72952"><ele>488.0</ele><time>2026-04-19T08:00:36.152Z</time></trkpt><trkpt lat="41.269845" lon="14.729465"><ele>488.0</ele><time>2026-04-19T08:00:37.151Z</time></trkpt><trkpt lat="41.2699783" lon="14.7294033"><ele>490.5</ele><time>2026-04-19T08:00:38.151Z</time></trkpt><trkpt lat="41.2701033" lon="14.729345"><ele>493.0</ele><time>2026-04-19T08:00:39.151Z</time></trkpt><trkpt lat="41.2702333" lon="14.729295"><ele>495.5</ele><time>2026-04-19T08:00:40.152Z</time></trkpt><trkpt lat="41.2703667" lon="14.7292433"><ele>498.0</ele><time>2026-04-19T08:00:41.151Z</time></trkpt><trkpt lat="41.2705" lon="14.72919"><ele>497.5</ele><time>2026-04-19T08:00:42.151Z</time></trkpt><trkpt lat="41.2706167" lon="14.7291367"><ele>497.0</ele><time>2026-04-19T08:00:43.152Z</time></trkpt><trkpt lat="41.2707233" lon="14.7290717"><ele>496.5</ele><time>2026-04-19T08:00:44.152Z</time></trkpt><trkpt lat="41.27083" lon="14.7289817"><ele>496.0</ele><time>2026-04-19T08:00:45.151Z</time></trkpt><trkpt lat="41.270925" lon="14.7288683"><ele>496.0</ele><time>2026-04-19T08:00:46.152Z</time></trkpt><trkpt lat="41.271025" lon="14.7287417"><ele>496.0</ele><time>2026-04-19T08:00:47.152Z</time></trkpt><trkpt lat="41.2711067" lon="14.728605"><ele>496.0</ele><time>2026-04-19T08:00:48.152Z</time></trkpt><trkpt lat="41.27119" lon="14.7284817"><ele>496.0</ele><time>2026-04-19T08:00:49.152Z</time></trkpt><trkpt lat="41.2712633" lon="14.72836"><ele>496.0</ele><time>2026-04-19T08:00:50.152Z</time></trkpt><trkpt lat="41.2713333" lon="14.7282617"><ele>496.0</ele><time>2026-04-19T08:00:51.151Z</time></trkpt><trkpt lat="41.27141" lon="14.72817"><ele>496.0</ele><time>2026-04-19T08:00:52.151Z</time></trkpt><trkpt lat="41.2714917" lon="14.7281083"><ele>496.0</ele><time>2026-04-19T08:00:53.152Z</time></trkpt><trkpt lat="41.27158" lon="14.7280567"><ele>496.0</ele><time>2026-04-19T08:00:54.152Z</time></trkpt><trkpt lat="41.2716783" lon="14.7280433"><ele>496.0</ele><time>2026-04-19T08:00:55.152Z</time></trkpt><trkpt lat="41.2717817" lon="14.7280517"><ele>496.0</ele><time>2026-04-19T08:00:56.152Z</time></trkpt><trkpt lat="41.2718933" lon="14.7280917"><ele>496.0</ele><time>2026-04-19T08:00:57.152Z</time></trkpt><trkpt lat="41.2720067" lon="14.728155"><ele>496.0</ele><time>2026-04-19T08:00:58.152Z</time></trkpt><trkpt lat="41.2721167" lon="14.7282217"><ele>496.0</ele><time>2026-04-19T08:00:59.152Z</time></trkpt><trkpt lat="41.272225" lon="14.7282833"><ele>496.0</ele><time>2026-04-19T08:01:00.151Z</time></trkpt><trkpt lat="41.2723417" lon="14.7283433"><ele>496.0</ele><time>2026-04-19T08:01:01.151Z</time></trkpt><trkpt lat="41.2724633" lon="14.72838"><ele>496.0</ele><time>2026-04-19T08:01:02.152Z</time></trkpt><trkpt lat="41.2725867" lon="14.72841"><ele>496.75</ele><time>2026-04-19T08:01:03.151Z</time></trkpt><trkpt lat="41.2727083" lon="14.7284267"><ele>497.5</ele><time>2026-04-19T08:01:04.151Z</time></trkpt><trkpt lat="41.2728267" lon="14.7284583"><ele>498.25</ele><time>2026-04-19T08:01:05.152Z</time></trkpt><trkpt lat="41.2729433" lon="14.7284617"><ele>499.0</ele><time>2026-04-19T08:01:06.152Z</time></trkpt><trkpt lat="41.273055" lon="14.728455"><ele>499.5</ele><time>2026-04-19T08:01:07.152Z</time></trkpt><trkpt lat="41.2731683" lon="14.7284367"><ele>500.0</ele><time>2026-04-19T08:01:08.152Z</time></trkpt><trkpt lat="41.27328" lon="14.7283883"><ele>500.5</ele><time>2026-04-19T08:01:09.152Z</time></trkpt><trkpt lat="41.2733833" lon="14.7283283"><ele>501.0</ele><time>2026-04-19T08:01:10.152Z</time></trkpt><trkpt lat="41.2734883" lon="14.72825"><ele>501.0</ele><time>2026-04-19T08:01:11.152Z</time></trkpt><trkpt lat="41.2736017" lon="14.7281583"><ele>501.0</ele><time>2026-04-19T08:01:12.152Z</time></trkpt><trkpt lat="41.2737167" lon="14.7280667"><ele>501.0</ele><time>2026-04-19T08:01:13.152Z</time></trkpt><trkpt lat="41.2738383" lon="14.72798"><ele>501.0</ele><time>2026-04-19T08:01:14.151Z</time></trkpt><trkpt lat="41.273965" lon="14.7279017"><ele>500.5</ele><time>2026-04-19T08:01:15.152Z</time></trkpt><trkpt lat="41.2741033" lon="14.7278383"><ele>500.0</ele><time>2026-04-19T08:01:16.152Z</time></trkpt><trkpt lat="41.2742417" lon="14.727785"><ele>499.5</ele><time>2026-04-19T08:01:17.151Z</time></trkpt><trkpt lat="41.274385" lon="14.7277483"><ele>499.0</ele><time>2026-04-19T08:01:18.151Z</time></trkpt><trkpt lat="41.27453" lon="14.7277167"><ele>500.5</ele><time>2026-04-19T08:01:19.152Z</time></trkpt><trkpt lat="41.274675" lon="14.727695"><ele>502.0</ele><time>2026-04-19T08:01:20.151Z</time></trkpt><trkpt lat="41.2748117" lon="14.7276717"><ele>503.5</ele><time>2026-04-19T08:01:21.152Z</time></trkpt><trkpt lat="41.2749467" lon="14.7276567"><ele>505.0</ele><time>2026-04-19T08:01:22.152Z</time></trkpt><trkpt lat="41.275075" lon="14.72764"><ele>505.0</ele><time>2026-04-19T08:01:23.152Z</time></trkpt><trkpt lat="41.2751933" lon="14.7276017"><ele>505.0</ele><time>2026-04-19T08:01:24.152Z</time></trkpt><trkpt lat="41.2753017" lon="14.727535"><ele>505.0</ele><time>2026-04-19T08:01:25.152Z</time></trkpt><trkpt lat="41.2754067" lon="14.727455"><ele>505.0</ele><time>2026-04-19T08:01:26.151Z</time></trkpt><trkpt lat="41.2755133" lon="14.7273817"><ele>504.6</ele><time>2026-04-19T08:01:27.151Z</time></trkpt><trkpt lat="41.27562" lon="14.7273383"><ele>504.2</ele><time>2026-04-19T08:01:28.152Z</time></trkpt><trkpt lat="41.2757267" lon="14.727335"><ele>503.79999999999995</ele><time>2026-04-19T08:01:29.152Z</time></trkpt><trkpt lat="41.2758367" lon="14.7273517"><ele>503.4</ele><time>2026-04-19T08:01:30.152Z</time></trkpt><trkpt lat="41.2759467" lon="14.7273983"><ele>503.0</ele><time>2026-04-19T08:01:31.152Z</time></trkpt><trkpt lat="41.27605" lon="14.7274833"><ele>503.0</ele><time>2026-04-19T08:01:32.152Z</time></trkpt><trkpt lat="41.276135" lon="14.7276017"><ele>503.0</ele><time>2026-04-19T08:01:33.152Z</time></trkpt><trkpt lat="41.276195" lon="14.7277367"><ele>503.0</ele><time>2026-04-19T08:01:34.152Z</time></trkpt><trkpt lat="41.2762567" lon="14.72788"><ele>503.0</ele><time>2026-04-19T08:01:35.152Z</time></trkpt><trkpt lat="41.2763317" lon="14.7280083"><ele>502.5</ele><time>2026-04-19T08:01:36.151Z</time></trkpt><trkpt lat="41.2764133" lon="14.72811"><ele>502.0</ele><time>2026-04-19T08:01:37.152Z</time></trkpt><trkpt lat="41.2765183" lon="14.7282217"><ele>501.5</ele><time>2026-04-19T08:01:38.152Z</time></trkpt><trkpt lat="41.2766283" lon="14.7283317"><ele>501.0</ele><time>2026-04-19T08:01:39.152Z</time></trkpt><trkpt lat="41.276725" lon="14.72845"><ele>499.75</ele><time>2026-04-19T08:01:40.152Z</time></trkpt><trkpt lat="41.2768133" lon="14.7285767"><ele>498.5</ele><time>2026-04-19T08:01:41.151Z</time></trkpt><trkpt lat="41.2768967" lon="14.7286917"><ele>497.25</ele><time>2026-04-19T08:01:42.152Z</time></trkpt><trkpt lat="41.2769833" lon="14.7288017"><ele>496.0</ele><time>2026-04-19T08:01:43.152Z</time></trkpt><trkpt lat="41.2770733" lon="14.7289"><ele>496.0</ele><time>2026-04-19T08:01:44.152Z</time></trkpt><trkpt lat="41.2771817" lon="14.72897"><ele>496.0</ele><time>2026-04-19T08:01:45.152Z</time></trkpt><trkpt lat="41.2773" lon="14.729005"><ele>496.0</ele><time>2026-04-19T08:01:46.152Z</time></trkpt><trkpt lat="41.2774133" lon="14.729015"><ele>496.0</ele><time>2026-04-19T08:01:47.152Z</time></trkpt><trkpt lat="41.2775317" lon="14.7289967"><ele>496.4</ele><time>2026-04-19T08:01:48.152Z</time></trkpt><trkpt lat="41.2776467" lon="14.7289567"><ele>496.8</ele><time>2026-04-19T08:01:49.151Z</time></trkpt><trkpt lat="41.27775" lon="14.7289067"><ele>497.19999999999993</ele><time>2026-04-19T08:01:50.152Z</time></trkpt><trkpt lat="41.2778533" lon="14.7288633"><ele>497.59999999999997</ele><time>2026-04-19T08:01:51.152Z</time></trkpt><trkpt lat="41.2779583" lon="14.728855"><ele>498.0</ele><time>2026-04-19T08:01:52.152Z</time></trkpt><trkpt lat="41.2780683" lon="14.7288833"><ele>498.0</ele><time>2026-04-19T08:01:53.151Z</time></trkpt><trkpt lat="41.27818" lon="14.72895"><ele>498.0</ele><time>2026-04-19T08:01:54.152Z</time></trkpt><trkpt lat="41.2782733" lon="14.729045"><ele>498.0</ele><time>2026-04-19T08:01:55.152Z</time></trkpt><trkpt lat="41.2783433" lon="14.72917"><ele>498.0</ele><time>2026-04-19T08:01:56.152Z</time></trkpt><trkpt lat="41.278415" lon="14.7293067"><ele>496.75</ele><time>2026-04-19T08:01:57.151Z</time></trkpt><trkpt lat="41.278495" lon="14.7294417"><ele>495.5</ele><time>2026-04-19T08:01:58.152Z</time></trkpt><trkpt lat="41.2785883" lon="14.7295633"><ele>494.25</ele><time>2026-04-19T08:01:59.151Z</time></trkpt><trkpt lat="41.278695" lon="14.729685"><ele>493.0</ele><time>2026-04-19T08:02:00.151Z</time></trkpt><trkpt lat="41.2788067" lon="14.7298"><ele>493.0</ele><time>2026-04-19T08:02:01.151Z</time></trkpt><trkpt lat="41.2789267" lon="14.7299067"><ele>493.0</ele><time>2026-04-19T08:02:02.152Z</time></trkpt><trkpt lat="41.279055" lon="14.730015"><ele>493.0</ele><time>2026-04-19T08:02:03.152Z</time></trkpt><trkpt lat="41.2791817" lon="14.7301233"><ele>493.0</ele><time>2026-04-19T08:02:04.152Z</time></trkpt><trkpt lat="41.27931" lon="14.73023"><ele>493.25</ele><time>2026-04-19T08:02:05.151Z</time></trkpt><trkpt lat="41.27944" lon="14.7303333"><ele>493.5</ele><time>2026-04-19T08:02:06.152Z</time></trkpt><trkpt lat="41.279565" lon="14.73043"><ele>493.75</ele><time>2026-04-19T08:02:07.151Z</time></trkpt><trkpt lat="41.279685" lon="14.7305283"><ele>494.0</ele><time>2026-04-19T08:02:08.152Z</time></trkpt><trkpt lat="41.2798033" lon="14.73062"><ele>495.25</ele><time>2026-04-19T08:02:09.152Z</time></trkpt><trkpt lat="41.2799233" lon="14.7306883"><ele>496.5</ele><time>2026-04-19T08:02:10.151Z</time></trkpt><trkpt lat="41.2800467" lon="14.7307467"><ele>497.75</ele><time>2026-04-19T08:02:11.152Z</time></trkpt><trkpt lat="41.2801767" lon="14.73079"><ele>499.0</ele><time>2026-04-19T08:02:12.152Z</time></trkpt><trkpt lat="41.2803033" lon="14.730835"><ele>499.0</ele><time>2026-04-19T08:02:13.152Z</time></trkpt><trkpt lat="41.2804367" lon="14.730875"><ele>499.0</ele><time>2026-04-19T08:02:14.152Z</time></trkpt><trkpt lat="41.2805667" lon="14.73092"><ele>499.0</ele><time>2026-04-19T08:02:15.151Z</time></trkpt><trkpt lat="41.2806967" lon="14.7309667"><ele>499.0</ele><time>2026-04-19T08:02:16.152Z</time></trkpt><trkpt lat="41.28083" lon="14.73101"><ele>499.5</ele><time>2026-04-19T08:02:17.152Z</time></trkpt><trkpt lat="41.2809567" lon="14.7310467"><ele>500.0</ele><time>2026-04-19T08:02:18.152Z</time></trkpt><trkpt lat="41.281085" lon="14.7310733"><ele>500.5</ele><time>2026-04-19T08:02:19.152Z</time></trkpt><trkpt lat="41.28121" lon="14.7310817"><ele>501.0</ele><time>2026-04-19T08:02:20.152Z</time></trkpt><trkpt lat="41.2813333" lon="14.73108"><ele>501.6</ele><time>2026-04-19T08:02:21.152Z</time></trkpt><trkpt lat="41.2814433" lon="14.7310617"><ele>502.20000000000005</ele><time>2026-04-19T08:02:22.152Z</time></trkpt><trkpt lat="41.28155" lon="14.7310383"><ele>502.79999999999995</ele><time>2026-04-19T08:02:23.152Z</time></trkpt><trkpt lat="41.2816517" lon="14.7310033"><ele>503.4</ele><time>2026-04-19T08:02:24.152Z</time></trkpt><trkpt lat="41.2817533" lon="14.7309783"><ele>504.0</ele><time>2026-04-19T08:02:25.152Z</time></trkpt><trkpt lat="41.2818567" lon="14.73095"><ele>504.0</ele><time>2026-04-19T08:02:26.151Z</time></trkpt><trkpt lat="41.2819667" lon="14.7309167"><ele>504.0</ele><time>2026-04-19T08:02:27.152Z</time></trkpt><trkpt lat="41.2820733" lon="14.730885"><ele>504.0</ele><time>2026-04-19T08:02:28.152Z</time></trkpt><trkpt lat="41.28217" lon="14.7308417"><ele>504.0</ele><time>2026-04-19T08:02:29.152Z</time></trkpt><trkpt lat="41.28226" lon="14.7307783"><ele>504.0</ele><time>2026-04-19T08:02:30.152Z</time></trkpt><trkpt lat="41.2823517" lon="14.730695"><ele>503.4</ele><time>2026-04-19T08:02:31.151Z</time></trkpt><trkpt lat="41.2824267" lon="14.7306"><ele>502.79999999999995</ele><time>2026-04-19T08:02:32.151Z</time></trkpt><trkpt lat="41.2824833" lon="14.73049"><ele>502.20000000000005</ele><time>2026-04-19T08:02:33.152Z</time></trkpt><trkpt lat="41.2825233" lon="14.730365"><ele>501.6</ele><time>2026-04-19T08:02:34.152Z</time></trkpt><trkpt lat="41.2825533" lon="14.7302333"><ele>501.0</ele><time>2026-04-19T08:02:35.152Z</time></trkpt><trkpt lat="41.2825717" lon="14.730095"><ele>501.0</ele><time>2026-04-19T08:02:36.152Z</time></trkpt><trkpt lat="41.2825933" lon="14.7299483"><ele>501.0</ele><time>2026-04-19T08:02:37.152Z</time></trkpt><trkpt lat="41.2826233" lon="14.729805"><ele>501.0</ele><time>2026-04-19T08:02:38.152Z</time></trkpt><trkpt lat="41.2826667" lon="14.7296667"><ele>501.0</ele><time>2026-04-19T08:02:39.151Z</time></trkpt><trkpt lat="41.2827217" lon="14.7295333"><ele>501.0</ele><time>2026-04-19T08:02:40.151Z</time></trkpt><trkpt lat="41.2827833" lon="14.729415"><ele>501.0</ele><time>2026-04-19T08:02:41.151Z</time></trkpt><trkpt lat="41.2828617" lon="14.7293117"><ele>501.0</ele><time>2026-04-19T08:02:42.151Z</time></trkpt><trkpt lat="41.282945" lon="14.7292167"><ele>501.0</ele><time>2026-04-19T08:02:43.152Z</time></trkpt><trkpt lat="41.2830433" lon="14.729145"><ele>501.0</ele><time>2026-04-19T08:02:44.152Z</time></trkpt><trkpt lat="41.2831483" lon="14.7290783"><ele>499.25</ele><time>2026-04-19T08:02:45.152Z</time></trkpt><trkpt lat="41.283255" lon="14.7290117"><ele>497.5</ele><time>2026-04-19T08:02:46.152Z</time></trkpt><trkpt lat="41.2833567" lon="14.7289533"><ele>495.75</ele><time>2026-04-19T08:02:47.151Z</time></trkpt><trkpt lat="41.2834633" lon="14.7289083"><ele>494.0</ele><time>2026-04-19T08:02:48.152Z</time></trkpt><trkpt lat="41.283575" lon="14.7288883"><ele>494.0</ele><time>2026-04-19T08:02:49.152Z</time></trkpt><trkpt lat="41.2836867" lon="14.72889"><ele>494.0</ele><time>2026-04-19T08:02:50.151Z</time></trkpt><trkpt lat="41.2838033" lon="14.7289033"><ele>494.0</ele><time>2026-04-19T08:02:51.152Z</time></trkpt><trkpt lat="41.283915" lon="14.7289217"><ele>494.0</ele><time>2026-04-19T08:02:52.152Z</time></trkpt><trkpt lat="41.2840217" lon="14.7289467"><ele>493.4</ele><time>2026-04-19T08:02:53.152Z</time></trkpt><trkpt lat="41.284125" lon="14.7289667"><ele>492.79999999999995</ele><time>2026-04-19T08:02:54.152Z</time></trkpt><trkpt lat="41.2842233" lon="14.7289833"><ele>492.20000000000005</ele><time>2026-04-19T08:02:55.151Z</time></trkpt><trkpt lat="41.2843217" lon="14.7289967"><ele>491.6</ele><time>2026-04-19T08:02:56.151Z</time></trkpt><trkpt lat="41.2844133" lon="14.72902"><ele>491.0</ele><time>2026-04-19T08:02:57.152Z</time></trkpt><trkpt lat="41.2845067" lon="14.7290467"><ele>491.0</ele><time>2026-04-19T08:02:58.152Z</time></trkpt><trkpt lat="41.2845933" lon="14.72907"><ele>491.0</ele><time>2026-04-19T08:02:59.151Z</time></trkpt><trkpt lat="41.2846767" lon="14.72909"><ele>491.0</ele><time>2026-04-19T08:03:00.151Z</time></trkpt><trkpt lat="41.2847617" lon="14.72911"><ele>491.0</ele><time>2026-04-19T08:03:01.152Z</time></trkpt><trkpt lat="41.28485" lon="14.72915"><ele>491.0</ele><time>2026-04-19T08:03:02.152Z</time></trkpt><trkpt lat="41.2849417" lon="14.7291983"><ele>490.8</ele><time>2026-04-19T08:03:03.151Z</time></trkpt><trkpt lat="41.2850333" lon="14.7292533"><ele>490.6</ele><time>2026-04-19T08:03:04.152Z</time></trkpt><trkpt lat="41.28514" lon="14.729325"><ele>490.4</ele><time>2026-04-19T08:03:05.152Z</time></trkpt><trkpt lat="41.2852333" lon="14.729405"><ele>490.2</ele><time>2026-04-19T08:03:06.152Z</time></trkpt><trkpt lat="41.2853183" lon="14.7294833"><ele>490.0</ele><time>2026-04-19T08:03:07.151Z</time></trkpt><trkpt lat="41.2854067" lon="14.7295617"><ele>488.2</ele><time>2026-04-19T08:03:08.152Z</time></trkpt><trkpt lat="41.2855017" lon="14.729625"><ele>486.4</ele><time>2026-04-19T08:03:09.152Z</time></trkpt><trkpt lat="41.285595" lon="14.729675"><ele>484.6</ele><time>2026-04-19T08:03:10.152Z</time></trkpt><trkpt lat="41.28569" lon="14.7297433"><ele>482.8</ele><time>2026-04-19T08:03:11.152Z</time></trkpt><trkpt lat="41.285785" lon="14.7298033"><ele>481.0</ele><time>2026-04-19T08:03:12.152Z</time></trkpt><trkpt lat="41.2858767" lon="14.729885"><ele>481.0</ele><time>2026-04-19T08:03:13.152Z</time></trkpt><trkpt lat="41.28597" lon="14.7299567"><ele>481.0</ele><time>2026-04-19T08:03:14.152Z</time></trkpt><trkpt lat="41.2860617" lon="14.7300267"><ele>481.0</ele><time>2026-04-19T08:03:15.151Z</time></trkpt><trkpt lat="41.28615" lon="14.7301083"><ele>481.0</ele><time>2026-04-19T08:03:16.152Z</time></trkpt><trkpt lat="41.2862467" lon="14.7301883"><ele>481.0</ele><time>2026-04-19T08:03:17.152Z</time></trkpt><trkpt lat="41.2863417" lon="14.7302683"><ele>478.8</ele><time>2026-04-19T08:03:18.152Z</time></trkpt><trkpt lat="41.28643" lon="14.7303417"><ele>476.6</ele><time>2026-04-19T08:03:19.152Z</time></trkpt><trkpt lat="41.286525" lon="14.7304067"><ele>474.4</ele><time>2026-04-19T08:03:20.152Z</time></trkpt><trkpt lat="41.2866283" lon="14.73046"><ele>472.2</ele><time>2026-04-19T08:03:21.152Z</time></trkpt><trkpt lat="41.2867317" lon="14.7305"><ele>470.0</ele><time>2026-04-19T08:03:22.151Z</time></trkpt><trkpt lat="41.2868383" lon="14.73054"><ele>470.0</ele><time>2026-04-19T08:03:23.152Z</time></trkpt><trkpt lat="41.28694" lon="14.7305683"><ele>470.0</ele><time>2026-04-19T08:03:24.152Z</time></trkpt><trkpt lat="41.2870467" lon="14.730605"><ele>470.0</ele><time>2026-04-19T08:03:25.152Z</time></trkpt><trkpt lat="41.2871517" lon="14.7306483"><ele>470.0</ele><time>2026-04-19T08:03:26.152Z</time></trkpt><trkpt lat="41.2872533" lon="14.7306917"><ele>470.0</ele><time>2026-04-19T08:03:27.152Z</time></trkpt><trkpt lat="41.287355" lon="14.7307333"><ele>470.8</ele><time>2026-04-19T08:03:28.152Z</time></trkpt><trkpt lat="41.2874567" lon="14.7307733"><ele>471.6</ele><time>2026-04-19T08:03:29.152Z</time></trkpt><trkpt lat="41.287555" lon="14.7308017"><ele>472.4</ele><time>2026-04-19T08:03:30.151Z</time></trkpt><trkpt lat="41.287655" lon="14.730845"><ele>473.2</ele><time>2026-04-19T08:03:31.151Z</time></trkpt><trkpt lat="41.2877433" lon="14.730885"><ele>474.0</ele><time>2026-04-19T08:03:32.152Z</time></trkpt><trkpt lat="41.2878233" lon="14.7309033"><ele>474.0</ele><time>2026-04-19T08:03:33.152Z</time></trkpt><trkpt lat="41.2879017" lon="14.7309233"><ele>474.0</ele><time>2026-04-19T08:03:34.152Z</time></trkpt><trkpt lat="41.28797" lon="14.730945"><ele>474.0</ele><time>2026-04-19T08:03:35.152Z</time></trkpt><trkpt lat="41.2880783" lon="14.7309783"><ele>474.0</ele><time>2026-04-19T08:03:37.152Z</time></trkpt><trkpt lat="41.2881617" lon="14.7310133"><ele>474.0</ele><time>2026-04-19T08:03:39.152Z</time></trkpt><trkpt lat="41.2882533" lon="14.7310433"><ele>474.0</ele><time>2026-04-19T08:03:42.151Z</time></trkpt><trkpt lat="41.2883167" lon="14.73105"><ele>474.5</ele><time>2026-04-19T08:03:44.152Z</time></trkpt><trkpt lat="41.2883933" lon="14.73106"><ele>475.0</ele><time>2026-04-19T08:03:47.152Z</time></trkpt><trkpt lat="41.2884583" lon="14.7309567"><ele>475.5</ele><time>2026-04-19T08:04:22.151Z</time></trkpt><trkpt lat="41.28853" lon="14.7309117"><ele>476.0</ele><time>2026-04-19T08:04:24.152Z</time></trkpt><trkpt lat="41.2884583" lon="14.7309733"><ele>476.5</ele><time>2026-04-19T08:04:44.152Z</time></trkpt><trkpt lat="41.2883983" lon="14.73102"><ele>477.0</ele><time>2026-04-19T08:04:46.152Z</time></trkpt><trkpt lat="41.288335" lon="14.73105"><ele>477.0</ele><time>2026-04-19T08:04:49.152Z</time></trkpt><trkpt lat="41.2882667" lon="14.7311217"><ele>477.0</ele><time>2026-04-19T08:04:57.151Z</time></trkpt><trkpt lat="41.2883033" lon="14.731305"><ele>477.0</ele><time>2026-04-19T08:07:04.152Z</time></trkpt><trkpt lat="41.2882983" lon="14.7312212"><ele>477.0</ele><time>2026-04-19T08:08:00.151Z</time></trkpt><trkpt lat="41.288279" lon="14.7311347"><ele>477.0</ele><time>2026-04-19T08:11:10.233Z</time></trkpt><trkpt lat="41.2883109" lon="14.7310586"><ele>477.0</ele><time>2026-04-19T08:11:20.233Z</time></trkpt><trkpt lat="41.2883284" lon="14.7309731"><ele>477.0</ele><time>2026-04-19T08:11:35.152Z</time></trkpt><trkpt lat="41.2882785" lon="14.7308955"><ele>477.0</ele><time>2026-04-19T08:12:02.229Z</time></trkpt><trkpt lat="41.2882026" lon="14.7309038"><ele>477.0</ele><time>2026-04-19T08:12:04.202Z</time></trkpt><trkpt lat="41.2881081" lon="14.7309754"><ele>477.0</ele><time>2026-04-19T08:12:06.176Z</time></trkpt><trkpt lat="41.2880594" lon="14.7310572"><ele>477.0</ele><time>2026-04-19T08:12:08.152Z</time></trkpt><trkpt lat="41.2879768" lon="14.7311178"><ele>477.0</ele><time>2026-04-19T08:12:12.206Z</time></trkpt><trkpt lat="41.2879355" lon="14.7312149"><ele>473.8</ele><time>2026-04-19T08:12:15.167Z</time></trkpt><trkpt lat="41.2878737" lon="14.7313132"><ele>470.6</ele><time>2026-04-19T08:12:18.237Z</time></trkpt><trkpt lat="41.2878868" lon="14.7314299"><ele>467.40000000000003</ele><time>2026-04-19T08:12:20.211Z</time></trkpt><trkpt lat="41.2879202" lon="14.7315557"><ele>464.20000000000005</ele><time>2026-04-19T08:12:22.185Z</time></trkpt><trkpt lat="41.2879516" lon="14.7316349"><ele>461.0</ele><time>2026-04-19T08:12:23.171Z</time></trkpt><trkpt lat="41.2879788" lon="14.7317997"><ele>467.0</ele><time>2026-04-19T08:12:27.626Z</time></trkpt><trkpt lat="41.2884075" lon="14.7310845"><ele>468.42857142857133</ele><time>2026-04-19T08:12:33.955Z</time></trkpt><trkpt lat="41.2884802" lon="14.7310147"><ele>469.85714285714283</ele><time>2026-04-19T08:12:40.329Z</time></trkpt><trkpt lat="41.2884989" lon="14.7309315"><ele>471.2857142857142</ele><time>2026-04-19T08:12:50.149Z</time></trkpt><trkpt lat="41.2885308" lon="14.7308491"><ele>472.71428571428567</ele><time>2026-04-19T08:12:54.204Z</time></trkpt><trkpt lat="41.2885669" lon="14.7307804"><ele>474.1428571428571</ele><time>2026-04-19T08:12:59.965Z</time></trkpt><trkpt lat="41.2885412" lon="14.7306944"><ele>475.57142857142856</ele><time>2026-04-19T08:13:05.167Z</time></trkpt><trkpt lat="41.2885058" lon="14.7306121"><ele>477.0</ele><time>2026-04-19T08:13:35.212Z</time></trkpt><trkpt lat="41.288505" lon="14.7306959"><ele>477.0</ele><time>2026-04-19T08:13:48.151Z</time></trkpt><trkpt lat="41.288495" lon="14.7308235"><ele>477.0</ele><time>2026-04-19T08:14:09.204Z</time></trkpt><trkpt lat="41.2884507" lon="14.730884"><ele>477.0</ele><time>2026-04-19T08:14:25.215Z</time></trkpt><trkpt lat="41.28842" lon="14.7309636"><ele>477.0</ele><time>2026-04-19T08:14:44.185Z</time></trkpt><trkpt lat="41.2884053" lon="14.7310662"><ele>477.0</ele><time>2026-04-19T08:15:12.148Z</time></trkpt><trkpt lat="41.2884904" lon="14.7310372"><ele>477.0</ele><time>2026-04-19T08:15:53.154Z</time></trkpt><trkpt lat="41.2885534" lon="14.7310357"><ele>475.0</ele><time>2026-04-19T08:15:57.21Z</time></trkpt><trkpt lat="41.2883833" lon="14.7311083"><ele>473.00000000000006</ele><time>2026-04-19T08:16:29.149Z</time></trkpt><trkpt lat="41.2883817" lon="14.7312133"><ele>471.00000000000006</ele><time>2026-04-19T08:16:40.149Z</time></trkpt><trkpt lat="41.288335" lon="14.73129"><ele>469.0</ele><time>2026-04-19T08:16:43.149Z</time></trkpt><trkpt lat="41.288375" lon="14.7313617"><ele>467.0</ele><time>2026-04-19T08:16:54.149Z</time></trkpt><trkpt lat="41.288445" lon="14.7313667"><ele>467.0</ele><time>2026-04-19T08:16:57.149Z</time></trkpt><trkpt lat="41.2884656" lon="14.7309414"><ele>467.0</ele><time>2026-04-19T08:17:10.594Z</time></trkpt><trkpt lat="41.288355" lon="14.73147"><ele>466.99999999999994</ele><time>2026-04-19T08:17:12.153Z</time></trkpt><trkpt lat="41.2882617" lon="14.7314767"><ele>467.0</ele><time>2026-04-19T08:17:15.154Z</time></trkpt><trkpt lat="41.2881917" lon="14.7314983"><ele>467.0</ele><time>2026-04-19T08:17:17.154Z</time></trkpt><trkpt lat="41.2881967" lon="14.731405"><ele>467.0</ele><time>2026-04-19T08:17:22.154Z</time></trkpt><trkpt lat="41.2882317" lon="14.7312933"><ele>466.99999999999994</ele><time>2026-04-19T08:17:23.153Z</time></trkpt><trkpt lat="41.2882817" lon="14.7312"><ele>467.0</ele><time>2026-04-19T08:17:24.154Z</time></trkpt><trkpt lat="41.288315" lon="14.73112"><ele>468.66666666666663</ele><time>2026-04-19T08:17:28.154Z</time></trkpt><trkpt lat="41.2883667" lon="14.731055"><ele>470.3333333333333</ele><time>2026-04-19T08:17:29.154Z</time></trkpt><trkpt lat="41.288355" lon="14.7309533"><ele>472.0</ele><time>2026-04-19T08:17:37.154Z</time></trkpt><trkpt lat="41.2883817" lon="14.7308433"><ele>473.66666666666663</ele><time>2026-04-19T08:17:40.154Z</time></trkpt><trkpt lat="41.288455" lon="14.730795"><ele>475.3333333333333</ele><time>2026-04-19T08:17:42.153Z</time></trkpt><trkpt lat="41.288445" lon="14.7307083"><ele>477.0</ele><time>2026-04-19T08:17:50.153Z</time></trkpt><trkpt lat="41.28855" lon="14.7307917"><ele>477.0</ele><time>2026-04-19T08:17:58.154Z</time></trkpt><trkpt lat="41.2886983" lon="14.7309033"><ele>477.0</ele><time>2026-04-19T08:18:07.153Z</time></trkpt><trkpt lat="41.2887783" lon="14.73092"><ele>477.0</ele><time>2026-04-19T08:18:08.154Z</time></trkpt><trkpt lat="41.288655" lon="14.730895"><ele>477.0</ele><time>2026-04-19T08:18:27.154Z</time></trkpt><trkpt lat="41.2885283" lon="14.73097"><ele>475.0</ele><time>2026-04-19T08:18:29.153Z</time></trkpt><trkpt lat="41.288505" lon="14.7310733"><ele>473.00000000000006</ele><time>2026-04-19T08:18:41.154Z</time></trkpt><trkpt lat="41.288375" lon="14.7311167"><ele>471.00000000000006</ele><time>2026-04-19T08:18:50.154Z</time></trkpt><trkpt lat="41.288305" lon="14.7311183"><ele>469.0</ele><time>2026-04-19T08:18:52.154Z</time></trkpt><trkpt lat="41.2882417" lon="14.7311867"><ele>467.0</ele><time>2026-04-19T08:19:00.154Z</time></trkpt><trkpt lat="41.2882367" lon="14.7313033"><ele>467.0</ele><time>2026-04-19T08:19:03.154Z</time></trkpt><trkpt lat="41.2882383" lon="14.731445"><ele>467.00000000000006</ele><time>2026-04-19T08:19:07.153Z</time></trkpt><trkpt lat="41.2882317" lon="14.7315367"><ele>467.00000000000006</ele><time>2026-04-19T08:19:11.154Z</time></trkpt><trkpt lat="41.2883017" lon="14.7313667"><ele>467.0</ele><time>2026-04-19T08:19:33.154Z</time></trkpt><trkpt lat="41.2883883" lon="14.7312833"><ele>467.0</ele><time>2026-04-19T08:19:44.154Z</time></trkpt><trkpt lat="41.2883817" lon="14.7311283"><ele>469.5</ele><time>2026-04-19T08:20:00.154Z</time></trkpt><trkpt lat="41.2883617" lon="14.7309917"><ele>472.0</ele><time>2026-04-19T08:20:02.154Z</time></trkpt><trkpt lat="41.28832" lon="14.730915"><ele>474.5</ele><time>2026-04-19T08:20:17.154Z</time></trkpt><trkpt lat="41.28855" lon="14.73087"><ele>477.0</ele><time>2026-04-19T08:21:06.155Z</time></trkpt><trkpt lat="41.288445" lon="14.7308683"><ele>477.0</ele><time>2026-04-19T08:21:17.152Z</time></trkpt><trkpt lat="41.28834" lon="14.7308433"><ele>477.0</ele><time>2026-04-19T08:21:18.152Z</time></trkpt><trkpt lat="41.2882783" lon="14.7309267"><ele>477.0</ele><time>2026-04-19T08:21:19.151Z</time></trkpt><trkpt lat="41.2881967" lon="14.7309717"><ele>477.0</ele><time>2026-04-19T08:21:21.152Z</time></trkpt><trkpt lat="41.2881333" lon="14.7310017"><ele>477.0</ele><time>2026-04-19T08:21:23.152Z</time></trkpt><trkpt lat="41.2881117" lon="14.73092"><ele>477.0</ele><time>2026-04-19T08:21:31.152Z</time></trkpt><trkpt lat="41.2880933" lon="14.7307683"><ele>477.0</ele><time>2026-04-19T08:21:50.152Z</time></trkpt><trkpt lat="41.2882233" lon="14.7307217"><ele>477.0</ele><time>2026-04-19T08:21:55.152Z</time></trkpt><trkpt lat="41.2882783" lon="14.73091"><ele>477.0</ele><time>2026-04-19T08:22:05.151Z</time></trkpt><trkpt lat="41.2882483" lon="14.731065"><ele>477.0</ele><time>2026-04-19T08:22:07.152Z</time></trkpt><trkpt lat="41.288235" lon="14.7311833"><ele>477.0</ele><time>2026-04-19T08:22:09.152Z</time></trkpt><trkpt lat="41.2882117" lon="14.7313067"><ele>477.0</ele><time>2026-04-19T08:22:11.151Z</time></trkpt><trkpt lat="41.2885005" lon="14.7309343"><ele>477.0</ele><time>2026-04-19T08:22:42.944Z</time></trkpt><trkpt lat="41.2884467" lon="14.7311983"><ele>477.0</ele><time>2026-04-19T08:22:58.15Z</time></trkpt><trkpt lat="41.2885067" lon="14.7311233"><ele>477.0</ele><time>2026-04-19T08:23:00.151Z</time></trkpt><trkpt lat="41.2885517" lon="14.7310067"><ele>477.0</ele><time>2026-04-19T08:23:11.151Z</time></trkpt><trkpt lat="41.288475" lon="14.731025"><ele>477.0</ele><time>2026-04-19T08:23:22.15Z</time></trkpt><trkpt lat="41.2884917" lon="14.7309267"><ele>477.00000000000006</ele><time>2026-04-19T08:23:27.151Z</time></trkpt><trkpt lat="41.28856" lon="14.73085"><ele>477.00000000000006</ele><time>2026-04-19T08:23:30.151Z</time></trkpt><trkpt lat="41.2886433" lon="14.7307833"><ele>477.0</ele><time>2026-04-19T08:23:33.151Z</time></trkpt><trkpt lat="41.2887067" lon="14.7307383"><ele>477.0</ele><time>2026-04-19T08:23:36.15Z</time></trkpt><trkpt lat="41.2884847" lon="14.7309419"><ele>477.0</ele><time>2026-04-19T08:24:14.46Z</time></trkpt><trkpt lat="41.2884002" lon="14.7309512"><ele>477.0</ele><time>2026-04-19T08:25:40.149Z</time></trkpt><trkpt lat="41.2883347" lon="14.7309691"><ele>477.0</ele><time>2026-04-19T08:32:48.253Z</time></trkpt><trkpt lat="41.2882873" lon="14.7310366"><ele>477.0</ele><time>2026-04-19T08:33:09.197Z</time></trkpt><trkpt lat="41.2882787" lon="14.7311219"><ele>477.0</ele><time>2026-04-19T08:33:19.178Z</time></trkpt><trkpt lat="41.2882267" lon="14.73126"><ele>477.0</ele><time>2026-04-19T08:36:11.148Z</time></trkpt><trkpt lat="41.2881283" lon="14.731255"><ele>474.3333333333333</ele><time>2026-04-19T08:36:14.148Z</time></trkpt><trkpt lat="41.2880667" lon="14.731235"><ele>471.66666666666663</ele><time>2026-04-19T08:36:15.147Z</time></trkpt><trkpt lat="41.28799" lon="14.7312117"><ele>469.0</ele><time>2026-04-19T08:36:16.147Z</time></trkpt><trkpt lat="41.28792" lon="14.7311883"><ele>466.3333333333333</ele><time>2026-04-19T08:36:17.147Z</time></trkpt><trkpt lat="41.2878533" lon="14.731175"><ele>463.66666666666663</ele><time>2026-04-19T08:36:18.147Z</time></trkpt><trkpt lat="41.28774" lon="14.7311117"><ele>461.0</ele><time>2026-04-19T08:36:20.148Z</time></trkpt><trkpt lat="41.287625" lon="14.7310833"><ele>460.99999999999994</ele><time>2026-04-19T08:36:22.147Z</time></trkpt><trkpt lat="41.2875033" lon="14.7310517"><ele>461.0</ele><time>2026-04-19T08:36:24.147Z</time></trkpt><trkpt lat="41.2874367" lon="14.731045"><ele>461.0</ele><time>2026-04-19T08:36:25.148Z</time></trkpt><trkpt lat="41.2873717" lon="14.7310517"><ele>461.0</ele><time>2026-04-19T08:36:26.147Z</time></trkpt><trkpt lat="41.2872933" lon="14.7310733"><ele>460.99999999999994</ele><time>2026-04-19T08:36:27.147Z</time></trkpt><trkpt lat="41.2872167" lon="14.7310883"><ele>461.0</ele><time>2026-04-19T08:36:28.147Z</time></trkpt><trkpt lat="41.287145" lon="14.7311083"><ele>459.8333333333333</ele><time>2026-04-19T08:36:29.148Z</time></trkpt><trkpt lat="41.28707" lon="14.7311367"><ele>458.66666666666663</ele><time>2026-04-19T08:36:30.147Z</time></trkpt><trkpt lat="41.28701" lon="14.7311633"><ele>457.5</ele><time>2026-04-19T08:36:31.148Z</time></trkpt><trkpt lat="41.2869367" lon="14.7311883"><ele>456.33333333333337</ele><time>2026-04-19T08:36:32.148Z</time></trkpt><trkpt lat="41.2868733" lon="14.73121"><ele>455.1666666666667</ele><time>2026-04-19T08:36:33.148Z</time></trkpt><trkpt lat="41.2867633" lon="14.7312417"><ele>454.0</ele><time>2026-04-19T08:36:35.147Z</time></trkpt><trkpt lat="41.2866883" lon="14.7312983"><ele>454.00000000000006</ele><time>2026-04-19T08:36:37.148Z</time></trkpt><trkpt lat="41.2866767" lon="14.731405"><ele>454.0</ele><time>2026-04-19T08:36:39.148Z</time></trkpt><trkpt lat="41.2867267" lon="14.7315083"><ele>454.0</ele><time>2026-04-19T08:36:41.148Z</time></trkpt><trkpt lat="41.28683" lon="14.73155"><ele>454.0</ele><time>2026-04-19T08:36:43.147Z</time></trkpt><trkpt lat="41.286905" lon="14.7315467"><ele>454.00000000000006</ele><time>2026-04-19T08:36:44.148Z</time></trkpt><trkpt lat="41.28698" lon="14.7315367"><ele>454.0</ele><time>2026-04-19T08:36:45.148Z</time></trkpt><trkpt lat="41.28706" lon="14.7315367"><ele>454.0</ele><time>2026-04-19T08:36:46.147Z</time></trkpt><trkpt lat="41.2871467" lon="14.73153"><ele>454.00000000000006</ele><time>2026-04-19T08:36:47.148Z</time></trkpt><trkpt lat="41.28722" lon="14.7315433"><ele>454.0</ele><time>2026-04-19T08:36:48.147Z</time></trkpt><trkpt lat="41.2872933" lon="14.7315667"><ele>454.0</ele><time>2026-04-19T08:36:49.148Z</time></trkpt><trkpt lat="41.287365" lon="14.73159"><ele>454.00000000000006</ele><time>2026-04-19T08:36:50.148Z</time></trkpt><trkpt lat="41.2874267" lon="14.7316283"><ele>454.0</ele><time>2026-04-19T08:36:51.148Z</time></trkpt><trkpt lat="41.2874883" lon="14.731675"><ele>454.0</ele><time>2026-04-19T08:36:52.147Z</time></trkpt><trkpt lat="41.2875417" lon="14.7317317"><ele>453.7142857142857</ele><time>2026-04-19T08:36:53.147Z</time></trkpt><trkpt lat="41.2875967" lon="14.7317967"><ele>453.42857142857144</ele><time>2026-04-19T08:36:54.148Z</time></trkpt><trkpt lat="41.28764" lon="14.7318733"><ele>453.14285714285717</ele><time>2026-04-19T08:36:55.148Z</time></trkpt><trkpt lat="41.2876817" lon="14.73195"><ele>452.8571428571429</ele><time>2026-04-19T08:36:56.147Z</time></trkpt><trkpt lat="41.2877217" lon="14.7320317"><ele>452.57142857142856</ele><time>2026-04-19T08:36:57.148Z</time></trkpt><trkpt lat="41.2877517" lon="14.732115"><ele>452.28571428571433</ele><time>2026-04-19T08:36:58.148Z</time></trkpt><trkpt lat="41.2877767" lon="14.7322"><ele>452.0</ele><time>2026-04-19T08:36:59.147Z</time></trkpt><trkpt lat="41.2877917" lon="14.73229"><ele>451.99999999999994</ele><time>2026-04-19T08:37:00.148Z</time></trkpt><trkpt lat="41.2878083" lon="14.7323767"><ele>452.0</ele><time>2026-04-19T08:37:01.148Z</time></trkpt><trkpt lat="41.28782" lon="14.7324617"><ele>452.0</ele><time>2026-04-19T08:37:02.148Z</time></trkpt><trkpt lat="41.28784" lon="14.7326"><ele>452.0</ele><time>2026-04-19T08:37:04.148Z</time></trkpt><trkpt lat="41.2879117" lon="14.7326617"><ele>451.99999999999994</ele><time>2026-04-19T08:37:06.147Z</time></trkpt><trkpt lat="41.2880267" lon="14.7326583"><ele>452.0</ele><time>2026-04-19T08:37:08.148Z</time></trkpt><trkpt lat="41.2881417" lon="14.732665"><ele>451.8</ele><time>2026-04-19T08:37:10.148Z</time></trkpt><trkpt lat="41.28825" lon="14.732635"><ele>451.6</ele><time>2026-04-19T08:37:12.148Z</time></trkpt><trkpt lat="41.2883383" lon="14.7325033"><ele>451.40000000000003</ele><time>2026-04-19T08:37:14.148Z</time></trkpt><trkpt lat="41.2883883" lon="14.7324"><ele>451.20000000000005</ele><time>2026-04-19T08:37:15.148Z</time></trkpt><trkpt lat="41.2884417" lon="14.7322983"><ele>451.0</ele><time>2026-04-19T08:37:16.147Z</time></trkpt><trkpt lat="41.2884983" lon="14.73221"><ele>451.00000000000006</ele><time>2026-04-19T08:37:17.147Z</time></trkpt><trkpt lat="41.2885633" lon="14.732135"><ele>451.0</ele><time>2026-04-19T08:37:18.148Z</time></trkpt><trkpt lat="41.2886333" lon="14.7320733"><ele>451.0</ele><time>2026-04-19T08:37:19.148Z</time></trkpt><trkpt lat="41.2887083" lon="14.7320217"><ele>451.0</ele><time>2026-04-19T08:37:20.147Z</time></trkpt><trkpt lat="41.2887883" lon="14.7319733"><ele>451.00000000000006</ele><time>2026-04-19T08:37:21.148Z</time></trkpt><trkpt lat="41.2888633" lon="14.7319233"><ele>451.0</ele><time>2026-04-19T08:37:22.148Z</time></trkpt><trkpt lat="41.2889383" lon="14.73185"><ele>449.4</ele><time>2026-04-19T08:37:23.148Z</time></trkpt><trkpt lat="41.2890033" lon="14.7317467"><ele>447.8</ele><time>2026-04-19T08:37:24.147Z</time></trkpt><trkpt lat="41.2890533" lon="14.731635"><ele>446.19999999999993</ele><time>2026-04-19T08:37:25.148Z</time></trkpt><trkpt lat="41.2890883" lon="14.7315217"><ele>444.59999999999997</ele><time>2026-04-19T08:37:26.148Z</time></trkpt><trkpt lat="41.28913" lon="14.731415"><ele>443.0</ele><time>2026-04-19T08:37:27.148Z</time></trkpt><trkpt lat="41.2891783" lon="14.7313117"><ele>443.0</ele><time>2026-04-19T08:37:28.148Z</time></trkpt><trkpt lat="41.2892467" lon="14.73123"><ele>442.99999999999994</ele><time>2026-04-19T08:37:29.148Z</time></trkpt><trkpt lat="41.289335" lon="14.73117"><ele>442.99999999999994</ele><time>2026-04-19T08:37:30.148Z</time></trkpt><trkpt lat="41.2894333" lon="14.7311133"><ele>443.0</ele><time>2026-04-19T08:37:31.147Z</time></trkpt><trkpt lat="41.28954" lon="14.7310633"><ele>443.0</ele><time>2026-04-19T08:37:32.148Z</time></trkpt><trkpt lat="41.2896417" lon="14.731005"><ele>443.0</ele><time>2026-04-19T08:37:33.148Z</time></trkpt><trkpt lat="41.2897417" lon="14.730935"><ele>442.99999999999994</ele><time>2026-04-19T08:37:34.148Z</time></trkpt><trkpt lat="41.2898433" lon="14.7308583"><ele>442.99999999999994</ele><time>2026-04-19T08:37:35.147Z</time></trkpt><trkpt lat="41.2899317" lon="14.73077"><ele>443.0</ele><time>2026-04-19T08:37:36.147Z</time></trkpt><trkpt lat="41.2900117" lon="14.730675"><ele>443.0</ele><time>2026-04-19T08:37:37.148Z</time></trkpt><trkpt lat="41.2900867" lon="14.73058"><ele>443.0</ele><time>2026-04-19T08:37:38.147Z</time></trkpt><trkpt lat="41.29017" lon="14.7304933"><ele>442.99999999999994</ele><time>2026-04-19T08:37:39.148Z</time></trkpt><trkpt lat="41.2902533" lon="14.7304217"><ele>442.99999999999994</ele><time>2026-04-19T08:37:40.148Z</time></trkpt><trkpt lat="41.2903433" lon="14.7303817"><ele>443.0</ele><time>2026-04-19T08:37:41.148Z</time></trkpt><trkpt lat="41.2904367" lon="14.7303767"><ele>443.0</ele><time>2026-04-19T08:37:42.148Z</time></trkpt><trkpt lat="41.2905367" lon="14.7303967"><ele>442.0</ele><time>2026-04-19T08:37:43.148Z</time></trkpt><trkpt lat="41.2906383" lon="14.7304467"><ele>440.99999999999994</ele><time>2026-04-19T08:37:44.147Z</time></trkpt><trkpt lat="41.2907317" lon="14.7305083"><ele>439.99999999999994</ele><time>2026-04-19T08:37:45.148Z</time></trkpt><trkpt lat="41.2908183" lon="14.7305933"><ele>439.0</ele><time>2026-04-19T08:37:46.147Z</time></trkpt><trkpt lat="41.2908933" lon="14.73069"><ele>438.0</ele><time>2026-04-19T08:37:47.148Z</time></trkpt><trkpt lat="41.29097" lon="14.730785"><ele>438.0</ele><time>2026-04-19T08:37:48.148Z</time></trkpt><trkpt lat="41.29105" lon="14.73087"><ele>437.99999999999994</ele><time>2026-04-19T08:37:49.148Z</time></trkpt><trkpt lat="41.2911467" lon="14.7309333"><ele>437.99999999999994</ele><time>2026-04-19T08:37:50.147Z</time></trkpt><trkpt lat="41.2912617" lon="14.7309867"><ele>438.0</ele><time>2026-04-19T08:37:51.148Z</time></trkpt><trkpt lat="41.2913717" lon="14.7310367"><ele>438.0</ele><time>2026-04-19T08:37:52.148Z</time></trkpt><trkpt lat="41.291495" lon="14.7310733"><ele>434.25</ele><time>2026-04-19T08:37:53.148Z</time></trkpt><trkpt lat="41.29161" lon="14.7311033"><ele>430.5</ele><time>2026-04-19T08:37:54.147Z</time></trkpt><trkpt lat="41.29172" lon="14.73114"><ele>426.75</ele><time>2026-04-19T08:37:55.148Z</time></trkpt><trkpt lat="41.291825" lon="14.73118"><ele>423.0</ele><time>2026-04-19T08:37:56.148Z</time></trkpt><trkpt lat="41.2919367" lon="14.7312167"><ele>423.0</ele><time>2026-04-19T08:37:57.147Z</time></trkpt><trkpt lat="41.2920483" lon="14.7312383"><ele>423.0</ele><time>2026-04-19T08:37:58.148Z</time></trkpt><trkpt lat="41.2921683" lon="14.7312333"><ele>423.0</ele><time>2026-04-19T08:37:59.148Z</time></trkpt><trkpt lat="41.29228" lon="14.7312033"><ele>423.0</ele><time>2026-04-19T08:38:00.148Z</time></trkpt><trkpt lat="41.2923983" lon="14.7311633"><ele>422.25</ele><time>2026-04-19T08:38:01.148Z</time></trkpt><trkpt lat="41.292515" lon="14.7311083"><ele>421.5</ele><time>2026-04-19T08:38:02.148Z</time></trkpt><trkpt lat="41.2926283" lon="14.731055"><ele>420.75</ele><time>2026-04-19T08:38:03.147Z</time></trkpt><trkpt lat="41.29274" lon="14.7310033"><ele>420.0</ele><time>2026-04-19T08:38:04.147Z</time></trkpt><trkpt lat="41.2928467" lon="14.7309517"><ele>422.6</ele><time>2026-04-19T08:38:05.147Z</time></trkpt><trkpt lat="41.292955" lon="14.730905"><ele>425.2</ele><time>2026-04-19T08:38:06.148Z</time></trkpt><trkpt lat="41.2930567" lon="14.7308483"><ele>427.79999999999995</ele><time>2026-04-19T08:38:07.147Z</time></trkpt><trkpt lat="41.2931567" lon="14.730805"><ele>430.4</ele><time>2026-04-19T08:38:08.148Z</time></trkpt><trkpt lat="41.2932517" lon="14.7307633"><ele>433.0</ele><time>2026-04-19T08:38:09.148Z</time></trkpt><trkpt lat="41.2933467" lon="14.730725"><ele>433.0</ele><time>2026-04-19T08:38:10.148Z</time></trkpt><trkpt lat="41.2934383" lon="14.7306917"><ele>432.99999999999994</ele><time>2026-04-19T08:38:11.148Z</time></trkpt><trkpt lat="41.2935267" lon="14.7306633"><ele>432.99999999999994</ele><time>2026-04-19T08:38:12.147Z</time></trkpt><trkpt lat="41.2936183" lon="14.7306367"><ele>433.0</ele><time>2026-04-19T08:38:13.148Z</time></trkpt><trkpt lat="41.2937083" lon="14.7306"><ele>433.0</ele><time>2026-04-19T08:38:14.147Z</time></trkpt><trkpt lat="41.2937883" lon="14.73056"><ele>433.00000000000006</ele><time>2026-04-19T08:38:15.147Z</time></trkpt><trkpt lat="41.293875" lon="14.73053"><ele>433.0</ele><time>2026-04-19T08:38:16.148Z</time></trkpt><trkpt lat="41.2939517" lon="14.7305"><ele>433.0</ele><time>2026-04-19T08:38:17.148Z</time></trkpt><trkpt lat="41.2940233" lon="14.7304683"><ele>433.0</ele><time>2026-04-19T08:38:18.147Z</time></trkpt><trkpt lat="41.2940917" lon="14.7304367"><ele>433.00000000000006</ele><time>2026-04-19T08:38:19.148Z</time></trkpt><trkpt lat="41.294165" lon="14.7304083"><ele>433.0</ele><time>2026-04-19T08:38:20.148Z</time></trkpt><trkpt lat="41.2942467" lon="14.7303783"><ele>431.0</ele><time>2026-04-19T08:38:21.147Z</time></trkpt><trkpt lat="41.2943333" lon="14.7303533"><ele>428.99999999999994</ele><time>2026-04-19T08:38:22.148Z</time></trkpt><trkpt lat="41.2944267" lon="14.7303283"><ele>427.0</ele><time>2026-04-19T08:38:23.148Z</time></trkpt><trkpt lat="41.2945267" lon="14.7303033"><ele>425.0</ele><time>2026-04-19T08:38:24.148Z</time></trkpt><trkpt lat="41.2946283" lon="14.7302867"><ele>423.0</ele><time>2026-04-19T08:38:25.148Z</time></trkpt><trkpt lat="41.2947333" lon="14.73026"><ele>424.2</ele><time>2026-04-19T08:38:26.148Z</time></trkpt><trkpt lat="41.2948367" lon="14.730235"><ele>425.4</ele><time>2026-04-19T08:38:27.148Z</time></trkpt><trkpt lat="41.2949417" lon="14.730195"><ele>426.59999999999997</ele><time>2026-04-19T08:38:28.147Z</time></trkpt><trkpt lat="41.2950517" lon="14.7301583"><ele>427.79999999999995</ele><time>2026-04-19T08:38:29.148Z</time></trkpt><trkpt lat="41.2951667" lon="14.7301267"><ele>429.0</ele><time>2026-04-19T08:38:30.147Z</time></trkpt><trkpt lat="41.2952883" lon="14.730095"><ele>429.0</ele><time>2026-04-19T08:38:31.148Z</time></trkpt><trkpt lat="41.295405" lon="14.7300467"><ele>429.0</ele><time>2026-04-19T08:38:32.147Z</time></trkpt><trkpt lat="41.29552" lon="14.7300067"><ele>429.0</ele><time>2026-04-19T08:38:33.147Z</time></trkpt><trkpt lat="41.2956333" lon="14.729955"><ele>429.0</ele><time>2026-04-19T08:38:34.147Z</time></trkpt><trkpt lat="41.2957433" lon="14.7299017"><ele>425.5</ele><time>2026-04-19T08:38:35.148Z</time></trkpt><trkpt lat="41.29585" lon="14.729845"><ele>422.0</ele><time>2026-04-19T08:38:36.148Z</time></trkpt><trkpt lat="41.2959517" lon="14.729785"><ele>418.5</ele><time>2026-04-19T08:38:37.148Z</time></trkpt><trkpt lat="41.2960567" lon="14.7297117"><ele>415.0</ele><time>2026-04-19T08:38:38.148Z</time></trkpt><trkpt lat="41.2961567" lon="14.7296383"><ele>415.0</ele><time>2026-04-19T08:38:39.148Z</time></trkpt><trkpt lat="41.296255" lon="14.7295567"><ele>415.0</ele><time>2026-04-19T08:38:40.148Z</time></trkpt><trkpt lat="41.29635" lon="14.7294683"><ele>415.0</ele><time>2026-04-19T08:38:41.147Z</time></trkpt><trkpt lat="41.296445" lon="14.7293733"><ele>415.0</ele><time>2026-04-19T08:38:42.148Z</time></trkpt><trkpt lat="41.2965367" lon="14.7292717"><ele>413.0</ele><time>2026-04-19T08:38:43.148Z</time></trkpt><trkpt lat="41.2966283" lon="14.729165"><ele>411.0</ele><time>2026-04-19T08:38:44.148Z</time></trkpt><trkpt lat="41.2967133" lon="14.7290583"><ele>409.0</ele><time>2026-04-19T08:38:45.148Z</time></trkpt><trkpt lat="41.2967967" lon="14.7289433"><ele>407.0</ele><time>2026-04-19T08:38:46.147Z</time></trkpt><trkpt lat="41.29688" lon="14.7288283"><ele>407.0</ele><time>2026-04-19T08:38:47.148Z</time></trkpt><trkpt lat="41.2969583" lon="14.7287067"><ele>407.0</ele><time>2026-04-19T08:38:48.148Z</time></trkpt><trkpt lat="41.2970367" lon="14.7285883"><ele>407.0</ele><time>2026-04-19T08:38:49.148Z</time></trkpt><trkpt lat="41.2971133" lon="14.7284633"><ele>407.0</ele><time>2026-04-19T08:38:50.148Z</time></trkpt><trkpt lat="41.2971883" lon="14.7283417"><ele>405.20000000000005</ele><time>2026-04-19T08:38:51.148Z</time></trkpt><trkpt lat="41.2972667" lon="14.7282267"><ele>403.4</ele><time>2026-04-19T08:38:52.147Z</time></trkpt><trkpt lat="41.2973417" lon="14.728115"><ele>401.6</ele><time>2026-04-19T08:38:53.148Z</time></trkpt><trkpt lat="41.29742" lon="14.7280167"><ele>399.79999999999995</ele><time>2026-04-19T08:38:54.148Z</time></trkpt><trkpt lat="41.2974967" lon="14.7279133"><ele>398.0</ele><time>2026-04-19T08:38:55.148Z</time></trkpt><trkpt lat="41.2975817" lon="14.7278183"><ele>398.79999999999995</ele><time>2026-04-19T08:38:56.148Z</time></trkpt><trkpt lat="41.2976567" lon="14.7277267"><ele>399.6</ele><time>2026-04-19T08:38:57.147Z</time></trkpt><trkpt lat="41.2977417" lon="14.7276433"><ele>400.4</ele><time>2026-04-19T08:38:58.147Z</time></trkpt><trkpt lat="41.2978267" lon="14.7275767"><ele>401.20000000000005</ele><time>2026-04-19T08:38:59.147Z</time></trkpt><trkpt lat="41.2979117" lon="14.72751"><ele>402.0</ele><time>2026-04-19T08:39:00.148Z</time></trkpt><trkpt lat="41.2979933" lon="14.7274433"><ele>402.0</ele><time>2026-04-19T08:39:01.148Z</time></trkpt><trkpt lat="41.2980817" lon="14.7273783"><ele>402.0</ele><time>2026-04-19T08:39:02.147Z</time></trkpt><trkpt lat="41.298165" lon="14.7273267"><ele>402.0</ele><time>2026-04-19T08:39:03.147Z</time></trkpt><trkpt lat="41.298255" lon="14.72729"><ele>402.0</ele><time>2026-04-19T08:39:04.147Z</time></trkpt><trkpt lat="41.29834" lon="14.7272567"><ele>402.0</ele><time>2026-04-19T08:39:05.147Z</time></trkpt><trkpt lat="41.2984167" lon="14.72723"><ele>399.0</ele><time>2026-04-19T08:39:06.148Z</time></trkpt><trkpt lat="41.2984867" lon="14.7272117"><ele>396.0</ele><time>2026-04-19T08:39:07.148Z</time></trkpt><trkpt lat="41.2985583" lon="14.7272"><ele>393.0</ele><time>2026-04-19T08:39:08.148Z</time></trkpt><trkpt lat="41.2986233" lon="14.7271883"><ele>390.0</ele><time>2026-04-19T08:39:09.148Z</time></trkpt><trkpt lat="41.2986917" lon="14.7271817"><ele>387.0</ele><time>2026-04-19T08:39:10.148Z</time></trkpt><trkpt lat="41.2987583" lon="14.72718"><ele>384.0</ele><time>2026-04-19T08:39:11.148Z</time></trkpt><trkpt lat="41.2988267" lon="14.7271833"><ele>381.0</ele><time>2026-04-19T08:39:12.148Z</time></trkpt><trkpt lat="41.2988967" lon="14.7271867"><ele>379.5</ele><time>2026-04-19T08:39:13.148Z</time></trkpt><trkpt lat="41.2989633" lon="14.727195"><ele>378.0</ele><time>2026-04-19T08:39:14.148Z</time></trkpt><trkpt lat="41.2990867" lon="14.7272133"><ele>376.5</ele><time>2026-04-19T08:39:16.148Z</time></trkpt><trkpt lat="41.2991517" lon="14.7272283"><ele>375.0</ele><time>2026-04-19T08:39:17.148Z</time></trkpt><trkpt lat="41.2992167" lon="14.7272467"><ele>373.5</ele><time>2026-04-19T08:39:18.148Z</time></trkpt><trkpt lat="41.2992883" lon="14.7272717"><ele>372.0</ele><time>2026-04-19T08:39:19.148Z</time></trkpt><trkpt lat="41.2993617" lon="14.7273033"><ele>372.0</ele><time>2026-04-19T08:39:20.148Z</time></trkpt><trkpt lat="41.2994317" lon="14.727335"><ele>372.0</ele><time>2026-04-19T08:39:21.147Z</time></trkpt><trkpt lat="41.2994983" lon="14.72737"><ele>372.0</ele><time>2026-04-19T08:39:22.148Z</time></trkpt><trkpt lat="41.2995617" lon="14.727405"><ele>372.0</ele><time>2026-04-19T08:39:23.148Z</time></trkpt><trkpt lat="41.2996217" lon="14.7274367"><ele>372.0</ele><time>2026-04-19T08:39:24.148Z</time></trkpt><trkpt lat="41.2997267" lon="14.7275017"><ele>372.0</ele><time>2026-04-19T08:39:26.147Z</time></trkpt><trkpt lat="41.2998217" lon="14.72756"><ele>373.8333333333333</ele><time>2026-04-19T08:39:28.148Z</time></trkpt><trkpt lat="41.2999" lon="14.7276067"><ele>375.6666666666667</ele><time>2026-04-19T08:39:30.148Z</time></trkpt><trkpt lat="41.299965" lon="14.7276467"><ele>377.5</ele><time>2026-04-19T08:39:32.148Z</time></trkpt><trkpt lat="41.3000283" lon="14.7276817"><ele>379.33333333333337</ele><time>2026-04-19T08:39:34.148Z</time></trkpt><trkpt lat="41.3001" lon="14.7277283"><ele>381.1666666666667</ele><time>2026-04-19T08:39:37.147Z</time></trkpt><trkpt lat="41.3001567" lon="14.727775"><ele>383.0</ele><time>2026-04-19T08:40:12.147Z</time></trkpt><trkpt lat="41.300225" lon="14.727825"><ele>383.0</ele><time>2026-04-19T08:40:14.148Z</time></trkpt><trkpt lat="41.3003283" lon="14.7278933"><ele>383.0</ele><time>2026-04-19T08:40:16.148Z</time></trkpt><trkpt lat="41.3004483" lon="14.7279467"><ele>383.0</ele><time>2026-04-19T08:40:18.147Z</time></trkpt><trkpt lat="41.3005233" lon="14.727975"><ele>383.0</ele><time>2026-04-19T08:40:19.148Z</time></trkpt><trkpt lat="41.3006017" lon="14.7279967"><ele>383.0</ele><time>2026-04-19T08:40:20.148Z</time></trkpt><trkpt lat="41.30069" lon="14.7280133"><ele>384.79999999999995</ele><time>2026-04-19T08:40:21.148Z</time></trkpt><trkpt lat="41.3007817" lon="14.72803"><ele>386.6</ele><time>2026-04-19T08:40:22.148Z</time></trkpt><trkpt lat="41.30087" lon="14.72804"><ele>388.4</ele><time>2026-04-19T08:40:23.148Z</time></trkpt><trkpt lat="41.3009583" lon="14.728045"><ele>390.20000000000005</ele><time>2026-04-19T08:40:24.147Z</time></trkpt><trkpt lat="41.3010567" lon="14.7280433"><ele>392.0</ele><time>2026-04-19T08:40:25.147Z</time></trkpt><trkpt lat="41.3011633" lon="14.72804"><ele>392.0</ele><time>2026-04-19T08:40:26.148Z</time></trkpt><trkpt lat="41.3012783" lon="14.7280283"><ele>392.0</ele><time>2026-04-19T08:40:27.148Z</time></trkpt><trkpt lat="41.3013983" lon="14.7280117"><ele>392.0</ele><time>2026-04-19T08:40:28.148Z</time></trkpt><trkpt lat="41.301525" lon="14.7279933"><ele>392.0</ele><time>2026-04-19T08:40:29.148Z</time></trkpt><trkpt lat="41.3016483" lon="14.72798"><ele>391.5</ele><time>2026-04-19T08:40:30.147Z</time></trkpt><trkpt lat="41.3017683" lon="14.7279683"><ele>391.0</ele><time>2026-04-19T08:40:31.148Z</time></trkpt><trkpt lat="41.3018933" lon="14.7279567"><ele>390.5</ele><time>2026-04-19T08:40:32.148Z</time></trkpt><trkpt lat="41.3020183" lon="14.7279517"><ele>390.0</ele><time>2026-04-19T08:40:33.148Z</time></trkpt><trkpt lat="41.302145" lon="14.727945"><ele>392.5</ele><time>2026-04-19T08:40:34.148Z</time></trkpt><trkpt lat="41.3022733" lon="14.7279533"><ele>395.0</ele><time>2026-04-19T08:40:35.147Z</time></trkpt><trkpt lat="41.3024033" lon="14.72797"><ele>397.5</ele><time>2026-04-19T08:40:36.148Z</time></trkpt><trkpt lat="41.3025283" lon="14.727985"><ele>400.0</ele><time>2026-04-19T08:40:37.148Z</time></trkpt><trkpt lat="41.30266" lon="14.7280133"><ele>400.0</ele><time>2026-04-19T08:40:38.148Z</time></trkpt><trkpt lat="41.30279" lon="14.7280483"><ele>400.0</ele><time>2026-04-19T08:40:39.147Z</time></trkpt><trkpt lat="41.3029133" lon="14.7280917"><ele>400.0</ele><time>2026-04-19T08:40:40.148Z</time></trkpt><trkpt lat="41.3030317" lon="14.7281467"><ele>400.0</ele><time>2026-04-19T08:40:41.148Z</time></trkpt><trkpt lat="41.3031483" lon="14.7282083"><ele>401.75</ele><time>2026-04-19T08:40:42.148Z</time></trkpt><trkpt lat="41.3032617" lon="14.7282833"><ele>403.5</ele><time>2026-04-19T08:40:43.148Z</time></trkpt><trkpt lat="41.3033767" lon="14.7283583"><ele>405.25</ele><time>2026-04-19T08:40:44.148Z</time></trkpt><trkpt lat="41.3034883" lon="14.72843"><ele>407.0</ele><time>2026-04-19T08:40:45.148Z</time></trkpt><trkpt lat="41.3035967" lon="14.728515"><ele>407.25</ele><time>2026-04-19T08:40:46.148Z</time></trkpt><trkpt lat="41.3037017" lon="14.7286067"><ele>407.5</ele><time>2026-04-19T08:40:47.148Z</time></trkpt><trkpt lat="41.3038067" lon="14.728715"><ele>407.75</ele><time>2026-04-19T08:40:48.147Z</time></trkpt><trkpt lat="41.3039067" lon="14.7288217"><ele>408.0</ele><time>2026-04-19T08:40:49.148Z</time></trkpt><trkpt lat="41.3040067" lon="14.7289317"><ele>408.0</ele><time>2026-04-19T08:40:50.147Z</time></trkpt><trkpt lat="41.3041083" lon="14.7290467"><ele>408.0</ele><time>2026-04-19T08:40:51.148Z</time></trkpt><trkpt lat="41.3042017" lon="14.72917"><ele>408.0</ele><time>2026-04-19T08:40:52.147Z</time></trkpt><trkpt lat="41.3042983" lon="14.729295"><ele>408.0</ele><time>2026-04-19T08:40:53.147Z</time></trkpt><trkpt lat="41.304395" lon="14.7294233"><ele>408.25</ele><time>2026-04-19T08:40:54.147Z</time></trkpt><trkpt lat="41.30449" lon="14.729545"><ele>408.5</ele><time>2026-04-19T08:40:55.148Z</time></trkpt><trkpt lat="41.3045867" lon="14.7296683"><ele>408.75</ele><time>2026-04-19T08:40:56.147Z</time></trkpt><trkpt lat="41.3046833" lon="14.7297867"><ele>409.0</ele><time>2026-04-19T08:40:57.148Z</time></trkpt><trkpt lat="41.3047867" lon="14.7299117"><ele>409.0</ele><time>2026-04-19T08:40:58.148Z</time></trkpt><trkpt lat="41.3048867" lon="14.7300367"><ele>409.0</ele><time>2026-04-19T08:40:59.148Z</time></trkpt><trkpt lat="41.3049933" lon="14.7301483"><ele>409.0</ele><time>2026-04-19T08:41:00.147Z</time></trkpt><trkpt lat="41.3050967" lon="14.73026"><ele>409.0</ele><time>2026-04-19T08:41:01.147Z</time></trkpt><trkpt lat="41.3052083" lon="14.7303583"><ele>406.5</ele><time>2026-04-19T08:41:02.147Z</time></trkpt><trkpt lat="41.305325" lon="14.7304333"><ele>404.0</ele><time>2026-04-19T08:41:03.147Z</time></trkpt><trkpt lat="41.3054467" lon="14.7304933"><ele>401.5</ele><time>2026-04-19T08:41:04.147Z</time></trkpt><trkpt lat="41.30558" lon="14.7305317"><ele>399.0</ele><time>2026-04-19T08:41:05.148Z</time></trkpt><trkpt lat="41.3057083" lon="14.730555"><ele>399.0</ele><time>2026-04-19T08:41:06.148Z</time></trkpt><trkpt lat="41.3058517" lon="14.7305583"><ele>399.0</ele><time>2026-04-19T08:41:07.148Z</time></trkpt><trkpt lat="41.30599" lon="14.730545"><ele>399.0</ele><time>2026-04-19T08:41:08.148Z</time></trkpt><trkpt lat="41.30613" lon="14.7305217"><ele>399.0</ele><time>2026-04-19T08:41:09.148Z</time></trkpt><trkpt lat="41.3062617" lon="14.7304833"><ele>399.0</ele><time>2026-04-19T08:41:10.147Z</time></trkpt><trkpt lat="41.3063933" lon="14.730445"><ele>399.0</ele><time>2026-04-19T08:41:11.147Z</time></trkpt><trkpt lat="41.3065183" lon="14.7304033"><ele>399.0</ele><time>2026-04-19T08:41:12.148Z</time></trkpt><trkpt lat="41.306645" lon="14.7303583"><ele>399.0</ele><time>2026-04-19T08:41:13.148Z</time></trkpt><trkpt lat="41.30676" lon="14.7303233"><ele>399.0</ele><time>2026-04-19T08:41:14.148Z</time></trkpt><trkpt lat="41.3068817" lon="14.7302867"><ele>399.0</ele><time>2026-04-19T08:41:15.148Z</time></trkpt><trkpt lat="41.3070033" lon="14.73025"><ele>399.0</ele><time>2026-04-19T08:41:16.148Z</time></trkpt><trkpt lat="41.3071217" lon="14.7302117"><ele>399.0</ele><time>2026-04-19T08:41:17.148Z</time></trkpt><trkpt lat="41.3072467" lon="14.73018"><ele>400.75</ele><time>2026-04-19T08:41:18.148Z</time></trkpt><trkpt lat="41.30737" lon="14.7301483"><ele>402.5</ele><time>2026-04-19T08:41:19.148Z</time></trkpt><trkpt lat="41.3074883" lon="14.73011"><ele>404.25</ele><time>2026-04-19T08:41:20.147Z</time></trkpt><trkpt lat="41.3076117" lon="14.73007"><ele>406.0</ele><time>2026-04-19T08:41:21.148Z</time></trkpt><trkpt lat="41.3077333" lon="14.7300367"><ele>406.0</ele><time>2026-04-19T08:41:22.148Z</time></trkpt><trkpt lat="41.3078583" lon="14.73"><ele>406.0</ele><time>2026-04-19T08:41:23.148Z</time></trkpt><trkpt lat="41.307975" lon="14.729965"><ele>406.0</ele><time>2026-04-19T08:41:24.148Z</time></trkpt><trkpt lat="41.308085" lon="14.7299183"><ele>406.0</ele><time>2026-04-19T08:41:25.148Z</time></trkpt><trkpt lat="41.3081883" lon="14.7298633"><ele>405.0</ele><time>2026-04-19T08:41:26.148Z</time></trkpt><trkpt lat="41.308295" lon="14.7298"><ele>404.0</ele><time>2026-04-19T08:41:27.148Z</time></trkpt><trkpt lat="41.3084" lon="14.7297283"><ele>403.0</ele><time>2026-04-19T08:41:28.148Z</time></trkpt><trkpt lat="41.3085017" lon="14.7296483"><ele>402.0</ele><time>2026-04-19T08:41:29.147Z</time></trkpt><trkpt lat="41.3085983" lon="14.72956"><ele>402.0</ele><time>2026-04-19T08:41:30.148Z</time></trkpt><trkpt lat="41.3086983" lon="14.72947"><ele>402.0</ele><time>2026-04-19T08:41:31.148Z</time></trkpt><trkpt lat="41.3087967" lon="14.7293733"><ele>402.0</ele><time>2026-04-19T08:41:32.148Z</time></trkpt><trkpt lat="41.3088967" lon="14.7292717"><ele>402.0</ele><time>2026-04-19T08:41:33.148Z</time></trkpt><trkpt lat="41.3090017" lon="14.7291667"><ele>403.5</ele><time>2026-04-19T08:41:34.147Z</time></trkpt><trkpt lat="41.309105" lon="14.7290717"><ele>405.0</ele><time>2026-04-19T08:41:35.148Z</time></trkpt><trkpt lat="41.3092133" lon="14.72899"><ele>406.5</ele><time>2026-04-19T08:41:36.148Z</time></trkpt><trkpt lat="41.3093167" lon="14.7289283"><ele>408.0</ele><time>2026-04-19T08:41:37.148Z</time></trkpt><trkpt lat="41.309415" lon="14.728865"><ele>408.0</ele><time>2026-04-19T08:41:38.148Z</time></trkpt><trkpt lat="41.3095183" lon="14.7288133"><ele>408.0</ele><time>2026-04-19T08:41:39.147Z</time></trkpt><trkpt lat="41.3096333" lon="14.72876"><ele>408.0</ele><time>2026-04-19T08:41:40.148Z</time></trkpt><trkpt lat="41.3097533" lon="14.7287217"><ele>408.0</ele><time>2026-04-19T08:41:41.148Z</time></trkpt><trkpt lat="41.3098733" lon="14.7286967"><ele>404.75</ele><time>2026-04-19T08:41:42.147Z</time></trkpt><trkpt lat="41.3099983" lon="14.7286917"><ele>401.5</ele><time>2026-04-19T08:41:43.148Z</time></trkpt><trkpt lat="41.3101317" lon="14.7287067"><ele>398.25</ele><time>2026-04-19T08:41:44.148Z</time></trkpt><trkpt lat="41.3102717" lon="14.7287267"><ele>395.0</ele><time>2026-04-19T08:41:45.148Z</time></trkpt><trkpt lat="41.3104117" lon="14.7287567"><ele>395.0</ele><time>2026-04-19T08:41:46.148Z</time></trkpt><trkpt lat="41.3105517" lon="14.72878"><ele>395.0</ele><time>2026-04-19T08:41:47.148Z</time></trkpt><trkpt lat="41.310695" lon="14.7288117"><ele>395.0</ele><time>2026-04-19T08:41:48.148Z</time></trkpt><trkpt lat="41.3108383" lon="14.7288517"><ele>395.0</ele><time>2026-04-19T08:41:49.148Z</time></trkpt><trkpt lat="41.3109867" lon="14.7288917"><ele>394.5</ele><time>2026-04-19T08:41:50.147Z</time></trkpt><trkpt lat="41.3111367" lon="14.7289317"><ele>394.0</ele><time>2026-04-19T08:41:51.147Z</time></trkpt><trkpt lat="41.31128" lon="14.7289567"><ele>393.5</ele><time>2026-04-19T08:41:52.148Z</time></trkpt><trkpt lat="41.3114267" lon="14.7289967"><ele>393.0</ele><time>2026-04-19T08:41:53.148Z</time></trkpt><trkpt lat="41.3115717" lon="14.7290383"><ele>391.5</ele><time>2026-04-19T08:41:54.148Z</time></trkpt><trkpt lat="41.3117117" lon="14.72908"><ele>390.0</ele><time>2026-04-19T08:41:55.148Z</time></trkpt><trkpt lat="41.3118533" lon="14.7291317"><ele>388.5</ele><time>2026-04-19T08:41:56.147Z</time></trkpt><trkpt lat="41.3119933" lon="14.7291967"><ele>387.0</ele><time>2026-04-19T08:41:57.147Z</time></trkpt><trkpt lat="41.3121283" lon="14.7292683"><ele>389.75</ele><time>2026-04-19T08:41:58.148Z</time></trkpt><trkpt lat="41.31225" lon="14.7293567"><ele>392.5</ele><time>2026-04-19T08:41:59.148Z</time></trkpt><trkpt lat="41.31237" lon="14.7294583"><ele>395.25</ele><time>2026-04-19T08:42:00.147Z</time></trkpt><trkpt lat="41.312485" lon="14.729565"><ele>398.0</ele><time>2026-04-19T08:42:01.147Z</time></trkpt><trkpt lat="41.3125967" lon="14.7296867"><ele>398.0</ele><time>2026-04-19T08:42:02.148Z</time></trkpt><trkpt lat="41.3127" lon="14.7298217"><ele>398.0</ele><time>2026-04-19T08:42:03.148Z</time></trkpt><trkpt lat="41.3127967" lon="14.7299583"><ele>398.0</ele><time>2026-04-19T08:42:04.147Z</time></trkpt><trkpt lat="41.3128867" lon="14.7301"><ele>398.0</ele><time>2026-04-19T08:42:05.148Z</time></trkpt><trkpt lat="41.3129683" lon="14.7302533"><ele>397.0</ele><time>2026-04-19T08:42:06.148Z</time></trkpt><trkpt lat="41.3130483" lon="14.7304083"><ele>396.0</ele><time>2026-04-19T08:42:07.148Z</time></trkpt><trkpt lat="41.3131267" lon="14.7305767"><ele>395.0</ele><time>2026-04-19T08:42:08.148Z</time></trkpt><trkpt lat="41.3132117" lon="14.7307417"><ele>394.0</ele><time>2026-04-19T08:42:09.148Z</time></trkpt><trkpt lat="41.313295" lon="14.7308983"><ele>395.25</ele><time>2026-04-19T08:42:10.147Z</time></trkpt><trkpt lat="41.31338" lon="14.7310417"><ele>396.5</ele><time>2026-04-19T08:42:11.148Z</time></trkpt><trkpt lat="41.3134733" lon="14.7311733"><ele>397.75</ele><time>2026-04-19T08:42:12.148Z</time></trkpt><trkpt lat="41.3135667" lon="14.7312933"><ele>399.0</ele><time>2026-04-19T08:42:13.148Z</time></trkpt><trkpt lat="41.31367" lon="14.7314"><ele>399.0</ele><time>2026-04-19T08:42:14.147Z</time></trkpt><trkpt lat="41.3137733" lon="14.7314883"><ele>399.0</ele><time>2026-04-19T08:42:15.147Z</time></trkpt><trkpt lat="41.3138867" lon="14.7315633"><ele>399.0</ele><time>2026-04-19T08:42:16.147Z</time></trkpt><trkpt lat="41.3139967" lon="14.7316217"><ele>399.0</ele><time>2026-04-19T08:42:17.147Z</time></trkpt><trkpt lat="41.314105" lon="14.731665"><ele>400.0</ele><time>2026-04-19T08:42:18.147Z</time></trkpt><trkpt lat="41.3142183" lon="14.7316983"><ele>401.0</ele><time>2026-04-19T08:42:19.148Z</time></trkpt><trkpt lat="41.3143333" lon="14.7317117"><ele>402.0</ele><time>2026-04-19T08:42:20.147Z</time></trkpt><trkpt lat="41.3144483" lon="14.73171"><ele>403.0</ele><time>2026-04-19T08:42:21.147Z</time></trkpt><trkpt lat="41.3145667" lon="14.7316883"><ele>403.0</ele><time>2026-04-19T08:42:22.147Z</time></trkpt><trkpt lat="41.3146867" lon="14.7316467"><ele>403.0</ele><time>2026-04-19T08:42:23.148Z</time></trkpt><trkpt lat="41.3148117" lon="14.7316"><ele>403.0</ele><time>2026-04-19T08:42:24.147Z</time></trkpt><trkpt lat="41.314935" lon="14.7315467"><ele>403.0</ele><time>2026-04-19T08:42:25.148Z</time></trkpt><trkpt lat="41.31506" lon="14.7314817"><ele>403.25</ele><time>2026-04-19T08:42:26.148Z</time></trkpt><trkpt lat="41.31518" lon="14.7314067"><ele>403.5</ele><time>2026-04-19T08:42:27.148Z</time></trkpt><trkpt lat="41.3153033" lon="14.7313333"><ele>403.75</ele><time>2026-04-19T08:42:28.148Z</time></trkpt><trkpt lat="41.3154317" lon="14.7312567"><ele>404.0</ele><time>2026-04-19T08:42:29.148Z</time></trkpt><trkpt lat="41.3155567" lon="14.7311867"><ele>404.75</ele><time>2026-04-19T08:42:30.148Z</time></trkpt><trkpt lat="41.3156883" lon="14.73112"><ele>405.5</ele><time>2026-04-19T08:42:31.148Z</time></trkpt><trkpt lat="41.3158117" lon="14.7310533"><ele>406.25</ele><time>2026-04-19T08:42:32.148Z</time></trkpt><trkpt lat="41.31595" lon="14.7309917"><ele>407.0</ele><time>2026-04-19T08:42:33.148Z</time></trkpt><trkpt lat="41.31609" lon="14.7309533"><ele>407.0</ele><time>2026-04-19T08:42:34.147Z</time></trkpt><trkpt lat="41.316225" lon="14.7309267"><ele>407.0</ele><time>2026-04-19T08:42:35.148Z</time></trkpt><trkpt lat="41.3163583" lon="14.73091"><ele>407.0</ele><time>2026-04-19T08:42:36.147Z</time></trkpt><trkpt lat="41.3164917" lon="14.7309117"><ele>407.0</ele><time>2026-04-19T08:42:37.148Z</time></trkpt><trkpt lat="41.31662" lon="14.7309217"><ele>402.75</ele><time>2026-04-19T08:42:38.148Z</time></trkpt><trkpt lat="41.31675" lon="14.7309417"><ele>398.5</ele><time>2026-04-19T08:42:39.148Z</time></trkpt><trkpt lat="41.31688" lon="14.7309883"><ele>394.25</ele><time>2026-04-19T08:42:40.148Z</time></trkpt><trkpt lat="41.3170083" lon="14.7310433"><ele>390.0</ele><time>2026-04-19T08:42:41.148Z</time></trkpt><trkpt lat="41.3171367" lon="14.7311017"><ele>389.75</ele><time>2026-04-19T08:42:42.148Z</time></trkpt><trkpt lat="41.3172633" lon="14.7311767"><ele>389.5</ele><time>2026-04-19T08:42:43.148Z</time></trkpt><trkpt lat="41.31739" lon="14.731255"><ele>389.25</ele><time>2026-04-19T08:42:44.148Z</time></trkpt><trkpt lat="41.3175017" lon="14.7313467"><ele>389.0</ele><time>2026-04-19T08:42:45.148Z</time></trkpt><trkpt lat="41.31761" lon="14.731435"><ele>389.0</ele><time>2026-04-19T08:42:46.147Z</time></trkpt><trkpt lat="41.3177267" lon="14.7315217"><ele>389.0</ele><time>2026-04-19T08:42:47.148Z</time></trkpt><trkpt lat="41.3178433" lon="14.7316117"><ele>389.0</ele><time>2026-04-19T08:42:48.148Z</time></trkpt><trkpt lat="41.3179517" lon="14.7317"><ele>389.0</ele><time>2026-04-19T08:42:49.148Z</time></trkpt><trkpt lat="41.3180567" lon="14.7317833"><ele>390.0</ele><time>2026-04-19T08:42:50.148Z</time></trkpt><trkpt lat="41.3181633" lon="14.7318733"><ele>391.0</ele><time>2026-04-19T08:42:51.148Z</time></trkpt><trkpt lat="41.3182717" lon="14.73196"><ele>392.0</ele><time>2026-04-19T08:42:52.147Z</time></trkpt><trkpt lat="41.3183733" lon="14.732035"><ele>393.0</ele><time>2026-04-19T08:42:53.148Z</time></trkpt><trkpt lat="41.3184817" lon="14.7321217"><ele>393.0</ele><time>2026-04-19T08:42:54.148Z</time></trkpt><trkpt lat="41.318585" lon="14.732215"><ele>393.0</ele><time>2026-04-19T08:42:55.147Z</time></trkpt><trkpt lat="41.3186967" lon="14.7322967"><ele>393.0</ele><time>2026-04-19T08:42:56.147Z</time></trkpt><trkpt lat="41.3188167" lon="14.7323733"><ele>393.0</ele><time>2026-04-19T08:42:57.148Z</time></trkpt><trkpt lat="41.3189317" lon="14.73244"><ele>394.5</ele><time>2026-04-19T08:42:58.147Z</time></trkpt><trkpt lat="41.3190417" lon="14.7324933"><ele>396.0</ele><time>2026-04-19T08:42:59.148Z</time></trkpt><trkpt lat="41.3191583" lon="14.7325283"><ele>397.5</ele><time>2026-04-19T08:43:00.148Z</time></trkpt><trkpt lat="41.319275" lon="14.7325567"><ele>399.0</ele><time>2026-04-19T08:43:01.148Z</time></trkpt><trkpt lat="41.3193917" lon="14.7325767"><ele>399.0</ele><time>2026-04-19T08:43:02.148Z</time></trkpt><trkpt lat="41.3195083" lon="14.7325967"><ele>399.0</ele><time>2026-04-19T08:43:03.148Z</time></trkpt><trkpt lat="41.3196233" lon="14.7326133"><ele>399.0</ele><time>2026-04-19T08:43:04.147Z</time></trkpt><trkpt lat="41.31974" lon="14.73263"><ele>399.0</ele><time>2026-04-19T08:43:05.147Z</time></trkpt><trkpt lat="41.3198583" lon="14.7326567"><ele>401.0</ele><time>2026-04-19T08:43:06.148Z</time></trkpt><trkpt lat="41.3199783" lon="14.7326817"><ele>403.0</ele><time>2026-04-19T08:43:07.148Z</time></trkpt><trkpt lat="41.3200933" lon="14.7327017"><ele>405.0</ele><time>2026-04-19T08:43:08.148Z</time></trkpt><trkpt lat="41.3202117" lon="14.732725"><ele>407.0</ele><time>2026-04-19T08:43:09.148Z</time></trkpt><trkpt lat="41.3203267" lon="14.7327417"><ele>406.0</ele><time>2026-04-19T08:43:10.148Z</time></trkpt><trkpt lat="41.3204417" lon="14.7327383"><ele>405.0</ele><time>2026-04-19T08:43:11.148Z</time></trkpt><trkpt lat="41.3205617" lon="14.7327267"><ele>404.0</ele><time>2026-04-19T08:43:12.148Z</time></trkpt><trkpt lat="41.320685" lon="14.7326983"><ele>403.0</ele><time>2026-04-19T08:43:13.148Z</time></trkpt><trkpt lat="41.3208067" lon="14.73266"><ele>403.0</ele><time>2026-04-19T08:43:14.148Z</time></trkpt><trkpt lat="41.3209317" lon="14.7326167"><ele>403.0</ele><time>2026-04-19T08:43:15.148Z</time></trkpt><trkpt lat="41.321055" lon="14.732565"><ele>403.0</ele><time>2026-04-19T08:43:16.147Z</time></trkpt><trkpt lat="41.321175" lon="14.73251"><ele>403.0</ele><time>2026-04-19T08:43:17.147Z</time></trkpt><trkpt lat="41.3212983" lon="14.732455"><ele>402.0</ele><time>2026-04-19T08:43:18.147Z</time></trkpt><trkpt lat="41.3214217" lon="14.7324183"><ele>401.0</ele><time>2026-04-19T08:43:19.148Z</time></trkpt><trkpt lat="41.3215483" lon="14.7323983"><ele>400.0</ele><time>2026-04-19T08:43:20.148Z</time></trkpt><trkpt lat="41.321675" lon="14.73239"><ele>399.0</ele><time>2026-04-19T08:43:21.147Z</time></trkpt><trkpt lat="41.3218" lon="14.7323883"><ele>399.0</ele><time>2026-04-19T08:43:22.147Z</time></trkpt><trkpt lat="41.3219267" lon="14.7323917"><ele>399.0</ele><time>2026-04-19T08:43:23.147Z</time></trkpt><trkpt lat="41.322065" lon="14.7323917"><ele>399.0</ele><time>2026-04-19T08:43:24.147Z</time></trkpt><trkpt lat="41.3222033" lon="14.7323933"><ele>399.0</ele><time>2026-04-19T08:43:25.148Z</time></trkpt><trkpt lat="41.3223383" lon="14.732395"><ele>398.25</ele><time>2026-04-19T08:43:26.148Z</time></trkpt><trkpt lat="41.3224683" lon="14.732395"><ele>397.5</ele><time>2026-04-19T08:43:27.148Z</time></trkpt><trkpt lat="41.322595" lon="14.7323817"><ele>396.75</ele><time>2026-04-19T08:43:28.148Z</time></trkpt><trkpt lat="41.3227233" lon="14.7323533"><ele>396.0</ele><time>2026-04-19T08:43:29.147Z</time></trkpt><trkpt lat="41.3228567" lon="14.7323183"><ele>396.0</ele><time>2026-04-19T08:43:30.148Z</time></trkpt><trkpt lat="41.3229833" lon="14.7322783"><ele>396.0</ele><time>2026-04-19T08:43:31.147Z</time></trkpt><trkpt lat="41.32311" lon="14.7322367"><ele>396.0</ele><time>2026-04-19T08:43:32.148Z</time></trkpt><trkpt lat="41.3232317" lon="14.732195"><ele>396.0</ele><time>2026-04-19T08:43:33.147Z</time></trkpt><trkpt lat="41.3233567" lon="14.73215"><ele>394.25</ele><time>2026-04-19T08:43:34.148Z</time></trkpt><trkpt lat="41.32349" lon="14.7321117"><ele>392.5</ele><time>2026-04-19T08:43:35.148Z</time></trkpt><trkpt lat="41.3236183" lon="14.7320817"><ele>390.75</ele><time>2026-04-19T08:43:36.148Z</time></trkpt><trkpt lat="41.3237467" lon="14.732055"><ele>389.0</ele><time>2026-04-19T08:43:37.148Z</time></trkpt><trkpt lat="41.323875" lon="14.7320333"><ele>388.5</ele><time>2026-04-19T08:43:38.147Z</time></trkpt><trkpt lat="41.3240033" lon="14.732025"><ele>388.0</ele><time>2026-04-19T08:43:39.147Z</time></trkpt><trkpt lat="41.3241333" lon="14.7320233"><ele>387.5</ele><time>2026-04-19T08:43:40.147Z</time></trkpt><trkpt lat="41.3242683" lon="14.7320233"><ele>387.0</ele><time>2026-04-19T08:43:41.148Z</time></trkpt><trkpt lat="41.3244033" lon="14.7320217"><ele>387.0</ele><time>2026-04-19T08:43:42.147Z</time></trkpt><trkpt lat="41.3245417" lon="14.7320183"><ele>387.0</ele><time>2026-04-19T08:43:43.147Z</time></trkpt><trkpt lat="41.3246733" lon="14.7320033"><ele>387.0</ele><time>2026-04-19T08:43:44.148Z</time></trkpt><trkpt lat="41.3248067" lon="14.7319733"><ele>387.0</ele><time>2026-04-19T08:43:45.147Z</time></trkpt><trkpt lat="41.3249283" lon="14.7319317"><ele>389.0</ele><time>2026-04-19T08:43:46.148Z</time></trkpt><trkpt lat="41.3250433" lon="14.7318767"><ele>391.0</ele><time>2026-04-19T08:43:47.148Z</time></trkpt><trkpt lat="41.3251617" lon="14.7318067"><ele>393.0</ele><time>2026-04-19T08:43:48.148Z</time></trkpt><trkpt lat="41.32527" lon="14.7317283"><ele>395.0</ele><time>2026-04-19T08:43:49.148Z</time></trkpt><trkpt lat="41.3253783" lon="14.7316367"><ele>395.0</ele><time>2026-04-19T08:43:50.147Z</time></trkpt><trkpt lat="41.3254833" lon="14.731525"><ele>395.0</ele><time>2026-04-19T08:43:51.148Z</time></trkpt><trkpt lat="41.3255833" lon="14.7313967"><ele>395.0</ele><time>2026-04-19T08:43:52.148Z</time></trkpt><trkpt lat="41.3256783" lon="14.7312667"><ele>395.0</ele><time>2026-04-19T08:43:53.147Z</time></trkpt><trkpt lat="41.325775" lon="14.7311317"><ele>394.0</ele><time>2026-04-19T08:43:54.148Z</time></trkpt><trkpt lat="41.325875" lon="14.7309867"><ele>393.0</ele><time>2026-04-19T08:43:55.147Z</time></trkpt><trkpt lat="41.325965" lon="14.730845"><ele>392.0</ele><time>2026-04-19T08:43:56.148Z</time></trkpt><trkpt lat="41.3260617" lon="14.7306967"><ele>391.0</ele><time>2026-04-19T08:43:57.148Z</time></trkpt><trkpt lat="41.32616" lon="14.730555"><ele>391.0</ele><time>2026-04-19T08:43:58.148Z</time></trkpt><trkpt lat="41.3262583" lon="14.7304183"><ele>391.0</ele><time>2026-04-19T08:43:59.148Z</time></trkpt><trkpt lat="41.326355" lon="14.7302733"><ele>391.0</ele><time>2026-04-19T08:44:00.147Z</time></trkpt><trkpt lat="41.3264567" lon="14.730135"><ele>391.0</ele><time>2026-04-19T08:44:01.147Z</time></trkpt><trkpt lat="41.32657" lon="14.7300083"><ele>389.5</ele><time>2026-04-19T08:44:02.148Z</time></trkpt><trkpt lat="41.326685" lon="14.7298733"><ele>388.0</ele><time>2026-04-19T08:44:03.148Z</time></trkpt><trkpt lat="41.3268" lon="14.7297517"><ele>386.5</ele><time>2026-04-19T08:44:04.147Z</time></trkpt><trkpt lat="41.3269083" lon="14.7296267"><ele>385.0</ele><time>2026-04-19T08:44:05.148Z</time></trkpt><trkpt lat="41.327025" lon="14.72949"><ele>386.0</ele><time>2026-04-19T08:44:06.147Z</time></trkpt><trkpt lat="41.3271433" lon="14.729355"><ele>387.0</ele><time>2026-04-19T08:44:07.147Z</time></trkpt><trkpt lat="41.327265" lon="14.729225"><ele>388.0</ele><time>2026-04-19T08:44:08.147Z</time></trkpt><trkpt lat="41.32739" lon="14.7290917"><ele>388.0</ele><time>2026-04-19T08:44:09.147Z</time></trkpt><trkpt lat="41.32751" lon="14.7289617"><ele>388.0</ele><time>2026-04-19T08:44:10.147Z</time></trkpt><trkpt lat="41.32762" lon="14.7288217"><ele>388.0</ele><time>2026-04-19T08:44:11.148Z</time></trkpt><trkpt lat="41.3277233" lon="14.7286817"><ele>390.25</ele><time>2026-04-19T08:44:12.148Z</time></trkpt><trkpt lat="41.3278133" lon="14.72854"><ele>392.5</ele><time>2026-04-19T08:44:13.147Z</time></trkpt><trkpt lat="41.3278933" lon="14.7284"><ele>394.75</ele><time>2026-04-19T08:44:14.148Z</time></trkpt><trkpt lat="41.3279733" lon="14.7282483"><ele>397.0</ele><time>2026-04-19T08:44:15.148Z</time></trkpt><trkpt lat="41.3280383" lon="14.7280933"><ele>395.5</ele><time>2026-04-19T08:44:16.147Z</time></trkpt><trkpt lat="41.32809" lon="14.7279333"><ele>394.0</ele><time>2026-04-19T08:44:17.148Z</time></trkpt><trkpt lat="41.3281333" lon="14.7277617"><ele>392.5</ele><time>2026-04-19T08:44:18.147Z</time></trkpt><trkpt lat="41.3281733" lon="14.727585"><ele>391.0</ele><time>2026-04-19T08:44:19.148Z</time></trkpt><trkpt lat="41.3282033" lon="14.72741"><ele>391.0</ele><time>2026-04-19T08:44:20.148Z</time></trkpt><trkpt lat="41.328225" lon="14.7272317"><ele>391.0</ele><time>2026-04-19T08:44:21.148Z</time></trkpt><trkpt lat="41.3282283" lon="14.7270517"><ele>391.0</ele><time>2026-04-19T08:44:22.148Z</time></trkpt><trkpt lat="41.3282267" lon="14.7268717"><ele>391.0</ele><time>2026-04-19T08:44:23.148Z</time></trkpt><trkpt lat="41.3282217" lon="14.726685"><ele>391.0</ele><time>2026-04-19T08:44:24.147Z</time></trkpt><trkpt lat="41.3282183" lon="14.72649"><ele>391.0</ele><time>2026-04-19T08:44:25.148Z</time></trkpt><trkpt lat="41.328205" lon="14.7263"><ele>391.0</ele><time>2026-04-19T08:44:26.147Z</time></trkpt><trkpt lat="41.3281917" lon="14.72611"><ele>391.0</ele><time>2026-04-19T08:44:27.148Z</time></trkpt><trkpt lat="41.3281817" lon="14.7259167"><ele>390.33333333333337</ele><time>2026-04-19T08:44:28.148Z</time></trkpt><trkpt lat="41.328165" lon="14.7257167"><ele>389.66666666666663</ele><time>2026-04-19T08:44:29.148Z</time></trkpt><trkpt lat="41.3281567" lon="14.7255133"><ele>389.0</ele><time>2026-04-19T08:44:30.147Z</time></trkpt><trkpt lat="41.3281533" lon="14.72531"><ele>389.66666666666663</ele><time>2026-04-19T08:44:31.148Z</time></trkpt><trkpt lat="41.32815" lon="14.7251067"><ele>390.33333333333337</ele><time>2026-04-19T08:44:32.148Z</time></trkpt><trkpt lat="41.328145" lon="14.7249"><ele>391.0</ele><time>2026-04-19T08:44:33.148Z</time></trkpt><trkpt lat="41.328145" lon="14.72469"><ele>391.0</ele><time>2026-04-19T08:44:34.148Z</time></trkpt><trkpt lat="41.3281533" lon="14.7244783"><ele>391.0</ele><time>2026-04-19T08:44:35.148Z</time></trkpt><trkpt lat="41.3281617" lon="14.7242633"><ele>391.0</ele><time>2026-04-19T08:44:36.148Z</time></trkpt><trkpt lat="41.32818" lon="14.72405"><ele>390.6666666666667</ele><time>2026-04-19T08:44:37.147Z</time></trkpt><trkpt lat="41.3282017" lon="14.7238333"><ele>390.33333333333337</ele><time>2026-04-19T08:44:38.148Z</time></trkpt><trkpt lat="41.32823" lon="14.7236167"><ele>390.0</ele><time>2026-04-19T08:44:39.147Z</time></trkpt><trkpt lat="41.3282667" lon="14.72341"><ele>390.66666666666663</ele><time>2026-04-19T08:44:40.148Z</time></trkpt><trkpt lat="41.3283117" lon="14.7232083"><ele>391.3333333333333</ele><time>2026-04-19T08:44:41.148Z</time></trkpt><trkpt lat="41.3283617" lon="14.723015"><ele>392.0</ele><time>2026-04-19T08:44:42.148Z</time></trkpt><trkpt lat="41.3284217" lon="14.7228333"><ele>391.0</ele><time>2026-04-19T08:44:43.148Z</time></trkpt><trkpt lat="41.3284833" lon="14.722655"><ele>390.0</ele><time>2026-04-19T08:44:44.148Z</time></trkpt><trkpt lat="41.328565" lon="14.7224783"><ele>389.0</ele><time>2026-04-19T08:44:45.148Z</time></trkpt><trkpt lat="41.3286467" lon="14.7223033"><ele>389.0</ele><time>2026-04-19T08:44:46.148Z</time></trkpt><trkpt lat="41.3287333" lon="14.7221317"><ele>389.0</ele><time>2026-04-19T08:44:47.147Z</time></trkpt><trkpt lat="41.3288283" lon="14.721965"><ele>389.0</ele><time>2026-04-19T08:44:48.148Z</time></trkpt><trkpt lat="41.328925" lon="14.7217967"><ele>389.0</ele><time>2026-04-19T08:44:49.148Z</time></trkpt><trkpt lat="41.329025" lon="14.7216433"><ele>389.0</ele><time>2026-04-19T08:44:50.148Z</time></trkpt><trkpt lat="41.32913" lon="14.7214883"><ele>389.0</ele><time>2026-04-19T08:44:51.147Z</time></trkpt><trkpt lat="41.3292333" lon="14.7213317"><ele>389.0</ele><time>2026-04-19T08:44:52.148Z</time></trkpt><trkpt lat="41.3293483" lon="14.7211867"><ele>389.0</ele><time>2026-04-19T08:44:53.148Z</time></trkpt><trkpt lat="41.3294633" lon="14.72104"><ele>389.0</ele><time>2026-04-19T08:44:54.148Z</time></trkpt><trkpt lat="41.3295717" lon="14.7208983"><ele>387.66666666666663</ele><time>2026-04-19T08:44:55.147Z</time></trkpt><trkpt lat="41.3296883" lon="14.720745"><ele>386.33333333333337</ele><time>2026-04-19T08:44:56.148Z</time></trkpt><trkpt lat="41.3298033" lon="14.7205967"><ele>385.0</ele><time>2026-04-19T08:44:57.147Z</time></trkpt><trkpt lat="41.3299133" lon="14.72046"><ele>385.0</ele><time>2026-04-19T08:44:58.148Z</time></trkpt><trkpt lat="41.3300217" lon="14.7203283"><ele>385.0</ele><time>2026-04-19T08:44:59.148Z</time></trkpt><trkpt lat="41.33013" lon="14.7201983"><ele>385.0</ele><time>2026-04-19T08:45:00.148Z</time></trkpt><trkpt lat="41.3302367" lon="14.7200733"><ele>385.0</ele><time>2026-04-19T08:45:01.148Z</time></trkpt><trkpt lat="41.3303433" lon="14.71994"><ele>383.33333333333337</ele><time>2026-04-19T08:45:02.148Z</time></trkpt><trkpt lat="41.3304567" lon="14.719805"><ele>381.6666666666667</ele><time>2026-04-19T08:45:03.148Z</time></trkpt><trkpt lat="41.33057" lon="14.7196633"><ele>380.0</ele><time>2026-04-19T08:45:04.147Z</time></trkpt><trkpt lat="41.3306783" lon="14.719525"><ele>382.5</ele><time>2026-04-19T08:45:05.148Z</time></trkpt><trkpt lat="41.330795" lon="14.71939"><ele>385.0</ele><time>2026-04-19T08:45:06.148Z</time></trkpt><trkpt lat="41.3309" lon="14.719255"><ele>387.5</ele><time>2026-04-19T08:45:07.148Z</time></trkpt><trkpt lat="41.3310067" lon="14.7191283"><ele>390.0</ele><time>2026-04-19T08:45:08.148Z</time></trkpt><trkpt lat="41.331115" lon="14.7189967"><ele>390.0</ele><time>2026-04-19T08:45:09.148Z</time></trkpt><trkpt lat="41.331225" lon="14.7188633"><ele>390.0</ele><time>2026-04-19T08:45:10.148Z</time></trkpt><trkpt lat="41.3313333" lon="14.71873"><ele>390.0</ele><time>2026-04-19T08:45:11.147Z</time></trkpt><trkpt lat="41.3314433" lon="14.7185967"><ele>390.0</ele><time>2026-04-19T08:45:12.148Z</time></trkpt><trkpt lat="41.3315533" lon="14.7184583"><ele>390.0</ele><time>2026-04-19T08:45:13.148Z</time></trkpt><trkpt lat="41.331665" lon="14.718325"><ele>390.0</ele><time>2026-04-19T08:45:14.147Z</time></trkpt><trkpt lat="41.3317767" lon="14.71819"><ele>390.0</ele><time>2026-04-19T08:45:15.148Z</time></trkpt><trkpt lat="41.3318867" lon="14.7180533"><ele>390.0</ele><time>2026-04-19T08:45:16.148Z</time></trkpt><trkpt lat="41.332" lon="14.717915"><ele>390.0</ele><time>2026-04-19T08:45:17.148Z</time></trkpt><trkpt lat="41.3321033" lon="14.7177733"><ele>390.0</ele><time>2026-04-19T08:45:18.148Z</time></trkpt><trkpt lat="41.3322033" lon="14.7176317"><ele>390.0</ele><time>2026-04-19T08:45:19.148Z</time></trkpt><trkpt lat="41.3323083" lon="14.71749"><ele>390.33333333333337</ele><time>2026-04-19T08:45:20.147Z</time></trkpt><trkpt lat="41.3324067" lon="14.7173417"><ele>390.6666666666667</ele><time>2026-04-19T08:45:21.148Z</time></trkpt><trkpt lat="41.3325017" lon="14.717175"><ele>391.0</ele><time>2026-04-19T08:45:22.147Z</time></trkpt><trkpt lat="41.3326" lon="14.7170167"><ele>394.0</ele><time>2026-04-19T08:45:23.148Z</time></trkpt><trkpt lat="41.3326767" lon="14.71684"><ele>397.0</ele><time>2026-04-19T08:45:24.148Z</time></trkpt><trkpt lat="41.3327467" lon="14.7166533"><ele>400.0</ele><time>2026-04-19T08:45:25.147Z</time></trkpt><trkpt lat="41.33281" lon="14.7164633"><ele>400.0</ele><time>2026-04-19T08:45:26.147Z</time></trkpt><trkpt lat="41.3328567" lon="14.7162683"><ele>400.0</ele><time>2026-04-19T08:45:27.148Z</time></trkpt><trkpt lat="41.332895" lon="14.7160783"><ele>400.0</ele><time>2026-04-19T08:45:28.147Z</time></trkpt><trkpt lat="41.3329383" lon="14.7158867"><ele>399.5</ele><time>2026-04-19T08:45:29.148Z</time></trkpt><trkpt lat="41.3329767" lon="14.7156967"><ele>399.0</ele><time>2026-04-19T08:45:30.148Z</time></trkpt><trkpt lat="41.333015" lon="14.7155033"><ele>398.5</ele><time>2026-04-19T08:45:31.148Z</time></trkpt><trkpt lat="41.3330517" lon="14.715315"><ele>398.0</ele><time>2026-04-19T08:45:32.148Z</time></trkpt><trkpt lat="41.333095" lon="14.715135"><ele>396.25</ele><time>2026-04-19T08:45:33.148Z</time></trkpt><trkpt lat="41.333165" lon="14.7149617"><ele>394.5</ele><time>2026-04-19T08:45:34.147Z</time></trkpt><trkpt lat="41.333245" lon="14.714795"><ele>392.75</ele><time>2026-04-19T08:45:35.148Z</time></trkpt><trkpt lat="41.333345" lon="14.7146583"><ele>391.0</ele><time>2026-04-19T08:45:36.148Z</time></trkpt><trkpt lat="41.3334517" lon="14.7145267"><ele>391.0</ele><time>2026-04-19T08:45:37.147Z</time></trkpt><trkpt lat="41.3335783" lon="14.71442"><ele>391.0</ele><time>2026-04-19T08:45:38.147Z</time></trkpt><trkpt lat="41.3337017" lon="14.7143483"><ele>391.0</ele><time>2026-04-19T08:45:39.148Z</time></trkpt><trkpt lat="41.3338433" lon="14.7142933"><ele>391.0</ele><time>2026-04-19T08:45:40.148Z</time></trkpt><trkpt lat="41.3339767" lon="14.7142633"><ele>391.0</ele><time>2026-04-19T08:45:41.148Z</time></trkpt><trkpt lat="41.33412" lon="14.7142517"><ele>391.0</ele><time>2026-04-19T08:45:42.147Z</time></trkpt><trkpt lat="41.3342783" lon="14.7142567"><ele>391.0</ele><time>2026-04-19T08:45:43.148Z</time></trkpt><trkpt lat="41.3344333" lon="14.7142817"><ele>391.0</ele><time>2026-04-19T08:45:44.147Z</time></trkpt><trkpt lat="41.334585" lon="14.7143183"><ele>391.0</ele><time>2026-04-19T08:45:45.148Z</time></trkpt><trkpt lat="41.3347317" lon="14.7143567"><ele>391.0</ele><time>2026-04-19T08:45:46.148Z</time></trkpt><trkpt lat="41.3348867" lon="14.7143983"><ele>389.0</ele><time>2026-04-19T08:45:47.148Z</time></trkpt><trkpt lat="41.335035" lon="14.7144367"><ele>387.0</ele><time>2026-04-19T08:45:48.148Z</time></trkpt><trkpt lat="41.3351883" lon="14.7144633"><ele>385.0</ele><time>2026-04-19T08:45:49.148Z</time></trkpt><trkpt lat="41.3353383" lon="14.7144783"><ele>385.0</ele><time>2026-04-19T08:45:50.148Z</time></trkpt><trkpt lat="41.3354817" lon="14.714475"><ele>385.0</ele><time>2026-04-19T08:45:51.148Z</time></trkpt><trkpt lat="41.3356283" lon="14.71445"><ele>385.0</ele><time>2026-04-19T08:45:52.148Z</time></trkpt><trkpt lat="41.3357733" lon="14.7143983"><ele>385.0</ele><time>2026-04-19T08:45:53.147Z</time></trkpt><trkpt lat="41.335905" lon="14.7143267"><ele>386.5</ele><time>2026-04-19T08:45:54.148Z</time></trkpt><trkpt lat="41.3360283" lon="14.7142367"><ele>388.0</ele><time>2026-04-19T08:45:55.148Z</time></trkpt><trkpt lat="41.3361417" lon="14.7141267"><ele>389.5</ele><time>2026-04-19T08:45:56.147Z</time></trkpt><trkpt lat="41.33625" lon="14.714"><ele>391.0</ele><time>2026-04-19T08:45:57.147Z</time></trkpt><trkpt lat="41.3363517" lon="14.7138567"><ele>390.5</ele><time>2026-04-19T08:45:58.148Z</time></trkpt><trkpt lat="41.3364433" lon="14.713705"><ele>390.0</ele><time>2026-04-19T08:45:59.147Z</time></trkpt><trkpt lat="41.3365283" lon="14.7135367"><ele>389.5</ele><time>2026-04-19T08:46:00.148Z</time></trkpt><trkpt lat="41.3366033" lon="14.713375"><ele>389.0</ele><time>2026-04-19T08:46:01.148Z</time></trkpt><trkpt lat="41.336675" lon="14.7132217"><ele>389.0</ele><time>2026-04-19T08:46:02.148Z</time></trkpt><trkpt lat="41.3367367" lon="14.713075"><ele>389.0</ele><time>2026-04-19T08:46:03.147Z</time></trkpt><trkpt lat="41.3368017" lon="14.71293"><ele>389.0</ele><time>2026-04-19T08:46:04.148Z</time></trkpt><trkpt lat="41.33687" lon="14.7127983"><ele>389.0</ele><time>2026-04-19T08:46:05.148Z</time></trkpt><trkpt lat="41.3369417" lon="14.7126817"><ele>388.5</ele><time>2026-04-19T08:46:06.148Z</time></trkpt><trkpt lat="41.3370183" lon="14.7125667"><ele>388.0</ele><time>2026-04-19T08:46:07.147Z</time></trkpt><trkpt lat="41.3371083" lon="14.7124617"><ele>387.5</ele><time>2026-04-19T08:46:08.148Z</time></trkpt><trkpt lat="41.3372133" lon="14.71236"><ele>387.0</ele><time>2026-04-19T08:46:09.148Z</time></trkpt><trkpt lat="41.33733" lon="14.71227"><ele>385.25</ele><time>2026-04-19T08:46:10.147Z</time></trkpt><trkpt lat="41.3374517" lon="14.712175"><ele>383.5</ele><time>2026-04-19T08:46:11.147Z</time></trkpt><trkpt lat="41.3375783" lon="14.7120833"><ele>381.75</ele><time>2026-04-19T08:46:12.148Z</time></trkpt><trkpt lat="41.3377083" lon="14.7119983"><ele>380.0</ele><time>2026-04-19T08:46:13.148Z</time></trkpt><trkpt lat="41.337845" lon="14.71192"><ele>379.0</ele><time>2026-04-19T08:46:14.148Z</time></trkpt><trkpt lat="41.337975" lon="14.7118367"><ele>378.0</ele><time>2026-04-19T08:46:15.148Z</time></trkpt><trkpt lat="41.3381017" lon="14.7117517"><ele>377.0</ele><time>2026-04-19T08:46:16.148Z</time></trkpt><trkpt lat="41.3382217" lon="14.71168"><ele>376.0</ele><time>2026-04-19T08:46:17.147Z</time></trkpt><trkpt lat="41.3383367" lon="14.7116183"><ele>375.6</ele><time>2026-04-19T08:46:18.148Z</time></trkpt><trkpt lat="41.3384433" lon="14.7115633"><ele>375.20000000000005</ele><time>2026-04-19T08:46:19.147Z</time></trkpt><trkpt lat="41.33854" lon="14.7115133"><ele>374.79999999999995</ele><time>2026-04-19T08:46:20.148Z</time></trkpt><trkpt lat="41.3386333" lon="14.7114567"><ele>374.4</ele><time>2026-04-19T08:46:21.148Z</time></trkpt><trkpt lat="41.338725" lon="14.7114017"><ele>374.0</ele><time>2026-04-19T08:46:22.147Z</time></trkpt><trkpt lat="41.3388133" lon="14.7113517"><ele>375.0</ele><time>2026-04-19T08:46:23.148Z</time></trkpt><trkpt lat="41.3388967" lon="14.7113"><ele>376.0</ele><time>2026-04-19T08:46:24.148Z</time></trkpt><trkpt lat="41.338975" lon="14.71126"><ele>377.0</ele><time>2026-04-19T08:46:25.148Z</time></trkpt><trkpt lat="41.3390467" lon="14.7112267"><ele>378.0</ele><time>2026-04-19T08:46:26.148Z</time></trkpt><trkpt lat="41.3391133" lon="14.71121"><ele>379.0</ele><time>2026-04-19T08:46:27.147Z</time></trkpt><trkpt lat="41.3391933" lon="14.7111733"><ele>380.0</ele><time>2026-04-19T08:46:29.148Z</time></trkpt><trkpt lat="41.3392467" lon="14.7111117"><ele>380.4</ele><time>2026-04-19T08:46:31.147Z</time></trkpt><trkpt lat="41.3392917" lon="14.7109617"><ele>380.8</ele><time>2026-04-19T08:46:33.148Z</time></trkpt><trkpt lat="41.3393017" lon="14.7108683"><ele>381.20000000000005</ele><time>2026-04-19T08:46:34.148Z</time></trkpt><trkpt lat="41.339305" lon="14.7107633"><ele>381.6</ele><time>2026-04-19T08:46:35.148Z</time></trkpt><trkpt lat="41.33931" lon="14.71065"><ele>382.0</ele><time>2026-04-19T08:46:36.148Z</time></trkpt><trkpt lat="41.3393083" lon="14.7105217"><ele>382.0</ele><time>2026-04-19T08:46:37.148Z</time></trkpt><trkpt lat="41.3393067" lon="14.7103867"><ele>382.0</ele><time>2026-04-19T08:46:38.148Z</time></trkpt><trkpt lat="41.3393117" lon="14.7102433"><ele>382.0</ele><time>2026-04-19T08:46:39.148Z</time></trkpt><trkpt lat="41.33932" lon="14.7100833"><ele>382.0</ele><time>2026-04-19T08:46:40.148Z</time></trkpt><trkpt lat="41.3393233" lon="14.7099133"><ele>381.0</ele><time>2026-04-19T08:46:41.148Z</time></trkpt><trkpt lat="41.3393283" lon="14.709735"><ele>380.0</ele><time>2026-04-19T08:46:42.148Z</time></trkpt><trkpt lat="41.33933" lon="14.7095483"><ele>379.0</ele><time>2026-04-19T08:46:43.148Z</time></trkpt><trkpt lat="41.3393333" lon="14.7093583"><ele>378.0</ele><time>2026-04-19T08:46:44.147Z</time></trkpt><trkpt lat="41.33934" lon="14.709175"><ele>377.25</ele><time>2026-04-19T08:46:45.148Z</time></trkpt><trkpt lat="41.3393433" lon="14.708995"><ele>376.5</ele><time>2026-04-19T08:46:46.147Z</time></trkpt><trkpt lat="41.3393483" lon="14.7088117"><ele>375.75</ele><time>2026-04-19T08:46:47.148Z</time></trkpt><trkpt lat="41.3393517" lon="14.7086367"><ele>375.0</ele><time>2026-04-19T08:46:48.148Z</time></trkpt><trkpt lat="41.33936" lon="14.7084633"><ele>375.0</ele><time>2026-04-19T08:46:49.148Z</time></trkpt><trkpt lat="41.3393617" lon="14.708285"><ele>375.0</ele><time>2026-04-19T08:46:50.148Z</time></trkpt><trkpt lat="41.3393767" lon="14.70811"><ele>375.0</ele><time>2026-04-19T08:46:51.147Z</time></trkpt><trkpt lat="41.3393883" lon="14.7079383"><ele>375.0</ele><time>2026-04-19T08:46:52.148Z</time></trkpt><trkpt lat="41.3393983" lon="14.707765"><ele>375.25</ele><time>2026-04-19T08:46:53.148Z</time></trkpt><trkpt lat="41.3394083" lon="14.7075933"><ele>375.5</ele><time>2026-04-19T08:46:54.148Z</time></trkpt><trkpt lat="41.3394233" lon="14.7074167"><ele>375.75</ele><time>2026-04-19T08:46:55.148Z</time></trkpt><trkpt lat="41.33944" lon="14.70724"><ele>376.0</ele><time>2026-04-19T08:46:56.148Z</time></trkpt><trkpt lat="41.3394617" lon="14.7070617"><ele>376.75</ele><time>2026-04-19T08:46:57.148Z</time></trkpt><trkpt lat="41.3394883" lon="14.70688"><ele>377.5</ele><time>2026-04-19T08:46:58.148Z</time></trkpt><trkpt lat="41.339515" lon="14.70669"><ele>378.25</ele><time>2026-04-19T08:46:59.148Z</time></trkpt><trkpt lat="41.3395433" lon="14.7065033"><ele>379.0</ele><time>2026-04-19T08:47:00.148Z</time></trkpt><trkpt lat="41.3395767" lon="14.7063167"><ele>379.0</ele><time>2026-04-19T08:47:01.148Z</time></trkpt><trkpt lat="41.3396117" lon="14.70613"><ele>379.0</ele><time>2026-04-19T08:47:02.148Z</time></trkpt><trkpt lat="41.3396533" lon="14.7059433"><ele>379.0</ele><time>2026-04-19T08:47:03.147Z</time></trkpt><trkpt lat="41.3396867" lon="14.70576"><ele>379.0</ele><time>2026-04-19T08:47:04.148Z</time></trkpt><trkpt lat="41.3397333" lon="14.70557"><ele>379.75</ele><time>2026-04-19T08:47:05.147Z</time></trkpt><trkpt lat="41.3397767" lon="14.70539"><ele>380.5</ele><time>2026-04-19T08:47:06.147Z</time></trkpt><trkpt lat="41.3398217" lon="14.705205"><ele>381.25</ele><time>2026-04-19T08:47:07.147Z</time></trkpt><trkpt lat="41.33987" lon="14.7050283"><ele>382.0</ele><time>2026-04-19T08:47:08.148Z</time></trkpt><trkpt lat="41.33992" lon="14.7048517"><ele>382.5</ele><time>2026-04-19T08:47:09.147Z</time></trkpt><trkpt lat="41.33998" lon="14.704675"><ele>383.0</ele><time>2026-04-19T08:47:10.148Z</time></trkpt><trkpt lat="41.3400383" lon="14.7044983"><ele>383.5</ele><time>2026-04-19T08:47:11.148Z</time></trkpt><trkpt lat="41.3400983" lon="14.7043317"><ele>384.0</ele><time>2026-04-19T08:47:12.147Z</time></trkpt><trkpt lat="41.340165" lon="14.7041517"><ele>384.25</ele><time>2026-04-19T08:47:13.148Z</time></trkpt><trkpt lat="41.3402333" lon="14.7039833"><ele>384.5</ele><time>2026-04-19T08:47:14.148Z</time></trkpt><trkpt lat="41.3403" lon="14.7038117"><ele>384.75</ele><time>2026-04-19T08:47:15.147Z</time></trkpt><trkpt lat="41.3403717" lon="14.7036533"><ele>385.0</ele><time>2026-04-19T08:47:16.147Z</time></trkpt><trkpt lat="41.3404433" lon="14.7035067"><ele>385.25</ele><time>2026-04-19T08:47:17.147Z</time></trkpt><trkpt lat="41.3405167" lon="14.7033517"><ele>385.5</ele><time>2026-04-19T08:47:18.147Z</time></trkpt><trkpt lat="41.3405883" lon="14.703195"><ele>385.75</ele><time>2026-04-19T08:47:19.148Z</time></trkpt><trkpt lat="41.3406733" lon="14.7030417"><ele>386.0</ele><time>2026-04-19T08:47:20.148Z</time></trkpt><trkpt lat="41.340755" lon="14.7028833"><ele>385.75</ele><time>2026-04-19T08:47:21.148Z</time></trkpt><trkpt lat="41.340845" lon="14.7027317"><ele>385.5</ele><time>2026-04-19T08:47:22.148Z</time></trkpt><trkpt lat="41.3409317" lon="14.7025733"><ele>385.25</ele><time>2026-04-19T08:47:23.148Z</time></trkpt><trkpt lat="41.34103" lon="14.70241"><ele>385.0</ele><time>2026-04-19T08:47:24.147Z</time></trkpt><trkpt lat="41.34113" lon="14.7022467"><ele>385.0</ele><time>2026-04-19T08:47:25.148Z</time></trkpt><trkpt lat="41.34123" lon="14.702085"><ele>385.0</ele><time>2026-04-19T08:47:26.148Z</time></trkpt><trkpt lat="41.3413383" lon="14.701925"><ele>385.0</ele><time>2026-04-19T08:47:27.147Z</time></trkpt><trkpt lat="41.3414433" lon="14.70177"><ele>385.33333333333337</ele><time>2026-04-19T08:47:28.148Z</time></trkpt><trkpt lat="41.3415567" lon="14.70161"><ele>385.66666666666663</ele><time>2026-04-19T08:47:29.148Z</time></trkpt><trkpt lat="41.34167" lon="14.7014467"><ele>386.0</ele><time>2026-04-19T08:47:30.148Z</time></trkpt><trkpt lat="41.341775" lon="14.7012783"><ele>386.0</ele><time>2026-04-19T08:47:31.148Z</time></trkpt><trkpt lat="41.34188" lon="14.7011183"><ele>386.0</ele><time>2026-04-19T08:47:32.148Z</time></trkpt><trkpt lat="41.34199" lon="14.7009583"><ele>386.0</ele><time>2026-04-19T08:47:33.148Z</time></trkpt><trkpt lat="41.342095" lon="14.7008"><ele>386.66666666666663</ele><time>2026-04-19T08:47:34.147Z</time></trkpt><trkpt lat="41.3422" lon="14.7006417"><ele>387.33333333333337</ele><time>2026-04-19T08:47:35.147Z</time></trkpt><trkpt lat="41.3423017" lon="14.7004917"><ele>388.0</ele><time>2026-04-19T08:47:36.147Z</time></trkpt><trkpt lat="41.3424133" lon="14.70034"><ele>387.0</ele><time>2026-04-19T08:47:37.148Z</time></trkpt><trkpt lat="41.34252" lon="14.7001917"><ele>386.0</ele><time>2026-04-19T08:47:38.147Z</time></trkpt><trkpt lat="41.3426217" lon="14.7000367"><ele>385.0</ele><time>2026-04-19T08:47:39.147Z</time></trkpt><trkpt lat="41.34273" lon="14.699885"><ele>385.0</ele><time>2026-04-19T08:47:40.148Z</time></trkpt><trkpt lat="41.342835" lon="14.69972"><ele>385.0</ele><time>2026-04-19T08:47:41.148Z</time></trkpt><trkpt lat="41.3429433" lon="14.699565"><ele>385.0</ele><time>2026-04-19T08:47:42.148Z</time></trkpt><trkpt lat="41.34305" lon="14.6994083"><ele>386.0</ele><time>2026-04-19T08:47:43.148Z</time></trkpt><trkpt lat="41.343155" lon="14.6992517"><ele>387.0</ele><time>2026-04-19T08:47:44.148Z</time></trkpt><trkpt lat="41.3432633" lon="14.6990933"><ele>388.0</ele><time>2026-04-19T08:47:45.148Z</time></trkpt><trkpt lat="41.3433767" lon="14.69894"><ele>388.0</ele><time>2026-04-19T08:47:46.147Z</time></trkpt><trkpt lat="41.3434833" lon="14.698785"><ele>388.0</ele><time>2026-04-19T08:47:47.148Z</time></trkpt><trkpt lat="41.3435883" lon="14.698635"><ele>388.0</ele><time>2026-04-19T08:47:48.147Z</time></trkpt><trkpt lat="41.343695" lon="14.6984867"><ele>388.0</ele><time>2026-04-19T08:47:49.148Z</time></trkpt><trkpt lat="41.3438017" lon="14.698335"><ele>388.0</ele><time>2026-04-19T08:47:50.148Z</time></trkpt><trkpt lat="41.343905" lon="14.6981883"><ele>388.0</ele><time>2026-04-19T08:47:51.148Z</time></trkpt><trkpt lat="41.344005" lon="14.6980367"><ele>388.0</ele><time>2026-04-19T08:47:52.148Z</time></trkpt><trkpt lat="41.3441117" lon="14.69789"><ele>388.0</ele><time>2026-04-19T08:47:53.148Z</time></trkpt><trkpt lat="41.344215" lon="14.6977433"><ele>388.0</ele><time>2026-04-19T08:47:54.148Z</time></trkpt><trkpt lat="41.344325" lon="14.6976"><ele>388.33333333333337</ele><time>2026-04-19T08:47:55.147Z</time></trkpt><trkpt lat="41.3444283" lon="14.6974583"><ele>388.66666666666663</ele><time>2026-04-19T08:47:56.148Z</time></trkpt><trkpt lat="41.3445317" lon="14.697305"><ele>389.0</ele><time>2026-04-19T08:47:57.147Z</time></trkpt><trkpt lat="41.3446317" lon="14.6971483"><ele>389.0</ele><time>2026-04-19T08:47:58.147Z</time></trkpt><trkpt lat="41.34472" lon="14.6969917"><ele>389.0</ele><time>2026-04-19T08:47:59.147Z</time></trkpt><trkpt lat="41.3448033" lon="14.6968317"><ele>389.0</ele><time>2026-04-19T08:48:00.147Z</time></trkpt><trkpt lat="41.34488" lon="14.6966667"><ele>389.0</ele><time>2026-04-19T08:48:01.148Z</time></trkpt><trkpt lat="41.3449483" lon="14.6965117"><ele>390.0</ele><time>2026-04-19T08:48:02.148Z</time></trkpt><trkpt lat="41.3450167" lon="14.696375"><ele>391.0</ele><time>2026-04-19T08:48:03.148Z</time></trkpt><trkpt lat="41.3450883" lon="14.6962417"><ele>392.0</ele><time>2026-04-19T08:48:04.148Z</time></trkpt><trkpt lat="41.3451733" lon="14.69611"><ele>393.0</ele><time>2026-04-19T08:48:05.148Z</time></trkpt><trkpt lat="41.3452767" lon="14.696"><ele>394.0</ele><time>2026-04-19T08:48:06.148Z</time></trkpt><trkpt lat="41.3453883" lon="14.6959017"><ele>395.0</ele><time>2026-04-19T08:48:07.147Z</time></trkpt><trkpt lat="41.3455033" lon="14.6958283"><ele>396.0</ele><time>2026-04-19T08:48:08.148Z</time></trkpt><trkpt lat="41.34562" lon="14.6957583"><ele>397.0</ele><time>2026-04-19T08:48:09.148Z</time></trkpt><trkpt lat="41.34574" lon="14.6956933"><ele>397.0</ele><time>2026-04-19T08:48:10.148Z</time></trkpt><trkpt lat="41.3458483" lon="14.6956167"><ele>397.0</ele><time>2026-04-19T08:48:11.147Z</time></trkpt><trkpt lat="41.3459383" lon="14.695535"><ele>397.0</ele><time>2026-04-19T08:48:12.147Z</time></trkpt><trkpt lat="41.3460083" lon="14.6954383"><ele>397.0</ele><time>2026-04-19T08:48:13.148Z</time></trkpt><trkpt lat="41.3460533" lon="14.695325"><ele>397.0</ele><time>2026-04-19T08:48:14.148Z</time></trkpt><trkpt lat="41.3460767" lon="14.6951933"><ele>397.5</ele><time>2026-04-19T08:48:15.148Z</time></trkpt><trkpt lat="41.34606" lon="14.69505"><ele>398.0</ele><time>2026-04-19T08:48:16.148Z</time></trkpt><trkpt lat="41.3460317" lon="14.69489"><ele>398.5</ele><time>2026-04-19T08:48:17.148Z</time></trkpt><trkpt lat="41.34599" lon="14.694735"><ele>399.0</ele><time>2026-04-19T08:48:18.147Z</time></trkpt><trkpt lat="41.345955" lon="14.6945667"><ele>399.25</ele><time>2026-04-19T08:48:19.148Z</time></trkpt><trkpt lat="41.3459183" lon="14.694395"><ele>399.5</ele><time>2026-04-19T08:48:20.148Z</time></trkpt><trkpt lat="41.34588" lon="14.6942233"><ele>399.75</ele><time>2026-04-19T08:48:21.147Z</time></trkpt><trkpt lat="41.3458467" lon="14.6940467"><ele>400.0</ele><time>2026-04-19T08:48:22.148Z</time></trkpt><trkpt lat="41.34581" lon="14.6938733"><ele>400.0</ele><time>2026-04-19T08:48:23.147Z</time></trkpt><trkpt lat="41.3457733" lon="14.6937033"><ele>400.0</ele><time>2026-04-19T08:48:24.148Z</time></trkpt><trkpt lat="41.3457383" lon="14.6935283"><ele>400.0</ele><time>2026-04-19T08:48:25.148Z</time></trkpt><trkpt lat="41.3457017" lon="14.6933533"><ele>400.0</ele><time>2026-04-19T08:48:26.148Z</time></trkpt><trkpt lat="41.345675" lon="14.6931667"><ele>400.0</ele><time>2026-04-19T08:48:27.148Z</time></trkpt><trkpt lat="41.3456417" lon="14.6929933"><ele>400.0</ele><time>2026-04-19T08:48:28.148Z</time></trkpt><trkpt lat="41.3456117" lon="14.6928217"><ele>400.0</ele><time>2026-04-19T08:48:29.148Z</time></trkpt><trkpt lat="41.34558" lon="14.6926533"><ele>400.0</ele><time>2026-04-19T08:48:30.148Z</time></trkpt><trkpt lat="41.3455483" lon="14.6924833"><ele>400.5</ele><time>2026-04-19T08:48:31.147Z</time></trkpt><trkpt lat="41.345515" lon="14.69231"><ele>401.0</ele><time>2026-04-19T08:48:32.147Z</time></trkpt><trkpt lat="41.345485" lon="14.6921433"><ele>401.5</ele><time>2026-04-19T08:48:33.148Z</time></trkpt><trkpt lat="41.3454483" lon="14.6919833"><ele>402.0</ele><time>2026-04-19T08:48:34.148Z</time></trkpt><trkpt lat="41.3454133" lon="14.6918267"><ele>402.5</ele><time>2026-04-19T08:48:35.147Z</time></trkpt><trkpt lat="41.3453833" lon="14.6916733"><ele>403.0</ele><time>2026-04-19T08:48:36.148Z</time></trkpt><trkpt lat="41.3453517" lon="14.6915167"><ele>403.5</ele><time>2026-04-19T08:48:37.148Z</time></trkpt><trkpt lat="41.3453217" lon="14.691355"><ele>404.0</ele><time>2026-04-19T08:48:38.148Z</time></trkpt><trkpt lat="41.3452883" lon="14.6911967"><ele>404.25</ele><time>2026-04-19T08:48:39.148Z</time></trkpt><trkpt lat="41.34526" lon="14.69104"><ele>404.5</ele><time>2026-04-19T08:48:40.148Z</time></trkpt><trkpt lat="41.3452283" lon="14.6908817"><ele>404.75</ele><time>2026-04-19T08:48:41.148Z</time></trkpt><trkpt lat="41.3451967" lon="14.690725"><ele>405.0</ele><time>2026-04-19T08:48:42.147Z</time></trkpt><trkpt lat="41.3451683" lon="14.6905667"><ele>405.0</ele><time>2026-04-19T08:48:43.147Z</time></trkpt><trkpt lat="41.3451433" lon="14.69041"><ele>405.0</ele><time>2026-04-19T08:48:44.148Z</time></trkpt><trkpt lat="41.3451167" lon="14.6902467"><ele>405.0</ele><time>2026-04-19T08:48:45.148Z</time></trkpt><trkpt lat="41.3450883" lon="14.6900917"><ele>405.0</ele><time>2026-04-19T08:48:46.148Z</time></trkpt><trkpt lat="41.3450567" lon="14.68994"><ele>405.5</ele><time>2026-04-19T08:48:47.148Z</time></trkpt><trkpt lat="41.345035" lon="14.6898"><ele>406.0</ele><time>2026-04-19T08:48:48.148Z</time></trkpt><trkpt lat="41.3450133" lon="14.6896817"><ele>406.5</ele><time>2026-04-19T08:48:49.147Z</time></trkpt><trkpt lat="41.344995" lon="14.6895933"><ele>407.0</ele><time>2026-04-19T08:48:50.148Z</time></trkpt><trkpt lat="41.344975" lon="14.6894667"><ele>407.5</ele><time>2026-04-19T08:48:52.148Z</time></trkpt><trkpt lat="41.3449633" lon="14.6893733"><ele>408.0</ele><time>2026-04-19T08:48:54.147Z</time></trkpt><trkpt lat="41.3449233" lon="14.6892483"><ele>408.2</ele><time>2026-04-19T08:49:29.148Z</time></trkpt><trkpt lat="41.3448867" lon="14.6891017"><ele>408.4</ele><time>2026-04-19T08:49:31.148Z</time></trkpt><trkpt lat="41.34485" lon="14.6889233"><ele>408.59999999999997</ele><time>2026-04-19T08:49:33.148Z</time></trkpt><trkpt lat="41.34483" lon="14.68881"><ele>408.79999999999995</ele><time>2026-04-19T08:49:34.148Z</time></trkpt><trkpt lat="41.3448083" lon="14.688685"><ele>409.0</ele><time>2026-04-19T08:49:35.147Z</time></trkpt><trkpt lat="41.34478" lon="14.6885717"><ele>409.2</ele><time>2026-04-19T08:49:36.147Z</time></trkpt><trkpt lat="41.3447567" lon="14.6884517"><ele>409.4</ele><time>2026-04-19T08:49:37.147Z</time></trkpt><trkpt lat="41.3447333" lon="14.6883233"><ele>409.6</ele><time>2026-04-19T08:49:38.148Z</time></trkpt><trkpt lat="41.34471" lon="14.68819"><ele>409.8</ele><time>2026-04-19T08:49:39.147Z</time></trkpt><trkpt lat="41.344685" lon="14.6880433"><ele>410.0</ele><time>2026-04-19T08:49:40.148Z</time></trkpt><trkpt lat="41.3446517" lon="14.687895"><ele>411.0</ele><time>2026-04-19T08:49:41.148Z</time></trkpt><trkpt lat="41.34462" lon="14.687735"><ele>412.0</ele><time>2026-04-19T08:49:42.148Z</time></trkpt><trkpt lat="41.3445883" lon="14.6875717"><ele>413.0</ele><time>2026-04-19T08:49:43.148Z</time></trkpt><trkpt lat="41.3445567" lon="14.6874033"><ele>414.0</ele><time>2026-04-19T08:49:44.147Z</time></trkpt><trkpt lat="41.3445233" lon="14.6872417"><ele>414.0</ele><time>2026-04-19T08:49:45.148Z</time></trkpt><trkpt lat="41.3444883" lon="14.6870683"><ele>414.0</ele><time>2026-04-19T08:49:46.148Z</time></trkpt><trkpt lat="41.3444533" lon="14.6868967"><ele>414.0</ele><time>2026-04-19T08:49:47.148Z</time></trkpt><trkpt lat="41.34442" lon="14.6867267"><ele>414.0</ele><time>2026-04-19T08:49:48.148Z</time></trkpt><trkpt lat="41.3443833" lon="14.68656"><ele>414.25</ele><time>2026-04-19T08:49:49.148Z</time></trkpt><trkpt lat="41.3443467" lon="14.6863883"><ele>414.5</ele><time>2026-04-19T08:49:50.148Z</time></trkpt><trkpt lat="41.3443117" lon="14.686215"><ele>414.75</ele><time>2026-04-19T08:49:51.147Z</time></trkpt><trkpt lat="41.3442783" lon="14.68604"><ele>415.0</ele><time>2026-04-19T08:49:52.148Z</time></trkpt><trkpt lat="41.3442433" lon="14.6858667"><ele>415.25</ele><time>2026-04-19T08:49:53.147Z</time></trkpt><trkpt lat="41.3442067" lon="14.6856967"><ele>415.5</ele><time>2026-04-19T08:49:54.148Z</time></trkpt><trkpt lat="41.3441667" lon="14.68553"><ele>415.75</ele><time>2026-04-19T08:49:55.148Z</time></trkpt><trkpt lat="41.3441333" lon="14.6853567"><ele>416.0</ele><time>2026-04-19T08:49:56.147Z</time></trkpt><trkpt lat="41.3440917" lon="14.6851833"><ele>417.0</ele><time>2026-04-19T08:49:57.148Z</time></trkpt><trkpt lat="41.34406" lon="14.68501"><ele>418.0</ele><time>2026-04-19T08:49:58.148Z</time></trkpt><trkpt lat="41.34403" lon="14.684845"><ele>419.0</ele><time>2026-04-19T08:49:59.148Z</time></trkpt><trkpt lat="41.3440017" lon="14.6846733"><ele>420.0</ele><time>2026-04-19T08:50:00.148Z</time></trkpt><trkpt lat="41.3439683" lon="14.6845"><ele>420.0</ele><time>2026-04-19T08:50:01.148Z</time></trkpt><trkpt lat="41.3439333" lon="14.68433"><ele>420.0</ele><time>2026-04-19T08:50:02.148Z</time></trkpt><trkpt lat="41.3438983" lon="14.6841483"><ele>420.0</ele><time>2026-04-19T08:50:03.148Z</time></trkpt><trkpt lat="41.3438617" lon="14.6839717"><ele>420.0</ele><time>2026-04-19T08:50:04.148Z</time></trkpt><trkpt lat="41.3438233" lon="14.6837983"><ele>420.5</ele><time>2026-04-19T08:50:05.148Z</time></trkpt><trkpt lat="41.3437917" lon="14.68362"><ele>421.0</ele><time>2026-04-19T08:50:06.148Z</time></trkpt><trkpt lat="41.34375" lon="14.6834333"><ele>421.5</ele><time>2026-04-19T08:50:07.148Z</time></trkpt><trkpt lat="41.343715" lon="14.683255"><ele>422.0</ele><time>2026-04-19T08:50:08.148Z</time></trkpt><trkpt lat="41.3436767" lon="14.6830667"><ele>422.66666666666663</ele><time>2026-04-19T08:50:09.148Z</time></trkpt><trkpt lat="41.343635" lon="14.6828783"><ele>423.33333333333337</ele><time>2026-04-19T08:50:10.147Z</time></trkpt><trkpt lat="41.343595" lon="14.6826783"><ele>424.0</ele><time>2026-04-19T08:50:11.148Z</time></trkpt><trkpt lat="41.3435533" lon="14.6824867"><ele>424.6666666666667</ele><time>2026-04-19T08:50:12.148Z</time></trkpt><trkpt lat="41.3435133" lon="14.68229"><ele>425.33333333333337</ele><time>2026-04-19T08:50:13.147Z</time></trkpt><trkpt lat="41.343475" lon="14.6820967"><ele>426.0</ele><time>2026-04-19T08:50:14.148Z</time></trkpt><trkpt lat="41.3434417" lon="14.6819067"><ele>426.25</ele><time>2026-04-19T08:50:15.147Z</time></trkpt><trkpt lat="41.3434117" lon="14.6817283"><ele>426.5</ele><time>2026-04-19T08:50:16.147Z</time></trkpt><trkpt lat="41.3433733" lon="14.6815617"><ele>426.75</ele><time>2026-04-19T08:50:17.148Z</time></trkpt><trkpt lat="41.34334" lon="14.6814"><ele>427.0</ele><time>2026-04-19T08:50:18.148Z</time></trkpt><trkpt lat="41.3433083" lon="14.6812483"><ele>427.0</ele><time>2026-04-19T08:50:19.147Z</time></trkpt><trkpt lat="41.34328" lon="14.6811"><ele>427.0</ele><time>2026-04-19T08:50:20.148Z</time></trkpt><trkpt lat="41.3432533" lon="14.68095"><ele>427.0</ele><time>2026-04-19T08:50:21.147Z</time></trkpt><trkpt lat="41.3432217" lon="14.6807967"><ele>427.0</ele><time>2026-04-19T08:50:22.148Z</time></trkpt><trkpt lat="41.3431917" lon="14.680635"><ele>428.0</ele><time>2026-04-19T08:50:23.148Z</time></trkpt><trkpt lat="41.34316" lon="14.6804833"><ele>429.0</ele><time>2026-04-19T08:50:24.148Z</time></trkpt><trkpt lat="41.343125" lon="14.6803283"><ele>430.0</ele><time>2026-04-19T08:50:25.148Z</time></trkpt><trkpt lat="41.3430867" lon="14.680175"><ele>431.0</ele><time>2026-04-19T08:50:26.147Z</time></trkpt><trkpt lat="41.3430567" lon="14.6800167"><ele>431.75</ele><time>2026-04-19T08:50:27.148Z</time></trkpt><trkpt lat="41.3430267" lon="14.6798583"><ele>432.5</ele><time>2026-04-19T08:50:28.148Z</time></trkpt><trkpt lat="41.3429867" lon="14.6796983"><ele>433.25</ele><time>2026-04-19T08:50:29.147Z</time></trkpt><trkpt lat="41.3429517" lon="14.6795267"><ele>434.0</ele><time>2026-04-19T08:50:30.148Z</time></trkpt><trkpt lat="41.34292" lon="14.6793517"><ele>434.25</ele><time>2026-04-19T08:50:31.148Z</time></trkpt><trkpt lat="41.3428833" lon="14.67917"><ele>434.5</ele><time>2026-04-19T08:50:32.148Z</time></trkpt><trkpt lat="41.3428483" lon="14.6789917"><ele>434.75</ele><time>2026-04-19T08:50:33.148Z</time></trkpt><trkpt lat="41.3428133" lon="14.6788133"><ele>435.0</ele><time>2026-04-19T08:50:34.147Z</time></trkpt><trkpt lat="41.3427783" lon="14.6786433"><ele>435.5</ele><time>2026-04-19T08:50:35.148Z</time></trkpt><trkpt lat="41.342745" lon="14.6784767"><ele>436.0</ele><time>2026-04-19T08:50:36.147Z</time></trkpt><trkpt lat="41.342715" lon="14.678315"><ele>436.5</ele><time>2026-04-19T08:50:37.147Z</time></trkpt><trkpt lat="41.3426783" lon="14.6781633"><ele>437.0</ele><time>2026-04-19T08:50:38.148Z</time></trkpt><trkpt lat="41.342645" lon="14.678015"><ele>437.0</ele><time>2026-04-19T08:50:39.147Z</time></trkpt><trkpt lat="41.342615" lon="14.6778583"><ele>437.0</ele><time>2026-04-19T08:50:40.148Z</time></trkpt><trkpt lat="41.3425917" lon="14.6777017"><ele>437.0</ele><time>2026-04-19T08:50:41.148Z</time></trkpt><trkpt lat="41.3425633" lon="14.67755"><ele>437.0</ele><time>2026-04-19T08:50:42.148Z</time></trkpt><trkpt lat="41.34254" lon="14.6773967"><ele>437.40000000000003</ele><time>2026-04-19T08:50:43.148Z</time></trkpt><trkpt lat="41.3425117" lon="14.6772517"><ele>437.80000000000007</ele><time>2026-04-19T08:50:44.147Z</time></trkpt><trkpt lat="41.3424817" lon="14.67712"><ele>438.2</ele><time>2026-04-19T08:50:45.147Z</time></trkpt><trkpt lat="41.3424517" lon="14.676985"><ele>438.6</ele><time>2026-04-19T08:50:46.148Z</time></trkpt><trkpt lat="41.3424217" lon="14.6768517"><ele>439.0</ele><time>2026-04-19T08:50:47.148Z</time></trkpt><trkpt lat="41.3423967" lon="14.6767117"><ele>439.4</ele><time>2026-04-19T08:50:48.148Z</time></trkpt><trkpt lat="41.3423633" lon="14.676565"><ele>439.79999999999995</ele><time>2026-04-19T08:50:49.148Z</time></trkpt><trkpt lat="41.3423333" lon="14.6764317"><ele>440.20000000000005</ele><time>2026-04-19T08:50:50.147Z</time></trkpt><trkpt lat="41.3423083" lon="14.6762933"><ele>440.6</ele><time>2026-04-19T08:50:51.148Z</time></trkpt><trkpt lat="41.3422833" lon="14.6761533"><ele>441.0</ele><time>2026-04-19T08:50:52.148Z</time></trkpt><trkpt lat="41.3422517" lon="14.6760167"><ele>441.5</ele><time>2026-04-19T08:50:53.148Z</time></trkpt><trkpt lat="41.3422283" lon="14.6758667"><ele>442.0</ele><time>2026-04-19T08:50:54.148Z</time></trkpt><trkpt lat="41.3421967" lon="14.675725"><ele>442.5</ele><time>2026-04-19T08:50:55.148Z</time></trkpt><trkpt lat="41.3421667" lon="14.6755717"><ele>443.0</ele><time>2026-04-19T08:50:56.148Z</time></trkpt><trkpt lat="41.3421283" lon="14.67542"><ele>443.59999999999997</ele><time>2026-04-19T08:50:57.148Z</time></trkpt><trkpt lat="41.3420933" lon="14.6752717"><ele>444.19999999999993</ele><time>2026-04-19T08:50:58.148Z</time></trkpt><trkpt lat="41.3420583" lon="14.6751317"><ele>444.8</ele><time>2026-04-19T08:50:59.148Z</time></trkpt><trkpt lat="41.34203" lon="14.6750017"><ele>445.4</ele><time>2026-04-19T08:51:00.148Z</time></trkpt><trkpt lat="41.3420067" lon="14.6748633"><ele>446.0</ele><time>2026-04-19T08:51:01.148Z</time></trkpt><trkpt lat="41.34198" lon="14.6747133"><ele>446.75</ele><time>2026-04-19T08:51:02.147Z</time></trkpt><trkpt lat="41.3419467" lon="14.6745633"><ele>447.5</ele><time>2026-04-19T08:51:03.147Z</time></trkpt><trkpt lat="41.341915" lon="14.674415"><ele>448.25</ele><time>2026-04-19T08:51:04.147Z</time></trkpt><trkpt lat="41.3418883" lon="14.674265"><ele>449.0</ele><time>2026-04-19T08:51:05.148Z</time></trkpt><trkpt lat="41.3418583" lon="14.6741083"><ele>449.25</ele><time>2026-04-19T08:51:06.148Z</time></trkpt><trkpt lat="41.34183" lon="14.6739517"><ele>449.5</ele><time>2026-04-19T08:51:07.148Z</time></trkpt><trkpt lat="41.341795" lon="14.6738067"><ele>449.75</ele><time>2026-04-19T08:51:08.147Z</time></trkpt><trkpt lat="41.3417633" lon="14.6736533"><ele>450.0</ele><time>2026-04-19T08:51:09.148Z</time></trkpt><trkpt lat="41.341735" lon="14.6735017"><ele>450.75</ele><time>2026-04-19T08:51:10.147Z</time></trkpt><trkpt lat="41.3417067" lon="14.6733467"><ele>451.5</ele><time>2026-04-19T08:51:11.148Z</time></trkpt><trkpt lat="41.3416767" lon="14.6731917"><ele>452.25</ele><time>2026-04-19T08:51:12.147Z</time></trkpt><trkpt lat="41.341645" lon="14.673035"><ele>453.0</ele><time>2026-04-19T08:51:13.148Z</time></trkpt><trkpt lat="41.3416167" lon="14.6728767"><ele>453.5</ele><time>2026-04-19T08:51:14.147Z</time></trkpt><trkpt lat="41.3415883" lon="14.6727267"><ele>454.0</ele><time>2026-04-19T08:51:15.148Z</time></trkpt><trkpt lat="41.3415583" lon="14.6725867"><ele>454.5</ele><time>2026-04-19T08:51:16.148Z</time></trkpt><trkpt lat="41.3415283" lon="14.6724333"><ele>455.0</ele><time>2026-04-19T08:51:17.148Z</time></trkpt><trkpt lat="41.3414917" lon="14.6722883"><ele>455.0</ele><time>2026-04-19T08:51:18.148Z</time></trkpt><trkpt lat="41.34146" lon="14.67213"><ele>455.0</ele><time>2026-04-19T08:51:19.147Z</time></trkpt><trkpt lat="41.3414333" lon="14.6719717"><ele>455.0</ele><time>2026-04-19T08:51:20.148Z</time></trkpt><trkpt lat="41.3414067" lon="14.6718083"><ele>455.0</ele><time>2026-04-19T08:51:21.148Z</time></trkpt><trkpt lat="41.3413767" lon="14.6716417"><ele>456.75</ele><time>2026-04-19T08:51:22.148Z</time></trkpt><trkpt lat="41.3413417" lon="14.67148"><ele>458.5</ele><time>2026-04-19T08:51:23.148Z</time></trkpt><trkpt lat="41.34131" lon="14.6713183"><ele>460.25</ele><time>2026-04-19T08:51:24.147Z</time></trkpt><trkpt lat="41.3412717" lon="14.6711567"><ele>462.0</ele><time>2026-04-19T08:51:25.148Z</time></trkpt><trkpt lat="41.3412367" lon="14.6709933"><ele>463.25</ele><time>2026-04-19T08:51:26.148Z</time></trkpt><trkpt lat="41.3412133" lon="14.6708317"><ele>464.5</ele><time>2026-04-19T08:51:27.148Z</time></trkpt><trkpt lat="41.3411783" lon="14.6706633"><ele>465.75</ele><time>2026-04-19T08:51:28.148Z</time></trkpt><trkpt lat="41.3411417" lon="14.6704967"><ele>467.0</ele><time>2026-04-19T08:51:29.147Z</time></trkpt><trkpt lat="41.34111" lon="14.6703267"><ele>468.0</ele><time>2026-04-19T08:51:30.147Z</time></trkpt><trkpt lat="41.341075" lon="14.670165"><ele>469.0</ele><time>2026-04-19T08:51:31.147Z</time></trkpt><trkpt lat="41.341045" lon="14.67001"><ele>470.0</ele><time>2026-04-19T08:51:32.148Z</time></trkpt><trkpt lat="41.3410133" lon="14.6698617"><ele>471.0</ele><time>2026-04-19T08:51:33.147Z</time></trkpt><trkpt lat="41.34098" lon="14.66972"><ele>471.0</ele><time>2026-04-19T08:51:34.148Z</time></trkpt><trkpt lat="41.340955" lon="14.6695783"><ele>471.0</ele><time>2026-04-19T08:51:35.147Z</time></trkpt><trkpt lat="41.3409317" lon="14.6694567"><ele>471.0</ele><time>2026-04-19T08:51:36.148Z</time></trkpt><trkpt lat="41.3409217" lon="14.66934"><ele>471.0</ele><time>2026-04-19T08:51:37.148Z</time></trkpt><trkpt lat="41.3409367" lon="14.669225"><ele>471.0</ele><time>2026-04-19T08:51:38.147Z</time></trkpt><trkpt lat="41.3409767" lon="14.669105"><ele>472.3333333333333</ele><time>2026-04-19T08:51:39.147Z</time></trkpt><trkpt lat="41.3410383" lon="14.66901"><ele>473.66666666666663</ele><time>2026-04-19T08:51:40.148Z</time></trkpt><trkpt lat="41.3411133" lon="14.6689117"><ele>475.0</ele><time>2026-04-19T08:51:41.148Z</time></trkpt><trkpt lat="41.341185" lon="14.668825"><ele>476.3333333333333</ele><time>2026-04-19T08:51:42.148Z</time></trkpt><trkpt lat="41.3412383" lon="14.668745"><ele>477.66666666666663</ele><time>2026-04-19T08:51:43.148Z</time></trkpt><trkpt lat="41.3412833" lon="14.6686717"><ele>479.0</ele><time>2026-04-19T08:51:44.148Z</time></trkpt><trkpt lat="41.3413117" lon="14.6685917"><ele>479.42857142857144</ele><time>2026-04-19T08:51:45.148Z</time></trkpt><trkpt lat="41.3413317" lon="14.6685017"><ele>479.8571428571429</ele><time>2026-04-19T08:51:46.148Z</time></trkpt><trkpt lat="41.341355" lon="14.6684083"><ele>480.28571428571433</ele><time>2026-04-19T08:51:47.148Z</time></trkpt><trkpt lat="41.34138" lon="14.66832"><ele>480.7142857142857</ele><time>2026-04-19T08:51:48.148Z</time></trkpt><trkpt lat="41.3414117" lon="14.6682333"><ele>481.1428571428572</ele><time>2026-04-19T08:51:49.147Z</time></trkpt><trkpt lat="41.3414483" lon="14.6681467"><ele>481.5714285714286</ele><time>2026-04-19T08:51:50.148Z</time></trkpt><trkpt lat="41.34149" lon="14.6680617"><ele>482.0</ele><time>2026-04-19T08:51:51.148Z</time></trkpt><trkpt lat="41.341535" lon="14.6679767"><ele>481.99999999999994</ele><time>2026-04-19T08:51:52.148Z</time></trkpt><trkpt lat="41.3415833" lon="14.6678917"><ele>482.0</ele><time>2026-04-19T08:51:53.148Z</time></trkpt><trkpt lat="41.3416333" lon="14.6678033"><ele>482.0</ele><time>2026-04-19T08:51:54.147Z</time></trkpt><trkpt lat="41.3416817" lon="14.667715"><ele>482.0</ele><time>2026-04-19T08:51:55.147Z</time></trkpt><trkpt lat="41.3417317" lon="14.6676267"><ele>481.99999999999994</ele><time>2026-04-19T08:51:56.148Z</time></trkpt><trkpt lat="41.34178" lon="14.6675383"><ele>482.0</ele><time>2026-04-19T08:51:57.147Z</time></trkpt><trkpt lat="41.34183" lon="14.667445"><ele>482.99999999999994</ele><time>2026-04-19T08:51:58.148Z</time></trkpt><trkpt lat="41.34187" lon="14.66735"><ele>484.0</ele><time>2026-04-19T08:51:59.148Z</time></trkpt><trkpt lat="41.34191" lon="14.6672517"><ele>485.0</ele><time>2026-04-19T08:52:00.148Z</time></trkpt><trkpt lat="41.34196" lon="14.667155"><ele>486.0</ele><time>2026-04-19T08:52:01.148Z</time></trkpt><trkpt lat="41.3420167" lon="14.667065"><ele>486.99999999999994</ele><time>2026-04-19T08:52:02.148Z</time></trkpt><trkpt lat="41.3420867" lon="14.6669833"><ele>488.0</ele><time>2026-04-19T08:52:03.147Z</time></trkpt><trkpt lat="41.3421717" lon="14.6669133"><ele>488.99999999999994</ele><time>2026-04-19T08:52:04.148Z</time></trkpt><trkpt lat="41.342265" lon="14.666855"><ele>490.0</ele><time>2026-04-19T08:52:05.147Z</time></trkpt><trkpt lat="41.3423517" lon="14.6668"><ele>491.0</ele><time>2026-04-19T08:52:06.148Z</time></trkpt><trkpt lat="41.34243" lon="14.666745"><ele>492.0</ele><time>2026-04-19T08:52:07.148Z</time></trkpt><trkpt lat="41.3425017" lon="14.666695"><ele>492.99999999999994</ele><time>2026-04-19T08:52:08.148Z</time></trkpt><trkpt lat="41.342565" lon="14.6666583"><ele>494.0</ele><time>2026-04-19T08:52:09.148Z</time></trkpt><trkpt lat="41.3426283" lon="14.6666183"><ele>494.0</ele><time>2026-04-19T08:52:10.147Z</time></trkpt><trkpt lat="41.3427367" lon="14.6665383"><ele>494.0</ele><time>2026-04-19T08:52:12.148Z</time></trkpt><trkpt lat="41.3428383" lon="14.6664767"><ele>494.0</ele><time>2026-04-19T08:52:14.147Z</time></trkpt><trkpt lat="41.3429483" lon="14.666415"><ele>494.0</ele><time>2026-04-19T08:52:16.147Z</time></trkpt><trkpt lat="41.3430383" lon="14.6663517"><ele>494.79999999999995</ele><time>2026-04-19T08:52:18.147Z</time></trkpt><trkpt lat="41.3431683" lon="14.66628"><ele>495.59999999999997</ele><time>2026-04-19T08:52:29.147Z</time></trkpt><trkpt lat="41.3432333" lon="14.66624"><ele>496.4</ele><time>2026-04-19T08:52:30.147Z</time></trkpt><trkpt lat="41.3433033" lon="14.6662067"><ele>497.2</ele><time>2026-04-19T08:52:31.148Z</time></trkpt><trkpt lat="41.3433767" lon="14.6661667"><ele>498.0</ele><time>2026-04-19T08:52:32.148Z</time></trkpt><trkpt lat="41.34346" lon="14.6661067"><ele>498.0</ele><time>2026-04-19T08:52:33.147Z</time></trkpt><trkpt lat="41.343555" lon="14.6660417"><ele>497.99999999999994</ele><time>2026-04-19T08:52:34.148Z</time></trkpt><trkpt lat="41.34365" lon="14.665985"><ele>497.99999999999994</ele><time>2026-04-19T08:52:35.148Z</time></trkpt><trkpt lat="41.3437517" lon="14.6659283"><ele>498.0</ele><time>2026-04-19T08:52:36.148Z</time></trkpt><trkpt lat="41.3438567" lon="14.665865"><ele>498.0</ele><time>2026-04-19T08:52:37.148Z</time></trkpt><trkpt lat="41.3439567" lon="14.6658017"><ele>497.2</ele><time>2026-04-19T08:52:38.148Z</time></trkpt><trkpt lat="41.3440583" lon="14.6657367"><ele>496.4</ele><time>2026-04-19T08:52:39.147Z</time></trkpt><trkpt lat="41.344155" lon="14.6656617"><ele>495.59999999999997</ele><time>2026-04-19T08:52:40.148Z</time></trkpt><trkpt lat="41.3442517" lon="14.665595"><ele>494.79999999999995</ele><time>2026-04-19T08:52:41.148Z</time></trkpt><trkpt lat="41.3443517" lon="14.6655333"><ele>494.0</ele><time>2026-04-19T08:52:42.148Z</time></trkpt><trkpt lat="41.3444533" lon="14.66548"><ele>494.0</ele><time>2026-04-19T08:52:43.147Z</time></trkpt><trkpt lat="41.34455" lon="14.6654217"><ele>494.0</ele><time>2026-04-19T08:52:44.147Z</time></trkpt><trkpt lat="41.3446367" lon="14.66535"><ele>494.0</ele><time>2026-04-19T08:52:45.147Z</time></trkpt><trkpt lat="41.34471" lon="14.6652733"><ele>494.0</ele><time>2026-04-19T08:52:46.148Z</time></trkpt><trkpt lat="41.344765" lon="14.66518"><ele>494.0</ele><time>2026-04-19T08:52:47.148Z</time></trkpt><trkpt lat="41.34481" lon="14.665085"><ele>494.99999999999994</ele><time>2026-04-19T08:52:48.148Z</time></trkpt><trkpt lat="41.3448433" lon="14.6649917"><ele>496.0</ele><time>2026-04-19T08:52:49.148Z</time></trkpt><trkpt lat="41.3448617" lon="14.6648683"><ele>497.0</ele><time>2026-04-19T08:52:51.148Z</time></trkpt><trkpt lat="41.34489" lon="14.6647883"><ele>498.0</ele><time>2026-04-19T08:52:53.148Z</time></trkpt><trkpt lat="41.344945" lon="14.6648483"><ele>498.99999999999994</ele><time>2026-04-19T08:52:56.148Z</time></trkpt><trkpt lat="41.3449467" lon="14.6649683"><ele>500.0</ele><time>2026-04-19T08:52:58.148Z</time></trkpt><trkpt lat="41.344915" lon="14.6650717"><ele>499.99999999999994</ele><time>2026-04-19T08:53:00.148Z</time></trkpt><trkpt lat="41.3448933" lon="14.66518"><ele>500.0</ele><time>2026-04-19T08:53:02.147Z</time></trkpt><trkpt lat="41.344905" lon="14.665335"><ele>500.0</ele><time>2026-04-19T08:53:04.148Z</time></trkpt><trkpt lat="41.3449267" lon="14.6654167"><ele>500.0</ele><time>2026-04-19T08:53:05.147Z</time></trkpt><trkpt lat="41.3449583" lon="14.6654933"><ele>499.99999999999994</ele><time>2026-04-19T08:53:06.148Z</time></trkpt><trkpt lat="41.3449917" lon="14.665575"><ele>500.0</ele><time>2026-04-19T08:53:07.148Z</time></trkpt><trkpt lat="41.3450283" lon="14.6656683"><ele>498.71428571428567</ele><time>2026-04-19T08:53:08.147Z</time></trkpt><trkpt lat="41.3450683" lon="14.6657483"><ele>497.42857142857144</ele><time>2026-04-19T08:53:09.148Z</time></trkpt><trkpt lat="41.3451083" lon="14.6658183"><ele>496.1428571428571</ele><time>2026-04-19T08:53:10.148Z</time></trkpt><trkpt lat="41.3451517" lon="14.6658867"><ele>494.85714285714283</ele><time>2026-04-19T08:53:11.148Z</time></trkpt><trkpt lat="41.3451933" lon="14.6659583"><ele>493.57142857142856</ele><time>2026-04-19T08:53:12.148Z</time></trkpt><trkpt lat="41.3452383" lon="14.6660283"><ele>492.2857142857143</ele><time>2026-04-19T08:53:13.148Z</time></trkpt><trkpt lat="41.3452867" lon="14.6660883"><ele>491.0</ele><time>2026-04-19T08:53:14.147Z</time></trkpt><trkpt lat="41.3454133" lon="14.6661617"><ele>489.0</ele><time>2026-04-19T08:53:16.148Z</time></trkpt><trkpt lat="41.3454917" lon="14.66619"><ele>487.0</ele><time>2026-04-19T08:53:17.148Z</time></trkpt><trkpt lat="41.345585" lon="14.66622"><ele>485.0</ele><time>2026-04-19T08:53:18.148Z</time></trkpt><trkpt lat="41.3456833" lon="14.666265"><ele>483.0</ele><time>2026-04-19T08:53:19.148Z</time></trkpt><trkpt lat="41.34577" lon="14.666335"><ele>481.0</ele><time>2026-04-19T08:53:20.148Z</time></trkpt><trkpt lat="41.3458633" lon="14.6664083"><ele>479.6</ele><time>2026-04-19T08:53:21.148Z</time></trkpt><trkpt lat="41.345955" lon="14.66646"><ele>478.20000000000005</ele><time>2026-04-19T08:53:22.147Z</time></trkpt><trkpt lat="41.3460433" lon="14.6664967"><ele>476.79999999999995</ele><time>2026-04-19T08:53:23.148Z</time></trkpt><trkpt lat="41.346135" lon="14.6665233"><ele>475.4</ele><time>2026-04-19T08:53:24.148Z</time></trkpt><trkpt lat="41.34622" lon="14.666555"><ele>474.0</ele><time>2026-04-19T08:53:25.148Z</time></trkpt><trkpt lat="41.346305" lon="14.666595"><ele>471.4</ele><time>2026-04-19T08:53:26.148Z</time></trkpt><trkpt lat="41.3463933" lon="14.66665"><ele>468.79999999999995</ele><time>2026-04-19T08:53:27.148Z</time></trkpt><trkpt lat="41.346475" lon="14.6667017"><ele>466.20000000000005</ele><time>2026-04-19T08:53:28.148Z</time></trkpt><trkpt lat="41.3465683" lon="14.6667567"><ele>463.6</ele><time>2026-04-19T08:53:29.147Z</time></trkpt><trkpt lat="41.3466683" lon="14.666785"><ele>461.0</ele><time>2026-04-19T08:53:30.147Z</time></trkpt><trkpt lat="41.3467733" lon="14.6667933"><ele>461.0</ele><time>2026-04-19T08:53:31.148Z</time></trkpt><trkpt lat="41.3468783" lon="14.6667833"><ele>461.0</ele><time>2026-04-19T08:53:32.147Z</time></trkpt><trkpt lat="41.346985" lon="14.6667717"><ele>461.0</ele><time>2026-04-19T08:53:33.148Z</time></trkpt><trkpt lat="41.347085" lon="14.6667767"><ele>461.0</ele><time>2026-04-19T08:53:34.148Z</time></trkpt><trkpt lat="41.3471817" lon="14.6667933"><ele>461.0</ele><time>2026-04-19T08:53:35.148Z</time></trkpt><trkpt lat="41.3472783" lon="14.666825"><ele>460.20000000000005</ele><time>2026-04-19T08:53:36.147Z</time></trkpt><trkpt lat="41.3473817" lon="14.66687"><ele>459.40000000000003</ele><time>2026-04-19T08:53:37.148Z</time></trkpt><trkpt lat="41.347475" lon="14.66693"><ele>458.6</ele><time>2026-04-19T08:53:38.148Z</time></trkpt><trkpt lat="41.34757" lon="14.6669967"><ele>457.8</ele><time>2026-04-19T08:53:39.147Z</time></trkpt><trkpt lat="41.3476533" lon="14.6670683"><ele>457.0</ele><time>2026-04-19T08:53:40.148Z</time></trkpt><trkpt lat="41.34774" lon="14.66714"><ele>457.0</ele><time>2026-04-19T08:53:41.147Z</time></trkpt><trkpt lat="41.347825" lon="14.6672017"><ele>457.00000000000006</ele><time>2026-04-19T08:53:42.148Z</time></trkpt><trkpt lat="41.34791" lon="14.6672633"><ele>457.00000000000006</ele><time>2026-04-19T08:53:43.147Z</time></trkpt><trkpt lat="41.3479917" lon="14.6673317"><ele>457.0</ele><time>2026-04-19T08:53:44.148Z</time></trkpt><trkpt lat="41.3480667" lon="14.6673883"><ele>457.0</ele><time>2026-04-19T08:53:45.148Z</time></trkpt><trkpt lat="41.3481533" lon="14.6674667"><ele>457.0</ele><time>2026-04-19T08:53:46.147Z</time></trkpt><trkpt lat="41.3482367" lon="14.6675533"><ele>457.00000000000006</ele><time>2026-04-19T08:53:47.148Z</time></trkpt><trkpt lat="41.34832" lon="14.6676483"><ele>457.00000000000006</ele><time>2026-04-19T08:53:48.148Z</time></trkpt><trkpt lat="41.3483983" lon="14.6677417"><ele>457.0</ele><time>2026-04-19T08:53:49.148Z</time></trkpt><trkpt lat="41.348475" lon="14.6678367"><ele>457.0</ele><time>2026-04-19T08:53:50.147Z</time></trkpt><trkpt lat="41.3485583" lon="14.667935"><ele>456.6</ele><time>2026-04-19T08:53:51.148Z</time></trkpt><trkpt lat="41.3486417" lon="14.66804"><ele>456.20000000000005</ele><time>2026-04-19T08:53:52.148Z</time></trkpt><trkpt lat="41.3487217" lon="14.6681383"><ele>455.8</ele><time>2026-04-19T08:53:53.147Z</time></trkpt><trkpt lat="41.3488017" lon="14.66823"><ele>455.4</ele><time>2026-04-19T08:53:54.147Z</time></trkpt><trkpt lat="41.3488833" lon="14.6683117"><ele>455.0</ele><time>2026-04-19T08:53:55.148Z</time></trkpt><trkpt lat="41.34897" lon="14.6683933"><ele>455.0</ele><time>2026-04-19T08:53:56.148Z</time></trkpt><trkpt lat="41.349065" lon="14.668465"><ele>455.0</ele><time>2026-04-19T08:53:57.147Z</time></trkpt><trkpt lat="41.3491667" lon="14.6685333"><ele>455.0</ele><time>2026-04-19T08:53:58.148Z</time></trkpt><trkpt lat="41.3492667" lon="14.6685917"><ele>455.0</ele><time>2026-04-19T08:53:59.147Z</time></trkpt><trkpt lat="41.3493683" lon="14.6686333"><ele>455.0</ele><time>2026-04-19T08:54:00.147Z</time></trkpt><trkpt lat="41.3494683" lon="14.66868"><ele>454.2</ele><time>2026-04-19T08:54:01.148Z</time></trkpt><trkpt lat="41.349565" lon="14.6687317"><ele>453.4</ele><time>2026-04-19T08:54:02.148Z</time></trkpt><trkpt lat="41.3496583" lon="14.6687883"><ele>452.6</ele><time>2026-04-19T08:54:03.147Z</time></trkpt><trkpt lat="41.34976" lon="14.66884"><ele>451.8</ele><time>2026-04-19T08:54:04.148Z</time></trkpt><trkpt lat="41.3498583" lon="14.6688867"><ele>451.0</ele><time>2026-04-19T08:54:05.148Z</time></trkpt><trkpt lat="41.349965" lon="14.668935"><ele>450.5</ele><time>2026-04-19T08:54:06.148Z</time></trkpt><trkpt lat="41.3500683" lon="14.6689867"><ele>450.0</ele><time>2026-04-19T08:54:07.148Z</time></trkpt><trkpt lat="41.3501833" lon="14.6690383"><ele>449.5</ele><time>2026-04-19T08:54:08.148Z</time></trkpt><trkpt lat="41.3502933" lon="14.6690817"><ele>449.0</ele><time>2026-04-19T08:54:09.148Z</time></trkpt><trkpt lat="41.3504" lon="14.669125"><ele>449.0</ele><time>2026-04-19T08:54:10.148Z</time></trkpt><trkpt lat="41.3505083" lon="14.6691683"><ele>449.0</ele><time>2026-04-19T08:54:11.148Z</time></trkpt><trkpt lat="41.3506117" lon="14.6692183"><ele>449.0</ele><time>2026-04-19T08:54:12.147Z</time></trkpt><trkpt lat="41.3507117" lon="14.6692683"><ele>449.0</ele><time>2026-04-19T08:54:13.147Z</time></trkpt><trkpt lat="41.3508067" lon="14.6693183"><ele>449.0</ele><time>2026-04-19T08:54:14.147Z</time></trkpt><trkpt lat="41.350905" lon="14.669375"><ele>448.0</ele><time>2026-04-19T08:54:15.148Z</time></trkpt><trkpt lat="41.3510017" lon="14.6694333"><ele>447.0</ele><time>2026-04-19T08:54:16.148Z</time></trkpt><trkpt lat="41.3511" lon="14.6694967"><ele>446.0</ele><time>2026-04-19T08:54:17.147Z</time></trkpt><trkpt lat="41.3512033" lon="14.6695633"><ele>445.0</ele><time>2026-04-19T08:54:18.147Z</time></trkpt><trkpt lat="41.351315" lon="14.6696233"><ele>443.25</ele><time>2026-04-19T08:54:19.148Z</time></trkpt><trkpt lat="41.35142" lon="14.6696917"><ele>441.5</ele><time>2026-04-19T08:54:20.147Z</time></trkpt><trkpt lat="41.351525" lon="14.6697617"><ele>439.75</ele><time>2026-04-19T08:54:21.147Z</time></trkpt><trkpt lat="41.3516267" lon="14.669835"><ele>438.0</ele><time>2026-04-19T08:54:22.147Z</time></trkpt><trkpt lat="41.3517233" lon="14.6699117"><ele>438.0</ele><time>2026-04-19T08:54:23.147Z</time></trkpt><trkpt lat="41.3518233" lon="14.66998"><ele>437.99999999999994</ele><time>2026-04-19T08:54:24.148Z</time></trkpt><trkpt lat="41.35192" lon="14.6700433"><ele>437.99999999999994</ele><time>2026-04-19T08:54:25.148Z</time></trkpt><trkpt lat="41.352015" lon="14.670115"><ele>438.0</ele><time>2026-04-19T08:54:26.148Z</time></trkpt><trkpt lat="41.3521183" lon="14.6701933"><ele>438.0</ele><time>2026-04-19T08:54:27.148Z</time></trkpt><trkpt lat="41.3522217" lon="14.670265"><ele>437.79999999999995</ele><time>2026-04-19T08:54:28.148Z</time></trkpt><trkpt lat="41.35232" lon="14.6703417"><ele>437.59999999999997</ele><time>2026-04-19T08:54:29.148Z</time></trkpt><trkpt lat="41.35242" lon="14.6704183"><ele>437.40000000000003</ele><time>2026-04-19T08:54:30.148Z</time></trkpt><trkpt lat="41.3525167" lon="14.670485"><ele>437.20000000000005</ele><time>2026-04-19T08:54:31.147Z</time></trkpt><trkpt lat="41.3526133" lon="14.6705567"><ele>437.0</ele><time>2026-04-19T08:54:32.148Z</time></trkpt><trkpt lat="41.3527167" lon="14.670625"><ele>437.0</ele><time>2026-04-19T08:54:33.147Z</time></trkpt><trkpt lat="41.35283" lon="14.670675"><ele>437.0</ele><time>2026-04-19T08:54:34.148Z</time></trkpt><trkpt lat="41.35295" lon="14.6707133"><ele>437.0</ele><time>2026-04-19T08:54:35.148Z</time></trkpt><trkpt lat="41.3530767" lon="14.67074"><ele>437.0</ele><time>2026-04-19T08:54:36.148Z</time></trkpt><trkpt lat="41.3532083" lon="14.6707633"><ele>437.49999999999994</ele><time>2026-04-19T08:54:37.147Z</time></trkpt><trkpt lat="41.3533233" lon="14.6707833"><ele>438.0</ele><time>2026-04-19T08:54:38.148Z</time></trkpt><trkpt lat="41.3534167" lon="14.67079"><ele>438.5</ele><time>2026-04-19T08:54:39.148Z</time></trkpt><trkpt lat="41.353495" lon="14.6707983"><ele>439.0</ele><time>2026-04-19T08:54:40.148Z</time></trkpt><trkpt lat="41.35356" lon="14.67079"><ele>439.49999999999994</ele><time>2026-04-19T08:54:41.148Z</time></trkpt><trkpt lat="41.353645" lon="14.6707367"><ele>440.0</ele><time>2026-04-19T08:54:43.148Z</time></trkpt><trkpt lat="41.3536733" lon="14.6706583"><ele>440.0</ele><time>2026-04-19T08:54:45.148Z</time></trkpt><trkpt lat="41.3537417" lon="14.6706033"><ele>440.0</ele><time>2026-04-19T08:54:48.148Z</time></trkpt><trkpt lat="41.3538367" lon="14.6705767"><ele>440.0</ele><time>2026-04-19T08:55:00.148Z</time></trkpt><trkpt lat="41.3539333" lon="14.6705583"><ele>440.0</ele><time>2026-04-19T08:55:02.148Z</time></trkpt><trkpt lat="41.3540317" lon="14.6705183"><ele>440.0</ele><time>2026-04-19T08:55:04.147Z</time></trkpt><trkpt lat="41.3541033" lon="14.67041"><ele>440.8</ele><time>2026-04-19T08:55:06.147Z</time></trkpt><trkpt lat="41.3540967" lon="14.670265"><ele>441.6</ele><time>2026-04-19T08:55:08.148Z</time></trkpt><trkpt lat="41.35402" lon="14.6701217"><ele>442.4</ele><time>2026-04-19T08:55:10.148Z</time></trkpt><trkpt lat="41.35398" lon="14.670035"><ele>443.2</ele><time>2026-04-19T08:55:11.148Z</time></trkpt><trkpt lat="41.3539417" lon="14.66994"><ele>444.0</ele><time>2026-04-19T08:55:12.148Z</time></trkpt><trkpt lat="41.35391" lon="14.6698367"><ele>444.0</ele><time>2026-04-19T08:55:13.147Z</time></trkpt><trkpt lat="41.35389" lon="14.6697367"><ele>444.0</ele><time>2026-04-19T08:55:14.147Z</time></trkpt><trkpt lat="41.3538733" lon="14.66963"><ele>444.0</ele><time>2026-04-19T08:55:15.148Z</time></trkpt><trkpt lat="41.35386" lon="14.6695167"><ele>444.0</ele><time>2026-04-19T08:55:16.147Z</time></trkpt><trkpt lat="41.35384" lon="14.6693933"><ele>444.0</ele><time>2026-04-19T08:55:17.148Z</time></trkpt><trkpt lat="41.3538167" lon="14.6692733"><ele>444.0</ele><time>2026-04-19T08:55:18.148Z</time></trkpt><trkpt lat="41.3538017" lon="14.6691483"><ele>444.4</ele><time>2026-04-19T08:55:19.147Z</time></trkpt><trkpt lat="41.3537883" lon="14.6690283"><ele>444.79999999999995</ele><time>2026-04-19T08:55:20.147Z</time></trkpt><trkpt lat="41.35379" lon="14.6689117"><ele>445.20000000000005</ele><time>2026-04-19T08:55:21.148Z</time></trkpt><trkpt lat="41.3538017" lon="14.6687883"><ele>445.6</ele><time>2026-04-19T08:55:22.148Z</time></trkpt><trkpt lat="41.3538167" lon="14.66866"><ele>446.0</ele><time>2026-04-19T08:55:23.148Z</time></trkpt><trkpt lat="41.353835" lon="14.6685333"><ele>446.20000000000005</ele><time>2026-04-19T08:55:24.147Z</time></trkpt><trkpt lat="41.3538533" lon="14.6684067"><ele>446.40000000000003</ele><time>2026-04-19T08:55:25.148Z</time></trkpt><trkpt lat="41.35387" lon="14.6682767"><ele>446.6</ele><time>2026-04-19T08:55:26.147Z</time></trkpt><trkpt lat="41.3538867" lon="14.6681533"><ele>446.8</ele><time>2026-04-19T08:55:27.148Z</time></trkpt><trkpt lat="41.353905" lon="14.6680283"><ele>447.0</ele><time>2026-04-19T08:55:28.147Z</time></trkpt><trkpt lat="41.3539333" lon="14.667905"><ele>447.20000000000005</ele><time>2026-04-19T08:55:29.147Z</time></trkpt><trkpt lat="41.35397" lon="14.66778"><ele>447.40000000000003</ele><time>2026-04-19T08:55:30.148Z</time></trkpt><trkpt lat="41.3540083" lon="14.6676533"><ele>447.59999999999997</ele><time>2026-04-19T08:55:31.148Z</time></trkpt><trkpt lat="41.35405" lon="14.6675283"><ele>447.79999999999995</ele><time>2026-04-19T08:55:32.147Z</time></trkpt><trkpt lat="41.3540917" lon="14.6674033"><ele>448.0</ele><time>2026-04-19T08:55:33.148Z</time></trkpt><trkpt lat="41.3541017" lon="14.667275"><ele>448.33333333333337</ele><time>2026-04-19T08:55:34.147Z</time></trkpt><trkpt lat="41.3541217" lon="14.6671633"><ele>448.6666666666667</ele><time>2026-04-19T08:55:35.147Z</time></trkpt><trkpt lat="41.3541617" lon="14.66706"><ele>449.0</ele><time>2026-04-19T08:55:36.148Z</time></trkpt><trkpt lat="41.35421" lon="14.6669717"><ele>449.33333333333337</ele><time>2026-04-19T08:55:37.148Z</time></trkpt><trkpt lat="41.3542617" lon="14.6668817"><ele>449.6666666666667</ele><time>2026-04-19T08:55:38.148Z</time></trkpt><trkpt lat="41.3543133" lon="14.6667967"><ele>450.0</ele><time>2026-04-19T08:55:39.147Z</time></trkpt><trkpt lat="41.354365" lon="14.666725"><ele>450.6666666666667</ele><time>2026-04-19T08:55:40.147Z</time></trkpt><trkpt lat="41.3544133" lon="14.6666467"><ele>451.33333333333337</ele><time>2026-04-19T08:55:41.147Z</time></trkpt><trkpt lat="41.35446" lon="14.6665567"><ele>452.0</ele><time>2026-04-19T08:55:42.148Z</time></trkpt><trkpt lat="41.3545033" lon="14.6664567"><ele>452.6666666666667</ele><time>2026-04-19T08:55:43.148Z</time></trkpt><trkpt lat="41.3545383" lon="14.66635"><ele>453.33333333333337</ele><time>2026-04-19T08:55:44.148Z</time></trkpt><trkpt lat="41.354565" lon="14.6662367"><ele>454.0</ele><time>2026-04-19T08:55:45.148Z</time></trkpt><trkpt lat="41.3545867" lon="14.6661283"><ele>454.33333333333337</ele><time>2026-04-19T08:55:46.148Z</time></trkpt><trkpt lat="41.354605" lon="14.6660067"><ele>454.6666666666667</ele><time>2026-04-19T08:55:47.148Z</time></trkpt><trkpt lat="41.3546233" lon="14.66589"><ele>455.0</ele><time>2026-04-19T08:55:48.148Z</time></trkpt><trkpt lat="41.35464" lon="14.6657767"><ele>455.33333333333337</ele><time>2026-04-19T08:55:49.148Z</time></trkpt><trkpt lat="41.3546567" lon="14.6656733"><ele>455.6666666666667</ele><time>2026-04-19T08:55:50.148Z</time></trkpt><trkpt lat="41.3546767" lon="14.665575"><ele>456.0</ele><time>2026-04-19T08:55:51.147Z</time></trkpt><trkpt lat="41.354695" lon="14.6654833"><ele>455.57142857142856</ele><time>2026-04-19T08:55:52.148Z</time></trkpt><trkpt lat="41.3547217" lon="14.6654"><ele>455.1428571428571</ele><time>2026-04-19T08:55:53.148Z</time></trkpt><trkpt lat="41.3547517" lon="14.6653233"><ele>454.71428571428567</ele><time>2026-04-19T08:55:54.147Z</time></trkpt><trkpt lat="41.35478" lon="14.6652483"><ele>454.2857142857142</ele><time>2026-04-19T08:55:55.148Z</time></trkpt><trkpt lat="41.3548117" lon="14.6651583"><ele>453.85714285714283</ele><time>2026-04-19T08:55:56.148Z</time></trkpt><trkpt lat="41.35484" lon="14.6650683"><ele>453.42857142857133</ele><time>2026-04-19T08:55:57.148Z</time></trkpt><trkpt lat="41.3548617" lon="14.6649817"><ele>452.99999999999994</ele><time>2026-04-19T08:55:58.148Z</time></trkpt><trkpt lat="41.3548717" lon="14.6648917"><ele>452.99999999999994</ele><time>2026-04-19T08:55:59.148Z</time></trkpt><trkpt lat="41.3548767" lon="14.6648067"><ele>453.0</ele><time>2026-04-19T08:56:00.148Z</time></trkpt><trkpt lat="41.3548817" lon="14.6647183"><ele>452.99999999999994</ele><time>2026-04-19T08:56:01.148Z</time></trkpt><trkpt lat="41.354895" lon="14.664625"><ele>452.99999999999994</ele><time>2026-04-19T08:56:02.148Z</time></trkpt><trkpt lat="41.3549183" lon="14.6645317"><ele>453.0</ele><time>2026-04-19T08:56:03.147Z</time></trkpt><trkpt lat="41.3549533" lon="14.664445"><ele>452.99999999999994</ele><time>2026-04-19T08:56:04.148Z</time></trkpt><trkpt lat="41.354995" lon="14.6643633"><ele>452.99999999999994</ele><time>2026-04-19T08:56:05.148Z</time></trkpt><trkpt lat="41.3550417" lon="14.6642983"><ele>453.71428571428567</ele><time>2026-04-19T08:56:06.148Z</time></trkpt><trkpt lat="41.3550817" lon="14.66423"><ele>454.42857142857144</ele><time>2026-04-19T08:56:07.148Z</time></trkpt><trkpt lat="41.3551083" lon="14.6641517"><ele>455.1428571428571</ele><time>2026-04-19T08:56:08.148Z</time></trkpt><trkpt lat="41.3551167" lon="14.664055"><ele>455.85714285714283</ele><time>2026-04-19T08:56:09.148Z</time></trkpt><trkpt lat="41.3551133" lon="14.66395"><ele>456.57142857142856</ele><time>2026-04-19T08:56:10.147Z</time></trkpt><trkpt lat="41.3551067" lon="14.6638417"><ele>457.2857142857143</ele><time>2026-04-19T08:56:11.148Z</time></trkpt><trkpt lat="41.3550933" lon="14.6637317"><ele>458.0</ele><time>2026-04-19T08:56:12.148Z</time></trkpt><trkpt lat="41.3550967" lon="14.6636333"><ele>459.3333333333333</ele><time>2026-04-19T08:56:13.147Z</time></trkpt><trkpt lat="41.3551167" lon="14.6635383"><ele>460.66666666666663</ele><time>2026-04-19T08:56:14.146Z</time></trkpt><trkpt lat="41.3551433" lon="14.6634567"><ele>462.0</ele><time>2026-04-19T08:56:15.147Z</time></trkpt><trkpt lat="41.35517" lon="14.66338"><ele>463.33333333333337</ele><time>2026-04-19T08:56:16.146Z</time></trkpt><trkpt lat="41.355165" lon="14.6632117"><ele>464.6666666666667</ele><time>2026-04-19T08:56:18.146Z</time></trkpt><trkpt lat="41.3551433" lon="14.6631167"><ele>466.0</ele><time>2026-04-19T08:56:19.146Z</time></trkpt><trkpt lat="41.3551233" lon="14.6630167"><ele>466.00000000000006</ele><time>2026-04-19T08:56:20.147Z</time></trkpt><trkpt lat="41.35513" lon="14.662915"><ele>466.0</ele><time>2026-04-19T08:56:21.146Z</time></trkpt><trkpt lat="41.3551317" lon="14.662825"><ele>466.0</ele><time>2026-04-19T08:56:22.146Z</time></trkpt><trkpt lat="41.35514" lon="14.662735"><ele>466.0</ele><time>2026-04-19T08:56:23.147Z</time></trkpt><trkpt lat="41.3551517" lon="14.6626383"><ele>466.00000000000006</ele><time>2026-04-19T08:56:24.146Z</time></trkpt><trkpt lat="41.355165" lon="14.6624767"><ele>466.0</ele><time>2026-04-19T08:56:26.147Z</time></trkpt><trkpt lat="41.3551717" lon="14.66239"><ele>467.1666666666667</ele><time>2026-04-19T08:56:27.146Z</time></trkpt><trkpt lat="41.3551667" lon="14.6623"><ele>468.33333333333337</ele><time>2026-04-19T08:56:28.147Z</time></trkpt><trkpt lat="41.355145" lon="14.66221"><ele>469.5</ele><time>2026-04-19T08:56:29.147Z</time></trkpt><trkpt lat="41.3551217" lon="14.6621183"><ele>470.66666666666663</ele><time>2026-04-19T08:56:30.147Z</time></trkpt><trkpt lat="41.3550917" lon="14.6620133"><ele>471.8333333333333</ele><time>2026-04-19T08:56:31.147Z</time></trkpt><trkpt lat="41.35506" lon="14.661905"><ele>473.0</ele><time>2026-04-19T08:56:32.147Z</time></trkpt><trkpt lat="41.355025" lon="14.6618033"><ele>474.3333333333333</ele><time>2026-04-19T08:56:33.147Z</time></trkpt><trkpt lat="41.3549833" lon="14.66171"><ele>475.66666666666663</ele><time>2026-04-19T08:56:34.147Z</time></trkpt><trkpt lat="41.3549433" lon="14.6616183"><ele>477.0</ele><time>2026-04-19T08:56:35.147Z</time></trkpt><trkpt lat="41.3548983" lon="14.6615517"><ele>478.33333333333337</ele><time>2026-04-19T08:56:36.147Z</time></trkpt><trkpt lat="41.3548083" lon="14.6614567"><ele>479.6666666666667</ele><time>2026-04-19T08:56:38.147Z</time></trkpt><trkpt lat="41.3547567" lon="14.6614017"><ele>481.0</ele><time>2026-04-19T08:56:39.147Z</time></trkpt><trkpt lat="41.354715" lon="14.6613283"><ele>481.33333333333337</ele><time>2026-04-19T08:56:40.147Z</time></trkpt><trkpt lat="41.3546767" lon="14.661235"><ele>481.6666666666667</ele><time>2026-04-19T08:56:41.146Z</time></trkpt><trkpt lat="41.354645" lon="14.6611433"><ele>482.0</ele><time>2026-04-19T08:56:42.146Z</time></trkpt><trkpt lat="41.3546133" lon="14.66105"><ele>482.33333333333337</ele><time>2026-04-19T08:56:43.147Z</time></trkpt><trkpt lat="41.3545767" lon="14.66096"><ele>482.6666666666667</ele><time>2026-04-19T08:56:44.147Z</time></trkpt><trkpt lat="41.354535" lon="14.6608817"><ele>483.0</ele><time>2026-04-19T08:56:45.147Z</time></trkpt><trkpt lat="41.3544867" lon="14.6608"><ele>484.6666666666667</ele><time>2026-04-19T08:56:46.147Z</time></trkpt><trkpt lat="41.3544383" lon="14.6607267"><ele>486.33333333333337</ele><time>2026-04-19T08:56:47.146Z</time></trkpt><trkpt lat="41.354395" lon="14.6606417"><ele>488.0</ele><time>2026-04-19T08:56:48.147Z</time></trkpt><trkpt lat="41.3543633" lon="14.66056"><ele>489.6666666666667</ele><time>2026-04-19T08:56:49.147Z</time></trkpt><trkpt lat="41.354335" lon="14.6604817"><ele>491.33333333333337</ele><time>2026-04-19T08:56:50.147Z</time></trkpt><trkpt lat="41.3542967" lon="14.6603467"><ele>493.0</ele><time>2026-04-19T08:56:52.146Z</time></trkpt><trkpt lat="41.3542867" lon="14.66025"><ele>495.0</ele><time>2026-04-19T08:56:54.146Z</time></trkpt><trkpt lat="41.35436" lon="14.6601733"><ele>496.99999999999994</ele><time>2026-04-19T08:56:57.146Z</time></trkpt><trkpt lat="41.354465" lon="14.66017"><ele>498.99999999999994</ele><time>2026-04-19T08:56:59.146Z</time></trkpt><trkpt lat="41.3545417" lon="14.660115"><ele>501.0</ele><time>2026-04-19T08:57:01.147Z</time></trkpt><trkpt lat="41.354625" lon="14.6599867"><ele>503.0</ele><time>2026-04-19T08:57:19.147Z</time></trkpt><trkpt lat="41.3546533" lon="14.6599117"><ele>502.99999999999994</ele><time>2026-04-19T08:57:20.146Z</time></trkpt><trkpt lat="41.3546833" lon="14.6598267"><ele>503.0</ele><time>2026-04-19T08:57:21.147Z</time></trkpt><trkpt lat="41.3547117" lon="14.6597283"><ele>503.0</ele><time>2026-04-19T08:57:22.146Z</time></trkpt><trkpt lat="41.3547483" lon="14.6596233"><ele>503.0</ele><time>2026-04-19T08:57:23.147Z</time></trkpt><trkpt lat="41.3547867" lon="14.6595217"><ele>502.99999999999994</ele><time>2026-04-19T08:57:24.146Z</time></trkpt><trkpt lat="41.3548283" lon="14.6594183"><ele>503.0</ele><time>2026-04-19T08:57:25.147Z</time></trkpt><trkpt lat="41.3548783" lon="14.65933"><ele>502.4</ele><time>2026-04-19T08:57:26.146Z</time></trkpt><trkpt lat="41.3549383" lon="14.65925"><ele>501.79999999999995</ele><time>2026-04-19T08:57:27.146Z</time></trkpt><trkpt lat="41.3550133" lon="14.6591883"><ele>501.2</ele><time>2026-04-19T08:57:28.147Z</time></trkpt><trkpt lat="41.3550933" lon="14.6591417"><ele>500.6</ele><time>2026-04-19T08:57:29.147Z</time></trkpt><trkpt lat="41.355185" lon="14.6591333"><ele>500.0</ele><time>2026-04-19T08:57:30.147Z</time></trkpt><trkpt lat="41.355285" lon="14.65914"><ele>500.0</ele><time>2026-04-19T08:57:31.147Z</time></trkpt><trkpt lat="41.3553833" lon="14.6591433"><ele>500.0</ele><time>2026-04-19T08:57:32.147Z</time></trkpt><trkpt lat="41.3554833" lon="14.6591167"><ele>500.0</ele><time>2026-04-19T08:57:33.146Z</time></trkpt><trkpt lat="41.3555617" lon="14.6590633"><ele>500.0</ele><time>2026-04-19T08:57:34.147Z</time></trkpt><trkpt lat="41.3556333" lon="14.65899"><ele>500.0</ele><time>2026-04-19T08:57:35.146Z</time></trkpt><trkpt lat="41.355685" lon="14.6588883"><ele>496.75</ele><time>2026-04-19T08:57:36.147Z</time></trkpt><trkpt lat="41.355705" lon="14.6587533"><ele>493.5</ele><time>2026-04-19T08:57:37.147Z</time></trkpt><trkpt lat="41.3557183" lon="14.6585883"><ele>490.25</ele><time>2026-04-19T08:57:38.147Z</time></trkpt><trkpt lat="41.35572" lon="14.65843"><ele>487.0</ele><time>2026-04-19T08:57:39.147Z</time></trkpt><trkpt lat="41.3557" lon="14.658285"><ele>487.0</ele><time>2026-04-19T08:57:40.146Z</time></trkpt><trkpt lat="41.3556617" lon="14.65815"><ele>487.0</ele><time>2026-04-19T08:57:41.146Z</time></trkpt><trkpt lat="41.3555917" lon="14.658025"><ele>487.0</ele><time>2026-04-19T08:57:42.147Z</time></trkpt><trkpt lat="41.3555" lon="14.6579033"><ele>487.0</ele><time>2026-04-19T08:57:43.147Z</time></trkpt><trkpt lat="41.3553933" lon="14.6577983"><ele>489.25</ele><time>2026-04-19T08:57:44.146Z</time></trkpt><trkpt lat="41.3552833" lon="14.6576917"><ele>491.5</ele><time>2026-04-19T08:57:45.147Z</time></trkpt><trkpt lat="41.3551867" lon="14.6575817"><ele>493.75</ele><time>2026-04-19T08:57:46.147Z</time></trkpt><trkpt lat="41.3551017" lon="14.6574883"><ele>496.0</ele><time>2026-04-19T08:57:47.147Z</time></trkpt><trkpt lat="41.3550283" lon="14.65739"><ele>496.00000000000006</ele><time>2026-04-19T08:57:48.147Z</time></trkpt><trkpt lat="41.3549683" lon="14.6572867"><ele>496.0</ele><time>2026-04-19T08:57:49.147Z</time></trkpt><trkpt lat="41.35493" lon="14.657175"><ele>496.0</ele><time>2026-04-19T08:57:50.146Z</time></trkpt><trkpt lat="41.354915" lon="14.6570667"><ele>496.0</ele><time>2026-04-19T08:57:51.147Z</time></trkpt><trkpt lat="41.3549167" lon="14.6569567"><ele>496.00000000000006</ele><time>2026-04-19T08:57:52.146Z</time></trkpt><trkpt lat="41.3549517" lon="14.6568533"><ele>496.0</ele><time>2026-04-19T08:57:53.147Z</time></trkpt><trkpt lat="41.3550083" lon="14.6567617"><ele>497.0</ele><time>2026-04-19T08:57:54.147Z</time></trkpt><trkpt lat="41.35508" lon="14.65669"><ele>498.0</ele><time>2026-04-19T08:57:55.146Z</time></trkpt><trkpt lat="41.35517" lon="14.65666"><ele>499.0</ele><time>2026-04-19T08:57:56.147Z</time></trkpt><trkpt lat="41.355275" lon="14.6566433"><ele>500.0</ele><time>2026-04-19T08:57:57.147Z</time></trkpt><trkpt lat="41.3553967" lon="14.6566567"><ele>501.0</ele><time>2026-04-19T08:57:58.147Z</time></trkpt><trkpt lat="41.3555317" lon="14.6566733"><ele>499.25</ele><time>2026-04-19T08:57:59.147Z</time></trkpt><trkpt lat="41.3556667" lon="14.6566867"><ele>497.5</ele><time>2026-04-19T08:58:00.147Z</time></trkpt><trkpt lat="41.3557967" lon="14.6566917"><ele>495.75</ele><time>2026-04-19T08:58:01.147Z</time></trkpt><trkpt lat="41.3559283" lon="14.6567"><ele>494.0</ele><time>2026-04-19T08:58:02.147Z</time></trkpt><trkpt lat="41.3560583" lon="14.6567083"><ele>494.0</ele><time>2026-04-19T08:58:03.147Z</time></trkpt><trkpt lat="41.3561867" lon="14.65671"><ele>494.0</ele><time>2026-04-19T08:58:04.146Z</time></trkpt><trkpt lat="41.356315" lon="14.656725"><ele>494.0</ele><time>2026-04-19T08:58:05.147Z</time></trkpt><trkpt lat="41.3564283" lon="14.6567283"><ele>494.0</ele><time>2026-04-19T08:58:06.147Z</time></trkpt><trkpt lat="41.3565333" lon="14.6566983"><ele>492.2</ele><time>2026-04-19T08:58:07.147Z</time></trkpt><trkpt lat="41.3566233" lon="14.656645"><ele>490.4</ele><time>2026-04-19T08:58:08.146Z</time></trkpt><trkpt lat="41.3567033" lon="14.6565667"><ele>488.6</ele><time>2026-04-19T08:58:09.147Z</time></trkpt><trkpt lat="41.3567533" lon="14.6564583"><ele>486.8</ele><time>2026-04-19T08:58:10.147Z</time></trkpt><trkpt lat="41.356765" lon="14.65634"><ele>485.0</ele><time>2026-04-19T08:58:11.147Z</time></trkpt><trkpt lat="41.3567717" lon="14.6562283"><ele>484.99999999999994</ele><time>2026-04-19T08:58:12.147Z</time></trkpt><trkpt lat="41.3567833" lon="14.6561233"><ele>485.0</ele><time>2026-04-19T08:58:13.146Z</time></trkpt><trkpt lat="41.3568217" lon="14.65603"><ele>485.0</ele><time>2026-04-19T08:58:14.146Z</time></trkpt><trkpt lat="41.3568783" lon="14.6559517"><ele>485.0</ele><time>2026-04-19T08:58:15.147Z</time></trkpt><trkpt lat="41.3569683" lon="14.6559233"><ele>484.99999999999994</ele><time>2026-04-19T08:58:16.147Z</time></trkpt><trkpt lat="41.3570733" lon="14.655915"><ele>485.0</ele><time>2026-04-19T08:58:17.147Z</time></trkpt><trkpt lat="41.3571817" lon="14.6559083"><ele>483.75</ele><time>2026-04-19T08:58:18.146Z</time></trkpt><trkpt lat="41.3572967" lon="14.6558917"><ele>482.5</ele><time>2026-04-19T08:58:19.147Z</time></trkpt><trkpt lat="41.357415" lon="14.65586"><ele>481.25</ele><time>2026-04-19T08:58:20.146Z</time></trkpt><trkpt lat="41.3575333" lon="14.6558183"><ele>480.0</ele><time>2026-04-19T08:58:21.147Z</time></trkpt><trkpt lat="41.3576333" lon="14.6557717"><ele>480.0</ele><time>2026-04-19T08:58:22.146Z</time></trkpt><trkpt lat="41.35772" lon="14.6557117"><ele>480.0</ele><time>2026-04-19T08:58:23.147Z</time></trkpt><trkpt lat="41.3577967" lon="14.655625"><ele>480.0</ele><time>2026-04-19T08:58:24.147Z</time></trkpt><trkpt lat="41.3578583" lon="14.655505"><ele>480.0</ele><time>2026-04-19T08:58:25.147Z</time></trkpt><trkpt lat="41.3578983" lon="14.6553683"><ele>480.0</ele><time>2026-04-19T08:58:26.147Z</time></trkpt><trkpt lat="41.357915" lon="14.6552217"><ele>479.2</ele><time>2026-04-19T08:58:27.146Z</time></trkpt><trkpt lat="41.357935" lon="14.6550817"><ele>478.4</ele><time>2026-04-19T08:58:28.147Z</time></trkpt><trkpt lat="41.3579583" lon="14.65494"><ele>477.6</ele><time>2026-04-19T08:58:29.147Z</time></trkpt><trkpt lat="41.3580017" lon="14.6548183"><ele>476.8</ele><time>2026-04-19T08:58:30.147Z</time></trkpt><trkpt lat="41.3580683" lon="14.6547133"><ele>476.0</ele><time>2026-04-19T08:58:31.147Z</time></trkpt><trkpt lat="41.3581533" lon="14.6546283"><ele>476.0</ele><time>2026-04-19T08:58:32.147Z</time></trkpt><trkpt lat="41.3582467" lon="14.6545483"><ele>476.0</ele><time>2026-04-19T08:58:33.147Z</time></trkpt><trkpt lat="41.35834" lon="14.6544683"><ele>476.0</ele><time>2026-04-19T08:58:34.147Z</time></trkpt><trkpt lat="41.3584233" lon="14.6543833"><ele>476.0</ele><time>2026-04-19T08:58:35.147Z</time></trkpt><trkpt lat="41.3584933" lon="14.6542783"><ele>476.0</ele><time>2026-04-19T08:58:36.147Z</time></trkpt><trkpt lat="41.3585517" lon="14.6541583"><ele>477.20000000000005</ele><time>2026-04-19T08:58:37.147Z</time></trkpt><trkpt lat="41.3586017" lon="14.6540283"><ele>478.40000000000003</ele><time>2026-04-19T08:58:38.147Z</time></trkpt><trkpt lat="41.3586417" lon="14.653905"><ele>479.6</ele><time>2026-04-19T08:58:39.147Z</time></trkpt><trkpt lat="41.3586833" lon="14.6537883"><ele>480.8</ele><time>2026-04-19T08:58:40.146Z</time></trkpt><trkpt lat="41.3587283" lon="14.6536817"><ele>482.0</ele><time>2026-04-19T08:58:41.147Z</time></trkpt><trkpt lat="41.3587783" lon="14.6535933"><ele>481.0</ele><time>2026-04-19T08:58:42.147Z</time></trkpt><trkpt lat="41.3588433" lon="14.6535183"><ele>480.00000000000006</ele><time>2026-04-19T08:58:43.146Z</time></trkpt><trkpt lat="41.3589317" lon="14.65347"><ele>479.00000000000006</ele><time>2026-04-19T08:58:44.147Z</time></trkpt><trkpt lat="41.3590267" lon="14.6534633"><ele>478.0</ele><time>2026-04-19T08:58:45.147Z</time></trkpt><trkpt lat="41.3591183" lon="14.6534883"><ele>477.0</ele><time>2026-04-19T08:58:46.146Z</time></trkpt><trkpt lat="41.3592117" lon="14.65355"><ele>477.0</ele><time>2026-04-19T08:58:47.146Z</time></trkpt><trkpt lat="41.3592983" lon="14.65362"><ele>477.00000000000006</ele><time>2026-04-19T08:58:48.146Z</time></trkpt><trkpt lat="41.3593817" lon="14.6536983"><ele>477.00000000000006</ele><time>2026-04-19T08:58:49.147Z</time></trkpt><trkpt lat="41.3594683" lon="14.6537867"><ele>477.0</ele><time>2026-04-19T08:58:50.147Z</time></trkpt><trkpt lat="41.3595583" lon="14.6538683"><ele>477.0</ele><time>2026-04-19T08:58:51.147Z</time></trkpt><trkpt lat="41.35964" lon="14.653955"><ele>477.20000000000005</ele><time>2026-04-19T08:58:52.146Z</time></trkpt><trkpt lat="41.3597167" lon="14.6540567"><ele>477.40000000000003</ele><time>2026-04-19T08:58:53.147Z</time></trkpt><trkpt lat="41.359775" lon="14.6541533"><ele>477.59999999999997</ele><time>2026-04-19T08:58:54.147Z</time></trkpt><trkpt lat="41.359815" lon="14.654265"><ele>477.79999999999995</ele><time>2026-04-19T08:58:55.147Z</time></trkpt><trkpt lat="41.3598283" lon="14.65438"><ele>478.0</ele><time>2026-04-19T08:58:56.147Z</time></trkpt><trkpt lat="41.3598183" lon="14.65451"><ele>478.0</ele><time>2026-04-19T08:58:57.146Z</time></trkpt><trkpt lat="41.3597917" lon="14.6546517"><ele>477.99999999999994</ele><time>2026-04-19T08:58:58.147Z</time></trkpt><trkpt lat="41.3597667" lon="14.6547983"><ele>477.99999999999994</ele><time>2026-04-19T08:58:59.147Z</time></trkpt><trkpt lat="41.3597433" lon="14.6549383"><ele>478.0</ele><time>2026-04-19T08:59:00.146Z</time></trkpt><trkpt lat="41.35973" lon="14.6550567"><ele>478.0</ele><time>2026-04-19T08:59:01.147Z</time></trkpt><trkpt lat="41.3597333" lon="14.6551633"><ele>478.00000000000006</ele><time>2026-04-19T08:59:02.147Z</time></trkpt><trkpt lat="41.35976" lon="14.65525"><ele>478.0</ele><time>2026-04-19T08:59:03.147Z</time></trkpt><trkpt lat="41.3598117" lon="14.655325"><ele>478.0</ele><time>2026-04-19T08:59:04.147Z</time></trkpt><trkpt lat="41.3598933" lon="14.6553833"><ele>478.0</ele><time>2026-04-19T08:59:05.147Z</time></trkpt><trkpt lat="41.3599917" lon="14.6554217"><ele>478.00000000000006</ele><time>2026-04-19T08:59:06.147Z</time></trkpt><trkpt lat="41.3600967" lon="14.6554467"><ele>478.0</ele><time>2026-04-19T08:59:07.147Z</time></trkpt><trkpt lat="41.3602133" lon="14.6554533"><ele>477.4</ele><time>2026-04-19T08:59:08.147Z</time></trkpt><trkpt lat="41.3603183" lon="14.6554517"><ele>476.79999999999995</ele><time>2026-04-19T08:59:09.147Z</time></trkpt><trkpt lat="41.36042" lon="14.65545"><ele>476.2</ele><time>2026-04-19T08:59:10.147Z</time></trkpt><trkpt lat="41.36051" lon="14.65546"><ele>475.6</ele><time>2026-04-19T08:59:11.146Z</time></trkpt><trkpt lat="41.3605833" lon="14.655495"><ele>475.0</ele><time>2026-04-19T08:59:12.146Z</time></trkpt><trkpt lat="41.3606433" lon="14.6555667"><ele>477.00000000000006</ele><time>2026-04-19T08:59:13.147Z</time></trkpt><trkpt lat="41.360685" lon="14.6556533"><ele>479.0</ele><time>2026-04-19T08:59:14.147Z</time></trkpt><trkpt lat="41.3607067" lon="14.655755"><ele>481.0</ele><time>2026-04-19T08:59:15.147Z</time></trkpt><trkpt lat="41.360705" lon="14.6558733"><ele>483.0</ele><time>2026-04-19T08:59:16.147Z</time></trkpt><trkpt lat="41.3606867" lon="14.6559917"><ele>485.00000000000006</ele><time>2026-04-19T08:59:17.147Z</time></trkpt><trkpt lat="41.360645" lon="14.6561117"><ele>487.0</ele><time>2026-04-19T08:59:18.146Z</time></trkpt><trkpt lat="41.3605967" lon="14.6562317"><ele>488.75</ele><time>2026-04-19T08:59:19.147Z</time></trkpt><trkpt lat="41.36056" lon="14.65635"><ele>490.5</ele><time>2026-04-19T08:59:20.147Z</time></trkpt><trkpt lat="41.3605367" lon="14.65649"><ele>492.25</ele><time>2026-04-19T08:59:21.147Z</time></trkpt><trkpt lat="41.36053" lon="14.6566567"><ele>494.0</ele><time>2026-04-19T08:59:22.147Z</time></trkpt><trkpt lat="41.3605417" lon="14.6568267"><ele>492.75</ele><time>2026-04-19T08:59:23.146Z</time></trkpt><trkpt lat="41.3605617" lon="14.657005"><ele>491.5</ele><time>2026-04-19T08:59:24.147Z</time></trkpt><trkpt lat="41.36058" lon="14.657175"><ele>490.25</ele><time>2026-04-19T08:59:25.147Z</time></trkpt><trkpt lat="41.3605967" lon="14.65733"><ele>489.0</ele><time>2026-04-19T08:59:26.147Z</time></trkpt><trkpt lat="41.3606167" lon="14.6574733"><ele>489.0</ele><time>2026-04-19T08:59:27.146Z</time></trkpt><trkpt lat="41.360655" lon="14.6575867"><ele>489.0</ele><time>2026-04-19T08:59:28.146Z</time></trkpt><trkpt lat="41.36072" lon="14.65767"><ele>489.0</ele><time>2026-04-19T08:59:29.146Z</time></trkpt><trkpt lat="41.360795" lon="14.6577117"><ele>489.0</ele><time>2026-04-19T08:59:30.146Z</time></trkpt><trkpt lat="41.3608817" lon="14.6577217"><ele>489.0</ele><time>2026-04-19T08:59:31.146Z</time></trkpt><trkpt lat="41.3609817" lon="14.6577017"><ele>489.0</ele><time>2026-04-19T08:59:32.146Z</time></trkpt><trkpt lat="41.3610883" lon="14.6576783"><ele>489.0</ele><time>2026-04-19T08:59:33.147Z</time></trkpt><trkpt lat="41.361195" lon="14.6576533"><ele>489.0</ele><time>2026-04-19T08:59:34.147Z</time></trkpt><trkpt lat="41.3612983" lon="14.6576533"><ele>489.0</ele><time>2026-04-19T08:59:35.146Z</time></trkpt><trkpt lat="41.3613833" lon="14.6576817"><ele>489.0</ele><time>2026-04-19T08:59:36.147Z</time></trkpt><trkpt lat="41.3614467" lon="14.6577483"><ele>491.4</ele><time>2026-04-19T08:59:37.147Z</time></trkpt><trkpt lat="41.3614883" lon="14.6578417"><ele>493.79999999999995</ele><time>2026-04-19T08:59:38.147Z</time></trkpt><trkpt lat="41.3614983" lon="14.6579567"><ele>496.20000000000005</ele><time>2026-04-19T08:59:39.147Z</time></trkpt><trkpt lat="41.36149" lon="14.6580767"><ele>498.6</ele><time>2026-04-19T08:59:40.147Z</time></trkpt><trkpt lat="41.3614767" lon="14.6582017"><ele>501.0</ele><time>2026-04-19T08:59:41.146Z</time></trkpt><trkpt lat="41.3614667" lon="14.6583433"><ele>501.0</ele><time>2026-04-19T08:59:42.147Z</time></trkpt><trkpt lat="41.3614817" lon="14.6584867"><ele>501.0</ele><time>2026-04-19T08:59:43.147Z</time></trkpt><trkpt lat="41.3615167" lon="14.65864"><ele>501.0</ele><time>2026-04-19T08:59:44.146Z</time></trkpt><trkpt lat="41.3615733" lon="14.658805"><ele>501.0</ele><time>2026-04-19T08:59:45.147Z</time></trkpt><trkpt lat="41.3616267" lon="14.6589633"><ele>500.6</ele><time>2026-04-19T08:59:46.147Z</time></trkpt><trkpt lat="41.3616767" lon="14.6591133"><ele>500.20000000000005</ele><time>2026-04-19T08:59:47.147Z</time></trkpt><trkpt lat="41.3617183" lon="14.6592633"><ele>499.79999999999995</ele><time>2026-04-19T08:59:48.146Z</time></trkpt><trkpt lat="41.361765" lon="14.6593933"><ele>499.4</ele><time>2026-04-19T08:59:49.146Z</time></trkpt><trkpt lat="41.36181" lon="14.6595"><ele>499.0</ele><time>2026-04-19T08:59:50.146Z</time></trkpt><trkpt lat="41.361865" lon="14.6595933"><ele>498.75</ele><time>2026-04-19T08:59:51.147Z</time></trkpt><trkpt lat="41.3619517" lon="14.6596633"><ele>498.5</ele><time>2026-04-19T08:59:52.147Z</time></trkpt><trkpt lat="41.3620583" lon="14.6597167"><ele>498.25</ele><time>2026-04-19T08:59:53.147Z</time></trkpt><trkpt lat="41.3621667" lon="14.6597533"><ele>498.0</ele><time>2026-04-19T08:59:54.147Z</time></trkpt><trkpt lat="41.3622867" lon="14.6597967"><ele>498.0</ele><time>2026-04-19T08:59:55.147Z</time></trkpt><trkpt lat="41.36241" lon="14.659835"><ele>498.0</ele><time>2026-04-19T08:59:56.146Z</time></trkpt><trkpt lat="41.3625317" lon="14.6598783"><ele>498.0</ele><time>2026-04-19T08:59:57.147Z</time></trkpt><trkpt lat="41.362655" lon="14.65993"><ele>498.0</ele><time>2026-04-19T08:59:58.147Z</time></trkpt><trkpt lat="41.3627717" lon="14.6599833"><ele>498.0</ele><time>2026-04-19T08:59:59.147Z</time></trkpt><trkpt lat="41.3628867" lon="14.660025"><ele>498.0</ele><time>2026-04-19T09:00:00.147Z</time></trkpt><trkpt lat="41.363015" lon="14.6600567"><ele>498.0</ele><time>2026-04-19T09:00:01.147Z</time></trkpt><trkpt lat="41.3631383" lon="14.66008"><ele>498.0</ele><time>2026-04-19T09:00:02.146Z</time></trkpt><trkpt lat="41.363255" lon="14.6601083"><ele>499.4</ele><time>2026-04-19T09:00:03.147Z</time></trkpt><trkpt lat="41.3633583" lon="14.660135"><ele>500.79999999999995</ele><time>2026-04-19T09:00:04.147Z</time></trkpt><trkpt lat="41.3634633" lon="14.6601533"><ele>502.2</ele><time>2026-04-19T09:00:05.147Z</time></trkpt><trkpt lat="41.3635633" lon="14.66016"><ele>503.6</ele><time>2026-04-19T09:00:06.147Z</time></trkpt><trkpt lat="41.3636583" lon="14.6601183"><ele>505.0</ele><time>2026-04-19T09:00:07.147Z</time></trkpt><trkpt lat="41.3637417" lon="14.6600683"><ele>505.0</ele><time>2026-04-19T09:00:08.146Z</time></trkpt><trkpt lat="41.3638267" lon="14.6600267"><ele>505.0</ele><time>2026-04-19T09:00:09.146Z</time></trkpt><trkpt lat="41.3639183" lon="14.660005"><ele>505.0</ele><time>2026-04-19T09:00:10.146Z</time></trkpt><trkpt lat="41.3640067" lon="14.6600317"><ele>505.0</ele><time>2026-04-19T09:00:11.147Z</time></trkpt><trkpt lat="41.364085" lon="14.6600867"><ele>505.0</ele><time>2026-04-19T09:00:12.147Z</time></trkpt><trkpt lat="41.3641633" lon="14.66016"><ele>506.0</ele><time>2026-04-19T09:00:13.147Z</time></trkpt><trkpt lat="41.3642467" lon="14.6602267"><ele>507.0</ele><time>2026-04-19T09:00:14.147Z</time></trkpt><trkpt lat="41.3643367" lon="14.6602567"><ele>508.0</ele><time>2026-04-19T09:00:15.147Z</time></trkpt><trkpt lat="41.364435" lon="14.66025"><ele>509.0</ele><time>2026-04-19T09:00:16.147Z</time></trkpt><trkpt lat="41.3645367" lon="14.6602217"><ele>510.0</ele><time>2026-04-19T09:00:17.147Z</time></trkpt><trkpt lat="41.3646417" lon="14.6602017"><ele>509.4</ele><time>2026-04-19T09:00:18.147Z</time></trkpt><trkpt lat="41.3647417" lon="14.6602117"><ele>508.8</ele><time>2026-04-19T09:00:19.147Z</time></trkpt><trkpt lat="41.3648383" lon="14.6602483"><ele>508.20000000000005</ele><time>2026-04-19T09:00:20.147Z</time></trkpt><trkpt lat="41.3649383" lon="14.6603117"><ele>507.6</ele><time>2026-04-19T09:00:21.146Z</time></trkpt><trkpt lat="41.3650317" lon="14.6603933"><ele>507.0</ele><time>2026-04-19T09:00:22.147Z</time></trkpt><trkpt lat="41.3651167" lon="14.66049"><ele>507.0</ele><time>2026-04-19T09:00:23.146Z</time></trkpt><trkpt lat="41.3651883" lon="14.6606183"><ele>507.0</ele><time>2026-04-19T09:00:24.147Z</time></trkpt><trkpt lat="41.365245" lon="14.660755"><ele>507.0</ele><time>2026-04-19T09:00:25.147Z</time></trkpt><trkpt lat="41.365295" lon="14.6608967"><ele>507.0</ele><time>2026-04-19T09:00:26.147Z</time></trkpt><trkpt lat="41.3653317" lon="14.6610333"><ele>507.8</ele><time>2026-04-19T09:00:27.146Z</time></trkpt><trkpt lat="41.3653633" lon="14.6611633"><ele>508.6</ele><time>2026-04-19T09:00:28.146Z</time></trkpt><trkpt lat="41.3654083" lon="14.6612667"><ele>509.40000000000003</ele><time>2026-04-19T09:00:29.147Z</time></trkpt><trkpt lat="41.3654517" lon="14.6613533"><ele>510.20000000000005</ele><time>2026-04-19T09:00:30.146Z</time></trkpt><trkpt lat="41.3655267" lon="14.6614133"><ele>511.0</ele><time>2026-04-19T09:00:31.147Z</time></trkpt><trkpt lat="41.365615" lon="14.6614517"><ele>511.0</ele><time>2026-04-19T09:00:32.147Z</time></trkpt><trkpt lat="41.3657183" lon="14.6614533"><ele>511.0</ele><time>2026-04-19T09:00:33.147Z</time></trkpt><trkpt lat="41.36584" lon="14.6614433"><ele>511.0</ele><time>2026-04-19T09:00:34.147Z</time></trkpt><trkpt lat="41.365965" lon="14.6614267"><ele>511.0</ele><time>2026-04-19T09:00:35.147Z</time></trkpt><trkpt lat="41.3660833" lon="14.66139"><ele>511.0</ele><time>2026-04-19T09:00:36.147Z</time></trkpt><trkpt lat="41.3661783" lon="14.661325"><ele>511.0</ele><time>2026-04-19T09:00:37.147Z</time></trkpt><trkpt lat="41.3662667" lon="14.6612267"><ele>511.0</ele><time>2026-04-19T09:00:38.147Z</time></trkpt><trkpt lat="41.3663383" lon="14.6611033"><ele>511.0</ele><time>2026-04-19T09:00:39.147Z</time></trkpt><trkpt lat="41.3664067" lon="14.6609633"><ele>514.5</ele><time>2026-04-19T09:00:40.147Z</time></trkpt><trkpt lat="41.36647" lon="14.6608133"><ele>518.0</ele><time>2026-04-19T09:00:41.147Z</time></trkpt><trkpt lat="41.3665333" lon="14.6606517"><ele>521.5</ele><time>2026-04-19T09:00:42.147Z</time></trkpt><trkpt lat="41.3665983" lon="14.6604917"><ele>525.0</ele><time>2026-04-19T09:00:43.147Z</time></trkpt><trkpt lat="41.3666517" lon="14.660335"><ele>525.4</ele><time>2026-04-19T09:00:44.147Z</time></trkpt><trkpt lat="41.3666967" lon="14.66019"><ele>525.8</ele><time>2026-04-19T09:00:45.146Z</time></trkpt><trkpt lat="41.3667483" lon="14.660075"><ele>526.2</ele><time>2026-04-19T09:00:46.147Z</time></trkpt><trkpt lat="41.3668183" lon="14.659985"><ele>526.6</ele><time>2026-04-19T09:00:47.146Z</time></trkpt><trkpt lat="41.36691" lon="14.6599333"><ele>527.0</ele><time>2026-04-19T09:00:48.146Z</time></trkpt><trkpt lat="41.367015" lon="14.6599133"><ele>527.0</ele><time>2026-04-19T09:00:49.147Z</time></trkpt><trkpt lat="41.3671283" lon="14.65993"><ele>527.0</ele><time>2026-04-19T09:00:50.147Z</time></trkpt><trkpt lat="41.3672583" lon="14.659975"><ele>527.0</ele><time>2026-04-19T09:00:51.147Z</time></trkpt><trkpt lat="41.36739" lon="14.6600183"><ele>527.0</ele><time>2026-04-19T09:00:52.147Z</time></trkpt><trkpt lat="41.36752" lon="14.6600533"><ele>527.4</ele><time>2026-04-19T09:00:53.147Z</time></trkpt><trkpt lat="41.367635" lon="14.660095"><ele>527.8000000000001</ele><time>2026-04-19T09:00:54.146Z</time></trkpt><trkpt lat="41.3677433" lon="14.6601083"><ele>528.2</ele><time>2026-04-19T09:00:55.147Z</time></trkpt><trkpt lat="41.3678417" lon="14.660095"><ele>528.6</ele><time>2026-04-19T09:00:56.147Z</time></trkpt><trkpt lat="41.3679367" lon="14.6600367"><ele>529.0</ele><time>2026-04-19T09:00:57.147Z</time></trkpt><trkpt lat="41.368025" lon="14.659955"><ele>528.25</ele><time>2026-04-19T09:00:58.146Z</time></trkpt><trkpt lat="41.36811" lon="14.6598433"><ele>527.5</ele><time>2026-04-19T09:00:59.146Z</time></trkpt><trkpt lat="41.3681867" lon="14.6597067"><ele>526.75</ele><time>2026-04-19T09:01:00.147Z</time></trkpt><trkpt lat="41.3682567" lon="14.6595717"><ele>526.0</ele><time>2026-04-19T09:01:01.146Z</time></trkpt><trkpt lat="41.3683267" lon="14.65945"><ele>527.8</ele><time>2026-04-19T09:01:02.147Z</time></trkpt><trkpt lat="41.368395" lon="14.659345"><ele>529.6</ele><time>2026-04-19T09:01:03.147Z</time></trkpt><trkpt lat="41.368475" lon="14.65926"><ele>531.4</ele><time>2026-04-19T09:01:04.147Z</time></trkpt><trkpt lat="41.3685683" lon="14.6592033"><ele>533.2</ele><time>2026-04-19T09:01:05.146Z</time></trkpt><trkpt lat="41.3686783" lon="14.659185"><ele>535.0</ele><time>2026-04-19T09:01:06.147Z</time></trkpt><trkpt lat="41.3687967" lon="14.659185"><ele>535.75</ele><time>2026-04-19T09:01:07.147Z</time></trkpt><trkpt lat="41.3689217" lon="14.6592083"><ele>536.5</ele><time>2026-04-19T09:01:08.147Z</time></trkpt><trkpt lat="41.369045" lon="14.6592467"><ele>537.25</ele><time>2026-04-19T09:01:09.146Z</time></trkpt><trkpt lat="41.36916" lon="14.6592933"><ele>538.0</ele><time>2026-04-19T09:01:10.147Z</time></trkpt><trkpt lat="41.3692767" lon="14.6593467"><ele>538.0</ele><time>2026-04-19T09:01:11.146Z</time></trkpt><trkpt lat="41.3693933" lon="14.6593983"><ele>538.0</ele><time>2026-04-19T09:01:12.147Z</time></trkpt><trkpt lat="41.3695083" lon="14.65945"><ele>538.0</ele><time>2026-04-19T09:01:13.147Z</time></trkpt><trkpt lat="41.36963" lon="14.6595"><ele>538.0</ele><time>2026-04-19T09:01:14.147Z</time></trkpt><trkpt lat="41.369745" lon="14.65956"><ele>536.75</ele><time>2026-04-19T09:01:15.147Z</time></trkpt><trkpt lat="41.3698583" lon="14.65962"><ele>535.5</ele><time>2026-04-19T09:01:16.147Z</time></trkpt><trkpt lat="41.3699733" lon="14.6596883"><ele>534.25</ele><time>2026-04-19T09:01:17.146Z</time></trkpt><trkpt lat="41.3700883" lon="14.6597683"><ele>533.0</ele><time>2026-04-19T09:01:18.147Z</time></trkpt><trkpt lat="41.3702017" lon="14.65986"><ele>533.0</ele><time>2026-04-19T09:01:19.147Z</time></trkpt><trkpt lat="41.370315" lon="14.6599517"><ele>533.0</ele><time>2026-04-19T09:01:20.146Z</time></trkpt><trkpt lat="41.37043" lon="14.66004"><ele>533.0</ele><time>2026-04-19T09:01:21.147Z</time></trkpt><trkpt lat="41.37054" lon="14.6601317"><ele>533.0</ele><time>2026-04-19T09:01:22.147Z</time></trkpt><trkpt lat="41.37066" lon="14.6602117"><ele>533.0</ele><time>2026-04-19T09:01:23.147Z</time></trkpt><trkpt lat="41.37078" lon="14.660295"><ele>533.0</ele><time>2026-04-19T09:01:24.147Z</time></trkpt><trkpt lat="41.370895" lon="14.6603783"><ele>533.0</ele><time>2026-04-19T09:01:25.147Z</time></trkpt><trkpt lat="41.3710067" lon="14.6604483"><ele>533.0</ele><time>2026-04-19T09:01:26.147Z</time></trkpt><trkpt lat="41.3711067" lon="14.66051"><ele>533.0</ele><time>2026-04-19T09:01:27.146Z</time></trkpt><trkpt lat="41.3712017" lon="14.660565"><ele>533.0</ele><time>2026-04-19T09:01:28.147Z</time></trkpt><trkpt lat="41.3712883" lon="14.6606133"><ele>533.0</ele><time>2026-04-19T09:01:29.147Z</time></trkpt><trkpt lat="41.3713683" lon="14.6606367"><ele>533.0</ele><time>2026-04-19T09:01:30.147Z</time></trkpt><trkpt lat="41.3714567" lon="14.6606367"><ele>533.0</ele><time>2026-04-19T09:01:31.147Z</time></trkpt><trkpt lat="41.3715483" lon="14.6605983"><ele>534.0</ele><time>2026-04-19T09:01:32.147Z</time></trkpt><trkpt lat="41.37163" lon="14.66054"><ele>535.0</ele><time>2026-04-19T09:01:33.147Z</time></trkpt><trkpt lat="41.3717083" lon="14.660475"><ele>536.0</ele><time>2026-04-19T09:01:34.147Z</time></trkpt><trkpt lat="41.3717817" lon="14.6604067"><ele>537.0</ele><time>2026-04-19T09:01:35.147Z</time></trkpt><trkpt lat="41.371855" lon="14.6603367"><ele>538.0</ele><time>2026-04-19T09:01:36.147Z</time></trkpt><trkpt lat="41.3719217" lon="14.6602567"><ele>540.0</ele><time>2026-04-19T09:01:37.147Z</time></trkpt><trkpt lat="41.3719983" lon="14.6601867"><ele>542.0</ele><time>2026-04-19T09:01:38.146Z</time></trkpt><trkpt lat="41.372075" lon="14.660145"><ele>544.0</ele><time>2026-04-19T09:01:39.146Z</time></trkpt><trkpt lat="41.3721583" lon="14.660145"><ele>546.0</ele><time>2026-04-19T09:01:40.147Z</time></trkpt><trkpt lat="41.3722333" lon="14.6601833"><ele>548.0</ele><time>2026-04-19T09:01:41.146Z</time></trkpt><trkpt lat="41.3722983" lon="14.66026"><ele>550.0</ele><time>2026-04-19T09:01:42.146Z</time></trkpt><trkpt lat="41.3723383" lon="14.6603667"><ele>550.0</ele><time>2026-04-19T09:01:43.147Z</time></trkpt><trkpt lat="41.372355" lon="14.6604867"><ele>550.0</ele><time>2026-04-19T09:01:44.147Z</time></trkpt><trkpt lat="41.3723567" lon="14.660625"><ele>550.0</ele><time>2026-04-19T09:01:45.147Z</time></trkpt><trkpt lat="41.37235" lon="14.66077"><ele>550.0</ele><time>2026-04-19T09:01:46.146Z</time></trkpt><trkpt lat="41.3723367" lon="14.660925"><ele>550.0</ele><time>2026-04-19T09:01:47.147Z</time></trkpt><trkpt lat="41.37232" lon="14.6610733"><ele>549.6666666666667</ele><time>2026-04-19T09:01:48.147Z</time></trkpt><trkpt lat="41.3723117" lon="14.6612117"><ele>549.3333333333334</ele><time>2026-04-19T09:01:49.146Z</time></trkpt><trkpt lat="41.372305" lon="14.661335"><ele>549.0</ele><time>2026-04-19T09:01:50.147Z</time></trkpt><trkpt lat="41.3723" lon="14.6614417"><ele>548.6666666666666</ele><time>2026-04-19T09:01:51.147Z</time></trkpt><trkpt lat="41.3723033" lon="14.6615467"><ele>548.3333333333333</ele><time>2026-04-19T09:01:52.147Z</time></trkpt><trkpt lat="41.3723317" lon="14.6616567"><ele>548.0</ele><time>2026-04-19T09:01:53.147Z</time></trkpt><trkpt lat="41.3723833" lon="14.6617567"><ele>548.0</ele><time>2026-04-19T09:01:54.147Z</time></trkpt><trkpt lat="41.37244" lon="14.6618567"><ele>548.0</ele><time>2026-04-19T09:01:55.146Z</time></trkpt><trkpt lat="41.3725" lon="14.66196"><ele>548.0</ele><time>2026-04-19T09:01:56.147Z</time></trkpt><trkpt lat="41.3725583" lon="14.6620567"><ele>548.0</ele><time>2026-04-19T09:01:57.147Z</time></trkpt><trkpt lat="41.3726217" lon="14.6621483"><ele>548.0</ele><time>2026-04-19T09:01:58.147Z</time></trkpt><trkpt lat="41.3726783" lon="14.66223"><ele>548.4285714285714</ele><time>2026-04-19T09:01:59.147Z</time></trkpt><trkpt lat="41.3727317" lon="14.66231"><ele>548.8571428571429</ele><time>2026-04-19T09:02:00.146Z</time></trkpt><trkpt lat="41.372785" lon="14.6623817"><ele>549.2857142857142</ele><time>2026-04-19T09:02:01.147Z</time></trkpt><trkpt lat="41.3728417" lon="14.6624433"><ele>549.7142857142858</ele><time>2026-04-19T09:02:02.147Z</time></trkpt><trkpt lat="41.3729033" lon="14.66248"><ele>550.1428571428571</ele><time>2026-04-19T09:02:03.146Z</time></trkpt><trkpt lat="41.3729683" lon="14.6624983"><ele>550.5714285714286</ele><time>2026-04-19T09:02:04.147Z</time></trkpt><trkpt lat="41.3730333" lon="14.66249"><ele>551.0</ele><time>2026-04-19T09:02:05.147Z</time></trkpt><trkpt lat="41.3731117" lon="14.6624617"><ele>551.0</ele><time>2026-04-19T09:02:06.147Z</time></trkpt><trkpt lat="41.3731983" lon="14.6624367"><ele>551.0</ele><time>2026-04-19T09:02:07.146Z</time></trkpt><trkpt lat="41.37327" lon="14.66241"><ele>551.0</ele><time>2026-04-19T09:02:08.146Z</time></trkpt><trkpt lat="41.3733433" lon="14.6623917"><ele>551.0</ele><time>2026-04-19T09:02:09.147Z</time></trkpt><trkpt lat="41.3734917" lon="14.662405"><ele>551.0</ele><time>2026-04-19T09:02:11.147Z</time></trkpt><trkpt lat="41.37359" lon="14.6624383"><ele>551.0</ele><time>2026-04-19T09:02:12.146Z</time></trkpt><trkpt lat="41.373685" lon="14.6624967"><ele>551.0</ele><time>2026-04-19T09:02:13.147Z</time></trkpt><trkpt lat="41.3737817" lon="14.6625667"><ele>551.0</ele><time>2026-04-19T09:02:14.146Z</time></trkpt><trkpt lat="41.373875" lon="14.6626317"><ele>551.0</ele><time>2026-04-19T09:02:15.146Z</time></trkpt><trkpt lat="41.3739617" lon="14.662705"><ele>551.0</ele><time>2026-04-19T09:02:16.147Z</time></trkpt><trkpt lat="41.3740467" lon="14.6627617"><ele>551.0</ele><time>2026-04-19T09:02:17.147Z</time></trkpt><trkpt lat="41.374125" lon="14.6628233"><ele>551.0</ele><time>2026-04-19T09:02:18.147Z</time></trkpt><trkpt lat="41.3741917" lon="14.6628767"><ele>551.0</ele><time>2026-04-19T09:02:19.147Z</time></trkpt><trkpt lat="41.3742567" lon="14.6629267"><ele>551.0</ele><time>2026-04-19T09:02:20.147Z</time></trkpt><trkpt lat="41.3743217" lon="14.6629683"><ele>551.0</ele><time>2026-04-19T09:02:21.147Z</time></trkpt><trkpt lat="41.3743783" lon="14.6630067"><ele>551.0</ele><time>2026-04-19T09:02:22.147Z</time></trkpt><trkpt lat="41.374485" lon="14.6630733"><ele>551.0</ele><time>2026-04-19T09:02:24.147Z</time></trkpt><trkpt lat="41.3746067" lon="14.6630367"><ele>551.0</ele><time>2026-04-19T09:02:26.147Z</time></trkpt><trkpt lat="41.3747367" lon="14.66294"><ele>551.0</ele><time>2026-04-19T09:02:28.147Z</time></trkpt><trkpt lat="41.374805" lon="14.662875"><ele>551.0</ele><time>2026-04-19T09:02:29.147Z</time></trkpt><trkpt lat="41.37488" lon="14.6628067"><ele>551.0</ele><time>2026-04-19T09:02:30.146Z</time></trkpt><trkpt lat="41.3749567" lon="14.662735"><ele>551.5</ele><time>2026-04-19T09:02:31.147Z</time></trkpt><trkpt lat="41.375025" lon="14.6626617"><ele>552.0</ele><time>2026-04-19T09:02:32.147Z</time></trkpt><trkpt lat="41.3750983" lon="14.6626"><ele>552.5</ele><time>2026-04-19T09:02:33.147Z</time></trkpt><trkpt lat="41.37518" lon="14.6625417"><ele>553.0</ele><time>2026-04-19T09:02:34.146Z</time></trkpt><trkpt lat="41.3752633" lon="14.6624917"><ele>553.5</ele><time>2026-04-19T09:02:35.146Z</time></trkpt><trkpt lat="41.3753483" lon="14.6624617"><ele>554.0</ele><time>2026-04-19T09:02:36.147Z</time></trkpt><trkpt lat="41.3754233" lon="14.662445"><ele>554.0</ele><time>2026-04-19T09:02:37.147Z</time></trkpt><trkpt lat="41.3755067" lon="14.6624467"><ele>554.0</ele><time>2026-04-19T09:02:38.147Z</time></trkpt><trkpt lat="41.37559" lon="14.6624667"><ele>554.0</ele><time>2026-04-19T09:02:39.147Z</time></trkpt><trkpt lat="41.3756767" lon="14.662485"><ele>554.0</ele><time>2026-04-19T09:02:40.147Z</time></trkpt><trkpt lat="41.3757733" lon="14.6625117"><ele>554.0</ele><time>2026-04-19T09:02:41.147Z</time></trkpt><trkpt lat="41.3758667" lon="14.6625333"><ele>554.0</ele><time>2026-04-19T09:02:42.147Z</time></trkpt><trkpt lat="41.375955" lon="14.662555"><ele>553.0</ele><time>2026-04-19T09:02:43.147Z</time></trkpt><trkpt lat="41.376045" lon="14.662575"><ele>552.0</ele><time>2026-04-19T09:02:44.147Z</time></trkpt><trkpt lat="41.3761433" lon="14.6625983"><ele>551.0</ele><time>2026-04-19T09:02:45.147Z</time></trkpt><trkpt lat="41.3762417" lon="14.6626283"><ele>550.0</ele><time>2026-04-19T09:02:46.147Z</time></trkpt><trkpt lat="41.3763417" lon="14.6626517"><ele>549.0</ele><time>2026-04-19T09:02:47.146Z</time></trkpt><trkpt lat="41.3764367" lon="14.6626733"><ele>549.0</ele><time>2026-04-19T09:02:48.147Z</time></trkpt><trkpt lat="41.376535" lon="14.662685"><ele>549.0</ele><time>2026-04-19T09:02:49.146Z</time></trkpt><trkpt lat="41.3766367" lon="14.6626817"><ele>549.0</ele><time>2026-04-19T09:02:50.147Z</time></trkpt><trkpt lat="41.3767383" lon="14.6626583"><ele>549.0</ele><time>2026-04-19T09:02:51.147Z</time></trkpt><trkpt lat="41.376845" lon="14.6626067"><ele>549.0</ele><time>2026-04-19T09:02:52.147Z</time></trkpt><trkpt lat="41.37696" lon="14.6625483"><ele>549.0</ele><time>2026-04-19T09:02:53.147Z</time></trkpt><trkpt lat="41.37707" lon="14.6624733"><ele>549.0</ele><time>2026-04-19T09:02:54.146Z</time></trkpt><trkpt lat="41.3771733" lon="14.6624"><ele>549.0</ele><time>2026-04-19T09:02:55.147Z</time></trkpt><trkpt lat="41.3772717" lon="14.66234"><ele>549.0</ele><time>2026-04-19T09:02:56.147Z</time></trkpt><trkpt lat="41.37737" lon="14.6622783"><ele>547.8</ele><time>2026-04-19T09:02:57.146Z</time></trkpt><trkpt lat="41.3774767" lon="14.66224"><ele>546.5999999999999</ele><time>2026-04-19T09:02:58.147Z</time></trkpt><trkpt lat="41.3775667" lon="14.6621983"><ele>545.4</ele><time>2026-04-19T09:02:59.146Z</time></trkpt><trkpt lat="41.37767" lon="14.6621917"><ele>544.1999999999999</ele><time>2026-04-19T09:03:00.147Z</time></trkpt><trkpt lat="41.3777733" lon="14.6622183"><ele>543.0</ele><time>2026-04-19T09:03:01.146Z</time></trkpt><trkpt lat="41.37787" lon="14.6622767"><ele>543.0</ele><time>2026-04-19T09:03:02.146Z</time></trkpt><trkpt lat="41.377965" lon="14.6623433"><ele>543.0</ele><time>2026-04-19T09:03:03.146Z</time></trkpt><trkpt lat="41.37806" lon="14.6624167"><ele>543.0</ele><time>2026-04-19T09:03:04.146Z</time></trkpt><trkpt lat="41.3781533" lon="14.6624917"><ele>543.0</ele><time>2026-04-19T09:03:05.147Z</time></trkpt><trkpt lat="41.3782617" lon="14.6625617"><ele>543.0</ele><time>2026-04-19T09:03:06.147Z</time></trkpt><trkpt lat="41.378375" lon="14.6626067"><ele>544.0</ele><time>2026-04-19T09:03:07.147Z</time></trkpt><trkpt lat="41.3784833" lon="14.6626383"><ele>545.0</ele><time>2026-04-19T09:03:08.147Z</time></trkpt><trkpt lat="41.3785967" lon="14.6626617"><ele>546.0</ele><time>2026-04-19T09:03:09.147Z</time></trkpt><trkpt lat="41.3787067" lon="14.6626967"><ele>547.0</ele><time>2026-04-19T09:03:10.147Z</time></trkpt><trkpt lat="41.37882" lon="14.6627667"><ele>543.5</ele><time>2026-04-19T09:03:11.147Z</time></trkpt><trkpt lat="41.378925" lon="14.662855"><ele>540.0</ele><time>2026-04-19T09:03:12.146Z</time></trkpt><trkpt lat="41.3790317" lon="14.6629417"><ele>536.5</ele><time>2026-04-19T09:03:13.147Z</time></trkpt><trkpt lat="41.3791283" lon="14.6630133"><ele>533.0</ele><time>2026-04-19T09:03:14.146Z</time></trkpt><trkpt lat="41.3792283" lon="14.6630767"><ele>533.0</ele><time>2026-04-19T09:03:15.147Z</time></trkpt><trkpt lat="41.37934" lon="14.6631083"><ele>533.0</ele><time>2026-04-19T09:03:16.147Z</time></trkpt><trkpt lat="41.3794633" lon="14.6631183"><ele>533.0</ele><time>2026-04-19T09:03:17.147Z</time></trkpt><trkpt lat="41.3795933" lon="14.6631033"><ele>533.0</ele><time>2026-04-19T09:03:18.147Z</time></trkpt><trkpt lat="41.3797317" lon="14.6630817"><ele>531.75</ele><time>2026-04-19T09:03:19.147Z</time></trkpt><trkpt lat="41.3798733" lon="14.66305"><ele>530.5</ele><time>2026-04-19T09:03:20.147Z</time></trkpt><trkpt lat="41.3800117" lon="14.6630133"><ele>529.25</ele><time>2026-04-19T09:03:21.146Z</time></trkpt><trkpt lat="41.380145" lon="14.6629983"><ele>528.0</ele><time>2026-04-19T09:03:22.147Z</time></trkpt><trkpt lat="41.380275" lon="14.6630067"><ele>528.0</ele><time>2026-04-19T09:03:23.146Z</time></trkpt><trkpt lat="41.3804" lon="14.663035"><ele>528.0</ele><time>2026-04-19T09:03:24.147Z</time></trkpt><trkpt lat="41.38052" lon="14.6630733"><ele>528.0</ele><time>2026-04-19T09:03:25.147Z</time></trkpt><trkpt lat="41.3806233" lon="14.6631483"><ele>528.0</ele><time>2026-04-19T09:03:26.146Z</time></trkpt><trkpt lat="41.3807167" lon="14.6632467"><ele>528.25</ele><time>2026-04-19T09:03:27.147Z</time></trkpt><trkpt lat="41.3808083" lon="14.66336"><ele>528.5</ele><time>2026-04-19T09:03:28.146Z</time></trkpt><trkpt lat="41.380905" lon="14.6634733"><ele>528.75</ele><time>2026-04-19T09:03:29.147Z</time></trkpt><trkpt lat="41.3809983" lon="14.6636017"><ele>529.0</ele><time>2026-04-19T09:03:30.147Z</time></trkpt><trkpt lat="41.38108" lon="14.6637217"><ele>528.5</ele><time>2026-04-19T09:03:31.146Z</time></trkpt><trkpt lat="41.381165" lon="14.6638367"><ele>528.0</ele><time>2026-04-19T09:03:32.147Z</time></trkpt><trkpt lat="41.3812567" lon="14.6639467"><ele>527.5</ele><time>2026-04-19T09:03:33.147Z</time></trkpt><trkpt lat="41.38135" lon="14.6640317"><ele>527.0</ele><time>2026-04-19T09:03:34.146Z</time></trkpt><trkpt lat="41.3814517" lon="14.66409"><ele>526.25</ele><time>2026-04-19T09:03:35.147Z</time></trkpt><trkpt lat="41.3815683" lon="14.6641067"><ele>525.5</ele><time>2026-04-19T09:03:36.147Z</time></trkpt><trkpt lat="41.3816917" lon="14.6641"><ele>524.75</ele><time>2026-04-19T09:03:37.146Z</time></trkpt><trkpt lat="41.3818167" lon="14.6640783"><ele>524.0</ele><time>2026-04-19T09:03:38.146Z</time></trkpt><trkpt lat="41.381945" lon="14.66407"><ele>524.0</ele><time>2026-04-19T09:03:39.147Z</time></trkpt><trkpt lat="41.382075" lon="14.6640567"><ele>524.0</ele><time>2026-04-19T09:03:40.146Z</time></trkpt><trkpt lat="41.3821967" lon="14.6640417"><ele>524.0</ele><time>2026-04-19T09:03:41.147Z</time></trkpt><trkpt lat="41.3823167" lon="14.6640217"><ele>524.0</ele><time>2026-04-19T09:03:42.147Z</time></trkpt><trkpt lat="41.382425" lon="14.663985"><ele>524.0</ele><time>2026-04-19T09:03:43.147Z</time></trkpt><trkpt lat="41.382525" lon="14.6639217"><ele>524.0</ele><time>2026-04-19T09:03:44.147Z</time></trkpt><trkpt lat="41.3826167" lon="14.663825"><ele>524.0</ele><time>2026-04-19T09:03:45.147Z</time></trkpt><trkpt lat="41.3826867" lon="14.6636967"><ele>524.0</ele><time>2026-04-19T09:03:46.147Z</time></trkpt><trkpt lat="41.382755" lon="14.6635583"><ele>524.0</ele><time>2026-04-19T09:03:47.147Z</time></trkpt><trkpt lat="41.382815" lon="14.6634217"><ele>524.0</ele><time>2026-04-19T09:03:48.146Z</time></trkpt><trkpt lat="41.38287" lon="14.6632983"><ele>524.0</ele><time>2026-04-19T09:03:49.147Z</time></trkpt><trkpt lat="41.382935" lon="14.6631817"><ele>524.0</ele><time>2026-04-19T09:03:50.146Z</time></trkpt><trkpt lat="41.383005" lon="14.6630883"><ele>524.0</ele><time>2026-04-19T09:03:51.146Z</time></trkpt><trkpt lat="41.3830867" lon="14.6630117"><ele>522.5</ele><time>2026-04-19T09:03:52.147Z</time></trkpt><trkpt lat="41.3831817" lon="14.6629667"><ele>521.0</ele><time>2026-04-19T09:03:53.146Z</time></trkpt><trkpt lat="41.3832917" lon="14.662965"><ele>519.5</ele><time>2026-04-19T09:03:54.147Z</time></trkpt><trkpt lat="41.3834167" lon="14.6629767"><ele>518.0</ele><time>2026-04-19T09:03:55.146Z</time></trkpt><trkpt lat="41.3835483" lon="14.6629917"><ele>518.0</ele><time>2026-04-19T09:03:56.147Z</time></trkpt><trkpt lat="41.3836767" lon="14.6630117"><ele>518.0</ele><time>2026-04-19T09:03:57.146Z</time></trkpt><trkpt lat="41.3838067" lon="14.6630283"><ele>518.0</ele><time>2026-04-19T09:03:58.147Z</time></trkpt><trkpt lat="41.38393" lon="14.66304"><ele>518.0</ele><time>2026-04-19T09:03:59.147Z</time></trkpt><trkpt lat="41.38405" lon="14.6630567"><ele>516.25</ele><time>2026-04-19T09:04:00.147Z</time></trkpt><trkpt lat="41.3841683" lon="14.6630617"><ele>514.5</ele><time>2026-04-19T09:04:01.146Z</time></trkpt><trkpt lat="41.3842833" lon="14.66307"><ele>512.75</ele><time>2026-04-19T09:04:02.147Z</time></trkpt><trkpt lat="41.384395" lon="14.66309"><ele>511.0</ele><time>2026-04-19T09:04:03.147Z</time></trkpt><trkpt lat="41.384505" lon="14.6631067"><ele>511.0</ele><time>2026-04-19T09:04:04.146Z</time></trkpt><trkpt lat="41.3846133" lon="14.6631067"><ele>511.0</ele><time>2026-04-19T09:04:05.147Z</time></trkpt><trkpt lat="41.3847167" lon="14.663085"><ele>511.0</ele><time>2026-04-19T09:04:06.147Z</time></trkpt><trkpt lat="41.3848167" lon="14.6630383"><ele>511.0</ele><time>2026-04-19T09:04:07.146Z</time></trkpt><trkpt lat="41.3849067" lon="14.6629633"><ele>511.0</ele><time>2026-04-19T09:04:08.146Z</time></trkpt><trkpt lat="41.3849933" lon="14.662865"><ele>511.25</ele><time>2026-04-19T09:04:09.147Z</time></trkpt><trkpt lat="41.3850767" lon="14.6627517"><ele>511.5</ele><time>2026-04-19T09:04:10.146Z</time></trkpt><trkpt lat="41.385165" lon="14.66263"><ele>511.75</ele><time>2026-04-19T09:04:11.146Z</time></trkpt><trkpt lat="41.3852533" lon="14.6625"><ele>512.0</ele><time>2026-04-19T09:04:12.147Z</time></trkpt><trkpt lat="41.3853433" lon="14.662365"><ele>512.0</ele><time>2026-04-19T09:04:13.146Z</time></trkpt><trkpt lat="41.38543" lon="14.6622333"><ele>512.0</ele><time>2026-04-19T09:04:14.147Z</time></trkpt><trkpt lat="41.3855083" lon="14.66211"><ele>512.0</ele><time>2026-04-19T09:04:15.147Z</time></trkpt><trkpt lat="41.3855833" lon="14.661995"><ele>512.0</ele><time>2026-04-19T09:04:16.147Z</time></trkpt><trkpt lat="41.385655" lon="14.6618833"><ele>511.40000000000003</ele><time>2026-04-19T09:04:17.147Z</time></trkpt><trkpt lat="41.38573" lon="14.6617767"><ele>510.80000000000007</ele><time>2026-04-19T09:04:18.147Z</time></trkpt><trkpt lat="41.3858117" lon="14.6616983"><ele>510.2</ele><time>2026-04-19T09:04:19.147Z</time></trkpt><trkpt lat="41.38589" lon="14.6616433"><ele>509.6</ele><time>2026-04-19T09:04:20.147Z</time></trkpt><trkpt lat="41.3859733" lon="14.6616383"><ele>509.0</ele><time>2026-04-19T09:04:21.146Z</time></trkpt><trkpt lat="41.38606" lon="14.661675"><ele>509.0</ele><time>2026-04-19T09:04:22.147Z</time></trkpt><trkpt lat="41.3861433" lon="14.6617367"><ele>509.0</ele><time>2026-04-19T09:04:23.147Z</time></trkpt><trkpt lat="41.38622" lon="14.66182"><ele>509.0</ele><time>2026-04-19T09:04:24.146Z</time></trkpt><trkpt lat="41.3863117" lon="14.661915"><ele>509.0</ele><time>2026-04-19T09:04:25.146Z</time></trkpt><trkpt lat="41.3864067" lon="14.66201"><ele>509.0</ele><time>2026-04-19T09:04:26.147Z</time></trkpt><trkpt lat="41.3865133" lon="14.6620817"><ele>506.25</ele><time>2026-04-19T09:04:27.147Z</time></trkpt><trkpt lat="41.38663" lon="14.6621417"><ele>503.5</ele><time>2026-04-19T09:04:28.147Z</time></trkpt><trkpt lat="41.3867483" lon="14.6621833"><ele>500.75</ele><time>2026-04-19T09:04:29.146Z</time></trkpt><trkpt lat="41.3868717" lon="14.6622"><ele>498.0</ele><time>2026-04-19T09:04:30.147Z</time></trkpt><trkpt lat="41.3869917" lon="14.662195"><ele>498.0</ele><time>2026-04-19T09:04:31.147Z</time></trkpt><trkpt lat="41.3871117" lon="14.6621717"><ele>498.0</ele><time>2026-04-19T09:04:32.146Z</time></trkpt><trkpt lat="41.3872333" lon="14.6621383"><ele>498.0</ele><time>2026-04-19T09:04:33.146Z</time></trkpt><trkpt lat="41.3873517" lon="14.6620967"><ele>498.0</ele><time>2026-04-19T09:04:34.147Z</time></trkpt><trkpt lat="41.387465" lon="14.6620567"><ele>497.0</ele><time>2026-04-19T09:04:35.147Z</time></trkpt><trkpt lat="41.38758" lon="14.6620067"><ele>496.0</ele><time>2026-04-19T09:04:36.147Z</time></trkpt><trkpt lat="41.3876917" lon="14.6619517"><ele>495.0</ele><time>2026-04-19T09:04:37.146Z</time></trkpt><trkpt lat="41.38779" lon="14.6618767"><ele>494.0</ele><time>2026-04-19T09:04:38.146Z</time></trkpt><trkpt lat="41.38789" lon="14.6617883"><ele>493.0</ele><time>2026-04-19T09:04:39.147Z</time></trkpt><trkpt lat="41.3879667" lon="14.6616817"><ele>492.0</ele><time>2026-04-19T09:04:40.147Z</time></trkpt><trkpt lat="41.388035" lon="14.66156"><ele>491.0</ele><time>2026-04-19T09:04:41.147Z</time></trkpt><trkpt lat="41.3880933" lon="14.6614317"><ele>490.0</ele><time>2026-04-19T09:04:42.147Z</time></trkpt><trkpt lat="41.3881483" lon="14.661305"><ele>489.0</ele><time>2026-04-19T09:04:43.147Z</time></trkpt><trkpt lat="41.3881917" lon="14.661185"><ele>490.79999999999995</ele><time>2026-04-19T09:04:44.147Z</time></trkpt><trkpt lat="41.3882383" lon="14.6610733"><ele>492.59999999999997</ele><time>2026-04-19T09:04:45.147Z</time></trkpt><trkpt lat="41.3883033" lon="14.6609683"><ele>494.4</ele><time>2026-04-19T09:04:46.147Z</time></trkpt><trkpt lat="41.3883833" lon="14.6608967"><ele>496.2</ele><time>2026-04-19T09:04:47.146Z</time></trkpt><trkpt lat="41.3884833" lon="14.66085"><ele>498.0</ele><time>2026-04-19T09:04:48.147Z</time></trkpt><trkpt lat="41.3885983" lon="14.6608367"><ele>498.0</ele><time>2026-04-19T09:04:49.147Z</time></trkpt><trkpt lat="41.3887233" lon="14.6608383"><ele>498.0</ele><time>2026-04-19T09:04:50.146Z</time></trkpt><trkpt lat="41.3888517" lon="14.6608267"><ele>498.0</ele><time>2026-04-19T09:04:51.147Z</time></trkpt><trkpt lat="41.38897" lon="14.66082"><ele>498.0</ele><time>2026-04-19T09:04:52.146Z</time></trkpt><trkpt lat="41.3890833" lon="14.6608117"><ele>497.0</ele><time>2026-04-19T09:04:53.147Z</time></trkpt><trkpt lat="41.3891917" lon="14.6608233"><ele>495.99999999999994</ele><time>2026-04-19T09:04:54.147Z</time></trkpt><trkpt lat="41.3892933" lon="14.6608367"><ele>494.99999999999994</ele><time>2026-04-19T09:04:55.146Z</time></trkpt><trkpt lat="41.3893867" lon="14.6608833"><ele>494.0</ele><time>2026-04-19T09:04:56.147Z</time></trkpt><trkpt lat="41.3894767" lon="14.660965"><ele>493.0</ele><time>2026-04-19T09:04:57.146Z</time></trkpt><trkpt lat="41.3895517" lon="14.661055"><ele>490.79999999999995</ele><time>2026-04-19T09:04:58.147Z</time></trkpt><trkpt lat="41.389625" lon="14.661155"><ele>488.59999999999997</ele><time>2026-04-19T09:04:59.146Z</time></trkpt><trkpt lat="41.3896933" lon="14.6612583"><ele>486.40000000000003</ele><time>2026-04-19T09:05:00.146Z</time></trkpt><trkpt lat="41.389755" lon="14.6613533"><ele>484.20000000000005</ele><time>2026-04-19T09:05:01.147Z</time></trkpt><trkpt lat="41.3898067" lon="14.6614317"><ele>482.0</ele><time>2026-04-19T09:05:02.147Z</time></trkpt><trkpt lat="41.3898717" lon="14.6615467"><ele>482.0</ele><time>2026-04-19T09:05:04.147Z</time></trkpt><trkpt lat="41.3899217" lon="14.6616583"><ele>482.00000000000006</ele><time>2026-04-19T09:05:06.146Z</time></trkpt><trkpt lat="41.3899717" lon="14.66179"><ele>482.00000000000006</ele><time>2026-04-19T09:05:08.147Z</time></trkpt><trkpt lat="41.3900567" lon="14.661865"><ele>482.0</ele><time>2026-04-19T09:05:10.146Z</time></trkpt><trkpt lat="41.3901733" lon="14.66184"><ele>482.0</ele><time>2026-04-19T09:05:12.147Z</time></trkpt><trkpt lat="41.3902467" lon="14.6617867"><ele>482.0</ele><time>2026-04-19T09:05:13.147Z</time></trkpt><trkpt lat="41.3903333" lon="14.6617183"><ele>482.00000000000006</ele><time>2026-04-19T09:05:14.147Z</time></trkpt><trkpt lat="41.3904217" lon="14.66164"><ele>482.00000000000006</ele><time>2026-04-19T09:05:15.146Z</time></trkpt><trkpt lat="41.390515" lon="14.6615617"><ele>482.0</ele><time>2026-04-19T09:05:16.147Z</time></trkpt><trkpt lat="41.3906083" lon="14.6614917"><ele>482.0</ele><time>2026-04-19T09:05:17.147Z</time></trkpt><trkpt lat="41.3906983" lon="14.6614367"><ele>483.6</ele><time>2026-04-19T09:05:18.147Z</time></trkpt><trkpt lat="41.3907883" lon="14.6613933"><ele>485.20000000000005</ele><time>2026-04-19T09:05:19.147Z</time></trkpt><trkpt lat="41.390885" lon="14.66137"><ele>486.8</ele><time>2026-04-19T09:05:20.147Z</time></trkpt><trkpt lat="41.390975" lon="14.66137"><ele>488.4</ele><time>2026-04-19T09:05:21.147Z</time></trkpt><trkpt lat="41.3910683" lon="14.6613933"><ele>490.0</ele><time>2026-04-19T09:05:22.146Z</time></trkpt><trkpt lat="41.3911633" lon="14.6614417"><ele>490.0</ele><time>2026-04-19T09:05:23.146Z</time></trkpt><trkpt lat="41.3912633" lon="14.6615"><ele>490.0</ele><time>2026-04-19T09:05:24.147Z</time></trkpt><trkpt lat="41.3913583" lon="14.6615667"><ele>490.0</ele><time>2026-04-19T09:05:25.146Z</time></trkpt><trkpt lat="41.3914567" lon="14.6616183"><ele>490.0</ele><time>2026-04-19T09:05:26.147Z</time></trkpt><trkpt lat="41.3915633" lon="14.6616317"><ele>490.0</ele><time>2026-04-19T09:05:27.146Z</time></trkpt><trkpt lat="41.3916733" lon="14.6616233"><ele>490.0</ele><time>2026-04-19T09:05:28.146Z</time></trkpt><trkpt lat="41.3917833" lon="14.6615933"><ele>490.0</ele><time>2026-04-19T09:05:29.147Z</time></trkpt><trkpt lat="41.3918933" lon="14.661565"><ele>490.0</ele><time>2026-04-19T09:05:30.147Z</time></trkpt><trkpt lat="41.3919967" lon="14.6615367"><ele>490.0</ele><time>2026-04-19T09:05:31.147Z</time></trkpt><trkpt lat="41.392085" lon="14.6615233"><ele>490.0</ele><time>2026-04-19T09:05:32.147Z</time></trkpt><trkpt lat="41.392175" lon="14.6615267"><ele>490.0</ele><time>2026-04-19T09:05:33.147Z</time></trkpt><trkpt lat="41.3922583" lon="14.6615483"><ele>490.0</ele><time>2026-04-19T09:05:34.147Z</time></trkpt><trkpt lat="41.3923367" lon="14.6615933"><ele>490.0</ele><time>2026-04-19T09:05:35.147Z</time></trkpt><trkpt lat="41.3924083" lon="14.6616617"><ele>490.0</ele><time>2026-04-19T09:05:36.147Z</time></trkpt><trkpt lat="41.3924783" lon="14.66175"><ele>490.0</ele><time>2026-04-19T09:05:37.147Z</time></trkpt><trkpt lat="41.3925467" lon="14.6618633"><ele>492.25</ele><time>2026-04-19T09:05:38.146Z</time></trkpt><trkpt lat="41.3926167" lon="14.6619867"><ele>494.5</ele><time>2026-04-19T09:05:39.147Z</time></trkpt><trkpt lat="41.3926933" lon="14.6621"><ele>496.75</ele><time>2026-04-19T09:05:40.147Z</time></trkpt><trkpt lat="41.392775" lon="14.6622167"><ele>499.0</ele><time>2026-04-19T09:05:41.146Z</time></trkpt><trkpt lat="41.3928717" lon="14.6623133"><ele>499.0</ele><time>2026-04-19T09:05:42.147Z</time></trkpt><trkpt lat="41.3929783" lon="14.6623933"><ele>499.0</ele><time>2026-04-19T09:05:43.147Z</time></trkpt><trkpt lat="41.3930883" lon="14.6624683"><ele>499.0</ele><time>2026-04-19T09:05:44.147Z</time></trkpt><trkpt lat="41.3931933" lon="14.66254"><ele>499.0</ele><time>2026-04-19T09:05:45.147Z</time></trkpt><trkpt lat="41.3932917" lon="14.6626183"><ele>499.4</ele><time>2026-04-19T09:05:46.147Z</time></trkpt><trkpt lat="41.3933767" lon="14.6627"><ele>499.79999999999995</ele><time>2026-04-19T09:05:47.146Z</time></trkpt><trkpt lat="41.3934517" lon="14.6627933"><ele>500.20000000000005</ele><time>2026-04-19T09:05:48.147Z</time></trkpt><trkpt lat="41.39351" lon="14.6629033"><ele>500.6</ele><time>2026-04-19T09:05:49.146Z</time></trkpt><trkpt lat="41.3935617" lon="14.6630317"><ele>501.0</ele><time>2026-04-19T09:05:50.147Z</time></trkpt><trkpt lat="41.3936083" lon="14.66317"><ele>501.0</ele><time>2026-04-19T09:05:51.146Z</time></trkpt><trkpt lat="41.3936633" lon="14.66332"><ele>501.0</ele><time>2026-04-19T09:05:52.147Z</time></trkpt><trkpt lat="41.39372" lon="14.6634817"><ele>501.0</ele><time>2026-04-19T09:05:53.146Z</time></trkpt><trkpt lat="41.3937817" lon="14.66364"><ele>501.0</ele><time>2026-04-19T09:05:54.147Z</time></trkpt><trkpt lat="41.3938467" lon="14.6637833"><ele>501.0</ele><time>2026-04-19T09:05:55.146Z</time></trkpt><trkpt lat="41.3939117" lon="14.6639283"><ele>501.0</ele><time>2026-04-19T09:05:56.146Z</time></trkpt><trkpt lat="41.39399" lon="14.6640617"><ele>501.0</ele><time>2026-04-19T09:05:57.147Z</time></trkpt><trkpt lat="41.3940683" lon="14.6641933"><ele>501.0</ele><time>2026-04-19T09:05:58.147Z</time></trkpt><trkpt lat="41.3941467" lon="14.6643117"><ele>501.0</ele><time>2026-04-19T09:05:59.146Z</time></trkpt><trkpt lat="41.3942167" lon="14.6644367"><ele>501.0</ele><time>2026-04-19T09:06:00.147Z</time></trkpt><trkpt lat="41.39428" lon="14.6645633"><ele>501.0</ele><time>2026-04-19T09:06:01.146Z</time></trkpt><trkpt lat="41.3943283" lon="14.6646933"><ele>501.0</ele><time>2026-04-19T09:06:02.147Z</time></trkpt><trkpt lat="41.3943617" lon="14.6648383"><ele>501.75</ele><time>2026-04-19T09:06:03.146Z</time></trkpt><trkpt lat="41.3943783" lon="14.664995"><ele>502.5</ele><time>2026-04-19T09:06:04.146Z</time></trkpt><trkpt lat="41.39438" lon="14.6651567"><ele>503.25</ele><time>2026-04-19T09:06:05.147Z</time></trkpt><trkpt lat="41.3943683" lon="14.66533"><ele>504.0</ele><time>2026-04-19T09:06:06.147Z</time></trkpt><trkpt lat="41.3943483" lon="14.66551"><ele>504.0</ele><time>2026-04-19T09:06:07.147Z</time></trkpt><trkpt lat="41.3943233" lon="14.665695"><ele>504.0</ele><time>2026-04-19T09:06:08.147Z</time></trkpt><trkpt lat="41.3943" lon="14.6658833"><ele>504.0</ele><time>2026-04-19T09:06:09.147Z</time></trkpt><trkpt lat="41.3942767" lon="14.666065"><ele>504.0</ele><time>2026-04-19T09:06:10.146Z</time></trkpt><trkpt lat="41.3942583" lon="14.6662483"><ele>504.0</ele><time>2026-04-19T09:06:11.146Z</time></trkpt><trkpt lat="41.3942367" lon="14.66643"><ele>504.0</ele><time>2026-04-19T09:06:12.147Z</time></trkpt><trkpt lat="41.3942217" lon="14.6666083"><ele>504.0</ele><time>2026-04-19T09:06:13.147Z</time></trkpt><trkpt lat="41.3941967" lon="14.6667883"><ele>504.0</ele><time>2026-04-19T09:06:14.147Z</time></trkpt><trkpt lat="41.3941867" lon="14.6669733"><ele>504.0</ele><time>2026-04-19T09:06:15.146Z</time></trkpt><trkpt lat="41.3941933" lon="14.6671567"><ele>504.0</ele><time>2026-04-19T09:06:16.147Z</time></trkpt><trkpt lat="41.394215" lon="14.6673433"><ele>504.0</ele><time>2026-04-19T09:06:17.146Z</time></trkpt><trkpt lat="41.39424" lon="14.6675267"><ele>504.0</ele><time>2026-04-19T09:06:18.147Z</time></trkpt><trkpt lat="41.3942667" lon="14.6677"><ele>503.75</ele><time>2026-04-19T09:06:19.146Z</time></trkpt><trkpt lat="41.3942833" lon="14.6678733"><ele>503.5</ele><time>2026-04-19T09:06:20.147Z</time></trkpt><trkpt lat="41.3943" lon="14.6680417"><ele>503.25</ele><time>2026-04-19T09:06:21.147Z</time></trkpt><trkpt lat="41.39432" lon="14.668195"><ele>503.0</ele><time>2026-04-19T09:06:22.146Z</time></trkpt><trkpt lat="41.39437" lon="14.66834"><ele>503.0</ele><time>2026-04-19T09:06:23.147Z</time></trkpt><trkpt lat="41.39443" lon="14.6684783"><ele>502.99999999999994</ele><time>2026-04-19T09:06:24.147Z</time></trkpt><trkpt lat="41.3944883" lon="14.6686"><ele>502.99999999999994</ele><time>2026-04-19T09:06:25.147Z</time></trkpt><trkpt lat="41.394545" lon="14.6686933"><ele>503.0</ele><time>2026-04-19T09:06:26.146Z</time></trkpt><trkpt lat="41.394595" lon="14.6687833"><ele>503.0</ele><time>2026-04-19T09:06:27.147Z</time></trkpt><trkpt lat="41.3946617" lon="14.6688383"><ele>504.4</ele><time>2026-04-19T09:06:28.146Z</time></trkpt><trkpt lat="41.3947383" lon="14.6688617"><ele>505.79999999999995</ele><time>2026-04-19T09:06:29.146Z</time></trkpt><trkpt lat="41.3948183" lon="14.66886"><ele>507.2</ele><time>2026-04-19T09:06:30.147Z</time></trkpt><trkpt lat="41.3948967" lon="14.66882"><ele>508.6</ele><time>2026-04-19T09:06:31.146Z</time></trkpt><trkpt lat="41.3949833" lon="14.6687533"><ele>510.0</ele><time>2026-04-19T09:06:32.146Z</time></trkpt><trkpt lat="41.3950833" lon="14.6686817"><ele>510.0</ele><time>2026-04-19T09:06:33.147Z</time></trkpt><trkpt lat="41.395185" lon="14.668615"><ele>510.0</ele><time>2026-04-19T09:06:34.147Z</time></trkpt><trkpt lat="41.3952867" lon="14.6685483"><ele>510.0</ele><time>2026-04-19T09:06:35.146Z</time></trkpt><trkpt lat="41.3953883" lon="14.6684817"><ele>510.0</ele><time>2026-04-19T09:06:36.147Z</time></trkpt><trkpt lat="41.3954883" lon="14.6684267"><ele>510.0</ele><time>2026-04-19T09:06:37.147Z</time></trkpt><trkpt lat="41.3955933" lon="14.6683967"><ele>509.6</ele><time>2026-04-19T09:06:38.146Z</time></trkpt><trkpt lat="41.3956967" lon="14.6683983"><ele>509.2</ele><time>2026-04-19T09:06:39.146Z</time></trkpt><trkpt lat="41.3958067" lon="14.66843"><ele>508.79999999999995</ele><time>2026-04-19T09:06:40.147Z</time></trkpt><trkpt lat="41.3959117" lon="14.6684783"><ele>508.4</ele><time>2026-04-19T09:06:41.147Z</time></trkpt><trkpt lat="41.396025" lon="14.6685317"><ele>508.0</ele><time>2026-04-19T09:06:42.147Z</time></trkpt><trkpt lat="41.39614" lon="14.6685767"><ele>508.0</ele><time>2026-04-19T09:06:43.147Z</time></trkpt><trkpt lat="41.3962567" lon="14.6685917"><ele>508.0</ele><time>2026-04-19T09:06:44.147Z</time></trkpt><trkpt lat="41.3963783" lon="14.6685783"><ele>508.0</ele><time>2026-04-19T09:06:45.147Z</time></trkpt><trkpt lat="41.3965117" lon="14.6685317"><ele>508.0</ele><time>2026-04-19T09:06:46.147Z</time></trkpt><trkpt lat="41.3966333" lon="14.6684717"><ele>508.75</ele><time>2026-04-19T09:06:47.146Z</time></trkpt><trkpt lat="41.3967617" lon="14.6683933"><ele>509.5</ele><time>2026-04-19T09:06:48.147Z</time></trkpt><trkpt lat="41.396885" lon="14.6683133"><ele>510.25</ele><time>2026-04-19T09:06:49.147Z</time></trkpt><trkpt lat="41.3970033" lon="14.6682433"><ele>511.0</ele><time>2026-04-19T09:06:50.147Z</time></trkpt><trkpt lat="41.3971083" lon="14.6681717"><ele>511.8</ele><time>2026-04-19T09:06:51.146Z</time></trkpt><trkpt lat="41.3972133" lon="14.6681083"><ele>512.6</ele><time>2026-04-19T09:06:52.147Z</time></trkpt><trkpt lat="41.39732" lon="14.668075"><ele>513.4</ele><time>2026-04-19T09:06:53.146Z</time></trkpt><trkpt lat="41.3974183" lon="14.6680733"><ele>514.2</ele><time>2026-04-19T09:06:54.147Z</time></trkpt><trkpt lat="41.3975183" lon="14.6681017"><ele>515.0</ele><time>2026-04-19T09:06:55.147Z</time></trkpt><trkpt lat="41.39762" lon="14.6681583"><ele>515.0</ele><time>2026-04-19T09:06:56.146Z</time></trkpt><trkpt lat="41.3977233" lon="14.6682283"><ele>515.0</ele><time>2026-04-19T09:06:57.146Z</time></trkpt><trkpt lat="41.397825" lon="14.668305"><ele>515.0</ele><time>2026-04-19T09:06:58.146Z</time></trkpt><trkpt lat="41.397915" lon="14.6683717"><ele>515.0</ele><time>2026-04-19T09:06:59.147Z</time></trkpt><trkpt lat="41.397995" lon="14.6684183"><ele>515.0</ele><time>2026-04-19T09:07:00.146Z</time></trkpt><trkpt lat="41.3980633" lon="14.6684467"><ele>516.0</ele><time>2026-04-19T09:07:01.147Z</time></trkpt><trkpt lat="41.3981317" lon="14.6684367"><ele>517.0</ele><time>2026-04-19T09:07:02.147Z</time></trkpt><trkpt lat="41.3981933" lon="14.6682867"><ele>518.0</ele><time>2026-04-19T09:07:04.147Z</time></trkpt><trkpt lat="41.3981983" lon="14.668185"><ele>519.0</ele><time>2026-04-19T09:07:05.147Z</time></trkpt><trkpt lat="41.39818" lon="14.6680667"><ele>520.0</ele><time>2026-04-19T09:07:06.146Z</time></trkpt><trkpt lat="41.398145" lon="14.66795"><ele>520.0</ele><time>2026-04-19T09:07:07.147Z</time></trkpt><trkpt lat="41.3981233" lon="14.6678283"><ele>520.0</ele><time>2026-04-19T09:07:08.146Z</time></trkpt><trkpt lat="41.3981317" lon="14.6677033"><ele>520.0</ele><time>2026-04-19T09:07:09.147Z</time></trkpt><trkpt lat="41.3981717" lon="14.6675767"><ele>520.0</ele><time>2026-04-19T09:07:10.147Z</time></trkpt><trkpt lat="41.3982383" lon="14.6674417"><ele>520.0</ele><time>2026-04-19T09:07:11.146Z</time></trkpt><trkpt lat="41.3983183" lon="14.66731"><ele>519.2</ele><time>2026-04-19T09:07:12.147Z</time></trkpt><trkpt lat="41.3984" lon="14.6671983"><ele>518.4</ele><time>2026-04-19T09:07:13.147Z</time></trkpt><trkpt lat="41.3984783" lon="14.667085"><ele>517.6</ele><time>2026-04-19T09:07:14.146Z</time></trkpt><trkpt lat="41.3985483" lon="14.6669767"><ele>516.8</ele><time>2026-04-19T09:07:15.146Z</time></trkpt><trkpt lat="41.3986167" lon="14.666875"><ele>516.0</ele><time>2026-04-19T09:07:16.146Z</time></trkpt><trkpt lat="41.3986933" lon="14.6667933"><ele>515.8</ele><time>2026-04-19T09:07:17.147Z</time></trkpt><trkpt lat="41.39877" lon="14.6667367"><ele>515.6</ele><time>2026-04-19T09:07:18.147Z</time></trkpt><trkpt lat="41.3988583" lon="14.666715"><ele>515.4</ele><time>2026-04-19T09:07:19.147Z</time></trkpt><trkpt lat="41.39895" lon="14.6667083"><ele>515.2</ele><time>2026-04-19T09:07:20.147Z</time></trkpt><trkpt lat="41.3990533" lon="14.6667267"><ele>515.0</ele><time>2026-04-19T09:07:21.146Z</time></trkpt><trkpt lat="41.399155" lon="14.6667533"><ele>515.0</ele><time>2026-04-19T09:07:22.146Z</time></trkpt><trkpt lat="41.3992567" lon="14.6667833"><ele>515.0</ele><time>2026-04-19T09:07:23.147Z</time></trkpt><trkpt lat="41.3993517" lon="14.6668133"><ele>515.0</ele><time>2026-04-19T09:07:24.146Z</time></trkpt><trkpt lat="41.3994383" lon="14.66684"><ele>515.0</ele><time>2026-04-19T09:07:25.147Z</time></trkpt><trkpt lat="41.3995183" lon="14.6668567"><ele>515.0</ele><time>2026-04-19T09:07:26.147Z</time></trkpt><trkpt lat="41.3995967" lon="14.6668683"><ele>515.5</ele><time>2026-04-19T09:07:27.147Z</time></trkpt><trkpt lat="41.3996733" lon="14.6668733"><ele>516.0</ele><time>2026-04-19T09:07:28.146Z</time></trkpt><trkpt lat="41.399755" lon="14.666855"><ele>516.5</ele><time>2026-04-19T09:07:29.147Z</time></trkpt><trkpt lat="41.3998333" lon="14.6668"><ele>517.0</ele><time>2026-04-19T09:07:30.146Z</time></trkpt><trkpt lat="41.3999" lon="14.66672"><ele>517.5</ele><time>2026-04-19T09:07:31.147Z</time></trkpt><trkpt lat="41.39996" lon="14.66662"><ele>518.0</ele><time>2026-04-19T09:07:32.147Z</time></trkpt><trkpt lat="41.4000283" lon="14.6665117"><ele>518.0</ele><time>2026-04-19T09:07:33.146Z</time></trkpt><trkpt lat="41.4000983" lon="14.6664033"><ele>518.0</ele><time>2026-04-19T09:07:34.147Z</time></trkpt><trkpt lat="41.4001733" lon="14.6663133"><ele>518.0</ele><time>2026-04-19T09:07:35.146Z</time></trkpt><trkpt lat="41.4002533" lon="14.6662383"><ele>518.0</ele><time>2026-04-19T09:07:36.147Z</time></trkpt><trkpt lat="41.4003367" lon="14.6661683"><ele>518.0</ele><time>2026-04-19T09:07:37.147Z</time></trkpt><trkpt lat="41.4004217" lon="14.666105"><ele>517.1999999999999</ele><time>2026-04-19T09:07:38.146Z</time></trkpt><trkpt lat="41.40051" lon="14.66604"><ele>516.4</ele><time>2026-04-19T09:07:39.147Z</time></trkpt><trkpt lat="41.4006" lon="14.6659783"><ele>515.5999999999999</ele><time>2026-04-19T09:07:40.147Z</time></trkpt><trkpt lat="41.4006917" lon="14.6659083"><ele>514.8</ele><time>2026-04-19T09:07:41.147Z</time></trkpt><trkpt lat="41.400785" lon="14.6658417"><ele>514.0</ele><time>2026-04-19T09:07:42.147Z</time></trkpt><trkpt lat="41.4008817" lon="14.6657833"><ele>514.0</ele><time>2026-04-19T09:07:43.146Z</time></trkpt><trkpt lat="41.4009867" lon="14.665735"><ele>514.0</ele><time>2026-04-19T09:07:44.146Z</time></trkpt><trkpt lat="41.4011033" lon="14.665695"><ele>514.0</ele><time>2026-04-19T09:07:45.147Z</time></trkpt><trkpt lat="41.40123" lon="14.665665"><ele>514.0</ele><time>2026-04-19T09:07:46.147Z</time></trkpt><trkpt lat="41.4013583" lon="14.66563"><ele>516.0</ele><time>2026-04-19T09:07:47.147Z</time></trkpt><trkpt lat="41.40149" lon="14.6655967"><ele>518.0</ele><time>2026-04-19T09:07:48.147Z</time></trkpt><trkpt lat="41.4016167" lon="14.6655583"><ele>520.0</ele><time>2026-04-19T09:07:49.147Z</time></trkpt><trkpt lat="41.4017483" lon="14.6655217"><ele>522.0</ele><time>2026-04-19T09:07:50.147Z</time></trkpt><trkpt lat="41.401885" lon="14.6654767"><ele>522.0</ele><time>2026-04-19T09:07:51.146Z</time></trkpt><trkpt lat="41.402015" lon="14.6654317"><ele>522.0</ele><time>2026-04-19T09:07:52.147Z</time></trkpt><trkpt lat="41.4021517" lon="14.6653983"><ele>522.0</ele><time>2026-04-19T09:07:53.147Z</time></trkpt><trkpt lat="41.4022783" lon="14.6653617"><ele>522.0</ele><time>2026-04-19T09:07:54.147Z</time></trkpt><trkpt lat="41.40241" lon="14.665335"><ele>522.5</ele><time>2026-04-19T09:07:55.147Z</time></trkpt><trkpt lat="41.402545" lon="14.6653117"><ele>523.0</ele><time>2026-04-19T09:07:56.147Z</time></trkpt><trkpt lat="41.402675" lon="14.66528"><ele>523.5</ele><time>2026-04-19T09:07:57.147Z</time></trkpt><trkpt lat="41.402805" lon="14.6652567"><ele>524.0</ele><time>2026-04-19T09:07:58.147Z</time></trkpt><trkpt lat="41.4029283" lon="14.6652217"><ele>525.5</ele><time>2026-04-19T09:07:59.147Z</time></trkpt><trkpt lat="41.4030417" lon="14.6651983"><ele>527.0</ele><time>2026-04-19T09:08:00.147Z</time></trkpt><trkpt lat="41.4031533" lon="14.6651817"><ele>528.5</ele><time>2026-04-19T09:08:01.147Z</time></trkpt><trkpt lat="41.4032633" lon="14.6651783"><ele>530.0</ele><time>2026-04-19T09:08:02.147Z</time></trkpt><trkpt lat="41.4033783" lon="14.665185"><ele>530.0</ele><time>2026-04-19T09:08:03.147Z</time></trkpt><trkpt lat="41.4034867" lon="14.6652083"><ele>530.0</ele><time>2026-04-19T09:08:04.146Z</time></trkpt><trkpt lat="41.4035883" lon="14.665225"><ele>530.0</ele><time>2026-04-19T09:08:05.147Z</time></trkpt><trkpt lat="41.4036867" lon="14.665215"><ele>530.0</ele><time>2026-04-19T09:08:06.147Z</time></trkpt><trkpt lat="41.4037867" lon="14.66517"><ele>530.0</ele><time>2026-04-19T09:08:07.147Z</time></trkpt><trkpt lat="41.4038817" lon="14.6650883"><ele>532.0</ele><time>2026-04-19T09:08:08.147Z</time></trkpt><trkpt lat="41.403975" lon="14.6649783"><ele>534.0</ele><time>2026-04-19T09:08:09.147Z</time></trkpt><trkpt lat="41.4040583" lon="14.6648583"><ele>536.0</ele><time>2026-04-19T09:08:10.146Z</time></trkpt><trkpt lat="41.4041367" lon="14.664755"><ele>538.0</ele><time>2026-04-19T09:08:11.147Z</time></trkpt><trkpt lat="41.404225" lon="14.6646467"><ele>538.0</ele><time>2026-04-19T09:08:12.147Z</time></trkpt><trkpt lat="41.4043" lon="14.66454"><ele>538.0</ele><time>2026-04-19T09:08:13.147Z</time></trkpt><trkpt lat="41.4043783" lon="14.6644367"><ele>538.0</ele><time>2026-04-19T09:08:14.147Z</time></trkpt><trkpt lat="41.40445" lon="14.6643333"><ele>538.0</ele><time>2026-04-19T09:08:15.147Z</time></trkpt><trkpt lat="41.4045183" lon="14.66423"><ele>538.0</ele><time>2026-04-19T09:08:16.147Z</time></trkpt><trkpt lat="41.4045867" lon="14.6641317"><ele>537.0</ele><time>2026-04-19T09:08:17.147Z</time></trkpt><trkpt lat="41.40466" lon="14.6640417"><ele>536.0</ele><time>2026-04-19T09:08:18.147Z</time></trkpt><trkpt lat="41.4047417" lon="14.6639567"><ele>535.0</ele><time>2026-04-19T09:08:19.147Z</time></trkpt><trkpt lat="41.4048333" lon="14.6638783"><ele>534.0</ele><time>2026-04-19T09:08:20.147Z</time></trkpt><trkpt lat="41.404935" lon="14.6638217"><ele>533.0</ele><time>2026-04-19T09:08:21.147Z</time></trkpt><trkpt lat="41.4050417" lon="14.66378"><ele>535.5</ele><time>2026-04-19T09:08:22.147Z</time></trkpt><trkpt lat="41.405155" lon="14.663735"><ele>538.0</ele><time>2026-04-19T09:08:23.147Z</time></trkpt><trkpt lat="41.4052783" lon="14.6636883"><ele>540.5</ele><time>2026-04-19T09:08:24.147Z</time></trkpt><trkpt lat="41.4053967" lon="14.6636483"><ele>543.0</ele><time>2026-04-19T09:08:25.147Z</time></trkpt><trkpt lat="41.4055083" lon="14.6636283"><ele>540.0</ele><time>2026-04-19T09:08:26.147Z</time></trkpt><trkpt lat="41.4056167" lon="14.663605"><ele>537.0</ele><time>2026-04-19T09:08:27.147Z</time></trkpt><trkpt lat="41.4057233" lon="14.6635733"><ele>534.0</ele><time>2026-04-19T09:08:28.147Z</time></trkpt><trkpt lat="41.4058333" lon="14.663535"><ele>531.0</ele><time>2026-04-19T09:08:29.147Z</time></trkpt><trkpt lat="41.405945" lon="14.6634933"><ele>528.0</ele><time>2026-04-19T09:08:30.147Z</time></trkpt><trkpt lat="41.4060517" lon="14.6634467"><ele>528.0</ele><time>2026-04-19T09:08:31.147Z</time></trkpt><trkpt lat="41.4061517" lon="14.6634083"><ele>528.0</ele><time>2026-04-19T09:08:32.147Z</time></trkpt><trkpt lat="41.40625" lon="14.6633817"><ele>528.0</ele><time>2026-04-19T09:08:33.147Z</time></trkpt><trkpt lat="41.406355" lon="14.6633667"><ele>528.0</ele><time>2026-04-19T09:08:34.147Z</time></trkpt><trkpt lat="41.40647" lon="14.6633483"><ele>528.0</ele><time>2026-04-19T09:08:35.147Z</time></trkpt><trkpt lat="41.4065867" lon="14.663335"><ele>530.75</ele><time>2026-04-19T09:08:36.147Z</time></trkpt><trkpt lat="41.40671" lon="14.6633167"><ele>533.5</ele><time>2026-04-19T09:08:37.146Z</time></trkpt><trkpt lat="41.4068367" lon="14.663295"><ele>536.25</ele><time>2026-04-19T09:08:38.146Z</time></trkpt><trkpt lat="41.4069617" lon="14.66327"><ele>539.0</ele><time>2026-04-19T09:08:39.147Z</time></trkpt><trkpt lat="41.4070933" lon="14.6632383"><ele>540.5</ele><time>2026-04-19T09:08:40.147Z</time></trkpt><trkpt lat="41.40723" lon="14.6632033"><ele>542.0</ele><time>2026-04-19T09:08:41.146Z</time></trkpt><trkpt lat="41.4073717" lon="14.6631767"><ele>543.5</ele><time>2026-04-19T09:08:42.147Z</time></trkpt><trkpt lat="41.407515" lon="14.6631417"><ele>545.0</ele><time>2026-04-19T09:08:43.147Z</time></trkpt><trkpt lat="41.4076533" lon="14.663105"><ele>545.0</ele><time>2026-04-19T09:08:44.146Z</time></trkpt><trkpt lat="41.4077783" lon="14.6630717"><ele>545.0</ele><time>2026-04-19T09:08:45.147Z</time></trkpt><trkpt lat="41.4079167" lon="14.6630633"><ele>545.0</ele><time>2026-04-19T09:08:46.147Z</time></trkpt><trkpt lat="41.4080417" lon="14.663005"><ele>545.0</ele><time>2026-04-19T09:08:47.147Z</time></trkpt><trkpt lat="41.4081667" lon="14.6629167"><ele>547.0</ele><time>2026-04-19T09:08:48.147Z</time></trkpt><trkpt lat="41.4082917" lon="14.6628183"><ele>549.0</ele><time>2026-04-19T09:08:49.147Z</time></trkpt><trkpt lat="41.4084183" lon="14.662715"><ele>551.0</ele><time>2026-04-19T09:08:50.146Z</time></trkpt><trkpt lat="41.4085517" lon="14.6626083"><ele>553.0</ele><time>2026-04-19T09:08:51.147Z</time></trkpt><trkpt lat="41.40868" lon="14.6624967"><ele>549.5</ele><time>2026-04-19T09:08:52.146Z</time></trkpt><trkpt lat="41.408805" lon="14.662385"><ele>546.0</ele><time>2026-04-19T09:08:53.147Z</time></trkpt><trkpt lat="41.4089267" lon="14.6622683"><ele>542.5</ele><time>2026-04-19T09:08:54.147Z</time></trkpt><trkpt lat="41.4090483" lon="14.66216"><ele>539.0</ele><time>2026-04-19T09:08:55.146Z</time></trkpt><trkpt lat="41.4091683" lon="14.662065"><ele>539.0</ele><time>2026-04-19T09:08:56.146Z</time></trkpt><trkpt lat="41.4092867" lon="14.66197"><ele>539.0</ele><time>2026-04-19T09:08:57.146Z</time></trkpt><trkpt lat="41.409395" lon="14.6618867"><ele>539.0</ele><time>2026-04-19T09:08:58.146Z</time></trkpt><trkpt lat="41.4095117" lon="14.6618133"><ele>539.0</ele><time>2026-04-19T09:08:59.146Z</time></trkpt><trkpt lat="41.40964" lon="14.6617567"><ele>536.0</ele><time>2026-04-19T09:09:00.147Z</time></trkpt><trkpt lat="41.4097733" lon="14.66171"><ele>533.0</ele><time>2026-04-19T09:09:01.147Z</time></trkpt><trkpt lat="41.4099133" lon="14.6616733"><ele>530.0</ele><time>2026-04-19T09:09:02.147Z</time></trkpt><trkpt lat="41.4100533" lon="14.6616333"><ele>527.0</ele><time>2026-04-19T09:09:03.147Z</time></trkpt><trkpt lat="41.4101933" lon="14.6615833"><ele>527.0</ele><time>2026-04-19T09:09:04.147Z</time></trkpt><trkpt lat="41.41032" lon="14.66153"><ele>527.0</ele><time>2026-04-19T09:09:05.147Z</time></trkpt><trkpt lat="41.4104483" lon="14.6614667"><ele>527.0</ele><time>2026-04-19T09:09:06.147Z</time></trkpt><trkpt lat="41.4105683" lon="14.6614067"><ele>527.0</ele><time>2026-04-19T09:09:07.147Z</time></trkpt><trkpt lat="41.4106867" lon="14.6613533"><ele>527.25</ele><time>2026-04-19T09:09:08.147Z</time></trkpt><trkpt lat="41.4108" lon="14.6613333"><ele>527.5</ele><time>2026-04-19T09:09:09.147Z</time></trkpt><trkpt lat="41.4109217" lon="14.6613433"><ele>527.75</ele><time>2026-04-19T09:09:10.147Z</time></trkpt><trkpt lat="41.411045" lon="14.6613717"><ele>528.0</ele><time>2026-04-19T09:09:11.147Z</time></trkpt><trkpt lat="41.4111633" lon="14.6614133"><ele>528.0</ele><time>2026-04-19T09:09:12.146Z</time></trkpt><trkpt lat="41.4112783" lon="14.66146"><ele>528.0</ele><time>2026-04-19T09:09:13.147Z</time></trkpt><trkpt lat="41.4113883" lon="14.6614933"><ele>528.0</ele><time>2026-04-19T09:09:14.147Z</time></trkpt><trkpt lat="41.4115" lon="14.6615083"><ele>528.0</ele><time>2026-04-19T09:09:15.147Z</time></trkpt><trkpt lat="41.41161" lon="14.66148"><ele>527.75</ele><time>2026-04-19T09:09:16.146Z</time></trkpt><trkpt lat="41.4117233" lon="14.66143"><ele>527.5</ele><time>2026-04-19T09:09:17.146Z</time></trkpt><trkpt lat="41.4118467" lon="14.66136"><ele>527.25</ele><time>2026-04-19T09:09:18.147Z</time></trkpt><trkpt lat="41.41198" lon="14.6612883"><ele>527.0</ele><time>2026-04-19T09:09:19.147Z</time></trkpt><trkpt lat="41.4121183" lon="14.66123"><ele>528.75</ele><time>2026-04-19T09:09:20.147Z</time></trkpt><trkpt lat="41.4122583" lon="14.6611783"><ele>530.5</ele><time>2026-04-19T09:09:21.147Z</time></trkpt><trkpt lat="41.412395" lon="14.6611333"><ele>532.25</ele><time>2026-04-19T09:09:22.147Z</time></trkpt><trkpt lat="41.4125283" lon="14.661085"><ele>534.0</ele><time>2026-04-19T09:09:23.147Z</time></trkpt><trkpt lat="41.4126583" lon="14.6610467"><ele>528.5</ele><time>2026-04-19T09:09:24.146Z</time></trkpt><trkpt lat="41.4127817" lon="14.6610083"><ele>523.0</ele><time>2026-04-19T09:09:25.147Z</time></trkpt><trkpt lat="41.4129" lon="14.6609733"><ele>517.5</ele><time>2026-04-19T09:09:26.147Z</time></trkpt><trkpt lat="41.4130067" lon="14.6609433"><ele>512.0</ele><time>2026-04-19T09:09:27.147Z</time></trkpt><trkpt lat="41.4131" lon="14.6609017"><ele>512.0</ele><time>2026-04-19T09:09:28.147Z</time></trkpt><trkpt lat="41.41317" lon="14.66083"><ele>512.0</ele><time>2026-04-19T09:09:29.147Z</time></trkpt><trkpt lat="41.4132267" lon="14.6607283"><ele>512.0</ele><time>2026-04-19T09:09:30.147Z</time></trkpt><trkpt lat="41.4132533" lon="14.66061"><ele>512.0</ele><time>2026-04-19T09:09:31.146Z</time></trkpt><trkpt lat="41.41327" lon="14.66049"><ele>512.0</ele><time>2026-04-19T09:09:32.146Z</time></trkpt><trkpt lat="41.41328" lon="14.6603567"><ele>511.8</ele><time>2026-04-19T09:09:33.146Z</time></trkpt><trkpt lat="41.4132883" lon="14.6602333"><ele>511.6</ele><time>2026-04-19T09:09:34.146Z</time></trkpt><trkpt lat="41.41331" lon="14.660105"><ele>511.40000000000003</ele><time>2026-04-19T09:09:35.147Z</time></trkpt><trkpt lat="41.413355" lon="14.65999"><ele>511.20000000000005</ele><time>2026-04-19T09:09:36.147Z</time></trkpt><trkpt lat="41.4134133" lon="14.6599"><ele>511.0</ele><time>2026-04-19T09:09:37.146Z</time></trkpt><trkpt lat="41.4134867" lon="14.65983"><ele>511.0</ele><time>2026-04-19T09:09:38.147Z</time></trkpt><trkpt lat="41.4135683" lon="14.6597767"><ele>511.0</ele><time>2026-04-19T09:09:39.147Z</time></trkpt><trkpt lat="41.4136683" lon="14.659725"><ele>511.0</ele><time>2026-04-19T09:09:40.147Z</time></trkpt><trkpt lat="41.4137667" lon="14.659675"><ele>511.0</ele><time>2026-04-19T09:09:41.147Z</time></trkpt><trkpt lat="41.4138683" lon="14.65963"><ele>511.0</ele><time>2026-04-19T09:09:42.147Z</time></trkpt><trkpt lat="41.41397" lon="14.6595817"><ele>511.20000000000005</ele><time>2026-04-19T09:09:43.146Z</time></trkpt><trkpt lat="41.4140717" lon="14.6595367"><ele>511.40000000000003</ele><time>2026-04-19T09:09:44.147Z</time></trkpt><trkpt lat="41.414165" lon="14.6594817"><ele>511.6</ele><time>2026-04-19T09:09:45.146Z</time></trkpt><trkpt lat="41.4142517" lon="14.6594117"><ele>511.8</ele><time>2026-04-19T09:09:46.147Z</time></trkpt><trkpt lat="41.4143367" lon="14.6593283"><ele>512.0</ele><time>2026-04-19T09:09:47.146Z</time></trkpt><trkpt lat="41.4144317" lon="14.6592233"><ele>512.5</ele><time>2026-04-19T09:09:48.146Z</time></trkpt><trkpt lat="41.41453" lon="14.6591033"><ele>513.0</ele><time>2026-04-19T09:09:49.147Z</time></trkpt><trkpt lat="41.4146217" lon="14.6589917"><ele>513.5</ele><time>2026-04-19T09:09:50.146Z</time></trkpt><trkpt lat="41.4147033" lon="14.65888"><ele>514.0</ele><time>2026-04-19T09:09:51.147Z</time></trkpt><trkpt lat="41.4147833" lon="14.6587733"><ele>514.0</ele><time>2026-04-19T09:09:52.147Z</time></trkpt><trkpt lat="41.4148617" lon="14.658685"><ele>514.0</ele><time>2026-04-19T09:09:53.146Z</time></trkpt><trkpt lat="41.4149383" lon="14.6586067"><ele>514.0</ele><time>2026-04-19T09:09:54.147Z</time></trkpt><trkpt lat="41.4150117" lon="14.6585483"><ele>514.0</ele><time>2026-04-19T09:09:55.146Z</time></trkpt><trkpt lat="41.415085" lon="14.65851"><ele>514.0</ele><time>2026-04-19T09:09:56.147Z</time></trkpt><trkpt lat="41.4151533" lon="14.6584867"><ele>514.0</ele><time>2026-04-19T09:09:57.147Z</time></trkpt><trkpt lat="41.4152217" lon="14.6584717"><ele>514.5</ele><time>2026-04-19T09:09:58.147Z</time></trkpt><trkpt lat="41.4153133" lon="14.6584033"><ele>515.0</ele><time>2026-04-19T09:10:00.147Z</time></trkpt><trkpt lat="41.4153667" lon="14.6582967"><ele>515.5</ele><time>2026-04-19T09:10:02.147Z</time></trkpt><trkpt lat="41.4153917" lon="14.6582133"><ele>516.0</ele><time>2026-04-19T09:10:03.147Z</time></trkpt><trkpt lat="41.4154283" lon="14.658115"><ele>516.5</ele><time>2026-04-19T09:10:04.147Z</time></trkpt><trkpt lat="41.4154733" lon="14.65802"><ele>517.0</ele><time>2026-04-19T09:10:05.147Z</time></trkpt><trkpt lat="41.4155283" lon="14.6579417"><ele>516.2</ele><time>2026-04-19T09:10:06.147Z</time></trkpt><trkpt lat="41.4155983" lon="14.657865"><ele>515.4000000000001</ele><time>2026-04-19T09:10:07.147Z</time></trkpt><trkpt lat="41.41568" lon="14.65778"><ele>514.5999999999999</ele><time>2026-04-19T09:10:08.147Z</time></trkpt><trkpt lat="41.41578" lon="14.6576983"><ele>513.8</ele><time>2026-04-19T09:10:09.147Z</time></trkpt><trkpt lat="41.4158817" lon="14.657615"><ele>513.0</ele><time>2026-04-19T09:10:10.147Z</time></trkpt><trkpt lat="41.415985" lon="14.6575433"><ele>513.0</ele><time>2026-04-19T09:10:11.146Z</time></trkpt><trkpt lat="41.416095" lon="14.65749"><ele>513.0</ele><time>2026-04-19T09:10:12.147Z</time></trkpt><trkpt lat="41.41621" lon="14.657445"><ele>513.0</ele><time>2026-04-19T09:10:13.147Z</time></trkpt><trkpt lat="41.4163317" lon="14.6574167"><ele>513.0</ele><time>2026-04-19T09:10:14.146Z</time></trkpt><trkpt lat="41.416455" lon="14.6573933"><ele>512.5</ele><time>2026-04-19T09:10:15.145Z</time></trkpt><trkpt lat="41.4165883" lon="14.6573633"><ele>512.0</ele><time>2026-04-19T09:10:16.146Z</time></trkpt><trkpt lat="41.4167117" lon="14.657335"><ele>511.5</ele><time>2026-04-19T09:10:17.146Z</time></trkpt><trkpt lat="41.4168467" lon="14.6573067"><ele>511.0</ele><time>2026-04-19T09:10:18.146Z</time></trkpt><trkpt lat="41.4169717" lon="14.6572833"><ele>511.0</ele><time>2026-04-19T09:10:19.146Z</time></trkpt><trkpt lat="41.4170867" lon="14.6572633"><ele>511.0</ele><time>2026-04-19T09:10:20.145Z</time></trkpt><trkpt lat="41.4171967" lon="14.6572383"><ele>511.0</ele><time>2026-04-19T09:10:21.146Z</time></trkpt><trkpt lat="41.4173083" lon="14.6572167"><ele>511.0</ele><time>2026-04-19T09:10:22.146Z</time></trkpt><trkpt lat="41.4174233" lon="14.6571967"><ele>512.0</ele><time>2026-04-19T09:10:23.146Z</time></trkpt><trkpt lat="41.4175417" lon="14.657175"><ele>513.0</ele><time>2026-04-19T09:10:24.145Z</time></trkpt><trkpt lat="41.4176633" lon="14.65715"><ele>514.0</ele><time>2026-04-19T09:10:25.146Z</time></trkpt><trkpt lat="41.4177833" lon="14.657135"><ele>515.0</ele><time>2026-04-19T09:10:26.146Z</time></trkpt><trkpt lat="41.4179117" lon="14.6571367"><ele>515.75</ele><time>2026-04-19T09:10:27.146Z</time></trkpt><trkpt lat="41.4180417" lon="14.6571467"><ele>516.5</ele><time>2026-04-19T09:10:28.146Z</time></trkpt><trkpt lat="41.4181717" lon="14.6571683"><ele>517.25</ele><time>2026-04-19T09:10:29.145Z</time></trkpt><trkpt lat="41.4183017" lon="14.6571967"><ele>518.0</ele><time>2026-04-19T09:10:30.146Z</time></trkpt><trkpt lat="41.418435" lon="14.657225"><ele>518.0</ele><time>2026-04-19T09:10:31.145Z</time></trkpt><trkpt lat="41.4185733" lon="14.6572533"><ele>518.0</ele><time>2026-04-19T09:10:32.146Z</time></trkpt><trkpt lat="41.4187033" lon="14.6572817"><ele>518.0</ele><time>2026-04-19T09:10:33.145Z</time></trkpt><trkpt lat="41.418835" lon="14.65731"><ele>518.0</ele><time>2026-04-19T09:10:34.145Z</time></trkpt><trkpt lat="41.4189733" lon="14.657335"><ele>517.75</ele><time>2026-04-19T09:10:35.146Z</time></trkpt><trkpt lat="41.4191117" lon="14.6573683"><ele>517.5</ele><time>2026-04-19T09:10:36.145Z</time></trkpt><trkpt lat="41.4192517" lon="14.6573967"><ele>517.25</ele><time>2026-04-19T09:10:37.146Z</time></trkpt><trkpt lat="41.4193983" lon="14.6574317"><ele>517.0</ele><time>2026-04-19T09:10:38.146Z</time></trkpt><trkpt lat="41.41954" lon="14.6574717"><ele>517.5</ele><time>2026-04-19T09:10:39.146Z</time></trkpt><trkpt lat="41.419675" lon="14.6575067"><ele>518.0</ele><time>2026-04-19T09:10:40.145Z</time></trkpt><trkpt lat="41.4198133" lon="14.6575417"><ele>518.5</ele><time>2026-04-19T09:10:41.145Z</time></trkpt><trkpt lat="41.419945" lon="14.6575767"><ele>519.0</ele><time>2026-04-19T09:10:42.146Z</time></trkpt><trkpt lat="41.42007" lon="14.657605"><ele>519.0</ele><time>2026-04-19T09:10:43.146Z</time></trkpt><trkpt lat="41.4201867" lon="14.65763"><ele>519.0</ele><time>2026-04-19T09:10:44.145Z</time></trkpt><trkpt lat="41.4203" lon="14.65766"><ele>519.0</ele><time>2026-04-19T09:10:45.145Z</time></trkpt><trkpt lat="41.420405" lon="14.65769"><ele>519.0</ele><time>2026-04-19T09:10:46.145Z</time></trkpt><trkpt lat="41.420515" lon="14.6577083"><ele>519.5</ele><time>2026-04-19T09:10:47.146Z</time></trkpt><trkpt lat="41.4206233" lon="14.6577383"><ele>520.0</ele><time>2026-04-19T09:10:48.145Z</time></trkpt><trkpt lat="41.4207333" lon="14.6577567"><ele>520.5</ele><time>2026-04-19T09:10:49.146Z</time></trkpt><trkpt lat="41.420845" lon="14.6577767"><ele>521.0</ele><time>2026-04-19T09:10:50.146Z</time></trkpt><trkpt lat="41.42096" lon="14.6578"><ele>521.0</ele><time>2026-04-19T09:10:51.145Z</time></trkpt><trkpt lat="41.4210783" lon="14.6578083"><ele>521.0</ele><time>2026-04-19T09:10:52.146Z</time></trkpt><trkpt lat="41.4212" lon="14.6578017"><ele>521.0</ele><time>2026-04-19T09:10:53.146Z</time></trkpt><trkpt lat="41.421325" lon="14.6577717"><ele>521.0</ele><time>2026-04-19T09:10:54.146Z</time></trkpt><trkpt lat="41.421455" lon="14.6577217"><ele>520.5</ele><time>2026-04-19T09:10:55.146Z</time></trkpt><trkpt lat="41.42158" lon="14.65766"><ele>520.0</ele><time>2026-04-19T09:10:56.146Z</time></trkpt><trkpt lat="41.4217083" lon="14.6575967"><ele>519.5</ele><time>2026-04-19T09:10:57.146Z</time></trkpt><trkpt lat="41.421835" lon="14.657525"><ele>519.0</ele><time>2026-04-19T09:10:58.145Z</time></trkpt><trkpt lat="41.421965" lon="14.6574483"><ele>519.0</ele><time>2026-04-19T09:10:59.146Z</time></trkpt><trkpt lat="41.4220933" lon="14.6573733"><ele>519.0</ele><time>2026-04-19T09:11:00.146Z</time></trkpt><trkpt lat="41.4222183" lon="14.6573017"><ele>519.0</ele><time>2026-04-19T09:11:01.145Z</time></trkpt><trkpt lat="41.42235" lon="14.657225"><ele>519.0</ele><time>2026-04-19T09:11:02.146Z</time></trkpt><trkpt lat="41.42247" lon="14.657155"><ele>518.75</ele><time>2026-04-19T09:11:03.146Z</time></trkpt><trkpt lat="41.4225933" lon="14.6570833"><ele>518.5</ele><time>2026-04-19T09:11:04.146Z</time></trkpt><trkpt lat="41.422715" lon="14.6570117"><ele>518.25</ele><time>2026-04-19T09:11:05.146Z</time></trkpt><trkpt lat="41.42284" lon="14.65694"><ele>518.0</ele><time>2026-04-19T09:11:06.146Z</time></trkpt><trkpt lat="41.4229667" lon="14.6568717"><ele>518.0</ele><time>2026-04-19T09:11:07.145Z</time></trkpt><trkpt lat="41.4230933" lon="14.6568033"><ele>518.0</ele><time>2026-04-19T09:11:08.146Z</time></trkpt><trkpt lat="41.42322" lon="14.6567317"><ele>518.0</ele><time>2026-04-19T09:11:09.146Z</time></trkpt><trkpt lat="41.4233367" lon="14.6566683"><ele>518.0</ele><time>2026-04-19T09:11:10.146Z</time></trkpt><trkpt lat="41.4234567" lon="14.6566"><ele>518.0</ele><time>2026-04-19T09:11:11.146Z</time></trkpt><trkpt lat="41.423575" lon="14.6565433"><ele>518.0</ele><time>2026-04-19T09:11:12.145Z</time></trkpt><trkpt lat="41.4236833" lon="14.6565067"><ele>518.0</ele><time>2026-04-19T09:11:13.146Z</time></trkpt><trkpt lat="41.4237983" lon="14.6564933"><ele>518.0</ele><time>2026-04-19T09:11:14.146Z</time></trkpt><trkpt lat="41.4239167" lon="14.6564983"><ele>518.75</ele><time>2026-04-19T09:11:15.146Z</time></trkpt><trkpt lat="41.4240367" lon="14.65653"><ele>519.5</ele><time>2026-04-19T09:11:16.146Z</time></trkpt><trkpt lat="41.4241633" lon="14.6565683"><ele>520.25</ele><time>2026-04-19T09:11:17.146Z</time></trkpt><trkpt lat="41.424295" lon="14.6566217"><ele>521.0</ele><time>2026-04-19T09:11:18.146Z</time></trkpt><trkpt lat="41.4244333" lon="14.65668"><ele>521.0</ele><time>2026-04-19T09:11:19.146Z</time></trkpt><trkpt lat="41.4245767" lon="14.6567317"><ele>521.0</ele><time>2026-04-19T09:11:20.146Z</time></trkpt><trkpt lat="41.4247133" lon="14.6567833"><ele>521.0</ele><time>2026-04-19T09:11:21.146Z</time></trkpt><trkpt lat="41.4248483" lon="14.656835"><ele>521.0</ele><time>2026-04-19T09:11:22.146Z</time></trkpt><trkpt lat="41.4249817" lon="14.65688"><ele>521.0</ele><time>2026-04-19T09:11:23.146Z</time></trkpt><trkpt lat="41.4251117" lon="14.65692"><ele>521.0</ele><time>2026-04-19T09:11:24.146Z</time></trkpt><trkpt lat="41.4252367" lon="14.6569617"><ele>521.0</ele><time>2026-04-19T09:11:25.146Z</time></trkpt><trkpt lat="41.425355" lon="14.65701"><ele>521.0</ele><time>2026-04-19T09:11:26.145Z</time></trkpt><trkpt lat="41.42547" lon="14.6570583"><ele>521.0</ele><time>2026-04-19T09:11:27.146Z</time></trkpt><trkpt lat="41.4255833" lon="14.6570983"><ele>521.0</ele><time>2026-04-19T09:11:28.146Z</time></trkpt><trkpt lat="41.4256983" lon="14.6571433"><ele>521.0</ele><time>2026-04-19T09:11:29.145Z</time></trkpt><trkpt lat="41.425805" lon="14.65718"><ele>521.0</ele><time>2026-04-19T09:11:30.146Z</time></trkpt><trkpt lat="41.4259067" lon="14.6572083"><ele>521.0</ele><time>2026-04-19T09:11:31.146Z</time></trkpt><trkpt lat="41.4260167" lon="14.657225"><ele>521.0</ele><time>2026-04-19T09:11:32.146Z</time></trkpt><trkpt lat="41.42612" lon="14.657225"><ele>521.0</ele><time>2026-04-19T09:11:33.146Z</time></trkpt><trkpt lat="41.4262283" lon="14.6572217"><ele>521.0</ele><time>2026-04-19T09:11:34.146Z</time></trkpt><trkpt lat="41.4263433" lon="14.6572117"><ele>521.0</ele><time>2026-04-19T09:11:35.145Z</time></trkpt><trkpt lat="41.42646" lon="14.6572017"><ele>521.0</ele><time>2026-04-19T09:11:36.145Z</time></trkpt><trkpt lat="41.4265783" lon="14.6571867"><ele>521.0</ele><time>2026-04-19T09:11:37.146Z</time></trkpt><trkpt lat="41.4267017" lon="14.65717"><ele>521.0</ele><time>2026-04-19T09:11:38.146Z</time></trkpt><trkpt lat="41.4268283" lon="14.6571567"><ele>521.0</ele><time>2026-04-19T09:11:39.145Z</time></trkpt><trkpt lat="41.4269533" lon="14.6571417"><ele>521.0</ele><time>2026-04-19T09:11:40.146Z</time></trkpt><trkpt lat="41.4270867" lon="14.6571267"><ele>521.0</ele><time>2026-04-19T09:11:41.146Z</time></trkpt><trkpt lat="41.4272217" lon="14.6571117"><ele>521.0</ele><time>2026-04-19T09:11:42.146Z</time></trkpt><trkpt lat="41.42736" lon="14.6571"><ele>521.0</ele><time>2026-04-19T09:11:43.145Z</time></trkpt><trkpt lat="41.427505" lon="14.6570867"><ele>521.25</ele><time>2026-04-19T09:11:44.145Z</time></trkpt><trkpt lat="41.4276517" lon="14.6570683"><ele>521.5</ele><time>2026-04-19T09:11:45.146Z</time></trkpt><trkpt lat="41.4277917" lon="14.6570533"><ele>521.75</ele><time>2026-04-19T09:11:46.146Z</time></trkpt><trkpt lat="41.4279383" lon="14.6570317"><ele>522.0</ele><time>2026-04-19T09:11:47.145Z</time></trkpt><trkpt lat="41.4280783" lon="14.6570233"><ele>522.0</ele><time>2026-04-19T09:11:48.146Z</time></trkpt><trkpt lat="41.4282133" lon="14.6570017"><ele>522.0</ele><time>2026-04-19T09:11:49.146Z</time></trkpt><trkpt lat="41.4283433" lon="14.6569817"><ele>522.0</ele><time>2026-04-19T09:11:50.146Z</time></trkpt><trkpt lat="41.4284717" lon="14.65697"><ele>522.0</ele><time>2026-04-19T09:11:51.146Z</time></trkpt><trkpt lat="41.4286067" lon="14.6569567"><ele>522.25</ele><time>2026-04-19T09:11:52.145Z</time></trkpt><trkpt lat="41.4287383" lon="14.6569417"><ele>522.5</ele><time>2026-04-19T09:11:53.146Z</time></trkpt><trkpt lat="41.428875" lon="14.6569233"><ele>522.75</ele><time>2026-04-19T09:11:54.145Z</time></trkpt><trkpt lat="41.429015" lon="14.6569033"><ele>523.0</ele><time>2026-04-19T09:11:55.145Z</time></trkpt><trkpt lat="41.42915" lon="14.656885"><ele>522.5</ele><time>2026-04-19T09:11:56.145Z</time></trkpt><trkpt lat="41.4292833" lon="14.656865"><ele>522.0</ele><time>2026-04-19T09:11:57.145Z</time></trkpt><trkpt lat="41.4294217" lon="14.6568483"><ele>521.5</ele><time>2026-04-19T09:11:58.146Z</time></trkpt><trkpt lat="41.4295617" lon="14.6568317"><ele>521.0</ele><time>2026-04-19T09:11:59.145Z</time></trkpt><trkpt lat="41.4296983" lon="14.6568117"><ele>521.0</ele><time>2026-04-19T09:12:00.145Z</time></trkpt><trkpt lat="41.4298367" lon="14.656795"><ele>521.0</ele><time>2026-04-19T09:12:01.146Z</time></trkpt><trkpt lat="41.4299817" lon="14.65678"><ele>521.0</ele><time>2026-04-19T09:12:02.146Z</time></trkpt><trkpt lat="41.4301283" lon="14.6567667"><ele>521.0</ele><time>2026-04-19T09:12:03.146Z</time></trkpt><trkpt lat="41.4302833" lon="14.6567517"><ele>521.0</ele><time>2026-04-19T09:12:04.146Z</time></trkpt><trkpt lat="41.4304333" lon="14.6567283"><ele>521.0</ele><time>2026-04-19T09:12:05.145Z</time></trkpt><trkpt lat="41.4305867" lon="14.6567083"><ele>521.0</ele><time>2026-04-19T09:12:06.146Z</time></trkpt><trkpt lat="41.430735" lon="14.6566917"><ele>521.0</ele><time>2026-04-19T09:12:07.146Z</time></trkpt><trkpt lat="41.4308817" lon="14.6566783"><ele>521.0</ele><time>2026-04-19T09:12:08.146Z</time></trkpt><trkpt lat="41.4310317" lon="14.6566583"><ele>521.0</ele><time>2026-04-19T09:12:09.146Z</time></trkpt><trkpt lat="41.4311817" lon="14.6566417"><ele>521.0</ele><time>2026-04-19T09:12:10.146Z</time></trkpt><trkpt lat="41.4313283" lon="14.656625"><ele>521.25</ele><time>2026-04-19T09:12:11.146Z</time></trkpt><trkpt lat="41.4314717" lon="14.65661"><ele>521.5</ele><time>2026-04-19T09:12:12.146Z</time></trkpt><trkpt lat="41.431615" lon="14.656595"><ele>521.75</ele><time>2026-04-19T09:12:13.146Z</time></trkpt><trkpt lat="41.43176" lon="14.6565783"><ele>522.0</ele><time>2026-04-19T09:12:14.145Z</time></trkpt><trkpt lat="41.4319067" lon="14.65656"><ele>522.0</ele><time>2026-04-19T09:12:15.146Z</time></trkpt><trkpt lat="41.432055" lon="14.65654"><ele>522.0</ele><time>2026-04-19T09:12:16.146Z</time></trkpt><trkpt lat="41.43221" lon="14.656525"><ele>522.0</ele><time>2026-04-19T09:12:17.146Z</time></trkpt><trkpt lat="41.4323583" lon="14.6565017"><ele>522.0</ele><time>2026-04-19T09:12:18.146Z</time></trkpt><trkpt lat="41.43251" lon="14.6564767"><ele>522.0</ele><time>2026-04-19T09:12:19.146Z</time></trkpt><trkpt lat="41.4326567" lon="14.65646"><ele>522.0</ele><time>2026-04-19T09:12:20.146Z</time></trkpt><trkpt lat="41.43281" lon="14.65644"><ele>522.0</ele><time>2026-04-19T09:12:21.146Z</time></trkpt><trkpt lat="41.43296" lon="14.65642"><ele>522.0</ele><time>2026-04-19T09:12:22.146Z</time></trkpt><trkpt lat="41.4331183" lon="14.6564067"><ele>522.0</ele><time>2026-04-19T09:12:23.145Z</time></trkpt><trkpt lat="41.4332767" lon="14.6563917"><ele>521.3333333333334</ele><time>2026-04-19T09:12:24.146Z</time></trkpt><trkpt lat="41.4334383" lon="14.6563717"><ele>520.6666666666667</ele><time>2026-04-19T09:12:25.146Z</time></trkpt><trkpt lat="41.4336017" lon="14.656345"><ele>520.0</ele><time>2026-04-19T09:12:26.146Z</time></trkpt><trkpt lat="41.4337633" lon="14.656315"><ele>519.3333333333334</ele><time>2026-04-19T09:12:27.146Z</time></trkpt><trkpt lat="41.4339333" lon="14.656295"><ele>518.6666666666666</ele><time>2026-04-19T09:12:28.146Z</time></trkpt><trkpt lat="41.4340967" lon="14.6562683"><ele>518.0</ele><time>2026-04-19T09:12:29.145Z</time></trkpt><trkpt lat="41.4342567" lon="14.6562467"><ele>518.0</ele><time>2026-04-19T09:12:30.145Z</time></trkpt><trkpt lat="41.4344183" lon="14.6562167"><ele>518.0</ele><time>2026-04-19T09:12:31.146Z</time></trkpt><trkpt lat="41.4345833" lon="14.656195"><ele>518.0</ele><time>2026-04-19T09:12:32.146Z</time></trkpt><trkpt lat="41.4347433" lon="14.6561683"><ele>517.6666666666666</ele><time>2026-04-19T09:12:33.145Z</time></trkpt><trkpt lat="41.4349033" lon="14.6561533"><ele>517.3333333333334</ele><time>2026-04-19T09:12:34.146Z</time></trkpt><trkpt lat="41.43506" lon="14.6561333"><ele>517.0</ele><time>2026-04-19T09:12:35.146Z</time></trkpt><trkpt lat="41.4352233" lon="14.6561117"><ele>517.3333333333334</ele><time>2026-04-19T09:12:36.146Z</time></trkpt><trkpt lat="41.435385" lon="14.6560817"><ele>517.6666666666666</ele><time>2026-04-19T09:12:37.145Z</time></trkpt><trkpt lat="41.4355483" lon="14.6560633"><ele>518.0</ele><time>2026-04-19T09:12:38.146Z</time></trkpt><trkpt lat="41.4357083" lon="14.656045"><ele>518.0</ele><time>2026-04-19T09:12:39.146Z</time></trkpt><trkpt lat="41.4358717" lon="14.65602"><ele>518.0</ele><time>2026-04-19T09:12:40.145Z</time></trkpt><trkpt lat="41.436035" lon="14.6559983"><ele>518.0</ele><time>2026-04-19T09:12:41.146Z</time></trkpt><trkpt lat="41.4361967" lon="14.65597"><ele>517.3333333333333</ele><time>2026-04-19T09:12:42.146Z</time></trkpt><trkpt lat="41.4363633" lon="14.65595"><ele>516.6666666666666</ele><time>2026-04-19T09:12:43.146Z</time></trkpt><trkpt lat="41.4365267" lon="14.6559333"><ele>516.0</ele><time>2026-04-19T09:12:44.146Z</time></trkpt><trkpt lat="41.4366883" lon="14.6559083"><ele>516.0</ele><time>2026-04-19T09:12:45.146Z</time></trkpt><trkpt lat="41.43685" lon="14.6558867"><ele>516.0</ele><time>2026-04-19T09:12:46.146Z</time></trkpt><trkpt lat="41.4370117" lon="14.6558667"><ele>516.0</ele><time>2026-04-19T09:12:47.145Z</time></trkpt><trkpt lat="41.4371667" lon="14.65584"><ele>516.3333333333334</ele><time>2026-04-19T09:12:48.146Z</time></trkpt><trkpt lat="41.4373217" lon="14.6558133"><ele>516.6666666666667</ele><time>2026-04-19T09:12:49.146Z</time></trkpt><trkpt lat="41.4374767" lon="14.655795"><ele>517.0</ele><time>2026-04-19T09:12:50.146Z</time></trkpt><trkpt lat="41.4376317" lon="14.6557783"><ele>517.0</ele><time>2026-04-19T09:12:51.146Z</time></trkpt><trkpt lat="41.4377867" lon="14.6557533"><ele>517.0</ele><time>2026-04-19T09:12:52.146Z</time></trkpt><trkpt lat="41.437935" lon="14.6557333"><ele>517.0</ele><time>2026-04-19T09:12:53.146Z</time></trkpt><trkpt lat="41.43808" lon="14.6557083"><ele>517.5</ele><time>2026-04-19T09:12:54.146Z</time></trkpt><trkpt lat="41.4382233" lon="14.655685"><ele>518.0</ele><time>2026-04-19T09:12:55.146Z</time></trkpt><trkpt lat="41.4383633" lon="14.65566"><ele>518.5</ele><time>2026-04-19T09:12:56.146Z</time></trkpt><trkpt lat="41.4385017" lon="14.6556383"><ele>519.0</ele><time>2026-04-19T09:12:57.145Z</time></trkpt><trkpt lat="41.43863" lon="14.6556233"><ele>519.0</ele><time>2026-04-19T09:12:58.145Z</time></trkpt><trkpt lat="41.4387533" lon="14.65561"><ele>519.0</ele><time>2026-04-19T09:12:59.146Z</time></trkpt><trkpt lat="41.43888" lon="14.655595"><ele>519.0</ele><time>2026-04-19T09:13:00.146Z</time></trkpt><trkpt lat="41.4390133" lon="14.6555917"><ele>519.0</ele><time>2026-04-19T09:13:01.145Z</time></trkpt><trkpt lat="41.4391333" lon="14.6555683"><ele>518.75</ele><time>2026-04-19T09:13:02.146Z</time></trkpt><trkpt lat="41.4392433" lon="14.6555217"><ele>518.5</ele><time>2026-04-19T09:13:03.146Z</time></trkpt><trkpt lat="41.4393583" lon="14.6554517"><ele>518.25</ele><time>2026-04-19T09:13:04.145Z</time></trkpt><trkpt lat="41.4394617" lon="14.655345"><ele>518.0</ele><time>2026-04-19T09:13:05.145Z</time></trkpt><trkpt lat="41.4395583" lon="14.6552317"><ele>517.25</ele><time>2026-04-19T09:13:06.146Z</time></trkpt><trkpt lat="41.439655" lon="14.6550967"><ele>516.5</ele><time>2026-04-19T09:13:07.145Z</time></trkpt><trkpt lat="41.4397533" lon="14.6549567"><ele>515.75</ele><time>2026-04-19T09:13:08.146Z</time></trkpt><trkpt lat="41.4398633" lon="14.6548133"><ele>515.0</ele><time>2026-04-19T09:13:09.146Z</time></trkpt><trkpt lat="41.4399717" lon="14.6546683"><ele>515.0</ele><time>2026-04-19T09:13:10.145Z</time></trkpt><trkpt lat="41.440085" lon="14.6545233"><ele>515.0</ele><time>2026-04-19T09:13:11.146Z</time></trkpt><trkpt lat="41.4401983" lon="14.65437"><ele>515.0</ele><time>2026-04-19T09:13:12.146Z</time></trkpt><trkpt lat="41.4403133" lon="14.6542133"><ele>515.3333333333333</ele><time>2026-04-19T09:13:13.146Z</time></trkpt><trkpt lat="41.4404367" lon="14.65405"><ele>515.6666666666666</ele><time>2026-04-19T09:13:14.146Z</time></trkpt><trkpt lat="41.440555" lon="14.6539017"><ele>516.0</ele><time>2026-04-19T09:13:15.146Z</time></trkpt><trkpt lat="41.4406717" lon="14.6537467"><ele>515.6666666666666</ele><time>2026-04-19T09:13:16.146Z</time></trkpt><trkpt lat="41.4407867" lon="14.6535867"><ele>515.3333333333333</ele><time>2026-04-19T09:13:17.146Z</time></trkpt><trkpt lat="41.4409017" lon="14.653435"><ele>515.0</ele><time>2026-04-19T09:13:18.146Z</time></trkpt><trkpt lat="41.441015" lon="14.6532817"><ele>515.0</ele><time>2026-04-19T09:13:19.145Z</time></trkpt><trkpt lat="41.44113" lon="14.6531233"><ele>515.0</ele><time>2026-04-19T09:13:20.145Z</time></trkpt><trkpt lat="41.4412417" lon="14.6529667"><ele>515.0</ele><time>2026-04-19T09:13:21.146Z</time></trkpt><trkpt lat="41.4413533" lon="14.65281"><ele>515.3333333333333</ele><time>2026-04-19T09:13:22.146Z</time></trkpt><trkpt lat="41.4414633" lon="14.65264"><ele>515.6666666666666</ele><time>2026-04-19T09:13:23.146Z</time></trkpt><trkpt lat="41.44158" lon="14.6524933"><ele>516.0</ele><time>2026-04-19T09:13:24.146Z</time></trkpt><trkpt lat="41.4416867" lon="14.65234"><ele>516.0</ele><time>2026-04-19T09:13:25.146Z</time></trkpt><trkpt lat="41.4417983" lon="14.6521833"><ele>516.0</ele><time>2026-04-19T09:13:26.145Z</time></trkpt><trkpt lat="41.4419167" lon="14.65203"><ele>516.0</ele><time>2026-04-19T09:13:27.146Z</time></trkpt><trkpt lat="41.4420317" lon="14.6518717"><ele>516.3333333333334</ele><time>2026-04-19T09:13:28.146Z</time></trkpt><trkpt lat="41.4421483" lon="14.6517133"><ele>516.6666666666667</ele><time>2026-04-19T09:13:29.146Z</time></trkpt><trkpt lat="41.4422567" lon="14.651565"><ele>517.0</ele><time>2026-04-19T09:13:30.146Z</time></trkpt><trkpt lat="41.44236" lon="14.6514183"><ele>517.0</ele><time>2026-04-19T09:13:31.145Z</time></trkpt><trkpt lat="41.4424717" lon="14.6512733"><ele>517.0</ele><time>2026-04-19T09:13:32.146Z</time></trkpt><trkpt lat="41.4425767" lon="14.65113"><ele>517.0</ele><time>2026-04-19T09:13:33.146Z</time></trkpt><trkpt lat="41.4426817" lon="14.6509917"><ele>517.25</ele><time>2026-04-19T09:13:34.145Z</time></trkpt><trkpt lat="41.44279" lon="14.6508567"><ele>517.5</ele><time>2026-04-19T09:13:35.146Z</time></trkpt><trkpt lat="41.4428933" lon="14.6507167"><ele>517.75</ele><time>2026-04-19T09:13:36.146Z</time></trkpt><trkpt lat="41.44299" lon="14.65058"><ele>518.0</ele><time>2026-04-19T09:13:37.146Z</time></trkpt><trkpt lat="41.4430817" lon="14.6504417"><ele>518.0</ele><time>2026-04-19T09:13:38.145Z</time></trkpt><trkpt lat="41.443185" lon="14.6503033"><ele>518.0</ele><time>2026-04-19T09:13:39.146Z</time></trkpt><trkpt lat="41.4432867" lon="14.6501717"><ele>518.0</ele><time>2026-04-19T09:13:40.146Z</time></trkpt><trkpt lat="41.4433933" lon="14.6500283"><ele>518.0</ele><time>2026-04-19T09:13:41.146Z</time></trkpt><trkpt lat="41.4435017" lon="14.6498833"><ele>518.5</ele><time>2026-04-19T09:13:42.146Z</time></trkpt><trkpt lat="41.4436067" lon="14.6497367"><ele>519.0</ele><time>2026-04-19T09:13:43.146Z</time></trkpt><trkpt lat="41.44371" lon="14.6495933"><ele>519.5</ele><time>2026-04-19T09:13:44.146Z</time></trkpt><trkpt lat="41.4438033" lon="14.649455"><ele>520.0</ele><time>2026-04-19T09:13:45.146Z</time></trkpt><trkpt lat="41.443905" lon="14.649315"><ele>520.3333333333334</ele><time>2026-04-19T09:13:46.145Z</time></trkpt><trkpt lat="41.444015" lon="14.6491717"><ele>520.6666666666666</ele><time>2026-04-19T09:13:47.146Z</time></trkpt><trkpt lat="41.44412" lon="14.6490233"><ele>521.0</ele><time>2026-04-19T09:13:48.146Z</time></trkpt><trkpt lat="41.444225" lon="14.6488867"><ele>521.0</ele><time>2026-04-19T09:13:49.146Z</time></trkpt><trkpt lat="41.44433" lon="14.6487417"><ele>521.0</ele><time>2026-04-19T09:13:50.146Z</time></trkpt><trkpt lat="41.444435" lon="14.6486033"><ele>521.0</ele><time>2026-04-19T09:13:51.146Z</time></trkpt><trkpt lat="41.4445367" lon="14.6484617"><ele>521.0</ele><time>2026-04-19T09:13:52.146Z</time></trkpt><trkpt lat="41.44464" lon="14.6483217"><ele>521.0</ele><time>2026-04-19T09:13:53.146Z</time></trkpt><trkpt lat="41.4447533" lon="14.64817"><ele>521.0</ele><time>2026-04-19T09:13:54.146Z</time></trkpt><trkpt lat="41.444865" lon="14.6480267"><ele>521.0</ele><time>2026-04-19T09:13:55.146Z</time></trkpt><trkpt lat="41.4449667" lon="14.6478883"><ele>521.25</ele><time>2026-04-19T09:13:56.146Z</time></trkpt><trkpt lat="41.4450667" lon="14.6477467"><ele>521.5</ele><time>2026-04-19T09:13:57.146Z</time></trkpt><trkpt lat="41.4451583" lon="14.6476183"><ele>521.75</ele><time>2026-04-19T09:13:58.146Z</time></trkpt><trkpt lat="41.4452517" lon="14.64749"><ele>522.0</ele><time>2026-04-19T09:13:59.146Z</time></trkpt><trkpt lat="41.4453417" lon="14.6473583"><ele>522.0</ele><time>2026-04-19T09:14:00.146Z</time></trkpt><trkpt lat="41.44543" lon="14.6472367"><ele>522.0</ele><time>2026-04-19T09:14:01.146Z</time></trkpt><trkpt lat="41.4455133" lon="14.6471033"><ele>522.0</ele><time>2026-04-19T09:14:02.146Z</time></trkpt><trkpt lat="41.4455917" lon="14.6469667"><ele>522.0</ele><time>2026-04-19T09:14:03.146Z</time></trkpt><trkpt lat="41.4456633" lon="14.6468167"><ele>523.0</ele><time>2026-04-19T09:14:04.145Z</time></trkpt><trkpt lat="41.445735" lon="14.646665"><ele>524.0</ele><time>2026-04-19T09:14:05.146Z</time></trkpt><trkpt lat="41.4458033" lon="14.646515"><ele>525.0</ele><time>2026-04-19T09:14:06.146Z</time></trkpt><trkpt lat="41.4458717" lon="14.6463483"><ele>526.0</ele><time>2026-04-19T09:14:07.146Z</time></trkpt><trkpt lat="41.4459433" lon="14.646185"><ele>525.25</ele><time>2026-04-19T09:14:08.146Z</time></trkpt><trkpt lat="41.446015" lon="14.646025"><ele>524.5</ele><time>2026-04-19T09:14:09.145Z</time></trkpt><trkpt lat="41.446085" lon="14.6458517"><ele>523.75</ele><time>2026-04-19T09:14:10.146Z</time></trkpt><trkpt lat="41.4461483" lon="14.645675"><ele>523.0</ele><time>2026-04-19T09:14:11.146Z</time></trkpt><trkpt lat="41.44622" lon="14.64551"><ele>525.5</ele><time>2026-04-19T09:14:12.146Z</time></trkpt><trkpt lat="41.446295" lon="14.6453467"><ele>528.0</ele><time>2026-04-19T09:14:13.146Z</time></trkpt><trkpt lat="41.4463617" lon="14.6451833"><ele>530.5</ele><time>2026-04-19T09:14:14.145Z</time></trkpt><trkpt lat="41.4464283" lon="14.6450333"><ele>533.0</ele><time>2026-04-19T09:14:15.146Z</time></trkpt><trkpt lat="41.446485" lon="14.644885"><ele>533.25</ele><time>2026-04-19T09:14:16.146Z</time></trkpt><trkpt lat="41.4465517" lon="14.6447317"><ele>533.5</ele><time>2026-04-19T09:14:17.146Z</time></trkpt><trkpt lat="41.4466183" lon="14.6445783"><ele>533.75</ele><time>2026-04-19T09:14:18.146Z</time></trkpt><trkpt lat="41.4466867" lon="14.6444267"><ele>534.0</ele><time>2026-04-19T09:14:19.146Z</time></trkpt><trkpt lat="41.44677" lon="14.6442817"><ele>534.5</ele><time>2026-04-19T09:14:20.146Z</time></trkpt><trkpt lat="41.4468767" lon="14.644155"><ele>535.0</ele><time>2026-04-19T09:14:21.145Z</time></trkpt><trkpt lat="41.4469833" lon="14.6440417"><ele>535.5</ele><time>2026-04-19T09:14:22.145Z</time></trkpt><trkpt lat="41.4470867" lon="14.64393"><ele>536.0</ele><time>2026-04-19T09:14:23.146Z</time></trkpt><trkpt lat="41.44718" lon="14.64382"><ele>536.0</ele><time>2026-04-19T09:14:24.146Z</time></trkpt><trkpt lat="41.44726" lon="14.6437183"><ele>536.0</ele><time>2026-04-19T09:14:25.145Z</time></trkpt><trkpt lat="41.4473183" lon="14.6436017"><ele>536.0</ele><time>2026-04-19T09:14:26.146Z</time></trkpt><trkpt lat="41.4473483" lon="14.6434617"><ele>536.0</ele><time>2026-04-19T09:14:27.146Z</time></trkpt><trkpt lat="41.4473633" lon="14.643315"><ele>536.0</ele><time>2026-04-19T09:14:28.146Z</time></trkpt><trkpt lat="41.44739" lon="14.6431733"><ele>535.5</ele><time>2026-04-19T09:14:29.145Z</time></trkpt><trkpt lat="41.4474367" lon="14.6430467"><ele>535.0</ele><time>2026-04-19T09:14:30.146Z</time></trkpt><trkpt lat="41.4475067" lon="14.6429167"><ele>534.5</ele><time>2026-04-19T09:14:31.146Z</time></trkpt><trkpt lat="41.4475933" lon="14.6427883"><ele>534.0</ele><time>2026-04-19T09:14:32.146Z</time></trkpt><trkpt lat="41.447685" lon="14.64266"><ele>533.75</ele><time>2026-04-19T09:14:33.146Z</time></trkpt><trkpt lat="41.4477733" lon="14.6425117"><ele>533.5</ele><time>2026-04-19T09:14:34.146Z</time></trkpt><trkpt lat="41.447865" lon="14.6423617"><ele>533.25</ele><time>2026-04-19T09:14:35.145Z</time></trkpt><trkpt lat="41.4479567" lon="14.642195"><ele>533.0</ele><time>2026-04-19T09:14:36.146Z</time></trkpt><trkpt lat="41.4480483" lon="14.6420217"><ele>535.0</ele><time>2026-04-19T09:14:37.146Z</time></trkpt><trkpt lat="41.4481433" lon="14.6418483"><ele>537.0</ele><time>2026-04-19T09:14:38.146Z</time></trkpt><trkpt lat="41.4482367" lon="14.6416933"><ele>539.0</ele><time>2026-04-19T09:14:39.146Z</time></trkpt><trkpt lat="41.4483233" lon="14.64153"><ele>539.0</ele><time>2026-04-19T09:14:40.146Z</time></trkpt><trkpt lat="41.4484133" lon="14.641365"><ele>539.0</ele><time>2026-04-19T09:14:41.146Z</time></trkpt><trkpt lat="41.4485" lon="14.6412033"><ele>539.0</ele><time>2026-04-19T09:14:42.146Z</time></trkpt><trkpt lat="41.44859" lon="14.641045"><ele>540.25</ele><time>2026-04-19T09:14:43.145Z</time></trkpt><trkpt lat="41.448675" lon="14.64089"><ele>541.5</ele><time>2026-04-19T09:14:44.146Z</time></trkpt><trkpt lat="41.4487533" lon="14.64074"><ele>542.75</ele><time>2026-04-19T09:14:45.145Z</time></trkpt><trkpt lat="41.4488317" lon="14.6405833"><ele>544.0</ele><time>2026-04-19T09:14:46.145Z</time></trkpt><trkpt lat="41.44891" lon="14.64043"><ele>543.0</ele><time>2026-04-19T09:14:47.145Z</time></trkpt><trkpt lat="41.4489833" lon="14.6402817"><ele>542.0</ele><time>2026-04-19T09:14:48.146Z</time></trkpt><trkpt lat="41.4490633" lon="14.640125"><ele>541.0</ele><time>2026-04-19T09:14:49.146Z</time></trkpt><trkpt lat="41.4491317" lon="14.6399733"><ele>540.0</ele><time>2026-04-19T09:14:50.145Z</time></trkpt><trkpt lat="41.4492017" lon="14.639825"><ele>540.0</ele><time>2026-04-19T09:14:51.146Z</time></trkpt><trkpt lat="41.44927" lon="14.639675"><ele>540.0</ele><time>2026-04-19T09:14:52.146Z</time></trkpt><trkpt lat="41.4493433" lon="14.6395317"><ele>540.0</ele><time>2026-04-19T09:14:53.145Z</time></trkpt><trkpt lat="41.4494217" lon="14.63939"><ele>540.0</ele><time>2026-04-19T09:14:54.146Z</time></trkpt><trkpt lat="41.4495083" lon="14.6392517"><ele>539.5</ele><time>2026-04-19T09:14:55.146Z</time></trkpt><trkpt lat="41.449595" lon="14.6391083"><ele>539.0</ele><time>2026-04-19T09:14:56.146Z</time></trkpt><trkpt lat="41.4496883" lon="14.6389617"><ele>538.5</ele><time>2026-04-19T09:14:57.145Z</time></trkpt><trkpt lat="41.44979" lon="14.6388167"><ele>538.0</ele><time>2026-04-19T09:14:58.146Z</time></trkpt><trkpt lat="41.449895" lon="14.6386667"><ele>539.0</ele><time>2026-04-19T09:14:59.146Z</time></trkpt><trkpt lat="41.44999" lon="14.6385183"><ele>540.0</ele><time>2026-04-19T09:15:00.145Z</time></trkpt><trkpt lat="41.4500833" lon="14.6383783"><ele>541.0</ele><time>2026-04-19T09:15:01.146Z</time></trkpt><trkpt lat="41.4501767" lon="14.6382383"><ele>542.0</ele><time>2026-04-19T09:15:02.146Z</time></trkpt><trkpt lat="41.4502717" lon="14.6381067"><ele>542.0</ele><time>2026-04-19T09:15:03.146Z</time></trkpt><trkpt lat="41.4503633" lon="14.63799"><ele>542.0</ele><time>2026-04-19T09:15:04.146Z</time></trkpt><trkpt lat="41.4504633" lon="14.6378833"><ele>542.0</ele><time>2026-04-19T09:15:05.146Z</time></trkpt><trkpt lat="41.4505733" lon="14.6377967"><ele>542.0</ele><time>2026-04-19T09:15:06.146Z</time></trkpt><trkpt lat="41.4506983" lon="14.6377283"><ele>542.75</ele><time>2026-04-19T09:15:07.146Z</time></trkpt><trkpt lat="41.4508233" lon="14.6376683"><ele>543.5</ele><time>2026-04-19T09:15:08.146Z</time></trkpt><trkpt lat="41.45095" lon="14.63761"><ele>544.25</ele><time>2026-04-19T09:15:09.146Z</time></trkpt><trkpt lat="41.4510633" lon="14.6375483"><ele>545.0</ele><time>2026-04-19T09:15:10.146Z</time></trkpt><trkpt lat="41.451165" lon="14.6374617"><ele>545.0</ele><time>2026-04-19T09:15:11.146Z</time></trkpt><trkpt lat="41.45125" lon="14.6373567"><ele>545.0</ele><time>2026-04-19T09:15:12.146Z</time></trkpt><trkpt lat="41.45132" lon="14.63724"><ele>545.0</ele><time>2026-04-19T09:15:13.145Z</time></trkpt><trkpt lat="41.4513817" lon="14.637095"><ele>545.0</ele><time>2026-04-19T09:15:14.146Z</time></trkpt><trkpt lat="41.45143" lon="14.63693"><ele>546.25</ele><time>2026-04-19T09:15:15.146Z</time></trkpt><trkpt lat="41.4514817" lon="14.6367633"><ele>547.5</ele><time>2026-04-19T09:15:16.146Z</time></trkpt><trkpt lat="41.451545" lon="14.63662"><ele>548.75</ele><time>2026-04-19T09:15:17.146Z</time></trkpt><trkpt lat="41.451615" lon="14.63649"><ele>550.0</ele><time>2026-04-19T09:15:18.146Z</time></trkpt><trkpt lat="41.4516867" lon="14.6363783"><ele>550.0</ele><time>2026-04-19T09:15:19.146Z</time></trkpt><trkpt lat="41.4517533" lon="14.6362767"><ele>550.0</ele><time>2026-04-19T09:15:20.146Z</time></trkpt><trkpt lat="41.451815" lon="14.6361817"><ele>550.0</ele><time>2026-04-19T09:15:21.146Z</time></trkpt><trkpt lat="41.4518733" lon="14.636075"><ele>550.0</ele><time>2026-04-19T09:15:22.145Z</time></trkpt><trkpt lat="41.451925" lon="14.6359517"><ele>550.0</ele><time>2026-04-19T09:15:23.146Z</time></trkpt><trkpt lat="41.4519683" lon="14.6358267"><ele>549.2</ele><time>2026-04-19T09:15:24.146Z</time></trkpt><trkpt lat="41.4519967" lon="14.6356917"><ele>548.4</ele><time>2026-04-19T09:15:25.146Z</time></trkpt><trkpt lat="41.45201" lon="14.6355533"><ele>547.6</ele><time>2026-04-19T09:15:26.146Z</time></trkpt><trkpt lat="41.4520333" lon="14.6354117"><ele>546.8</ele><time>2026-04-19T09:15:27.145Z</time></trkpt><trkpt lat="41.4520567" lon="14.6352583"><ele>546.0</ele><time>2026-04-19T09:15:28.146Z</time></trkpt><trkpt lat="41.4520817" lon="14.6350983"><ele>545.5</ele><time>2026-04-19T09:15:29.146Z</time></trkpt><trkpt lat="41.4521083" lon="14.6349333"><ele>545.0</ele><time>2026-04-19T09:15:30.146Z</time></trkpt><trkpt lat="41.4521317" lon="14.6347717"><ele>544.5</ele><time>2026-04-19T09:15:31.146Z</time></trkpt><trkpt lat="41.4521617" lon="14.634615"><ele>544.0</ele><time>2026-04-19T09:15:32.146Z</time></trkpt><trkpt lat="41.452185" lon="14.6344533"><ele>547.25</ele><time>2026-04-19T09:15:33.146Z</time></trkpt><trkpt lat="41.4522117" lon="14.634285"><ele>550.5</ele><time>2026-04-19T09:15:34.145Z</time></trkpt><trkpt lat="41.452245" lon="14.63412"><ele>553.75</ele><time>2026-04-19T09:15:35.146Z</time></trkpt><trkpt lat="41.4522783" lon="14.6339467"><ele>557.0</ele><time>2026-04-19T09:15:36.146Z</time></trkpt><trkpt lat="41.452295" lon="14.633785"><ele>556.25</ele><time>2026-04-19T09:15:37.145Z</time></trkpt><trkpt lat="41.452315" lon="14.63362"><ele>555.5</ele><time>2026-04-19T09:15:38.146Z</time></trkpt><trkpt lat="41.4523317" lon="14.6334717"><ele>554.75</ele><time>2026-04-19T09:15:39.146Z</time></trkpt><trkpt lat="41.452355" lon="14.63332"><ele>554.0</ele><time>2026-04-19T09:15:40.146Z</time></trkpt><trkpt lat="41.4523783" lon="14.63318"><ele>554.0</ele><time>2026-04-19T09:15:41.146Z</time></trkpt><trkpt lat="41.4524067" lon="14.6330483"><ele>554.0</ele><time>2026-04-19T09:15:42.146Z</time></trkpt><trkpt lat="41.4524383" lon="14.63293"><ele>554.0</ele><time>2026-04-19T09:15:43.146Z</time></trkpt><trkpt lat="41.4524933" lon="14.6328183"><ele>554.0</ele><time>2026-04-19T09:15:44.145Z</time></trkpt><trkpt lat="41.4525667" lon="14.632715"><ele>554.0</ele><time>2026-04-19T09:15:45.146Z</time></trkpt><trkpt lat="41.4526567" lon="14.632625"><ele>555.25</ele><time>2026-04-19T09:15:46.146Z</time></trkpt><trkpt lat="41.4527533" lon="14.6325483"><ele>556.5</ele><time>2026-04-19T09:15:47.146Z</time></trkpt><trkpt lat="41.4528617" lon="14.632475"><ele>557.75</ele><time>2026-04-19T09:15:48.145Z</time></trkpt><trkpt lat="41.45297" lon="14.6324017"><ele>559.0</ele><time>2026-04-19T09:15:49.145Z</time></trkpt><trkpt lat="41.4530817" lon="14.63233"><ele>559.0</ele><time>2026-04-19T09:15:50.145Z</time></trkpt><trkpt lat="41.45319" lon="14.632245"><ele>559.0</ele><time>2026-04-19T09:15:51.146Z</time></trkpt><trkpt lat="41.4532933" lon="14.6321467"><ele>559.0</ele><time>2026-04-19T09:15:52.146Z</time></trkpt><trkpt lat="41.4533983" lon="14.6320267"><ele>559.0</ele><time>2026-04-19T09:15:53.146Z</time></trkpt><trkpt lat="41.4535033" lon="14.6319017"><ele>559.25</ele><time>2026-04-19T09:15:54.145Z</time></trkpt><trkpt lat="41.4536033" lon="14.6317783"><ele>559.5</ele><time>2026-04-19T09:15:55.146Z</time></trkpt><trkpt lat="41.453695" lon="14.6316583"><ele>559.75</ele><time>2026-04-19T09:15:56.145Z</time></trkpt><trkpt lat="41.4537967" lon="14.6315517"><ele>560.0</ele><time>2026-04-19T09:15:57.146Z</time></trkpt><trkpt lat="41.4539" lon="14.6314567"><ele>560.0</ele><time>2026-04-19T09:15:58.146Z</time></trkpt><trkpt lat="41.4540167" lon="14.6313767"><ele>560.0</ele><time>2026-04-19T09:15:59.146Z</time></trkpt><trkpt lat="41.4541383" lon="14.6313017"><ele>560.0</ele><time>2026-04-19T09:16:00.146Z</time></trkpt><trkpt lat="41.4542633" lon="14.6312383"><ele>560.0</ele><time>2026-04-19T09:16:01.145Z</time></trkpt><trkpt lat="41.4543883" lon="14.6311783"><ele>559.6</ele><time>2026-04-19T09:16:02.146Z</time></trkpt><trkpt lat="41.4545033" lon="14.6311217"><ele>559.2</ele><time>2026-04-19T09:16:03.146Z</time></trkpt><trkpt lat="41.4546183" lon="14.6310667"><ele>558.8</ele><time>2026-04-19T09:16:04.146Z</time></trkpt><trkpt lat="41.4547117" lon="14.6310267"><ele>558.4</ele><time>2026-04-19T09:16:05.146Z</time></trkpt><trkpt lat="41.4547917" lon="14.6309733"><ele>558.0</ele><time>2026-04-19T09:16:06.146Z</time></trkpt><trkpt lat="41.4548683" lon="14.6309033"><ele>558.0</ele><time>2026-04-19T09:16:07.146Z</time></trkpt><trkpt lat="41.4549217" lon="14.6308117"><ele>558.0</ele><time>2026-04-19T09:16:08.145Z</time></trkpt><trkpt lat="41.4549517" lon="14.630705"><ele>558.0</ele><time>2026-04-19T09:16:09.146Z</time></trkpt><trkpt lat="41.4549417" lon="14.6305717"><ele>558.0</ele><time>2026-04-19T09:16:10.146Z</time></trkpt><trkpt lat="41.4549033" lon="14.63042"><ele>558.0</ele><time>2026-04-19T09:16:11.146Z</time></trkpt><trkpt lat="41.454855" lon="14.6302733"><ele>558.3333333333334</ele><time>2026-04-19T09:16:12.146Z</time></trkpt><trkpt lat="41.4548217" lon="14.6301417"><ele>558.6666666666666</ele><time>2026-04-19T09:16:13.146Z</time></trkpt><trkpt lat="41.4548083" lon="14.6300167"><ele>559.0</ele><time>2026-04-19T09:16:14.146Z</time></trkpt><trkpt lat="41.4548117" lon="14.6299083"><ele>559.3333333333333</ele><time>2026-04-19T09:16:15.146Z</time></trkpt><trkpt lat="41.454825" lon="14.62981"><ele>559.6666666666666</ele><time>2026-04-19T09:16:16.145Z</time></trkpt><trkpt lat="41.4548617" lon="14.629725"><ele>560.0</ele><time>2026-04-19T09:16:17.146Z</time></trkpt><trkpt lat="41.4549167" lon="14.629645"><ele>560.0</ele><time>2026-04-19T09:16:18.145Z</time></trkpt><trkpt lat="41.4549917" lon="14.6295733"><ele>560.0</ele><time>2026-04-19T09:16:19.145Z</time></trkpt><trkpt lat="41.45508" lon="14.6295233"><ele>560.0</ele><time>2026-04-19T09:16:20.146Z</time></trkpt><trkpt lat="41.4551733" lon="14.6294833"><ele>560.0</ele><time>2026-04-19T09:16:21.146Z</time></trkpt><trkpt lat="41.4552567" lon="14.6294367"><ele>560.0</ele><time>2026-04-19T09:16:22.146Z</time></trkpt><trkpt lat="41.4553217" lon="14.6293667"><ele>560.0</ele><time>2026-04-19T09:16:23.145Z</time></trkpt><trkpt lat="41.4553717" lon="14.629265"><ele>560.0</ele><time>2026-04-19T09:16:24.145Z</time></trkpt><trkpt lat="41.4553767" lon="14.6291517"><ele>560.0</ele><time>2026-04-19T09:16:25.145Z</time></trkpt><trkpt lat="41.4553533" lon="14.6290383"><ele>560.0</ele><time>2026-04-19T09:16:26.146Z</time></trkpt><trkpt lat="41.4553" lon="14.628945"><ele>560.0</ele><time>2026-04-19T09:16:27.146Z</time></trkpt><trkpt lat="41.4552233" lon="14.62887"><ele>560.0</ele><time>2026-04-19T09:16:28.146Z</time></trkpt><trkpt lat="41.4551217" lon="14.6288033"><ele>560.0</ele><time>2026-04-19T09:16:29.146Z</time></trkpt><trkpt lat="41.4550067" lon="14.6287367"><ele>560.0</ele><time>2026-04-19T09:16:30.146Z</time></trkpt><trkpt lat="41.4548917" lon="14.6286583"><ele>560.0</ele><time>2026-04-19T09:16:31.146Z</time></trkpt><trkpt lat="41.4547783" lon="14.62859"><ele>560.0</ele><time>2026-04-19T09:16:32.145Z</time></trkpt><trkpt lat="41.4546683" lon="14.6285167"><ele>559.6</ele><time>2026-04-19T09:16:33.146Z</time></trkpt><trkpt lat="41.45457" lon="14.6284467"><ele>559.2</ele><time>2026-04-19T09:16:34.146Z</time></trkpt><trkpt lat="41.454485" lon="14.6283717"><ele>558.8</ele><time>2026-04-19T09:16:35.146Z</time></trkpt><trkpt lat="41.4544033" lon="14.6282767"><ele>558.4</ele><time>2026-04-19T09:16:36.146Z</time></trkpt><trkpt lat="41.4543333" lon="14.6281483"><ele>558.0</ele><time>2026-04-19T09:16:37.146Z</time></trkpt><trkpt lat="41.4542767" lon="14.6280183"><ele>558.0</ele><time>2026-04-19T09:16:38.146Z</time></trkpt><trkpt lat="41.4542483" lon="14.6278783"><ele>558.0</ele><time>2026-04-19T09:16:39.145Z</time></trkpt><trkpt lat="41.45423" lon="14.6277433"><ele>558.0</ele><time>2026-04-19T09:16:40.145Z</time></trkpt><trkpt lat="41.454245" lon="14.6276033"><ele>558.0</ele><time>2026-04-19T09:16:41.146Z</time></trkpt><trkpt lat="41.4542767" lon="14.6274783"><ele>558.0</ele><time>2026-04-19T09:16:42.145Z</time></trkpt><trkpt lat="41.4543267" lon="14.6273733"><ele>558.8</ele><time>2026-04-19T09:16:43.145Z</time></trkpt><trkpt lat="41.4543867" lon="14.6272917"><ele>559.5999999999999</ele><time>2026-04-19T09:16:44.146Z</time></trkpt><trkpt lat="41.4544567" lon="14.6272267"><ele>560.4000000000001</ele><time>2026-04-19T09:16:45.146Z</time></trkpt><trkpt lat="41.4545417" lon="14.6271833"><ele>561.2</ele><time>2026-04-19T09:16:46.145Z</time></trkpt><trkpt lat="41.4546433" lon="14.6271633"><ele>562.0</ele><time>2026-04-19T09:16:47.146Z</time></trkpt><trkpt lat="41.4547483" lon="14.627165"><ele>563.5</ele><time>2026-04-19T09:16:48.146Z</time></trkpt><trkpt lat="41.4548567" lon="14.627175"><ele>565.0</ele><time>2026-04-19T09:16:49.145Z</time></trkpt><trkpt lat="41.4549767" lon="14.6272"><ele>566.5</ele><time>2026-04-19T09:16:50.145Z</time></trkpt><trkpt lat="41.455095" lon="14.627245"><ele>568.0</ele><time>2026-04-19T09:16:51.146Z</time></trkpt><trkpt lat="41.4551983" lon="14.6272983"><ele>568.0</ele><time>2026-04-19T09:16:52.145Z</time></trkpt><trkpt lat="41.4553067" lon="14.62735"><ele>568.0</ele><time>2026-04-19T09:16:53.146Z</time></trkpt><trkpt lat="41.4554217" lon="14.6274217"><ele>568.0</ele><time>2026-04-19T09:16:54.146Z</time></trkpt><trkpt lat="41.4555267" lon="14.6274983"><ele>568.0</ele><time>2026-04-19T09:16:55.146Z</time></trkpt><trkpt lat="41.45562" lon="14.627605"><ele>568.0</ele><time>2026-04-19T09:16:56.146Z</time></trkpt><trkpt lat="41.455705" lon="14.6277217"><ele>568.0</ele><time>2026-04-19T09:16:57.146Z</time></trkpt><trkpt lat="41.4557867" lon="14.6278383"><ele>568.0</ele><time>2026-04-19T09:16:58.146Z</time></trkpt><trkpt lat="41.4558667" lon="14.6279367"><ele>568.0</ele><time>2026-04-19T09:16:59.146Z</time></trkpt><trkpt lat="41.455955" lon="14.6280133"><ele>568.0</ele><time>2026-04-19T09:17:00.146Z</time></trkpt><trkpt lat="41.45605" lon="14.6280567"><ele>568.0</ele><time>2026-04-19T09:17:01.146Z</time></trkpt><trkpt lat="41.45615" lon="14.6280633"><ele>568.0</ele><time>2026-04-19T09:17:02.146Z</time></trkpt><trkpt lat="41.45626" lon="14.628035"><ele>568.0</ele><time>2026-04-19T09:17:03.146Z</time></trkpt><trkpt lat="41.4563833" lon="14.6279833"><ele>568.0</ele><time>2026-04-19T09:17:04.146Z</time></trkpt><trkpt lat="41.4564967" lon="14.6279283"><ele>569.0</ele><time>2026-04-19T09:17:05.145Z</time></trkpt><trkpt lat="41.4565967" lon="14.62787"><ele>570.0</ele><time>2026-04-19T09:17:06.146Z</time></trkpt><trkpt lat="41.4566833" lon="14.6277983"><ele>571.0</ele><time>2026-04-19T09:17:07.146Z</time></trkpt><trkpt lat="41.45676" lon="14.6276967"><ele>572.0</ele><time>2026-04-19T09:17:08.145Z</time></trkpt><trkpt lat="41.456815" lon="14.6275633"><ele>573.0</ele><time>2026-04-19T09:17:09.146Z</time></trkpt><trkpt lat="41.4568583" lon="14.62741"><ele>573.0</ele><time>2026-04-19T09:17:10.146Z</time></trkpt><trkpt lat="41.4568967" lon="14.6272417"><ele>573.0</ele><time>2026-04-19T09:17:11.146Z</time></trkpt><trkpt lat="41.456935" lon="14.62707"><ele>573.0</ele><time>2026-04-19T09:17:12.146Z</time></trkpt><trkpt lat="41.4569783" lon="14.6269083"><ele>573.0</ele><time>2026-04-19T09:17:13.146Z</time></trkpt><trkpt lat="41.457015" lon="14.6267567"><ele>573.25</ele><time>2026-04-19T09:17:14.146Z</time></trkpt><trkpt lat="41.4570633" lon="14.62662"><ele>573.5</ele><time>2026-04-19T09:17:15.145Z</time></trkpt><trkpt lat="41.457135" lon="14.6265"><ele>573.75</ele><time>2026-04-19T09:17:16.146Z</time></trkpt><trkpt lat="41.4572233" lon="14.6263967"><ele>574.0</ele><time>2026-04-19T09:17:17.146Z</time></trkpt><trkpt lat="41.4573283" lon="14.6263083"><ele>575.0</ele><time>2026-04-19T09:17:18.146Z</time></trkpt><trkpt lat="41.457445" lon="14.6262333"><ele>576.0</ele><time>2026-04-19T09:17:19.146Z</time></trkpt><trkpt lat="41.4575733" lon="14.6261633"><ele>577.0</ele><time>2026-04-19T09:17:20.146Z</time></trkpt><trkpt lat="41.4576967" lon="14.6260717"><ele>578.0</ele><time>2026-04-19T09:17:21.146Z</time></trkpt><trkpt lat="41.4578117" lon="14.625955"><ele>578.25</ele><time>2026-04-19T09:17:22.146Z</time></trkpt><trkpt lat="41.45791" lon="14.6258233"><ele>578.5</ele><time>2026-04-19T09:17:23.146Z</time></trkpt><trkpt lat="41.4579933" lon="14.62568"><ele>578.75</ele><time>2026-04-19T09:17:24.146Z</time></trkpt><trkpt lat="41.458065" lon="14.6255467"><ele>579.0</ele><time>2026-04-19T09:17:25.145Z</time></trkpt><trkpt lat="41.4581333" lon="14.625435"><ele>580.3333333333334</ele><time>2026-04-19T09:17:26.146Z</time></trkpt><trkpt lat="41.4581867" lon="14.625325"><ele>581.6666666666666</ele><time>2026-04-19T09:17:27.146Z</time></trkpt><trkpt lat="41.45821" lon="14.6252183"><ele>583.0</ele><time>2026-04-19T09:17:28.146Z</time></trkpt><trkpt lat="41.4582033" lon="14.6251033"><ele>584.3333333333333</ele><time>2026-04-19T09:17:29.146Z</time></trkpt><trkpt lat="41.458165" lon="14.6250033"><ele>585.6666666666666</ele><time>2026-04-19T09:17:30.146Z</time></trkpt><trkpt lat="41.458105" lon="14.62493"><ele>587.0</ele><time>2026-04-19T09:17:31.146Z</time></trkpt><trkpt lat="41.4580233" lon="14.6248717"><ele>587.4</ele><time>2026-04-19T09:17:32.146Z</time></trkpt><trkpt lat="41.4579217" lon="14.624815"><ele>587.8000000000001</ele><time>2026-04-19T09:17:33.145Z</time></trkpt><trkpt lat="41.4578333" lon="14.6247433"><ele>588.2</ele><time>2026-04-19T09:17:34.146Z</time></trkpt><trkpt lat="41.457755" lon="14.6246433"><ele>588.6</ele><time>2026-04-19T09:17:35.145Z</time></trkpt><trkpt lat="41.457685" lon="14.6245317"><ele>589.0</ele><time>2026-04-19T09:17:36.145Z</time></trkpt><trkpt lat="41.457615" lon="14.6243917"><ele>589.0</ele><time>2026-04-19T09:17:37.146Z</time></trkpt><trkpt lat="41.457555" lon="14.6242483"><ele>589.0</ele><time>2026-04-19T09:17:38.146Z</time></trkpt><trkpt lat="41.4574983" lon="14.6241133"><ele>589.0</ele><time>2026-04-19T09:17:39.145Z</time></trkpt><trkpt lat="41.4574567" lon="14.62398"><ele>589.0</ele><time>2026-04-19T09:17:40.146Z</time></trkpt><trkpt lat="41.4574233" lon="14.623855"><ele>589.0</ele><time>2026-04-19T09:17:41.146Z</time></trkpt><trkpt lat="41.4573917" lon="14.6237383"><ele>589.0</ele><time>2026-04-19T09:17:42.145Z</time></trkpt><trkpt lat="41.4573717" lon="14.623635"><ele>589.0</ele><time>2026-04-19T09:17:43.145Z</time></trkpt><trkpt lat="41.4573767" lon="14.6235367"><ele>589.0</ele><time>2026-04-19T09:17:44.145Z</time></trkpt><trkpt lat="41.4574067" lon="14.623445"><ele>589.0</ele><time>2026-04-19T09:17:45.145Z</time></trkpt><trkpt lat="41.4574583" lon="14.6233483"><ele>589.0</ele><time>2026-04-19T09:17:46.146Z</time></trkpt><trkpt lat="41.4575383" lon="14.6232633"><ele>589.0</ele><time>2026-04-19T09:17:47.146Z</time></trkpt><trkpt lat="41.4576267" lon="14.623185"><ele>589.0</ele><time>2026-04-19T09:17:48.146Z</time></trkpt><trkpt lat="41.457725" lon="14.6231"><ele>589.0</ele><time>2026-04-19T09:17:49.145Z</time></trkpt><trkpt lat="41.4578233" lon="14.6230067"><ele>589.0</ele><time>2026-04-19T09:17:50.146Z</time></trkpt><trkpt lat="41.457925" lon="14.6229117"><ele>589.0</ele><time>2026-04-19T09:17:51.145Z</time></trkpt><trkpt lat="41.4580183" lon="14.6228217"><ele>589.75</ele><time>2026-04-19T09:17:52.146Z</time></trkpt><trkpt lat="41.4581117" lon="14.6227283"><ele>590.5</ele><time>2026-04-19T09:17:53.146Z</time></trkpt><trkpt lat="41.4582083" lon="14.6226433"><ele>591.25</ele><time>2026-04-19T09:17:54.145Z</time></trkpt><trkpt lat="41.4583017" lon="14.6225583"><ele>592.0</ele><time>2026-04-19T09:17:55.146Z</time></trkpt><trkpt lat="41.458405" lon="14.622485"><ele>592.0</ele><time>2026-04-19T09:17:56.146Z</time></trkpt><trkpt lat="41.4585083" lon="14.622435"><ele>592.0</ele><time>2026-04-19T09:17:57.146Z</time></trkpt><trkpt lat="41.45861" lon="14.6224133"><ele>592.0</ele><time>2026-04-19T09:17:58.145Z</time></trkpt><trkpt lat="41.4587167" lon="14.6224083"><ele>592.0</ele><time>2026-04-19T09:17:59.146Z</time></trkpt><trkpt lat="41.4588167" lon="14.622415"><ele>592.0</ele><time>2026-04-19T09:18:00.146Z</time></trkpt><trkpt lat="41.4589167" lon="14.6224167"><ele>593.6</ele><time>2026-04-19T09:18:01.146Z</time></trkpt><trkpt lat="41.459015" lon="14.6224067"><ele>595.2</ele><time>2026-04-19T09:18:02.146Z</time></trkpt><trkpt lat="41.4591067" lon="14.6223733"><ele>596.8</ele><time>2026-04-19T09:18:03.146Z</time></trkpt><trkpt lat="41.45918" lon="14.622315"><ele>598.4</ele><time>2026-04-19T09:18:04.145Z</time></trkpt><trkpt lat="41.4592317" lon="14.6222167"><ele>600.0</ele><time>2026-04-19T09:18:05.146Z</time></trkpt><trkpt lat="41.459265" lon="14.6220933"><ele>599.5</ele><time>2026-04-19T09:18:06.146Z</time></trkpt><trkpt lat="41.45928" lon="14.6219467"><ele>599.0</ele><time>2026-04-19T09:18:07.146Z</time></trkpt><trkpt lat="41.4592933" lon="14.6217917"><ele>598.5</ele><time>2026-04-19T09:18:08.146Z</time></trkpt><trkpt lat="41.4593083" lon="14.6216317"><ele>598.0</ele><time>2026-04-19T09:18:09.146Z</time></trkpt><trkpt lat="41.45932" lon="14.6214633"><ele>598.0</ele><time>2026-04-19T09:18:10.146Z</time></trkpt><trkpt lat="41.45933" lon="14.6212983"><ele>598.0</ele><time>2026-04-19T09:18:11.146Z</time></trkpt><trkpt lat="41.4593433" lon="14.62113"><ele>598.0</ele><time>2026-04-19T09:18:12.145Z</time></trkpt><trkpt lat="41.4593417" lon="14.6209583"><ele>598.0</ele><time>2026-04-19T09:18:13.146Z</time></trkpt><trkpt lat="41.4593383" lon="14.6207883"><ele>598.5</ele><time>2026-04-19T09:18:14.146Z</time></trkpt><trkpt lat="41.4593417" lon="14.6206217"><ele>599.0</ele><time>2026-04-19T09:18:15.146Z</time></trkpt><trkpt lat="41.4593483" lon="14.6204583"><ele>599.5</ele><time>2026-04-19T09:18:16.146Z</time></trkpt><trkpt lat="41.4593683" lon="14.6202933"><ele>600.0</ele><time>2026-04-19T09:18:17.146Z</time></trkpt><trkpt lat="41.459385" lon="14.6201267"><ele>600.25</ele><time>2026-04-19T09:18:18.146Z</time></trkpt><trkpt lat="41.45941" lon="14.6199583"><ele>600.5</ele><time>2026-04-19T09:18:19.145Z</time></trkpt><trkpt lat="41.459435" lon="14.61979"><ele>600.75</ele><time>2026-04-19T09:18:20.145Z</time></trkpt><trkpt lat="41.4594717" lon="14.6196217"><ele>601.0</ele><time>2026-04-19T09:18:21.146Z</time></trkpt><trkpt lat="41.459505" lon="14.61945"><ele>601.2</ele><time>2026-04-19T09:18:22.145Z</time></trkpt><trkpt lat="41.4595367" lon="14.619295"><ele>601.4000000000001</ele><time>2026-04-19T09:18:23.146Z</time></trkpt><trkpt lat="41.4595667" lon="14.619155"><ele>601.6</ele><time>2026-04-19T09:18:24.145Z</time></trkpt><trkpt lat="41.459595" lon="14.6190183"><ele>601.8000000000001</ele><time>2026-04-19T09:18:25.145Z</time></trkpt><trkpt lat="41.4596317" lon="14.6189033"><ele>602.0</ele><time>2026-04-19T09:18:26.145Z</time></trkpt><trkpt lat="41.45969" lon="14.6187817"><ele>602.5</ele><time>2026-04-19T09:18:27.145Z</time></trkpt><trkpt lat="41.4597617" lon="14.6186683"><ele>603.0</ele><time>2026-04-19T09:18:28.145Z</time></trkpt><trkpt lat="41.4598483" lon="14.6185783"><ele>603.5</ele><time>2026-04-19T09:18:29.146Z</time></trkpt><trkpt lat="41.4599417" lon="14.6184917"><ele>604.0</ele><time>2026-04-19T09:18:30.146Z</time></trkpt><trkpt lat="41.4600383" lon="14.6183967"><ele>604.0</ele><time>2026-04-19T09:18:31.146Z</time></trkpt><trkpt lat="41.4601317" lon="14.61829"><ele>604.0</ele><time>2026-04-19T09:18:32.145Z</time></trkpt><trkpt lat="41.4602183" lon="14.61816"><ele>604.0</ele><time>2026-04-19T09:18:33.146Z</time></trkpt><trkpt lat="41.4602933" lon="14.6180267"><ele>604.0</ele><time>2026-04-19T09:18:34.145Z</time></trkpt><trkpt lat="41.46037" lon="14.61791"><ele>605.25</ele><time>2026-04-19T09:18:35.146Z</time></trkpt><trkpt lat="41.4604567" lon="14.6178183"><ele>606.5</ele><time>2026-04-19T09:18:36.146Z</time></trkpt><trkpt lat="41.46056" lon="14.6177483"><ele>607.75</ele><time>2026-04-19T09:18:37.146Z</time></trkpt><trkpt lat="41.46068" lon="14.6176867"><ele>609.0</ele><time>2026-04-19T09:18:38.146Z</time></trkpt><trkpt lat="41.4608017" lon="14.617625"><ele>609.0</ele><time>2026-04-19T09:18:39.146Z</time></trkpt><trkpt lat="41.46093" lon="14.6175567"><ele>609.0</ele><time>2026-04-19T09:18:40.146Z</time></trkpt><trkpt lat="41.4610483" lon="14.61748"><ele>609.0</ele><time>2026-04-19T09:18:41.145Z</time></trkpt><trkpt lat="41.461155" lon="14.6174033"><ele>609.0</ele><time>2026-04-19T09:18:42.145Z</time></trkpt><trkpt lat="41.4612483" lon="14.617325"><ele>610.4</ele><time>2026-04-19T09:18:43.145Z</time></trkpt><trkpt lat="41.46135" lon="14.6172617"><ele>611.8</ele><time>2026-04-19T09:18:44.146Z</time></trkpt><trkpt lat="41.4614533" lon="14.6172233"><ele>613.2</ele><time>2026-04-19T09:18:45.146Z</time></trkpt><trkpt lat="41.4615567" lon="14.6172317"><ele>614.6</ele><time>2026-04-19T09:18:46.146Z</time></trkpt><trkpt lat="41.46166" lon="14.61727"><ele>616.0</ele><time>2026-04-19T09:18:47.146Z</time></trkpt><trkpt lat="41.4617617" lon="14.6173517"><ele>616.0</ele><time>2026-04-19T09:18:48.145Z</time></trkpt><trkpt lat="41.4618583" lon="14.6174333"><ele>616.0</ele><time>2026-04-19T09:18:49.146Z</time></trkpt><trkpt lat="41.4619717" lon="14.6174883"><ele>616.0</ele><time>2026-04-19T09:18:50.146Z</time></trkpt><trkpt lat="41.4620867" lon="14.617495"><ele>616.0</ele><time>2026-04-19T09:18:51.146Z</time></trkpt><trkpt lat="41.4621983" lon="14.61748"><ele>617.0</ele><time>2026-04-19T09:18:52.146Z</time></trkpt><trkpt lat="41.4623217" lon="14.61745"><ele>618.0</ele><time>2026-04-19T09:18:53.146Z</time></trkpt><trkpt lat="41.462445" lon="14.6174367"><ele>619.0</ele><time>2026-04-19T09:18:54.146Z</time></trkpt><trkpt lat="41.4625717" lon="14.6174433"><ele>620.0</ele><time>2026-04-19T09:18:55.146Z</time></trkpt><trkpt lat="41.4626933" lon="14.61747"><ele>620.0</ele><time>2026-04-19T09:18:56.146Z</time></trkpt><trkpt lat="41.4628133" lon="14.6174933"><ele>620.0</ele><time>2026-04-19T09:18:57.146Z</time></trkpt><trkpt lat="41.4629217" lon="14.6175117"><ele>620.0</ele><time>2026-04-19T09:18:58.146Z</time></trkpt><trkpt lat="41.4630267" lon="14.6175267"><ele>620.0</ele><time>2026-04-19T09:18:59.146Z</time></trkpt><trkpt lat="41.463125" lon="14.617515"><ele>620.0</ele><time>2026-04-19T09:19:00.146Z</time></trkpt><trkpt lat="41.4632183" lon="14.61747"><ele>621.0</ele><time>2026-04-19T09:19:01.146Z</time></trkpt><trkpt lat="41.463285" lon="14.6174"><ele>622.0</ele><time>2026-04-19T09:19:02.145Z</time></trkpt><trkpt lat="41.4633333" lon="14.6173083"><ele>623.0</ele><time>2026-04-19T09:19:03.146Z</time></trkpt><trkpt lat="41.46336" lon="14.617205"><ele>624.0</ele><time>2026-04-19T09:19:04.145Z</time></trkpt><trkpt lat="41.4633433" lon="14.6170967"><ele>625.0</ele><time>2026-04-19T09:19:05.145Z</time></trkpt><trkpt lat="41.463305" lon="14.6169883"><ele>626.0</ele><time>2026-04-19T09:19:06.146Z</time></trkpt><trkpt lat="41.46323" lon="14.6168983"><ele>626.8</ele><time>2026-04-19T09:19:07.145Z</time></trkpt><trkpt lat="41.4631333" lon="14.6168167"><ele>627.6</ele><time>2026-04-19T09:19:08.146Z</time></trkpt><trkpt lat="41.4630383" lon="14.616735"><ele>628.4</ele><time>2026-04-19T09:19:09.146Z</time></trkpt><trkpt lat="41.4629483" lon="14.6166517"><ele>629.2</ele><time>2026-04-19T09:19:10.146Z</time></trkpt><trkpt lat="41.4628667" lon="14.6165717"><ele>630.0</ele><time>2026-04-19T09:19:11.146Z</time></trkpt><trkpt lat="41.4628083" lon="14.6164917"><ele>628.6</ele><time>2026-04-19T09:19:12.145Z</time></trkpt><trkpt lat="41.4627717" lon="14.6163917"><ele>627.2</ele><time>2026-04-19T09:19:13.146Z</time></trkpt><trkpt lat="41.4627633" lon="14.6162783"><ele>625.8</ele><time>2026-04-19T09:19:14.146Z</time></trkpt><trkpt lat="41.4627717" lon="14.61616"><ele>624.4</ele><time>2026-04-19T09:19:15.146Z</time></trkpt><trkpt lat="41.462795" lon="14.6160367"><ele>623.0</ele><time>2026-04-19T09:19:16.146Z</time></trkpt><trkpt lat="41.4628133" lon="14.6159083"><ele>623.0</ele><time>2026-04-19T09:19:17.146Z</time></trkpt><trkpt lat="41.4628067" lon="14.61576"><ele>623.0</ele><time>2026-04-19T09:19:18.146Z</time></trkpt><trkpt lat="41.4627667" lon="14.6156167"><ele>623.0</ele><time>2026-04-19T09:19:19.145Z</time></trkpt><trkpt lat="41.4627267" lon="14.61549"><ele>623.0</ele><time>2026-04-19T09:19:20.146Z</time></trkpt><trkpt lat="41.462695" lon="14.6153767"><ele>623.0</ele><time>2026-04-19T09:19:21.146Z</time></trkpt><trkpt lat="41.4626817" lon="14.615275"><ele>623.1666666666666</ele><time>2026-04-19T09:19:22.146Z</time></trkpt><trkpt lat="41.4626967" lon="14.6151833"><ele>623.3333333333333</ele><time>2026-04-19T09:19:23.146Z</time></trkpt><trkpt lat="41.462745" lon="14.6150967"><ele>623.5</ele><time>2026-04-19T09:19:24.145Z</time></trkpt><trkpt lat="41.46282" lon="14.6150083"><ele>623.6666666666666</ele><time>2026-04-19T09:19:25.146Z</time></trkpt><trkpt lat="41.4628967" lon="14.6149233"><ele>623.8333333333334</ele><time>2026-04-19T09:19:26.145Z</time></trkpt><trkpt lat="41.4629683" lon="14.614835"><ele>624.0</ele><time>2026-04-19T09:19:27.145Z</time></trkpt><trkpt lat="41.4630117" lon="14.6147083"><ele>625.4</ele><time>2026-04-19T09:19:28.146Z</time></trkpt><trkpt lat="41.4630333" lon="14.6145633"><ele>626.8</ele><time>2026-04-19T09:19:29.146Z</time></trkpt><trkpt lat="41.463045" lon="14.6144133"><ele>628.2</ele><time>2026-04-19T09:19:30.146Z</time></trkpt><trkpt lat="41.4630617" lon="14.6142633"><ele>629.6</ele><time>2026-04-19T09:19:31.146Z</time></trkpt><trkpt lat="41.463095" lon="14.6141267"><ele>631.0</ele><time>2026-04-19T09:19:32.146Z</time></trkpt><trkpt lat="41.46315" lon="14.6139983"><ele>631.0</ele><time>2026-04-19T09:19:33.146Z</time></trkpt><trkpt lat="41.4632283" lon="14.6138683"><ele>631.0</ele><time>2026-04-19T09:19:34.146Z</time></trkpt><trkpt lat="41.4633133" lon="14.61374"><ele>631.0</ele><time>2026-04-19T09:19:35.146Z</time></trkpt><trkpt lat="41.4634017" lon="14.613615"><ele>631.0</ele><time>2026-04-19T09:19:36.146Z</time></trkpt><trkpt lat="41.463495" lon="14.6134967"><ele>631.0</ele><time>2026-04-19T09:19:37.146Z</time></trkpt><trkpt lat="41.46359" lon="14.61337"><ele>631.0</ele><time>2026-04-19T09:19:38.146Z</time></trkpt><trkpt lat="41.4636883" lon="14.6132367"><ele>631.0</ele><time>2026-04-19T09:19:39.146Z</time></trkpt><trkpt lat="41.4637867" lon="14.613095"><ele>631.0</ele><time>2026-04-19T09:19:40.145Z</time></trkpt><trkpt lat="41.46389" lon="14.6129517"><ele>633.25</ele><time>2026-04-19T09:19:41.145Z</time></trkpt><trkpt lat="41.4639933" lon="14.6128117"><ele>635.5</ele><time>2026-04-19T09:19:42.146Z</time></trkpt><trkpt lat="41.46409" lon="14.61267"><ele>637.75</ele><time>2026-04-19T09:19:43.146Z</time></trkpt><trkpt lat="41.4641867" lon="14.6125367"><ele>640.0</ele><time>2026-04-19T09:19:44.146Z</time></trkpt><trkpt lat="41.4642883" lon="14.612415"><ele>640.0</ele><time>2026-04-19T09:19:45.145Z</time></trkpt><trkpt lat="41.4643967" lon="14.612315"><ele>640.0</ele><time>2026-04-19T09:19:46.146Z</time></trkpt><trkpt lat="41.4645183" lon="14.6122333"><ele>640.0</ele><time>2026-04-19T09:19:47.146Z</time></trkpt><trkpt lat="41.4646467" lon="14.6121683"><ele>640.0</ele><time>2026-04-19T09:19:48.145Z</time></trkpt><trkpt lat="41.4647783" lon="14.6121"><ele>639.0</ele><time>2026-04-19T09:19:49.146Z</time></trkpt><trkpt lat="41.4649167" lon="14.6120383"><ele>638.0</ele><time>2026-04-19T09:19:50.146Z</time></trkpt><trkpt lat="41.465055" lon="14.6119733"><ele>637.0</ele><time>2026-04-19T09:19:51.145Z</time></trkpt><trkpt lat="41.465195" lon="14.6119133"><ele>636.0</ele><time>2026-04-19T09:19:52.146Z</time></trkpt><trkpt lat="41.46533" lon="14.61185"><ele>637.25</ele><time>2026-04-19T09:19:53.146Z</time></trkpt><trkpt lat="41.4654517" lon="14.6117867"><ele>638.5</ele><time>2026-04-19T09:19:54.146Z</time></trkpt><trkpt lat="41.4655667" lon="14.6117167"><ele>639.75</ele><time>2026-04-19T09:19:55.146Z</time></trkpt><trkpt lat="41.46566" lon="14.6116167"><ele>641.0</ele><time>2026-04-19T09:19:56.146Z</time></trkpt><trkpt lat="41.4657317" lon="14.6114917"><ele>641.0</ele><time>2026-04-19T09:19:57.146Z</time></trkpt><trkpt lat="41.465795" lon="14.6113467"><ele>641.0</ele><time>2026-04-19T09:19:58.145Z</time></trkpt><trkpt lat="41.4658683" lon="14.6111983"><ele>641.0</ele><time>2026-04-19T09:19:59.145Z</time></trkpt><trkpt lat="41.4659517" lon="14.6110717"><ele>641.0</ele><time>2026-04-19T09:20:00.146Z</time></trkpt><trkpt lat="41.4660567" lon="14.61096"><ele>640.25</ele><time>2026-04-19T09:20:01.146Z</time></trkpt><trkpt lat="41.4661767" lon="14.6108533"><ele>639.5</ele><time>2026-04-19T09:20:02.145Z</time></trkpt><trkpt lat="41.4663017" lon="14.6107567"><ele>638.75</ele><time>2026-04-19T09:20:03.146Z</time></trkpt><trkpt lat="41.466415" lon="14.610655"><ele>638.0</ele><time>2026-04-19T09:20:04.145Z</time></trkpt><trkpt lat="41.4665117" lon="14.6105383"><ele>638.0</ele><time>2026-04-19T09:20:05.145Z</time></trkpt><trkpt lat="41.46659" lon="14.610405"><ele>638.0</ele><time>2026-04-19T09:20:06.146Z</time></trkpt><trkpt lat="41.46666" lon="14.6102717"><ele>638.0</ele><time>2026-04-19T09:20:07.146Z</time></trkpt><trkpt lat="41.4667367" lon="14.6101333"><ele>638.0</ele><time>2026-04-19T09:20:08.146Z</time></trkpt><trkpt lat="41.4668133" lon="14.6100183"><ele>636.8</ele><time>2026-04-19T09:20:09.146Z</time></trkpt><trkpt lat="41.4669067" lon="14.6099233"><ele>635.5999999999999</ele><time>2026-04-19T09:20:10.146Z</time></trkpt><trkpt lat="41.4670083" lon="14.60986"><ele>634.4000000000001</ele><time>2026-04-19T09:20:11.146Z</time></trkpt><trkpt lat="41.4671083" lon="14.6098233"><ele>633.2</ele><time>2026-04-19T09:20:12.146Z</time></trkpt><trkpt lat="41.4672133" lon="14.6098067"><ele>632.0</ele><time>2026-04-19T09:20:13.146Z</time></trkpt><trkpt lat="41.4673217" lon="14.6098167"><ele>632.0</ele><time>2026-04-19T09:20:14.146Z</time></trkpt><trkpt lat="41.4674383" lon="14.6098517"><ele>632.0</ele><time>2026-04-19T09:20:15.146Z</time></trkpt><trkpt lat="41.46756" lon="14.6098983"><ele>632.0</ele><time>2026-04-19T09:20:16.146Z</time></trkpt><trkpt lat="41.4676783" lon="14.6099567"><ele>632.0</ele><time>2026-04-19T09:20:17.146Z</time></trkpt><trkpt lat="41.4677983" lon="14.6100367"><ele>632.0</ele><time>2026-04-19T09:20:18.146Z</time></trkpt><trkpt lat="41.46792" lon="14.6101217"><ele>632.0</ele><time>2026-04-19T09:20:19.146Z</time></trkpt><trkpt lat="41.46804" lon="14.6102133"><ele>632.0</ele><time>2026-04-19T09:20:20.146Z</time></trkpt><trkpt lat="41.468165" lon="14.6103083"><ele>632.0</ele><time>2026-04-19T09:20:21.146Z</time></trkpt><trkpt lat="41.46829" lon="14.61039"><ele>633.75</ele><time>2026-04-19T09:20:22.146Z</time></trkpt><trkpt lat="41.468415" lon="14.6104633"><ele>635.5</ele><time>2026-04-19T09:20:23.146Z</time></trkpt><trkpt lat="41.46852" lon="14.61053"><ele>637.25</ele><time>2026-04-19T09:20:24.146Z</time></trkpt><trkpt lat="41.46862" lon="14.6105933"><ele>639.0</ele><time>2026-04-19T09:20:25.146Z</time></trkpt><trkpt lat="41.4687133" lon="14.6106133"><ele>639.0</ele><time>2026-04-19T09:20:26.146Z</time></trkpt><trkpt lat="41.4687983" lon="14.6106117"><ele>639.0</ele><time>2026-04-19T09:20:27.146Z</time></trkpt><trkpt lat="41.4688817" lon="14.6105817"><ele>639.0</ele><time>2026-04-19T09:20:28.145Z</time></trkpt><trkpt lat="41.468935" lon="14.6105017"><ele>639.0</ele><time>2026-04-19T09:20:29.146Z</time></trkpt><trkpt lat="41.46897" lon="14.6103933"><ele>639.0</ele><time>2026-04-19T09:20:30.146Z</time></trkpt><trkpt lat="41.468975" lon="14.6102717"><ele>639.0</ele><time>2026-04-19T09:20:31.146Z</time></trkpt><trkpt lat="41.4689583" lon="14.6101233"><ele>638.5</ele><time>2026-04-19T09:20:32.145Z</time></trkpt><trkpt lat="41.4689467" lon="14.60996"><ele>638.0</ele><time>2026-04-19T09:20:33.146Z</time></trkpt><trkpt lat="41.46893" lon="14.6097917"><ele>637.5</ele><time>2026-04-19T09:20:34.146Z</time></trkpt><trkpt lat="41.468915" lon="14.60962"><ele>637.0</ele><time>2026-04-19T09:20:35.146Z</time></trkpt><trkpt lat="41.4688883" lon="14.6094583"><ele>637.0</ele><time>2026-04-19T09:20:36.145Z</time></trkpt><trkpt lat="41.4688617" lon="14.6092967"><ele>637.0</ele><time>2026-04-19T09:20:37.146Z</time></trkpt><trkpt lat="41.46883" lon="14.60912"><ele>637.0</ele><time>2026-04-19T09:20:38.146Z</time></trkpt><trkpt lat="41.46879" lon="14.608945"><ele>637.0</ele><time>2026-04-19T09:20:39.146Z</time></trkpt><trkpt lat="41.46874" lon="14.6087817"><ele>636.4</ele><time>2026-04-19T09:20:40.146Z</time></trkpt><trkpt lat="41.4687033" lon="14.60863"><ele>635.8000000000001</ele><time>2026-04-19T09:20:41.145Z</time></trkpt><trkpt lat="41.46869" lon="14.6084833"><ele>635.2</ele><time>2026-04-19T09:20:42.146Z</time></trkpt><trkpt lat="41.468705" lon="14.6083417"><ele>634.6</ele><time>2026-04-19T09:20:43.146Z</time></trkpt><trkpt lat="41.4687433" lon="14.6082117"><ele>634.0</ele><time>2026-04-19T09:20:44.146Z</time></trkpt><trkpt lat="41.4687933" lon="14.6080783"><ele>634.0</ele><time>2026-04-19T09:20:45.146Z</time></trkpt><trkpt lat="41.46886" lon="14.607945"><ele>634.0</ele><time>2026-04-19T09:20:46.146Z</time></trkpt><trkpt lat="41.46893" lon="14.6078083"><ele>634.0</ele><time>2026-04-19T09:20:47.145Z</time></trkpt><trkpt lat="41.4690083" lon="14.607675"><ele>634.0</ele><time>2026-04-19T09:20:48.146Z</time></trkpt><trkpt lat="41.4691" lon="14.607545"><ele>632.0</ele><time>2026-04-19T09:20:49.145Z</time></trkpt><trkpt lat="41.469215" lon="14.60742"><ele>630.0</ele><time>2026-04-19T09:20:50.145Z</time></trkpt><trkpt lat="41.46933" lon="14.6073117"><ele>628.0</ele><time>2026-04-19T09:20:51.146Z</time></trkpt><trkpt lat="41.46945" lon="14.6072033"><ele>626.0</ele><time>2026-04-19T09:20:52.146Z</time></trkpt><trkpt lat="41.4695683" lon="14.6070967"><ele>626.0</ele><time>2026-04-19T09:20:53.145Z</time></trkpt><trkpt lat="41.46969" lon="14.6070017"><ele>626.0</ele><time>2026-04-19T09:20:54.146Z</time></trkpt><trkpt lat="41.4698117" lon="14.606925"><ele>626.0</ele><time>2026-04-19T09:20:55.146Z</time></trkpt><trkpt lat="41.4699383" lon="14.6068633"><ele>626.0</ele><time>2026-04-19T09:20:56.146Z</time></trkpt><trkpt lat="41.4700417" lon="14.6067867"><ele>626.0</ele><time>2026-04-19T09:20:57.146Z</time></trkpt><trkpt lat="41.4701333" lon="14.606705"><ele>626.0</ele><time>2026-04-19T09:20:58.146Z</time></trkpt><trkpt lat="41.4702083" lon="14.6065933"><ele>626.0</ele><time>2026-04-19T09:20:59.146Z</time></trkpt><trkpt lat="41.4702617" lon="14.6064567"><ele>626.0</ele><time>2026-04-19T09:21:00.145Z</time></trkpt><trkpt lat="41.4702867" lon="14.6062783"><ele>624.5</ele><time>2026-04-19T09:21:01.146Z</time></trkpt><trkpt lat="41.470305" lon="14.6060867"><ele>623.0</ele><time>2026-04-19T09:21:02.146Z</time></trkpt><trkpt lat="41.4703217" lon="14.6059033"><ele>621.5</ele><time>2026-04-19T09:21:03.146Z</time></trkpt><trkpt lat="41.4703183" lon="14.6057067"><ele>620.0</ele><time>2026-04-19T09:21:04.145Z</time></trkpt><trkpt lat="41.470315" lon="14.6055017"><ele>620.0</ele><time>2026-04-19T09:21:05.145Z</time></trkpt><trkpt lat="41.4703067" lon="14.6053"><ele>620.0</ele><time>2026-04-19T09:21:06.146Z</time></trkpt><trkpt lat="41.4703" lon="14.605105"><ele>620.0</ele><time>2026-04-19T09:21:07.146Z</time></trkpt><trkpt lat="41.4702983" lon="14.6049267"><ele>620.0</ele><time>2026-04-19T09:21:08.145Z</time></trkpt><trkpt lat="41.4703183" lon="14.6047683"><ele>620.0</ele><time>2026-04-19T09:21:09.146Z</time></trkpt><trkpt lat="41.4703217" lon="14.60459"><ele>620.0</ele><time>2026-04-19T09:21:10.146Z</time></trkpt><trkpt lat="41.470345" lon="14.604425"><ele>620.0</ele><time>2026-04-19T09:21:11.145Z</time></trkpt><trkpt lat="41.4703783" lon="14.604255"><ele>620.0</ele><time>2026-04-19T09:21:12.146Z</time></trkpt><trkpt lat="41.470415" lon="14.6040967"><ele>619.5</ele><time>2026-04-19T09:21:13.145Z</time></trkpt><trkpt lat="41.47043" lon="14.6039333"><ele>619.0</ele><time>2026-04-19T09:21:14.146Z</time></trkpt><trkpt lat="41.4704267" lon="14.6037683"><ele>618.5</ele><time>2026-04-19T09:21:15.146Z</time></trkpt><trkpt lat="41.4704117" lon="14.6036083"><ele>618.0</ele><time>2026-04-19T09:21:16.145Z</time></trkpt><trkpt lat="41.4704017" lon="14.60345"><ele>617.25</ele><time>2026-04-19T09:21:17.146Z</time></trkpt><trkpt lat="41.47041" lon="14.6032883"><ele>616.5</ele><time>2026-04-19T09:21:18.146Z</time></trkpt><trkpt lat="41.47044" lon="14.6031367"><ele>615.75</ele><time>2026-04-19T09:21:19.146Z</time></trkpt><trkpt lat="41.47048" lon="14.6029833"><ele>615.0</ele><time>2026-04-19T09:21:20.146Z</time></trkpt><trkpt lat="41.47051" lon="14.6028367"><ele>613.8</ele><time>2026-04-19T09:21:21.146Z</time></trkpt><trkpt lat="41.4705183" lon="14.602685"><ele>612.6</ele><time>2026-04-19T09:21:22.146Z</time></trkpt><trkpt lat="41.4704967" lon="14.6025333"><ele>611.4</ele><time>2026-04-19T09:21:23.146Z</time></trkpt><trkpt lat="41.470455" lon="14.6023933"><ele>610.2</ele><time>2026-04-19T09:21:24.145Z</time></trkpt><trkpt lat="41.470405" lon="14.60228"><ele>609.0</ele><time>2026-04-19T09:21:25.146Z</time></trkpt><trkpt lat="41.47036" lon="14.60217"><ele>609.0</ele><time>2026-04-19T09:21:26.145Z</time></trkpt><trkpt lat="41.4703433" lon="14.60205"><ele>609.0</ele><time>2026-04-19T09:21:27.146Z</time></trkpt><trkpt lat="41.47035" lon="14.6019317"><ele>609.0</ele><time>2026-04-19T09:21:28.146Z</time></trkpt><trkpt lat="41.470375" lon="14.6018183"><ele>609.0</ele><time>2026-04-19T09:21:29.146Z</time></trkpt><trkpt lat="41.47042" lon="14.60172"><ele>609.0</ele><time>2026-04-19T09:21:30.146Z</time></trkpt><trkpt lat="41.4704733" lon="14.60164"><ele>609.0</ele><time>2026-04-19T09:21:31.145Z</time></trkpt><trkpt lat="41.4705417" lon="14.6016017"><ele>610.6</ele><time>2026-04-19T09:21:32.146Z</time></trkpt><trkpt lat="41.4706117" lon="14.6016033"><ele>612.2</ele><time>2026-04-19T09:21:33.146Z</time></trkpt><trkpt lat="41.47069" lon="14.6016617"><ele>613.8000000000001</ele><time>2026-04-19T09:21:34.146Z</time></trkpt><trkpt lat="41.47077" lon="14.601735"><ele>615.4</ele><time>2026-04-19T09:21:35.146Z</time></trkpt><trkpt lat="41.4708533" lon="14.60181"><ele>617.0</ele><time>2026-04-19T09:21:36.146Z</time></trkpt><trkpt lat="41.470955" lon="14.6018733"><ele>617.0</ele><time>2026-04-19T09:21:37.145Z</time></trkpt><trkpt lat="41.4710583" lon="14.6019267"><ele>617.0</ele><time>2026-04-19T09:21:38.146Z</time></trkpt><trkpt lat="41.4711733" lon="14.601955"><ele>617.0</ele><time>2026-04-19T09:21:39.146Z</time></trkpt><trkpt lat="41.471285" lon="14.6019483"><ele>617.0</ele><time>2026-04-19T09:21:40.146Z</time></trkpt><trkpt lat="41.471405" lon="14.6019067"><ele>616.0</ele><time>2026-04-19T09:21:41.146Z</time></trkpt><trkpt lat="41.4715167" lon="14.6018667"><ele>615.0</ele><time>2026-04-19T09:21:42.146Z</time></trkpt><trkpt lat="41.4716217" lon="14.6018517"><ele>614.0</ele><time>2026-04-19T09:21:43.145Z</time></trkpt><trkpt lat="41.471715" lon="14.6018517"><ele>613.0</ele><time>2026-04-19T09:21:44.145Z</time></trkpt><trkpt lat="41.4718067" lon="14.6018817"><ele>612.0</ele><time>2026-04-19T09:21:45.145Z</time></trkpt><trkpt lat="41.4718867" lon="14.601945"><ele>613.0</ele><time>2026-04-19T09:21:46.146Z</time></trkpt><trkpt lat="41.4719533" lon="14.602035"><ele>614.0</ele><time>2026-04-19T09:21:47.146Z</time></trkpt><trkpt lat="41.4720117" lon="14.602155"><ele>615.0</ele><time>2026-04-19T09:21:48.145Z</time></trkpt><trkpt lat="41.4720633" lon="14.60229"><ele>616.0</ele><time>2026-04-19T09:21:49.146Z</time></trkpt><trkpt lat="41.4721117" lon="14.6024233"><ele>617.0</ele><time>2026-04-19T09:21:50.145Z</time></trkpt><trkpt lat="41.472165" lon="14.6025567"><ele>617.0</ele><time>2026-04-19T09:21:51.146Z</time></trkpt><trkpt lat="41.4722267" lon="14.6026633"><ele>617.0</ele><time>2026-04-19T09:21:52.146Z</time></trkpt><trkpt lat="41.4723033" lon="14.6027533"><ele>617.0</ele><time>2026-04-19T09:21:53.146Z</time></trkpt><trkpt lat="41.472385" lon="14.6028233"><ele>617.0</ele><time>2026-04-19T09:21:54.146Z</time></trkpt><trkpt lat="41.47247" lon="14.60285"><ele>617.0</ele><time>2026-04-19T09:21:55.146Z</time></trkpt><trkpt lat="41.4725517" lon="14.6028617"><ele>617.0</ele><time>2026-04-19T09:21:56.146Z</time></trkpt><trkpt lat="41.4726217" lon="14.6028333"><ele>617.0</ele><time>2026-04-19T09:21:57.146Z</time></trkpt><trkpt lat="41.4726833" lon="14.6027667"><ele>617.0</ele><time>2026-04-19T09:21:58.146Z</time></trkpt><trkpt lat="41.472735" lon="14.602665"><ele>617.0</ele><time>2026-04-19T09:21:59.145Z</time></trkpt><trkpt lat="41.4727733" lon="14.6025433"><ele>617.0</ele><time>2026-04-19T09:22:00.146Z</time></trkpt><trkpt lat="41.4728083" lon="14.6023917"><ele>617.0</ele><time>2026-04-19T09:22:01.146Z</time></trkpt><trkpt lat="41.472845" lon="14.6022333"><ele>617.0</ele><time>2026-04-19T09:22:02.145Z</time></trkpt><trkpt lat="41.47288" lon="14.60207"><ele>617.0</ele><time>2026-04-19T09:22:03.146Z</time></trkpt><trkpt lat="41.472905" lon="14.6019017"><ele>617.0</ele><time>2026-04-19T09:22:04.146Z</time></trkpt><trkpt lat="41.4729217" lon="14.601735"><ele>615.5</ele><time>2026-04-19T09:22:05.145Z</time></trkpt><trkpt lat="41.472935" lon="14.6015617"><ele>614.0</ele><time>2026-04-19T09:22:06.146Z</time></trkpt><trkpt lat="41.4729417" lon="14.601385"><ele>612.5</ele><time>2026-04-19T09:22:07.145Z</time></trkpt><trkpt lat="41.4729467" lon="14.6012067"><ele>611.0</ele><time>2026-04-19T09:22:08.146Z</time></trkpt><trkpt lat="41.4729683" lon="14.60103"><ele>614.0</ele><time>2026-04-19T09:22:09.145Z</time></trkpt><trkpt lat="41.473" lon="14.600855"><ele>617.0</ele><time>2026-04-19T09:22:10.146Z</time></trkpt><trkpt lat="41.473035" lon="14.600685"><ele>620.0</ele><time>2026-04-19T09:22:11.146Z</time></trkpt><trkpt lat="41.473065" lon="14.6005133"><ele>623.0</ele><time>2026-04-19T09:22:12.146Z</time></trkpt><trkpt lat="41.4730733" lon="14.6003333"><ele>622.25</ele><time>2026-04-19T09:22:13.146Z</time></trkpt><trkpt lat="41.4730517" lon="14.6001567"><ele>621.5</ele><time>2026-04-19T09:22:14.145Z</time></trkpt><trkpt lat="41.4730267" lon="14.599985"><ele>620.75</ele><time>2026-04-19T09:22:15.146Z</time></trkpt><trkpt lat="41.4730117" lon="14.599795"><ele>620.0</ele><time>2026-04-19T09:22:16.146Z</time></trkpt><trkpt lat="41.4729983" lon="14.5995717"><ele>620.25</ele><time>2026-04-19T09:22:17.146Z</time></trkpt><trkpt lat="41.4730117" lon="14.59938"><ele>620.5</ele><time>2026-04-19T09:22:18.145Z</time></trkpt><trkpt lat="41.4730267" lon="14.5991917"><ele>620.75</ele><time>2026-04-19T09:22:19.146Z</time></trkpt><trkpt lat="41.473035" lon="14.5990067"><ele>621.0</ele><time>2026-04-19T09:22:20.146Z</time></trkpt><trkpt lat="41.473055" lon="14.5988283"><ele>619.75</ele><time>2026-04-19T09:22:21.145Z</time></trkpt><trkpt lat="41.4730783" lon="14.5986567"><ele>618.5</ele><time>2026-04-19T09:22:22.145Z</time></trkpt><trkpt lat="41.4731183" lon="14.598495"><ele>617.25</ele><time>2026-04-19T09:22:23.146Z</time></trkpt><trkpt lat="41.4731717" lon="14.598335"><ele>616.0</ele><time>2026-04-19T09:22:24.145Z</time></trkpt><trkpt lat="41.4732367" lon="14.598175"><ele>616.0</ele><time>2026-04-19T09:22:25.145Z</time></trkpt><trkpt lat="41.4733083" lon="14.5980167"><ele>616.0</ele><time>2026-04-19T09:22:26.146Z</time></trkpt><trkpt lat="41.4733883" lon="14.5978517"><ele>616.0</ele><time>2026-04-19T09:22:27.146Z</time></trkpt><trkpt lat="41.4734617" lon="14.5976933"><ele>616.0</ele><time>2026-04-19T09:22:28.146Z</time></trkpt><trkpt lat="41.4735283" lon="14.5975383"><ele>617.0</ele><time>2026-04-19T09:22:29.146Z</time></trkpt><trkpt lat="41.4736" lon="14.5973867"><ele>618.0</ele><time>2026-04-19T09:22:30.145Z</time></trkpt><trkpt lat="41.4736867" lon="14.59724"><ele>619.0</ele><time>2026-04-19T09:22:31.145Z</time></trkpt><trkpt lat="41.47379" lon="14.5971133"><ele>620.0</ele><time>2026-04-19T09:22:32.145Z</time></trkpt><trkpt lat="41.4738933" lon="14.5970067"><ele>618.0</ele><time>2026-04-19T09:22:33.146Z</time></trkpt><trkpt lat="41.4739983" lon="14.5969117"><ele>616.0</ele><time>2026-04-19T09:22:34.146Z</time></trkpt><trkpt lat="41.4741" lon="14.5968183"><ele>614.0</ele><time>2026-04-19T09:22:35.146Z</time></trkpt><trkpt lat="41.47419" lon="14.59673"><ele>612.0</ele><time>2026-04-19T09:22:36.146Z</time></trkpt><trkpt lat="41.4742567" lon="14.5966317"><ele>612.0</ele><time>2026-04-19T09:22:37.145Z</time></trkpt><trkpt lat="41.4743033" lon="14.596515"><ele>612.0</ele><time>2026-04-19T09:22:38.146Z</time></trkpt><trkpt lat="41.4743167" lon="14.596395"><ele>612.0</ele><time>2026-04-19T09:22:39.146Z</time></trkpt><trkpt lat="41.4742933" lon="14.5962633"><ele>612.0</ele><time>2026-04-19T09:22:40.145Z</time></trkpt><trkpt lat="41.47425" lon="14.5961383"><ele>612.0</ele><time>2026-04-19T09:22:41.146Z</time></trkpt><trkpt lat="41.4741933" lon="14.5960067"><ele>611.6</ele><time>2026-04-19T09:22:42.146Z</time></trkpt><trkpt lat="41.474145" lon="14.5958583"><ele>611.2</ele><time>2026-04-19T09:22:43.146Z</time></trkpt><trkpt lat="41.4741233" lon="14.5957233"><ele>610.8</ele><time>2026-04-19T09:22:44.146Z</time></trkpt><trkpt lat="41.4741317" lon="14.5955867"><ele>610.4</ele><time>2026-04-19T09:22:45.145Z</time></trkpt><trkpt lat="41.47418" lon="14.5954717"><ele>610.0</ele><time>2026-04-19T09:22:46.145Z</time></trkpt><trkpt lat="41.4742483" lon="14.5953633"><ele>609.0</ele><time>2026-04-19T09:22:47.146Z</time></trkpt><trkpt lat="41.4743333" lon="14.59525"><ele>608.0</ele><time>2026-04-19T09:22:48.146Z</time></trkpt><trkpt lat="41.4744267" lon="14.5951283"><ele>607.0</ele><time>2026-04-19T09:22:49.146Z</time></trkpt><trkpt lat="41.4745283" lon="14.595"><ele>606.0</ele><time>2026-04-19T09:22:50.146Z</time></trkpt><trkpt lat="41.4746317" lon="14.5948733"><ele>605.0</ele><time>2026-04-19T09:22:51.146Z</time></trkpt><trkpt lat="41.474735" lon="14.5947467"><ele>604.0</ele><time>2026-04-19T09:22:52.145Z</time></trkpt><trkpt lat="41.4748383" lon="14.5946167"><ele>603.0</ele><time>2026-04-19T09:22:53.146Z</time></trkpt><trkpt lat="41.4749367" lon="14.5944917"><ele>602.0</ele><time>2026-04-19T09:22:54.146Z</time></trkpt><trkpt lat="41.4750433" lon="14.5943783"><ele>602.0</ele><time>2026-04-19T09:22:55.146Z</time></trkpt><trkpt lat="41.4751417" lon="14.59428"><ele>602.0</ele><time>2026-04-19T09:22:56.146Z</time></trkpt><trkpt lat="41.4752383" lon="14.59419"><ele>602.0</ele><time>2026-04-19T09:22:57.146Z</time></trkpt><trkpt lat="41.4753283" lon="14.594095"><ele>602.0</ele><time>2026-04-19T09:22:58.146Z</time></trkpt><trkpt lat="41.4754183" lon="14.5940133"><ele>603.0</ele><time>2026-04-19T09:22:59.145Z</time></trkpt><trkpt lat="41.4755167" lon="14.5939567"><ele>604.0</ele><time>2026-04-19T09:23:00.145Z</time></trkpt><trkpt lat="41.4756133" lon="14.59393"><ele>605.0</ele><time>2026-04-19T09:23:01.146Z</time></trkpt><trkpt lat="41.4757167" lon="14.5939217"><ele>606.0</ele><time>2026-04-19T09:23:02.145Z</time></trkpt><trkpt lat="41.4758367" lon="14.59393"><ele>607.0</ele><time>2026-04-19T09:23:03.146Z</time></trkpt><trkpt lat="41.4759717" lon="14.5939433"><ele>607.0</ele><time>2026-04-19T09:23:04.145Z</time></trkpt><trkpt lat="41.4761067" lon="14.5939483"><ele>607.0</ele><time>2026-04-19T09:23:05.145Z</time></trkpt><trkpt lat="41.476245" lon="14.593965"><ele>607.0</ele><time>2026-04-19T09:23:06.146Z</time></trkpt><trkpt lat="41.4763833" lon="14.593975"><ele>607.0</ele><time>2026-04-19T09:23:07.146Z</time></trkpt><trkpt lat="41.47652" lon="14.593985"><ele>607.0</ele><time>2026-04-19T09:23:08.146Z</time></trkpt><trkpt lat="41.4766533" lon="14.593995"><ele>607.0</ele><time>2026-04-19T09:23:09.145Z</time></trkpt><trkpt lat="41.4767733" lon="14.5940033"><ele>607.0</ele><time>2026-04-19T09:23:10.146Z</time></trkpt><trkpt lat="41.4768833" lon="14.5939983"><ele>607.0</ele><time>2026-04-19T09:23:11.146Z</time></trkpt><trkpt lat="41.476985" lon="14.5939733"><ele>607.0</ele><time>2026-04-19T09:23:12.146Z</time></trkpt><trkpt lat="41.4770667" lon="14.5939117"><ele>607.0</ele><time>2026-04-19T09:23:13.146Z</time></trkpt><trkpt lat="41.4771267" lon="14.5938217"><ele>607.0</ele><time>2026-04-19T09:23:14.145Z</time></trkpt><trkpt lat="41.477165" lon="14.5937067"><ele>607.0</ele><time>2026-04-19T09:23:15.146Z</time></trkpt><trkpt lat="41.4771817" lon="14.5935733"><ele>607.0</ele><time>2026-04-19T09:23:16.146Z</time></trkpt><trkpt lat="41.4771817" lon="14.5934217"><ele>607.5</ele><time>2026-04-19T09:23:17.146Z</time></trkpt><trkpt lat="41.4771617" lon="14.5932683"><ele>608.0</ele><time>2026-04-19T09:23:18.146Z</time></trkpt><trkpt lat="41.4771367" lon="14.5931033"><ele>608.5</ele><time>2026-04-19T09:23:19.146Z</time></trkpt><trkpt lat="41.4771067" lon="14.59294"><ele>609.0</ele><time>2026-04-19T09:23:20.145Z</time></trkpt><trkpt lat="41.4770717" lon="14.5927833"><ele>606.4</ele><time>2026-04-19T09:23:21.146Z</time></trkpt><trkpt lat="41.4770467" lon="14.59263"><ele>603.8</ele><time>2026-04-19T09:23:22.145Z</time></trkpt><trkpt lat="41.4770167" lon="14.592485"><ele>601.2</ele><time>2026-04-19T09:23:23.145Z</time></trkpt><trkpt lat="41.4769933" lon="14.5923367"><ele>598.6</ele><time>2026-04-19T09:23:24.145Z</time></trkpt><trkpt lat="41.4769733" lon="14.5921983"><ele>596.0</ele><time>2026-04-19T09:23:25.145Z</time></trkpt><trkpt lat="41.47698" lon="14.5920633"><ele>595.4</ele><time>2026-04-19T09:23:26.145Z</time></trkpt><trkpt lat="41.47701" lon="14.5919283"><ele>594.8</ele><time>2026-04-19T09:23:27.146Z</time></trkpt><trkpt lat="41.47706" lon="14.5918067"><ele>594.1999999999999</ele><time>2026-04-19T09:23:28.146Z</time></trkpt><trkpt lat="41.4771333" lon="14.5917133"><ele>593.6</ele><time>2026-04-19T09:23:29.146Z</time></trkpt><trkpt lat="41.4772267" lon="14.5916567"><ele>593.0</ele><time>2026-04-19T09:23:30.146Z</time></trkpt><trkpt lat="41.4773283" lon="14.591635"><ele>595.1999999999999</ele><time>2026-04-19T09:23:31.146Z</time></trkpt><trkpt lat="41.4774233" lon="14.59161"><ele>597.4</ele><time>2026-04-19T09:23:32.145Z</time></trkpt><trkpt lat="41.4775067" lon="14.59156"><ele>599.5999999999999</ele><time>2026-04-19T09:23:33.146Z</time></trkpt><trkpt lat="41.4775633" lon="14.5914717"><ele>601.8</ele><time>2026-04-19T09:23:34.145Z</time></trkpt><trkpt lat="41.47758" lon="14.5913617"><ele>604.0</ele><time>2026-04-19T09:23:35.146Z</time></trkpt><trkpt lat="41.47758" lon="14.5912367"><ele>603.6</ele><time>2026-04-19T09:23:36.146Z</time></trkpt><trkpt lat="41.4775617" lon="14.591125"><ele>603.2</ele><time>2026-04-19T09:23:37.146Z</time></trkpt><trkpt lat="41.4775117" lon="14.5910183"><ele>602.8000000000001</ele><time>2026-04-19T09:23:38.145Z</time></trkpt><trkpt lat="41.47743" lon="14.590905"><ele>602.4</ele><time>2026-04-19T09:23:39.146Z</time></trkpt><trkpt lat="41.4773533" lon="14.5907833"><ele>602.0</ele><time>2026-04-19T09:23:40.146Z</time></trkpt><trkpt lat="41.477295" lon="14.5906617"><ele>602.0</ele><time>2026-04-19T09:23:41.146Z</time></trkpt><trkpt lat="41.47726" lon="14.5905233"><ele>602.0</ele><time>2026-04-19T09:23:42.146Z</time></trkpt><trkpt lat="41.477245" lon="14.5903783"><ele>602.0</ele><time>2026-04-19T09:23:43.146Z</time></trkpt><trkpt lat="41.4772533" lon="14.5902283"><ele>602.0</ele><time>2026-04-19T09:23:44.145Z</time></trkpt><trkpt lat="41.4772667" lon="14.5900833"><ele>602.0</ele><time>2026-04-19T09:23:45.146Z</time></trkpt><trkpt lat="41.4772983" lon="14.589945"><ele>601.25</ele><time>2026-04-19T09:23:46.145Z</time></trkpt><trkpt lat="41.477355" lon="14.5898117"><ele>600.5</ele><time>2026-04-19T09:23:47.146Z</time></trkpt><trkpt lat="41.4774367" lon="14.5896867"><ele>599.75</ele><time>2026-04-19T09:23:48.146Z</time></trkpt><trkpt lat="41.47753" lon="14.5895767"><ele>599.0</ele><time>2026-04-19T09:23:49.146Z</time></trkpt><trkpt lat="41.477625" lon="14.5894683"><ele>600.0</ele><time>2026-04-19T09:23:50.145Z</time></trkpt><trkpt lat="41.477725" lon="14.589365"><ele>601.0</ele><time>2026-04-19T09:23:51.146Z</time></trkpt><trkpt lat="41.47783" lon="14.5892733"><ele>602.0</ele><time>2026-04-19T09:23:52.145Z</time></trkpt><trkpt lat="41.4779283" lon="14.5891817"><ele>603.0</ele><time>2026-04-19T09:23:53.146Z</time></trkpt><trkpt lat="41.4780233" lon="14.5890883"><ele>603.0</ele><time>2026-04-19T09:23:54.145Z</time></trkpt><trkpt lat="41.47812" lon="14.588995"><ele>603.0</ele><time>2026-04-19T09:23:55.146Z</time></trkpt><trkpt lat="41.4782183" lon="14.5889083"><ele>603.0</ele><time>2026-04-19T09:23:56.146Z</time></trkpt><trkpt lat="41.4783133" lon="14.58883"><ele>603.0</ele><time>2026-04-19T09:23:57.145Z</time></trkpt><trkpt lat="41.478415" lon="14.5887483"><ele>601.75</ele><time>2026-04-19T09:23:58.146Z</time></trkpt><trkpt lat="41.4785183" lon="14.5886733"><ele>600.5</ele><time>2026-04-19T09:23:59.145Z</time></trkpt><trkpt lat="41.4786233" lon="14.5886117"><ele>599.25</ele><time>2026-04-19T09:24:00.146Z</time></trkpt><trkpt lat="41.4787333" lon="14.5885583"><ele>598.0</ele><time>2026-04-19T09:24:01.146Z</time></trkpt><trkpt lat="41.4788417" lon="14.5884983"><ele>598.0</ele><time>2026-04-19T09:24:02.146Z</time></trkpt><trkpt lat="41.4789583" lon="14.5884483"><ele>598.0</ele><time>2026-04-19T09:24:03.146Z</time></trkpt><trkpt lat="41.4790817" lon="14.588395"><ele>598.0</ele><time>2026-04-19T09:24:04.145Z</time></trkpt><trkpt lat="41.4792067" lon="14.5883633"><ele>598.0</ele><time>2026-04-19T09:24:05.145Z</time></trkpt><trkpt lat="41.4793317" lon="14.5883483"><ele>598.0</ele><time>2026-04-19T09:24:06.146Z</time></trkpt><trkpt lat="41.4794533" lon="14.588345"><ele>598.0</ele><time>2026-04-19T09:24:07.146Z</time></trkpt><trkpt lat="41.4795733" lon="14.588345"><ele>598.0</ele><time>2026-04-19T09:24:08.145Z</time></trkpt><trkpt lat="41.4796883" lon="14.5883433"><ele>598.0</ele><time>2026-04-19T09:24:09.145Z</time></trkpt><trkpt lat="41.4798017" lon="14.58835"><ele>598.4</ele><time>2026-04-19T09:24:10.146Z</time></trkpt><trkpt lat="41.4799083" lon="14.5883617"><ele>598.8</ele><time>2026-04-19T09:24:11.145Z</time></trkpt><trkpt lat="41.48001" lon="14.5883783"><ele>599.2</ele><time>2026-04-19T09:24:12.146Z</time></trkpt><trkpt lat="41.480105" lon="14.588405"><ele>599.6</ele><time>2026-04-19T09:24:13.145Z</time></trkpt><trkpt lat="41.480195" lon="14.5884267"><ele>600.0</ele><time>2026-04-19T09:24:14.146Z</time></trkpt><trkpt lat="41.4802683" lon="14.5884383"><ele>600.0</ele><time>2026-04-19T09:24:15.146Z</time></trkpt><trkpt lat="41.4803433" lon="14.588425"><ele>600.0</ele><time>2026-04-19T09:24:16.146Z</time></trkpt><trkpt lat="41.4804017" lon="14.5883767"><ele>600.0</ele><time>2026-04-19T09:24:17.146Z</time></trkpt><trkpt lat="41.480435" lon="14.5882667"><ele>600.0</ele><time>2026-04-19T09:24:18.146Z</time></trkpt><trkpt lat="41.4804467" lon="14.5881433"><ele>600.0</ele><time>2026-04-19T09:24:19.146Z</time></trkpt><trkpt lat="41.48045" lon="14.5880083"><ele>600.0</ele><time>2026-04-19T09:24:20.146Z</time></trkpt><trkpt lat="41.48045" lon="14.58786"><ele>600.8</ele><time>2026-04-19T09:24:21.145Z</time></trkpt><trkpt lat="41.4804383" lon="14.5877083"><ele>601.6</ele><time>2026-04-19T09:24:22.146Z</time></trkpt><trkpt lat="41.4804333" lon="14.5875617"><ele>602.4</ele><time>2026-04-19T09:24:23.145Z</time></trkpt><trkpt lat="41.4804367" lon="14.5874233"><ele>603.2</ele><time>2026-04-19T09:24:24.145Z</time></trkpt><trkpt lat="41.4804467" lon="14.5872967"><ele>604.0</ele><time>2026-04-19T09:24:25.146Z</time></trkpt><trkpt lat="41.4804717" lon="14.58718"><ele>604.0</ele><time>2026-04-19T09:24:26.146Z</time></trkpt><trkpt lat="41.4805133" lon="14.5870767"><ele>604.0</ele><time>2026-04-19T09:24:27.146Z</time></trkpt><trkpt lat="41.4805767" lon="14.5869983"><ele>604.0</ele><time>2026-04-19T09:24:28.146Z</time></trkpt><trkpt lat="41.4806583" lon="14.5869317"><ele>604.0</ele><time>2026-04-19T09:24:29.146Z</time></trkpt><trkpt lat="41.48075" lon="14.5868983"><ele>604.0</ele><time>2026-04-19T09:24:30.145Z</time></trkpt><trkpt lat="41.4808433" lon="14.586875"><ele>604.2</ele><time>2026-04-19T09:24:31.145Z</time></trkpt><trkpt lat="41.4809317" lon="14.586855"><ele>604.4</ele><time>2026-04-19T09:24:32.146Z</time></trkpt><trkpt lat="41.4810267" lon="14.586835"><ele>604.6</ele><time>2026-04-19T09:24:33.146Z</time></trkpt><trkpt lat="41.4811267" lon="14.5868083"><ele>604.8</ele><time>2026-04-19T09:24:34.146Z</time></trkpt><trkpt lat="41.4812267" lon="14.58678"><ele>605.0</ele><time>2026-04-19T09:24:35.145Z</time></trkpt><trkpt lat="41.48132" lon="14.58675"><ele>605.0</ele><time>2026-04-19T09:24:36.146Z</time></trkpt><trkpt lat="41.4814117" lon="14.586725"><ele>605.0</ele><time>2026-04-19T09:24:37.146Z</time></trkpt><trkpt lat="41.481505" lon="14.5867017"><ele>605.0</ele><time>2026-04-19T09:24:38.145Z</time></trkpt><trkpt lat="41.4815983" lon="14.5866767"><ele>605.0</ele><time>2026-04-19T09:24:39.146Z</time></trkpt><trkpt lat="41.481695" lon="14.586655"><ele>605.0</ele><time>2026-04-19T09:24:40.146Z</time></trkpt><trkpt lat="41.4817917" lon="14.58665"><ele>605.0</ele><time>2026-04-19T09:24:41.145Z</time></trkpt><trkpt lat="41.48189" lon="14.586655"><ele>605.0</ele><time>2026-04-19T09:24:42.145Z</time></trkpt><trkpt lat="41.4819817" lon="14.5866767"><ele>605.0</ele><time>2026-04-19T09:24:43.146Z</time></trkpt><trkpt lat="41.48207" lon="14.5867183"><ele>605.0</ele><time>2026-04-19T09:24:44.146Z</time></trkpt><trkpt lat="41.4821533" lon="14.5867633"><ele>605.0</ele><time>2026-04-19T09:24:45.146Z</time></trkpt><trkpt lat="41.482225" lon="14.5868117"><ele>605.3333333333333</ele><time>2026-04-19T09:24:46.146Z</time></trkpt><trkpt lat="41.4822917" lon="14.5868467"><ele>605.6666666666666</ele><time>2026-04-19T09:24:47.146Z</time></trkpt><trkpt lat="41.4823567" lon="14.58689"><ele>606.0</ele><time>2026-04-19T09:24:48.146Z</time></trkpt><trkpt lat="41.4824167" lon="14.5869217"><ele>606.3333333333334</ele><time>2026-04-19T09:24:49.146Z</time></trkpt><trkpt lat="41.482505" lon="14.586955"><ele>606.6666666666667</ele><time>2026-04-19T09:24:51.146Z</time></trkpt><trkpt lat="41.4825667" lon="14.5869083"><ele>607.0</ele><time>2026-04-19T09:24:54.146Z</time></trkpt><trkpt lat="41.4825133" lon="14.586655"><ele>607.0</ele><time>2026-04-19T09:27:16.148Z</time></trkpt><trkpt lat="41.4825067" lon="14.58654"><ele>607.0</ele><time>2026-04-19T09:27:18.147Z</time></trkpt><trkpt lat="41.482505" lon="14.586405"><ele>607.0</ele><time>2026-04-19T09:27:20.148Z</time></trkpt><trkpt lat="41.48245" lon="14.5862733"><ele>607.0</ele><time>2026-04-19T09:27:22.148Z</time></trkpt><trkpt lat="41.4823517" lon="14.5862033"><ele>607.0</ele><time>2026-04-19T09:27:24.148Z</time></trkpt><trkpt lat="41.4822283" lon="14.5861867"><ele>607.0</ele><time>2026-04-19T09:27:26.147Z</time></trkpt><trkpt lat="41.482155" lon="14.5861783"><ele>607.0</ele><time>2026-04-19T09:27:27.147Z</time></trkpt><trkpt lat="41.48207" lon="14.5861667"><ele>607.0</ele><time>2026-04-19T09:27:28.148Z</time></trkpt><trkpt lat="41.4819817" lon="14.586155"><ele>607.0</ele><time>2026-04-19T09:27:29.148Z</time></trkpt><trkpt lat="41.4818917" lon="14.5861433"><ele>607.0</ele><time>2026-04-19T09:27:30.147Z</time></trkpt><trkpt lat="41.481795" lon="14.5861333"><ele>607.0</ele><time>2026-04-19T09:27:31.148Z</time></trkpt><trkpt lat="41.481705" lon="14.586125"><ele>605.8333333333334</ele><time>2026-04-19T09:27:32.148Z</time></trkpt><trkpt lat="41.4816217" lon="14.5861083"><ele>604.6666666666667</ele><time>2026-04-19T09:27:33.148Z</time></trkpt><trkpt lat="41.4815383" lon="14.58609"><ele>603.5</ele><time>2026-04-19T09:27:34.148Z</time></trkpt><trkpt lat="41.481465" lon="14.5860617"><ele>602.3333333333334</ele><time>2026-04-19T09:27:35.148Z</time></trkpt><trkpt lat="41.4813917" lon="14.5860433"><ele>601.1666666666666</ele><time>2026-04-19T09:27:36.148Z</time></trkpt><trkpt lat="41.4813267" lon="14.586015"><ele>600.0</ele><time>2026-04-19T09:27:37.148Z</time></trkpt><trkpt lat="41.481235" lon="14.58592"><ele>599.0</ele><time>2026-04-19T09:27:39.148Z</time></trkpt><trkpt lat="41.4811667" lon="14.5858"><ele>598.0</ele><time>2026-04-19T09:27:41.148Z</time></trkpt><trkpt lat="41.4811333" lon="14.5857283"><ele>597.0</ele><time>2026-04-19T09:27:42.148Z</time></trkpt><trkpt lat="41.4810967" lon="14.585635"><ele>596.0</ele><time>2026-04-19T09:27:43.148Z</time></trkpt><trkpt lat="41.48106" lon="14.5855167"><ele>595.0</ele><time>2026-04-19T09:27:44.148Z</time></trkpt><trkpt lat="41.4810233" lon="14.5853933"><ele>594.6</ele><time>2026-04-19T09:27:45.148Z</time></trkpt><trkpt lat="41.4809867" lon="14.58526"><ele>594.2</ele><time>2026-04-19T09:27:46.147Z</time></trkpt><trkpt lat="41.48095" lon="14.58512"><ele>593.8</ele><time>2026-04-19T09:27:47.147Z</time></trkpt><trkpt lat="41.4809117" lon="14.5849767"><ele>593.4</ele><time>2026-04-19T09:27:48.148Z</time></trkpt><trkpt lat="41.4808717" lon="14.5848317"><ele>593.0</ele><time>2026-04-19T09:27:49.147Z</time></trkpt><trkpt lat="41.4808267" lon="14.5846733"><ele>593.0</ele><time>2026-04-19T09:27:50.148Z</time></trkpt><trkpt lat="41.4807817" lon="14.5845117"><ele>593.0</ele><time>2026-04-19T09:27:51.148Z</time></trkpt><trkpt lat="41.4807367" lon="14.5843367"><ele>593.0</ele><time>2026-04-19T09:27:52.148Z</time></trkpt><trkpt lat="41.4806883" lon="14.5841633"><ele>593.0</ele><time>2026-04-19T09:27:53.148Z</time></trkpt><trkpt lat="41.48064" lon="14.58398"><ele>593.0</ele><time>2026-04-19T09:27:54.148Z</time></trkpt><trkpt lat="41.4805867" lon="14.5837933"><ele>593.0</ele><time>2026-04-19T09:27:55.148Z</time></trkpt><trkpt lat="41.4805367" lon="14.5836083"><ele>593.0</ele><time>2026-04-19T09:27:56.148Z</time></trkpt><trkpt lat="41.4804867" lon="14.5834267"><ele>593.0</ele><time>2026-04-19T09:27:57.147Z</time></trkpt><trkpt lat="41.480445" lon="14.58325"><ele>592.75</ele><time>2026-04-19T09:27:58.148Z</time></trkpt><trkpt lat="41.4804" lon="14.5830767"><ele>592.5</ele><time>2026-04-19T09:27:59.148Z</time></trkpt><trkpt lat="41.4803517" lon="14.5829067"><ele>592.25</ele><time>2026-04-19T09:28:00.147Z</time></trkpt><trkpt lat="41.4803067" lon="14.58273"><ele>592.0</ele><time>2026-04-19T09:28:01.148Z</time></trkpt><trkpt lat="41.480255" lon="14.5825667"><ele>591.75</ele><time>2026-04-19T09:28:02.148Z</time></trkpt><trkpt lat="41.4802083" lon="14.582395"><ele>591.5</ele><time>2026-04-19T09:28:03.148Z</time></trkpt><trkpt lat="41.4801617" lon="14.58222"><ele>591.25</ele><time>2026-04-19T09:28:04.148Z</time></trkpt><trkpt lat="41.480115" lon="14.5820417"><ele>591.0</ele><time>2026-04-19T09:28:05.148Z</time></trkpt><trkpt lat="41.4800667" lon="14.58187"><ele>590.25</ele><time>2026-04-19T09:28:06.147Z</time></trkpt><trkpt lat="41.4800167" lon="14.5816933"><ele>589.5</ele><time>2026-04-19T09:28:07.148Z</time></trkpt><trkpt lat="41.4799667" lon="14.58152"><ele>588.75</ele><time>2026-04-19T09:28:08.148Z</time></trkpt><trkpt lat="41.47992" lon="14.58134"><ele>588.0</ele><time>2026-04-19T09:28:09.148Z</time></trkpt><trkpt lat="41.4798717" lon="14.5811667"><ele>587.75</ele><time>2026-04-19T09:28:10.147Z</time></trkpt><trkpt lat="41.4798167" lon="14.5809917"><ele>587.5</ele><time>2026-04-19T09:28:11.148Z</time></trkpt><trkpt lat="41.4797633" lon="14.5808117"><ele>587.25</ele><time>2026-04-19T09:28:12.148Z</time></trkpt><trkpt lat="41.4797133" lon="14.58062"><ele>587.0</ele><time>2026-04-19T09:28:13.148Z</time></trkpt><trkpt lat="41.479665" lon="14.58043"><ele>587.3333333333333</ele><time>2026-04-19T09:28:14.148Z</time></trkpt><trkpt lat="41.479615" lon="14.5802383"><ele>587.6666666666666</ele><time>2026-04-19T09:28:15.147Z</time></trkpt><trkpt lat="41.4795683" lon="14.5800483"><ele>588.0</ele><time>2026-04-19T09:28:16.148Z</time></trkpt><trkpt lat="41.47952" lon="14.579855"><ele>588.0</ele><time>2026-04-19T09:28:17.148Z</time></trkpt><trkpt lat="41.47947" lon="14.5796683"><ele>588.0</ele><time>2026-04-19T09:28:18.148Z</time></trkpt><trkpt lat="41.4794167" lon="14.5794833"><ele>588.0</ele><time>2026-04-19T09:28:19.147Z</time></trkpt><trkpt lat="41.4793633" lon="14.579295"><ele>588.0</ele><time>2026-04-19T09:28:20.147Z</time></trkpt><trkpt lat="41.4793083" lon="14.5791167"><ele>588.0</ele><time>2026-04-19T09:28:21.147Z</time></trkpt><trkpt lat="41.4792567" lon="14.5789433"><ele>588.0</ele><time>2026-04-19T09:28:22.148Z</time></trkpt><trkpt lat="41.4792033" lon="14.5787867"><ele>588.0</ele><time>2026-04-19T09:28:23.148Z</time></trkpt><trkpt lat="41.4791483" lon="14.57863"><ele>588.0</ele><time>2026-04-19T09:28:24.147Z</time></trkpt><trkpt lat="41.4790933" lon="14.5784733"><ele>587.75</ele><time>2026-04-19T09:28:25.147Z</time></trkpt><trkpt lat="41.4790333" lon="14.5783167"><ele>587.5</ele><time>2026-04-19T09:28:26.148Z</time></trkpt><trkpt lat="41.4789733" lon="14.5781517"><ele>587.25</ele><time>2026-04-19T09:28:27.147Z</time></trkpt><trkpt lat="41.4789117" lon="14.57799"><ele>587.0</ele><time>2026-04-19T09:28:28.147Z</time></trkpt><trkpt lat="41.47885" lon="14.57783"><ele>586.0</ele><time>2026-04-19T09:28:29.147Z</time></trkpt><trkpt lat="41.4787883" lon="14.5776717"><ele>585.0</ele><time>2026-04-19T09:28:30.148Z</time></trkpt><trkpt lat="41.4787183" lon="14.5775133"><ele>584.0</ele><time>2026-04-19T09:28:31.148Z</time></trkpt><trkpt lat="41.47865" lon="14.577355"><ele>583.0</ele><time>2026-04-19T09:28:32.147Z</time></trkpt><trkpt lat="41.4785817" lon="14.5771967"><ele>582.75</ele><time>2026-04-19T09:28:33.148Z</time></trkpt><trkpt lat="41.4785117" lon="14.57704"><ele>582.5</ele><time>2026-04-19T09:28:34.148Z</time></trkpt><trkpt lat="41.47844" lon="14.5768867"><ele>582.25</ele><time>2026-04-19T09:28:35.147Z</time></trkpt><trkpt lat="41.47837" lon="14.576725"><ele>582.0</ele><time>2026-04-19T09:28:36.148Z</time></trkpt><trkpt lat="41.4783017" lon="14.5765667"><ele>582.5</ele><time>2026-04-19T09:28:37.148Z</time></trkpt><trkpt lat="41.47823" lon="14.5764133"><ele>583.0</ele><time>2026-04-19T09:28:38.148Z</time></trkpt><trkpt lat="41.4781583" lon="14.57625"><ele>583.5</ele><time>2026-04-19T09:28:39.148Z</time></trkpt><trkpt lat="41.47809" lon="14.576085"><ele>584.0</ele><time>2026-04-19T09:28:40.147Z</time></trkpt><trkpt lat="41.47802" lon="14.57593"><ele>584.0</ele><time>2026-04-19T09:28:41.148Z</time></trkpt><trkpt lat="41.47795" lon="14.5757733"><ele>584.0</ele><time>2026-04-19T09:28:42.148Z</time></trkpt><trkpt lat="41.4778883" lon="14.575615"><ele>584.0</ele><time>2026-04-19T09:28:43.147Z</time></trkpt><trkpt lat="41.47782" lon="14.5754567"><ele>584.0</ele><time>2026-04-19T09:28:44.148Z</time></trkpt><trkpt lat="41.4777517" lon="14.5753"><ele>583.5</ele><time>2026-04-19T09:28:45.148Z</time></trkpt><trkpt lat="41.4776817" lon="14.5751417"><ele>583.0</ele><time>2026-04-19T09:28:46.148Z</time></trkpt><trkpt lat="41.4776117" lon="14.5749767"><ele>582.5</ele><time>2026-04-19T09:28:47.148Z</time></trkpt><trkpt lat="41.4775417" lon="14.5748167"><ele>582.0</ele><time>2026-04-19T09:28:48.147Z</time></trkpt><trkpt lat="41.4774733" lon="14.5746483"><ele>581.75</ele><time>2026-04-19T09:28:49.147Z</time></trkpt><trkpt lat="41.4774017" lon="14.5744817"><ele>581.5</ele><time>2026-04-19T09:28:50.148Z</time></trkpt><trkpt lat="41.4773267" lon="14.5743117"><ele>581.25</ele><time>2026-04-19T09:28:51.148Z</time></trkpt><trkpt lat="41.477255" lon="14.5741383"><ele>581.0</ele><time>2026-04-19T09:28:52.148Z</time></trkpt><trkpt lat="41.4771783" lon="14.5739667"><ele>580.3333333333333</ele><time>2026-04-19T09:28:53.148Z</time></trkpt><trkpt lat="41.4771017" lon="14.573795"><ele>579.6666666666666</ele><time>2026-04-19T09:28:54.148Z</time></trkpt><trkpt lat="41.477025" lon="14.5736217"><ele>579.0</ele><time>2026-04-19T09:28:55.148Z</time></trkpt><trkpt lat="41.4769483" lon="14.573445"><ele>578.6666666666666</ele><time>2026-04-19T09:28:56.147Z</time></trkpt><trkpt lat="41.47687" lon="14.573265"><ele>578.3333333333333</ele><time>2026-04-19T09:28:57.147Z</time></trkpt><trkpt lat="41.4767917" lon="14.5730867"><ele>578.0</ele><time>2026-04-19T09:28:58.147Z</time></trkpt><trkpt lat="41.4767117" lon="14.572905"><ele>576.6666666666666</ele><time>2026-04-19T09:28:59.148Z</time></trkpt><trkpt lat="41.4766383" lon="14.5727267"><ele>575.3333333333334</ele><time>2026-04-19T09:29:00.147Z</time></trkpt><trkpt lat="41.47656" lon="14.5725483"><ele>574.0</ele><time>2026-04-19T09:29:01.148Z</time></trkpt><trkpt lat="41.4764817" lon="14.5723633"><ele>574.0</ele><time>2026-04-19T09:29:02.148Z</time></trkpt><trkpt lat="41.4764083" lon="14.5721767"><ele>574.0</ele><time>2026-04-19T09:29:03.148Z</time></trkpt><trkpt lat="41.4763383" lon="14.5719817"><ele>574.0</ele><time>2026-04-19T09:29:04.148Z</time></trkpt><trkpt lat="41.4762783" lon="14.5717817"><ele>572.3333333333334</ele><time>2026-04-19T09:29:05.148Z</time></trkpt><trkpt lat="41.4762217" lon="14.571575"><ele>570.6666666666666</ele><time>2026-04-19T09:29:06.148Z</time></trkpt><trkpt lat="41.476175" lon="14.571365"><ele>569.0</ele><time>2026-04-19T09:29:07.147Z</time></trkpt><trkpt lat="41.47613" lon="14.5711517"><ele>567.3333333333333</ele><time>2026-04-19T09:29:08.148Z</time></trkpt><trkpt lat="41.4760917" lon="14.5709317"><ele>565.6666666666666</ele><time>2026-04-19T09:29:09.148Z</time></trkpt><trkpt lat="41.4760533" lon="14.57072"><ele>564.0</ele><time>2026-04-19T09:29:10.148Z</time></trkpt><trkpt lat="41.476025" lon="14.5704967"><ele>562.3333333333334</ele><time>2026-04-19T09:29:11.148Z</time></trkpt><trkpt lat="41.4760033" lon="14.5702733"><ele>560.6666666666667</ele><time>2026-04-19T09:29:12.148Z</time></trkpt><trkpt lat="41.4759783" lon="14.5700433"><ele>559.0</ele><time>2026-04-19T09:29:13.148Z</time></trkpt><trkpt lat="41.47596" lon="14.5698217"><ele>559.0</ele><time>2026-04-19T09:29:14.148Z</time></trkpt><trkpt lat="41.475935" lon="14.569595"><ele>559.0</ele><time>2026-04-19T09:29:15.148Z</time></trkpt><trkpt lat="41.4759167" lon="14.5693633"><ele>559.0</ele><time>2026-04-19T09:29:16.148Z</time></trkpt><trkpt lat="41.475895" lon="14.5691267"><ele>556.0</ele><time>2026-04-19T09:29:17.148Z</time></trkpt><trkpt lat="41.4758817" lon="14.5688983"><ele>553.0</ele><time>2026-04-19T09:29:18.148Z</time></trkpt><trkpt lat="41.4758583" lon="14.568665"><ele>550.0</ele><time>2026-04-19T09:29:19.147Z</time></trkpt><trkpt lat="41.4758333" lon="14.5684267"><ele>549.0</ele><time>2026-04-19T09:29:20.148Z</time></trkpt><trkpt lat="41.4758133" lon="14.5681917"><ele>548.0</ele><time>2026-04-19T09:29:21.148Z</time></trkpt><trkpt lat="41.4757933" lon="14.5679583"><ele>547.0</ele><time>2026-04-19T09:29:22.148Z</time></trkpt><trkpt lat="41.4757733" lon="14.5677217"><ele>544.6666666666667</ele><time>2026-04-19T09:29:23.148Z</time></trkpt><trkpt lat="41.4757517" lon="14.56748"><ele>542.3333333333334</ele><time>2026-04-19T09:29:24.148Z</time></trkpt><trkpt lat="41.475735" lon="14.5672367"><ele>540.0</ele><time>2026-04-19T09:29:25.148Z</time></trkpt><trkpt lat="41.4757167" lon="14.567"><ele>539.6666666666666</ele><time>2026-04-19T09:29:26.148Z</time></trkpt><trkpt lat="41.4756983" lon="14.5667617"><ele>539.3333333333333</ele><time>2026-04-19T09:29:27.148Z</time></trkpt><trkpt lat="41.47568" lon="14.5665217"><ele>539.0</ele><time>2026-04-19T09:29:28.148Z</time></trkpt><trkpt lat="41.4756583" lon="14.566285"><ele>538.6666666666666</ele><time>2026-04-19T09:29:29.148Z</time></trkpt><trkpt lat="41.47564" lon="14.5660483"><ele>538.3333333333334</ele><time>2026-04-19T09:29:30.148Z</time></trkpt><trkpt lat="41.475615" lon="14.5658183"><ele>538.0</ele><time>2026-04-19T09:29:31.148Z</time></trkpt><trkpt lat="41.47559" lon="14.565585"><ele>536.6666666666667</ele><time>2026-04-19T09:29:32.147Z</time></trkpt><trkpt lat="41.4755717" lon="14.5653533"><ele>535.3333333333334</ele><time>2026-04-19T09:29:33.148Z</time></trkpt><trkpt lat="41.4755483" lon="14.56513"><ele>534.0</ele><time>2026-04-19T09:29:34.148Z</time></trkpt><trkpt lat="41.4755267" lon="14.564905"><ele>534.0</ele><time>2026-04-19T09:29:35.148Z</time></trkpt><trkpt lat="41.475505" lon="14.5646833"><ele>534.0</ele><time>2026-04-19T09:29:36.148Z</time></trkpt><trkpt lat="41.4754917" lon="14.5644533"><ele>534.0</ele><time>2026-04-19T09:29:37.148Z</time></trkpt><trkpt lat="41.4754717" lon="14.5642267"><ele>534.3333333333334</ele><time>2026-04-19T09:29:38.148Z</time></trkpt><trkpt lat="41.4754567" lon="14.5639933"><ele>534.6666666666667</ele><time>2026-04-19T09:29:39.148Z</time></trkpt><trkpt lat="41.47544" lon="14.5637633"><ele>535.0</ele><time>2026-04-19T09:29:40.148Z</time></trkpt><trkpt lat="41.47542" lon="14.56354"><ele>536.0</ele><time>2026-04-19T09:29:41.147Z</time></trkpt><trkpt lat="41.4754083" lon="14.56331"><ele>537.0</ele><time>2026-04-19T09:29:42.148Z</time></trkpt><trkpt lat="41.4753867" lon="14.563085"><ele>538.0</ele><time>2026-04-19T09:29:43.148Z</time></trkpt><trkpt lat="41.4753733" lon="14.56286"><ele>538.3333333333334</ele><time>2026-04-19T09:29:44.148Z</time></trkpt><trkpt lat="41.47536" lon="14.5626433"><ele>538.6666666666666</ele><time>2026-04-19T09:29:45.148Z</time></trkpt><trkpt lat="41.4753383" lon="14.56244"><ele>539.0</ele><time>2026-04-19T09:29:46.148Z</time></trkpt><trkpt lat="41.4753217" lon="14.5622417"><ele>539.0</ele><time>2026-04-19T09:29:47.147Z</time></trkpt><trkpt lat="41.4753067" lon="14.5620483"><ele>539.0</ele><time>2026-04-19T09:29:48.147Z</time></trkpt><trkpt lat="41.4752917" lon="14.5618683"><ele>539.0</ele><time>2026-04-19T09:29:49.148Z</time></trkpt><trkpt lat="41.4752783" lon="14.5616983"><ele>539.0</ele><time>2026-04-19T09:29:50.147Z</time></trkpt><trkpt lat="41.4752633" lon="14.561535"><ele>539.25</ele><time>2026-04-19T09:29:51.147Z</time></trkpt><trkpt lat="41.47525" lon="14.56138"><ele>539.5</ele><time>2026-04-19T09:29:52.148Z</time></trkpt><trkpt lat="41.4752317" lon="14.5612217"><ele>539.75</ele><time>2026-04-19T09:29:53.148Z</time></trkpt><trkpt lat="41.47521" lon="14.5610667"><ele>540.0</ele><time>2026-04-19T09:29:54.147Z</time></trkpt><trkpt lat="41.4751917" lon="14.560925"><ele>540.0</ele><time>2026-04-19T09:29:55.148Z</time></trkpt><trkpt lat="41.4751733" lon="14.5608017"><ele>540.0</ele><time>2026-04-19T09:29:56.148Z</time></trkpt><trkpt lat="41.4751567" lon="14.5606883"><ele>540.0</ele><time>2026-04-19T09:29:57.147Z</time></trkpt><trkpt lat="41.4751367" lon="14.5605917"><ele>540.0</ele><time>2026-04-19T09:29:58.148Z</time></trkpt><trkpt lat="41.4751217" lon="14.5605067"><ele>540.0</ele><time>2026-04-19T09:29:59.147Z</time></trkpt><trkpt lat="41.4750967" lon="14.5603517"><ele>540.0</ele><time>2026-04-19T09:30:01.148Z</time></trkpt><trkpt lat="41.4750867" lon="14.56022"><ele>540.0</ele><time>2026-04-19T09:30:03.148Z</time></trkpt><trkpt lat="41.4750683" lon="14.5601217"><ele>540.0</ele><time>2026-04-19T09:30:05.148Z</time></trkpt><trkpt lat="41.475055" lon="14.5600233"><ele>540.0</ele><time>2026-04-19T09:30:24.148Z</time></trkpt><trkpt lat="41.4750267" lon="14.5598767"><ele>540.0</ele><time>2026-04-19T09:30:26.147Z</time></trkpt><trkpt lat="41.4750117" lon="14.5597933"><ele>540.0</ele><time>2026-04-19T09:30:27.147Z</time></trkpt><trkpt lat="41.4749917" lon="14.5597033"><ele>540.0</ele><time>2026-04-19T09:30:28.148Z</time></trkpt><trkpt lat="41.4749717" lon="14.5595883"><ele>539.25</ele><time>2026-04-19T09:30:29.148Z</time></trkpt><trkpt lat="41.4749517" lon="14.5594467"><ele>538.5</ele><time>2026-04-19T09:30:30.148Z</time></trkpt><trkpt lat="41.4749333" lon="14.559295"><ele>537.75</ele><time>2026-04-19T09:30:31.148Z</time></trkpt><trkpt lat="41.4749233" lon="14.55914"><ele>537.0</ele><time>2026-04-19T09:30:32.148Z</time></trkpt><trkpt lat="41.474915" lon="14.55897"><ele>537.0</ele><time>2026-04-19T09:30:33.148Z</time></trkpt><trkpt lat="41.4749117" lon="14.5588"><ele>537.0</ele><time>2026-04-19T09:30:34.148Z</time></trkpt><trkpt lat="41.4749" lon="14.5586167"><ele>537.0</ele><time>2026-04-19T09:30:35.148Z</time></trkpt><trkpt lat="41.474885" lon="14.5584117"><ele>537.0</ele><time>2026-04-19T09:30:36.148Z</time></trkpt><trkpt lat="41.474875" lon="14.558185"><ele>535.3333333333334</ele><time>2026-04-19T09:30:37.148Z</time></trkpt><trkpt lat="41.4748733" lon="14.55794"><ele>533.6666666666667</ele><time>2026-04-19T09:30:38.147Z</time></trkpt><trkpt lat="41.4748783" lon="14.5576933"><ele>532.0</ele><time>2026-04-19T09:30:39.148Z</time></trkpt><trkpt lat="41.47488" lon="14.5574517"><ele>531.6666666666667</ele><time>2026-04-19T09:30:40.148Z</time></trkpt><trkpt lat="41.474885" lon="14.55721"><ele>531.3333333333334</ele><time>2026-04-19T09:30:41.148Z</time></trkpt><trkpt lat="41.474885" lon="14.55698"><ele>531.0</ele><time>2026-04-19T09:30:42.147Z</time></trkpt><trkpt lat="41.4748867" lon="14.55675"><ele>530.3333333333334</ele><time>2026-04-19T09:30:43.148Z</time></trkpt><trkpt lat="41.4749" lon="14.5565267"><ele>529.6666666666667</ele><time>2026-04-19T09:30:44.148Z</time></trkpt><trkpt lat="41.4749267" lon="14.5563067"><ele>529.0</ele><time>2026-04-19T09:30:45.148Z</time></trkpt><trkpt lat="41.47497" lon="14.55609"><ele>529.0</ele><time>2026-04-19T09:30:46.148Z</time></trkpt><trkpt lat="41.4750267" lon="14.55588"><ele>529.0</ele><time>2026-04-19T09:30:47.148Z</time></trkpt><trkpt lat="41.4750867" lon="14.5556967"><ele>529.0</ele><time>2026-04-19T09:30:48.147Z</time></trkpt><trkpt lat="41.4751733" lon="14.5555033"><ele>529.0</ele><time>2026-04-19T09:30:49.147Z</time></trkpt><trkpt lat="41.47527" lon="14.5553267"><ele>529.0</ele><time>2026-04-19T09:30:50.148Z</time></trkpt><trkpt lat="41.475385" lon="14.55516"><ele>529.0</ele><time>2026-04-19T09:30:51.147Z</time></trkpt><trkpt lat="41.4755" lon="14.555005"><ele>529.25</ele><time>2026-04-19T09:30:52.148Z</time></trkpt><trkpt lat="41.4756167" lon="14.55487"><ele>529.5</ele><time>2026-04-19T09:30:53.148Z</time></trkpt><trkpt lat="41.475725" lon="14.55474"><ele>529.75</ele><time>2026-04-19T09:30:54.147Z</time></trkpt><trkpt lat="41.4758333" lon="14.55462"><ele>530.0</ele><time>2026-04-19T09:30:55.147Z</time></trkpt><trkpt lat="41.47593" lon="14.5545183"><ele>530.0</ele><time>2026-04-19T09:30:56.148Z</time></trkpt><trkpt lat="41.4760117" lon="14.5544267"><ele>530.0</ele><time>2026-04-19T09:30:57.148Z</time></trkpt><trkpt lat="41.4760833" lon="14.5543433"><ele>530.0</ele><time>2026-04-19T09:30:58.148Z</time></trkpt><trkpt lat="41.4761483" lon="14.5542617"><ele>530.0</ele><time>2026-04-19T09:30:59.148Z</time></trkpt><trkpt lat="41.476205" lon="14.554195"><ele>530.0</ele><time>2026-04-19T09:31:00.148Z</time></trkpt><trkpt lat="41.4762533" lon="14.5541267"><ele>530.0</ele><time>2026-04-19T09:31:01.148Z</time></trkpt><trkpt lat="41.4762967" lon="14.5540617"><ele>529.2</ele><time>2026-04-19T09:31:02.148Z</time></trkpt><trkpt lat="41.4763433" lon="14.5539717"><ele>528.4</ele><time>2026-04-19T09:31:03.148Z</time></trkpt><trkpt lat="41.4763917" lon="14.5538617"><ele>527.6</ele><time>2026-04-19T09:31:04.147Z</time></trkpt><trkpt lat="41.4764433" lon="14.55373"><ele>526.8</ele><time>2026-04-19T09:31:05.147Z</time></trkpt><trkpt lat="41.4764983" lon="14.5535833"><ele>526.0</ele><time>2026-04-19T09:31:06.147Z</time></trkpt><trkpt lat="41.4765633" lon="14.553425"><ele>525.75</ele><time>2026-04-19T09:31:07.148Z</time></trkpt><trkpt lat="41.476625" lon="14.5532633"><ele>525.5</ele><time>2026-04-19T09:31:08.147Z</time></trkpt><trkpt lat="41.47668" lon="14.5530983"><ele>525.25</ele><time>2026-04-19T09:31:09.148Z</time></trkpt><trkpt lat="41.4767433" lon="14.5529183"><ele>525.0</ele><time>2026-04-19T09:31:10.148Z</time></trkpt><trkpt lat="41.476815" lon="14.5527333"><ele>525.0</ele><time>2026-04-19T09:31:11.148Z</time></trkpt><trkpt lat="41.4768783" lon="14.5525567"><ele>525.0</ele><time>2026-04-19T09:31:12.148Z</time></trkpt><trkpt lat="41.47695" lon="14.5523767"><ele>525.0</ele><time>2026-04-19T09:31:13.147Z</time></trkpt><trkpt lat="41.4770167" lon="14.5521983"><ele>525.0</ele><time>2026-04-19T09:31:14.148Z</time></trkpt><trkpt lat="41.4770833" lon="14.5520283"><ele>524.25</ele><time>2026-04-19T09:31:15.147Z</time></trkpt><trkpt lat="41.4771467" lon="14.5518583"><ele>523.5</ele><time>2026-04-19T09:31:16.148Z</time></trkpt><trkpt lat="41.4772033" lon="14.5516833"><ele>522.75</ele><time>2026-04-19T09:31:17.148Z</time></trkpt><trkpt lat="41.47725" lon="14.551495"><ele>522.0</ele><time>2026-04-19T09:31:18.147Z</time></trkpt><trkpt lat="41.4772867" lon="14.5513"><ele>522.3333333333334</ele><time>2026-04-19T09:31:19.148Z</time></trkpt><trkpt lat="41.47732" lon="14.5511"><ele>522.6666666666667</ele><time>2026-04-19T09:31:20.148Z</time></trkpt><trkpt lat="41.4773567" lon="14.550895"><ele>523.0</ele><time>2026-04-19T09:31:21.148Z</time></trkpt><trkpt lat="41.4773917" lon="14.5506917"><ele>523.0</ele><time>2026-04-19T09:31:22.147Z</time></trkpt><trkpt lat="41.4774283" lon="14.5504917"><ele>523.0</ele><time>2026-04-19T09:31:23.148Z</time></trkpt><trkpt lat="41.4774617" lon="14.5502883"><ele>523.0</ele><time>2026-04-19T09:31:24.147Z</time></trkpt><trkpt lat="41.4775" lon="14.5500883"><ele>522.75</ele><time>2026-04-19T09:31:25.148Z</time></trkpt><trkpt lat="41.4775333" lon="14.549895"><ele>522.5</ele><time>2026-04-19T09:31:26.147Z</time></trkpt><trkpt lat="41.4775683" lon="14.549715"><ele>522.25</ele><time>2026-04-19T09:31:27.148Z</time></trkpt><trkpt lat="41.4776033" lon="14.549535"><ele>522.0</ele><time>2026-04-19T09:31:28.147Z</time></trkpt><trkpt lat="41.47763" lon="14.5493633"><ele>521.75</ele><time>2026-04-19T09:31:29.148Z</time></trkpt><trkpt lat="41.4776483" lon="14.5492033"><ele>521.5</ele><time>2026-04-19T09:31:30.148Z</time></trkpt><trkpt lat="41.4776417" lon="14.5490517"><ele>521.25</ele><time>2026-04-19T09:31:31.147Z</time></trkpt><trkpt lat="41.4776133" lon="14.5488967"><ele>521.0</ele><time>2026-04-19T09:31:32.147Z</time></trkpt><trkpt lat="41.4775667" lon="14.54875"><ele>520.75</ele><time>2026-04-19T09:31:33.148Z</time></trkpt><trkpt lat="41.4774967" lon="14.5486233"><ele>520.5</ele><time>2026-04-19T09:31:34.147Z</time></trkpt><trkpt lat="41.4774133" lon="14.5485083"><ele>520.25</ele><time>2026-04-19T09:31:35.147Z</time></trkpt><trkpt lat="41.4773217" lon="14.5484167"><ele>520.0</ele><time>2026-04-19T09:31:36.148Z</time></trkpt><trkpt lat="41.4772083" lon="14.5483583"><ele>519.5</ele><time>2026-04-19T09:31:37.147Z</time></trkpt><trkpt lat="41.4770783" lon="14.54832"><ele>519.0</ele><time>2026-04-19T09:31:38.148Z</time></trkpt><trkpt lat="41.4769483" lon="14.5483"><ele>518.5</ele><time>2026-04-19T09:31:39.148Z</time></trkpt><trkpt lat="41.4768167" lon="14.5482767"><ele>518.0</ele><time>2026-04-19T09:31:40.147Z</time></trkpt><trkpt lat="41.4766883" lon="14.54825"><ele>518.0</ele><time>2026-04-19T09:31:41.148Z</time></trkpt><trkpt lat="41.4765633" lon="14.5482267"><ele>518.0</ele><time>2026-04-19T09:31:42.148Z</time></trkpt><trkpt lat="41.4764367" lon="14.5482067"><ele>518.0</ele><time>2026-04-19T09:31:43.148Z</time></trkpt><trkpt lat="41.4763133" lon="14.5481817"><ele>518.0</ele><time>2026-04-19T09:31:44.148Z</time></trkpt><trkpt lat="41.476195" lon="14.548165"><ele>518.0</ele><time>2026-04-19T09:31:45.148Z</time></trkpt><trkpt lat="41.4760783" lon="14.5481467"><ele>518.0</ele><time>2026-04-19T09:31:46.147Z</time></trkpt><trkpt lat="41.4759717" lon="14.5481317"><ele>518.0</ele><time>2026-04-19T09:31:47.147Z</time></trkpt><trkpt lat="41.4758733" lon="14.54811"><ele>518.0</ele><time>2026-04-19T09:31:48.148Z</time></trkpt><trkpt lat="41.4757917" lon="14.5480717"><ele>518.0</ele><time>2026-04-19T09:31:49.148Z</time></trkpt><trkpt lat="41.4757217" lon="14.5479983"><ele>518.0</ele><time>2026-04-19T09:31:50.148Z</time></trkpt><trkpt lat="41.4756767" lon="14.5479017"><ele>518.0</ele><time>2026-04-19T09:31:51.148Z</time></trkpt><trkpt lat="41.4756583" lon="14.5477833"><ele>518.0</ele><time>2026-04-19T09:31:52.147Z</time></trkpt><trkpt lat="41.47569" lon="14.5476633"><ele>518.0</ele><time>2026-04-19T09:31:53.147Z</time></trkpt><trkpt lat="41.4757467" lon="14.54755"><ele>518.0</ele><time>2026-04-19T09:31:54.147Z</time></trkpt><trkpt lat="41.4758233" lon="14.5474517"><ele>516.0</ele><time>2026-04-19T09:31:55.148Z</time></trkpt><trkpt lat="41.4759167" lon="14.5473633"><ele>514.0</ele><time>2026-04-19T09:31:56.147Z</time></trkpt><trkpt lat="41.476015" lon="14.5472817"><ele>512.0</ele><time>2026-04-19T09:31:57.148Z</time></trkpt><trkpt lat="41.4761083" lon="14.5472033"><ele>510.0</ele><time>2026-04-19T09:31:58.147Z</time></trkpt><trkpt lat="41.4762067" lon="14.54713"><ele>510.25</ele><time>2026-04-19T09:31:59.148Z</time></trkpt><trkpt lat="41.4763033" lon="14.547055"><ele>510.5</ele><time>2026-04-19T09:32:00.147Z</time></trkpt><trkpt lat="41.4764083" lon="14.5469867"><ele>510.75</ele><time>2026-04-19T09:32:01.148Z</time></trkpt><trkpt lat="41.4765167" lon="14.546925"><ele>511.0</ele><time>2026-04-19T09:32:02.148Z</time></trkpt><trkpt lat="41.4766367" lon="14.5468667"><ele>510.4</ele><time>2026-04-19T09:32:03.148Z</time></trkpt><trkpt lat="41.4767517" lon="14.5468217"><ele>509.8</ele><time>2026-04-19T09:32:04.148Z</time></trkpt><trkpt lat="41.47686" lon="14.54678"><ele>509.19999999999993</ele><time>2026-04-19T09:32:05.148Z</time></trkpt><trkpt lat="41.4769567" lon="14.546735"><ele>508.59999999999997</ele><time>2026-04-19T09:32:06.148Z</time></trkpt><trkpt lat="41.4770417" lon="14.5466683"><ele>508.0</ele><time>2026-04-19T09:32:07.147Z</time></trkpt><trkpt lat="41.4771117" lon="14.54658"><ele>508.0</ele><time>2026-04-19T09:32:08.148Z</time></trkpt><trkpt lat="41.4771667" lon="14.5464533"><ele>507.99999999999994</ele><time>2026-04-19T09:32:09.147Z</time></trkpt><trkpt lat="41.47719" lon="14.546325"><ele>507.99999999999994</ele><time>2026-04-19T09:32:10.148Z</time></trkpt><trkpt lat="41.4771933" lon="14.5461833"><ele>508.0</ele><time>2026-04-19T09:32:11.148Z</time></trkpt><trkpt lat="41.4771833" lon="14.546045"><ele>508.0</ele><time>2026-04-19T09:32:12.148Z</time></trkpt><trkpt lat="41.4771467" lon="14.5459033"><ele>505.0</ele><time>2026-04-19T09:32:13.148Z</time></trkpt><trkpt lat="41.47709" lon="14.5457667"><ele>502.0</ele><time>2026-04-19T09:32:14.148Z</time></trkpt><trkpt lat="41.4770233" lon="14.5456367"><ele>499.0</ele><time>2026-04-19T09:32:15.147Z</time></trkpt><trkpt lat="41.4769517" lon="14.5455"><ele>496.0</ele><time>2026-04-19T09:32:16.148Z</time></trkpt><trkpt lat="41.4768783" lon="14.545365"><ele>496.0</ele><time>2026-04-19T09:32:17.148Z</time></trkpt><trkpt lat="41.4768" lon="14.5452283"><ele>496.0</ele><time>2026-04-19T09:32:18.147Z</time></trkpt><trkpt lat="41.4767217" lon="14.5450967"><ele>496.0</ele><time>2026-04-19T09:32:19.148Z</time></trkpt><trkpt lat="41.4766383" lon="14.5449617"><ele>496.0</ele><time>2026-04-19T09:32:20.148Z</time></trkpt><trkpt lat="41.4765483" lon="14.54483"><ele>496.0</ele><time>2026-04-19T09:32:21.148Z</time></trkpt><trkpt lat="41.4764567" lon="14.5446933"><ele>496.0</ele><time>2026-04-19T09:32:22.148Z</time></trkpt><trkpt lat="41.4763617" lon="14.5445533"><ele>496.0</ele><time>2026-04-19T09:32:23.148Z</time></trkpt><trkpt lat="41.4762617" lon="14.5444067"><ele>496.0</ele><time>2026-04-19T09:32:24.148Z</time></trkpt><trkpt lat="41.47616" lon="14.5442567"><ele>496.33333333333337</ele><time>2026-04-19T09:32:25.148Z</time></trkpt><trkpt lat="41.4760533" lon="14.544105"><ele>496.66666666666663</ele><time>2026-04-19T09:32:26.148Z</time></trkpt><trkpt lat="41.475945" lon="14.5439583"><ele>497.0</ele><time>2026-04-19T09:32:27.148Z</time></trkpt><trkpt lat="41.4758367" lon="14.543805"><ele>497.0</ele><time>2026-04-19T09:32:28.148Z</time></trkpt><trkpt lat="41.475735" lon="14.54366"><ele>497.0</ele><time>2026-04-19T09:32:29.148Z</time></trkpt><trkpt lat="41.4756383" lon="14.5435183"><ele>497.0</ele><time>2026-04-19T09:32:30.148Z</time></trkpt><trkpt lat="41.4755417" lon="14.5433783"><ele>497.0</ele><time>2026-04-19T09:32:31.148Z</time></trkpt><trkpt lat="41.4754433" lon="14.5432417"><ele>496.75</ele><time>2026-04-19T09:32:32.148Z</time></trkpt><trkpt lat="41.475345" lon="14.5431017"><ele>496.5</ele><time>2026-04-19T09:32:33.148Z</time></trkpt><trkpt lat="41.4752483" lon="14.542965"><ele>496.25</ele><time>2026-04-19T09:32:34.148Z</time></trkpt><trkpt lat="41.4751483" lon="14.5428183"><ele>496.0</ele><time>2026-04-19T09:32:35.148Z</time></trkpt><trkpt lat="41.475045" lon="14.5426767"><ele>496.75</ele><time>2026-04-19T09:32:36.148Z</time></trkpt><trkpt lat="41.4749417" lon="14.54253"><ele>497.5</ele><time>2026-04-19T09:32:37.148Z</time></trkpt><trkpt lat="41.47484" lon="14.5423867"><ele>498.25</ele><time>2026-04-19T09:32:38.148Z</time></trkpt><trkpt lat="41.4747433" lon="14.542245"><ele>499.0</ele><time>2026-04-19T09:32:39.148Z</time></trkpt><trkpt lat="41.47464" lon="14.5421017"><ele>500.75</ele><time>2026-04-19T09:32:40.148Z</time></trkpt><trkpt lat="41.4745433" lon="14.5419567"><ele>502.5</ele><time>2026-04-19T09:32:41.148Z</time></trkpt><trkpt lat="41.4744433" lon="14.5418133"><ele>504.25</ele><time>2026-04-19T09:32:42.148Z</time></trkpt><trkpt lat="41.4743433" lon="14.5416683"><ele>506.0</ele><time>2026-04-19T09:32:43.148Z</time></trkpt><trkpt lat="41.4742383" lon="14.5415267"><ele>506.0</ele><time>2026-04-19T09:32:44.147Z</time></trkpt><trkpt lat="41.4741317" lon="14.541385"><ele>506.0</ele><time>2026-04-19T09:32:45.147Z</time></trkpt><trkpt lat="41.4740317" lon="14.5412333"><ele>506.0</ele><time>2026-04-19T09:32:46.148Z</time></trkpt><trkpt lat="41.4739233" lon="14.5410917"><ele>506.5</ele><time>2026-04-19T09:32:47.148Z</time></trkpt><trkpt lat="41.4738133" lon="14.5409517"><ele>507.0</ele><time>2026-04-19T09:32:48.147Z</time></trkpt><trkpt lat="41.4737117" lon="14.5408083"><ele>507.5</ele><time>2026-04-19T09:32:49.148Z</time></trkpt><trkpt lat="41.47361" lon="14.5406683"><ele>508.0</ele><time>2026-04-19T09:32:50.147Z</time></trkpt><trkpt lat="41.4735067" lon="14.5405183"><ele>508.75</ele><time>2026-04-19T09:32:51.147Z</time></trkpt><trkpt lat="41.4734033" lon="14.5403733"><ele>509.5</ele><time>2026-04-19T09:32:52.148Z</time></trkpt><trkpt lat="41.473305" lon="14.5402267"><ele>510.25</ele><time>2026-04-19T09:32:53.148Z</time></trkpt><trkpt lat="41.47321" lon="14.5400817"><ele>511.0</ele><time>2026-04-19T09:32:54.147Z</time></trkpt><trkpt lat="41.4731067" lon="14.5399367"><ele>511.0</ele><time>2026-04-19T09:32:55.147Z</time></trkpt><trkpt lat="41.4730033" lon="14.5397983"><ele>511.0</ele><time>2026-04-19T09:32:56.148Z</time></trkpt><trkpt lat="41.4729017" lon="14.53966"><ele>511.0</ele><time>2026-04-19T09:32:57.148Z</time></trkpt><trkpt lat="41.472805" lon="14.539525"><ele>511.0</ele><time>2026-04-19T09:32:58.148Z</time></trkpt><trkpt lat="41.47271" lon="14.5393783"><ele>510.75</ele><time>2026-04-19T09:32:59.148Z</time></trkpt><trkpt lat="41.472615" lon="14.5392367"><ele>510.5</ele><time>2026-04-19T09:33:00.148Z</time></trkpt><trkpt lat="41.4725133" lon="14.5390867"><ele>510.25</ele><time>2026-04-19T09:33:01.148Z</time></trkpt><trkpt lat="41.47241" lon="14.5389383"><ele>510.0</ele><time>2026-04-19T09:33:02.148Z</time></trkpt><trkpt lat="41.472315" lon="14.5387983"><ele>510.5</ele><time>2026-04-19T09:33:03.148Z</time></trkpt><trkpt lat="41.4722283" lon="14.538655"><ele>511.0</ele><time>2026-04-19T09:33:04.148Z</time></trkpt><trkpt lat="41.47215" lon="14.5385133"><ele>511.5</ele><time>2026-04-19T09:33:05.147Z</time></trkpt><trkpt lat="41.47208" lon="14.53838"><ele>512.0</ele><time>2026-04-19T09:33:06.148Z</time></trkpt><trkpt lat="41.4720117" lon="14.53825"><ele>511.20000000000005</ele><time>2026-04-19T09:33:07.148Z</time></trkpt><trkpt lat="41.4719483" lon="14.53812"><ele>510.40000000000003</ele><time>2026-04-19T09:33:08.148Z</time></trkpt><trkpt lat="41.4718883" lon="14.5379983"><ele>509.59999999999997</ele><time>2026-04-19T09:33:09.148Z</time></trkpt><trkpt lat="41.4718233" lon="14.537885"><ele>508.79999999999995</ele><time>2026-04-19T09:33:10.148Z</time></trkpt><trkpt lat="41.4717667" lon="14.5377733"><ele>508.0</ele><time>2026-04-19T09:33:11.148Z</time></trkpt><trkpt lat="41.471715" lon="14.537675"><ele>508.00000000000006</ele><time>2026-04-19T09:33:12.147Z</time></trkpt><trkpt lat="41.4716683" lon="14.5375867"><ele>508.0</ele><time>2026-04-19T09:33:13.148Z</time></trkpt><trkpt lat="41.471625" lon="14.5375083"><ele>508.0</ele><time>2026-04-19T09:33:14.148Z</time></trkpt><trkpt lat="41.47159" lon="14.537435"><ele>508.0</ele><time>2026-04-19T09:33:15.147Z</time></trkpt><trkpt lat="41.471545" lon="14.5373083"><ele>508.00000000000006</ele><time>2026-04-19T09:33:17.148Z</time></trkpt><trkpt lat="41.4715217" lon="14.5372267"><ele>508.0</ele><time>2026-04-19T09:33:18.148Z</time></trkpt><trkpt lat="41.4714967" lon="14.5371367"><ele>508.4</ele><time>2026-04-19T09:33:19.147Z</time></trkpt><trkpt lat="41.4714683" lon="14.53703"><ele>508.79999999999995</ele><time>2026-04-19T09:33:20.148Z</time></trkpt><trkpt lat="41.471455" lon="14.5369117"><ele>509.2</ele><time>2026-04-19T09:33:21.148Z</time></trkpt><trkpt lat="41.4714483" lon="14.5367883"><ele>509.6</ele><time>2026-04-19T09:33:22.148Z</time></trkpt><trkpt lat="41.47145" lon="14.5366583"><ele>510.0</ele><time>2026-04-19T09:33:23.147Z</time></trkpt><trkpt lat="41.471455" lon="14.5365317"><ele>510.0</ele><time>2026-04-19T09:33:24.147Z</time></trkpt><trkpt lat="41.4714633" lon="14.5364033"><ele>510.0</ele><time>2026-04-19T09:33:25.147Z</time></trkpt><trkpt lat="41.4714817" lon="14.5362717"><ele>510.0</ele><time>2026-04-19T09:33:26.148Z</time></trkpt><trkpt lat="41.47151" lon="14.53613"><ele>510.0</ele><time>2026-04-19T09:33:27.148Z</time></trkpt><trkpt lat="41.4715333" lon="14.5359733"><ele>510.0</ele><time>2026-04-19T09:33:28.148Z</time></trkpt><trkpt lat="41.4715583" lon="14.53581"><ele>509.75</ele><time>2026-04-19T09:33:29.147Z</time></trkpt><trkpt lat="41.471585" lon="14.53563"><ele>509.5</ele><time>2026-04-19T09:33:30.148Z</time></trkpt><trkpt lat="41.4716067" lon="14.5354567"><ele>509.25</ele><time>2026-04-19T09:33:31.148Z</time></trkpt><trkpt lat="41.471625" lon="14.5352783"><ele>509.0</ele><time>2026-04-19T09:33:32.148Z</time></trkpt><trkpt lat="41.4716533" lon="14.535105"><ele>509.0</ele><time>2026-04-19T09:33:33.148Z</time></trkpt><trkpt lat="41.4716767" lon="14.5349233"><ele>509.0</ele><time>2026-04-19T09:33:34.148Z</time></trkpt><trkpt lat="41.4716983" lon="14.5347283"><ele>509.0</ele><time>2026-04-19T09:33:35.148Z</time></trkpt><trkpt lat="41.47173" lon="14.5345267"><ele>509.0</ele><time>2026-04-19T09:33:36.148Z</time></trkpt><trkpt lat="41.4717583" lon="14.534325"><ele>509.0</ele><time>2026-04-19T09:33:37.147Z</time></trkpt><trkpt lat="41.4717867" lon="14.5341267"><ele>509.0</ele><time>2026-04-19T09:33:38.148Z</time></trkpt><trkpt lat="41.4718083" lon="14.5339317"><ele>509.0</ele><time>2026-04-19T09:33:39.148Z</time></trkpt><trkpt lat="41.471835" lon="14.5337183"><ele>509.0</ele><time>2026-04-19T09:33:40.148Z</time></trkpt><trkpt lat="41.471865" lon="14.533505"><ele>509.0</ele><time>2026-04-19T09:33:41.147Z</time></trkpt><trkpt lat="41.471895" lon="14.5332883"><ele>509.0</ele><time>2026-04-19T09:33:42.148Z</time></trkpt><trkpt lat="41.4719233" lon="14.53307"><ele>509.3333333333333</ele><time>2026-04-19T09:33:43.147Z</time></trkpt><trkpt lat="41.4719517" lon="14.5328533"><ele>509.66666666666663</ele><time>2026-04-19T09:33:44.147Z</time></trkpt><trkpt lat="41.47198" lon="14.532635"><ele>510.0</ele><time>2026-04-19T09:33:45.148Z</time></trkpt><trkpt lat="41.472015" lon="14.5324183"><ele>510.0</ele><time>2026-04-19T09:33:46.147Z</time></trkpt><trkpt lat="41.47204" lon="14.532205"><ele>510.0</ele><time>2026-04-19T09:33:47.148Z</time></trkpt><trkpt lat="41.47207" lon="14.531985"><ele>510.0</ele><time>2026-04-19T09:33:48.148Z</time></trkpt><trkpt lat="41.4720967" lon="14.5317667"><ele>509.0</ele><time>2026-04-19T09:33:49.148Z</time></trkpt><trkpt lat="41.4721267" lon="14.5315433"><ele>508.0</ele><time>2026-04-19T09:33:50.148Z</time></trkpt><trkpt lat="41.4721567" lon="14.53132"><ele>507.0</ele><time>2026-04-19T09:33:51.148Z</time></trkpt><trkpt lat="41.4721833" lon="14.5310983"><ele>507.0</ele><time>2026-04-19T09:33:52.148Z</time></trkpt><trkpt lat="41.472215" lon="14.53087"><ele>507.0</ele><time>2026-04-19T09:33:53.148Z</time></trkpt><trkpt lat="41.4722433" lon="14.5306467"><ele>507.0</ele><time>2026-04-19T09:33:54.148Z</time></trkpt><trkpt lat="41.47227" lon="14.5304217"><ele>507.0</ele><time>2026-04-19T09:33:55.148Z</time></trkpt><trkpt lat="41.4723" lon="14.5301867"><ele>507.0</ele><time>2026-04-19T09:33:56.147Z</time></trkpt><trkpt lat="41.4723333" lon="14.5299467"><ele>507.0</ele><time>2026-04-19T09:33:57.148Z</time></trkpt><trkpt lat="41.472365" lon="14.5297083"><ele>507.0</ele><time>2026-04-19T09:33:58.148Z</time></trkpt><trkpt lat="41.4724" lon="14.5294717"><ele>507.0</ele><time>2026-04-19T09:33:59.147Z</time></trkpt><trkpt lat="41.4724333" lon="14.5292317"><ele>507.0</ele><time>2026-04-19T09:34:00.148Z</time></trkpt><trkpt lat="41.4724633" lon="14.5289917"><ele>507.0</ele><time>2026-04-19T09:34:01.148Z</time></trkpt><trkpt lat="41.4724967" lon="14.5287517"><ele>507.0</ele><time>2026-04-19T09:34:02.148Z</time></trkpt><trkpt lat="41.4725283" lon="14.5285017"><ele>507.0</ele><time>2026-04-19T09:34:03.147Z</time></trkpt><trkpt lat="41.472555" lon="14.5282583"><ele>507.0</ele><time>2026-04-19T09:34:04.148Z</time></trkpt><trkpt lat="41.4725867" lon="14.5280217"><ele>507.0</ele><time>2026-04-19T09:34:05.147Z</time></trkpt><trkpt lat="41.4726167" lon="14.5277817"><ele>507.0</ele><time>2026-04-19T09:34:06.148Z</time></trkpt><trkpt lat="41.472645" lon="14.5275383"><ele>506.66666666666663</ele><time>2026-04-19T09:34:07.148Z</time></trkpt><trkpt lat="41.4726783" lon="14.527295"><ele>506.3333333333333</ele><time>2026-04-19T09:34:08.148Z</time></trkpt><trkpt lat="41.47271" lon="14.5270517"><ele>506.0</ele><time>2026-04-19T09:34:09.147Z</time></trkpt><trkpt lat="41.4727433" lon="14.52681"><ele>506.0</ele><time>2026-04-19T09:34:10.148Z</time></trkpt><trkpt lat="41.472775" lon="14.52657"><ele>506.0</ele><time>2026-04-19T09:34:11.148Z</time></trkpt><trkpt lat="41.4728067" lon="14.52633"><ele>506.0</ele><time>2026-04-19T09:34:12.148Z</time></trkpt><trkpt lat="41.4728367" lon="14.52608"><ele>506.3333333333333</ele><time>2026-04-19T09:34:13.148Z</time></trkpt><trkpt lat="41.4728683" lon="14.5258283"><ele>506.66666666666663</ele><time>2026-04-19T09:34:14.147Z</time></trkpt><trkpt lat="41.4728983" lon="14.52558"><ele>507.0</ele><time>2026-04-19T09:34:15.148Z</time></trkpt><trkpt lat="41.47293" lon="14.5253267"><ele>506.0</ele><time>2026-04-19T09:34:16.148Z</time></trkpt><trkpt lat="41.4729617" lon="14.525075"><ele>505.0</ele><time>2026-04-19T09:34:17.147Z</time></trkpt><trkpt lat="41.4729967" lon="14.5248217"><ele>504.0</ele><time>2026-04-19T09:34:18.147Z</time></trkpt><trkpt lat="41.47303" lon="14.5245717"><ele>503.66666666666663</ele><time>2026-04-19T09:34:19.148Z</time></trkpt><trkpt lat="41.4730633" lon="14.5243217"><ele>503.3333333333333</ele><time>2026-04-19T09:34:20.148Z</time></trkpt><trkpt lat="41.473095" lon="14.5240783"><ele>503.0</ele><time>2026-04-19T09:34:21.147Z</time></trkpt><trkpt lat="41.4731267" lon="14.5238383"><ele>503.3333333333333</ele><time>2026-04-19T09:34:22.148Z</time></trkpt><trkpt lat="41.4731567" lon="14.523605"><ele>503.66666666666663</ele><time>2026-04-19T09:34:23.148Z</time></trkpt><trkpt lat="41.4731883" lon="14.52336"><ele>504.0</ele><time>2026-04-19T09:34:24.148Z</time></trkpt><trkpt lat="41.47322" lon="14.5231133"><ele>503.66666666666663</ele><time>2026-04-19T09:34:25.148Z</time></trkpt><trkpt lat="41.47325" lon="14.5228683"><ele>503.3333333333333</ele><time>2026-04-19T09:34:26.147Z</time></trkpt><trkpt lat="41.4732867" lon="14.5226133"><ele>503.0</ele><time>2026-04-19T09:34:27.148Z</time></trkpt><trkpt lat="41.4733183" lon="14.5223567"><ele>503.0</ele><time>2026-04-19T09:34:28.148Z</time></trkpt><trkpt lat="41.47335" lon="14.5221"><ele>503.0</ele><time>2026-04-19T09:34:29.148Z</time></trkpt><trkpt lat="41.4733833" lon="14.5218467"><ele>503.0</ele><time>2026-04-19T09:34:30.148Z</time></trkpt><trkpt lat="41.473415" lon="14.521595"><ele>503.0</ele><time>2026-04-19T09:34:31.148Z</time></trkpt><trkpt lat="41.47345" lon="14.5213417"><ele>503.0</ele><time>2026-04-19T09:34:32.147Z</time></trkpt><trkpt lat="41.4734817" lon="14.5210867"><ele>503.0</ele><time>2026-04-19T09:34:33.148Z</time></trkpt><trkpt lat="41.4735133" lon="14.5208367"><ele>503.0</ele><time>2026-04-19T09:34:34.148Z</time></trkpt><trkpt lat="41.4735467" lon="14.5205867"><ele>503.0</ele><time>2026-04-19T09:34:35.147Z</time></trkpt><trkpt lat="41.4735833" lon="14.5203383"><ele>503.0</ele><time>2026-04-19T09:34:36.148Z</time></trkpt><trkpt lat="41.473615" lon="14.5200917"><ele>503.0</ele><time>2026-04-19T09:34:37.148Z</time></trkpt><trkpt lat="41.4736467" lon="14.5198417"><ele>503.0</ele><time>2026-04-19T09:34:38.148Z</time></trkpt><trkpt lat="41.4736683" lon="14.5195967"><ele>503.0</ele><time>2026-04-19T09:34:39.148Z</time></trkpt><trkpt lat="41.4737067" lon="14.5193583"><ele>503.3333333333333</ele><time>2026-04-19T09:34:40.148Z</time></trkpt><trkpt lat="41.4737383" lon="14.51912"><ele>503.66666666666663</ele><time>2026-04-19T09:34:41.148Z</time></trkpt><trkpt lat="41.4737683" lon="14.5188817"><ele>504.0</ele><time>2026-04-19T09:34:42.148Z</time></trkpt><trkpt lat="41.4737983" lon="14.5186533"><ele>503.33333333333337</ele><time>2026-04-19T09:34:43.148Z</time></trkpt><trkpt lat="41.4738283" lon="14.5184233"><ele>502.6666666666667</ele><time>2026-04-19T09:34:44.147Z</time></trkpt><trkpt lat="41.4738617" lon="14.5181983"><ele>502.0</ele><time>2026-04-19T09:34:45.147Z</time></trkpt><trkpt lat="41.473895" lon="14.5179667"><ele>501.33333333333337</ele><time>2026-04-19T09:34:46.148Z</time></trkpt><trkpt lat="41.4739333" lon="14.5177383"><ele>500.66666666666663</ele><time>2026-04-19T09:34:47.147Z</time></trkpt><trkpt lat="41.4739683" lon="14.5175033"><ele>500.0</ele><time>2026-04-19T09:34:48.148Z</time></trkpt><trkpt lat="41.474" lon="14.5172717"><ele>500.0</ele><time>2026-04-19T09:34:49.148Z</time></trkpt><trkpt lat="41.4740333" lon="14.51704"><ele>500.0</ele><time>2026-04-19T09:34:50.148Z</time></trkpt><trkpt lat="41.474065" lon="14.5168067"><ele>500.0</ele><time>2026-04-19T09:34:51.148Z</time></trkpt><trkpt lat="41.474095" lon="14.5165817"><ele>500.0</ele><time>2026-04-19T09:34:52.148Z</time></trkpt><trkpt lat="41.4741217" lon="14.5163533"><ele>500.0</ele><time>2026-04-19T09:34:53.148Z</time></trkpt><trkpt lat="41.4741533" lon="14.5161333"><ele>500.0</ele><time>2026-04-19T09:34:54.148Z</time></trkpt><trkpt lat="41.4741817" lon="14.5159117"><ele>500.0</ele><time>2026-04-19T09:34:55.148Z</time></trkpt><trkpt lat="41.4742133" lon="14.5156867"><ele>500.0</ele><time>2026-04-19T09:34:56.148Z</time></trkpt><trkpt lat="41.474245" lon="14.51546"><ele>500.0</ele><time>2026-04-19T09:34:57.148Z</time></trkpt><trkpt lat="41.47427" lon="14.515225"><ele>500.0</ele><time>2026-04-19T09:34:58.148Z</time></trkpt><trkpt lat="41.4743017" lon="14.5149983"><ele>500.0</ele><time>2026-04-19T09:34:59.148Z</time></trkpt><trkpt lat="41.4743333" lon="14.5147683"><ele>500.0</ele><time>2026-04-19T09:35:00.148Z</time></trkpt><trkpt lat="41.474365" lon="14.5145333"><ele>499.3333333333333</ele><time>2026-04-19T09:35:01.148Z</time></trkpt><trkpt lat="41.4743917" lon="14.5142983"><ele>498.66666666666663</ele><time>2026-04-19T09:35:02.148Z</time></trkpt><trkpt lat="41.47442" lon="14.5140683"><ele>498.0</ele><time>2026-04-19T09:35:03.148Z</time></trkpt><trkpt lat="41.4744517" lon="14.5138283"><ele>497.66666666666663</ele><time>2026-04-19T09:35:04.148Z</time></trkpt><trkpt lat="41.4744817" lon="14.51359"><ele>497.3333333333333</ele><time>2026-04-19T09:35:05.147Z</time></trkpt><trkpt lat="41.474515" lon="14.51335"><ele>497.0</ele><time>2026-04-19T09:35:06.148Z</time></trkpt><trkpt lat="41.4745533" lon="14.5131083"><ele>497.66666666666663</ele><time>2026-04-19T09:35:07.148Z</time></trkpt><trkpt lat="41.4745817" lon="14.5128667"><ele>498.33333333333337</ele><time>2026-04-19T09:35:08.147Z</time></trkpt><trkpt lat="41.4746083" lon="14.5126267"><ele>499.0</ele><time>2026-04-19T09:35:09.148Z</time></trkpt><trkpt lat="41.474635" lon="14.5123917"><ele>499.0</ele><time>2026-04-19T09:35:10.147Z</time></trkpt><trkpt lat="41.4746633" lon="14.51216"><ele>499.0</ele><time>2026-04-19T09:35:11.148Z</time></trkpt><trkpt lat="41.4747033" lon="14.5119283"><ele>499.0</ele><time>2026-04-19T09:35:12.148Z</time></trkpt><trkpt lat="41.4747417" lon="14.5116983"><ele>499.33333333333337</ele><time>2026-04-19T09:35:13.148Z</time></trkpt><trkpt lat="41.4747767" lon="14.5114717"><ele>499.66666666666663</ele><time>2026-04-19T09:35:14.147Z</time></trkpt><trkpt lat="41.4748183" lon="14.5112517"><ele>500.0</ele><time>2026-04-19T09:35:15.148Z</time></trkpt><trkpt lat="41.4748583" lon="14.5110333"><ele>500.0</ele><time>2026-04-19T09:35:16.148Z</time></trkpt><trkpt lat="41.4749083" lon="14.51081"><ele>500.0</ele><time>2026-04-19T09:35:17.148Z</time></trkpt><trkpt lat="41.4749617" lon="14.5105883"><ele>500.0</ele><time>2026-04-19T09:35:18.147Z</time></trkpt><trkpt lat="41.4750167" lon="14.5103717"><ele>499.66666666666663</ele><time>2026-04-19T09:35:19.147Z</time></trkpt><trkpt lat="41.47508" lon="14.5101567"><ele>499.33333333333337</ele><time>2026-04-19T09:35:20.148Z</time></trkpt><trkpt lat="41.4751417" lon="14.50995"><ele>499.0</ele><time>2026-04-19T09:35:21.148Z</time></trkpt><trkpt lat="41.4752117" lon="14.509745"><ele>500.0</ele><time>2026-04-19T09:35:22.148Z</time></trkpt><trkpt lat="41.4752733" lon="14.5095367"><ele>501.0</ele><time>2026-04-19T09:35:23.148Z</time></trkpt><trkpt lat="41.475345" lon="14.5093317"><ele>502.0</ele><time>2026-04-19T09:35:24.148Z</time></trkpt><trkpt lat="41.475415" lon="14.50913"><ele>501.6666666666667</ele><time>2026-04-19T09:35:25.147Z</time></trkpt><trkpt lat="41.4754967" lon="14.50893"><ele>501.33333333333337</ele><time>2026-04-19T09:35:26.147Z</time></trkpt><trkpt lat="41.4755717" lon="14.50873"><ele>501.0</ele><time>2026-04-19T09:35:27.146Z</time></trkpt><trkpt lat="41.47566" lon="14.5085283"><ele>501.0</ele><time>2026-04-19T09:35:28.146Z</time></trkpt><trkpt lat="41.4757533" lon="14.5083317"><ele>501.0</ele><time>2026-04-19T09:35:29.147Z</time></trkpt><trkpt lat="41.4758467" lon="14.5081333"><ele>501.0</ele><time>2026-04-19T09:35:30.147Z</time></trkpt><trkpt lat="41.4759483" lon="14.50794"><ele>501.33333333333337</ele><time>2026-04-19T09:35:31.147Z</time></trkpt><trkpt lat="41.4760517" lon="14.5077383"><ele>501.6666666666667</ele><time>2026-04-19T09:35:32.146Z</time></trkpt><trkpt lat="41.4761567" lon="14.507535"><ele>502.0</ele><time>2026-04-19T09:35:33.147Z</time></trkpt><trkpt lat="41.4762617" lon="14.5073217"><ele>501.33333333333337</ele><time>2026-04-19T09:35:34.147Z</time></trkpt><trkpt lat="41.4763683" lon="14.5071167"><ele>500.66666666666663</ele><time>2026-04-19T09:35:35.147Z</time></trkpt><trkpt lat="41.47648" lon="14.50691"><ele>500.0</ele><time>2026-04-19T09:35:36.147Z</time></trkpt><trkpt lat="41.4765917" lon="14.5067"><ele>500.0</ele><time>2026-04-19T09:35:37.147Z</time></trkpt><trkpt lat="41.4767033" lon="14.5064783"><ele>500.0</ele><time>2026-04-19T09:35:38.147Z</time></trkpt><trkpt lat="41.4768217" lon="14.5062633"><ele>500.0</ele><time>2026-04-19T09:35:39.147Z</time></trkpt><trkpt lat="41.476935" lon="14.5060433"><ele>500.0</ele><time>2026-04-19T09:35:40.146Z</time></trkpt><trkpt lat="41.47705" lon="14.5058267"><ele>500.0</ele><time>2026-04-19T09:35:41.147Z</time></trkpt><trkpt lat="41.4771633" lon="14.5056033"><ele>500.0</ele><time>2026-04-19T09:35:42.147Z</time></trkpt><trkpt lat="41.4772767" lon="14.5053767"><ele>498.66666666666663</ele><time>2026-04-19T09:35:43.147Z</time></trkpt><trkpt lat="41.47739" lon="14.505165"><ele>497.33333333333337</ele><time>2026-04-19T09:35:44.147Z</time></trkpt><trkpt lat="41.4775033" lon="14.5049467"><ele>496.0</ele><time>2026-04-19T09:35:45.146Z</time></trkpt><trkpt lat="41.4776133" lon="14.5047267"><ele>496.0</ele><time>2026-04-19T09:35:46.147Z</time></trkpt><trkpt lat="41.47772" lon="14.504515"><ele>496.0</ele><time>2026-04-19T09:35:47.147Z</time></trkpt><trkpt lat="41.477825" lon="14.5043183"><ele>496.0</ele><time>2026-04-19T09:35:48.147Z</time></trkpt><trkpt lat="41.47793" lon="14.504125"><ele>495.33333333333337</ele><time>2026-04-19T09:35:49.147Z</time></trkpt><trkpt lat="41.4780283" lon="14.503935"><ele>494.66666666666663</ele><time>2026-04-19T09:35:50.147Z</time></trkpt><trkpt lat="41.478125" lon="14.5037467"><ele>494.0</ele><time>2026-04-19T09:35:51.146Z</time></trkpt><trkpt lat="41.4782217" lon="14.503555"><ele>493.3333333333333</ele><time>2026-04-19T09:35:52.147Z</time></trkpt><trkpt lat="41.4783217" lon="14.50336"><ele>492.66666666666663</ele><time>2026-04-19T09:35:53.147Z</time></trkpt><trkpt lat="41.4784217" lon="14.5031667"><ele>492.0</ele><time>2026-04-19T09:35:54.147Z</time></trkpt><trkpt lat="41.4785267" lon="14.5029767"><ele>492.0</ele><time>2026-04-19T09:35:55.147Z</time></trkpt><trkpt lat="41.4786317" lon="14.5027783"><ele>492.0</ele><time>2026-04-19T09:35:56.146Z</time></trkpt><trkpt lat="41.4787333" lon="14.50258"><ele>492.0</ele><time>2026-04-19T09:35:57.147Z</time></trkpt><trkpt lat="41.478835" lon="14.50238"><ele>491.33333333333337</ele><time>2026-04-19T09:35:58.147Z</time></trkpt><trkpt lat="41.4789367" lon="14.50218"><ele>490.6666666666667</ele><time>2026-04-19T09:35:59.147Z</time></trkpt><trkpt lat="41.4790367" lon="14.50198"><ele>490.0</ele><time>2026-04-19T09:36:00.147Z</time></trkpt><trkpt lat="41.4791367" lon="14.5017767"><ele>490.0</ele><time>2026-04-19T09:36:01.147Z</time></trkpt><trkpt lat="41.479235" lon="14.5015933"><ele>490.0</ele><time>2026-04-19T09:36:02.147Z</time></trkpt><trkpt lat="41.4793367" lon="14.5013917"><ele>490.0</ele><time>2026-04-19T09:36:03.147Z</time></trkpt><trkpt lat="41.4794433" lon="14.5011883"><ele>489.6666666666667</ele><time>2026-04-19T09:36:04.147Z</time></trkpt><trkpt lat="41.47955" lon="14.5009817"><ele>489.33333333333337</ele><time>2026-04-19T09:36:05.147Z</time></trkpt><trkpt lat="41.4796583" lon="14.5007733"><ele>489.0</ele><time>2026-04-19T09:36:06.146Z</time></trkpt><trkpt lat="41.4797683" lon="14.5005667"><ele>488.33333333333337</ele><time>2026-04-19T09:36:07.146Z</time></trkpt><trkpt lat="41.4798783" lon="14.50035"><ele>487.6666666666667</ele><time>2026-04-19T09:36:08.147Z</time></trkpt><trkpt lat="41.4799883" lon="14.500135"><ele>487.0</ele><time>2026-04-19T09:36:09.147Z</time></trkpt><trkpt lat="41.4801017" lon="14.49992"><ele>487.0</ele><time>2026-04-19T09:36:10.147Z</time></trkpt><trkpt lat="41.480215" lon="14.4996983"><ele>487.0</ele><time>2026-04-19T09:36:11.147Z</time></trkpt><trkpt lat="41.4803233" lon="14.4994817"><ele>487.0</ele><time>2026-04-19T09:36:12.146Z</time></trkpt><trkpt lat="41.4804417" lon="14.4992583"><ele>485.33333333333337</ele><time>2026-04-19T09:36:13.146Z</time></trkpt><trkpt lat="41.4805567" lon="14.49904"><ele>483.66666666666663</ele><time>2026-04-19T09:36:14.146Z</time></trkpt><trkpt lat="41.4806733" lon="14.4988267"><ele>482.0</ele><time>2026-04-19T09:36:15.147Z</time></trkpt><trkpt lat="41.4807867" lon="14.49861"><ele>481.66666666666663</ele><time>2026-04-19T09:36:16.146Z</time></trkpt><trkpt lat="41.4808967" lon="14.4983933"><ele>481.33333333333337</ele><time>2026-04-19T09:36:17.146Z</time></trkpt><trkpt lat="41.4810133" lon="14.4981733"><ele>481.0</ele><time>2026-04-19T09:36:18.147Z</time></trkpt><trkpt lat="41.4811233" lon="14.4979583"><ele>481.0</ele><time>2026-04-19T09:36:19.147Z</time></trkpt><trkpt lat="41.4812333" lon="14.4977517"><ele>481.0</ele><time>2026-04-19T09:36:20.147Z</time></trkpt><trkpt lat="41.481335" lon="14.497545"><ele>481.0</ele><time>2026-04-19T09:36:21.147Z</time></trkpt><trkpt lat="41.4814433" lon="14.497335"><ele>481.0</ele><time>2026-04-19T09:36:22.146Z</time></trkpt><trkpt lat="41.4815483" lon="14.4971383"><ele>481.0</ele><time>2026-04-19T09:36:23.147Z</time></trkpt><trkpt lat="41.4816517" lon="14.49694"><ele>481.0</ele><time>2026-04-19T09:36:24.147Z</time></trkpt><trkpt lat="41.48175" lon="14.4967433"><ele>481.0</ele><time>2026-04-19T09:36:25.147Z</time></trkpt><trkpt lat="41.481855" lon="14.4965467"><ele>481.0</ele><time>2026-04-19T09:36:26.147Z</time></trkpt><trkpt lat="41.4819583" lon="14.4963517"><ele>481.0</ele><time>2026-04-19T09:36:27.146Z</time></trkpt><trkpt lat="41.482065" lon="14.496155"><ele>480.0</ele><time>2026-04-19T09:36:28.147Z</time></trkpt><trkpt lat="41.4821667" lon="14.495955"><ele>479.0</ele><time>2026-04-19T09:36:29.146Z</time></trkpt><trkpt lat="41.4822733" lon="14.4957533"><ele>478.0</ele><time>2026-04-19T09:36:30.146Z</time></trkpt><trkpt lat="41.482375" lon="14.4955517"><ele>478.0</ele><time>2026-04-19T09:36:31.147Z</time></trkpt><trkpt lat="41.4824867" lon="14.4953467"><ele>478.0</ele><time>2026-04-19T09:36:32.146Z</time></trkpt><trkpt lat="41.48259" lon="14.495135"><ele>478.0</ele><time>2026-04-19T09:36:33.147Z</time></trkpt><trkpt lat="41.4827033" lon="14.49493"><ele>478.0</ele><time>2026-04-19T09:36:34.147Z</time></trkpt><trkpt lat="41.4828117" lon="14.4947217"><ele>478.0</ele><time>2026-04-19T09:36:35.146Z</time></trkpt><trkpt lat="41.4829217" lon="14.4945133"><ele>478.0</ele><time>2026-04-19T09:36:36.147Z</time></trkpt><trkpt lat="41.4830283" lon="14.4943"><ele>478.0</ele><time>2026-04-19T09:36:37.146Z</time></trkpt><trkpt lat="41.4831317" lon="14.4940983"><ele>478.0</ele><time>2026-04-19T09:36:38.147Z</time></trkpt><trkpt lat="41.4832333" lon="14.493895"><ele>478.0</ele><time>2026-04-19T09:36:39.146Z</time></trkpt><trkpt lat="41.4833433" lon="14.4936883"><ele>477.33333333333337</ele><time>2026-04-19T09:36:40.147Z</time></trkpt><trkpt lat="41.4834483" lon="14.493485"><ele>476.66666666666663</ele><time>2026-04-19T09:36:41.147Z</time></trkpt><trkpt lat="41.4835567" lon="14.493285"><ele>476.0</ele><time>2026-04-19T09:36:42.147Z</time></trkpt><trkpt lat="41.483655" lon="14.49309"><ele>476.3333333333333</ele><time>2026-04-19T09:36:43.146Z</time></trkpt><trkpt lat="41.48376" lon="14.4929"><ele>476.66666666666663</ele><time>2026-04-19T09:36:44.147Z</time></trkpt><trkpt lat="41.4838617" lon="14.492705"><ele>477.0</ele><time>2026-04-19T09:36:45.146Z</time></trkpt><trkpt lat="41.4839617" lon="14.4925133"><ele>477.0</ele><time>2026-04-19T09:36:46.147Z</time></trkpt><trkpt lat="41.4840567" lon="14.4923167"><ele>477.0</ele><time>2026-04-19T09:36:47.147Z</time></trkpt><trkpt lat="41.4841483" lon="14.4921167"><ele>477.0</ele><time>2026-04-19T09:36:48.146Z</time></trkpt><trkpt lat="41.4842433" lon="14.4919167"><ele>477.33333333333337</ele><time>2026-04-19T09:36:49.146Z</time></trkpt><trkpt lat="41.4843367" lon="14.4917067"><ele>477.6666666666667</ele><time>2026-04-19T09:36:50.146Z</time></trkpt><trkpt lat="41.4844367" lon="14.4914983"><ele>478.0</ele><time>2026-04-19T09:36:51.147Z</time></trkpt><trkpt lat="41.4845317" lon="14.4912867"><ele>478.6666666666667</ele><time>2026-04-19T09:36:52.147Z</time></trkpt><trkpt lat="41.484625" lon="14.49108"><ele>479.33333333333337</ele><time>2026-04-19T09:36:53.146Z</time></trkpt><trkpt lat="41.48472" lon="14.4908767"><ele>480.0</ele><time>2026-04-19T09:36:54.147Z</time></trkpt><trkpt lat="41.4848083" lon="14.490675"><ele>480.0</ele><time>2026-04-19T09:36:55.146Z</time></trkpt><trkpt lat="41.4849083" lon="14.49047"><ele>480.0</ele><time>2026-04-19T09:36:56.147Z</time></trkpt><trkpt lat="41.4850017" lon="14.49027"><ele>480.0</ele><time>2026-04-19T09:36:57.146Z</time></trkpt><trkpt lat="41.4851033" lon="14.4900717"><ele>480.33333333333337</ele><time>2026-04-19T09:36:58.146Z</time></trkpt><trkpt lat="41.4851983" lon="14.4898583"><ele>480.6666666666667</ele><time>2026-04-19T09:36:59.147Z</time></trkpt><trkpt lat="41.4852867" lon="14.4896617"><ele>481.0</ele><time>2026-04-19T09:37:00.147Z</time></trkpt><trkpt lat="41.485385" lon="14.489455"><ele>481.0</ele><time>2026-04-19T09:37:01.147Z</time></trkpt><trkpt lat="41.4854767" lon="14.4892467"><ele>481.0</ele><time>2026-04-19T09:37:02.146Z</time></trkpt><trkpt lat="41.4855667" lon="14.48905"><ele>481.0</ele><time>2026-04-19T09:37:03.147Z</time></trkpt><trkpt lat="41.485665" lon="14.48884"><ele>480.33333333333337</ele><time>2026-04-19T09:37:04.147Z</time></trkpt><trkpt lat="41.4857517" lon="14.4886367"><ele>479.66666666666663</ele><time>2026-04-19T09:37:05.147Z</time></trkpt><trkpt lat="41.4858417" lon="14.48844"><ele>479.0</ele><time>2026-04-19T09:37:06.147Z</time></trkpt><trkpt lat="41.4859383" lon="14.4882383"><ele>479.0</ele><time>2026-04-19T09:37:07.147Z</time></trkpt><trkpt lat="41.4860367" lon="14.4880383"><ele>479.0</ele><time>2026-04-19T09:37:08.147Z</time></trkpt><trkpt lat="41.486135" lon="14.48783"><ele>479.0</ele><time>2026-04-19T09:37:09.147Z</time></trkpt><trkpt lat="41.4862283" lon="14.4876217"><ele>478.66666666666663</ele><time>2026-04-19T09:37:10.147Z</time></trkpt><trkpt lat="41.48632" lon="14.4874133"><ele>478.33333333333337</ele><time>2026-04-19T09:37:11.147Z</time></trkpt><trkpt lat="41.4864217" lon="14.4872033"><ele>478.0</ele><time>2026-04-19T09:37:12.147Z</time></trkpt><trkpt lat="41.4865217" lon="14.4869917"><ele>478.0</ele><time>2026-04-19T09:37:13.146Z</time></trkpt><trkpt lat="41.4866183" lon="14.4867867"><ele>478.0</ele><time>2026-04-19T09:37:14.147Z</time></trkpt><trkpt lat="41.4867133" lon="14.486575"><ele>478.0</ele><time>2026-04-19T09:37:15.147Z</time></trkpt><trkpt lat="41.4868033" lon="14.4863717"><ele>478.33333333333337</ele><time>2026-04-19T09:37:16.147Z</time></trkpt><trkpt lat="41.4868983" lon="14.4861617"><ele>478.66666666666663</ele><time>2026-04-19T09:37:17.147Z</time></trkpt><trkpt lat="41.4869933" lon="14.4859517"><ele>479.0</ele><time>2026-04-19T09:37:18.147Z</time></trkpt><trkpt lat="41.4870867" lon="14.4857467"><ele>478.66666666666663</ele><time>2026-04-19T09:37:19.146Z</time></trkpt><trkpt lat="41.4871817" lon="14.4855517"><ele>478.33333333333337</ele><time>2026-04-19T09:37:20.147Z</time></trkpt><trkpt lat="41.4872783" lon="14.4853433"><ele>478.0</ele><time>2026-04-19T09:37:21.147Z</time></trkpt><trkpt lat="41.4873667" lon="14.4851517"><ele>478.6666666666667</ele><time>2026-04-19T09:37:22.147Z</time></trkpt><trkpt lat="41.4874583" lon="14.484955"><ele>479.33333333333337</ele><time>2026-04-19T09:37:23.147Z</time></trkpt><trkpt lat="41.4875517" lon="14.4847583"><ele>480.0</ele><time>2026-04-19T09:37:24.147Z</time></trkpt><trkpt lat="41.4876417" lon="14.4845717"><ele>480.0</ele><time>2026-04-19T09:37:25.147Z</time></trkpt><trkpt lat="41.4877283" lon="14.48438"><ele>480.0</ele><time>2026-04-19T09:37:26.147Z</time></trkpt><trkpt lat="41.48782" lon="14.4841917"><ele>480.0</ele><time>2026-04-19T09:37:27.147Z</time></trkpt><trkpt lat="41.4879117" lon="14.4840017"><ele>480.33333333333337</ele><time>2026-04-19T09:37:28.146Z</time></trkpt><trkpt lat="41.4880017" lon="14.4838117"><ele>480.6666666666667</ele><time>2026-04-19T09:37:29.147Z</time></trkpt><trkpt lat="41.4880833" lon="14.4836333"><ele>481.0</ele><time>2026-04-19T09:37:30.146Z</time></trkpt><trkpt lat="41.4881667" lon="14.48345"><ele>480.25</ele><time>2026-04-19T09:37:31.147Z</time></trkpt><trkpt lat="41.4882433" lon="14.4832817"><ele>479.5</ele><time>2026-04-19T09:37:32.147Z</time></trkpt><trkpt lat="41.4883217" lon="14.483115"><ele>478.75</ele><time>2026-04-19T09:37:33.147Z</time></trkpt><trkpt lat="41.4883967" lon="14.4829633"><ele>478.0</ele><time>2026-04-19T09:37:34.147Z</time></trkpt><trkpt lat="41.4884633" lon="14.4828117"><ele>478.0</ele><time>2026-04-19T09:37:35.146Z</time></trkpt><trkpt lat="41.4885383" lon="14.48266"><ele>478.0</ele><time>2026-04-19T09:37:36.147Z</time></trkpt><trkpt lat="41.4886117" lon="14.4825117"><ele>478.0</ele><time>2026-04-19T09:37:37.147Z</time></trkpt><trkpt lat="41.4886783" lon="14.482375"><ele>478.0</ele><time>2026-04-19T09:37:38.147Z</time></trkpt><trkpt lat="41.4887467" lon="14.482255"><ele>478.4</ele><time>2026-04-19T09:37:39.147Z</time></trkpt><trkpt lat="41.488805" lon="14.4821417"><ele>478.79999999999995</ele><time>2026-04-19T09:37:40.147Z</time></trkpt><trkpt lat="41.488865" lon="14.4820367"><ele>479.2</ele><time>2026-04-19T09:37:41.147Z</time></trkpt><trkpt lat="41.4889267" lon="14.481945"><ele>479.6</ele><time>2026-04-19T09:37:42.147Z</time></trkpt><trkpt lat="41.4889883" lon="14.48187"><ele>480.0</ele><time>2026-04-19T09:37:43.147Z</time></trkpt><trkpt lat="41.48905" lon="14.4817983"><ele>480.3333333333333</ele><time>2026-04-19T09:37:44.147Z</time></trkpt><trkpt lat="41.4891183" lon="14.4817383"><ele>480.66666666666663</ele><time>2026-04-19T09:37:45.147Z</time></trkpt><trkpt lat="41.4891883" lon="14.481675"><ele>481.0</ele><time>2026-04-19T09:37:46.147Z</time></trkpt><trkpt lat="41.4892533" lon="14.4816117"><ele>481.3333333333333</ele><time>2026-04-19T09:37:47.147Z</time></trkpt><trkpt lat="41.48932" lon="14.4815483"><ele>481.66666666666663</ele><time>2026-04-19T09:37:48.147Z</time></trkpt><trkpt lat="41.4893883" lon="14.4814817"><ele>482.0</ele><time>2026-04-19T09:37:49.146Z</time></trkpt><trkpt lat="41.4894567" lon="14.4814083"><ele>481.99999999999994</ele><time>2026-04-19T09:37:50.147Z</time></trkpt><trkpt lat="41.4895267" lon="14.481345"><ele>482.0</ele><time>2026-04-19T09:37:51.147Z</time></trkpt><trkpt lat="41.4895967" lon="14.4812817"><ele>482.0</ele><time>2026-04-19T09:37:52.147Z</time></trkpt><trkpt lat="41.489665" lon="14.4812233"><ele>482.0</ele><time>2026-04-19T09:37:53.147Z</time></trkpt><trkpt lat="41.4897367" lon="14.481165"><ele>481.99999999999994</ele><time>2026-04-19T09:37:54.147Z</time></trkpt><trkpt lat="41.4898067" lon="14.4811033"><ele>482.0</ele><time>2026-04-19T09:37:55.146Z</time></trkpt><trkpt lat="41.48988" lon="14.481035"><ele>481.6</ele><time>2026-04-19T09:37:56.147Z</time></trkpt><trkpt lat="41.4899517" lon="14.4809683"><ele>481.20000000000005</ele><time>2026-04-19T09:37:57.147Z</time></trkpt><trkpt lat="41.4900267" lon="14.4808983"><ele>480.8</ele><time>2026-04-19T09:37:58.146Z</time></trkpt><trkpt lat="41.4901033" lon="14.48084"><ele>480.4</ele><time>2026-04-19T09:37:59.146Z</time></trkpt><trkpt lat="41.4901717" lon="14.4807967"><ele>480.0</ele><time>2026-04-19T09:38:00.147Z</time></trkpt><trkpt lat="41.490275" lon="14.4807383"><ele>480.0</ele><time>2026-04-19T09:38:02.147Z</time></trkpt><trkpt lat="41.4903333" lon="14.48069"><ele>480.0</ele><time>2026-04-19T09:38:04.147Z</time></trkpt><trkpt lat="41.490355" lon="14.4805917"><ele>480.0</ele><time>2026-04-19T09:38:11.147Z</time></trkpt><trkpt lat="41.4902917" lon="14.4804817"><ele>480.0</ele><time>2026-04-19T09:38:14.147Z</time></trkpt><trkpt lat="41.4901883" lon="14.4804017"><ele>480.0</ele><time>2026-04-19T09:38:16.147Z</time></trkpt><trkpt lat="41.4901217" lon="14.480355"><ele>480.0</ele><time>2026-04-19T09:38:17.146Z</time></trkpt><trkpt lat="41.49004" lon="14.4802983"><ele>480.0</ele><time>2026-04-19T09:38:18.147Z</time></trkpt><trkpt lat="41.4899483" lon="14.48023"><ele>480.0</ele><time>2026-04-19T09:38:19.147Z</time></trkpt><trkpt lat="41.4898567" lon="14.48016"><ele>480.0</ele><time>2026-04-19T09:38:20.146Z</time></trkpt><trkpt lat="41.489765" lon="14.480085"><ele>480.0</ele><time>2026-04-19T09:38:21.147Z</time></trkpt><trkpt lat="41.4896467" lon="14.4800217"><ele>480.0</ele><time>2026-04-19T09:38:22.147Z</time></trkpt><trkpt lat="41.4895317" lon="14.4799367"><ele>480.0</ele><time>2026-04-19T09:38:23.147Z</time></trkpt><trkpt lat="41.4894217" lon="14.479845"><ele>480.0</ele><time>2026-04-19T09:38:24.147Z</time></trkpt><trkpt lat="41.4893117" lon="14.4797617"><ele>480.0</ele><time>2026-04-19T09:38:25.146Z</time></trkpt><trkpt lat="41.4892133" lon="14.4796733"><ele>480.0</ele><time>2026-04-19T09:38:26.146Z</time></trkpt><trkpt lat="41.489125" lon="14.4795833"><ele>480.0</ele><time>2026-04-19T09:38:27.146Z</time></trkpt><trkpt lat="41.489025" lon="14.4795133"><ele>480.0</ele><time>2026-04-19T09:38:28.146Z</time></trkpt><trkpt lat="41.4889267" lon="14.4794417"><ele>480.0</ele><time>2026-04-19T09:38:29.146Z</time></trkpt><trkpt lat="41.4888317" lon="14.4793733"><ele>480.0</ele><time>2026-04-19T09:38:30.147Z</time></trkpt><trkpt lat="41.4887367" lon="14.4792983"><ele>480.0</ele><time>2026-04-19T09:38:31.147Z</time></trkpt><trkpt lat="41.4886417" lon="14.4792267"><ele>480.6</ele><time>2026-04-19T09:38:32.146Z</time></trkpt><trkpt lat="41.4885467" lon="14.479155"><ele>481.2</ele><time>2026-04-19T09:38:33.146Z</time></trkpt><trkpt lat="41.488455" lon="14.47908"><ele>481.79999999999995</ele><time>2026-04-19T09:38:34.147Z</time></trkpt><trkpt lat="41.4883483" lon="14.479015"><ele>482.4</ele><time>2026-04-19T09:38:35.147Z</time></trkpt><trkpt lat="41.488245" lon="14.478955"><ele>483.0</ele><time>2026-04-19T09:38:36.146Z</time></trkpt><trkpt lat="41.48814" lon="14.4788867"><ele>483.0</ele><time>2026-04-19T09:38:37.147Z</time></trkpt><trkpt lat="41.4880383" lon="14.4787933"><ele>483.0</ele><time>2026-04-19T09:38:38.147Z</time></trkpt><trkpt lat="41.4879433" lon="14.47869"><ele>483.0</ele><time>2026-04-19T09:38:39.147Z</time></trkpt><trkpt lat="41.487845" lon="14.4786033"><ele>483.0</ele><time>2026-04-19T09:38:40.146Z</time></trkpt><trkpt lat="41.4877583" lon="14.4785233"><ele>482.59999999999997</ele><time>2026-04-19T09:38:41.147Z</time></trkpt><trkpt lat="41.4876767" lon="14.4784383"><ele>482.19999999999993</ele><time>2026-04-19T09:38:42.146Z</time></trkpt><trkpt lat="41.4876017" lon="14.4783533"><ele>481.8</ele><time>2026-04-19T09:38:43.147Z</time></trkpt><trkpt lat="41.4875233" lon="14.47827"><ele>481.4</ele><time>2026-04-19T09:38:44.146Z</time></trkpt><trkpt lat="41.48744" lon="14.47818"><ele>481.0</ele><time>2026-04-19T09:38:45.147Z</time></trkpt><trkpt lat="41.4873633" lon="14.478105"><ele>481.00000000000006</ele><time>2026-04-19T09:38:46.146Z</time></trkpt><trkpt lat="41.4872933" lon="14.4780367"><ele>481.0</ele><time>2026-04-19T09:38:47.147Z</time></trkpt><trkpt lat="41.4872233" lon="14.4779733"><ele>481.0</ele><time>2026-04-19T09:38:48.147Z</time></trkpt><trkpt lat="41.4871567" lon="14.47792"><ele>481.0</ele><time>2026-04-19T09:38:49.147Z</time></trkpt><trkpt lat="41.4870883" lon="14.4778733"><ele>481.00000000000006</ele><time>2026-04-19T09:38:50.146Z</time></trkpt><trkpt lat="41.4870217" lon="14.4778333"><ele>481.0</ele><time>2026-04-19T09:38:51.147Z</time></trkpt><trkpt lat="41.486955" lon="14.4777983"><ele>481.1666666666667</ele><time>2026-04-19T09:38:52.147Z</time></trkpt><trkpt lat="41.4868917" lon="14.477765"><ele>481.33333333333337</ele><time>2026-04-19T09:38:53.147Z</time></trkpt><trkpt lat="41.4868317" lon="14.4777367"><ele>481.5</ele><time>2026-04-19T09:38:54.146Z</time></trkpt><trkpt lat="41.4867617" lon="14.4777033"><ele>481.66666666666663</ele><time>2026-04-19T09:38:55.147Z</time></trkpt><trkpt lat="41.4866833" lon="14.47766"><ele>481.8333333333333</ele><time>2026-04-19T09:38:56.147Z</time></trkpt><trkpt lat="41.4866067" lon="14.4776083"><ele>482.0</ele><time>2026-04-19T09:38:57.147Z</time></trkpt><trkpt lat="41.4865183" lon="14.47755"><ele>481.99999999999994</ele><time>2026-04-19T09:38:58.147Z</time></trkpt><trkpt lat="41.4864267" lon="14.4775"><ele>482.0</ele><time>2026-04-19T09:38:59.147Z</time></trkpt><trkpt lat="41.4863417" lon="14.477445"><ele>482.0</ele><time>2026-04-19T09:39:00.146Z</time></trkpt><trkpt lat="41.4862617" lon="14.4773933"><ele>482.0</ele><time>2026-04-19T09:39:01.147Z</time></trkpt><trkpt lat="41.48619" lon="14.4773367"><ele>481.99999999999994</ele><time>2026-04-19T09:39:02.147Z</time></trkpt><trkpt lat="41.4861183" lon="14.47728"><ele>482.0</ele><time>2026-04-19T09:39:03.147Z</time></trkpt><trkpt lat="41.4860533" lon="14.477215"><ele>481.8</ele><time>2026-04-19T09:39:04.147Z</time></trkpt><trkpt lat="41.485995" lon="14.4771483"><ele>481.6</ele><time>2026-04-19T09:39:05.147Z</time></trkpt><trkpt lat="41.4859017" lon="14.4770567"><ele>481.40000000000003</ele><time>2026-04-19T09:39:07.147Z</time></trkpt><trkpt lat="41.4858283" lon="14.4769583"><ele>481.20000000000005</ele><time>2026-04-19T09:39:09.147Z</time></trkpt><trkpt lat="41.4857683" lon="14.4768567"><ele>481.0</ele><time>2026-04-19T09:39:11.147Z</time></trkpt><trkpt lat="41.4856917" lon="14.4767583"><ele>481.6</ele><time>2026-04-19T09:39:13.147Z</time></trkpt><trkpt lat="41.485605" lon="14.4766617"><ele>482.20000000000005</ele><time>2026-04-19T09:39:15.146Z</time></trkpt><trkpt lat="41.485505" lon="14.4765483"><ele>482.79999999999995</ele><time>2026-04-19T09:39:17.146Z</time></trkpt><trkpt lat="41.4854517" lon="14.4764817"><ele>483.4</ele><time>2026-04-19T09:39:18.147Z</time></trkpt><trkpt lat="41.4853967" lon="14.4764167"><ele>484.0</ele><time>2026-04-19T09:39:19.147Z</time></trkpt><trkpt lat="41.48534" lon="14.4763617"><ele>484.1428571428571</ele><time>2026-04-19T09:39:20.147Z</time></trkpt><trkpt lat="41.4852867" lon="14.476315"><ele>484.2857142857142</ele><time>2026-04-19T09:39:21.147Z</time></trkpt><trkpt lat="41.4852333" lon="14.4762667"><ele>484.42857142857144</ele><time>2026-04-19T09:39:22.146Z</time></trkpt><trkpt lat="41.4851783" lon="14.4762217"><ele>484.57142857142856</ele><time>2026-04-19T09:39:23.147Z</time></trkpt><trkpt lat="41.4851233" lon="14.476175"><ele>484.7142857142857</ele><time>2026-04-19T09:39:24.146Z</time></trkpt><trkpt lat="41.4850717" lon="14.476115"><ele>484.8571428571429</ele><time>2026-04-19T09:39:25.147Z</time></trkpt><trkpt lat="41.4850167" lon="14.47607"><ele>485.00000000000006</ele><time>2026-04-19T09:39:26.147Z</time></trkpt><trkpt lat="41.4849567" lon="14.47603"><ele>484.99999999999994</ele><time>2026-04-19T09:39:27.147Z</time></trkpt><trkpt lat="41.4849033" lon="14.475985"><ele>485.0</ele><time>2026-04-19T09:39:28.147Z</time></trkpt><trkpt lat="41.4848533" lon="14.4759333"><ele>485.0</ele><time>2026-04-19T09:39:29.147Z</time></trkpt><trkpt lat="41.4847967" lon="14.475885"><ele>485.0</ele><time>2026-04-19T09:39:30.147Z</time></trkpt><trkpt lat="41.4847383" lon="14.4758367"><ele>484.99999999999994</ele><time>2026-04-19T09:39:31.146Z</time></trkpt><trkpt lat="41.4846483" lon="14.4757417"><ele>485.0</ele><time>2026-04-19T09:39:33.146Z</time></trkpt><trkpt lat="41.48456" lon="14.47568"><ele>485.0</ele><time>2026-04-19T09:39:35.146Z</time></trkpt><trkpt lat="41.484485" lon="14.475615"><ele>485.0</ele><time>2026-04-19T09:39:37.147Z</time></trkpt><trkpt lat="41.4843933" lon="14.4755367"><ele>485.0</ele><time>2026-04-19T09:39:39.147Z</time></trkpt><trkpt lat="41.4842867" lon="14.47548"><ele>485.0</ele><time>2026-04-19T09:39:41.147Z</time></trkpt><trkpt lat="41.484185" lon="14.4754017"><ele>485.0</ele><time>2026-04-19T09:39:43.147Z</time></trkpt><trkpt lat="41.48409" lon="14.475335"><ele>484.8</ele><time>2026-04-19T09:39:45.147Z</time></trkpt><trkpt lat="41.4840033" lon="14.4752467"><ele>484.6</ele><time>2026-04-19T09:39:47.146Z</time></trkpt><trkpt lat="41.48389" lon="14.4751767"><ele>484.4</ele><time>2026-04-19T09:39:49.147Z</time></trkpt><trkpt lat="41.4838233" lon="14.4751233"><ele>484.2</ele><time>2026-04-19T09:39:50.147Z</time></trkpt><trkpt lat="41.4837583" lon="14.4750717"><ele>484.0</ele><time>2026-04-19T09:39:51.147Z</time></trkpt><trkpt lat="41.4836917" lon="14.475015"><ele>484.0</ele><time>2026-04-19T09:39:52.146Z</time></trkpt><trkpt lat="41.483625" lon="14.4749667"><ele>484.0</ele><time>2026-04-19T09:39:53.146Z</time></trkpt><trkpt lat="41.4835233" lon="14.4748917"><ele>484.0</ele><time>2026-04-19T09:39:55.147Z</time></trkpt><trkpt lat="41.48345" lon="14.47485"><ele>484.0</ele><time>2026-04-19T09:39:57.146Z</time></trkpt><trkpt lat="41.483355" lon="14.4748467"><ele>484.0</ele><time>2026-04-19T09:39:59.147Z</time></trkpt><trkpt lat="41.4832433" lon="14.4748267"><ele>484.0</ele><time>2026-04-19T09:40:01.147Z</time></trkpt><trkpt lat="41.483115" lon="14.4747783"><ele>484.0</ele><time>2026-04-19T09:40:03.147Z</time></trkpt><trkpt lat="41.48305" lon="14.47472"><ele>484.0</ele><time>2026-04-19T09:40:04.146Z</time></trkpt><trkpt lat="41.482985" lon="14.4746433"><ele>484.0</ele><time>2026-04-19T09:40:05.147Z</time></trkpt><trkpt lat="41.4829267" lon="14.4745633"><ele>484.0</ele><time>2026-04-19T09:40:06.147Z</time></trkpt><trkpt lat="41.4828583" lon="14.4745033"><ele>484.1666666666667</ele><time>2026-04-19T09:40:07.147Z</time></trkpt><trkpt lat="41.4827883" lon="14.4744383"><ele>484.33333333333337</ele><time>2026-04-19T09:40:08.147Z</time></trkpt><trkpt lat="41.48271" lon="14.47437"><ele>484.5</ele><time>2026-04-19T09:40:09.147Z</time></trkpt><trkpt lat="41.4826317" lon="14.474295"><ele>484.66666666666663</ele><time>2026-04-19T09:40:10.146Z</time></trkpt><trkpt lat="41.4825633" lon="14.4742283"><ele>484.8333333333333</ele><time>2026-04-19T09:40:11.147Z</time></trkpt><trkpt lat="41.4824917" lon="14.4741783"><ele>485.0</ele><time>2026-04-19T09:40:12.146Z</time></trkpt><trkpt lat="41.4824167" lon="14.47413"><ele>484.99999999999994</ele><time>2026-04-19T09:40:13.147Z</time></trkpt><trkpt lat="41.48235" lon="14.4740733"><ele>485.0</ele><time>2026-04-19T09:40:14.147Z</time></trkpt><trkpt lat="41.4822883" lon="14.4740183"><ele>485.0</ele><time>2026-04-19T09:40:15.147Z</time></trkpt><trkpt lat="41.4822317" lon="14.4739667"><ele>485.0</ele><time>2026-04-19T09:40:16.146Z</time></trkpt><trkpt lat="41.4821833" lon="14.4739117"><ele>484.99999999999994</ele><time>2026-04-19T09:40:17.147Z</time></trkpt><trkpt lat="41.4821117" lon="14.4738217"><ele>485.0</ele><time>2026-04-19T09:40:19.147Z</time></trkpt><trkpt lat="41.4820483" lon="14.4737667"><ele>485.2</ele><time>2026-04-19T09:40:22.146Z</time></trkpt><trkpt lat="41.48199" lon="14.4736783"><ele>485.4</ele><time>2026-04-19T09:40:25.146Z</time></trkpt><trkpt lat="41.48197" lon="14.47356"><ele>485.6</ele><time>2026-04-19T09:40:27.146Z</time></trkpt><trkpt lat="41.4820083" lon="14.4734167"><ele>485.8</ele><time>2026-04-19T09:40:29.147Z</time></trkpt><trkpt lat="41.4820583" lon="14.4732983"><ele>486.0</ele><time>2026-04-19T09:40:31.146Z</time></trkpt><trkpt lat="41.4821167" lon="14.4731717"><ele>486.0</ele><time>2026-04-19T09:40:33.147Z</time></trkpt><trkpt lat="41.4821533" lon="14.4730183"><ele>486.0</ele><time>2026-04-19T09:40:35.147Z</time></trkpt><trkpt lat="41.482205" lon="14.472875"><ele>486.0</ele><time>2026-04-19T09:40:37.146Z</time></trkpt><trkpt lat="41.4822367" lon="14.4728017"><ele>486.0</ele><time>2026-04-19T09:40:38.146Z</time></trkpt><trkpt lat="41.482265" lon="14.4727233"><ele>486.0</ele><time>2026-04-19T09:40:39.147Z</time></trkpt><trkpt lat="41.4823133" lon="14.4725783"><ele>486.4</ele><time>2026-04-19T09:40:41.147Z</time></trkpt><trkpt lat="41.4823383" lon="14.4724533"><ele>486.8</ele><time>2026-04-19T09:40:43.147Z</time></trkpt><trkpt lat="41.4823683" lon="14.4723583"><ele>487.19999999999993</ele><time>2026-04-19T09:40:45.147Z</time></trkpt><trkpt lat="41.4824017" lon="14.472235"><ele>487.59999999999997</ele><time>2026-04-19T09:40:47.146Z</time></trkpt><trkpt lat="41.482455" lon="14.4720967"><ele>488.0</ele><time>2026-04-19T09:40:49.147Z</time></trkpt><trkpt lat="41.4824867" lon="14.47202"><ele>488.2857142857142</ele><time>2026-04-19T09:40:50.146Z</time></trkpt><trkpt lat="41.48252" lon="14.4719367"><ele>488.57142857142856</ele><time>2026-04-19T09:40:51.146Z</time></trkpt><trkpt lat="41.4825483" lon="14.47185"><ele>488.85714285714283</ele><time>2026-04-19T09:40:52.147Z</time></trkpt><trkpt lat="41.4825717" lon="14.47176"><ele>489.1428571428571</ele><time>2026-04-19T09:40:53.146Z</time></trkpt><trkpt lat="41.4825967" lon="14.47167"><ele>489.42857142857144</ele><time>2026-04-19T09:40:54.147Z</time></trkpt><trkpt lat="41.4826283" lon="14.4715817"><ele>489.7142857142857</ele><time>2026-04-19T09:40:55.147Z</time></trkpt><trkpt lat="41.482655" lon="14.4714983"><ele>490.0</ele><time>2026-04-19T09:40:56.147Z</time></trkpt><trkpt lat="41.4827117" lon="14.4713483"><ele>490.2857142857143</ele><time>2026-04-19T09:40:58.146Z</time></trkpt><trkpt lat="41.4827433" lon="14.47127"><ele>490.57142857142856</ele><time>2026-04-19T09:40:59.147Z</time></trkpt><trkpt lat="41.4827783" lon="14.47119"><ele>490.8571428571429</ele><time>2026-04-19T09:41:00.147Z</time></trkpt><trkpt lat="41.482815" lon="14.4711083"><ele>491.14285714285717</ele><time>2026-04-19T09:41:01.146Z</time></trkpt><trkpt lat="41.482855" lon="14.4710283"><ele>491.42857142857144</ele><time>2026-04-19T09:41:02.147Z</time></trkpt><trkpt lat="41.48289" lon="14.4709467"><ele>491.7142857142858</ele><time>2026-04-19T09:41:03.147Z</time></trkpt><trkpt lat="41.4829217" lon="14.470865"><ele>492.00000000000006</ele><time>2026-04-19T09:41:04.147Z</time></trkpt><trkpt lat="41.4829483" lon="14.4707867"><ele>491.6</ele><time>2026-04-19T09:41:05.147Z</time></trkpt><trkpt lat="41.4830067" lon="14.47065"><ele>491.20000000000005</ele><time>2026-04-19T09:41:07.146Z</time></trkpt><trkpt lat="41.483065" lon="14.470535"><ele>490.8</ele><time>2026-04-19T09:41:09.147Z</time></trkpt><trkpt lat="41.4830533" lon="14.4704033"><ele>490.4</ele><time>2026-04-19T09:41:11.146Z</time></trkpt><trkpt lat="41.4830283" lon="14.4702717"><ele>490.0</ele><time>2026-04-19T09:41:13.146Z</time></trkpt><trkpt lat="41.482985" lon="14.4701667"><ele>490.0</ele><time>2026-04-19T09:41:15.147Z</time></trkpt><trkpt lat="41.4829367" lon="14.4700867"><ele>490.0</ele><time>2026-04-19T09:41:17.147Z</time></trkpt><trkpt lat="41.48287" lon="14.4700017"><ele>490.0</ele><time>2026-04-19T09:41:19.146Z</time></trkpt><trkpt lat="41.4828033" lon="14.4699017"><ele>490.0</ele><time>2026-04-19T09:41:21.146Z</time></trkpt><trkpt lat="41.4827067" lon="14.4698083"><ele>490.0</ele><time>2026-04-19T09:41:23.146Z</time></trkpt><trkpt lat="41.48265" lon="14.469765"><ele>490.83333333333337</ele><time>2026-04-19T09:41:24.147Z</time></trkpt><trkpt lat="41.4825917" lon="14.469725"><ele>491.6666666666667</ele><time>2026-04-19T09:41:25.147Z</time></trkpt><trkpt lat="41.4825217" lon="14.4696917"><ele>492.5</ele><time>2026-04-19T09:41:26.146Z</time></trkpt><trkpt lat="41.4824533" lon="14.46966"><ele>493.33333333333337</ele><time>2026-04-19T09:41:27.147Z</time></trkpt><trkpt lat="41.4823883" lon="14.46964"><ele>494.1666666666667</ele><time>2026-04-19T09:41:28.147Z</time></trkpt><trkpt lat="41.4823" lon="14.469585"><ele>495.0</ele><time>2026-04-19T09:41:30.147Z</time></trkpt><trkpt lat="41.4822733" lon="14.469475"><ele>495.0</ele><time>2026-04-19T09:41:32.146Z</time></trkpt><trkpt lat="41.4823217" lon="14.4693383"><ele>495.0</ele><time>2026-04-19T09:41:34.146Z</time></trkpt><trkpt lat="41.4823567" lon="14.4692667"><ele>495.0</ele><time>2026-04-19T09:41:35.146Z</time></trkpt><trkpt lat="41.4823733" lon="14.4691767"><ele>495.0</ele><time>2026-04-19T09:41:36.146Z</time></trkpt><trkpt lat="41.48238" lon="14.469085"><ele>495.0</ele><time>2026-04-19T09:41:37.147Z</time></trkpt><trkpt lat="41.48238" lon="14.46899"><ele>495.0</ele><time>2026-04-19T09:41:38.147Z</time></trkpt><trkpt lat="41.4823567" lon="14.4688833"><ele>495.1666666666667</ele><time>2026-04-19T09:41:39.147Z</time></trkpt><trkpt lat="41.482335" lon="14.4687733"><ele>495.33333333333337</ele><time>2026-04-19T09:41:40.147Z</time></trkpt><trkpt lat="41.4823317" lon="14.4686517"><ele>495.5</ele><time>2026-04-19T09:41:41.147Z</time></trkpt><trkpt lat="41.4823217" lon="14.4685367"><ele>495.6666666666667</ele><time>2026-04-19T09:41:42.146Z</time></trkpt><trkpt lat="41.4823117" lon="14.4684383"><ele>495.83333333333337</ele><time>2026-04-19T09:41:43.147Z</time></trkpt><trkpt lat="41.48231" lon="14.4683283"><ele>496.0</ele><time>2026-04-19T09:41:44.147Z</time></trkpt><trkpt lat="41.4823" lon="14.4682167"><ele>496.00000000000006</ele><time>2026-04-19T09:41:45.146Z</time></trkpt><trkpt lat="41.4823083" lon="14.468105"><ele>496.0</ele><time>2026-04-19T09:41:46.146Z</time></trkpt><trkpt lat="41.482315" lon="14.46799"><ele>496.0</ele><time>2026-04-19T09:41:47.147Z</time></trkpt><trkpt lat="41.4823133" lon="14.46788"><ele>496.0</ele><time>2026-04-19T09:41:48.147Z</time></trkpt><trkpt lat="41.4823167" lon="14.4677717"><ele>496.00000000000006</ele><time>2026-04-19T09:41:49.146Z</time></trkpt><trkpt lat="41.48233" lon="14.4676583"><ele>496.0</ele><time>2026-04-19T09:41:50.147Z</time></trkpt><trkpt lat="41.4823483" lon="14.46754"><ele>496.83333333333337</ele><time>2026-04-19T09:41:51.147Z</time></trkpt><trkpt lat="41.4823633" lon="14.4674283"><ele>497.6666666666667</ele><time>2026-04-19T09:41:52.147Z</time></trkpt><trkpt lat="41.4823667" lon="14.4673233"><ele>498.5</ele><time>2026-04-19T09:41:53.147Z</time></trkpt><trkpt lat="41.4823567" lon="14.4672167"><ele>499.33333333333337</ele><time>2026-04-19T09:41:54.147Z</time></trkpt><trkpt lat="41.4823483" lon="14.4671017"><ele>500.1666666666667</ele><time>2026-04-19T09:41:55.147Z</time></trkpt><trkpt lat="41.4823367" lon="14.4669983"><ele>501.0</ele><time>2026-04-19T09:41:56.146Z</time></trkpt><trkpt lat="41.48234" lon="14.4669033"><ele>501.6</ele><time>2026-04-19T09:41:57.146Z</time></trkpt><trkpt lat="41.4823533" lon="14.4667533"><ele>502.20000000000005</ele><time>2026-04-19T09:41:59.147Z</time></trkpt><trkpt lat="41.4823433" lon="14.466615"><ele>502.79999999999995</ele><time>2026-04-19T09:42:01.147Z</time></trkpt><trkpt lat="41.4822983" lon="14.4665283"><ele>503.4</ele><time>2026-04-19T09:42:03.146Z</time></trkpt><trkpt lat="41.48223" lon="14.4665467"><ele>504.0</ele><time>2026-04-19T09:42:05.147Z</time></trkpt><trkpt lat="41.482205" lon="14.4667033"><ele>504.0</ele><time>2026-04-19T09:42:07.147Z</time></trkpt><trkpt lat="41.4822017" lon="14.4668067"><ele>504.0</ele><time>2026-04-19T09:42:08.147Z</time></trkpt><trkpt lat="41.4821917" lon="14.466915"><ele>504.0</ele><time>2026-04-19T09:42:09.146Z</time></trkpt><trkpt lat="41.4821717" lon="14.4670267"><ele>504.0</ele><time>2026-04-19T09:42:10.147Z</time></trkpt><trkpt lat="41.482135" lon="14.4671183"><ele>504.0</ele><time>2026-04-19T09:42:11.147Z</time></trkpt><trkpt lat="41.4820817" lon="14.4671933"><ele>504.0</ele><time>2026-04-19T09:42:12.146Z</time></trkpt><trkpt lat="41.4820233" lon="14.4672583"><ele>508.0</ele><time>2026-04-19T09:42:13.146Z</time></trkpt><trkpt lat="41.481955" lon="14.4673133"><ele>512.0</ele><time>2026-04-19T09:42:14.147Z</time></trkpt><trkpt lat="41.4818883" lon="14.467365"><ele>516.0</ele><time>2026-04-19T09:42:15.147Z</time></trkpt><trkpt lat="41.4818267" lon="14.4674333"><ele>520.0</ele><time>2026-04-19T09:42:16.146Z</time></trkpt><trkpt lat="41.48177" lon="14.467515"><ele>524.0</ele><time>2026-04-19T09:42:17.147Z</time></trkpt><trkpt lat="41.48172" lon="14.4676183"><ele>528.0</ele><time>2026-04-19T09:42:18.147Z</time></trkpt><trkpt lat="41.4816733" lon="14.4677333"><ele>528.0</ele><time>2026-04-19T09:42:19.147Z</time></trkpt><trkpt lat="41.48163" lon="14.4678567"><ele>528.0</ele><time>2026-04-19T09:42:20.146Z</time></trkpt><trkpt lat="41.481595" lon="14.4679917"><ele>528.0</ele><time>2026-04-19T09:42:21.147Z</time></trkpt><trkpt lat="41.48156" lon="14.468125"><ele>528.0</ele><time>2026-04-19T09:42:22.147Z</time></trkpt><trkpt lat="41.481525" lon="14.46825"><ele>528.0</ele><time>2026-04-19T09:42:23.146Z</time></trkpt><trkpt lat="41.481485" lon="14.4683567"><ele>525.6</ele><time>2026-04-19T09:42:24.147Z</time></trkpt><trkpt lat="41.4814383" lon="14.4684517"><ele>523.1999999999999</ele><time>2026-04-19T09:42:25.147Z</time></trkpt><trkpt lat="41.48139" lon="14.468525"><ele>520.8</ele><time>2026-04-19T09:42:26.146Z</time></trkpt><trkpt lat="41.4813083" lon="14.46861"><ele>518.4</ele><time>2026-04-19T09:42:28.147Z</time></trkpt><trkpt lat="41.4812117" lon="14.4686333"><ele>516.0</ele><time>2026-04-19T09:42:30.147Z</time></trkpt><trkpt lat="41.4810883" lon="14.468615"><ele>520.6</ele><time>2026-04-19T09:42:32.147Z</time></trkpt><trkpt lat="41.4809767" lon="14.46859"><ele>525.2</ele><time>2026-04-19T09:42:34.147Z</time></trkpt><trkpt lat="41.48088" lon="14.4686217"><ele>529.8</ele><time>2026-04-19T09:42:36.146Z</time></trkpt><trkpt lat="41.4808183" lon="14.46872"><ele>534.4</ele><time>2026-04-19T09:42:38.147Z</time></trkpt><trkpt lat="41.4808067" lon="14.468805"><ele>539.0</ele><time>2026-04-19T09:42:39.146Z</time></trkpt><trkpt lat="41.4808067" lon="14.4689067"><ele>539.0</ele><time>2026-04-19T09:42:40.146Z</time></trkpt><trkpt lat="41.4808167" lon="14.4690333"><ele>539.0</ele><time>2026-04-19T09:42:41.147Z</time></trkpt><trkpt lat="41.4808367" lon="14.4692"><ele>539.0</ele><time>2026-04-19T09:42:42.146Z</time></trkpt><trkpt lat="41.48085" lon="14.4693633"><ele>539.0</ele><time>2026-04-19T09:42:43.147Z</time></trkpt><trkpt lat="41.48085" lon="14.4695283"><ele>538.5</ele><time>2026-04-19T09:42:44.147Z</time></trkpt><trkpt lat="41.4808483" lon="14.4696967"><ele>538.0</ele><time>2026-04-19T09:42:45.146Z</time></trkpt><trkpt lat="41.48084" lon="14.469865"><ele>537.5</ele><time>2026-04-19T09:42:46.147Z</time></trkpt><trkpt lat="41.4808217" lon="14.4700267"><ele>537.0</ele><time>2026-04-19T09:42:47.146Z</time></trkpt><trkpt lat="41.4808033" lon="14.47018"><ele>537.0</ele><time>2026-04-19T09:42:48.147Z</time></trkpt><trkpt lat="41.4807833" lon="14.4703417"><ele>537.0</ele><time>2026-04-19T09:42:49.147Z</time></trkpt><trkpt lat="41.4807667" lon="14.4704983"><ele>537.0</ele><time>2026-04-19T09:42:50.147Z</time></trkpt><trkpt lat="41.48075" lon="14.4706617"><ele>537.0</ele><time>2026-04-19T09:42:51.146Z</time></trkpt><trkpt lat="41.48073" lon="14.4708267"><ele>537.0</ele><time>2026-04-19T09:42:52.146Z</time></trkpt><trkpt lat="41.4807033" lon="14.4709967"><ele>537.0</ele><time>2026-04-19T09:42:53.147Z</time></trkpt><trkpt lat="41.4806867" lon="14.47116"><ele>537.0</ele><time>2026-04-19T09:42:54.147Z</time></trkpt><trkpt lat="41.480675" lon="14.471335"><ele>537.0</ele><time>2026-04-19T09:42:55.147Z</time></trkpt><trkpt lat="41.4806683" lon="14.4714933"><ele>536.0</ele><time>2026-04-19T09:42:56.147Z</time></trkpt><trkpt lat="41.48065" lon="14.4716417"><ele>535.0</ele><time>2026-04-19T09:42:57.146Z</time></trkpt><trkpt lat="41.4806217" lon="14.471775"><ele>534.0</ele><time>2026-04-19T09:42:58.146Z</time></trkpt><trkpt lat="41.4805967" lon="14.4719067"><ele>533.0</ele><time>2026-04-19T09:42:59.146Z</time></trkpt><trkpt lat="41.480565" lon="14.4720333"><ele>532.0</ele><time>2026-04-19T09:43:00.146Z</time></trkpt><trkpt lat="41.4805233" lon="14.472165"><ele>530.8000000000001</ele><time>2026-04-19T09:43:01.146Z</time></trkpt><trkpt lat="41.48047" lon="14.4723083"><ele>529.6</ele><time>2026-04-19T09:43:02.147Z</time></trkpt><trkpt lat="41.48042" lon="14.47245"><ele>528.4000000000001</ele><time>2026-04-19T09:43:03.146Z</time></trkpt><trkpt lat="41.4803717" lon="14.4725817"><ele>527.2</ele><time>2026-04-19T09:43:04.146Z</time></trkpt><trkpt lat="41.4803367" lon="14.4727083"><ele>526.0</ele><time>2026-04-19T09:43:05.146Z</time></trkpt><trkpt lat="41.4802967" lon="14.4728533"><ele>535.75</ele><time>2026-04-19T09:43:06.146Z</time></trkpt><trkpt lat="41.48027" lon="14.4730083"><ele>545.5</ele><time>2026-04-19T09:43:07.147Z</time></trkpt><trkpt lat="41.4802567" lon="14.4731633"><ele>555.25</ele><time>2026-04-19T09:43:08.147Z</time></trkpt><trkpt lat="41.4802383" lon="14.4733133"><ele>565.0</ele><time>2026-04-19T09:43:09.146Z</time></trkpt><trkpt lat="41.4802183" lon="14.473445"><ele>565.0</ele><time>2026-04-19T09:43:10.147Z</time></trkpt><trkpt lat="41.4801767" lon="14.47358"><ele>565.0</ele><time>2026-04-19T09:43:11.146Z</time></trkpt><trkpt lat="41.4801267" lon="14.4737167"><ele>565.0</ele><time>2026-04-19T09:43:12.147Z</time></trkpt><trkpt lat="41.48007" lon="14.4738633"><ele>565.0</ele><time>2026-04-19T09:43:13.147Z</time></trkpt><trkpt lat="41.4800167" lon="14.47402"><ele>562.5</ele><time>2026-04-19T09:43:14.146Z</time></trkpt><trkpt lat="41.4799683" lon="14.4741767"><ele>560.0</ele><time>2026-04-19T09:43:15.147Z</time></trkpt><trkpt lat="41.4799367" lon="14.4743317"><ele>557.5</ele><time>2026-04-19T09:43:16.147Z</time></trkpt><trkpt lat="41.4799217" lon="14.474475"><ele>555.0</ele><time>2026-04-19T09:43:17.147Z</time></trkpt><trkpt lat="41.4799117" lon="14.4746"><ele>554.0</ele><time>2026-04-19T09:43:18.147Z</time></trkpt><trkpt lat="41.4799017" lon="14.474705"><ele>553.0</ele><time>2026-04-19T09:43:19.146Z</time></trkpt><trkpt lat="41.4798933" lon="14.474795"><ele>552.0</ele><time>2026-04-19T09:43:20.147Z</time></trkpt><trkpt lat="41.4798783" lon="14.4749433"><ele>551.0</ele><time>2026-04-19T09:43:22.147Z</time></trkpt><trkpt lat="41.4798167" lon="14.4750317"><ele>550.0</ele><time>2026-04-19T09:43:24.146Z</time></trkpt><trkpt lat="41.479745" lon="14.47498"><ele>549.0</ele><time>2026-04-19T09:43:26.147Z</time></trkpt><trkpt lat="41.4797167" lon="14.4748433"><ele>549.0</ele><time>2026-04-19T09:43:28.147Z</time></trkpt><trkpt lat="41.4797233" lon="14.4746783"><ele>549.0</ele><time>2026-04-19T09:43:30.147Z</time></trkpt><trkpt lat="41.4797217" lon="14.4745833"><ele>549.0</ele><time>2026-04-19T09:43:31.146Z</time></trkpt><trkpt lat="41.4797167" lon="14.474475"><ele>549.0</ele><time>2026-04-19T09:43:32.147Z</time></trkpt><trkpt lat="41.4797133" lon="14.4743567"><ele>549.0</ele><time>2026-04-19T09:43:33.147Z</time></trkpt><trkpt lat="41.479715" lon="14.47424"><ele>550.2</ele><time>2026-04-19T09:43:34.147Z</time></trkpt><trkpt lat="41.4797333" lon="14.47412"><ele>551.4</ele><time>2026-04-19T09:43:35.146Z</time></trkpt><trkpt lat="41.4797617" lon="14.47401"><ele>552.6</ele><time>2026-04-19T09:43:36.146Z</time></trkpt><trkpt lat="41.4798017" lon="14.4738883"><ele>553.8</ele><time>2026-04-19T09:43:37.146Z</time></trkpt><trkpt lat="41.4798433" lon="14.473765"><ele>555.0</ele><time>2026-04-19T09:43:38.146Z</time></trkpt><trkpt lat="41.4798683" lon="14.4736367"><ele>557.0</ele><time>2026-04-19T09:43:39.146Z</time></trkpt><trkpt lat="41.4798633" lon="14.473485"><ele>559.0</ele><time>2026-04-19T09:43:40.147Z</time></trkpt><trkpt lat="41.4798533" lon="14.47334"><ele>561.0</ele><time>2026-04-19T09:43:41.147Z</time></trkpt><trkpt lat="41.479835" lon="14.4732"><ele>563.0</ele><time>2026-04-19T09:43:42.147Z</time></trkpt><trkpt lat="41.4798167" lon="14.4730683"><ele>565.0</ele><time>2026-04-19T09:43:43.147Z</time></trkpt><trkpt lat="41.4798067" lon="14.472935"><ele>566.6</ele><time>2026-04-19T09:43:44.147Z</time></trkpt><trkpt lat="41.4798133" lon="14.4728117"><ele>568.2</ele><time>2026-04-19T09:43:45.147Z</time></trkpt><trkpt lat="41.4798233" lon="14.4726817"><ele>569.8</ele><time>2026-04-19T09:43:46.147Z</time></trkpt><trkpt lat="41.4798417" lon="14.472565"><ele>571.4</ele><time>2026-04-19T09:43:47.147Z</time></trkpt><trkpt lat="41.4798483" lon="14.472465"><ele>573.0</ele><time>2026-04-19T09:43:48.147Z</time></trkpt><trkpt lat="41.4798583" lon="14.4723117"><ele>573.0</ele><time>2026-04-19T09:43:50.146Z</time></trkpt><trkpt lat="41.4798283" lon="14.4722067"><ele>573.0</ele><time>2026-04-19T09:43:52.147Z</time></trkpt><trkpt lat="41.4797517" lon="14.4722267"><ele>573.0</ele><time>2026-04-19T09:43:54.147Z</time></trkpt><trkpt lat="41.479725" lon="14.4723083"><ele>573.0</ele><time>2026-04-19T09:43:55.147Z</time></trkpt><trkpt lat="41.47971" lon="14.472405"><ele>573.0</ele><time>2026-04-19T09:43:56.146Z</time></trkpt><trkpt lat="41.479695" lon="14.4725233"><ele>573.0</ele><time>2026-04-19T09:43:57.147Z</time></trkpt><trkpt lat="41.479685" lon="14.472655"><ele>573.0</ele><time>2026-04-19T09:43:58.147Z</time></trkpt><trkpt lat="41.4796717" lon="14.4727833"><ele>573.0</ele><time>2026-04-19T09:43:59.147Z</time></trkpt><trkpt lat="41.47966" lon="14.4729117"><ele>573.0</ele><time>2026-04-19T09:44:00.147Z</time></trkpt><trkpt lat="41.4796567" lon="14.473045"><ele>573.0</ele><time>2026-04-19T09:44:01.147Z</time></trkpt><trkpt lat="41.47965" lon="14.47318"><ele>573.0</ele><time>2026-04-19T09:44:02.147Z</time></trkpt><trkpt lat="41.479635" lon="14.473315"><ele>571.4</ele><time>2026-04-19T09:44:03.147Z</time></trkpt><trkpt lat="41.4796383" lon="14.4734533"><ele>569.8</ele><time>2026-04-19T09:44:04.147Z</time></trkpt><trkpt lat="41.4796233" lon="14.4735983"><ele>568.2</ele><time>2026-04-19T09:44:05.146Z</time></trkpt><trkpt lat="41.479585" lon="14.4737367"><ele>566.6</ele><time>2026-04-19T09:44:06.147Z</time></trkpt><trkpt lat="41.47953" lon="14.4738667"><ele>565.0</ele><time>2026-04-19T09:44:07.147Z</time></trkpt><trkpt lat="41.4794617" lon="14.4739983"><ele>574.5</ele><time>2026-04-19T09:44:08.146Z</time></trkpt><trkpt lat="41.4793967" lon="14.47414"><ele>584.0</ele><time>2026-04-19T09:44:09.147Z</time></trkpt><trkpt lat="41.4793367" lon="14.4742867"><ele>593.5</ele><time>2026-04-19T09:44:10.147Z</time></trkpt><trkpt lat="41.4792867" lon="14.4744433"><ele>603.0</ele><time>2026-04-19T09:44:11.146Z</time></trkpt><trkpt lat="41.4792367" lon="14.474595"><ele>600.6</ele><time>2026-04-19T09:44:12.147Z</time></trkpt><trkpt lat="41.4791883" lon="14.4747267"><ele>598.1999999999999</ele><time>2026-04-19T09:44:13.147Z</time></trkpt><trkpt lat="41.479145" lon="14.47485"><ele>595.8</ele><time>2026-04-19T09:44:14.146Z</time></trkpt><trkpt lat="41.4790917" lon="14.47497"><ele>593.4</ele><time>2026-04-19T09:44:15.146Z</time></trkpt><trkpt lat="41.479035" lon="14.4750767"><ele>591.0</ele><time>2026-04-19T09:44:16.147Z</time></trkpt><trkpt lat="41.478965" lon="14.4751817"><ele>591.0</ele><time>2026-04-19T09:44:17.147Z</time></trkpt><trkpt lat="41.4788967" lon="14.4752917"><ele>591.0</ele><time>2026-04-19T09:44:18.147Z</time></trkpt><trkpt lat="41.47884" lon="14.475425"><ele>591.0</ele><time>2026-04-19T09:44:19.147Z</time></trkpt><trkpt lat="41.4787883" lon="14.4755633"><ele>591.0</ele><time>2026-04-19T09:44:20.146Z</time></trkpt><trkpt lat="41.47873" lon="14.47569"><ele>591.0</ele><time>2026-04-19T09:44:21.147Z</time></trkpt><trkpt lat="41.4786783" lon="14.4758367"><ele>594.5</ele><time>2026-04-19T09:44:22.147Z</time></trkpt><trkpt lat="41.478635" lon="14.4759917"><ele>598.0</ele><time>2026-04-19T09:44:23.147Z</time></trkpt><trkpt lat="41.4785917" lon="14.4761583"><ele>601.5</ele><time>2026-04-19T09:44:24.147Z</time></trkpt><trkpt lat="41.4785417" lon="14.4763"><ele>605.0</ele><time>2026-04-19T09:44:25.147Z</time></trkpt><trkpt lat="41.4784817" lon="14.476425"><ele>605.0</ele><time>2026-04-19T09:44:26.146Z</time></trkpt><trkpt lat="41.4784083" lon="14.4765483"><ele>605.0</ele><time>2026-04-19T09:44:27.146Z</time></trkpt><trkpt lat="41.478325" lon="14.476675"><ele>605.0</ele><time>2026-04-19T09:44:28.147Z</time></trkpt><trkpt lat="41.4782433" lon="14.476795"><ele>605.0</ele><time>2026-04-19T09:44:29.146Z</time></trkpt><trkpt lat="41.4781383" lon="14.4769167"><ele>605.0</ele><time>2026-04-19T09:44:30.147Z</time></trkpt><trkpt lat="41.478035" lon="14.477025"><ele>605.0</ele><time>2026-04-19T09:44:31.147Z</time></trkpt><trkpt lat="41.47793" lon="14.4771233"><ele>605.0</ele><time>2026-04-19T09:44:32.147Z</time></trkpt><trkpt lat="41.477835" lon="14.477215"><ele>605.0</ele><time>2026-04-19T09:44:33.146Z</time></trkpt><trkpt lat="41.4777383" lon="14.4773183"><ele>608.0</ele><time>2026-04-19T09:44:34.147Z</time></trkpt><trkpt lat="41.4776483" lon="14.4774267"><ele>611.0</ele><time>2026-04-19T09:44:35.146Z</time></trkpt><trkpt lat="41.47758" lon="14.4775483"><ele>614.0</ele><time>2026-04-19T09:44:36.147Z</time></trkpt><trkpt lat="41.4775133" lon="14.477665"><ele>617.0</ele><time>2026-04-19T09:44:37.147Z</time></trkpt><trkpt lat="41.47746" lon="14.477785"><ele>617.0</ele><time>2026-04-19T09:44:38.147Z</time></trkpt><trkpt lat="41.47741" lon="14.4778817"><ele>617.0</ele><time>2026-04-19T09:44:39.146Z</time></trkpt><trkpt lat="41.4773667" lon="14.477965"><ele>617.0</ele><time>2026-04-19T09:44:40.147Z</time></trkpt><trkpt lat="41.4773233" lon="14.4780583"><ele>617.0</ele><time>2026-04-19T09:44:41.147Z</time></trkpt><trkpt lat="41.47728" lon="14.478135"><ele>617.0</ele><time>2026-04-19T09:44:42.147Z</time></trkpt><trkpt lat="41.47722" lon="14.4781867"><ele>617.0</ele><time>2026-04-19T09:44:43.146Z</time></trkpt><trkpt lat="41.4771483" lon="14.478215"><ele>617.3333333333333</ele><time>2026-04-19T09:44:44.146Z</time></trkpt><trkpt lat="41.4770733" lon="14.4781967"><ele>617.6666666666666</ele><time>2026-04-19T09:44:45.147Z</time></trkpt><trkpt lat="41.4770067" lon="14.4781467"><ele>618.0</ele><time>2026-04-19T09:44:46.147Z</time></trkpt><trkpt lat="41.4769367" lon="14.4780767"><ele>618.3333333333334</ele><time>2026-04-19T09:44:47.147Z</time></trkpt><trkpt lat="41.476885" lon="14.4779833"><ele>618.6666666666667</ele><time>2026-04-19T09:44:48.147Z</time></trkpt><trkpt lat="41.4768433" lon="14.4778717"><ele>619.0</ele><time>2026-04-19T09:44:49.146Z</time></trkpt><trkpt lat="41.4768033" lon="14.4777467"><ele>619.0</ele><time>2026-04-19T09:44:50.147Z</time></trkpt><trkpt lat="41.4767667" lon="14.4776067"><ele>619.0</ele><time>2026-04-19T09:44:51.147Z</time></trkpt><trkpt lat="41.4767183" lon="14.4774733"><ele>619.0</ele><time>2026-04-19T09:44:52.146Z</time></trkpt><trkpt lat="41.4766717" lon="14.4773267"><ele>619.0</ele><time>2026-04-19T09:44:53.147Z</time></trkpt><trkpt lat="41.47662" lon="14.477185"><ele>623.2</ele><time>2026-04-19T09:44:54.147Z</time></trkpt><trkpt lat="41.4765783" lon="14.4770433"><ele>627.4</ele><time>2026-04-19T09:44:55.147Z</time></trkpt><trkpt lat="41.476545" lon="14.4768983"><ele>631.6</ele><time>2026-04-19T09:44:56.147Z</time></trkpt><trkpt lat="41.476515" lon="14.4767617"><ele>635.8</ele><time>2026-04-19T09:44:57.146Z</time></trkpt><trkpt lat="41.47648" lon="14.4766283"><ele>640.0</ele><time>2026-04-19T09:44:58.147Z</time></trkpt><trkpt lat="41.476435" lon="14.4765083"><ele>640.0</ele><time>2026-04-19T09:44:59.147Z</time></trkpt><trkpt lat="41.4763917" lon="14.4763933"><ele>640.0</ele><time>2026-04-19T09:45:00.146Z</time></trkpt><trkpt lat="41.476345" lon="14.4762783"><ele>640.0</ele><time>2026-04-19T09:45:01.147Z</time></trkpt><trkpt lat="41.4762933" lon="14.4761667"><ele>640.0</ele><time>2026-04-19T09:45:02.146Z</time></trkpt><trkpt lat="41.476245" lon="14.4760567"><ele>640.0</ele><time>2026-04-19T09:45:03.146Z</time></trkpt><trkpt lat="41.4762017" lon="14.4759517"><ele>639.1666666666667</ele><time>2026-04-19T09:45:04.147Z</time></trkpt><trkpt lat="41.4761567" lon="14.4758733"><ele>638.3333333333334</ele><time>2026-04-19T09:45:05.146Z</time></trkpt><trkpt lat="41.4760967" lon="14.475815"><ele>637.5</ele><time>2026-04-19T09:45:06.146Z</time></trkpt><trkpt lat="41.476035" lon="14.4757833"><ele>636.6666666666666</ele><time>2026-04-19T09:45:07.147Z</time></trkpt><trkpt lat="41.47596" lon="14.47578"><ele>635.8333333333333</ele><time>2026-04-19T09:45:08.147Z</time></trkpt><trkpt lat="41.47588" lon="14.47581"><ele>635.0</ele><time>2026-04-19T09:45:09.146Z</time></trkpt><trkpt lat="41.4757917" lon="14.4758417"><ele>635.0</ele><time>2026-04-19T09:45:10.146Z</time></trkpt><trkpt lat="41.4757033" lon="14.4758533"><ele>635.0</ele><time>2026-04-19T09:45:11.147Z</time></trkpt><trkpt lat="41.4756183" lon="14.47584"><ele>635.0</ele><time>2026-04-19T09:45:12.147Z</time></trkpt><trkpt lat="41.4755333" lon="14.4758067"><ele>635.0</ele><time>2026-04-19T09:45:13.146Z</time></trkpt><trkpt lat="41.4754567" lon="14.4757483"><ele>635.0</ele><time>2026-04-19T09:45:14.147Z</time></trkpt><trkpt lat="41.4753833" lon="14.4756617"><ele>635.0</ele><time>2026-04-19T09:45:15.146Z</time></trkpt><trkpt lat="41.4753367" lon="14.4755533"><ele>634.4</ele><time>2026-04-19T09:45:16.147Z</time></trkpt><trkpt lat="41.4753" lon="14.4754267"><ele>633.8</ele><time>2026-04-19T09:45:17.147Z</time></trkpt><trkpt lat="41.4752667" lon="14.475305"><ele>633.2</ele><time>2026-04-19T09:45:18.147Z</time></trkpt><trkpt lat="41.47523" lon="14.4751817"><ele>632.6</ele><time>2026-04-19T09:45:19.146Z</time></trkpt><trkpt lat="41.4751917" lon="14.4750467"><ele>632.0</ele><time>2026-04-19T09:45:20.147Z</time></trkpt><trkpt lat="41.475145" lon="14.4749133"><ele>632.0</ele><time>2026-04-19T09:45:21.147Z</time></trkpt><trkpt lat="41.4751017" lon="14.4747783"><ele>632.0</ele><time>2026-04-19T09:45:22.147Z</time></trkpt><trkpt lat="41.4750733" lon="14.4746367"><ele>632.0</ele><time>2026-04-19T09:45:23.147Z</time></trkpt><trkpt lat="41.4750683" lon="14.4745"><ele>632.0</ele><time>2026-04-19T09:45:24.147Z</time></trkpt><trkpt lat="41.4750917" lon="14.4743667"><ele>632.0</ele><time>2026-04-19T09:45:25.147Z</time></trkpt><trkpt lat="41.4751333" lon="14.4742267"><ele>634.4000000000001</ele><time>2026-04-19T09:45:26.147Z</time></trkpt><trkpt lat="41.4751767" lon="14.4740917"><ele>636.8000000000001</ele><time>2026-04-19T09:45:27.147Z</time></trkpt><trkpt lat="41.4752183" lon="14.4739533"><ele>639.2</ele><time>2026-04-19T09:45:28.147Z</time></trkpt><trkpt lat="41.4752567" lon="14.4738117"><ele>641.6</ele><time>2026-04-19T09:45:29.146Z</time></trkpt><trkpt lat="41.4752883" lon="14.4736683"><ele>644.0</ele><time>2026-04-19T09:45:30.147Z</time></trkpt><trkpt lat="41.475315" lon="14.473535"><ele>645.2</ele><time>2026-04-19T09:45:31.147Z</time></trkpt><trkpt lat="41.4753433" lon="14.4734017"><ele>646.4000000000001</ele><time>2026-04-19T09:45:32.146Z</time></trkpt><trkpt lat="41.4753667" lon="14.4732617"><ele>647.6</ele><time>2026-04-19T09:45:33.147Z</time></trkpt><trkpt lat="41.4753867" lon="14.4731367"><ele>648.8</ele><time>2026-04-19T09:45:34.147Z</time></trkpt><trkpt lat="41.4753867" lon="14.473025"><ele>650.0</ele><time>2026-04-19T09:45:35.146Z</time></trkpt><trkpt lat="41.4753667" lon="14.4729233"><ele>652.6</ele><time>2026-04-19T09:45:36.146Z</time></trkpt><trkpt lat="41.4753283" lon="14.4728333"><ele>655.2</ele><time>2026-04-19T09:45:37.147Z</time></trkpt><trkpt lat="41.475265" lon="14.4727583"><ele>657.8</ele><time>2026-04-19T09:45:38.146Z</time></trkpt><trkpt lat="41.4751883" lon="14.4726867"><ele>660.4</ele><time>2026-04-19T09:45:39.146Z</time></trkpt><trkpt lat="41.475095" lon="14.47263"><ele>663.0</ele><time>2026-04-19T09:45:40.147Z</time></trkpt><trkpt lat="41.4749933" lon="14.4725683"><ele>663.0</ele><time>2026-04-19T09:45:41.147Z</time></trkpt><trkpt lat="41.4748967" lon="14.4725033"><ele>663.0</ele><time>2026-04-19T09:45:42.147Z</time></trkpt><trkpt lat="41.4748083" lon="14.47244"><ele>663.0</ele><time>2026-04-19T09:45:43.147Z</time></trkpt><trkpt lat="41.47473" lon="14.4723817"><ele>663.0</ele><time>2026-04-19T09:45:44.147Z</time></trkpt><trkpt lat="41.4746533" lon="14.4723467"><ele>663.0</ele><time>2026-04-19T09:45:45.146Z</time></trkpt><trkpt lat="41.4745783" lon="14.4723367"><ele>663.5999999999999</ele><time>2026-04-19T09:45:46.146Z</time></trkpt><trkpt lat="41.474495" lon="14.472345"><ele>664.1999999999999</ele><time>2026-04-19T09:45:47.147Z</time></trkpt><trkpt lat="41.4744067" lon="14.4723833"><ele>664.8</ele><time>2026-04-19T09:45:48.146Z</time></trkpt><trkpt lat="41.4743133" lon="14.4724267"><ele>665.4</ele><time>2026-04-19T09:45:49.147Z</time></trkpt><trkpt lat="41.4741983" lon="14.4725083"><ele>666.0</ele><time>2026-04-19T09:45:50.147Z</time></trkpt><trkpt lat="41.474085" lon="14.47259"><ele>666.0</ele><time>2026-04-19T09:45:51.147Z</time></trkpt><trkpt lat="41.4739683" lon="14.4726717"><ele>666.0</ele><time>2026-04-19T09:45:52.147Z</time></trkpt><trkpt lat="41.473855" lon="14.4727533"><ele>666.0</ele><time>2026-04-19T09:45:53.147Z</time></trkpt><trkpt lat="41.4737383" lon="14.47283"><ele>666.0</ele><time>2026-04-19T09:45:54.147Z</time></trkpt><trkpt lat="41.4736283" lon="14.4729117"><ele>665.4</ele><time>2026-04-19T09:45:55.147Z</time></trkpt><trkpt lat="41.47353" lon="14.4729867"><ele>664.8</ele><time>2026-04-19T09:45:56.147Z</time></trkpt><trkpt lat="41.4734467" lon="14.4730617"><ele>664.1999999999999</ele><time>2026-04-19T09:45:57.146Z</time></trkpt><trkpt lat="41.473365" lon="14.473145"><ele>663.5999999999999</ele><time>2026-04-19T09:45:58.146Z</time></trkpt><trkpt lat="41.4732933" lon="14.4732283"><ele>663.0</ele><time>2026-04-19T09:45:59.147Z</time></trkpt><trkpt lat="41.4732183" lon="14.4733017"><ele>663.0</ele><time>2026-04-19T09:46:00.146Z</time></trkpt><trkpt lat="41.4731467" lon="14.4733333"><ele>663.0</ele><time>2026-04-19T09:46:01.146Z</time></trkpt><trkpt lat="41.473065" lon="14.4733367"><ele>663.0</ele><time>2026-04-19T09:46:02.147Z</time></trkpt><trkpt lat="41.47298" lon="14.47331"><ele>663.0</ele><time>2026-04-19T09:46:03.147Z</time></trkpt><trkpt lat="41.4728967" lon="14.473265"><ele>663.0</ele><time>2026-04-19T09:46:04.147Z</time></trkpt><trkpt lat="41.472815" lon="14.4732133"><ele>663.0</ele><time>2026-04-19T09:46:05.147Z</time></trkpt><trkpt lat="41.4727317" lon="14.4731583"><ele>663.6666666666666</ele><time>2026-04-19T09:46:06.146Z</time></trkpt><trkpt lat="41.4726517" lon="14.473095"><ele>664.3333333333334</ele><time>2026-04-19T09:46:07.147Z</time></trkpt><trkpt lat="41.4725717" lon="14.473045"><ele>665.0</ele><time>2026-04-19T09:46:08.146Z</time></trkpt><trkpt lat="41.4725067" lon="14.473"><ele>665.6666666666667</ele><time>2026-04-19T09:46:09.147Z</time></trkpt><trkpt lat="41.4724517" lon="14.4729567"><ele>666.3333333333334</ele><time>2026-04-19T09:46:10.147Z</time></trkpt><trkpt lat="41.4723717" lon="14.4728733"><ele>667.0</ele><time>2026-04-19T09:46:12.147Z</time></trkpt><trkpt lat="41.4723567" lon="14.472755"><ele>673.4000000000001</ele><time>2026-04-19T09:46:14.146Z</time></trkpt><trkpt lat="41.47243" lon="14.4726383"><ele>679.8000000000001</ele><time>2026-04-19T09:46:16.146Z</time></trkpt><trkpt lat="41.4725433" lon="14.4726417"><ele>686.2</ele><time>2026-04-19T09:46:18.146Z</time></trkpt><trkpt lat="41.4725983" lon="14.472695"><ele>692.6</ele><time>2026-04-19T09:46:19.147Z</time></trkpt><trkpt lat="41.4726517" lon="14.4727783"><ele>699.0</ele><time>2026-04-19T09:46:20.147Z</time></trkpt><trkpt lat="41.4727167" lon="14.4728733"><ele>693.6666666666666</ele><time>2026-04-19T09:46:21.147Z</time></trkpt><trkpt lat="41.4727767" lon="14.47296"><ele>688.3333333333334</ele><time>2026-04-19T09:46:22.146Z</time></trkpt><trkpt lat="41.47284" lon="14.47301"><ele>683.0</ele><time>2026-04-19T09:46:23.147Z</time></trkpt><trkpt lat="41.4729033" lon="14.4730467"><ele>677.6666666666667</ele><time>2026-04-19T09:46:24.147Z</time></trkpt><trkpt lat="41.4729667" lon="14.4730717"><ele>672.3333333333334</ele><time>2026-04-19T09:46:25.147Z</time></trkpt><trkpt lat="41.4730317" lon="14.473075"><ele>667.0</ele><time>2026-04-19T09:46:26.146Z</time></trkpt><trkpt lat="41.47314" lon="14.472985"><ele>670.0</ele><time>2026-04-19T09:46:28.147Z</time></trkpt><trkpt lat="41.4731783" lon="14.4729033"><ele>673.0</ele><time>2026-04-19T09:46:29.147Z</time></trkpt><trkpt lat="41.4732" lon="14.4727983"><ele>676.0</ele><time>2026-04-19T09:46:30.146Z</time></trkpt><trkpt lat="41.4732233" lon="14.472695"><ele>679.0</ele><time>2026-04-19T09:46:31.146Z</time></trkpt><trkpt lat="41.4732583" lon="14.4725783"><ele>682.0</ele><time>2026-04-19T09:46:32.146Z</time></trkpt><trkpt lat="41.4733" lon="14.472455"><ele>685.0</ele><time>2026-04-19T09:46:33.145Z</time></trkpt><trkpt lat="41.4733567" lon="14.4723367"><ele>685.0</ele><time>2026-04-19T09:46:34.146Z</time></trkpt><trkpt lat="41.4734167" lon="14.47223"><ele>685.0</ele><time>2026-04-19T09:46:35.145Z</time></trkpt><trkpt lat="41.4734883" lon="14.47214"><ele>685.0</ele><time>2026-04-19T09:46:36.146Z</time></trkpt><trkpt lat="41.4735717" lon="14.472035"><ele>685.0</ele><time>2026-04-19T09:46:37.146Z</time></trkpt><trkpt lat="41.4736467" lon="14.471905"><ele>685.0</ele><time>2026-04-19T09:46:38.146Z</time></trkpt><trkpt lat="41.4737217" lon="14.471765"><ele>684.25</ele><time>2026-04-19T09:46:39.146Z</time></trkpt><trkpt lat="41.473805" lon="14.471615"><ele>683.5</ele><time>2026-04-19T09:46:40.146Z</time></trkpt><trkpt lat="41.47388" lon="14.4714783"><ele>682.75</ele><time>2026-04-19T09:46:41.146Z</time></trkpt><trkpt lat="41.4739233" lon="14.4713567"><ele>682.0</ele><time>2026-04-19T09:46:42.146Z</time></trkpt><trkpt lat="41.4739967" lon="14.4712283"><ele>687.25</ele><time>2026-04-19T09:46:43.146Z</time></trkpt><trkpt lat="41.4740867" lon="14.47111"><ele>692.5</ele><time>2026-04-19T09:46:44.146Z</time></trkpt><trkpt lat="41.4741883" lon="14.4710133"><ele>697.75</ele><time>2026-04-19T09:46:45.145Z</time></trkpt><trkpt lat="41.4743067" lon="14.4709317"><ele>703.0</ele><time>2026-04-19T09:46:46.145Z</time></trkpt><trkpt lat="41.4744283" lon="14.4708583"><ele>703.0</ele><time>2026-04-19T09:46:47.146Z</time></trkpt><trkpt lat="41.474555" lon="14.4707867"><ele>703.0</ele><time>2026-04-19T09:46:48.146Z</time></trkpt><trkpt lat="41.4746933" lon="14.4707217"><ele>703.0</ele><time>2026-04-19T09:46:49.146Z</time></trkpt><trkpt lat="41.4748283" lon="14.4706467"><ele>703.0</ele><time>2026-04-19T09:46:50.146Z</time></trkpt><trkpt lat="41.4749617" lon="14.4705633"><ele>705.0</ele><time>2026-04-19T09:46:51.146Z</time></trkpt><trkpt lat="41.4750933" lon="14.4704817"><ele>707.0</ele><time>2026-04-19T09:46:52.146Z</time></trkpt><trkpt lat="41.4752317" lon="14.4704017"><ele>709.0</ele><time>2026-04-19T09:46:53.146Z</time></trkpt><trkpt lat="41.4753683" lon="14.4703033"><ele>707.5</ele><time>2026-04-19T09:46:54.146Z</time></trkpt><trkpt lat="41.4754917" lon="14.470205"><ele>706.0</ele><time>2026-04-19T09:46:55.146Z</time></trkpt><trkpt lat="41.4756083" lon="14.4701033"><ele>704.5</ele><time>2026-04-19T09:46:56.145Z</time></trkpt><trkpt lat="41.4757217" lon="14.47"><ele>703.0</ele><time>2026-04-19T09:46:57.146Z</time></trkpt><trkpt lat="41.4758317" lon="14.46991"><ele>703.0</ele><time>2026-04-19T09:46:58.146Z</time></trkpt><trkpt lat="41.4759383" lon="14.4698333"><ele>703.0</ele><time>2026-04-19T09:46:59.145Z</time></trkpt><trkpt lat="41.4760333" lon="14.4697633"><ele>703.0</ele><time>2026-04-19T09:47:00.146Z</time></trkpt><trkpt lat="41.476135" lon="14.4697117"><ele>703.0</ele><time>2026-04-19T09:47:01.146Z</time></trkpt><trkpt lat="41.4762467" lon="14.4696783"><ele>704.2</ele><time>2026-04-19T09:47:02.145Z</time></trkpt><trkpt lat="41.4763533" lon="14.46968"><ele>705.4</ele><time>2026-04-19T09:47:03.146Z</time></trkpt><trkpt lat="41.4764733" lon="14.4696983"><ele>706.6</ele><time>2026-04-19T09:47:04.146Z</time></trkpt><trkpt lat="41.4765917" lon="14.46972"><ele>707.8000000000001</ele><time>2026-04-19T09:47:05.146Z</time></trkpt><trkpt lat="41.4766917" lon="14.4697483"><ele>709.0</ele><time>2026-04-19T09:47:06.146Z</time></trkpt><trkpt lat="41.47678" lon="14.4697767"><ele>709.0</ele><time>2026-04-19T09:47:07.145Z</time></trkpt><trkpt lat="41.4768533" lon="14.469825"><ele>709.0</ele><time>2026-04-19T09:47:08.146Z</time></trkpt><trkpt lat="41.4769117" lon="14.469895"><ele>709.0</ele><time>2026-04-19T09:47:09.146Z</time></trkpt><trkpt lat="41.4769517" lon="14.4699983"><ele>709.0</ele><time>2026-04-19T09:47:10.146Z</time></trkpt><trkpt lat="41.476975" lon="14.470115"><ele>709.0</ele><time>2026-04-19T09:47:11.145Z</time></trkpt><trkpt lat="41.4769867" lon="14.4702517"><ele>709.0</ele><time>2026-04-19T09:47:12.146Z</time></trkpt><trkpt lat="41.4769933" lon="14.470385"><ele>709.2</ele><time>2026-04-19T09:47:13.146Z</time></trkpt><trkpt lat="41.47698" lon="14.47052"><ele>709.4000000000001</ele><time>2026-04-19T09:47:14.145Z</time></trkpt><trkpt lat="41.4769433" lon="14.4706467"><ele>709.6</ele><time>2026-04-19T09:47:15.146Z</time></trkpt><trkpt lat="41.4768983" lon="14.4707717"><ele>709.8</ele><time>2026-04-19T09:47:16.146Z</time></trkpt><trkpt lat="41.4768517" lon="14.4709"><ele>710.0</ele><time>2026-04-19T09:47:17.146Z</time></trkpt><trkpt lat="41.476805" lon="14.4710233"><ele>710.0</ele><time>2026-04-19T09:47:18.145Z</time></trkpt><trkpt lat="41.4767617" lon="14.47115"><ele>710.0</ele><time>2026-04-19T09:47:19.145Z</time></trkpt><trkpt lat="41.4767233" lon="14.471265"><ele>710.0</ele><time>2026-04-19T09:47:20.146Z</time></trkpt><trkpt lat="41.47669" lon="14.4713883"><ele>710.0</ele><time>2026-04-19T09:47:21.146Z</time></trkpt><trkpt lat="41.476655" lon="14.4714933"><ele>710.0</ele><time>2026-04-19T09:47:22.145Z</time></trkpt><trkpt lat="41.476625" lon="14.4715817"><ele>717.0</ele><time>2026-04-19T09:47:23.146Z</time></trkpt><trkpt lat="41.4766" lon="14.4717117"><ele>717.0</ele><time>2026-04-19T09:47:25.146Z</time></trkpt><trkpt lat="41.4766033" lon="14.4718017"><ele>717.0</ele><time>2026-04-19T09:47:27.145Z</time></trkpt><trkpt lat="41.476605" lon="14.4719067"><ele>717.0</ele><time>2026-04-19T09:47:30.145Z</time></trkpt></trkseg></trk></gpx>